<?xml version="1.0" encoding="UTF-8" standalone="no"?>
<gpx version="1.1" creator="GPX Editor 1.3.56.1423" xmlns="http://www.topografix.com/GPX/1/1" xmlns:xsi="http://www.w3.org/2001/XMLSchema-instance" xsi:schemaLocation="http://www.topografix.com/GPX/1/1 http://www.topografix.com/GPX/1/1/gpx.xsd">
<metadata>
	<name>(2013-12-29) - Rund um Palma de Mallorca</name>
	<link href="http://www.komoot.de">
		<text>komoot homepage</text>
		<type>text/html</type>
	</link>
	<bounds minlat="39.5053749084473" minlon="2.55605506896973" maxlat="39.621467590332" maxlon="2.7761766910553" />
</metadata>
<trk>
	<name>(2013-12-29) - Rund um Palma de Mallorca</name>
	<trkseg>
		<trkpt lat="39.5071449279785" lon="2.75531101226807">
			<ele>70.8000030517578</ele>
			<time>2013-12-29T08:59:27Z</time>
		</trkpt>
		<trkpt lat="39.5071868896484" lon="2.75528717041016">
			<ele>70.0999984741211</ele>
			<time>2013-12-29T08:59:48Z</time>
		</trkpt>
		<trkpt lat="39.5072479248047" lon="2.75523495674133">
			<ele>68.8000030517578</ele>
			<time>2013-12-29T08:59:51Z</time>
		</trkpt>
		<trkpt lat="39.507266998291" lon="2.75518083572388">
			<ele>67.8000030517578</ele>
			<time>2013-12-29T08:59:52Z</time>
		</trkpt>
		<trkpt lat="39.5072975158691" lon="2.75510549545288">
			<ele>66.8000030517578</ele>
			<time>2013-12-29T08:59:54Z</time>
		</trkpt>
		<trkpt lat="39.5073204040527" lon="2.75504946708679">
			<ele>65.8000030517578</ele>
			<time>2013-12-29T08:59:56Z</time>
		</trkpt>
		<trkpt lat="39.5073509216309" lon="2.75500464439392">
			<ele>63.5999984741211</ele>
			<time>2013-12-29T08:59:58Z</time>
		</trkpt>
		<trkpt lat="39.5073776245117" lon="2.75493550300598">
			<ele>63.5999984741211</ele>
			<time>2013-12-29T09:00:00Z</time>
		</trkpt>
		<trkpt lat="39.5074119567871" lon="2.7548496723175">
			<ele>62.0999984741211</ele>
			<time>2013-12-29T09:00:02Z</time>
		</trkpt>
		<trkpt lat="39.5074462890625" lon="2.75476956367493">
			<ele>61.2000007629395</ele>
			<time>2013-12-29T09:00:04Z</time>
		</trkpt>
		<trkpt lat="39.5074844360352" lon="2.75469326972961">
			<ele>60.0999984741211</ele>
			<time>2013-12-29T09:00:06Z</time>
		</trkpt>
		<trkpt lat="39.5074996948242" lon="2.75460577011108">
			<ele>60.0999984741211</ele>
			<time>2013-12-29T09:00:08Z</time>
		</trkpt>
		<trkpt lat="39.5075302124023" lon="2.75452852249146">
			<ele>59.5</ele>
			<time>2013-12-29T09:00:10Z</time>
		</trkpt>
		<trkpt lat="39.5075607299805" lon="2.75445771217346">
			<ele>59.0999984741211</ele>
			<time>2013-12-29T09:00:12Z</time>
		</trkpt>
		<trkpt lat="39.5075950622559" lon="2.75439691543579">
			<ele>59.7000007629395</ele>
			<time>2013-12-29T09:00:14Z</time>
		</trkpt>
		<trkpt lat="39.5076484680176" lon="2.75440430641174">
			<ele>59.7000007629395</ele>
			<time>2013-12-29T09:00:16Z</time>
		</trkpt>
		<trkpt lat="39.5076942443848" lon="2.7544219493866">
			<ele>62.4000015258789</ele>
			<time>2013-12-29T09:00:19Z</time>
		</trkpt>
		<trkpt lat="39.5077705383301" lon="2.75445437431335">
			<ele>62.9000015258789</ele>
			<time>2013-12-29T09:00:23Z</time>
		</trkpt>
		<trkpt lat="39.5078201293945" lon="2.75448656082153">
			<ele>63.0999984741211</ele>
			<time>2013-12-29T09:00:24Z</time>
		</trkpt>
		<trkpt lat="39.5078735351563" lon="2.75452423095703">
			<ele>63.4000015258789</ele>
			<time>2013-12-29T09:00:25Z</time>
		</trkpt>
		<trkpt lat="39.5079536437988" lon="2.75458669662476">
			<ele>62.9000015258789</ele>
			<time>2013-12-29T09:00:26Z</time>
		</trkpt>
		<trkpt lat="39.5080223083496" lon="2.75462698936462">
			<ele>63.0999984741211</ele>
			<time>2013-12-29T09:00:27Z</time>
		</trkpt>
		<trkpt lat="39.5080909729004" lon="2.75465941429138">
			<ele>61.9000015258789</ele>
			<time>2013-12-29T09:00:29Z</time>
		</trkpt>
		<trkpt lat="39.5081329345703" lon="2.75470972061157">
			<ele>61.2999992370605</ele>
			<time>2013-12-29T09:00:31Z</time>
		</trkpt>
		<trkpt lat="39.5081825256348" lon="2.75474143028259">
			<ele>60.7999992370605</ele>
			<time>2013-12-29T09:00:32Z</time>
		</trkpt>
		<trkpt lat="39.508228302002" lon="2.75476717948914">
			<ele>60.7000007629395</ele>
			<time>2013-12-29T09:00:34Z</time>
		</trkpt>
		<trkpt lat="39.5082817077637" lon="2.75481748580933">
			<ele>60.5</ele>
			<time>2013-12-29T09:00:36Z</time>
		</trkpt>
		<trkpt lat="39.5083351135254" lon="2.75482797622681">
			<ele>58</ele>
			<time>2013-12-29T09:00:39Z</time>
		</trkpt>
		<trkpt lat="39.5083885192871" lon="2.75486350059509">
			<ele>56.9000015258789</ele>
			<time>2013-12-29T09:00:41Z</time>
		</trkpt>
		<trkpt lat="39.508430480957" lon="2.75490021705627">
			<ele>57.5999984741211</ele>
			<time>2013-12-29T09:00:43Z</time>
		</trkpt>
		<trkpt lat="39.5084915161133" lon="2.75488305091858">
			<ele>56.0999984741211</ele>
			<time>2013-12-29T09:00:46Z</time>
		</trkpt>
		<trkpt lat="39.508544921875" lon="2.75486040115356">
			<ele>57.2000007629395</ele>
			<time>2013-12-29T09:00:48Z</time>
		</trkpt>
		<trkpt lat="39.5085754394531" lon="2.75479459762573">
			<ele>59.7000007629395</ele>
			<time>2013-12-29T09:00:51Z</time>
		</trkpt>
		<trkpt lat="39.5086097717285" lon="2.75475406646729">
			<ele>59.7999992370605</ele>
			<time>2013-12-29T09:00:54Z</time>
		</trkpt>
		<trkpt lat="39.5086326599121" lon="2.75469851493835">
			<ele>59.5999984741211</ele>
			<time>2013-12-29T09:00:57Z</time>
		</trkpt>
		<trkpt lat="39.5086517333984" lon="2.75463271141052">
			<ele>57.2000007629395</ele>
			<time>2013-12-29T09:05:47Z</time>
		</trkpt>
		<trkpt lat="39.5086669921875" lon="2.75457811355591">
			<ele>57.4000015258789</ele>
			<time>2013-12-29T09:05:50Z</time>
		</trkpt>
		<trkpt lat="39.5086860656738" lon="2.75451970100403">
			<ele>57.9000015258789</ele>
			<time>2013-12-29T09:05:53Z</time>
		</trkpt>
		<trkpt lat="39.508659362793" lon="2.75445652008057">
			<ele>56.9000015258789</ele>
			<time>2013-12-29T09:06:00Z</time>
		</trkpt>
		<trkpt lat="39.5086860656738" lon="2.75438618659973">
			<ele>57</ele>
			<time>2013-12-29T09:06:02Z</time>
		</trkpt>
		<trkpt lat="39.5087203979492" lon="2.75430512428284">
			<ele>56.5</ele>
			<time>2013-12-29T09:06:04Z</time>
		</trkpt>
		<trkpt lat="39.5087471008301" lon="2.75421452522278">
			<ele>56.7000007629395</ele>
			<time>2013-12-29T09:06:06Z</time>
		</trkpt>
		<trkpt lat="39.5087738037109" lon="2.75412511825562">
			<ele>56</ele>
			<time>2013-12-29T09:06:08Z</time>
		</trkpt>
		<trkpt lat="39.5088081359863" lon="2.75402998924255">
			<ele>55.4000015258789</ele>
			<time>2013-12-29T09:06:10Z</time>
		</trkpt>
		<trkpt lat="39.508846282959" lon="2.75393748283386">
			<ele>55.9000015258789</ele>
			<time>2013-12-29T09:06:12Z</time>
		</trkpt>
		<trkpt lat="39.5088768005371" lon="2.7538468837738">
			<ele>56.0999984741211</ele>
			<time>2013-12-29T09:06:14Z</time>
		</trkpt>
		<trkpt lat="39.5089111328125" lon="2.75375509262085">
			<ele>55.7999992370605</ele>
			<time>2013-12-29T09:06:16Z</time>
		</trkpt>
		<trkpt lat="39.5089454650879" lon="2.75366497039795">
			<ele>56</ele>
			<time>2013-12-29T09:06:18Z</time>
		</trkpt>
		<trkpt lat="39.508975982666" lon="2.75357246398926">
			<ele>56</ele>
			<time>2013-12-29T09:06:20Z</time>
		</trkpt>
		<trkpt lat="39.5090103149414" lon="2.75348043441772">
			<ele>55.4000015258789</ele>
			<time>2013-12-29T09:06:22Z</time>
		</trkpt>
		<trkpt lat="39.5090484619141" lon="2.75338745117188">
			<ele>55</ele>
			<time>2013-12-29T09:06:24Z</time>
		</trkpt>
		<trkpt lat="39.5090789794922" lon="2.7532947063446">
			<ele>54.5999984741211</ele>
			<time>2013-12-29T09:06:26Z</time>
		</trkpt>
		<trkpt lat="39.5091133117676" lon="2.75320768356323">
			<ele>54.5999984741211</ele>
			<time>2013-12-29T09:06:28Z</time>
		</trkpt>
		<trkpt lat="39.5091438293457" lon="2.75313520431519">
			<ele>54.7999992370605</ele>
			<time>2013-12-29T09:06:30Z</time>
		</trkpt>
		<trkpt lat="39.5091857910156" lon="2.7530722618103">
			<ele>54.4000015258789</ele>
			<time>2013-12-29T09:06:32Z</time>
		</trkpt>
		<trkpt lat="39.5092353820801" lon="2.75301885604858">
			<ele>54.5</ele>
			<time>2013-12-29T09:06:34Z</time>
		</trkpt>
		<trkpt lat="39.5093040466309" lon="2.75297427177429">
			<ele>54.9000015258789</ele>
			<time>2013-12-29T09:06:36Z</time>
		</trkpt>
		<trkpt lat="39.5093765258789" lon="2.75292634963989">
			<ele>55.2000007629395</ele>
			<time>2013-12-29T09:06:38Z</time>
		</trkpt>
		<trkpt lat="39.5094413757324" lon="2.7528772354126">
			<ele>54.9000015258789</ele>
			<time>2013-12-29T09:06:40Z</time>
		</trkpt>
		<trkpt lat="39.5095100402832" lon="2.75283288955688">
			<ele>55.0999984741211</ele>
			<time>2013-12-29T09:06:42Z</time>
		</trkpt>
		<trkpt lat="39.5095825195313" lon="2.75279259681702">
			<ele>55.2000007629395</ele>
			<time>2013-12-29T09:06:44Z</time>
		</trkpt>
		<trkpt lat="39.5096588134766" lon="2.75275754928589">
			<ele>54.7999992370605</ele>
			<time>2013-12-29T09:06:46Z</time>
		</trkpt>
		<trkpt lat="39.5097312927246" lon="2.75272226333618">
			<ele>54.7999992370605</ele>
			<time>2013-12-29T09:06:48Z</time>
		</trkpt>
		<trkpt lat="39.5097961425781" lon="2.75267767906189">
			<ele>55</ele>
			<time>2013-12-29T09:06:50Z</time>
		</trkpt>
		<trkpt lat="39.5098686218262" lon="2.75263833999634">
			<ele>55.2999992370605</ele>
			<time>2013-12-29T09:06:52Z</time>
		</trkpt>
		<trkpt lat="39.5099411010742" lon="2.75261259078979">
			<ele>55.2999992370605</ele>
			<time>2013-12-29T09:06:54Z</time>
		</trkpt>
		<trkpt lat="39.5100173950195" lon="2.7525691986084">
			<ele>54.2999992370605</ele>
			<time>2013-12-29T09:06:56Z</time>
		</trkpt>
		<trkpt lat="39.5100898742676" lon="2.75253200531006">
			<ele>54.5999984741211</ele>
			<time>2013-12-29T09:06:58Z</time>
		</trkpt>
		<trkpt lat="39.5101623535156" lon="2.75249218940735">
			<ele>55.9000015258789</ele>
			<time>2013-12-29T09:07:00Z</time>
		</trkpt>
		<trkpt lat="39.5102081298828" lon="2.75247836112976">
			<ele>56.0999984741211</ele>
			<time>2013-12-29T09:07:01Z</time>
		</trkpt>
		<trkpt lat="39.5102691650391" lon="2.75242853164673">
			<ele>56</ele>
			<time>2013-12-29T09:07:03Z</time>
		</trkpt>
		<trkpt lat="39.5103378295898" lon="2.7523946762085">
			<ele>54.9000015258789</ele>
			<time>2013-12-29T09:07:05Z</time>
		</trkpt>
		<trkpt lat="39.5104064941406" lon="2.75235223770142">
			<ele>54.7000007629395</ele>
			<time>2013-12-29T09:07:07Z</time>
		</trkpt>
		<trkpt lat="39.5104751586914" lon="2.75230979919434">
			<ele>54.4000015258789</ele>
			<time>2013-12-29T09:07:09Z</time>
		</trkpt>
		<trkpt lat="39.5105438232422" lon="2.752281665802">
			<ele>54.5</ele>
			<time>2013-12-29T09:07:11Z</time>
		</trkpt>
		<trkpt lat="39.5106086730957" lon="2.75224876403809">
			<ele>54.7999992370605</ele>
			<time>2013-12-29T09:07:13Z</time>
		</trkpt>
		<trkpt lat="39.5106735229492" lon="2.75222063064575">
			<ele>55.0999984741211</ele>
			<time>2013-12-29T09:07:15Z</time>
		</trkpt>
		<trkpt lat="39.5107460021973" lon="2.75218653678894">
			<ele>55.0999984741211</ele>
			<time>2013-12-29T09:07:17Z</time>
		</trkpt>
		<trkpt lat="39.5108108520508" lon="2.75214242935181">
			<ele>55.7999992370605</ele>
			<time>2013-12-29T09:07:19Z</time>
		</trkpt>
		<trkpt lat="39.5108795166016" lon="2.75210809707642">
			<ele>56</ele>
			<time>2013-12-29T09:07:21Z</time>
		</trkpt>
		<trkpt lat="39.5109405517578" lon="2.7520740032196">
			<ele>56.2000007629395</ele>
			<time>2013-12-29T09:07:23Z</time>
		</trkpt>
		<trkpt lat="39.5110054016113" lon="2.75203204154968">
			<ele>56.0999984741211</ele>
			<time>2013-12-29T09:07:25Z</time>
		</trkpt>
		<trkpt lat="39.5110702514648" lon="2.75199317932129">
			<ele>56</ele>
			<time>2013-12-29T09:07:27Z</time>
		</trkpt>
		<trkpt lat="39.5111351013184" lon="2.75195980072021">
			<ele>55.5</ele>
			<time>2013-12-29T09:07:29Z</time>
		</trkpt>
		<trkpt lat="39.5111846923828" lon="2.75193119049072">
			<ele>55.4000015258789</ele>
			<time>2013-12-29T09:07:31Z</time>
		</trkpt>
		<trkpt lat="39.5112152099609" lon="2.75187873840332">
			<ele>55.2999992370605</ele>
			<time>2013-12-29T09:07:33Z</time>
		</trkpt>
		<trkpt lat="39.5112037658691" lon="2.75179553031921">
			<ele>54.9000015258789</ele>
			<time>2013-12-29T09:07:35Z</time>
		</trkpt>
		<trkpt lat="39.5111656188965" lon="2.75171542167664">
			<ele>54.7000007629395</ele>
			<time>2013-12-29T09:07:37Z</time>
		</trkpt>
		<trkpt lat="39.5111389160156" lon="2.75162267684937">
			<ele>54.7000007629395</ele>
			<time>2013-12-29T09:07:39Z</time>
		</trkpt>
		<trkpt lat="39.5111083984375" lon="2.75152778625488">
			<ele>54.2999992370605</ele>
			<time>2013-12-29T09:07:41Z</time>
		</trkpt>
		<trkpt lat="39.5110778808594" lon="2.75143051147461">
			<ele>53.7999992370605</ele>
			<time>2013-12-29T09:07:43Z</time>
		</trkpt>
		<trkpt lat="39.5110473632813" lon="2.75133514404297">
			<ele>53.5</ele>
			<time>2013-12-29T09:07:45Z</time>
		</trkpt>
		<trkpt lat="39.5110168457031" lon="2.75123643875122">
			<ele>53.2000007629395</ele>
			<time>2013-12-29T09:07:47Z</time>
		</trkpt>
		<trkpt lat="39.5109825134277" lon="2.75113677978516">
			<ele>53.0999984741211</ele>
			<time>2013-12-29T09:07:49Z</time>
		</trkpt>
		<trkpt lat="39.5109481811523" lon="2.75103998184204">
			<ele>52.7000007629395</ele>
			<time>2013-12-29T09:07:51Z</time>
		</trkpt>
		<trkpt lat="39.5109214782715" lon="2.75094103813171">
			<ele>52.5</ele>
			<time>2013-12-29T09:07:53Z</time>
		</trkpt>
		<trkpt lat="39.5108947753906" lon="2.75089168548584">
			<ele>52.4000015258789</ele>
			<time>2013-12-29T09:07:54Z</time>
		</trkpt>
		<trkpt lat="39.5108642578125" lon="2.7507905960083">
			<ele>51.9000015258789</ele>
			<time>2013-12-29T09:07:56Z</time>
		</trkpt>
		<trkpt lat="39.5108337402344" lon="2.75068068504333">
			<ele>51.9000015258789</ele>
			<time>2013-12-29T09:07:58Z</time>
		</trkpt>
		<trkpt lat="39.5108261108398" lon="2.75058174133301">
			<ele>51.9000015258789</ele>
			<time>2013-12-29T09:08:00Z</time>
		</trkpt>
		<trkpt lat="39.5108070373535" lon="2.75050139427185">
			<ele>52.2999992370605</ele>
			<time>2013-12-29T09:08:02Z</time>
		</trkpt>
		<trkpt lat="39.5107688903809" lon="2.75044012069702">
			<ele>54.4000015258789</ele>
			<time>2013-12-29T09:08:27Z</time>
		</trkpt>
		<trkpt lat="39.5107421875" lon="2.75038051605225">
			<ele>54.4000015258789</ele>
			<time>2013-12-29T09:08:29Z</time>
		</trkpt>
		<trkpt lat="39.5107040405273" lon="2.75028467178345">
			<ele>54.0999984741211</ele>
			<time>2013-12-29T09:08:33Z</time>
		</trkpt>
		<trkpt lat="39.5106773376465" lon="2.75019383430481">
			<ele>53.7000007629395</ele>
			<time>2013-12-29T09:08:35Z</time>
		</trkpt>
		<trkpt lat="39.5106506347656" lon="2.75010633468628">
			<ele>53.0999984741211</ele>
			<time>2013-12-29T09:08:37Z</time>
		</trkpt>
		<trkpt lat="39.5106163024902" lon="2.75001358985901">
			<ele>53</ele>
			<time>2013-12-29T09:08:39Z</time>
		</trkpt>
		<trkpt lat="39.5105819702148" lon="2.749924659729">
			<ele>52.9000015258789</ele>
			<time>2013-12-29T09:08:41Z</time>
		</trkpt>
		<trkpt lat="39.5105514526367" lon="2.74983477592468">
			<ele>53</ele>
			<time>2013-12-29T09:08:43Z</time>
		</trkpt>
		<trkpt lat="39.5105323791504" lon="2.74977517127991">
			<ele>53.5999984741211</ele>
			<time>2013-12-29T09:08:44Z</time>
		</trkpt>
		<trkpt lat="39.510498046875" lon="2.74968004226685">
			<ele>53.2000007629395</ele>
			<time>2013-12-29T09:08:46Z</time>
		</trkpt>
		<trkpt lat="39.5104675292969" lon="2.74958109855652">
			<ele>52.9000015258789</ele>
			<time>2013-12-29T09:08:48Z</time>
		</trkpt>
		<trkpt lat="39.5104446411133" lon="2.74949359893799">
			<ele>52.9000015258789</ele>
			<time>2013-12-29T09:08:50Z</time>
		</trkpt>
		<trkpt lat="39.5104217529297" lon="2.74941754341125">
			<ele>52.7000007629395</ele>
			<time>2013-12-29T09:08:52Z</time>
		</trkpt>
		<trkpt lat="39.5104026794434" lon="2.74934887886047">
			<ele>53.5</ele>
			<time>2013-12-29T09:08:54Z</time>
		</trkpt>
		<trkpt lat="39.5104217529297" lon="2.74927592277527">
			<ele>55.5</ele>
			<time>2013-12-29T09:09:03Z</time>
		</trkpt>
		<trkpt lat="39.5104751586914" lon="2.74925446510315">
			<ele>55.7000007629395</ele>
			<time>2013-12-29T09:09:05Z</time>
		</trkpt>
		<trkpt lat="39.5105400085449" lon="2.74923229217529">
			<ele>55.5</ele>
			<time>2013-12-29T09:09:07Z</time>
		</trkpt>
		<trkpt lat="39.5106086730957" lon="2.74919486045837">
			<ele>55.5999984741211</ele>
			<time>2013-12-29T09:09:09Z</time>
		</trkpt>
		<trkpt lat="39.5106811523438" lon="2.74916481971741">
			<ele>55.7999992370605</ele>
			<time>2013-12-29T09:09:11Z</time>
		</trkpt>
		<trkpt lat="39.5107460021973" lon="2.74915719032288">
			<ele>55.5</ele>
			<time>2013-12-29T09:09:13Z</time>
		</trkpt>
		<trkpt lat="39.5108222961426" lon="2.74912667274475">
			<ele>55.4000015258789</ele>
			<time>2013-12-29T09:09:15Z</time>
		</trkpt>
		<trkpt lat="39.5108909606934" lon="2.74908638000488">
			<ele>55.7000007629395</ele>
			<time>2013-12-29T09:09:17Z</time>
		</trkpt>
		<trkpt lat="39.5109634399414" lon="2.74904489517212">
			<ele>56</ele>
			<time>2013-12-29T09:09:19Z</time>
		</trkpt>
		<trkpt lat="39.5110359191895" lon="2.74900603294373">
			<ele>56.2999992370605</ele>
			<time>2013-12-29T09:09:21Z</time>
		</trkpt>
		<trkpt lat="39.5111045837402" lon="2.7489652633667">
			<ele>56.4000015258789</ele>
			<time>2013-12-29T09:09:23Z</time>
		</trkpt>
		<trkpt lat="39.5111770629883" lon="2.7489230632782">
			<ele>56.4000015258789</ele>
			<time>2013-12-29T09:09:25Z</time>
		</trkpt>
		<trkpt lat="39.5112457275391" lon="2.74887681007385">
			<ele>56.4000015258789</ele>
			<time>2013-12-29T09:09:27Z</time>
		</trkpt>
		<trkpt lat="39.5113105773926" lon="2.74883246421814">
			<ele>56.5</ele>
			<time>2013-12-29T09:09:29Z</time>
		</trkpt>
		<trkpt lat="39.5113830566406" lon="2.74878597259521">
			<ele>56.5</ele>
			<time>2013-12-29T09:09:31Z</time>
		</trkpt>
		<trkpt lat="39.5114517211914" lon="2.74874520301819">
			<ele>56.5</ele>
			<time>2013-12-29T09:09:33Z</time>
		</trkpt>
		<trkpt lat="39.5115203857422" lon="2.7487051486969">
			<ele>56.5</ele>
			<time>2013-12-29T09:09:35Z</time>
		</trkpt>
		<trkpt lat="39.511589050293" lon="2.74866032600403">
			<ele>56.2000007629395</ele>
			<time>2013-12-29T09:09:37Z</time>
		</trkpt>
		<trkpt lat="39.5116577148438" lon="2.74861454963684">
			<ele>56</ele>
			<time>2013-12-29T09:09:39Z</time>
		</trkpt>
		<trkpt lat="39.5117263793945" lon="2.7485659122467">
			<ele>55.9000015258789</ele>
			<time>2013-12-29T09:09:41Z</time>
		</trkpt>
		<trkpt lat="39.511791229248" lon="2.74851441383362">
			<ele>56</ele>
			<time>2013-12-29T09:09:43Z</time>
		</trkpt>
		<trkpt lat="39.5118598937988" lon="2.74846839904785">
			<ele>55.7999992370605</ele>
			<time>2013-12-29T09:09:45Z</time>
		</trkpt>
		<trkpt lat="39.5119323730469" lon="2.74842476844788">
			<ele>55.7999992370605</ele>
			<time>2013-12-29T09:09:47Z</time>
		</trkpt>
		<trkpt lat="39.5119972229004" lon="2.74837589263916">
			<ele>55.9000015258789</ele>
			<time>2013-12-29T09:09:49Z</time>
		</trkpt>
		<trkpt lat="39.5120658874512" lon="2.74833106994629">
			<ele>56</ele>
			<time>2013-12-29T09:09:51Z</time>
		</trkpt>
		<trkpt lat="39.5121307373047" lon="2.7482852935791">
			<ele>56</ele>
			<time>2013-12-29T09:09:53Z</time>
		</trkpt>
		<trkpt lat="39.5121994018555" lon="2.7482328414917">
			<ele>56.2000007629395</ele>
			<time>2013-12-29T09:09:55Z</time>
		</trkpt>
		<trkpt lat="39.5122680664063" lon="2.74818158149719">
			<ele>56.0999984741211</ele>
			<time>2013-12-29T09:09:57Z</time>
		</trkpt>
		<trkpt lat="39.512336730957" lon="2.74812531471252">
			<ele>55.7000007629395</ele>
			<time>2013-12-29T09:09:59Z</time>
		</trkpt>
		<trkpt lat="39.5124015808105" lon="2.74806594848633">
			<ele>55.7000007629395</ele>
			<time>2013-12-29T09:10:01Z</time>
		</trkpt>
		<trkpt lat="39.5124702453613" lon="2.74801468849182">
			<ele>55.7000007629395</ele>
			<time>2013-12-29T09:10:03Z</time>
		</trkpt>
		<trkpt lat="39.5125389099121" lon="2.74796319007874">
			<ele>55.7000007629395</ele>
			<time>2013-12-29T09:10:05Z</time>
		</trkpt>
		<trkpt lat="39.5126075744629" lon="2.74791359901428">
			<ele>55.7000007629395</ele>
			<time>2013-12-29T09:10:07Z</time>
		</trkpt>
		<trkpt lat="39.5126724243164" lon="2.74786305427551">
			<ele>55.5999984741211</ele>
			<time>2013-12-29T09:10:09Z</time>
		</trkpt>
		<trkpt lat="39.5127372741699" lon="2.74780702590942">
			<ele>55.4000015258789</ele>
			<time>2013-12-29T09:10:11Z</time>
		</trkpt>
		<trkpt lat="39.5128021240234" lon="2.74775123596191">
			<ele>55.4000015258789</ele>
			<time>2013-12-29T09:10:13Z</time>
		</trkpt>
		<trkpt lat="39.512866973877" lon="2.74769735336304">
			<ele>55.4000015258789</ele>
			<time>2013-12-29T09:10:15Z</time>
		</trkpt>
		<trkpt lat="39.5129318237305" lon="2.74764561653137">
			<ele>55.2999992370605</ele>
			<time>2013-12-29T09:10:17Z</time>
		</trkpt>
		<trkpt lat="39.512996673584" lon="2.74759221076965">
			<ele>55.2000007629395</ele>
			<time>2013-12-29T09:10:19Z</time>
		</trkpt>
		<trkpt lat="39.5130577087402" lon="2.74754071235657">
			<ele>55.0999984741211</ele>
			<time>2013-12-29T09:10:21Z</time>
		</trkpt>
		<trkpt lat="39.5131568908691" lon="2.74746608734131">
			<ele>55.2000007629395</ele>
			<time>2013-12-29T09:10:24Z</time>
		</trkpt>
		<trkpt lat="39.5132179260254" lon="2.74741983413696">
			<ele>54.9000015258789</ele>
			<time>2013-12-29T09:10:26Z</time>
		</trkpt>
		<trkpt lat="39.5132827758789" lon="2.7473738193512">
			<ele>54.7999992370605</ele>
			<time>2013-12-29T09:10:28Z</time>
		</trkpt>
		<trkpt lat="39.5133476257324" lon="2.74732565879822">
			<ele>54.7000007629395</ele>
			<time>2013-12-29T09:10:30Z</time>
		</trkpt>
		<trkpt lat="39.5134086608887" lon="2.74727463722229">
			<ele>54.5999984741211</ele>
			<time>2013-12-29T09:10:32Z</time>
		</trkpt>
		<trkpt lat="39.5134696960449" lon="2.74721932411194">
			<ele>54.7000007629395</ele>
			<time>2013-12-29T09:10:34Z</time>
		</trkpt>
		<trkpt lat="39.5135345458984" lon="2.74716448783875">
			<ele>54.5999984741211</ele>
			<time>2013-12-29T09:10:36Z</time>
		</trkpt>
		<trkpt lat="39.5135917663574" lon="2.74710297584534">
			<ele>56</ele>
			<time>2013-12-29T09:10:38Z</time>
		</trkpt>
		<trkpt lat="39.5136566162109" lon="2.74705362319946">
			<ele>55.7999992370605</ele>
			<time>2013-12-29T09:10:40Z</time>
		</trkpt>
		<trkpt lat="39.5137176513672" lon="2.74699831008911">
			<ele>56.0999984741211</ele>
			<time>2013-12-29T09:10:42Z</time>
		</trkpt>
		<trkpt lat="39.5137825012207" lon="2.74695062637329">
			<ele>56.2000007629395</ele>
			<time>2013-12-29T09:10:44Z</time>
		</trkpt>
		<trkpt lat="39.5138473510742" lon="2.74690341949463">
			<ele>56.5</ele>
			<time>2013-12-29T09:10:46Z</time>
		</trkpt>
		<trkpt lat="39.5139122009277" lon="2.74684953689575">
			<ele>56.2999992370605</ele>
			<time>2013-12-29T09:10:48Z</time>
		</trkpt>
		<trkpt lat="39.5139808654785" lon="2.74679732322693">
			<ele>56</ele>
			<time>2013-12-29T09:10:50Z</time>
		</trkpt>
		<trkpt lat="39.514045715332" lon="2.74675130844116">
			<ele>56.2999992370605</ele>
			<time>2013-12-29T09:10:52Z</time>
		</trkpt>
		<trkpt lat="39.5141105651855" lon="2.74670553207397">
			<ele>56.5</ele>
			<time>2013-12-29T09:10:54Z</time>
		</trkpt>
		<trkpt lat="39.5141792297363" lon="2.74665832519531">
			<ele>56.5999984741211</ele>
			<time>2013-12-29T09:10:56Z</time>
		</trkpt>
		<trkpt lat="39.5142440795898" lon="2.74660611152649">
			<ele>56.2999992370605</ele>
			<time>2013-12-29T09:10:58Z</time>
		</trkpt>
		<trkpt lat="39.5143051147461" lon="2.74655365943909">
			<ele>55.9000015258789</ele>
			<time>2013-12-29T09:11:00Z</time>
		</trkpt>
		<trkpt lat="39.5143737792969" lon="2.74649930000305">
			<ele>56.0999984741211</ele>
			<time>2013-12-29T09:11:02Z</time>
		</trkpt>
		<trkpt lat="39.5144348144531" lon="2.74644541740417">
			<ele>56.2000007629395</ele>
			<time>2013-12-29T09:11:04Z</time>
		</trkpt>
		<trkpt lat="39.5144996643066" lon="2.74639797210693">
			<ele>55.5</ele>
			<time>2013-12-29T09:11:06Z</time>
		</trkpt>
		<trkpt lat="39.5145606994629" lon="2.74634099006653">
			<ele>55.7000007629395</ele>
			<time>2013-12-29T09:11:08Z</time>
		</trkpt>
		<trkpt lat="39.5146255493164" lon="2.74629235267639">
			<ele>55.7000007629395</ele>
			<time>2013-12-29T09:11:10Z</time>
		</trkpt>
		<trkpt lat="39.5146865844727" lon="2.74624228477478">
			<ele>55.9000015258789</ele>
			<time>2013-12-29T09:11:12Z</time>
		</trkpt>
		<trkpt lat="39.5147476196289" lon="2.74619340896606">
			<ele>55.5999984741211</ele>
			<time>2013-12-29T09:11:14Z</time>
		</trkpt>
		<trkpt lat="39.5148086547852" lon="2.74613833427429">
			<ele>55.2999992370605</ele>
			<time>2013-12-29T09:11:16Z</time>
		</trkpt>
		<trkpt lat="39.5148658752441" lon="2.74609160423279">
			<ele>54.7000007629395</ele>
			<time>2013-12-29T09:11:18Z</time>
		</trkpt>
		<trkpt lat="39.5149269104004" lon="2.74604940414429">
			<ele>54.5999984741211</ele>
			<time>2013-12-29T09:11:20Z</time>
		</trkpt>
		<trkpt lat="39.5149841308594" lon="2.74599719047546">
			<ele>54.7999992370605</ele>
			<time>2013-12-29T09:11:22Z</time>
		</trkpt>
		<trkpt lat="39.5150451660156" lon="2.74594807624817">
			<ele>54.7000007629395</ele>
			<time>2013-12-29T09:11:24Z</time>
		</trkpt>
		<trkpt lat="39.5151023864746" lon="2.74590134620667">
			<ele>54.2000007629395</ele>
			<time>2013-12-29T09:11:26Z</time>
		</trkpt>
		<trkpt lat="39.5151634216309" lon="2.745854139328">
			<ele>54.2999992370605</ele>
			<time>2013-12-29T09:11:28Z</time>
		</trkpt>
		<trkpt lat="39.5152282714844" lon="2.74580526351929">
			<ele>54.2999992370605</ele>
			<time>2013-12-29T09:11:30Z</time>
		</trkpt>
		<trkpt lat="39.5152893066406" lon="2.7457537651062">
			<ele>54.7999992370605</ele>
			<time>2013-12-29T09:11:32Z</time>
		</trkpt>
		<trkpt lat="39.5153541564941" lon="2.74570345878601">
			<ele>54.5</ele>
			<time>2013-12-29T09:11:34Z</time>
		</trkpt>
		<trkpt lat="39.5154113769531" lon="2.74564838409424">
			<ele>54.2999992370605</ele>
			<time>2013-12-29T09:11:36Z</time>
		</trkpt>
		<trkpt lat="39.5154762268066" lon="2.745600938797">
			<ele>54.0999984741211</ele>
			<time>2013-12-29T09:11:38Z</time>
		</trkpt>
		<trkpt lat="39.5155334472656" lon="2.74554920196533">
			<ele>54.0999984741211</ele>
			<time>2013-12-29T09:11:40Z</time>
		</trkpt>
		<trkpt lat="39.5155906677246" lon="2.74550080299377">
			<ele>54.0999984741211</ele>
			<time>2013-12-29T09:11:42Z</time>
		</trkpt>
		<trkpt lat="39.5156478881836" lon="2.74545359611511">
			<ele>54.0999984741211</ele>
			<time>2013-12-29T09:11:44Z</time>
		</trkpt>
		<trkpt lat="39.5157089233398" lon="2.74540567398071">
			<ele>54</ele>
			<time>2013-12-29T09:11:46Z</time>
		</trkpt>
		<trkpt lat="39.5157775878906" lon="2.74535799026489">
			<ele>54.7999992370605</ele>
			<time>2013-12-29T09:11:48Z</time>
		</trkpt>
		<trkpt lat="39.5158348083496" lon="2.74530053138733">
			<ele>55.2000007629395</ele>
			<time>2013-12-29T09:11:50Z</time>
		</trkpt>
		<trkpt lat="39.5158958435059" lon="2.74525237083435">
			<ele>55.5999984741211</ele>
			<time>2013-12-29T09:11:52Z</time>
		</trkpt>
		<trkpt lat="39.5159530639648" lon="2.74519872665405">
			<ele>55.5999984741211</ele>
			<time>2013-12-29T09:11:54Z</time>
		</trkpt>
		<trkpt lat="39.5160102844238" lon="2.74515223503113">
			<ele>55.7999992370605</ele>
			<time>2013-12-29T09:11:56Z</time>
		</trkpt>
		<trkpt lat="39.5160713195801" lon="2.74510478973389">
			<ele>56.2000007629395</ele>
			<time>2013-12-29T09:11:58Z</time>
		</trkpt>
		<trkpt lat="39.5161361694336" lon="2.74505996704102">
			<ele>56.2999992370605</ele>
			<time>2013-12-29T09:12:00Z</time>
		</trkpt>
		<trkpt lat="39.5161972045898" lon="2.74501037597656">
			<ele>56.5</ele>
			<time>2013-12-29T09:12:02Z</time>
		</trkpt>
		<trkpt lat="39.5162544250488" lon="2.74495911598206">
			<ele>56.2999992370605</ele>
			<time>2013-12-29T09:12:04Z</time>
		</trkpt>
		<trkpt lat="39.5163154602051" lon="2.74490189552307">
			<ele>56.4000015258789</ele>
			<time>2013-12-29T09:12:06Z</time>
		</trkpt>
		<trkpt lat="39.5163764953613" lon="2.74484777450562">
			<ele>56</ele>
			<time>2013-12-29T09:12:08Z</time>
		</trkpt>
		<trkpt lat="39.5164375305176" lon="2.74479150772095">
			<ele>55.7999992370605</ele>
			<time>2013-12-29T09:12:10Z</time>
		</trkpt>
		<trkpt lat="39.5164947509766" lon="2.74473690986633">
			<ele>56.4000015258789</ele>
			<time>2013-12-29T09:12:12Z</time>
		</trkpt>
		<trkpt lat="39.5165596008301" lon="2.74467802047729">
			<ele>56.7000007629395</ele>
			<time>2013-12-29T09:12:14Z</time>
		</trkpt>
		<trkpt lat="39.5166206359863" lon="2.74461984634399">
			<ele>56.9000015258789</ele>
			<time>2013-12-29T09:12:16Z</time>
		</trkpt>
		<trkpt lat="39.5166816711426" lon="2.74456667900085">
			<ele>57.9000015258789</ele>
			<time>2013-12-29T09:12:18Z</time>
		</trkpt>
		<trkpt lat="39.5167770385742" lon="2.74447822570801">
			<ele>57.2000007629395</ele>
			<time>2013-12-29T09:12:21Z</time>
		</trkpt>
		<trkpt lat="39.5168266296387" lon="2.74442052841187">
			<ele>56.4000015258789</ele>
			<time>2013-12-29T09:12:23Z</time>
		</trkpt>
		<trkpt lat="39.5168762207031" lon="2.74434447288513">
			<ele>55.4000015258789</ele>
			<time>2013-12-29T09:12:25Z</time>
		</trkpt>
		<trkpt lat="39.516960144043" lon="2.74425578117371">
			<ele>55.4000015258789</ele>
			<time>2013-12-29T09:12:28Z</time>
		</trkpt>
		<trkpt lat="39.5170211791992" lon="2.74419951438904">
			<ele>55.0999984741211</ele>
			<time>2013-12-29T09:12:30Z</time>
		</trkpt>
		<trkpt lat="39.5170783996582" lon="2.74413919448853">
			<ele>55.4000015258789</ele>
			<time>2013-12-29T09:12:32Z</time>
		</trkpt>
		<trkpt lat="39.5171356201172" lon="2.74407529830933">
			<ele>55.5999984741211</ele>
			<time>2013-12-29T09:12:34Z</time>
		</trkpt>
		<trkpt lat="39.5171928405762" lon="2.7440128326416">
			<ele>55.7000007629395</ele>
			<time>2013-12-29T09:12:36Z</time>
		</trkpt>
		<trkpt lat="39.5172500610352" lon="2.7439489364624">
			<ele>55.7000007629395</ele>
			<time>2013-12-29T09:12:38Z</time>
		</trkpt>
		<trkpt lat="39.5173072814941" lon="2.74388813972473">
			<ele>55.5</ele>
			<time>2013-12-29T09:12:40Z</time>
		</trkpt>
		<trkpt lat="39.5173645019531" lon="2.74383091926575">
			<ele>55.5999984741211</ele>
			<time>2013-12-29T09:12:42Z</time>
		</trkpt>
		<trkpt lat="39.5174522399902" lon="2.74374127388">
			<ele>55.9000015258789</ele>
			<time>2013-12-29T09:12:45Z</time>
		</trkpt>
		<trkpt lat="39.5175018310547" lon="2.74367833137512">
			<ele>55.7000007629395</ele>
			<time>2013-12-29T09:12:47Z</time>
		</trkpt>
		<trkpt lat="39.5175552368164" lon="2.74362254142761">
			<ele>55.5</ele>
			<time>2013-12-29T09:12:49Z</time>
		</trkpt>
		<trkpt lat="39.5176086425781" lon="2.74356174468994">
			<ele>55.2999992370605</ele>
			<time>2013-12-29T09:12:51Z</time>
		</trkpt>
		<trkpt lat="39.5176620483398" lon="2.74349784851074">
			<ele>55.2000007629395</ele>
			<time>2013-12-29T09:12:53Z</time>
		</trkpt>
		<trkpt lat="39.5177154541016" lon="2.74343943595886">
			<ele>55.0999984741211</ele>
			<time>2013-12-29T09:12:55Z</time>
		</trkpt>
		<trkpt lat="39.5177726745605" lon="2.74338293075562">
			<ele>55.0999984741211</ele>
			<time>2013-12-29T09:12:57Z</time>
		</trkpt>
		<trkpt lat="39.5178260803223" lon="2.74332642555237">
			<ele>55</ele>
			<time>2013-12-29T09:12:59Z</time>
		</trkpt>
		<trkpt lat="39.5178756713867" lon="2.74326992034912">
			<ele>54.9000015258789</ele>
			<time>2013-12-29T09:13:01Z</time>
		</trkpt>
		<trkpt lat="39.5179290771484" lon="2.74320864677429">
			<ele>54.9000015258789</ele>
			<time>2013-12-29T09:13:03Z</time>
		</trkpt>
		<trkpt lat="39.5179901123047" lon="2.74315404891968">
			<ele>54.9000015258789</ele>
			<time>2013-12-29T09:13:05Z</time>
		</trkpt>
		<trkpt lat="39.5180473327637" lon="2.74309682846069">
			<ele>54.5999984741211</ele>
			<time>2013-12-29T09:13:07Z</time>
		</trkpt>
		<trkpt lat="39.5181007385254" lon="2.7430374622345">
			<ele>54.5999984741211</ele>
			<time>2013-12-29T09:13:09Z</time>
		</trkpt>
		<trkpt lat="39.5181579589844" lon="2.74298048019409">
			<ele>54.4000015258789</ele>
			<time>2013-12-29T09:13:11Z</time>
		</trkpt>
		<trkpt lat="39.5182189941406" lon="2.74292302131653">
			<ele>54.7000007629395</ele>
			<time>2013-12-29T09:13:13Z</time>
		</trkpt>
		<trkpt lat="39.5182723999023" lon="2.74286460876465">
			<ele>54.7000007629395</ele>
			<time>2013-12-29T09:13:15Z</time>
		</trkpt>
		<trkpt lat="39.5183296203613" lon="2.74280714988708">
			<ele>54.7000007629395</ele>
			<time>2013-12-29T09:13:17Z</time>
		</trkpt>
		<trkpt lat="39.518383026123" lon="2.74274873733521">
			<ele>54.5</ele>
			<time>2013-12-29T09:13:19Z</time>
		</trkpt>
		<trkpt lat="39.5184364318848" lon="2.74268794059753">
			<ele>54.4000015258789</ele>
			<time>2013-12-29T09:13:21Z</time>
		</trkpt>
		<trkpt lat="39.5184898376465" lon="2.74263072013855">
			<ele>54.5</ele>
			<time>2013-12-29T09:13:23Z</time>
		</trkpt>
		<trkpt lat="39.5185470581055" lon="2.74257063865662">
			<ele>54.2999992370605</ele>
			<time>2013-12-29T09:13:25Z</time>
		</trkpt>
		<trkpt lat="39.5185966491699" lon="2.74250984191895">
			<ele>54.2999992370605</ele>
			<time>2013-12-29T09:13:27Z</time>
		</trkpt>
		<trkpt lat="39.5186538696289" lon="2.74245524406433">
			<ele>54.2000007629395</ele>
			<time>2013-12-29T09:13:29Z</time>
		</trkpt>
		<trkpt lat="39.5187110900879" lon="2.74239659309387">
			<ele>53.9000015258789</ele>
			<time>2013-12-29T09:13:31Z</time>
		</trkpt>
		<trkpt lat="39.5187644958496" lon="2.74233555793762">
			<ele>54.0999984741211</ele>
			<time>2013-12-29T09:13:33Z</time>
		</trkpt>
		<trkpt lat="39.5188140869141" lon="2.74227499961853">
			<ele>54.2999992370605</ele>
			<time>2013-12-29T09:13:35Z</time>
		</trkpt>
		<trkpt lat="39.518871307373" lon="2.74222373962402">
			<ele>54.2999992370605</ele>
			<time>2013-12-29T09:13:37Z</time>
		</trkpt>
		<trkpt lat="39.5189247131348" lon="2.74216961860657">
			<ele>54.2999992370605</ele>
			<time>2013-12-29T09:13:39Z</time>
		</trkpt>
		<trkpt lat="39.518970489502" lon="2.74211359024048">
			<ele>53.9000015258789</ele>
			<time>2013-12-29T09:13:41Z</time>
		</trkpt>
		<trkpt lat="39.5190238952637" lon="2.74205279350281">
			<ele>53.7999992370605</ele>
			<time>2013-12-29T09:13:43Z</time>
		</trkpt>
		<trkpt lat="39.5190811157227" lon="2.74199247360229">
			<ele>53.7000007629395</ele>
			<time>2013-12-29T09:13:45Z</time>
		</trkpt>
		<trkpt lat="39.5191383361816" lon="2.74193263053894">
			<ele>54</ele>
			<time>2013-12-29T09:13:47Z</time>
		</trkpt>
		<trkpt lat="39.5191993713379" lon="2.74187207221985">
			<ele>54.5</ele>
			<time>2013-12-29T09:13:49Z</time>
		</trkpt>
		<trkpt lat="39.5192527770996" lon="2.7418098449707">
			<ele>54.5</ele>
			<time>2013-12-29T09:13:51Z</time>
		</trkpt>
		<trkpt lat="39.5193061828613" lon="2.74175024032593">
			<ele>54.5</ele>
			<time>2013-12-29T09:13:53Z</time>
		</trkpt>
		<trkpt lat="39.5193672180176" lon="2.74169087409973">
			<ele>54.4000015258789</ele>
			<time>2013-12-29T09:13:55Z</time>
		</trkpt>
		<trkpt lat="39.5194244384766" lon="2.74163556098938">
			<ele>53.9000015258789</ele>
			<time>2013-12-29T09:13:57Z</time>
		</trkpt>
		<trkpt lat="39.519474029541" lon="2.74157071113586">
			<ele>53.7000007629395</ele>
			<time>2013-12-29T09:13:59Z</time>
		</trkpt>
		<trkpt lat="39.5195159912109" lon="2.74149775505066">
			<ele>53.7000007629395</ele>
			<time>2013-12-29T09:14:01Z</time>
		</trkpt>
		<trkpt lat="39.5195617675781" lon="2.74142217636108">
			<ele>53.7999992370605</ele>
			<time>2013-12-29T09:14:03Z</time>
		</trkpt>
		<trkpt lat="39.5196189880371" lon="2.7413592338562">
			<ele>53.7999992370605</ele>
			<time>2013-12-29T09:14:05Z</time>
		</trkpt>
		<trkpt lat="39.5196762084961" lon="2.74129343032837">
			<ele>54.0999984741211</ele>
			<time>2013-12-29T09:14:07Z</time>
		</trkpt>
		<trkpt lat="39.5197334289551" lon="2.74123191833496">
			<ele>54</ele>
			<time>2013-12-29T09:14:09Z</time>
		</trkpt>
		<trkpt lat="39.5197906494141" lon="2.74117422103882">
			<ele>54.0999984741211</ele>
			<time>2013-12-29T09:14:11Z</time>
		</trkpt>
		<trkpt lat="39.519847869873" lon="2.74111151695251">
			<ele>53.7999992370605</ele>
			<time>2013-12-29T09:14:13Z</time>
		</trkpt>
		<trkpt lat="39.519905090332" lon="2.74105429649353">
			<ele>53.4000015258789</ele>
			<time>2013-12-29T09:14:15Z</time>
		</trkpt>
		<trkpt lat="39.5199584960938" lon="2.74099540710449">
			<ele>53.4000015258789</ele>
			<time>2013-12-29T09:14:17Z</time>
		</trkpt>
		<trkpt lat="39.5200157165527" lon="2.74093866348267">
			<ele>53.2000007629395</ele>
			<time>2013-12-29T09:14:19Z</time>
		</trkpt>
		<trkpt lat="39.5200691223145" lon="2.74087452888489">
			<ele>53.2000007629395</ele>
			<time>2013-12-29T09:14:21Z</time>
		</trkpt>
		<trkpt lat="39.5201225280762" lon="2.74081420898438">
			<ele>53.2000007629395</ele>
			<time>2013-12-29T09:14:23Z</time>
		</trkpt>
		<trkpt lat="39.5201797485352" lon="2.74075365066528">
			<ele>53</ele>
			<time>2013-12-29T09:14:25Z</time>
		</trkpt>
		<trkpt lat="39.5202369689941" lon="2.74069309234619">
			<ele>53.0999984741211</ele>
			<time>2013-12-29T09:14:27Z</time>
		</trkpt>
		<trkpt lat="39.5202865600586" lon="2.74063062667847">
			<ele>53</ele>
			<time>2013-12-29T09:14:29Z</time>
		</trkpt>
		<trkpt lat="39.5203399658203" lon="2.74057102203369">
			<ele>53.0999984741211</ele>
			<time>2013-12-29T09:14:31Z</time>
		</trkpt>
		<trkpt lat="39.5203971862793" lon="2.74051356315613">
			<ele>53.0999984741211</ele>
			<time>2013-12-29T09:14:33Z</time>
		</trkpt>
		<trkpt lat="39.520450592041" lon="2.74045753479004">
			<ele>52.7999992370605</ele>
			<time>2013-12-29T09:14:35Z</time>
		</trkpt>
		<trkpt lat="39.5205078125" lon="2.74039745330811">
			<ele>53.0999984741211</ele>
			<time>2013-12-29T09:14:37Z</time>
		</trkpt>
		<trkpt lat="39.5205612182617" lon="2.7403392791748">
			<ele>53</ele>
			<time>2013-12-29T09:14:39Z</time>
		</trkpt>
		<trkpt lat="39.5206146240234" lon="2.7402822971344">
			<ele>52.5</ele>
			<time>2013-12-29T09:14:41Z</time>
		</trkpt>
		<trkpt lat="39.5206718444824" lon="2.74023008346558">
			<ele>52.2000007629395</ele>
			<time>2013-12-29T09:14:43Z</time>
		</trkpt>
		<trkpt lat="39.5207328796387" lon="2.74017810821533">
			<ele>52.7999992370605</ele>
			<time>2013-12-29T09:14:45Z</time>
		</trkpt>
		<trkpt lat="39.5207824707031" lon="2.74011588096619">
			<ele>52.7999992370605</ele>
			<time>2013-12-29T09:14:47Z</time>
		</trkpt>
		<trkpt lat="39.5208320617676" lon="2.74005389213562">
			<ele>52.4000015258789</ele>
			<time>2013-12-29T09:14:49Z</time>
		</trkpt>
		<trkpt lat="39.5208854675293" lon="2.73999691009521">
			<ele>52.5</ele>
			<time>2013-12-29T09:14:51Z</time>
		</trkpt>
		<trkpt lat="39.5209426879883" lon="2.73994326591492">
			<ele>52.0999984741211</ele>
			<time>2013-12-29T09:14:53Z</time>
		</trkpt>
		<trkpt lat="39.5210075378418" lon="2.73991203308105">
			<ele>51.7999992370605</ele>
			<time>2013-12-29T09:14:55Z</time>
		</trkpt>
		<trkpt lat="39.5210609436035" lon="2.73985433578491">
			<ele>51.7000007629395</ele>
			<time>2013-12-29T09:14:57Z</time>
		</trkpt>
		<trkpt lat="39.5211143493652" lon="2.73979020118713">
			<ele>51.5999984741211</ele>
			<time>2013-12-29T09:14:59Z</time>
		</trkpt>
		<trkpt lat="39.521167755127" lon="2.73972964286804">
			<ele>51.5</ele>
			<time>2013-12-29T09:15:01Z</time>
		</trkpt>
		<trkpt lat="39.5212211608887" lon="2.73966836929321">
			<ele>51.2000007629395</ele>
			<time>2013-12-29T09:15:03Z</time>
		</trkpt>
		<trkpt lat="39.5212783813477" lon="2.73960876464844">
			<ele>51.0999984741211</ele>
			<time>2013-12-29T09:15:05Z</time>
		</trkpt>
		<trkpt lat="39.5213356018066" lon="2.7395486831665">
			<ele>51.0999984741211</ele>
			<time>2013-12-29T09:15:07Z</time>
		</trkpt>
		<trkpt lat="39.5213928222656" lon="2.73949098587036">
			<ele>51.4000015258789</ele>
			<time>2013-12-29T09:15:09Z</time>
		</trkpt>
		<trkpt lat="39.5214500427246" lon="2.73943209648132">
			<ele>51.0999984741211</ele>
			<time>2013-12-29T09:15:11Z</time>
		</trkpt>
		<trkpt lat="39.5215072631836" lon="2.73937630653381">
			<ele>51.0999984741211</ele>
			<time>2013-12-29T09:15:13Z</time>
		</trkpt>
		<trkpt lat="39.5215644836426" lon="2.73931908607483">
			<ele>50.9000015258789</ele>
			<time>2013-12-29T09:15:15Z</time>
		</trkpt>
		<trkpt lat="39.521614074707" lon="2.73925876617432">
			<ele>50.9000015258789</ele>
			<time>2013-12-29T09:15:17Z</time>
		</trkpt>
		<trkpt lat="39.5216674804688" lon="2.73919892311096">
			<ele>50.9000015258789</ele>
			<time>2013-12-29T09:15:19Z</time>
		</trkpt>
		<trkpt lat="39.5217208862305" lon="2.73914098739624">
			<ele>50.7999992370605</ele>
			<time>2013-12-29T09:15:21Z</time>
		</trkpt>
		<trkpt lat="39.5217742919922" lon="2.73908352851868">
			<ele>51</ele>
			<time>2013-12-29T09:15:23Z</time>
		</trkpt>
		<trkpt lat="39.5218238830566" lon="2.73902463912964">
			<ele>50.7999992370605</ele>
			<time>2013-12-29T09:15:25Z</time>
		</trkpt>
		<trkpt lat="39.5218772888184" lon="2.73896598815918">
			<ele>50.7999992370605</ele>
			<time>2013-12-29T09:15:27Z</time>
		</trkpt>
		<trkpt lat="39.5219306945801" lon="2.73890566825867">
			<ele>50.9000015258789</ele>
			<time>2013-12-29T09:15:29Z</time>
		</trkpt>
		<trkpt lat="39.5219879150391" lon="2.73884916305542">
			<ele>51</ele>
			<time>2013-12-29T09:15:31Z</time>
		</trkpt>
		<trkpt lat="39.5220413208008" lon="2.73879241943359">
			<ele>50.9000015258789</ele>
			<time>2013-12-29T09:15:33Z</time>
		</trkpt>
		<trkpt lat="39.5220947265625" lon="2.73873400688171">
			<ele>51</ele>
			<time>2013-12-29T09:15:35Z</time>
		</trkpt>
		<trkpt lat="39.5221481323242" lon="2.73867630958557">
			<ele>51.2000007629395</ele>
			<time>2013-12-29T09:15:37Z</time>
		</trkpt>
		<trkpt lat="39.5221977233887" lon="2.73861241340637">
			<ele>51.2000007629395</ele>
			<time>2013-12-29T09:15:39Z</time>
		</trkpt>
		<trkpt lat="39.5222549438477" lon="2.73855328559875">
			<ele>51.5999984741211</ele>
			<time>2013-12-29T09:15:41Z</time>
		</trkpt>
		<trkpt lat="39.5223045349121" lon="2.73849201202393">
			<ele>51.7000007629395</ele>
			<time>2013-12-29T09:15:43Z</time>
		</trkpt>
		<trkpt lat="39.5223541259766" lon="2.73843574523926">
			<ele>51.5999984741211</ele>
			<time>2013-12-29T09:15:45Z</time>
		</trkpt>
		<trkpt lat="39.5224075317383" lon="2.73837518692017">
			<ele>51.7999992370605</ele>
			<time>2013-12-29T09:15:47Z</time>
		</trkpt>
		<trkpt lat="39.5224571228027" lon="2.73831534385681">
			<ele>51.9000015258789</ele>
			<time>2013-12-29T09:15:49Z</time>
		</trkpt>
		<trkpt lat="39.5225067138672" lon="2.73825240135193">
			<ele>52.0999984741211</ele>
			<time>2013-12-29T09:15:51Z</time>
		</trkpt>
		<trkpt lat="39.5225563049316" lon="2.73819184303284">
			<ele>52</ele>
			<time>2013-12-29T09:15:53Z</time>
		</trkpt>
		<trkpt lat="39.5226135253906" lon="2.7381329536438">
			<ele>52.0999984741211</ele>
			<time>2013-12-29T09:15:55Z</time>
		</trkpt>
		<trkpt lat="39.5226631164551" lon="2.73807454109192">
			<ele>52.0999984741211</ele>
			<time>2013-12-29T09:15:57Z</time>
		</trkpt>
		<trkpt lat="39.5227165222168" lon="2.7380108833313">
			<ele>52.0999984741211</ele>
			<time>2013-12-29T09:15:59Z</time>
		</trkpt>
		<trkpt lat="39.5227699279785" lon="2.73794865608215">
			<ele>52.2000007629395</ele>
			<time>2013-12-29T09:16:01Z</time>
		</trkpt>
		<trkpt lat="39.522819519043" lon="2.73788666725159">
			<ele>52</ele>
			<time>2013-12-29T09:16:03Z</time>
		</trkpt>
		<trkpt lat="39.5228729248047" lon="2.73782730102539">
			<ele>52.0999984741211</ele>
			<time>2013-12-29T09:16:05Z</time>
		</trkpt>
		<trkpt lat="39.5229263305664" lon="2.73776888847351">
			<ele>51.7000007629395</ele>
			<time>2013-12-29T09:16:07Z</time>
		</trkpt>
		<trkpt lat="39.5229797363281" lon="2.73770618438721">
			<ele>51.5</ele>
			<time>2013-12-29T09:16:09Z</time>
		</trkpt>
		<trkpt lat="39.5230293273926" lon="2.7376446723938">
			<ele>51.4000015258789</ele>
			<time>2013-12-29T09:16:11Z</time>
		</trkpt>
		<trkpt lat="39.5230827331543" lon="2.73758602142334">
			<ele>51.2999992370605</ele>
			<time>2013-12-29T09:16:13Z</time>
		</trkpt>
		<trkpt lat="39.5231323242188" lon="2.73752808570862">
			<ele>51.4000015258789</ele>
			<time>2013-12-29T09:16:15Z</time>
		</trkpt>
		<trkpt lat="39.5231819152832" lon="2.73746490478516">
			<ele>51.4000015258789</ele>
			<time>2013-12-29T09:16:17Z</time>
		</trkpt>
		<trkpt lat="39.5232353210449" lon="2.73740768432617">
			<ele>51.4000015258789</ele>
			<time>2013-12-29T09:16:19Z</time>
		</trkpt>
		<trkpt lat="39.5232887268066" lon="2.73734498023987">
			<ele>51.5</ele>
			<time>2013-12-29T09:16:21Z</time>
		</trkpt>
		<trkpt lat="39.5233459472656" lon="2.73728680610657">
			<ele>51.5</ele>
			<time>2013-12-29T09:16:23Z</time>
		</trkpt>
		<trkpt lat="39.5233955383301" lon="2.73722553253174">
			<ele>51.0999984741211</ele>
			<time>2013-12-29T09:16:25Z</time>
		</trkpt>
		<trkpt lat="39.5234489440918" lon="2.73716187477112">
			<ele>51.5</ele>
			<time>2013-12-29T09:16:27Z</time>
		</trkpt>
		<trkpt lat="39.5234985351563" lon="2.73710417747498">
			<ele>51.5</ele>
			<time>2013-12-29T09:16:29Z</time>
		</trkpt>
		<trkpt lat="39.5235557556152" lon="2.73704075813293">
			<ele>51.7999992370605</ele>
			<time>2013-12-29T09:16:31Z</time>
		</trkpt>
		<trkpt lat="39.523609161377" lon="2.73697757720947">
			<ele>51.9000015258789</ele>
			<time>2013-12-29T09:16:33Z</time>
		</trkpt>
		<trkpt lat="39.5236587524414" lon="2.73691082000732">
			<ele>52.4000015258789</ele>
			<time>2013-12-29T09:16:35Z</time>
		</trkpt>
		<trkpt lat="39.5237045288086" lon="2.73683738708496">
			<ele>52.2000007629395</ele>
			<time>2013-12-29T09:16:37Z</time>
		</trkpt>
		<trkpt lat="39.5237464904785" lon="2.73676180839539">
			<ele>52.2999992370605</ele>
			<time>2013-12-29T09:16:39Z</time>
		</trkpt>
		<trkpt lat="39.5237922668457" lon="2.73669719696045">
			<ele>52.0999984741211</ele>
			<time>2013-12-29T09:16:41Z</time>
		</trkpt>
		<trkpt lat="39.5238456726074" lon="2.73663640022278">
			<ele>52.2000007629395</ele>
			<time>2013-12-29T09:16:43Z</time>
		</trkpt>
		<trkpt lat="39.5238952636719" lon="2.73658084869385">
			<ele>52.2000007629395</ele>
			<time>2013-12-29T09:16:45Z</time>
		</trkpt>
		<trkpt lat="39.5239448547363" lon="2.73653483390808">
			<ele>52</ele>
			<time>2013-12-29T09:16:47Z</time>
		</trkpt>
		<trkpt lat="39.5239868164063" lon="2.73647236824036">
			<ele>52</ele>
			<time>2013-12-29T09:16:49Z</time>
		</trkpt>
		<trkpt lat="39.5240440368652" lon="2.73642826080322">
			<ele>52.2999992370605</ele>
			<time>2013-12-29T09:16:51Z</time>
		</trkpt>
		<trkpt lat="39.5241012573242" lon="2.73637580871582">
			<ele>51.9000015258789</ele>
			<time>2013-12-29T09:16:53Z</time>
		</trkpt>
		<trkpt lat="39.5241584777832" lon="2.73631691932678">
			<ele>51.5</ele>
			<time>2013-12-29T09:16:55Z</time>
		</trkpt>
		<trkpt lat="39.5242118835449" lon="2.73625612258911">
			<ele>51.5</ele>
			<time>2013-12-29T09:16:57Z</time>
		</trkpt>
		<trkpt lat="39.5242652893066" lon="2.7361900806427">
			<ele>52.4000015258789</ele>
			<time>2013-12-29T09:16:59Z</time>
		</trkpt>
		<trkpt lat="39.5243148803711" lon="2.73612833023071">
			<ele>52.5999984741211</ele>
			<time>2013-12-29T09:17:01Z</time>
		</trkpt>
		<trkpt lat="39.5243682861328" lon="2.73607444763184">
			<ele>52.2999992370605</ele>
			<time>2013-12-29T09:17:03Z</time>
		</trkpt>
		<trkpt lat="39.5244216918945" lon="2.7360155582428">
			<ele>52.4000015258789</ele>
			<time>2013-12-29T09:17:05Z</time>
		</trkpt>
		<trkpt lat="39.5244789123535" lon="2.73595356941223">
			<ele>52.4000015258789</ele>
			<time>2013-12-29T09:17:07Z</time>
		</trkpt>
		<trkpt lat="39.524528503418" lon="2.73588991165161">
			<ele>52.0999984741211</ele>
			<time>2013-12-29T09:17:09Z</time>
		</trkpt>
		<trkpt lat="39.5245895385742" lon="2.7358341217041">
			<ele>52.0999984741211</ele>
			<time>2013-12-29T09:17:11Z</time>
		</trkpt>
		<trkpt lat="39.5246467590332" lon="2.73577165603638">
			<ele>52.4000015258789</ele>
			<time>2013-12-29T09:17:13Z</time>
		</trkpt>
		<trkpt lat="39.5246963500977" lon="2.73570990562439">
			<ele>52.5999984741211</ele>
			<time>2013-12-29T09:17:15Z</time>
		</trkpt>
		<trkpt lat="39.5247497558594" lon="2.73564457893372">
			<ele>52.7000007629395</ele>
			<time>2013-12-29T09:17:17Z</time>
		</trkpt>
		<trkpt lat="39.5248069763184" lon="2.73557996749878">
			<ele>52.5999984741211</ele>
			<time>2013-12-29T09:17:19Z</time>
		</trkpt>
		<trkpt lat="39.5248603820801" lon="2.73551511764526">
			<ele>52.0999984741211</ele>
			<time>2013-12-29T09:17:21Z</time>
		</trkpt>
		<trkpt lat="39.5249137878418" lon="2.73545169830322">
			<ele>52.2000007629395</ele>
			<time>2013-12-29T09:17:23Z</time>
		</trkpt>
		<trkpt lat="39.5249671936035" lon="2.73538994789124">
			<ele>51.9000015258789</ele>
			<time>2013-12-29T09:17:25Z</time>
		</trkpt>
		<trkpt lat="39.5250205993652" lon="2.73532724380493">
			<ele>52.7000007629395</ele>
			<time>2013-12-29T09:17:27Z</time>
		</trkpt>
		<trkpt lat="39.5250701904297" lon="2.73526620864868">
			<ele>52.4000015258789</ele>
			<time>2013-12-29T09:17:29Z</time>
		</trkpt>
		<trkpt lat="39.5251274108887" lon="2.73521113395691">
			<ele>52.5</ele>
			<time>2013-12-29T09:17:31Z</time>
		</trkpt>
		<trkpt lat="39.5251770019531" lon="2.73514795303345">
			<ele>52.0999984741211</ele>
			<time>2013-12-29T09:17:33Z</time>
		</trkpt>
		<trkpt lat="39.5252342224121" lon="2.73508763313293">
			<ele>52</ele>
			<time>2013-12-29T09:17:35Z</time>
		</trkpt>
		<trkpt lat="39.5252876281738" lon="2.73502588272095">
			<ele>52.2000007629395</ele>
			<time>2013-12-29T09:17:37Z</time>
		</trkpt>
		<trkpt lat="39.5253410339355" lon="2.73496127128601">
			<ele>52.5</ele>
			<time>2013-12-29T09:17:39Z</time>
		</trkpt>
		<trkpt lat="39.5253944396973" lon="2.73489928245544">
			<ele>52.2999992370605</ele>
			<time>2013-12-29T09:17:41Z</time>
		</trkpt>
		<trkpt lat="39.525447845459" lon="2.73483610153198">
			<ele>52.5999984741211</ele>
			<time>2013-12-29T09:17:43Z</time>
		</trkpt>
		<trkpt lat="39.5255012512207" lon="2.73477506637573">
			<ele>52.4000015258789</ele>
			<time>2013-12-29T09:17:45Z</time>
		</trkpt>
		<trkpt lat="39.5255584716797" lon="2.73471808433533">
			<ele>52.7000007629395</ele>
			<time>2013-12-29T09:17:47Z</time>
		</trkpt>
		<trkpt lat="39.5256118774414" lon="2.73465442657471">
			<ele>52.5999984741211</ele>
			<time>2013-12-29T09:17:49Z</time>
		</trkpt>
		<trkpt lat="39.5256614685059" lon="2.73459196090698">
			<ele>52.5999984741211</ele>
			<time>2013-12-29T09:17:51Z</time>
		</trkpt>
		<trkpt lat="39.5257148742676" lon="2.73452830314636">
			<ele>52</ele>
			<time>2013-12-29T09:17:53Z</time>
		</trkpt>
		<trkpt lat="39.5257682800293" lon="2.73446464538574">
			<ele>52.0999984741211</ele>
			<time>2013-12-29T09:17:55Z</time>
		</trkpt>
		<trkpt lat="39.525821685791" lon="2.73440599441528">
			<ele>52.5</ele>
			<time>2013-12-29T09:17:57Z</time>
		</trkpt>
		<trkpt lat="39.5258674621582" lon="2.73435258865356">
			<ele>52.5999984741211</ele>
			<time>2013-12-29T09:17:59Z</time>
		</trkpt>
		<trkpt lat="39.5259208679199" lon="2.73429536819458">
			<ele>52.7000007629395</ele>
			<time>2013-12-29T09:18:01Z</time>
		</trkpt>
		<trkpt lat="39.5259780883789" lon="2.7342357635498">
			<ele>52.7999992370605</ele>
			<time>2013-12-29T09:18:03Z</time>
		</trkpt>
		<trkpt lat="39.5260314941406" lon="2.73417401313782">
			<ele>52.4000015258789</ele>
			<time>2013-12-29T09:18:05Z</time>
		</trkpt>
		<trkpt lat="39.5260848999023" lon="2.7341148853302">
			<ele>52.7999992370605</ele>
			<time>2013-12-29T09:18:07Z</time>
		</trkpt>
		<trkpt lat="39.5261383056641" lon="2.734050989151">
			<ele>52.7999992370605</ele>
			<time>2013-12-29T09:18:09Z</time>
		</trkpt>
		<trkpt lat="39.5261878967285" lon="2.73398113250732">
			<ele>53.0999984741211</ele>
			<time>2013-12-29T09:18:11Z</time>
		</trkpt>
		<trkpt lat="39.526237487793" lon="2.73392200469971">
			<ele>53.0999984741211</ele>
			<time>2013-12-29T09:18:13Z</time>
		</trkpt>
		<trkpt lat="39.5262832641602" lon="2.73385262489319">
			<ele>54</ele>
			<time>2013-12-29T09:18:15Z</time>
		</trkpt>
		<trkpt lat="39.5263328552246" lon="2.73378968238831">
			<ele>54</ele>
			<time>2013-12-29T09:18:17Z</time>
		</trkpt>
		<trkpt lat="39.5263862609863" lon="2.73372578620911">
			<ele>54</ele>
			<time>2013-12-29T09:18:19Z</time>
		</trkpt>
		<trkpt lat="39.526439666748" lon="2.73367667198181">
			<ele>54.2999992370605</ele>
			<time>2013-12-29T09:18:21Z</time>
		</trkpt>
		<trkpt lat="39.5265007019043" lon="2.73362231254578">
			<ele>53.7000007629395</ele>
			<time>2013-12-29T09:18:23Z</time>
		</trkpt>
		<trkpt lat="39.526554107666" lon="2.73356127738953">
			<ele>54</ele>
			<time>2013-12-29T09:18:25Z</time>
		</trkpt>
		<trkpt lat="39.5265998840332" lon="2.73349618911743">
			<ele>54.2000007629395</ele>
			<time>2013-12-29T09:18:27Z</time>
		</trkpt>
		<trkpt lat="39.5266532897949" lon="2.73343133926392">
			<ele>53.7999992370605</ele>
			<time>2013-12-29T09:18:29Z</time>
		</trkpt>
		<trkpt lat="39.5267066955566" lon="2.73336839675903">
			<ele>54.5</ele>
			<time>2013-12-29T09:18:31Z</time>
		</trkpt>
		<trkpt lat="39.5267601013184" lon="2.73330307006836">
			<ele>54.5</ele>
			<time>2013-12-29T09:18:33Z</time>
		</trkpt>
		<trkpt lat="39.5268173217773" lon="2.73324489593506">
			<ele>55.2000007629395</ele>
			<time>2013-12-29T09:18:35Z</time>
		</trkpt>
		<trkpt lat="39.5268592834473" lon="2.73317003250122">
			<ele>54.2000007629395</ele>
			<time>2013-12-29T09:18:37Z</time>
		</trkpt>
		<trkpt lat="39.5269088745117" lon="2.73310399055481">
			<ele>54.5</ele>
			<time>2013-12-29T09:18:39Z</time>
		</trkpt>
		<trkpt lat="39.5269546508789" lon="2.73304295539856">
			<ele>54.2000007629395</ele>
			<time>2013-12-29T09:18:41Z</time>
		</trkpt>
		<trkpt lat="39.5270080566406" lon="2.73298978805542">
			<ele>54.4000015258789</ele>
			<time>2013-12-29T09:18:43Z</time>
		</trkpt>
		<trkpt lat="39.5270576477051" lon="2.73292827606201">
			<ele>53.9000015258789</ele>
			<time>2013-12-29T09:18:45Z</time>
		</trkpt>
		<trkpt lat="39.5271072387695" lon="2.73287153244019">
			<ele>53.7999992370605</ele>
			<time>2013-12-29T09:18:47Z</time>
		</trkpt>
		<trkpt lat="39.527156829834" lon="2.73280954360962">
			<ele>53.9000015258789</ele>
			<time>2013-12-29T09:18:49Z</time>
		</trkpt>
		<trkpt lat="39.5272102355957" lon="2.7327516078949">
			<ele>53.7000007629395</ele>
			<time>2013-12-29T09:18:51Z</time>
		</trkpt>
		<trkpt lat="39.5272674560547" lon="2.73269391059875">
			<ele>54</ele>
			<time>2013-12-29T09:18:53Z</time>
		</trkpt>
		<trkpt lat="39.5273170471191" lon="2.73263621330261">
			<ele>53.7999992370605</ele>
			<time>2013-12-29T09:18:55Z</time>
		</trkpt>
		<trkpt lat="39.5273666381836" lon="2.73257851600647">
			<ele>53.7999992370605</ele>
			<time>2013-12-29T09:18:57Z</time>
		</trkpt>
		<trkpt lat="39.5274124145508" lon="2.73251795768738">
			<ele>54.7000007629395</ele>
			<time>2013-12-29T09:18:59Z</time>
		</trkpt>
		<trkpt lat="39.527458190918" lon="2.7324492931366">
			<ele>54.9000015258789</ele>
			<time>2013-12-29T09:19:01Z</time>
		</trkpt>
		<trkpt lat="39.5275077819824" lon="2.73239731788635">
			<ele>53.2000007629395</ele>
			<time>2013-12-29T09:19:03Z</time>
		</trkpt>
		<trkpt lat="39.5275611877441" lon="2.73233318328857">
			<ele>53.2000007629395</ele>
			<time>2013-12-29T09:19:05Z</time>
		</trkpt>
		<trkpt lat="39.5276145935059" lon="2.73227310180664">
			<ele>53.2999992370605</ele>
			<time>2013-12-29T09:19:07Z</time>
		</trkpt>
		<trkpt lat="39.5276641845703" lon="2.73220992088318">
			<ele>53.7000007629395</ele>
			<time>2013-12-29T09:19:09Z</time>
		</trkpt>
		<trkpt lat="39.527717590332" lon="2.73214817047119">
			<ele>53.5</ele>
			<time>2013-12-29T09:19:11Z</time>
		</trkpt>
		<trkpt lat="39.5277671813965" lon="2.73208785057068">
			<ele>53.5999984741211</ele>
			<time>2013-12-29T09:19:13Z</time>
		</trkpt>
		<trkpt lat="39.5278244018555" lon="2.73203182220459">
			<ele>53.4000015258789</ele>
			<time>2013-12-29T09:19:15Z</time>
		</trkpt>
		<trkpt lat="39.5278778076172" lon="2.73197412490845">
			<ele>53.2999992370605</ele>
			<time>2013-12-29T09:19:17Z</time>
		</trkpt>
		<trkpt lat="39.5279312133789" lon="2.73191142082214">
			<ele>53.0999984741211</ele>
			<time>2013-12-29T09:19:19Z</time>
		</trkpt>
		<trkpt lat="39.5279808044434" lon="2.73185300827026">
			<ele>52.7999992370605</ele>
			<time>2013-12-29T09:19:21Z</time>
		</trkpt>
		<trkpt lat="39.5280342102051" lon="2.73179054260254">
			<ele>52.9000015258789</ele>
			<time>2013-12-29T09:19:23Z</time>
		</trkpt>
		<trkpt lat="39.5280876159668" lon="2.73172879219055">
			<ele>52.7000007629395</ele>
			<time>2013-12-29T09:19:25Z</time>
		</trkpt>
		<trkpt lat="39.5281410217285" lon="2.7316632270813">
			<ele>52.5999984741211</ele>
			<time>2013-12-29T09:19:27Z</time>
		</trkpt>
		<trkpt lat="39.5281944274902" lon="2.73160338401794">
			<ele>52.5999984741211</ele>
			<time>2013-12-29T09:19:29Z</time>
		</trkpt>
		<trkpt lat="39.528247833252" lon="2.73154211044312">
			<ele>52.5</ele>
			<time>2013-12-29T09:19:31Z</time>
		</trkpt>
		<trkpt lat="39.5282974243164" lon="2.7314772605896">
			<ele>52.5999984741211</ele>
			<time>2013-12-29T09:19:33Z</time>
		</trkpt>
		<trkpt lat="39.5283546447754" lon="2.73141741752625">
			<ele>52.7000007629395</ele>
			<time>2013-12-29T09:19:35Z</time>
		</trkpt>
		<trkpt lat="39.5284042358398" lon="2.73135209083557">
			<ele>52.5999984741211</ele>
			<time>2013-12-29T09:19:37Z</time>
		</trkpt>
		<trkpt lat="39.5284576416016" lon="2.73128771781921">
			<ele>52.7999992370605</ele>
			<time>2013-12-29T09:19:39Z</time>
		</trkpt>
		<trkpt lat="39.5285110473633" lon="2.73122358322144">
			<ele>52.5999984741211</ele>
			<time>2013-12-29T09:19:41Z</time>
		</trkpt>
		<trkpt lat="39.5285606384277" lon="2.7311646938324">
			<ele>52.5999984741211</ele>
			<time>2013-12-29T09:19:43Z</time>
		</trkpt>
		<trkpt lat="39.5286140441895" lon="2.7311065196991">
			<ele>52.7000007629395</ele>
			<time>2013-12-29T09:19:45Z</time>
		</trkpt>
		<trkpt lat="39.5286636352539" lon="2.73104572296143">
			<ele>52.7000007629395</ele>
			<time>2013-12-29T09:19:47Z</time>
		</trkpt>
		<trkpt lat="39.5287132263184" lon="2.73098754882813">
			<ele>52.7000007629395</ele>
			<time>2013-12-29T09:19:49Z</time>
		</trkpt>
		<trkpt lat="39.5287666320801" lon="2.73092699050903">
			<ele>52.7999992370605</ele>
			<time>2013-12-29T09:19:51Z</time>
		</trkpt>
		<trkpt lat="39.5288162231445" lon="2.73086643218994">
			<ele>52.7000007629395</ele>
			<time>2013-12-29T09:19:53Z</time>
		</trkpt>
		<trkpt lat="39.5288696289063" lon="2.73080563545227">
			<ele>52.5</ele>
			<time>2013-12-29T09:19:55Z</time>
		</trkpt>
		<trkpt lat="39.528923034668" lon="2.7307460308075">
			<ele>52.2000007629395</ele>
			<time>2013-12-29T09:19:57Z</time>
		</trkpt>
		<trkpt lat="39.5289726257324" lon="2.73068737983704">
			<ele>52.2000007629395</ele>
			<time>2013-12-29T09:19:59Z</time>
		</trkpt>
		<trkpt lat="39.5290260314941" lon="2.73062777519226">
			<ele>52.0999984741211</ele>
			<time>2013-12-29T09:20:01Z</time>
		</trkpt>
		<trkpt lat="39.5290756225586" lon="2.73056960105896">
			<ele>52.2000007629395</ele>
			<time>2013-12-29T09:20:03Z</time>
		</trkpt>
		<trkpt lat="39.5291290283203" lon="2.73051357269287">
			<ele>51.9000015258789</ele>
			<time>2013-12-29T09:20:05Z</time>
		</trkpt>
		<trkpt lat="39.5291786193848" lon="2.73046636581421">
			<ele>51.9000015258789</ele>
			<time>2013-12-29T09:20:07Z</time>
		</trkpt>
		<trkpt lat="39.5292320251465" lon="2.73040413856506">
			<ele>51.7000007629395</ele>
			<time>2013-12-29T09:20:09Z</time>
		</trkpt>
		<trkpt lat="39.5292778015137" lon="2.73033690452576">
			<ele>51.5999984741211</ele>
			<time>2013-12-29T09:20:11Z</time>
		</trkpt>
		<trkpt lat="39.5293235778809" lon="2.7302713394165">
			<ele>51.5999984741211</ele>
			<time>2013-12-29T09:20:13Z</time>
		</trkpt>
		<trkpt lat="39.5293731689453" lon="2.7302086353302">
			<ele>51.5999984741211</ele>
			<time>2013-12-29T09:20:15Z</time>
		</trkpt>
		<trkpt lat="39.5294227600098" lon="2.73014903068542">
			<ele>51.7999992370605</ele>
			<time>2013-12-29T09:20:18Z</time>
		</trkpt>
		<trkpt lat="39.5294723510742" lon="2.73008584976196">
			<ele>52.2000007629395</ele>
			<time>2013-12-29T09:20:19Z</time>
		</trkpt>
		<trkpt lat="39.5295143127441" lon="2.7300181388855">
			<ele>51.9000015258789</ele>
			<time>2013-12-29T09:20:21Z</time>
		</trkpt>
		<trkpt lat="39.5295600891113" lon="2.72995471954346">
			<ele>52</ele>
			<time>2013-12-29T09:20:23Z</time>
		</trkpt>
		<trkpt lat="39.5296058654785" lon="2.72989201545715">
			<ele>51.7999992370605</ele>
			<time>2013-12-29T09:20:25Z</time>
		</trkpt>
		<trkpt lat="39.529655456543" lon="2.72982788085938">
			<ele>51.7000007629395</ele>
			<time>2013-12-29T09:20:27Z</time>
		</trkpt>
		<trkpt lat="39.5296974182129" lon="2.72976183891296">
			<ele>51.5999984741211</ele>
			<time>2013-12-29T09:20:29Z</time>
		</trkpt>
		<trkpt lat="39.5297431945801" lon="2.72969365119934">
			<ele>51.7000007629395</ele>
			<time>2013-12-29T09:20:31Z</time>
		</trkpt>
		<trkpt lat="39.52978515625" lon="2.7296290397644">
			<ele>52</ele>
			<time>2013-12-29T09:20:33Z</time>
		</trkpt>
		<trkpt lat="39.5298309326172" lon="2.72956299781799">
			<ele>52</ele>
			<time>2013-12-29T09:20:35Z</time>
		</trkpt>
		<trkpt lat="39.5298805236816" lon="2.7295024394989">
			<ele>52.0999984741211</ele>
			<time>2013-12-29T09:20:37Z</time>
		</trkpt>
		<trkpt lat="39.5299263000488" lon="2.72944068908691">
			<ele>52.0999984741211</ele>
			<time>2013-12-29T09:20:39Z</time>
		</trkpt>
		<trkpt lat="39.5299758911133" lon="2.72937726974487">
			<ele>52.2000007629395</ele>
			<time>2013-12-29T09:20:41Z</time>
		</trkpt>
		<trkpt lat="39.5300254821777" lon="2.7293107509613">
			<ele>52.0999984741211</ele>
			<time>2013-12-29T09:20:43Z</time>
		</trkpt>
		<trkpt lat="39.5300750732422" lon="2.72924256324768">
			<ele>52</ele>
			<time>2013-12-29T09:20:45Z</time>
		</trkpt>
		<trkpt lat="39.5301246643066" lon="2.72917294502258">
			<ele>52</ele>
			<time>2013-12-29T09:20:47Z</time>
		</trkpt>
		<trkpt lat="39.5301780700684" lon="2.72910308837891">
			<ele>51.9000015258789</ele>
			<time>2013-12-29T09:20:49Z</time>
		</trkpt>
		<trkpt lat="39.5302276611328" lon="2.72903656959534">
			<ele>51.7000007629395</ele>
			<time>2013-12-29T09:20:51Z</time>
		</trkpt>
		<trkpt lat="39.5302810668945" lon="2.72896862030029">
			<ele>51.5</ele>
			<time>2013-12-29T09:20:53Z</time>
		</trkpt>
		<trkpt lat="39.5303268432617" lon="2.72889709472656">
			<ele>51.2999992370605</ele>
			<time>2013-12-29T09:20:55Z</time>
		</trkpt>
		<trkpt lat="39.5303764343262" lon="2.7288281917572">
			<ele>51.2000007629395</ele>
			<time>2013-12-29T09:20:57Z</time>
		</trkpt>
		<trkpt lat="39.5304260253906" lon="2.72875881195068">
			<ele>51.2000007629395</ele>
			<time>2013-12-29T09:20:59Z</time>
		</trkpt>
		<trkpt lat="39.5304718017578" lon="2.72868776321411">
			<ele>51</ele>
			<time>2013-12-29T09:21:01Z</time>
		</trkpt>
		<trkpt lat="39.530517578125" lon="2.72861886024475">
			<ele>50.9000015258789</ele>
			<time>2013-12-29T09:21:03Z</time>
		</trkpt>
		<trkpt lat="39.5305633544922" lon="2.72854709625244">
			<ele>51</ele>
			<time>2013-12-29T09:21:05Z</time>
		</trkpt>
		<trkpt lat="39.5306053161621" lon="2.72847247123718">
			<ele>51.2000007629395</ele>
			<time>2013-12-29T09:21:07Z</time>
		</trkpt>
		<trkpt lat="39.5306510925293" lon="2.72839522361755">
			<ele>51.0999984741211</ele>
			<time>2013-12-29T09:21:09Z</time>
		</trkpt>
		<trkpt lat="39.5306968688965" lon="2.7283239364624">
			<ele>51</ele>
			<time>2013-12-29T09:21:11Z</time>
		</trkpt>
		<trkpt lat="39.5307426452637" lon="2.72825002670288">
			<ele>51</ele>
			<time>2013-12-29T09:21:13Z</time>
		</trkpt>
		<trkpt lat="39.5307884216309" lon="2.72817087173462">
			<ele>50.9000015258789</ele>
			<time>2013-12-29T09:21:15Z</time>
		</trkpt>
		<trkpt lat="39.5308303833008" lon="2.72809100151062">
			<ele>50.7000007629395</ele>
			<time>2013-12-29T09:21:17Z</time>
		</trkpt>
		<trkpt lat="39.5308723449707" lon="2.72801470756531">
			<ele>50.7000007629395</ele>
			<time>2013-12-29T09:21:19Z</time>
		</trkpt>
		<trkpt lat="39.5309181213379" lon="2.72793674468994">
			<ele>50.7999992370605</ele>
			<time>2013-12-29T09:21:21Z</time>
		</trkpt>
		<trkpt lat="39.5309562683105" lon="2.72785782814026">
			<ele>51</ele>
			<time>2013-12-29T09:21:23Z</time>
		</trkpt>
		<trkpt lat="39.5309982299805" lon="2.72777962684631">
			<ele>50.7999992370605</ele>
			<time>2013-12-29T09:21:25Z</time>
		</trkpt>
		<trkpt lat="39.5310401916504" lon="2.72769832611084">
			<ele>50.7000007629395</ele>
			<time>2013-12-29T09:21:27Z</time>
		</trkpt>
		<trkpt lat="39.531078338623" lon="2.72762012481689">
			<ele>51.0999984741211</ele>
			<time>2013-12-29T09:21:29Z</time>
		</trkpt>
		<trkpt lat="39.531120300293" lon="2.72754216194153">
			<ele>50.7999992370605</ele>
			<time>2013-12-29T09:21:31Z</time>
		</trkpt>
		<trkpt lat="39.5311584472656" lon="2.72746419906616">
			<ele>51</ele>
			<time>2013-12-29T09:21:33Z</time>
		</trkpt>
		<trkpt lat="39.5312042236328" lon="2.72739052772522">
			<ele>51.0999984741211</ele>
			<time>2013-12-29T09:21:35Z</time>
		</trkpt>
		<trkpt lat="39.53125" lon="2.72732019424438">
			<ele>51</ele>
			<time>2013-12-29T09:21:37Z</time>
		</trkpt>
		<trkpt lat="39.5312881469727" lon="2.72724151611328">
			<ele>51.0999984741211</ele>
			<time>2013-12-29T09:21:39Z</time>
		</trkpt>
		<trkpt lat="39.531322479248" lon="2.72716498374939">
			<ele>51.0999984741211</ele>
			<time>2013-12-29T09:21:41Z</time>
		</trkpt>
		<trkpt lat="39.531364440918" lon="2.72708964347839">
			<ele>51</ele>
			<time>2013-12-29T09:21:43Z</time>
		</trkpt>
		<trkpt lat="39.5314025878906" lon="2.72701358795166">
			<ele>51</ele>
			<time>2013-12-29T09:21:45Z</time>
		</trkpt>
		<trkpt lat="39.5314445495605" lon="2.72694277763367">
			<ele>50.5999984741211</ele>
			<time>2013-12-29T09:21:47Z</time>
		</trkpt>
		<trkpt lat="39.5314788818359" lon="2.72687244415283">
			<ele>50.9000015258789</ele>
			<time>2013-12-29T09:21:49Z</time>
		</trkpt>
		<trkpt lat="39.5315132141113" lon="2.72680044174194">
			<ele>50.7999992370605</ele>
			<time>2013-12-29T09:21:51Z</time>
		</trkpt>
		<trkpt lat="39.5315322875977" lon="2.72672128677368">
			<ele>50.9000015258789</ele>
			<time>2013-12-29T09:21:53Z</time>
		</trkpt>
		<trkpt lat="39.5315704345703" lon="2.72664952278137">
			<ele>51</ele>
			<time>2013-12-29T09:21:55Z</time>
		</trkpt>
		<trkpt lat="39.531608581543" lon="2.72657346725464">
			<ele>51.2999992370605</ele>
			<time>2013-12-29T09:21:57Z</time>
		</trkpt>
		<trkpt lat="39.5316543579102" lon="2.72649312019348">
			<ele>51.2999992370605</ele>
			<time>2013-12-29T09:21:59Z</time>
		</trkpt>
		<trkpt lat="39.5316963195801" lon="2.72641611099243">
			<ele>51.5999984741211</ele>
			<time>2013-12-29T09:22:01Z</time>
		</trkpt>
		<trkpt lat="39.53173828125" lon="2.72633790969849">
			<ele>51.7999992370605</ele>
			<time>2013-12-29T09:22:03Z</time>
		</trkpt>
		<trkpt lat="39.5317802429199" lon="2.72626495361328">
			<ele>51.9000015258789</ele>
			<time>2013-12-29T09:22:05Z</time>
		</trkpt>
		<trkpt lat="39.5318222045898" lon="2.72618842124939">
			<ele>52.0999984741211</ele>
			<time>2013-12-29T09:22:07Z</time>
		</trkpt>
		<trkpt lat="39.5318641662598" lon="2.72611498832703">
			<ele>52.4000015258789</ele>
			<time>2013-12-29T09:22:09Z</time>
		</trkpt>
		<trkpt lat="39.5319061279297" lon="2.72603893280029">
			<ele>52.2000007629395</ele>
			<time>2013-12-29T09:22:11Z</time>
		</trkpt>
		<trkpt lat="39.5319480895996" lon="2.72596311569214">
			<ele>52.2999992370605</ele>
			<time>2013-12-29T09:22:13Z</time>
		</trkpt>
		<trkpt lat="39.5319938659668" lon="2.72589182853699">
			<ele>52.5</ele>
			<time>2013-12-29T09:22:15Z</time>
		</trkpt>
		<trkpt lat="39.5320320129395" lon="2.72581648826599">
			<ele>52.5</ele>
			<time>2013-12-29T09:22:17Z</time>
		</trkpt>
		<trkpt lat="39.5320739746094" lon="2.7257387638092">
			<ele>52.5999984741211</ele>
			<time>2013-12-29T09:22:19Z</time>
		</trkpt>
		<trkpt lat="39.532112121582" lon="2.72566390037537">
			<ele>52.4000015258789</ele>
			<time>2013-12-29T09:22:21Z</time>
		</trkpt>
		<trkpt lat="39.5321502685547" lon="2.72558879852295">
			<ele>52.5</ele>
			<time>2013-12-29T09:22:23Z</time>
		</trkpt>
		<trkpt lat="39.5321884155273" lon="2.72551822662354">
			<ele>52.5</ele>
			<time>2013-12-29T09:22:25Z</time>
		</trkpt>
		<trkpt lat="39.5322303771973" lon="2.72544384002686">
			<ele>52.2999992370605</ele>
			<time>2013-12-29T09:22:27Z</time>
		</trkpt>
		<trkpt lat="39.5322723388672" lon="2.72537112236023">
			<ele>52.2000007629395</ele>
			<time>2013-12-29T09:22:29Z</time>
		</trkpt>
		<trkpt lat="39.5323104858398" lon="2.72529625892639">
			<ele>52.0999984741211</ele>
			<time>2013-12-29T09:22:31Z</time>
		</trkpt>
		<trkpt lat="39.5323486328125" lon="2.72522020339966">
			<ele>52.2000007629395</ele>
			<time>2013-12-29T09:22:33Z</time>
		</trkpt>
		<trkpt lat="39.5323829650879" lon="2.72514390945435">
			<ele>52.2000007629395</ele>
			<time>2013-12-29T09:22:35Z</time>
		</trkpt>
		<trkpt lat="39.5324249267578" lon="2.72507524490356">
			<ele>51.9000015258789</ele>
			<time>2013-12-29T09:22:37Z</time>
		</trkpt>
		<trkpt lat="39.5324630737305" lon="2.72500514984131">
			<ele>52.2999992370605</ele>
			<time>2013-12-29T09:22:39Z</time>
		</trkpt>
		<trkpt lat="39.5325012207031" lon="2.72492599487305">
			<ele>52.5</ele>
			<time>2013-12-29T09:22:41Z</time>
		</trkpt>
		<trkpt lat="39.532543182373" lon="2.72484707832336">
			<ele>52</ele>
			<time>2013-12-29T09:22:43Z</time>
		</trkpt>
		<trkpt lat="39.5325813293457" lon="2.72476720809937">
			<ele>51.9000015258789</ele>
			<time>2013-12-29T09:22:45Z</time>
		</trkpt>
		<trkpt lat="39.5326232910156" lon="2.72469043731689">
			<ele>52</ele>
			<time>2013-12-29T09:22:47Z</time>
		</trkpt>
		<trkpt lat="39.5326614379883" lon="2.72461628913879">
			<ele>51.7999992370605</ele>
			<time>2013-12-29T09:22:49Z</time>
		</trkpt>
		<trkpt lat="39.5326995849609" lon="2.72454738616943">
			<ele>51.5999984741211</ele>
			<time>2013-12-29T09:22:51Z</time>
		</trkpt>
		<trkpt lat="39.5327415466309" lon="2.72447085380554">
			<ele>51.7000007629395</ele>
			<time>2013-12-29T09:22:53Z</time>
		</trkpt>
		<trkpt lat="39.5327835083008" lon="2.72440195083618">
			<ele>52.0999984741211</ele>
			<time>2013-12-29T09:22:55Z</time>
		</trkpt>
		<trkpt lat="39.5328216552734" lon="2.72433304786682">
			<ele>51.9000015258789</ele>
			<time>2013-12-29T09:22:57Z</time>
		</trkpt>
		<trkpt lat="39.5328598022461" lon="2.72425484657288">
			<ele>52.2000007629395</ele>
			<time>2013-12-29T09:22:59Z</time>
		</trkpt>
		<trkpt lat="39.5328979492188" lon="2.72417426109314">
			<ele>52.0999984741211</ele>
			<time>2013-12-29T09:23:01Z</time>
		</trkpt>
		<trkpt lat="39.5329399108887" lon="2.72409772872925">
			<ele>51.7999992370605</ele>
			<time>2013-12-29T09:23:03Z</time>
		</trkpt>
		<trkpt lat="39.5329856872559" lon="2.72402906417847">
			<ele>51.5999984741211</ele>
			<time>2013-12-29T09:23:05Z</time>
		</trkpt>
		<trkpt lat="39.5330276489258" lon="2.72395157814026">
			<ele>51.7000007629395</ele>
			<time>2013-12-29T09:23:07Z</time>
		</trkpt>
		<trkpt lat="39.5330696105957" lon="2.72387456893921">
			<ele>51.5</ele>
			<time>2013-12-29T09:23:09Z</time>
		</trkpt>
		<trkpt lat="39.5331115722656" lon="2.72379636764526">
			<ele>52</ele>
			<time>2013-12-29T09:23:11Z</time>
		</trkpt>
		<trkpt lat="39.5331535339355" lon="2.72371959686279">
			<ele>52.2999992370605</ele>
			<time>2013-12-29T09:23:13Z</time>
		</trkpt>
		<trkpt lat="39.5331916809082" lon="2.72364592552185">
			<ele>51.7999992370605</ele>
			<time>2013-12-29T09:23:15Z</time>
		</trkpt>
		<trkpt lat="39.5332298278809" lon="2.72356963157654">
			<ele>51.5</ele>
			<time>2013-12-29T09:23:17Z</time>
		</trkpt>
		<trkpt lat="39.5332717895508" lon="2.72349452972412">
			<ele>52</ele>
			<time>2013-12-29T09:23:19Z</time>
		</trkpt>
		<trkpt lat="39.5333137512207" lon="2.72341799736023">
			<ele>51.9000015258789</ele>
			<time>2013-12-29T09:23:21Z</time>
		</trkpt>
		<trkpt lat="39.5333518981934" lon="2.72334599494934">
			<ele>52</ele>
			<time>2013-12-29T09:23:23Z</time>
		</trkpt>
		<trkpt lat="39.5333938598633" lon="2.72327089309692">
			<ele>51.5999984741211</ele>
			<time>2013-12-29T09:23:25Z</time>
		</trkpt>
		<trkpt lat="39.5334358215332" lon="2.72320079803467">
			<ele>52.0999984741211</ele>
			<time>2013-12-29T09:23:27Z</time>
		</trkpt>
		<trkpt lat="39.5334777832031" lon="2.72312474250793">
			<ele>51.9000015258789</ele>
			<time>2013-12-29T09:23:29Z</time>
		</trkpt>
		<trkpt lat="39.533519744873" lon="2.72305130958557">
			<ele>52</ele>
			<time>2013-12-29T09:23:31Z</time>
		</trkpt>
		<trkpt lat="39.5335578918457" lon="2.72297644615173">
			<ele>52.2000007629395</ele>
			<time>2013-12-29T09:23:33Z</time>
		</trkpt>
		<trkpt lat="39.5336036682129" lon="2.72290563583374">
			<ele>52.2999992370605</ele>
			<time>2013-12-29T09:23:35Z</time>
		</trkpt>
		<trkpt lat="39.5336418151855" lon="2.72282862663269">
			<ele>51.9000015258789</ele>
			<time>2013-12-29T09:23:37Z</time>
		</trkpt>
		<trkpt lat="39.5336837768555" lon="2.72275066375732">
			<ele>51.2000007629395</ele>
			<time>2013-12-29T09:23:39Z</time>
		</trkpt>
		<trkpt lat="39.5337257385254" lon="2.72266960144043">
			<ele>51.4000015258789</ele>
			<time>2013-12-29T09:23:41Z</time>
		</trkpt>
		<trkpt lat="39.5337677001953" lon="2.72259140014648">
			<ele>51.2999992370605</ele>
			<time>2013-12-29T09:23:43Z</time>
		</trkpt>
		<trkpt lat="39.533805847168" lon="2.72251296043396">
			<ele>51.2000007629395</ele>
			<time>2013-12-29T09:23:45Z</time>
		</trkpt>
		<trkpt lat="39.5338439941406" lon="2.72243738174438">
			<ele>51.4000015258789</ele>
			<time>2013-12-29T09:23:47Z</time>
		</trkpt>
		<trkpt lat="39.5338859558105" lon="2.72236156463623">
			<ele>51.5</ele>
			<time>2013-12-29T09:23:49Z</time>
		</trkpt>
		<trkpt lat="39.5339279174805" lon="2.72228622436523">
			<ele>51.0999984741211</ele>
			<time>2013-12-29T09:23:51Z</time>
		</trkpt>
		<trkpt lat="39.5339698791504" lon="2.72220921516418">
			<ele>51.0999984741211</ele>
			<time>2013-12-29T09:23:53Z</time>
		</trkpt>
		<trkpt lat="39.5340156555176" lon="2.72212862968445">
			<ele>51</ele>
			<time>2013-12-29T09:23:55Z</time>
		</trkpt>
		<trkpt lat="39.5340576171875" lon="2.72205305099487">
			<ele>51.2000007629395</ele>
			<time>2013-12-29T09:23:57Z</time>
		</trkpt>
		<trkpt lat="39.5341033935547" lon="2.72197580337524">
			<ele>51.0999984741211</ele>
			<time>2013-12-29T09:23:59Z</time>
		</trkpt>
		<trkpt lat="39.5341453552246" lon="2.72189903259277">
			<ele>51.2000007629395</ele>
			<time>2013-12-29T09:24:01Z</time>
		</trkpt>
		<trkpt lat="39.5341873168945" lon="2.72182250022888">
			<ele>51.2000007629395</ele>
			<time>2013-12-29T09:24:03Z</time>
		</trkpt>
		<trkpt lat="39.5342292785645" lon="2.72174620628357">
			<ele>51.4000015258789</ele>
			<time>2013-12-29T09:24:05Z</time>
		</trkpt>
		<trkpt lat="39.5342674255371" lon="2.7216682434082">
			<ele>51.2999992370605</ele>
			<time>2013-12-29T09:24:07Z</time>
		</trkpt>
		<trkpt lat="39.5343132019043" lon="2.72158980369568">
			<ele>51.4000015258789</ele>
			<time>2013-12-29T09:24:09Z</time>
		</trkpt>
		<trkpt lat="39.5343589782715" lon="2.72151613235474">
			<ele>51.4000015258789</ele>
			<time>2013-12-29T09:24:11Z</time>
		</trkpt>
		<trkpt lat="39.5344085693359" lon="2.72144937515259">
			<ele>51.7000007629395</ele>
			<time>2013-12-29T09:24:13Z</time>
		</trkpt>
		<trkpt lat="39.5344581604004" lon="2.72138428688049">
			<ele>52</ele>
			<time>2013-12-29T09:24:15Z</time>
		</trkpt>
		<trkpt lat="39.5345039367676" lon="2.72131824493408">
			<ele>52</ele>
			<time>2013-12-29T09:24:17Z</time>
		</trkpt>
		<trkpt lat="39.5345497131348" lon="2.72125482559204">
			<ele>52.0999984741211</ele>
			<time>2013-12-29T09:24:19Z</time>
		</trkpt>
		<trkpt lat="39.5345993041992" lon="2.72118902206421">
			<ele>52.2999992370605</ele>
			<time>2013-12-29T09:24:21Z</time>
		</trkpt>
		<trkpt lat="39.5346488952637" lon="2.72111940383911">
			<ele>52.4000015258789</ele>
			<time>2013-12-29T09:24:23Z</time>
		</trkpt>
		<trkpt lat="39.5346946716309" lon="2.72104954719543">
			<ele>52.2999992370605</ele>
			<time>2013-12-29T09:24:25Z</time>
		</trkpt>
		<trkpt lat="39.5347480773926" lon="2.7209837436676">
			<ele>52.4000015258789</ele>
			<time>2013-12-29T09:24:27Z</time>
		</trkpt>
		<trkpt lat="39.534797668457" lon="2.72091913223267">
			<ele>52.2999992370605</ele>
			<time>2013-12-29T09:24:29Z</time>
		</trkpt>
		<trkpt lat="39.5348472595215" lon="2.72085070610046">
			<ele>52.2999992370605</ele>
			<time>2013-12-29T09:24:31Z</time>
		</trkpt>
		<trkpt lat="39.5348968505859" lon="2.72078013420105">
			<ele>52.2999992370605</ele>
			<time>2013-12-29T09:24:33Z</time>
		</trkpt>
		<trkpt lat="39.5349426269531" lon="2.72070622444153">
			<ele>52.2000007629395</ele>
			<time>2013-12-29T09:24:35Z</time>
		</trkpt>
		<trkpt lat="39.5349884033203" lon="2.72063493728638">
			<ele>52.4000015258789</ele>
			<time>2013-12-29T09:24:37Z</time>
		</trkpt>
		<trkpt lat="39.5350303649902" lon="2.72055983543396">
			<ele>52.4000015258789</ele>
			<time>2013-12-29T09:24:39Z</time>
		</trkpt>
		<trkpt lat="39.5350646972656" lon="2.72048139572144">
			<ele>52.5</ele>
			<time>2013-12-29T09:24:41Z</time>
		</trkpt>
		<trkpt lat="39.5350914001465" lon="2.72039151191711">
			<ele>52.5</ele>
			<time>2013-12-29T09:24:43Z</time>
		</trkpt>
		<trkpt lat="39.5351142883301" lon="2.72030067443848">
			<ele>52.0999984741211</ele>
			<time>2013-12-29T09:24:45Z</time>
		</trkpt>
		<trkpt lat="39.5351333618164" lon="2.720210313797">
			<ele>52</ele>
			<time>2013-12-29T09:24:47Z</time>
		</trkpt>
		<trkpt lat="39.5351600646973" lon="2.7201235294342">
			<ele>52</ele>
			<time>2013-12-29T09:24:49Z</time>
		</trkpt>
		<trkpt lat="39.5351829528809" lon="2.72003626823425">
			<ele>51.9000015258789</ele>
			<time>2013-12-29T09:24:51Z</time>
		</trkpt>
		<trkpt lat="39.5352058410645" lon="2.71994876861572">
			<ele>51.5999984741211</ele>
			<time>2013-12-29T09:24:53Z</time>
		</trkpt>
		<trkpt lat="39.535228729248" lon="2.71985983848572">
			<ele>51.2000007629395</ele>
			<time>2013-12-29T09:24:55Z</time>
		</trkpt>
		<trkpt lat="39.5352478027344" lon="2.71976804733276">
			<ele>51.0999984741211</ele>
			<time>2013-12-29T09:24:57Z</time>
		</trkpt>
		<trkpt lat="39.5352554321289" lon="2.71968626976013">
			<ele>51</ele>
			<time>2013-12-29T09:24:59Z</time>
		</trkpt>
		<trkpt lat="39.5352439880371" lon="2.71961688995361">
			<ele>51</ele>
			<time>2013-12-29T09:25:01Z</time>
		</trkpt>
		<trkpt lat="39.5352325439453" lon="2.71954488754272">
			<ele>51.2999992370605</ele>
			<time>2013-12-29T09:25:03Z</time>
		</trkpt>
		<trkpt lat="39.5352249145508" lon="2.71945285797119">
			<ele>50.2999992370605</ele>
			<time>2013-12-29T09:25:05Z</time>
		</trkpt>
		<trkpt lat="39.5352210998535" lon="2.7193386554718">
			<ele>49.7999992370605</ele>
			<time>2013-12-29T09:25:07Z</time>
		</trkpt>
		<trkpt lat="39.5352020263672" lon="2.71923279762268">
			<ele>49.7000007629395</ele>
			<time>2013-12-29T09:25:09Z</time>
		</trkpt>
		<trkpt lat="39.53515625" lon="2.71914315223694">
			<ele>49.7000007629395</ele>
			<time>2013-12-29T09:25:11Z</time>
		</trkpt>
		<trkpt lat="39.5350914001465" lon="2.71907210350037">
			<ele>49.7000007629395</ele>
			<time>2013-12-29T09:25:13Z</time>
		</trkpt>
		<trkpt lat="39.5350341796875" lon="2.71898818016052">
			<ele>49.5</ele>
			<time>2013-12-29T09:25:15Z</time>
		</trkpt>
		<trkpt lat="39.5349769592285" lon="2.71890211105347">
			<ele>49.4000015258789</ele>
			<time>2013-12-29T09:25:17Z</time>
		</trkpt>
		<trkpt lat="39.5349235534668" lon="2.71882176399231">
			<ele>49.2000007629395</ele>
			<time>2013-12-29T09:25:19Z</time>
		</trkpt>
		<trkpt lat="39.5348701477051" lon="2.71874570846558">
			<ele>49.5</ele>
			<time>2013-12-29T09:25:21Z</time>
		</trkpt>
		<trkpt lat="39.5348243713379" lon="2.71867489814758">
			<ele>49.5</ele>
			<time>2013-12-29T09:25:23Z</time>
		</trkpt>
		<trkpt lat="39.5347747802734" lon="2.71860408782959">
			<ele>49.4000015258789</ele>
			<time>2013-12-29T09:25:25Z</time>
		</trkpt>
		<trkpt lat="39.5347290039063" lon="2.71853280067444">
			<ele>49.4000015258789</ele>
			<time>2013-12-29T09:25:27Z</time>
		</trkpt>
		<trkpt lat="39.5346984863281" lon="2.71845006942749">
			<ele>49.5999984741211</ele>
			<time>2013-12-29T09:25:29Z</time>
		</trkpt>
		<trkpt lat="39.5346832275391" lon="2.71836304664612">
			<ele>49.5999984741211</ele>
			<time>2013-12-29T09:25:31Z</time>
		</trkpt>
		<trkpt lat="39.5346794128418" lon="2.71827912330627">
			<ele>49.7000007629395</ele>
			<time>2013-12-29T09:25:33Z</time>
		</trkpt>
		<trkpt lat="39.5346832275391" lon="2.71818947792053">
			<ele>49.5</ele>
			<time>2013-12-29T09:25:35Z</time>
		</trkpt>
		<trkpt lat="39.5346908569336" lon="2.71808576583862">
			<ele>49.0999984741211</ele>
			<time>2013-12-29T09:25:37Z</time>
		</trkpt>
		<trkpt lat="39.5346946716309" lon="2.71797609329224">
			<ele>49.0999984741211</ele>
			<time>2013-12-29T09:25:39Z</time>
		</trkpt>
		<trkpt lat="39.5346984863281" lon="2.71787095069885">
			<ele>49.0999984741211</ele>
			<time>2013-12-29T09:25:41Z</time>
		</trkpt>
		<trkpt lat="39.5347023010254" lon="2.71776604652405">
			<ele>49.2999992370605</ele>
			<time>2013-12-29T09:25:43Z</time>
		</trkpt>
		<trkpt lat="39.5346984863281" lon="2.71766328811646">
			<ele>49.2999992370605</ele>
			<time>2013-12-29T09:25:45Z</time>
		</trkpt>
		<trkpt lat="39.5346870422363" lon="2.71755981445313">
			<ele>49.2999992370605</ele>
			<time>2013-12-29T09:25:47Z</time>
		</trkpt>
		<trkpt lat="39.5346794128418" lon="2.71745944023132">
			<ele>49.4000015258789</ele>
			<time>2013-12-29T09:25:49Z</time>
		</trkpt>
		<trkpt lat="39.5346755981445" lon="2.71735620498657">
			<ele>49.4000015258789</ele>
			<time>2013-12-29T09:25:51Z</time>
		</trkpt>
		<trkpt lat="39.53466796875" lon="2.7172577381134">
			<ele>49.5999984741211</ele>
			<time>2013-12-29T09:25:53Z</time>
		</trkpt>
		<trkpt lat="39.5346641540527" lon="2.71716022491455">
			<ele>49.9000015258789</ele>
			<time>2013-12-29T09:25:55Z</time>
		</trkpt>
		<trkpt lat="39.5346565246582" lon="2.7170627117157">
			<ele>49.7999992370605</ele>
			<time>2013-12-29T09:25:57Z</time>
		</trkpt>
		<trkpt lat="39.5346450805664" lon="2.71696305274963">
			<ele>49.7000007629395</ele>
			<time>2013-12-29T09:25:59Z</time>
		</trkpt>
		<trkpt lat="39.5346298217773" lon="2.71686124801636">
			<ele>49.5</ele>
			<time>2013-12-29T09:26:01Z</time>
		</trkpt>
		<trkpt lat="39.5346145629883" lon="2.71675705909729">
			<ele>49.4000015258789</ele>
			<time>2013-12-29T09:26:03Z</time>
		</trkpt>
		<trkpt lat="39.5346031188965" lon="2.71665287017822">
			<ele>49.4000015258789</ele>
			<time>2013-12-29T09:26:05Z</time>
		</trkpt>
		<trkpt lat="39.5345916748047" lon="2.71654772758484">
			<ele>49.2999992370605</ele>
			<time>2013-12-29T09:26:07Z</time>
		</trkpt>
		<trkpt lat="39.5345916748047" lon="2.71644163131714">
			<ele>49.4000015258789</ele>
			<time>2013-12-29T09:26:09Z</time>
		</trkpt>
		<trkpt lat="39.5346031188965" lon="2.71634459495544">
			<ele>49.2000007629395</ele>
			<time>2013-12-29T09:26:11Z</time>
		</trkpt>
		<trkpt lat="39.5346412658691" lon="2.71625804901123">
			<ele>49</ele>
			<time>2013-12-29T09:26:13Z</time>
		</trkpt>
		<trkpt lat="39.53466796875" lon="2.7161693572998">
			<ele>48.9000015258789</ele>
			<time>2013-12-29T09:26:15Z</time>
		</trkpt>
		<trkpt lat="39.5346946716309" lon="2.7160816192627">
			<ele>48.5999984741211</ele>
			<time>2013-12-29T09:26:17Z</time>
		</trkpt>
		<trkpt lat="39.5347175598145" lon="2.71599221229553">
			<ele>48.5999984741211</ele>
			<time>2013-12-29T09:26:19Z</time>
		</trkpt>
		<trkpt lat="39.5347290039063" lon="2.71589779853821">
			<ele>48.7000007629395</ele>
			<time>2013-12-29T09:26:21Z</time>
		</trkpt>
		<trkpt lat="39.5347366333008" lon="2.71580290794373">
			<ele>49.2999992370605</ele>
			<time>2013-12-29T09:26:23Z</time>
		</trkpt>
		<trkpt lat="39.534740447998" lon="2.71571207046509">
			<ele>49</ele>
			<time>2013-12-29T09:26:25Z</time>
		</trkpt>
		<trkpt lat="39.5347213745117" lon="2.71561694145203">
			<ele>49.2999992370605</ele>
			<time>2013-12-29T09:26:27Z</time>
		</trkpt>
		<trkpt lat="39.5346908569336" lon="2.71552801132202">
			<ele>49.0999984741211</ele>
			<time>2013-12-29T09:26:29Z</time>
		</trkpt>
		<trkpt lat="39.5346603393555" lon="2.71543645858765">
			<ele>49.0999984741211</ele>
			<time>2013-12-29T09:26:31Z</time>
		</trkpt>
		<trkpt lat="39.5346298217773" lon="2.71535086631775">
			<ele>48.9000015258789</ele>
			<time>2013-12-29T09:26:33Z</time>
		</trkpt>
		<trkpt lat="39.5345993041992" lon="2.71526336669922">
			<ele>48.7000007629395</ele>
			<time>2013-12-29T09:26:35Z</time>
		</trkpt>
		<trkpt lat="39.5345687866211" lon="2.71517658233643">
			<ele>48.7000007629395</ele>
			<time>2013-12-29T09:26:37Z</time>
		</trkpt>
		<trkpt lat="39.5345191955566" lon="2.71509885787964">
			<ele>48.9000015258789</ele>
			<time>2013-12-29T09:26:39Z</time>
		</trkpt>
		<trkpt lat="39.5344619750977" lon="2.71504163742065">
			<ele>49.4000015258789</ele>
			<time>2013-12-29T09:26:41Z</time>
		</trkpt>
		<trkpt lat="39.5344161987305" lon="2.71499490737915">
			<ele>49.7000007629395</ele>
			<time>2013-12-29T09:26:43Z</time>
		</trkpt>
		<trkpt lat="39.5344047546387" lon="2.71492910385132">
			<ele>49</ele>
			<time>2013-12-29T09:26:45Z</time>
		</trkpt>
		<trkpt lat="39.5344009399414" lon="2.71486973762512">
			<ele>48.7000007629395</ele>
			<time>2013-12-29T09:26:47Z</time>
		</trkpt>
		<trkpt lat="39.5343589782715" lon="2.7148220539093">
			<ele>48.5999984741211</ele>
			<time>2013-12-29T09:26:49Z</time>
		</trkpt>
		<trkpt lat="39.5343017578125" lon="2.71477651596069">
			<ele>48.4000015258789</ele>
			<time>2013-12-29T09:26:51Z</time>
		</trkpt>
		<trkpt lat="39.5342445373535" lon="2.71472930908203">
			<ele>48.2000007629395</ele>
			<time>2013-12-29T09:26:53Z</time>
		</trkpt>
		<trkpt lat="39.5341835021973" lon="2.71468091011047">
			<ele>48.2000007629395</ele>
			<time>2013-12-29T09:26:55Z</time>
		</trkpt>
		<trkpt lat="39.5341300964355" lon="2.71462845802307">
			<ele>48</ele>
			<time>2013-12-29T09:26:57Z</time>
		</trkpt>
		<trkpt lat="39.5341377258301" lon="2.71455383300781">
			<ele>48.2000007629395</ele>
			<time>2013-12-29T09:26:59Z</time>
		</trkpt>
		<trkpt lat="39.5341796875" lon="2.71452116966248">
			<ele>48.7999992370605</ele>
			<time>2013-12-29T09:27:00Z</time>
		</trkpt>
		<trkpt lat="39.5342254638672" lon="2.7144467830658">
			<ele>49.2999992370605</ele>
			<time>2013-12-29T09:27:02Z</time>
		</trkpt>
		<trkpt lat="39.5342750549316" lon="2.71437644958496">
			<ele>49.5999984741211</ele>
			<time>2013-12-29T09:27:04Z</time>
		</trkpt>
		<trkpt lat="39.5343208312988" lon="2.71430659294128">
			<ele>49.5999984741211</ele>
			<time>2013-12-29T09:27:06Z</time>
		</trkpt>
		<trkpt lat="39.534366607666" lon="2.71423602104187">
			<ele>49.5999984741211</ele>
			<time>2013-12-29T09:27:08Z</time>
		</trkpt>
		<trkpt lat="39.5344123840332" lon="2.71416735649109">
			<ele>49.7000007629395</ele>
			<time>2013-12-29T09:27:10Z</time>
		</trkpt>
		<trkpt lat="39.5344696044922" lon="2.71410703659058">
			<ele>49.2999992370605</ele>
			<time>2013-12-29T09:27:12Z</time>
		</trkpt>
		<trkpt lat="39.5345230102539" lon="2.71404600143433">
			<ele>49.2999992370605</ele>
			<time>2013-12-29T09:27:14Z</time>
		</trkpt>
		<trkpt lat="39.5345764160156" lon="2.7139790058136">
			<ele>49.4000015258789</ele>
			<time>2013-12-29T09:27:16Z</time>
		</trkpt>
		<trkpt lat="39.5346260070801" lon="2.7139105796814">
			<ele>49.2999992370605</ele>
			<time>2013-12-29T09:27:18Z</time>
		</trkpt>
		<trkpt lat="39.5346755981445" lon="2.71384239196777">
			<ele>49.2999992370605</ele>
			<time>2013-12-29T09:27:20Z</time>
		</trkpt>
		<trkpt lat="39.5347213745117" lon="2.71376824378967">
			<ele>49.2000007629395</ele>
			<time>2013-12-29T09:27:22Z</time>
		</trkpt>
		<trkpt lat="39.5347671508789" lon="2.71369481086731">
			<ele>49.2999992370605</ele>
			<time>2013-12-29T09:27:24Z</time>
		</trkpt>
		<trkpt lat="39.5348167419434" lon="2.71361398696899">
			<ele>49.5</ele>
			<time>2013-12-29T09:27:26Z</time>
		</trkpt>
		<trkpt lat="39.5348625183105" lon="2.71354222297668">
			<ele>49.5999984741211</ele>
			<time>2013-12-29T09:27:28Z</time>
		</trkpt>
		<trkpt lat="39.5349006652832" lon="2.713463306427">
			<ele>49.7999992370605</ele>
			<time>2013-12-29T09:27:30Z</time>
		</trkpt>
		<trkpt lat="39.5349388122559" lon="2.71338510513306">
			<ele>49.7999992370605</ele>
			<time>2013-12-29T09:27:32Z</time>
		</trkpt>
		<trkpt lat="39.5349731445313" lon="2.71329784393311">
			<ele>50.2000007629395</ele>
			<time>2013-12-29T09:27:34Z</time>
		</trkpt>
		<trkpt lat="39.5350036621094" lon="2.71321225166321">
			<ele>50.5</ele>
			<time>2013-12-29T09:27:36Z</time>
		</trkpt>
		<trkpt lat="39.535026550293" lon="2.71312642097473">
			<ele>50.4000015258789</ele>
			<time>2013-12-29T09:27:38Z</time>
		</trkpt>
		<trkpt lat="39.535041809082" lon="2.71303367614746">
			<ele>50.5</ele>
			<time>2013-12-29T09:27:40Z</time>
		</trkpt>
		<trkpt lat="39.5350532531738" lon="2.71294188499451">
			<ele>50.7000007629395</ele>
			<time>2013-12-29T09:27:42Z</time>
		</trkpt>
		<trkpt lat="39.5350608825684" lon="2.71285128593445">
			<ele>50.9000015258789</ele>
			<time>2013-12-29T09:27:44Z</time>
		</trkpt>
		<trkpt lat="39.5350646972656" lon="2.71276187896729">
			<ele>51.2999992370605</ele>
			<time>2013-12-29T09:27:46Z</time>
		</trkpt>
		<trkpt lat="39.5350685119629" lon="2.71267342567444">
			<ele>51.7000007629395</ele>
			<time>2013-12-29T09:27:48Z</time>
		</trkpt>
		<trkpt lat="39.5350685119629" lon="2.71258544921875">
			<ele>52.2000007629395</ele>
			<time>2013-12-29T09:27:50Z</time>
		</trkpt>
		<trkpt lat="39.5350646972656" lon="2.71249532699585">
			<ele>51.9000015258789</ele>
			<time>2013-12-29T09:27:52Z</time>
		</trkpt>
		<trkpt lat="39.5350570678711" lon="2.7124035358429">
			<ele>52.2999992370605</ele>
			<time>2013-12-29T09:27:54Z</time>
		</trkpt>
		<trkpt lat="39.5350532531738" lon="2.71232271194458">
			<ele>52.5999984741211</ele>
			<time>2013-12-29T09:27:56Z</time>
		</trkpt>
		<trkpt lat="39.5350456237793" lon="2.71224641799927">
			<ele>52.7000007629395</ele>
			<time>2013-12-29T09:27:58Z</time>
		</trkpt>
		<trkpt lat="39.5350379943848" lon="2.71216654777527">
			<ele>53.0999984741211</ele>
			<time>2013-12-29T09:28:00Z</time>
		</trkpt>
		<trkpt lat="39.5350303649902" lon="2.7120954990387">
			<ele>53.7000007629395</ele>
			<time>2013-12-29T09:28:02Z</time>
		</trkpt>
		<trkpt lat="39.5350570678711" lon="2.71202301979065">
			<ele>54</ele>
			<time>2013-12-29T09:28:04Z</time>
		</trkpt>
		<trkpt lat="39.5350723266602" lon="2.7119574546814">
			<ele>54.0999984741211</ele>
			<time>2013-12-29T09:28:06Z</time>
		</trkpt>
		<trkpt lat="39.5350723266602" lon="2.7118775844574">
			<ele>53.7999992370605</ele>
			<time>2013-12-29T09:28:08Z</time>
		</trkpt>
		<trkpt lat="39.5350379943848" lon="2.71181201934814">
			<ele>53.9000015258789</ele>
			<time>2013-12-29T09:28:10Z</time>
		</trkpt>
		<trkpt lat="39.534969329834" lon="2.7117612361908">
			<ele>53.5999984741211</ele>
			<time>2013-12-29T09:28:12Z</time>
		</trkpt>
		<trkpt lat="39.5349082946777" lon="2.71170139312744">
			<ele>53.7000007629395</ele>
			<time>2013-12-29T09:28:14Z</time>
		</trkpt>
		<trkpt lat="39.5348587036133" lon="2.71163821220398">
			<ele>53.9000015258789</ele>
			<time>2013-12-29T09:28:16Z</time>
		</trkpt>
		<trkpt lat="39.5348014831543" lon="2.71157932281494">
			<ele>54.2999992370605</ele>
			<time>2013-12-29T09:28:18Z</time>
		</trkpt>
		<trkpt lat="39.5347480773926" lon="2.71152830123901">
			<ele>54.5</ele>
			<time>2013-12-29T09:28:20Z</time>
		</trkpt>
		<trkpt lat="39.5346984863281" lon="2.71147537231445">
			<ele>54.9000015258789</ele>
			<time>2013-12-29T09:28:22Z</time>
		</trkpt>
		<trkpt lat="39.5346527099609" lon="2.71142268180847">
			<ele>55.2000007629395</ele>
			<time>2013-12-29T09:28:24Z</time>
		</trkpt>
		<trkpt lat="39.5346069335938" lon="2.71136856079102">
			<ele>55.0999984741211</ele>
			<time>2013-12-29T09:28:26Z</time>
		</trkpt>
		<trkpt lat="39.5345573425293" lon="2.71131205558777">
			<ele>55.4000015258789</ele>
			<time>2013-12-29T09:28:28Z</time>
		</trkpt>
		<trkpt lat="39.5345115661621" lon="2.71125078201294">
			<ele>55.7999992370605</ele>
			<time>2013-12-29T09:28:30Z</time>
		</trkpt>
		<trkpt lat="39.5344581604004" lon="2.71119999885559">
			<ele>55.7000007629395</ele>
			<time>2013-12-29T09:28:32Z</time>
		</trkpt>
		<trkpt lat="39.534423828125" lon="2.71113133430481">
			<ele>55.5</ele>
			<time>2013-12-29T09:28:34Z</time>
		</trkpt>
		<trkpt lat="39.5344161987305" lon="2.71104311943054">
			<ele>55.0999984741211</ele>
			<time>2013-12-29T09:28:36Z</time>
		</trkpt>
		<trkpt lat="39.5344467163086" lon="2.71096348762512">
			<ele>54.7000007629395</ele>
			<time>2013-12-29T09:28:38Z</time>
		</trkpt>
		<trkpt lat="39.5345001220703" lon="2.71089673042297">
			<ele>54.5</ele>
			<time>2013-12-29T09:28:40Z</time>
		</trkpt>
		<trkpt lat="39.534553527832" lon="2.71083688735962">
			<ele>53.9000015258789</ele>
			<time>2013-12-29T09:28:42Z</time>
		</trkpt>
		<trkpt lat="39.5346069335938" lon="2.71077561378479">
			<ele>53.7000007629395</ele>
			<time>2013-12-29T09:28:44Z</time>
		</trkpt>
		<trkpt lat="39.5346641540527" lon="2.7107150554657">
			<ele>53.5</ele>
			<time>2013-12-29T09:28:46Z</time>
		</trkpt>
		<trkpt lat="39.5347213745117" lon="2.71065163612366">
			<ele>53.4000015258789</ele>
			<time>2013-12-29T09:28:48Z</time>
		</trkpt>
		<trkpt lat="39.5347747802734" lon="2.71059417724609">
			<ele>53.5999984741211</ele>
			<time>2013-12-29T09:28:50Z</time>
		</trkpt>
		<trkpt lat="39.5348320007324" lon="2.71052861213684">
			<ele>53.7999992370605</ele>
			<time>2013-12-29T09:28:52Z</time>
		</trkpt>
		<trkpt lat="39.5348854064941" lon="2.71046614646912">
			<ele>53.7999992370605</ele>
			<time>2013-12-29T09:28:54Z</time>
		</trkpt>
		<trkpt lat="39.5349426269531" lon="2.71040272712708">
			<ele>53.7000007629395</ele>
			<time>2013-12-29T09:28:56Z</time>
		</trkpt>
		<trkpt lat="39.5349998474121" lon="2.71034145355225">
			<ele>53.5</ele>
			<time>2013-12-29T09:28:58Z</time>
		</trkpt>
		<trkpt lat="39.5350532531738" lon="2.71027684211731">
			<ele>53.4000015258789</ele>
			<time>2013-12-29T09:29:00Z</time>
		</trkpt>
		<trkpt lat="39.5351104736328" lon="2.71021318435669">
			<ele>53.0999984741211</ele>
			<time>2013-12-29T09:29:02Z</time>
		</trkpt>
		<trkpt lat="39.5351867675781" lon="2.71017217636108">
			<ele>53</ele>
			<time>2013-12-29T09:29:04Z</time>
		</trkpt>
		<trkpt lat="39.5352668762207" lon="2.71016454696655">
			<ele>53.0999984741211</ele>
			<time>2013-12-29T09:29:06Z</time>
		</trkpt>
		<trkpt lat="39.5353507995605" lon="2.71019148826599">
			<ele>53</ele>
			<time>2013-12-29T09:29:08Z</time>
		</trkpt>
		<trkpt lat="39.5354270935059" lon="2.71024012565613">
			<ele>52.9000015258789</ele>
			<time>2013-12-29T09:29:10Z</time>
		</trkpt>
		<trkpt lat="39.5354995727539" lon="2.71028256416321">
			<ele>52.9000015258789</ele>
			<time>2013-12-29T09:29:12Z</time>
		</trkpt>
		<trkpt lat="39.535572052002" lon="2.71032691001892">
			<ele>52.5999984741211</ele>
			<time>2013-12-29T09:29:14Z</time>
		</trkpt>
		<trkpt lat="39.5356369018555" lon="2.7103705406189">
			<ele>52.5</ele>
			<time>2013-12-29T09:29:16Z</time>
		</trkpt>
		<trkpt lat="39.535701751709" lon="2.71041107177734">
			<ele>52.5</ele>
			<time>2013-12-29T09:29:18Z</time>
		</trkpt>
		<trkpt lat="39.5357666015625" lon="2.71044969558716">
			<ele>52.7000007629395</ele>
			<time>2013-12-29T09:29:20Z</time>
		</trkpt>
		<trkpt lat="39.5358238220215" lon="2.71049618721008">
			<ele>52.5999984741211</ele>
			<time>2013-12-29T09:29:22Z</time>
		</trkpt>
		<trkpt lat="39.5358810424805" lon="2.71055483818054">
			<ele>52.4000015258789</ele>
			<time>2013-12-29T09:29:24Z</time>
		</trkpt>
		<trkpt lat="39.5359382629395" lon="2.7106146812439">
			<ele>52.2000007629395</ele>
			<time>2013-12-29T09:29:26Z</time>
		</trkpt>
		<trkpt lat="39.5359954833984" lon="2.71068143844604">
			<ele>52.2000007629395</ele>
			<time>2013-12-29T09:29:28Z</time>
		</trkpt>
		<trkpt lat="39.5360527038574" lon="2.7107458114624">
			<ele>52</ele>
			<time>2013-12-29T09:29:30Z</time>
		</trkpt>
		<trkpt lat="39.5361213684082" lon="2.71079182624817">
			<ele>51.7999992370605</ele>
			<time>2013-12-29T09:29:32Z</time>
		</trkpt>
		<trkpt lat="39.5361938476563" lon="2.71080851554871">
			<ele>51.9000015258789</ele>
			<time>2013-12-29T09:29:34Z</time>
		</trkpt>
		<trkpt lat="39.5362739562988" lon="2.71079564094543">
			<ele>52</ele>
			<time>2013-12-29T09:29:36Z</time>
		</trkpt>
		<trkpt lat="39.5363426208496" lon="2.71075057983398">
			<ele>52</ele>
			<time>2013-12-29T09:29:38Z</time>
		</trkpt>
		<trkpt lat="39.5363998413086" lon="2.71068835258484">
			<ele>52.2999992370605</ele>
			<time>2013-12-29T09:29:40Z</time>
		</trkpt>
		<trkpt lat="39.5364570617676" lon="2.71061825752258">
			<ele>52.0999984741211</ele>
			<time>2013-12-29T09:29:42Z</time>
		</trkpt>
		<trkpt lat="39.536506652832" lon="2.71053862571716">
			<ele>52</ele>
			<time>2013-12-29T09:29:44Z</time>
		</trkpt>
		<trkpt lat="39.5365524291992" lon="2.71045565605164">
			<ele>51.9000015258789</ele>
			<time>2013-12-29T09:29:46Z</time>
		</trkpt>
		<trkpt lat="39.5365943908691" lon="2.710369348526">
			<ele>51.9000015258789</ele>
			<time>2013-12-29T09:29:48Z</time>
		</trkpt>
		<trkpt lat="39.5366363525391" lon="2.71027803421021">
			<ele>52.2000007629395</ele>
			<time>2013-12-29T09:29:50Z</time>
		</trkpt>
		<trkpt lat="39.5366706848145" lon="2.71018838882446">
			<ele>52</ele>
			<time>2013-12-29T09:29:52Z</time>
		</trkpt>
		<trkpt lat="39.536693572998" lon="2.71009278297424">
			<ele>51.9000015258789</ele>
			<time>2013-12-29T09:29:54Z</time>
		</trkpt>
		<trkpt lat="39.5367126464844" lon="2.70999646186829">
			<ele>51.7999992370605</ele>
			<time>2013-12-29T09:29:56Z</time>
		</trkpt>
		<trkpt lat="39.5367088317871" lon="2.70989608764648">
			<ele>51.7999992370605</ele>
			<time>2013-12-29T09:29:58Z</time>
		</trkpt>
		<trkpt lat="39.5366897583008" lon="2.70980286598206">
			<ele>51.5999984741211</ele>
			<time>2013-12-29T09:30:00Z</time>
		</trkpt>
		<trkpt lat="39.5366744995117" lon="2.70970773696899">
			<ele>51.5999984741211</ele>
			<time>2013-12-29T09:30:02Z</time>
		</trkpt>
		<trkpt lat="39.5366630554199" lon="2.70960712432861">
			<ele>51.7000007629395</ele>
			<time>2013-12-29T09:30:04Z</time>
		</trkpt>
		<trkpt lat="39.5366554260254" lon="2.70950722694397">
			<ele>51.9000015258789</ele>
			<time>2013-12-29T09:30:06Z</time>
		</trkpt>
		<trkpt lat="39.5366516113281" lon="2.70940756797791">
			<ele>51.7999992370605</ele>
			<time>2013-12-29T09:30:08Z</time>
		</trkpt>
		<trkpt lat="39.5366668701172" lon="2.70931649208069">
			<ele>52.2999992370605</ele>
			<time>2013-12-29T09:30:10Z</time>
		</trkpt>
		<trkpt lat="39.5366859436035" lon="2.70923447608948">
			<ele>52.5</ele>
			<time>2013-12-29T09:30:12Z</time>
		</trkpt>
		<trkpt lat="39.5367050170898" lon="2.70915007591248">
			<ele>53</ele>
			<time>2013-12-29T09:30:14Z</time>
		</trkpt>
		<trkpt lat="39.5367317199707" lon="2.7090699672699">
			<ele>53.5999984741211</ele>
			<time>2013-12-29T09:30:16Z</time>
		</trkpt>
		<trkpt lat="39.5367622375488" lon="2.708988904953">
			<ele>53.7999992370605</ele>
			<time>2013-12-29T09:30:18Z</time>
		</trkpt>
		<trkpt lat="39.5368003845215" lon="2.70892000198364">
			<ele>53.7000007629395</ele>
			<time>2013-12-29T09:30:20Z</time>
		</trkpt>
		<trkpt lat="39.5368385314941" lon="2.70885252952576">
			<ele>54</ele>
			<time>2013-12-29T09:30:22Z</time>
		</trkpt>
		<trkpt lat="39.5368843078613" lon="2.70878863334656">
			<ele>54.0999984741211</ele>
			<time>2013-12-29T09:30:24Z</time>
		</trkpt>
		<trkpt lat="39.5369300842285" lon="2.70872926712036">
			<ele>53.9000015258789</ele>
			<time>2013-12-29T09:30:26Z</time>
		</trkpt>
		<trkpt lat="39.536979675293" lon="2.70866918563843">
			<ele>53.7000007629395</ele>
			<time>2013-12-29T09:30:28Z</time>
		</trkpt>
		<trkpt lat="39.537036895752" lon="2.70860934257507">
			<ele>53.7999992370605</ele>
			<time>2013-12-29T09:30:30Z</time>
		</trkpt>
		<trkpt lat="39.5370979309082" lon="2.70855617523193">
			<ele>53.4000015258789</ele>
			<time>2013-12-29T09:30:32Z</time>
		</trkpt>
		<trkpt lat="39.5371589660645" lon="2.7085063457489">
			<ele>53.4000015258789</ele>
			<time>2013-12-29T09:30:34Z</time>
		</trkpt>
		<trkpt lat="39.537223815918" lon="2.70846843719482">
			<ele>53.4000015258789</ele>
			<time>2013-12-29T09:30:36Z</time>
		</trkpt>
		<trkpt lat="39.5372886657715" lon="2.70843625068665">
			<ele>53.4000015258789</ele>
			<time>2013-12-29T09:30:38Z</time>
		</trkpt>
		<trkpt lat="39.5373573303223" lon="2.70841002464294">
			<ele>53.2999992370605</ele>
			<time>2013-12-29T09:30:40Z</time>
		</trkpt>
		<trkpt lat="39.5374298095703" lon="2.7083854675293">
			<ele>53.2999992370605</ele>
			<time>2013-12-29T09:30:42Z</time>
		</trkpt>
		<trkpt lat="39.5375022888184" lon="2.70837116241455">
			<ele>53.2000007629395</ele>
			<time>2013-12-29T09:30:44Z</time>
		</trkpt>
		<trkpt lat="39.5375747680664" lon="2.70836329460144">
			<ele>53.2000007629395</ele>
			<time>2013-12-29T09:30:46Z</time>
		</trkpt>
		<trkpt lat="39.5376472473145" lon="2.70835709571838">
			<ele>53.5999984741211</ele>
			<time>2013-12-29T09:30:48Z</time>
		</trkpt>
		<trkpt lat="39.5377159118652" lon="2.70835113525391">
			<ele>53.4000015258789</ele>
			<time>2013-12-29T09:30:50Z</time>
		</trkpt>
		<trkpt lat="39.5377807617188" lon="2.70836114883423">
			<ele>53.2999992370605</ele>
			<time>2013-12-29T09:30:52Z</time>
		</trkpt>
		<trkpt lat="39.5378303527832" lon="2.70837926864624">
			<ele>52.9000015258789</ele>
			<time>2013-12-29T09:30:54Z</time>
		</trkpt>
		<trkpt lat="39.5377807617188" lon="2.7083432674408">
			<ele>52.4000015258789</ele>
			<time>2013-12-29T09:31:02Z</time>
		</trkpt>
		<trkpt lat="39.5377655029297" lon="2.70828747749329">
			<ele>51.9000015258789</ele>
			<time>2013-12-29T09:31:04Z</time>
		</trkpt>
		<trkpt lat="39.5378341674805" lon="2.70824098587036">
			<ele>51.5</ele>
			<time>2013-12-29T09:31:06Z</time>
		</trkpt>
		<trkpt lat="39.5379066467285" lon="2.70819187164307">
			<ele>51.0999984741211</ele>
			<time>2013-12-29T09:31:08Z</time>
		</trkpt>
		<trkpt lat="39.5379867553711" lon="2.70813965797424">
			<ele>50.7999992370605</ele>
			<time>2013-12-29T09:31:10Z</time>
		</trkpt>
		<trkpt lat="39.538028717041" lon="2.7081127166748">
			<ele>50.7000007629395</ele>
			<time>2013-12-29T09:31:11Z</time>
		</trkpt>
		<trkpt lat="39.5381088256836" lon="2.70805811882019">
			<ele>50.7000007629395</ele>
			<time>2013-12-29T09:31:13Z</time>
		</trkpt>
		<trkpt lat="39.5381851196289" lon="2.70800590515137">
			<ele>50.7999992370605</ele>
			<time>2013-12-29T09:31:15Z</time>
		</trkpt>
		<trkpt lat="39.538257598877" lon="2.70795941352844">
			<ele>51</ele>
			<time>2013-12-29T09:31:17Z</time>
		</trkpt>
		<trkpt lat="39.5383338928223" lon="2.7079176902771">
			<ele>51</ele>
			<time>2013-12-29T09:31:19Z</time>
		</trkpt>
		<trkpt lat="39.5384063720703" lon="2.70789694786072">
			<ele>51.2999992370605</ele>
			<time>2013-12-29T09:31:21Z</time>
		</trkpt>
		<trkpt lat="39.5384826660156" lon="2.70789480209351">
			<ele>51.5999984741211</ele>
			<time>2013-12-29T09:31:23Z</time>
		</trkpt>
		<trkpt lat="39.5385589599609" lon="2.70788764953613">
			<ele>52</ele>
			<time>2013-12-29T09:31:25Z</time>
		</trkpt>
		<trkpt lat="39.5386123657227" lon="2.70782923698425">
			<ele>52.4000015258789</ele>
			<time>2013-12-29T09:31:27Z</time>
		</trkpt>
		<trkpt lat="39.5386657714844" lon="2.70777320861816">
			<ele>52.4000015258789</ele>
			<time>2013-12-29T09:31:29Z</time>
		</trkpt>
		<trkpt lat="39.5387077331543" lon="2.70769190788269">
			<ele>52.5</ele>
			<time>2013-12-29T09:31:31Z</time>
		</trkpt>
		<trkpt lat="39.5387535095215" lon="2.70760655403137">
			<ele>52.5999984741211</ele>
			<time>2013-12-29T09:31:33Z</time>
		</trkpt>
		<trkpt lat="39.5387992858887" lon="2.70752167701721">
			<ele>52.9000015258789</ele>
			<time>2013-12-29T09:31:35Z</time>
		</trkpt>
		<trkpt lat="39.5388374328613" lon="2.707444190979">
			<ele>53.5</ele>
			<time>2013-12-29T09:31:37Z</time>
		</trkpt>
		<trkpt lat="39.5388679504395" lon="2.70736217498779">
			<ele>54.0999984741211</ele>
			<time>2013-12-29T09:31:39Z</time>
		</trkpt>
		<trkpt lat="39.5388870239258" lon="2.70727491378784">
			<ele>54.2000007629395</ele>
			<time>2013-12-29T09:31:41Z</time>
		</trkpt>
		<trkpt lat="39.5388984680176" lon="2.70719075202942">
			<ele>54.2000007629395</ele>
			<time>2013-12-29T09:31:43Z</time>
		</trkpt>
		<trkpt lat="39.5389099121094" lon="2.70709872245789">
			<ele>54.4000015258789</ele>
			<time>2013-12-29T09:31:45Z</time>
		</trkpt>
		<trkpt lat="39.5389137268066" lon="2.70700240135193">
			<ele>54.4000015258789</ele>
			<time>2013-12-29T09:31:47Z</time>
		</trkpt>
		<trkpt lat="39.538932800293" lon="2.7069079875946">
			<ele>54.5999984741211</ele>
			<time>2013-12-29T09:31:49Z</time>
		</trkpt>
		<trkpt lat="39.5389633178711" lon="2.70682334899902">
			<ele>54.7999992370605</ele>
			<time>2013-12-29T09:31:51Z</time>
		</trkpt>
		<trkpt lat="39.5389938354492" lon="2.70674109458923">
			<ele>55</ele>
			<time>2013-12-29T09:31:53Z</time>
		</trkpt>
		<trkpt lat="39.5390281677246" lon="2.70666408538818">
			<ele>54.7999992370605</ele>
			<time>2013-12-29T09:31:55Z</time>
		</trkpt>
		<trkpt lat="39.5390892028809" lon="2.7066023349762">
			<ele>54.5999984741211</ele>
			<time>2013-12-29T09:31:57Z</time>
		</trkpt>
		<trkpt lat="39.5391502380371" lon="2.70654487609863">
			<ele>54.5</ele>
			<time>2013-12-29T09:31:59Z</time>
		</trkpt>
		<trkpt lat="39.5392074584961" lon="2.7064836025238">
			<ele>54.4000015258789</ele>
			<time>2013-12-29T09:32:01Z</time>
		</trkpt>
		<trkpt lat="39.5392723083496" lon="2.70643830299377">
			<ele>54.5</ele>
			<time>2013-12-29T09:32:03Z</time>
		</trkpt>
		<trkpt lat="39.5393333435059" lon="2.70639848709106">
			<ele>54.7000007629395</ele>
			<time>2013-12-29T09:32:05Z</time>
		</trkpt>
		<trkpt lat="39.5393829345703" lon="2.70634365081787">
			<ele>54.7000007629395</ele>
			<time>2013-12-29T09:32:07Z</time>
		</trkpt>
		<trkpt lat="39.539421081543" lon="2.7062783241272">
			<ele>54.5999984741211</ele>
			<time>2013-12-29T09:32:09Z</time>
		</trkpt>
		<trkpt lat="39.5394821166992" lon="2.70620465278625">
			<ele>53.7999992370605</ele>
			<time>2013-12-29T09:32:11Z</time>
		</trkpt>
		<trkpt lat="39.5395278930664" lon="2.70617651939392">
			<ele>53</ele>
			<time>2013-12-29T09:32:12Z</time>
		</trkpt>
		<trkpt lat="39.5395851135254" lon="2.7061619758606">
			<ele>52.5</ele>
			<time>2013-12-29T09:32:13Z</time>
		</trkpt>
		<trkpt lat="39.5396423339844" lon="2.70614886283875">
			<ele>52</ele>
			<time>2013-12-29T09:32:14Z</time>
		</trkpt>
		<trkpt lat="39.5397071838379" lon="2.70614075660706">
			<ele>51.2999992370605</ele>
			<time>2013-12-29T09:32:15Z</time>
		</trkpt>
		<trkpt lat="39.5397720336914" lon="2.70613026618958">
			<ele>50.9000015258789</ele>
			<time>2013-12-29T09:32:16Z</time>
		</trkpt>
		<trkpt lat="39.5398406982422" lon="2.70611953735352">
			<ele>50.5999984741211</ele>
			<time>2013-12-29T09:32:17Z</time>
		</trkpt>
		<trkpt lat="39.539909362793" lon="2.70610523223877">
			<ele>50.4000015258789</ele>
			<time>2013-12-29T09:32:18Z</time>
		</trkpt>
		<trkpt lat="39.5399742126465" lon="2.7060854434967">
			<ele>50.2999992370605</ele>
			<time>2013-12-29T09:32:19Z</time>
		</trkpt>
		<trkpt lat="39.5400352478027" lon="2.70606136322021">
			<ele>50.2999992370605</ele>
			<time>2013-12-29T09:32:20Z</time>
		</trkpt>
		<trkpt lat="39.5400924682617" lon="2.70602655410767">
			<ele>50.2999992370605</ele>
			<time>2013-12-29T09:32:21Z</time>
		</trkpt>
		<trkpt lat="39.5401496887207" lon="2.70599150657654">
			<ele>50</ele>
			<time>2013-12-29T09:32:22Z</time>
		</trkpt>
		<trkpt lat="39.5401992797852" lon="2.70595550537109">
			<ele>49.9000015258789</ele>
			<time>2013-12-29T09:32:23Z</time>
		</trkpt>
		<trkpt lat="39.5402450561523" lon="2.70591449737549">
			<ele>50</ele>
			<time>2013-12-29T09:32:24Z</time>
		</trkpt>
		<trkpt lat="39.5402870178223" lon="2.70587253570557">
			<ele>49.7999992370605</ele>
			<time>2013-12-29T09:32:25Z</time>
		</trkpt>
		<trkpt lat="39.5403213500977" lon="2.70582795143127">
			<ele>49.7999992370605</ele>
			<time>2013-12-29T09:32:26Z</time>
		</trkpt>
		<trkpt lat="39.5403518676758" lon="2.70578598976135">
			<ele>50</ele>
			<time>2013-12-29T09:32:27Z</time>
		</trkpt>
		<trkpt lat="39.5404090881348" lon="2.70570158958435">
			<ele>50.0999984741211</ele>
			<time>2013-12-29T09:32:29Z</time>
		</trkpt>
		<trkpt lat="39.540470123291" lon="2.70561718940735">
			<ele>50.4000015258789</ele>
			<time>2013-12-29T09:32:31Z</time>
		</trkpt>
		<trkpt lat="39.5405235290527" lon="2.7055332660675">
			<ele>50.5</ele>
			<time>2013-12-29T09:32:33Z</time>
		</trkpt>
		<trkpt lat="39.540584564209" lon="2.70545148849487">
			<ele>50.5999984741211</ele>
			<time>2013-12-29T09:32:35Z</time>
		</trkpt>
		<trkpt lat="39.5406455993652" lon="2.70537495613098">
			<ele>50.4000015258789</ele>
			<time>2013-12-29T09:32:37Z</time>
		</trkpt>
		<trkpt lat="39.5407066345215" lon="2.70530343055725">
			<ele>50.5</ele>
			<time>2013-12-29T09:32:39Z</time>
		</trkpt>
		<trkpt lat="39.540771484375" lon="2.70523166656494">
			<ele>50.5</ele>
			<time>2013-12-29T09:32:41Z</time>
		</trkpt>
		<trkpt lat="39.5408363342285" lon="2.70516562461853">
			<ele>50.7000007629395</ele>
			<time>2013-12-29T09:32:43Z</time>
		</trkpt>
		<trkpt lat="39.5409049987793" lon="2.70510721206665">
			<ele>50.5</ele>
			<time>2013-12-29T09:32:45Z</time>
		</trkpt>
		<trkpt lat="39.5409736633301" lon="2.70505023002625">
			<ele>50.5</ele>
			<time>2013-12-29T09:32:47Z</time>
		</trkpt>
		<trkpt lat="39.5410385131836" lon="2.70499610900879">
			<ele>50.5</ele>
			<time>2013-12-29T09:32:49Z</time>
		</trkpt>
		<trkpt lat="39.5411033630371" lon="2.70494318008423">
			<ele>50.5</ele>
			<time>2013-12-29T09:32:51Z</time>
		</trkpt>
		<trkpt lat="39.5411682128906" lon="2.70488929748535">
			<ele>50.4000015258789</ele>
			<time>2013-12-29T09:32:53Z</time>
		</trkpt>
		<trkpt lat="39.5412216186523" lon="2.70481562614441">
			<ele>50.5</ele>
			<time>2013-12-29T09:32:55Z</time>
		</trkpt>
		<trkpt lat="39.5412559509277" lon="2.70472717285156">
			<ele>50.7999992370605</ele>
			<time>2013-12-29T09:32:57Z</time>
		</trkpt>
		<trkpt lat="39.5412864685059" lon="2.70463609695435">
			<ele>50.7000007629395</ele>
			<time>2013-12-29T09:32:59Z</time>
		</trkpt>
		<trkpt lat="39.5413208007813" lon="2.70454406738281">
			<ele>50.9000015258789</ele>
			<time>2013-12-29T09:33:01Z</time>
		</trkpt>
		<trkpt lat="39.5413551330566" lon="2.70445370674133">
			<ele>51</ele>
			<time>2013-12-29T09:33:03Z</time>
		</trkpt>
		<trkpt lat="39.541389465332" lon="2.70436263084412">
			<ele>51.2000007629395</ele>
			<time>2013-12-29T09:33:05Z</time>
		</trkpt>
		<trkpt lat="39.5414199829102" lon="2.70427298545837">
			<ele>51.2000007629395</ele>
			<time>2013-12-29T09:33:07Z</time>
		</trkpt>
		<trkpt lat="39.5414352416992" lon="2.70417857170105">
			<ele>51.2999992370605</ele>
			<time>2013-12-29T09:33:09Z</time>
		</trkpt>
		<trkpt lat="39.5414505004883" lon="2.70408511161804">
			<ele>51.5</ele>
			<time>2013-12-29T09:33:11Z</time>
		</trkpt>
		<trkpt lat="39.5414810180664" lon="2.70399928092957">
			<ele>51.5999984741211</ele>
			<time>2013-12-29T09:33:13Z</time>
		</trkpt>
		<trkpt lat="39.5415229797363" lon="2.70391941070557">
			<ele>51.5</ele>
			<time>2013-12-29T09:33:15Z</time>
		</trkpt>
		<trkpt lat="39.5415725708008" lon="2.70384979248047">
			<ele>51.7000007629395</ele>
			<time>2013-12-29T09:33:17Z</time>
		</trkpt>
		<trkpt lat="39.541633605957" lon="2.70379519462585">
			<ele>51.7000007629395</ele>
			<time>2013-12-29T09:33:19Z</time>
		</trkpt>
		<trkpt lat="39.5417022705078" lon="2.70376491546631">
			<ele>51.7999992370605</ele>
			<time>2013-12-29T09:33:21Z</time>
		</trkpt>
		<trkpt lat="39.5417633056641" lon="2.70371651649475">
			<ele>51.7999992370605</ele>
			<time>2013-12-29T09:33:23Z</time>
		</trkpt>
		<trkpt lat="39.5418090820313" lon="2.70364022254944">
			<ele>51.9000015258789</ele>
			<time>2013-12-29T09:33:25Z</time>
		</trkpt>
		<trkpt lat="39.5418434143066" lon="2.70355367660522">
			<ele>51.9000015258789</ele>
			<time>2013-12-29T09:33:27Z</time>
		</trkpt>
		<trkpt lat="39.541862487793" lon="2.70345687866211">
			<ele>51.7999992370605</ele>
			<time>2013-12-29T09:33:29Z</time>
		</trkpt>
		<trkpt lat="39.541877746582" lon="2.70335626602173">
			<ele>51.7999992370605</ele>
			<time>2013-12-29T09:33:31Z</time>
		</trkpt>
		<trkpt lat="39.5418891906738" lon="2.70325589179993">
			<ele>51.5999984741211</ele>
			<time>2013-12-29T09:33:33Z</time>
		</trkpt>
		<trkpt lat="39.5419044494629" lon="2.70315217971802">
			<ele>51.5</ele>
			<time>2013-12-29T09:33:35Z</time>
		</trkpt>
		<trkpt lat="39.5419158935547" lon="2.70304775238037">
			<ele>51.4000015258789</ele>
			<time>2013-12-29T09:33:37Z</time>
		</trkpt>
		<trkpt lat="39.5419425964355" lon="2.70294618606567">
			<ele>51.2000007629395</ele>
			<time>2013-12-29T09:33:39Z</time>
		</trkpt>
		<trkpt lat="39.5419921875" lon="2.70286250114441">
			<ele>51.0999984741211</ele>
			<time>2013-12-29T09:33:41Z</time>
		</trkpt>
		<trkpt lat="39.5420417785645" lon="2.70278120040894">
			<ele>51</ele>
			<time>2013-12-29T09:33:43Z</time>
		</trkpt>
		<trkpt lat="39.5420875549316" lon="2.70269799232483">
			<ele>50.9000015258789</ele>
			<time>2013-12-29T09:33:45Z</time>
		</trkpt>
		<trkpt lat="39.5421409606934" lon="2.70261883735657">
			<ele>50.9000015258789</ele>
			<time>2013-12-29T09:33:47Z</time>
		</trkpt>
		<trkpt lat="39.5421943664551" lon="2.70254898071289">
			<ele>51</ele>
			<time>2013-12-29T09:33:49Z</time>
		</trkpt>
		<trkpt lat="39.5422477722168" lon="2.70247578620911">
			<ele>51</ele>
			<time>2013-12-29T09:33:51Z</time>
		</trkpt>
		<trkpt lat="39.5422973632813" lon="2.70240569114685">
			<ele>51</ele>
			<time>2013-12-29T09:33:53Z</time>
		</trkpt>
		<trkpt lat="39.5423469543457" lon="2.70233631134033">
			<ele>51.0999984741211</ele>
			<time>2013-12-29T09:33:55Z</time>
		</trkpt>
		<trkpt lat="39.5423965454102" lon="2.70226550102234">
			<ele>51.0999984741211</ele>
			<time>2013-12-29T09:33:57Z</time>
		</trkpt>
		<trkpt lat="39.5424423217773" lon="2.70219540596008">
			<ele>50.9000015258789</ele>
			<time>2013-12-29T09:33:59Z</time>
		</trkpt>
		<trkpt lat="39.5424690246582" lon="2.70211005210876">
			<ele>51</ele>
			<time>2013-12-29T09:34:01Z</time>
		</trkpt>
		<trkpt lat="39.54248046875" lon="2.70202255249023">
			<ele>50.9000015258789</ele>
			<time>2013-12-29T09:34:03Z</time>
		</trkpt>
		<trkpt lat="39.5424957275391" lon="2.70193219184875">
			<ele>50.7000007629395</ele>
			<time>2013-12-29T09:34:05Z</time>
		</trkpt>
		<trkpt lat="39.5424995422363" lon="2.70183420181274">
			<ele>50.7000007629395</ele>
			<time>2013-12-29T09:34:07Z</time>
		</trkpt>
		<trkpt lat="39.5425109863281" lon="2.70173454284668">
			<ele>50.5999984741211</ele>
			<time>2013-12-29T09:34:09Z</time>
		</trkpt>
		<trkpt lat="39.5425415039063" lon="2.70164251327515">
			<ele>50.7000007629395</ele>
			<time>2013-12-29T09:34:11Z</time>
		</trkpt>
		<trkpt lat="39.5425910949707" lon="2.70157051086426">
			<ele>50.5999984741211</ele>
			<time>2013-12-29T09:34:13Z</time>
		</trkpt>
		<trkpt lat="39.5426368713379" lon="2.70150399208069">
			<ele>50.7000007629395</ele>
			<time>2013-12-29T09:34:15Z</time>
		</trkpt>
		<trkpt lat="39.5426826477051" lon="2.70143175125122">
			<ele>50.7999992370605</ele>
			<time>2013-12-29T09:34:17Z</time>
		</trkpt>
		<trkpt lat="39.5427207946777" lon="2.70135092735291">
			<ele>50.7999992370605</ele>
			<time>2013-12-29T09:34:19Z</time>
		</trkpt>
		<trkpt lat="39.5427551269531" lon="2.70126914978027">
			<ele>51</ele>
			<time>2013-12-29T09:34:21Z</time>
		</trkpt>
		<trkpt lat="39.542797088623" lon="2.70119857788086">
			<ele>51.2000007629395</ele>
			<time>2013-12-29T09:34:23Z</time>
		</trkpt>
		<trkpt lat="39.5428466796875" lon="2.70113801956177">
			<ele>51.5</ele>
			<time>2013-12-29T09:34:25Z</time>
		</trkpt>
		<trkpt lat="39.542896270752" lon="2.7010805606842">
			<ele>51.7000007629395</ele>
			<time>2013-12-29T09:34:27Z</time>
		</trkpt>
		<trkpt lat="39.5429611206055" lon="2.70104193687439">
			<ele>51.5999984741211</ele>
			<time>2013-12-29T09:34:29Z</time>
		</trkpt>
		<trkpt lat="39.543025970459" lon="2.70100092887878">
			<ele>51.4000015258789</ele>
			<time>2013-12-29T09:34:31Z</time>
		</trkpt>
		<trkpt lat="39.543098449707" lon="2.70096015930176">
			<ele>51.4000015258789</ele>
			<time>2013-12-29T09:34:33Z</time>
		</trkpt>
		<trkpt lat="39.5431709289551" lon="2.70093035697937">
			<ele>51.2999992370605</ele>
			<time>2013-12-29T09:34:35Z</time>
		</trkpt>
		<trkpt lat="39.5432472229004" lon="2.7009391784668">
			<ele>51.2999992370605</ele>
			<time>2013-12-29T09:34:37Z</time>
		</trkpt>
		<trkpt lat="39.5433158874512" lon="2.7009596824646">
			<ele>51.4000015258789</ele>
			<time>2013-12-29T09:34:39Z</time>
		</trkpt>
		<trkpt lat="39.543384552002" lon="2.70097160339355">
			<ele>51.5</ele>
			<time>2013-12-29T09:34:41Z</time>
		</trkpt>
		<trkpt lat="39.5434532165527" lon="2.70095348358154">
			<ele>51.7999992370605</ele>
			<time>2013-12-29T09:34:43Z</time>
		</trkpt>
		<trkpt lat="39.5435218811035" lon="2.70092535018921">
			<ele>51.7000007629395</ele>
			<time>2013-12-29T09:34:45Z</time>
		</trkpt>
		<trkpt lat="39.5435905456543" lon="2.7008945941925">
			<ele>51.7999992370605</ele>
			<time>2013-12-29T09:34:47Z</time>
		</trkpt>
		<trkpt lat="39.5436592102051" lon="2.70086145401001">
			<ele>51.7000007629395</ele>
			<time>2013-12-29T09:34:49Z</time>
		</trkpt>
		<trkpt lat="39.5437278747559" lon="2.70082020759583">
			<ele>51.7999992370605</ele>
			<time>2013-12-29T09:34:51Z</time>
		</trkpt>
		<trkpt lat="39.5437850952148" lon="2.70075583457947">
			<ele>51.7000007629395</ele>
			<time>2013-12-29T09:34:53Z</time>
		</trkpt>
		<trkpt lat="39.5438346862793" lon="2.70069003105164">
			<ele>51.7000007629395</ele>
			<time>2013-12-29T09:34:55Z</time>
		</trkpt>
		<trkpt lat="39.543872833252" lon="2.70061111450195">
			<ele>51.7999992370605</ele>
			<time>2013-12-29T09:34:57Z</time>
		</trkpt>
		<trkpt lat="39.5438995361328" lon="2.70052576065063">
			<ele>51.7999992370605</ele>
			<time>2013-12-29T09:34:59Z</time>
		</trkpt>
		<trkpt lat="39.5439224243164" lon="2.70043325424194">
			<ele>51.7999992370605</ele>
			<time>2013-12-29T09:35:01Z</time>
		</trkpt>
		<trkpt lat="39.5439491271973" lon="2.70033979415894">
			<ele>51.7999992370605</ele>
			<time>2013-12-29T09:35:03Z</time>
		</trkpt>
		<trkpt lat="39.5439720153809" lon="2.70024752616882">
			<ele>51.7000007629395</ele>
			<time>2013-12-29T09:35:05Z</time>
		</trkpt>
		<trkpt lat="39.5439949035645" lon="2.70015525817871">
			<ele>51.5</ele>
			<time>2013-12-29T09:35:07Z</time>
		</trkpt>
		<trkpt lat="39.5440216064453" lon="2.7000617980957">
			<ele>51.5999984741211</ele>
			<time>2013-12-29T09:35:09Z</time>
		</trkpt>
		<trkpt lat="39.5440406799316" lon="2.69996643066406">
			<ele>51.4000015258789</ele>
			<time>2013-12-29T09:35:11Z</time>
		</trkpt>
		<trkpt lat="39.5440444946289" lon="2.69986605644226">
			<ele>51.5999984741211</ele>
			<time>2013-12-29T09:35:13Z</time>
		</trkpt>
		<trkpt lat="39.5440330505371" lon="2.69976878166199">
			<ele>51.7000007629395</ele>
			<time>2013-12-29T09:35:15Z</time>
		</trkpt>
		<trkpt lat="39.5440216064453" lon="2.6996738910675">
			<ele>51.9000015258789</ele>
			<time>2013-12-29T09:35:17Z</time>
		</trkpt>
		<trkpt lat="39.5439910888672" lon="2.69958996772766">
			<ele>52.0999984741211</ele>
			<time>2013-12-29T09:35:20Z</time>
		</trkpt>
		<trkpt lat="39.5439529418945" lon="2.69950938224792">
			<ele>52</ele>
			<time>2013-12-29T09:35:21Z</time>
		</trkpt>
		<trkpt lat="39.5439109802246" lon="2.6994264125824">
			<ele>52.2000007629395</ele>
			<time>2013-12-29T09:35:23Z</time>
		</trkpt>
		<trkpt lat="39.5438804626465" lon="2.69933724403381">
			<ele>52.4000015258789</ele>
			<time>2013-12-29T09:35:25Z</time>
		</trkpt>
		<trkpt lat="39.5438537597656" lon="2.69925022125244">
			<ele>52.5</ele>
			<time>2013-12-29T09:35:27Z</time>
		</trkpt>
		<trkpt lat="39.543830871582" lon="2.69916725158691">
			<ele>52.4000015258789</ele>
			<time>2013-12-29T09:35:29Z</time>
		</trkpt>
		<trkpt lat="39.5438079833984" lon="2.69908475875854">
			<ele>52.5</ele>
			<time>2013-12-29T09:35:31Z</time>
		</trkpt>
		<trkpt lat="39.5437812805176" lon="2.69900393486023">
			<ele>52.5</ele>
			<time>2013-12-29T09:35:33Z</time>
		</trkpt>
		<trkpt lat="39.5438117980957" lon="2.6989221572876">
			<ele>52.4000015258789</ele>
			<time>2013-12-29T09:35:35Z</time>
		</trkpt>
		<trkpt lat="39.5438613891602" lon="2.69885587692261">
			<ele>52.0999984741211</ele>
			<time>2013-12-29T09:35:37Z</time>
		</trkpt>
		<trkpt lat="39.5439109802246" lon="2.69878578186035">
			<ele>52</ele>
			<time>2013-12-29T09:35:39Z</time>
		</trkpt>
		<trkpt lat="39.5439643859863" lon="2.69871664047241">
			<ele>51.9000015258789</ele>
			<time>2013-12-29T09:35:41Z</time>
		</trkpt>
		<trkpt lat="39.5440139770508" lon="2.69864273071289">
			<ele>51.7999992370605</ele>
			<time>2013-12-29T09:35:43Z</time>
		</trkpt>
		<trkpt lat="39.5440444946289" lon="2.69855093955994">
			<ele>51.7000007629395</ele>
			<time>2013-12-29T09:35:45Z</time>
		</trkpt>
		<trkpt lat="39.5440483093262" lon="2.69844722747803">
			<ele>51.7999992370605</ele>
			<time>2013-12-29T09:35:47Z</time>
		</trkpt>
		<trkpt lat="39.5440406799316" lon="2.69834589958191">
			<ele>51.5999984741211</ele>
			<time>2013-12-29T09:35:49Z</time>
		</trkpt>
		<trkpt lat="39.5440292358398" lon="2.69825029373169">
			<ele>51.5999984741211</ele>
			<time>2013-12-29T09:35:51Z</time>
		</trkpt>
		<trkpt lat="39.5440254211426" lon="2.69815802574158">
			<ele>51.5999984741211</ele>
			<time>2013-12-29T09:35:53Z</time>
		</trkpt>
		<trkpt lat="39.544017791748" lon="2.69806003570557">
			<ele>51.5</ele>
			<time>2013-12-29T09:35:55Z</time>
		</trkpt>
		<trkpt lat="39.5440063476563" lon="2.69795751571655">
			<ele>51.5</ele>
			<time>2013-12-29T09:35:57Z</time>
		</trkpt>
		<trkpt lat="39.544002532959" lon="2.69785499572754">
			<ele>51.2999992370605</ele>
			<time>2013-12-29T09:35:59Z</time>
		</trkpt>
		<trkpt lat="39.5440216064453" lon="2.69775462150574">
			<ele>51.0999984741211</ele>
			<time>2013-12-29T09:36:01Z</time>
		</trkpt>
		<trkpt lat="39.5440788269043" lon="2.69767642021179">
			<ele>51</ele>
			<time>2013-12-29T09:36:03Z</time>
		</trkpt>
		<trkpt lat="39.5441436767578" lon="2.69761872291565">
			<ele>51.2999992370605</ele>
			<time>2013-12-29T09:36:05Z</time>
		</trkpt>
		<trkpt lat="39.5442047119141" lon="2.69756245613098">
			<ele>51.2000007629395</ele>
			<time>2013-12-29T09:36:07Z</time>
		</trkpt>
		<trkpt lat="39.544246673584" lon="2.69750094413757">
			<ele>51</ele>
			<time>2013-12-29T09:36:09Z</time>
		</trkpt>
		<trkpt lat="39.5442733764648" lon="2.69743704795837">
			<ele>50.9000015258789</ele>
			<time>2013-12-29T09:36:11Z</time>
		</trkpt>
		<trkpt lat="39.5443153381348" lon="2.69740343093872">
			<ele>50.9000015258789</ele>
			<time>2013-12-29T09:36:13Z</time>
		</trkpt>
		<trkpt lat="39.5443725585938" lon="2.69741368293762">
			<ele>51.2999992370605</ele>
			<time>2013-12-29T09:37:08Z</time>
		</trkpt>
		<trkpt lat="39.5444221496582" lon="2.69745206832886">
			<ele>51.5</ele>
			<time>2013-12-29T09:37:10Z</time>
		</trkpt>
		<trkpt lat="39.5444793701172" lon="2.69750428199768">
			<ele>51.7000007629395</ele>
			<time>2013-12-29T09:37:12Z</time>
		</trkpt>
		<trkpt lat="39.5445289611816" lon="2.6975531578064">
			<ele>51.9000015258789</ele>
			<time>2013-12-29T09:37:14Z</time>
		</trkpt>
		<trkpt lat="39.5445785522461" lon="2.69760417938232">
			<ele>52.2000007629395</ele>
			<time>2013-12-29T09:37:16Z</time>
		</trkpt>
		<trkpt lat="39.5446243286133" lon="2.69765830039978">
			<ele>52.5</ele>
			<time>2013-12-29T09:37:18Z</time>
		</trkpt>
		<trkpt lat="39.5446701049805" lon="2.69771647453308">
			<ele>53.4000015258789</ele>
			<time>2013-12-29T09:37:20Z</time>
		</trkpt>
		<trkpt lat="39.5447158813477" lon="2.69777727127075">
			<ele>53.9000015258789</ele>
			<time>2013-12-29T09:37:22Z</time>
		</trkpt>
		<trkpt lat="39.5447616577148" lon="2.6978440284729">
			<ele>53.7999992370605</ele>
			<time>2013-12-29T09:37:24Z</time>
		</trkpt>
		<trkpt lat="39.5448150634766" lon="2.697909116745">
			<ele>53.7999992370605</ele>
			<time>2013-12-29T09:37:26Z</time>
		</trkpt>
		<trkpt lat="39.5448684692383" lon="2.69796776771545">
			<ele>53.7999992370605</ele>
			<time>2013-12-29T09:37:28Z</time>
		</trkpt>
		<trkpt lat="39.5449295043945" lon="2.69802069664001">
			<ele>54</ele>
			<time>2013-12-29T09:37:30Z</time>
		</trkpt>
		<trkpt lat="39.544994354248" lon="2.69806456565857">
			<ele>54</ele>
			<time>2013-12-29T09:37:32Z</time>
		</trkpt>
		<trkpt lat="39.5450668334961" lon="2.69809031486511">
			<ele>54.0999984741211</ele>
			<time>2013-12-29T09:37:34Z</time>
		</trkpt>
		<trkpt lat="39.5451393127441" lon="2.69811749458313">
			<ele>53.7999992370605</ele>
			<time>2013-12-29T09:37:36Z</time>
		</trkpt>
		<trkpt lat="39.5452194213867" lon="2.69816255569458">
			<ele>53.4000015258789</ele>
			<time>2013-12-29T09:37:38Z</time>
		</trkpt>
		<trkpt lat="39.5452613830566" lon="2.69818234443665">
			<ele>53.2000007629395</ele>
			<time>2013-12-29T09:37:39Z</time>
		</trkpt>
		<trkpt lat="39.5453033447266" lon="2.69820475578308">
			<ele>53.0999984741211</ele>
			<time>2013-12-29T09:37:40Z</time>
		</trkpt>
		<trkpt lat="39.5453491210938" lon="2.69822573661804">
			<ele>52.7999992370605</ele>
			<time>2013-12-29T09:37:41Z</time>
		</trkpt>
		<trkpt lat="39.5453910827637" lon="2.69824576377869">
			<ele>52.9000015258789</ele>
			<time>2013-12-29T09:37:42Z</time>
		</trkpt>
		<trkpt lat="39.5454368591309" lon="2.69827127456665">
			<ele>52.7999992370605</ele>
			<time>2013-12-29T09:37:43Z</time>
		</trkpt>
		<trkpt lat="39.545482635498" lon="2.69829654693604">
			<ele>52.5</ele>
			<time>2013-12-29T09:37:44Z</time>
		</trkpt>
		<trkpt lat="39.5455284118652" lon="2.6983118057251">
			<ele>52.4000015258789</ele>
			<time>2013-12-29T09:37:45Z</time>
		</trkpt>
		<trkpt lat="39.5455780029297" lon="2.69832277297974">
			<ele>52.2999992370605</ele>
			<time>2013-12-29T09:37:46Z</time>
		</trkpt>
		<trkpt lat="39.5456199645996" lon="2.69831204414368">
			<ele>52.2000007629395</ele>
			<time>2013-12-29T09:37:47Z</time>
		</trkpt>
		<trkpt lat="39.5457038879395" lon="2.69828772544861">
			<ele>52</ele>
			<time>2013-12-29T09:37:49Z</time>
		</trkpt>
		<trkpt lat="39.545783996582" lon="2.69826126098633">
			<ele>51.5</ele>
			<time>2013-12-29T09:37:51Z</time>
		</trkpt>
		<trkpt lat="39.5458641052246" lon="2.69823789596558">
			<ele>51.4000015258789</ele>
			<time>2013-12-29T09:37:53Z</time>
		</trkpt>
		<trkpt lat="39.5459442138672" lon="2.69821572303772">
			<ele>51.2999992370605</ele>
			<time>2013-12-29T09:37:55Z</time>
		</trkpt>
		<trkpt lat="39.5460205078125" lon="2.69818878173828">
			<ele>51.2000007629395</ele>
			<time>2013-12-29T09:37:57Z</time>
		</trkpt>
		<trkpt lat="39.5460968017578" lon="2.69816637039185">
			<ele>51.4000015258789</ele>
			<time>2013-12-29T09:37:59Z</time>
		</trkpt>
		<trkpt lat="39.5461769104004" lon="2.69814682006836">
			<ele>51.4000015258789</ele>
			<time>2013-12-29T09:38:01Z</time>
		</trkpt>
		<trkpt lat="39.5462532043457" lon="2.69812273979187">
			<ele>51.2999992370605</ele>
			<time>2013-12-29T09:38:03Z</time>
		</trkpt>
		<trkpt lat="39.5463256835938" lon="2.69808888435364">
			<ele>51.2999992370605</ele>
			<time>2013-12-29T09:38:05Z</time>
		</trkpt>
		<trkpt lat="39.5463981628418" lon="2.69805097579956">
			<ele>51.2000007629395</ele>
			<time>2013-12-29T09:38:07Z</time>
		</trkpt>
		<trkpt lat="39.5464668273926" lon="2.69801235198975">
			<ele>51.2000007629395</ele>
			<time>2013-12-29T09:38:09Z</time>
		</trkpt>
		<trkpt lat="39.5465393066406" lon="2.69797611236572">
			<ele>51.2000007629395</ele>
			<time>2013-12-29T09:38:11Z</time>
		</trkpt>
		<trkpt lat="39.5466117858887" lon="2.69794178009033">
			<ele>51.2000007629395</ele>
			<time>2013-12-29T09:38:13Z</time>
		</trkpt>
		<trkpt lat="39.5466804504395" lon="2.69789671897888">
			<ele>51.5</ele>
			<time>2013-12-29T09:38:15Z</time>
		</trkpt>
		<trkpt lat="39.5467491149902" lon="2.69785189628601">
			<ele>51.5</ele>
			<time>2013-12-29T09:38:17Z</time>
		</trkpt>
		<trkpt lat="39.546817779541" lon="2.69779801368713">
			<ele>51.2999992370605</ele>
			<time>2013-12-29T09:38:19Z</time>
		</trkpt>
		<trkpt lat="39.5468826293945" lon="2.69773316383362">
			<ele>51.2999992370605</ele>
			<time>2013-12-29T09:38:21Z</time>
		</trkpt>
		<trkpt lat="39.546947479248" lon="2.69766974449158">
			<ele>51.0999984741211</ele>
			<time>2013-12-29T09:38:23Z</time>
		</trkpt>
		<trkpt lat="39.5470123291016" lon="2.6976010799408">
			<ele>51</ele>
			<time>2013-12-29T09:38:25Z</time>
		</trkpt>
		<trkpt lat="39.5470771789551" lon="2.69753122329712">
			<ele>50.9000015258789</ele>
			<time>2013-12-29T09:38:27Z</time>
		</trkpt>
		<trkpt lat="39.5471420288086" lon="2.69746208190918">
			<ele>50.7000007629395</ele>
			<time>2013-12-29T09:38:29Z</time>
		</trkpt>
		<trkpt lat="39.5471992492676" lon="2.6973888874054">
			<ele>50.2999992370605</ele>
			<time>2013-12-29T09:38:31Z</time>
		</trkpt>
		<trkpt lat="39.5472602844238" lon="2.69731378555298">
			<ele>50.2000007629395</ele>
			<time>2013-12-29T09:38:33Z</time>
		</trkpt>
		<trkpt lat="39.5473136901855" lon="2.69723391532898">
			<ele>50.2000007629395</ele>
			<time>2013-12-29T09:38:35Z</time>
		</trkpt>
		<trkpt lat="39.5473670959473" lon="2.69715309143066">
			<ele>50.2000007629395</ele>
			<time>2013-12-29T09:38:37Z</time>
		</trkpt>
		<trkpt lat="39.547420501709" lon="2.69707703590393">
			<ele>50.0999984741211</ele>
			<time>2013-12-29T09:38:39Z</time>
		</trkpt>
		<trkpt lat="39.5474739074707" lon="2.69700288772583">
			<ele>50.0999984741211</ele>
			<time>2013-12-29T09:38:41Z</time>
		</trkpt>
		<trkpt lat="39.5475273132324" lon="2.6969256401062">
			<ele>50</ele>
			<time>2013-12-29T09:38:43Z</time>
		</trkpt>
		<trkpt lat="39.5475807189941" lon="2.69685077667236">
			<ele>50.2000007629395</ele>
			<time>2013-12-29T09:38:45Z</time>
		</trkpt>
		<trkpt lat="39.5476303100586" lon="2.69677877426147">
			<ele>50.2999992370605</ele>
			<time>2013-12-29T09:38:47Z</time>
		</trkpt>
		<trkpt lat="39.5476837158203" lon="2.69670796394348">
			<ele>50.2000007629395</ele>
			<time>2013-12-29T09:38:49Z</time>
		</trkpt>
		<trkpt lat="39.5477333068848" lon="2.6966392993927">
			<ele>50.4000015258789</ele>
			<time>2013-12-29T09:38:51Z</time>
		</trkpt>
		<trkpt lat="39.5477828979492" lon="2.69656991958618">
			<ele>50.5</ele>
			<time>2013-12-29T09:38:53Z</time>
		</trkpt>
		<trkpt lat="39.5478324890137" lon="2.69650459289551">
			<ele>50.5</ele>
			<time>2013-12-29T09:38:55Z</time>
		</trkpt>
		<trkpt lat="39.5478820800781" lon="2.69643616676331">
			<ele>50.7000007629395</ele>
			<time>2013-12-29T09:38:57Z</time>
		</trkpt>
		<trkpt lat="39.547924041748" lon="2.69636106491089">
			<ele>50.7999992370605</ele>
			<time>2013-12-29T09:38:59Z</time>
		</trkpt>
		<trkpt lat="39.5479621887207" lon="2.69628238677979">
			<ele>50.9000015258789</ele>
			<time>2013-12-29T09:39:01Z</time>
		</trkpt>
		<trkpt lat="39.5480079650879" lon="2.69621276855469">
			<ele>50.2000007629395</ele>
			<time>2013-12-29T09:39:03Z</time>
		</trkpt>
		<trkpt lat="39.5480613708496" lon="2.69615173339844">
			<ele>48.7999992370605</ele>
			<time>2013-12-29T09:39:05Z</time>
		</trkpt>
		<trkpt lat="39.5480613708496" lon="2.69608736038208">
			<ele>50.7000007629395</ele>
			<time>2013-12-29T09:39:06Z</time>
		</trkpt>
		<trkpt lat="39.5480842590332" lon="2.69599223136902">
			<ele>50.4000015258789</ele>
			<time>2013-12-29T09:39:08Z</time>
		</trkpt>
		<trkpt lat="39.5481071472168" lon="2.6959023475647">
			<ele>50.5</ele>
			<time>2013-12-29T09:39:10Z</time>
		</trkpt>
		<trkpt lat="39.5481262207031" lon="2.69581174850464">
			<ele>50.2000007629395</ele>
			<time>2013-12-29T09:39:12Z</time>
		</trkpt>
		<trkpt lat="39.548152923584" lon="2.69572114944458">
			<ele>50</ele>
			<time>2013-12-29T09:39:14Z</time>
		</trkpt>
		<trkpt lat="39.5481719970703" lon="2.69563007354736">
			<ele>50.4000015258789</ele>
			<time>2013-12-29T09:39:16Z</time>
		</trkpt>
		<trkpt lat="39.5481948852539" lon="2.69554328918457">
			<ele>50.7999992370605</ele>
			<time>2013-12-29T09:39:18Z</time>
		</trkpt>
		<trkpt lat="39.5482177734375" lon="2.69545841217041">
			<ele>50.5999984741211</ele>
			<time>2013-12-29T09:39:20Z</time>
		</trkpt>
		<trkpt lat="39.5482368469238" lon="2.69537258148193">
			<ele>51.0999984741211</ele>
			<time>2013-12-29T09:39:22Z</time>
		</trkpt>
		<trkpt lat="39.5482597351074" lon="2.69528841972351">
			<ele>51</ele>
			<time>2013-12-29T09:39:24Z</time>
		</trkpt>
		<trkpt lat="39.5482749938965" lon="2.69520163536072">
			<ele>51</ele>
			<time>2013-12-29T09:39:26Z</time>
		</trkpt>
		<trkpt lat="39.5482788085938" lon="2.69510316848755">
			<ele>50.9000015258789</ele>
			<time>2013-12-29T09:39:28Z</time>
		</trkpt>
		<trkpt lat="39.5482749938965" lon="2.69500279426575">
			<ele>51</ele>
			<time>2013-12-29T09:39:30Z</time>
		</trkpt>
		<trkpt lat="39.5482597351074" lon="2.6949098110199">
			<ele>51.4000015258789</ele>
			<time>2013-12-29T09:39:32Z</time>
		</trkpt>
		<trkpt lat="39.5482406616211" lon="2.69482183456421">
			<ele>51.5999984741211</ele>
			<time>2013-12-29T09:39:34Z</time>
		</trkpt>
		<trkpt lat="39.5482177734375" lon="2.69473052024841">
			<ele>51.5</ele>
			<time>2013-12-29T09:39:36Z</time>
		</trkpt>
		<trkpt lat="39.5481796264648" lon="2.69463920593262">
			<ele>51.5999984741211</ele>
			<time>2013-12-29T09:39:38Z</time>
		</trkpt>
		<trkpt lat="39.5481491088867" lon="2.69455599784851">
			<ele>51.9000015258789</ele>
			<time>2013-12-29T09:39:40Z</time>
		</trkpt>
		<trkpt lat="39.5481147766113" lon="2.69447255134583">
			<ele>51.5999984741211</ele>
			<time>2013-12-29T09:39:42Z</time>
		</trkpt>
		<trkpt lat="39.5480842590332" lon="2.69438791275024">
			<ele>51.5</ele>
			<time>2013-12-29T09:39:44Z</time>
		</trkpt>
		<trkpt lat="39.5480537414551" lon="2.69430470466614">
			<ele>51.5999984741211</ele>
			<time>2013-12-29T09:39:46Z</time>
		</trkpt>
		<trkpt lat="39.5480194091797" lon="2.69421935081482">
			<ele>51.5999984741211</ele>
			<time>2013-12-29T09:39:48Z</time>
		</trkpt>
		<trkpt lat="39.5479927062988" lon="2.69413924217224">
			<ele>51.7000007629395</ele>
			<time>2013-12-29T09:39:50Z</time>
		</trkpt>
		<trkpt lat="39.5479698181152" lon="2.69405436515808">
			<ele>52</ele>
			<time>2013-12-29T09:39:52Z</time>
		</trkpt>
		<trkpt lat="39.5479469299316" lon="2.69396829605103">
			<ele>52.0999984741211</ele>
			<time>2013-12-29T09:39:54Z</time>
		</trkpt>
		<trkpt lat="39.5479278564453" lon="2.69388008117676">
			<ele>52.2000007629395</ele>
			<time>2013-12-29T09:39:56Z</time>
		</trkpt>
		<trkpt lat="39.547908782959" lon="2.69379281997681">
			<ele>52.5</ele>
			<time>2013-12-29T09:39:58Z</time>
		</trkpt>
		<trkpt lat="39.5478935241699" lon="2.69370603561401">
			<ele>52.7999992370605</ele>
			<time>2013-12-29T09:40:00Z</time>
		</trkpt>
		<trkpt lat="39.5478858947754" lon="2.69362306594849">
			<ele>52.9000015258789</ele>
			<time>2013-12-29T09:40:02Z</time>
		</trkpt>
		<trkpt lat="39.5478782653809" lon="2.69353818893433">
			<ele>53</ele>
			<time>2013-12-29T09:40:04Z</time>
		</trkpt>
		<trkpt lat="39.5478858947754" lon="2.6934552192688">
			<ele>52.4000015258789</ele>
			<time>2013-12-29T09:40:06Z</time>
		</trkpt>
		<trkpt lat="39.5478820800781" lon="2.69337677955627">
			<ele>52.5999984741211</ele>
			<time>2013-12-29T09:40:08Z</time>
		</trkpt>
		<trkpt lat="39.5478553771973" lon="2.69329571723938">
			<ele>52.7000007629395</ele>
			<time>2013-12-29T09:40:10Z</time>
		</trkpt>
		<trkpt lat="39.5477905273438" lon="2.69324946403503">
			<ele>52.7000007629395</ele>
			<time>2013-12-29T09:40:12Z</time>
		</trkpt>
		<trkpt lat="39.5477409362793" lon="2.69319772720337">
			<ele>52.7000007629395</ele>
			<time>2013-12-29T09:40:14Z</time>
		</trkpt>
		<trkpt lat="39.547679901123" lon="2.69315600395203">
			<ele>52.9000015258789</ele>
			<time>2013-12-29T09:40:16Z</time>
		</trkpt>
		<trkpt lat="39.5476341247559" lon="2.69310331344604">
			<ele>52.0999984741211</ele>
			<time>2013-12-29T09:40:18Z</time>
		</trkpt>
		<trkpt lat="39.5475959777832" lon="2.69303607940674">
			<ele>52.2000007629395</ele>
			<time>2013-12-29T09:40:20Z</time>
		</trkpt>
		<trkpt lat="39.5475616455078" lon="2.69297766685486">
			<ele>51.5999984741211</ele>
			<time>2013-12-29T09:40:22Z</time>
		</trkpt>
		<trkpt lat="39.5475425720215" lon="2.69289326667786">
			<ele>51.7000007629395</ele>
			<time>2013-12-29T09:40:24Z</time>
		</trkpt>
		<trkpt lat="39.5475540161133" lon="2.69281888008118">
			<ele>51.9000015258789</ele>
			<time>2013-12-29T09:40:26Z</time>
		</trkpt>
		<trkpt lat="39.547607421875" lon="2.69277358055115">
			<ele>51.7000007629395</ele>
			<time>2013-12-29T09:40:28Z</time>
		</trkpt>
		<trkpt lat="39.5476531982422" lon="2.69272017478943">
			<ele>51.9000015258789</ele>
			<time>2013-12-29T09:40:30Z</time>
		</trkpt>
		<trkpt lat="39.5476989746094" lon="2.69266128540039">
			<ele>52.5</ele>
			<time>2013-12-29T09:40:32Z</time>
		</trkpt>
		<trkpt lat="39.5477523803711" lon="2.69260549545288">
			<ele>52</ele>
			<time>2013-12-29T09:40:34Z</time>
		</trkpt>
		<trkpt lat="39.5477981567383" lon="2.69254398345947">
			<ele>51.9000015258789</ele>
			<time>2013-12-29T09:40:36Z</time>
		</trkpt>
		<trkpt lat="39.5478515625" lon="2.69248414039612">
			<ele>52.2000007629395</ele>
			<time>2013-12-29T09:40:38Z</time>
		</trkpt>
		<trkpt lat="39.5478973388672" lon="2.69241857528687">
			<ele>52.4000015258789</ele>
			<time>2013-12-29T09:40:40Z</time>
		</trkpt>
		<trkpt lat="39.5479202270508" lon="2.69234323501587">
			<ele>52.7000007629395</ele>
			<time>2013-12-29T09:40:42Z</time>
		</trkpt>
		<trkpt lat="39.5479125976563" lon="2.69226169586182">
			<ele>53</ele>
			<time>2013-12-29T09:40:44Z</time>
		</trkpt>
		<trkpt lat="39.5478897094727" lon="2.69219040870667">
			<ele>53.0999984741211</ele>
			<time>2013-12-29T09:40:46Z</time>
		</trkpt>
		<trkpt lat="39.5478668212891" lon="2.69211220741272">
			<ele>53.2999992370605</ele>
			<time>2013-12-29T09:40:48Z</time>
		</trkpt>
		<trkpt lat="39.5478477478027" lon="2.69203209877014">
			<ele>53.0999984741211</ele>
			<time>2013-12-29T09:40:50Z</time>
		</trkpt>
		<trkpt lat="39.5478248596191" lon="2.69195199012756">
			<ele>53</ele>
			<time>2013-12-29T09:40:52Z</time>
		</trkpt>
		<trkpt lat="39.5478019714355" lon="2.69186735153198">
			<ele>52.7999992370605</ele>
			<time>2013-12-29T09:40:54Z</time>
		</trkpt>
		<trkpt lat="39.5477828979492" lon="2.6917872428894">
			<ele>52.7000007629395</ele>
			<time>2013-12-29T09:40:57Z</time>
		</trkpt>
		<trkpt lat="39.5478324890137" lon="2.69169759750366">
			<ele>52.2999992370605</ele>
			<time>2013-12-29T09:41:00Z</time>
		</trkpt>
		<trkpt lat="39.5478782653809" lon="2.69164443016052">
			<ele>51.7999992370605</ele>
			<time>2013-12-29T09:41:02Z</time>
		</trkpt>
		<trkpt lat="39.5479545593262" lon="2.69155359268188">
			<ele>50.9000015258789</ele>
			<time>2013-12-29T09:41:05Z</time>
		</trkpt>
		<trkpt lat="39.5480270385742" lon="2.69150638580322">
			<ele>50.0999984741211</ele>
			<time>2013-12-29T09:41:07Z</time>
		</trkpt>
		<trkpt lat="39.5480918884277" lon="2.69145131111145">
			<ele>49.5</ele>
			<time>2013-12-29T09:41:09Z</time>
		</trkpt>
		<trkpt lat="39.5481300354004" lon="2.69139742851257">
			<ele>49.2000007629395</ele>
			<time>2013-12-29T09:41:11Z</time>
		</trkpt>
		<trkpt lat="39.5481758117676" lon="2.69143891334534">
			<ele>49.2000007629395</ele>
			<time>2013-12-29T09:41:13Z</time>
		</trkpt>
		<trkpt lat="39.5482406616211" lon="2.69148850440979">
			<ele>48.7999992370605</ele>
			<time>2013-12-29T09:41:15Z</time>
		</trkpt>
		<trkpt lat="39.5483016967773" lon="2.69153618812561">
			<ele>49.7000007629395</ele>
			<time>2013-12-29T09:41:17Z</time>
		</trkpt>
		<trkpt lat="39.5483589172363" lon="2.69157147407532">
			<ele>50.0999984741211</ele>
			<time>2013-12-29T09:41:19Z</time>
		</trkpt>
		<trkpt lat="39.5484237670898" lon="2.69160866737366">
			<ele>50.2000007629395</ele>
			<time>2013-12-29T09:41:21Z</time>
		</trkpt>
		<trkpt lat="39.5484809875488" lon="2.69164037704468">
			<ele>50.5</ele>
			<time>2013-12-29T09:41:23Z</time>
		</trkpt>
		<trkpt lat="39.5485343933105" lon="2.69166612625122">
			<ele>51.2000007629395</ele>
			<time>2013-12-29T09:41:25Z</time>
		</trkpt>
		<trkpt lat="39.5485877990723" lon="2.69169950485229">
			<ele>50.5999984741211</ele>
			<time>2013-12-29T09:41:27Z</time>
		</trkpt>
		<trkpt lat="39.5486488342285" lon="2.69172072410583">
			<ele>51.5</ele>
			<time>2013-12-29T09:41:29Z</time>
		</trkpt>
		<trkpt lat="39.5487060546875" lon="2.69175148010254">
			<ele>51.7999992370605</ele>
			<time>2013-12-29T09:41:31Z</time>
		</trkpt>
		<trkpt lat="39.5487632751465" lon="2.69179391860962">
			<ele>51.4000015258789</ele>
			<time>2013-12-29T09:41:33Z</time>
		</trkpt>
		<trkpt lat="39.5488243103027" lon="2.69182181358337">
			<ele>51.2999992370605</ele>
			<time>2013-12-29T09:41:35Z</time>
		</trkpt>
		<trkpt lat="39.548885345459" lon="2.69182682037354">
			<ele>51.0999984741211</ele>
			<time>2013-12-29T09:41:37Z</time>
		</trkpt>
		<trkpt lat="39.5489540100098" lon="2.691819190979">
			<ele>51.5</ele>
			<time>2013-12-29T09:41:39Z</time>
		</trkpt>
		<trkpt lat="39.5490188598633" lon="2.69178509712219">
			<ele>51.2999992370605</ele>
			<time>2013-12-29T09:41:41Z</time>
		</trkpt>
		<trkpt lat="39.5490837097168" lon="2.69174408912659">
			<ele>51.2999992370605</ele>
			<time>2013-12-29T09:41:43Z</time>
		</trkpt>
		<trkpt lat="39.5491409301758" lon="2.69168448448181">
			<ele>51.2999992370605</ele>
			<time>2013-12-29T09:41:45Z</time>
		</trkpt>
		<trkpt lat="39.5491752624512" lon="2.69160008430481">
			<ele>50.4000015258789</ele>
			<time>2013-12-29T09:41:48Z</time>
		</trkpt>
		<trkpt lat="39.5492172241211" lon="2.69149923324585">
			<ele>49.5999984741211</ele>
			<time>2013-12-29T09:41:49Z</time>
		</trkpt>
		<trkpt lat="39.54931640625" lon="2.69147944450378">
			<ele>49.7000007629395</ele>
			<time>2013-12-29T09:41:52Z</time>
		</trkpt>
		<trkpt lat="39.5493774414063" lon="2.69149494171143">
			<ele>50.2000007629395</ele>
			<time>2013-12-29T09:41:54Z</time>
		</trkpt>
		<trkpt lat="39.5494384765625" lon="2.6915066242218">
			<ele>50.0999984741211</ele>
			<time>2013-12-29T09:41:56Z</time>
		</trkpt>
		<trkpt lat="39.5495109558105" lon="2.69152140617371">
			<ele>50.2000007629395</ele>
			<time>2013-12-29T09:41:58Z</time>
		</trkpt>
		<trkpt lat="39.5495834350586" lon="2.69153904914856">
			<ele>50.2000007629395</ele>
			<time>2013-12-29T09:42:00Z</time>
		</trkpt>
		<trkpt lat="39.5496597290039" lon="2.69155192375183">
			<ele>50.2999992370605</ele>
			<time>2013-12-29T09:42:02Z</time>
		</trkpt>
		<trkpt lat="39.549732208252" lon="2.69155693054199">
			<ele>50.0999984741211</ele>
			<time>2013-12-29T09:42:04Z</time>
		</trkpt>
		<trkpt lat="39.5498504638672" lon="2.69154214859009">
			<ele>50.2999992370605</ele>
			<time>2013-12-29T09:42:07Z</time>
		</trkpt>
		<trkpt lat="39.549919128418" lon="2.6915271282196">
			<ele>50.4000015258789</ele>
			<time>2013-12-29T09:42:09Z</time>
		</trkpt>
		<trkpt lat="39.5499954223633" lon="2.69150900840759">
			<ele>50.4000015258789</ele>
			<time>2013-12-29T09:42:11Z</time>
		</trkpt>
		<trkpt lat="39.5500564575195" lon="2.69147610664368">
			<ele>50.7000007629395</ele>
			<time>2013-12-29T09:42:14Z</time>
		</trkpt>
		<trkpt lat="39.550121307373" lon="2.69145154953003">
			<ele>51.2000007629395</ele>
			<time>2013-12-29T09:42:15Z</time>
		</trkpt>
		<trkpt lat="39.5501823425293" lon="2.69141101837158">
			<ele>51.2000007629395</ele>
			<time>2013-12-29T09:42:17Z</time>
		</trkpt>
		<trkpt lat="39.5502433776855" lon="2.69136953353882">
			<ele>51.2000007629395</ele>
			<time>2013-12-29T09:42:19Z</time>
		</trkpt>
		<trkpt lat="39.5503044128418" lon="2.69133186340332">
			<ele>51.5999984741211</ele>
			<time>2013-12-29T09:42:22Z</time>
		</trkpt>
		<trkpt lat="39.5503616333008" lon="2.69129061698914">
			<ele>51.7999992370605</ele>
			<time>2013-12-29T09:42:23Z</time>
		</trkpt>
		<trkpt lat="39.5504188537598" lon="2.69124865531921">
			<ele>51.9000015258789</ele>
			<time>2013-12-29T09:42:25Z</time>
		</trkpt>
		<trkpt lat="39.550479888916" lon="2.69120669364929">
			<ele>52.0999984741211</ele>
			<time>2013-12-29T09:42:27Z</time>
		</trkpt>
		<trkpt lat="39.5505485534668" lon="2.69116067886353">
			<ele>51.9000015258789</ele>
			<time>2013-12-29T09:42:29Z</time>
		</trkpt>
		<trkpt lat="39.5506172180176" lon="2.69111704826355">
			<ele>52.0999984741211</ele>
			<time>2013-12-29T09:42:31Z</time>
		</trkpt>
		<trkpt lat="39.5507164001465" lon="2.69105410575867">
			<ele>52.0999984741211</ele>
			<time>2013-12-29T09:42:34Z</time>
		</trkpt>
		<trkpt lat="39.5507850646973" lon="2.69104051589966">
			<ele>51.5999984741211</ele>
			<time>2013-12-29T09:42:36Z</time>
		</trkpt>
		<trkpt lat="39.5508422851563" lon="2.69109606742859">
			<ele>51.5999984741211</ele>
			<time>2013-12-29T09:42:38Z</time>
		</trkpt>
		<trkpt lat="39.5509300231934" lon="2.69117856025696">
			<ele>51.5999984741211</ele>
			<time>2013-12-29T09:42:41Z</time>
		</trkpt>
		<trkpt lat="39.5509948730469" lon="2.69121813774109">
			<ele>51.5999984741211</ele>
			<time>2013-12-29T09:42:43Z</time>
		</trkpt>
		<trkpt lat="39.5510559082031" lon="2.69117832183838">
			<ele>51.5999984741211</ele>
			<time>2013-12-29T09:42:45Z</time>
		</trkpt>
		<trkpt lat="39.5511169433594" lon="2.69111967086792">
			<ele>51.2000007629395</ele>
			<time>2013-12-29T09:42:47Z</time>
		</trkpt>
		<trkpt lat="39.5511779785156" lon="2.69105935096741">
			<ele>51.0999984741211</ele>
			<time>2013-12-29T09:42:50Z</time>
		</trkpt>
		<trkpt lat="39.5512466430664" lon="2.69099998474121">
			<ele>50.9000015258789</ele>
			<time>2013-12-29T09:42:51Z</time>
		</trkpt>
		<trkpt lat="39.5513153076172" lon="2.6909351348877">
			<ele>51</ele>
			<time>2013-12-29T09:42:53Z</time>
		</trkpt>
		<trkpt lat="39.5513801574707" lon="2.69087052345276">
			<ele>51.0999984741211</ele>
			<time>2013-12-29T09:42:55Z</time>
		</trkpt>
		<trkpt lat="39.5514755249023" lon="2.69077563285828">
			<ele>51.0999984741211</ele>
			<time>2013-12-29T09:42:58Z</time>
		</trkpt>
		<trkpt lat="39.5515403747559" lon="2.69072008132935">
			<ele>51.4000015258789</ele>
			<time>2013-12-29T09:43:00Z</time>
		</trkpt>
		<trkpt lat="39.5516014099121" lon="2.69066286087036">
			<ele>51.5999984741211</ele>
			<time>2013-12-29T09:43:02Z</time>
		</trkpt>
		<trkpt lat="39.5516662597656" lon="2.69060468673706">
			<ele>51.4000015258789</ele>
			<time>2013-12-29T09:43:04Z</time>
		</trkpt>
		<trkpt lat="39.5517272949219" lon="2.69054460525513">
			<ele>51.5</ele>
			<time>2013-12-29T09:43:06Z</time>
		</trkpt>
		<trkpt lat="39.5517921447754" lon="2.69048571586609">
			<ele>51.5999984741211</ele>
			<time>2013-12-29T09:43:08Z</time>
		</trkpt>
		<trkpt lat="39.5518569946289" lon="2.69042706489563">
			<ele>51.5</ele>
			<time>2013-12-29T09:43:10Z</time>
		</trkpt>
		<trkpt lat="39.551929473877" lon="2.69039630889893">
			<ele>51.0999984741211</ele>
			<time>2013-12-29T09:43:12Z</time>
		</trkpt>
		<trkpt lat="39.5520057678223" lon="2.69037675857544">
			<ele>51.4000015258789</ele>
			<time>2013-12-29T09:43:14Z</time>
		</trkpt>
		<trkpt lat="39.5520820617676" lon="2.69035840034485">
			<ele>51.5999984741211</ele>
			<time>2013-12-29T09:43:16Z</time>
		</trkpt>
		<trkpt lat="39.5521583557129" lon="2.69033980369568">
			<ele>51.5</ele>
			<time>2013-12-29T09:43:18Z</time>
		</trkpt>
		<trkpt lat="39.5522308349609" lon="2.69032454490662">
			<ele>51.5</ele>
			<time>2013-12-29T09:43:20Z</time>
		</trkpt>
		<trkpt lat="39.5522994995117" lon="2.69030117988586">
			<ele>51.5</ele>
			<time>2013-12-29T09:43:22Z</time>
		</trkpt>
		<trkpt lat="39.552360534668" lon="2.69024276733398">
			<ele>51.5999984741211</ele>
			<time>2013-12-29T09:43:24Z</time>
		</trkpt>
		<trkpt lat="39.5524101257324" lon="2.69017362594604">
			<ele>51.7000007629395</ele>
			<time>2013-12-29T09:43:26Z</time>
		</trkpt>
		<trkpt lat="39.5524559020996" lon="2.690101146698">
			<ele>51.4000015258789</ele>
			<time>2013-12-29T09:43:28Z</time>
		</trkpt>
		<trkpt lat="39.5525054931641" lon="2.69002628326416">
			<ele>51.4000015258789</ele>
			<time>2013-12-29T09:43:30Z</time>
		</trkpt>
		<trkpt lat="39.5525550842285" lon="2.68995714187622">
			<ele>51.2999992370605</ele>
			<time>2013-12-29T09:43:32Z</time>
		</trkpt>
		<trkpt lat="39.552604675293" lon="2.68988299369812">
			<ele>51.0999984741211</ele>
			<time>2013-12-29T09:43:34Z</time>
		</trkpt>
		<trkpt lat="39.5526542663574" lon="2.68980693817139">
			<ele>50.9000015258789</ele>
			<time>2013-12-29T09:43:36Z</time>
		</trkpt>
		<trkpt lat="39.5527076721191" lon="2.68973159790039">
			<ele>50.7999992370605</ele>
			<time>2013-12-29T09:43:38Z</time>
		</trkpt>
		<trkpt lat="39.5527572631836" lon="2.68965649604797">
			<ele>50.9000015258789</ele>
			<time>2013-12-29T09:43:40Z</time>
		</trkpt>
		<trkpt lat="39.5528106689453" lon="2.68957734107971">
			<ele>50.5999984741211</ele>
			<time>2013-12-29T09:43:42Z</time>
		</trkpt>
		<trkpt lat="39.552864074707" lon="2.68950295448303">
			<ele>50.5999984741211</ele>
			<time>2013-12-29T09:43:44Z</time>
		</trkpt>
		<trkpt lat="39.5529136657715" lon="2.68942999839783">
			<ele>50.2999992370605</ele>
			<time>2013-12-29T09:43:46Z</time>
		</trkpt>
		<trkpt lat="39.5529632568359" lon="2.68935942649841">
			<ele>50.2000007629395</ele>
			<time>2013-12-29T09:43:48Z</time>
		</trkpt>
		<trkpt lat="39.5530166625977" lon="2.68928503990173">
			<ele>50.2000007629395</ele>
			<time>2013-12-29T09:43:50Z</time>
		</trkpt>
		<trkpt lat="39.5530662536621" lon="2.68921136856079">
			<ele>50.2000007629395</ele>
			<time>2013-12-29T09:43:52Z</time>
		</trkpt>
		<trkpt lat="39.5531196594238" lon="2.68914079666138">
			<ele>50.2000007629395</ele>
			<time>2013-12-29T09:43:54Z</time>
		</trkpt>
		<trkpt lat="39.5531578063965" lon="2.68905973434448">
			<ele>50.0999984741211</ele>
			<time>2013-12-29T09:43:56Z</time>
		</trkpt>
		<trkpt lat="39.5531539916992" lon="2.68895435333252">
			<ele>50.5</ele>
			<time>2013-12-29T09:43:58Z</time>
		</trkpt>
		<trkpt lat="39.5531616210938" lon="2.6888542175293">
			<ele>50.5999984741211</ele>
			<time>2013-12-29T09:44:00Z</time>
		</trkpt>
		<trkpt lat="39.5531692504883" lon="2.68875432014465">
			<ele>50.5999984741211</ele>
			<time>2013-12-29T09:44:02Z</time>
		</trkpt>
		<trkpt lat="39.5531730651855" lon="2.68865513801575">
			<ele>50.7000007629395</ele>
			<time>2013-12-29T09:44:04Z</time>
		</trkpt>
		<trkpt lat="39.5531845092773" lon="2.68855810165405">
			<ele>50.7000007629395</ele>
			<time>2013-12-29T09:44:06Z</time>
		</trkpt>
		<trkpt lat="39.55322265625" lon="2.68847274780273">
			<ele>50.7000007629395</ele>
			<time>2013-12-29T09:44:08Z</time>
		</trkpt>
		<trkpt lat="39.5532646179199" lon="2.68839263916016">
			<ele>50.5999984741211</ele>
			<time>2013-12-29T09:44:10Z</time>
		</trkpt>
		<trkpt lat="39.5533065795898" lon="2.68830943107605">
			<ele>50.5999984741211</ele>
			<time>2013-12-29T09:44:12Z</time>
		</trkpt>
		<trkpt lat="39.5533447265625" lon="2.68822693824768">
			<ele>50.5</ele>
			<time>2013-12-29T09:44:14Z</time>
		</trkpt>
		<trkpt lat="39.5533866882324" lon="2.68814253807068">
			<ele>50.5999984741211</ele>
			<time>2013-12-29T09:44:16Z</time>
		</trkpt>
		<trkpt lat="39.5534286499023" lon="2.68806409835815">
			<ele>50.2000007629395</ele>
			<time>2013-12-29T09:44:18Z</time>
		</trkpt>
		<trkpt lat="39.5534706115723" lon="2.68798160552979">
			<ele>50.0999984741211</ele>
			<time>2013-12-29T09:44:20Z</time>
		</trkpt>
		<trkpt lat="39.5535163879395" lon="2.68789958953857">
			<ele>49.7999992370605</ele>
			<time>2013-12-29T09:44:22Z</time>
		</trkpt>
		<trkpt lat="39.5535545349121" lon="2.68781566619873">
			<ele>50.0999984741211</ele>
			<time>2013-12-29T09:44:24Z</time>
		</trkpt>
		<trkpt lat="39.5535926818848" lon="2.68773245811462">
			<ele>50</ele>
			<time>2013-12-29T09:44:26Z</time>
		</trkpt>
		<trkpt lat="39.5536308288574" lon="2.68764662742615">
			<ele>50.0999984741211</ele>
			<time>2013-12-29T09:44:28Z</time>
		</trkpt>
		<trkpt lat="39.5536727905273" lon="2.68756461143494">
			<ele>50.0999984741211</ele>
			<time>2013-12-29T09:44:30Z</time>
		</trkpt>
		<trkpt lat="39.5537147521973" lon="2.68747997283936">
			<ele>50.2000007629395</ele>
			<time>2013-12-29T09:44:32Z</time>
		</trkpt>
		<trkpt lat="39.5537528991699" lon="2.6873950958252">
			<ele>50.2000007629395</ele>
			<time>2013-12-29T09:44:34Z</time>
		</trkpt>
		<trkpt lat="39.5537986755371" lon="2.68730878829956">
			<ele>50.2000007629395</ele>
			<time>2013-12-29T09:44:36Z</time>
		</trkpt>
		<trkpt lat="39.5538368225098" lon="2.68722462654114">
			<ele>50.5999984741211</ele>
			<time>2013-12-29T09:44:38Z</time>
		</trkpt>
		<trkpt lat="39.5538673400879" lon="2.68713736534119">
			<ele>51.0999984741211</ele>
			<time>2013-12-29T09:44:40Z</time>
		</trkpt>
		<trkpt lat="39.553882598877" lon="2.68705320358276">
			<ele>51</ele>
			<time>2013-12-29T09:44:42Z</time>
		</trkpt>
		<trkpt lat="39.553897857666" lon="2.68696618080139">
			<ele>51</ele>
			<time>2013-12-29T09:44:44Z</time>
		</trkpt>
		<trkpt lat="39.5539169311523" lon="2.68687844276428">
			<ele>51.0999984741211</ele>
			<time>2013-12-29T09:44:46Z</time>
		</trkpt>
		<trkpt lat="39.5539321899414" lon="2.68679046630859">
			<ele>50.9000015258789</ele>
			<time>2013-12-29T09:44:48Z</time>
		</trkpt>
		<trkpt lat="39.5539512634277" lon="2.68669652938843">
			<ele>50.9000015258789</ele>
			<time>2013-12-29T09:44:50Z</time>
		</trkpt>
		<trkpt lat="39.5539741516113" lon="2.68660116195679">
			<ele>50.9000015258789</ele>
			<time>2013-12-29T09:44:52Z</time>
		</trkpt>
		<trkpt lat="39.5539932250977" lon="2.6865029335022">
			<ele>50.7999992370605</ele>
			<time>2013-12-29T09:44:54Z</time>
		</trkpt>
		<trkpt lat="39.554012298584" lon="2.68640351295471">
			<ele>50.7999992370605</ele>
			<time>2013-12-29T09:44:56Z</time>
		</trkpt>
		<trkpt lat="39.5540313720703" lon="2.68630361557007">
			<ele>50.5999984741211</ele>
			<time>2013-12-29T09:44:58Z</time>
		</trkpt>
		<trkpt lat="39.5540542602539" lon="2.68620538711548">
			<ele>50.7000007629395</ele>
			<time>2013-12-29T09:45:00Z</time>
		</trkpt>
		<trkpt lat="39.5540733337402" lon="2.68610382080078">
			<ele>50.7999992370605</ele>
			<time>2013-12-29T09:45:02Z</time>
		</trkpt>
		<trkpt lat="39.5540962219238" lon="2.68600153923035">
			<ele>50.7999992370605</ele>
			<time>2013-12-29T09:45:04Z</time>
		</trkpt>
		<trkpt lat="39.5541191101074" lon="2.68589878082275">
			<ele>50.7000007629395</ele>
			<time>2013-12-29T09:45:06Z</time>
		</trkpt>
		<trkpt lat="39.5541458129883" lon="2.68579769134521">
			<ele>50.7000007629395</ele>
			<time>2013-12-29T09:45:08Z</time>
		</trkpt>
		<trkpt lat="39.5541725158691" lon="2.68569684028625">
			<ele>50.5</ele>
			<time>2013-12-29T09:45:10Z</time>
		</trkpt>
		<trkpt lat="39.55419921875" lon="2.68559646606445">
			<ele>50.5</ele>
			<time>2013-12-29T09:45:12Z</time>
		</trkpt>
		<trkpt lat="39.5542297363281" lon="2.68549871444702">
			<ele>50.4000015258789</ele>
			<time>2013-12-29T09:45:14Z</time>
		</trkpt>
		<trkpt lat="39.5542678833008" lon="2.68540525436401">
			<ele>50.2999992370605</ele>
			<time>2013-12-29T09:45:16Z</time>
		</trkpt>
		<trkpt lat="39.5543060302734" lon="2.68531775474548">
			<ele>50.2000007629395</ele>
			<time>2013-12-29T09:45:18Z</time>
		</trkpt>
		<trkpt lat="39.5543479919434" lon="2.68523454666138">
			<ele>50.4000015258789</ele>
			<time>2013-12-29T09:45:20Z</time>
		</trkpt>
		<trkpt lat="39.554386138916" lon="2.68514347076416">
			<ele>50.2999992370605</ele>
			<time>2013-12-29T09:45:22Z</time>
		</trkpt>
		<trkpt lat="39.5544281005859" lon="2.68505549430847">
			<ele>50.4000015258789</ele>
			<time>2013-12-29T09:45:24Z</time>
		</trkpt>
		<trkpt lat="39.5544624328613" lon="2.68496870994568">
			<ele>50.2999992370605</ele>
			<time>2013-12-29T09:45:26Z</time>
		</trkpt>
		<trkpt lat="39.554500579834" lon="2.68487787246704">
			<ele>50.2000007629395</ele>
			<time>2013-12-29T09:45:28Z</time>
		</trkpt>
		<trkpt lat="39.5545349121094" lon="2.68479204177856">
			<ele>50.0999984741211</ele>
			<time>2013-12-29T09:45:30Z</time>
		</trkpt>
		<trkpt lat="39.554573059082" lon="2.68470692634583">
			<ele>50.0999984741211</ele>
			<time>2013-12-29T09:45:32Z</time>
		</trkpt>
		<trkpt lat="39.5546112060547" lon="2.68462920188904">
			<ele>50.0999984741211</ele>
			<time>2013-12-29T09:45:34Z</time>
		</trkpt>
		<trkpt lat="39.5546455383301" lon="2.68454909324646">
			<ele>50.2999992370605</ele>
			<time>2013-12-29T09:45:36Z</time>
		</trkpt>
		<trkpt lat="39.5546760559082" lon="2.68446779251099">
			<ele>50.5</ele>
			<time>2013-12-29T09:45:38Z</time>
		</trkpt>
		<trkpt lat="39.5547142028809" lon="2.68438792228699">
			<ele>50.2999992370605</ele>
			<time>2013-12-29T09:45:40Z</time>
		</trkpt>
		<trkpt lat="39.5547485351563" lon="2.68430590629578">
			<ele>50.2999992370605</ele>
			<time>2013-12-29T09:45:42Z</time>
		</trkpt>
		<trkpt lat="39.5547828674316" lon="2.68422389030457">
			<ele>50.2000007629395</ele>
			<time>2013-12-29T09:45:44Z</time>
		</trkpt>
		<trkpt lat="39.5548210144043" lon="2.68413996696472">
			<ele>50.2000007629395</ele>
			<time>2013-12-29T09:45:46Z</time>
		</trkpt>
		<trkpt lat="39.5548553466797" lon="2.68405938148499">
			<ele>50.0999984741211</ele>
			<time>2013-12-29T09:45:48Z</time>
		</trkpt>
		<trkpt lat="39.5548934936523" lon="2.6839771270752">
			<ele>50.2999992370605</ele>
			<time>2013-12-29T09:45:50Z</time>
		</trkpt>
		<trkpt lat="39.5549278259277" lon="2.68389511108398">
			<ele>50</ele>
			<time>2013-12-29T09:45:52Z</time>
		</trkpt>
		<trkpt lat="39.5549659729004" lon="2.68380880355835">
			<ele>50</ele>
			<time>2013-12-29T09:45:54Z</time>
		</trkpt>
		<trkpt lat="39.5550003051758" lon="2.68372583389282">
			<ele>50</ele>
			<time>2013-12-29T09:45:56Z</time>
		</trkpt>
		<trkpt lat="39.5550384521484" lon="2.68364191055298">
			<ele>49.9000015258789</ele>
			<time>2013-12-29T09:45:58Z</time>
		</trkpt>
		<trkpt lat="39.5550727844238" lon="2.68355464935303">
			<ele>49.7999992370605</ele>
			<time>2013-12-29T09:46:00Z</time>
		</trkpt>
		<trkpt lat="39.5551071166992" lon="2.68346548080444">
			<ele>49.7000007629395</ele>
			<time>2013-12-29T09:46:02Z</time>
		</trkpt>
		<trkpt lat="39.5551414489746" lon="2.68338513374329">
			<ele>49.5</ele>
			<time>2013-12-29T09:46:04Z</time>
		</trkpt>
		<trkpt lat="39.5551795959473" lon="2.68330240249634">
			<ele>49.5</ele>
			<time>2013-12-29T09:46:06Z</time>
		</trkpt>
		<trkpt lat="39.5552177429199" lon="2.68321800231934">
			<ele>49.4000015258789</ele>
			<time>2013-12-29T09:46:08Z</time>
		</trkpt>
		<trkpt lat="39.5552558898926" lon="2.68313241004944">
			<ele>49.2999992370605</ele>
			<time>2013-12-29T09:46:10Z</time>
		</trkpt>
		<trkpt lat="39.5552864074707" lon="2.68304324150085">
			<ele>49.4000015258789</ele>
			<time>2013-12-29T09:46:12Z</time>
		</trkpt>
		<trkpt lat="39.5553207397461" lon="2.68295812606812">
			<ele>49.2000007629395</ele>
			<time>2013-12-29T09:46:14Z</time>
		</trkpt>
		<trkpt lat="39.5553550720215" lon="2.68287086486816">
			<ele>49.2000007629395</ele>
			<time>2013-12-29T09:46:16Z</time>
		</trkpt>
		<trkpt lat="39.5553894042969" lon="2.68279051780701">
			<ele>49.2000007629395</ele>
			<time>2013-12-29T09:46:18Z</time>
		</trkpt>
		<trkpt lat="39.5554237365723" lon="2.68270778656006">
			<ele>49.2999992370605</ele>
			<time>2013-12-29T09:46:20Z</time>
		</trkpt>
		<trkpt lat="39.5554580688477" lon="2.68262767791748">
			<ele>49.2999992370605</ele>
			<time>2013-12-29T09:46:22Z</time>
		</trkpt>
		<trkpt lat="39.555492401123" lon="2.68254637718201">
			<ele>49.4000015258789</ele>
			<time>2013-12-29T09:46:24Z</time>
		</trkpt>
		<trkpt lat="39.5555267333984" lon="2.68246531486511">
			<ele>49.5</ele>
			<time>2013-12-29T09:46:26Z</time>
		</trkpt>
		<trkpt lat="39.5555610656738" lon="2.68238425254822">
			<ele>49.5</ele>
			<time>2013-12-29T09:46:28Z</time>
		</trkpt>
		<trkpt lat="39.5555953979492" lon="2.68230056762695">
			<ele>49.5</ele>
			<time>2013-12-29T09:46:30Z</time>
		</trkpt>
		<trkpt lat="39.5556297302246" lon="2.68221950531006">
			<ele>49.4000015258789</ele>
			<time>2013-12-29T09:46:32Z</time>
		</trkpt>
		<trkpt lat="39.5556640625" lon="2.68213725090027">
			<ele>49.4000015258789</ele>
			<time>2013-12-29T09:46:34Z</time>
		</trkpt>
		<trkpt lat="39.5556983947754" lon="2.68205738067627">
			<ele>49.5</ele>
			<time>2013-12-29T09:46:36Z</time>
		</trkpt>
		<trkpt lat="39.5557289123535" lon="2.68197679519653">
			<ele>49.4000015258789</ele>
			<time>2013-12-29T09:46:38Z</time>
		</trkpt>
		<trkpt lat="39.5557632446289" lon="2.68189764022827">
			<ele>49.5</ele>
			<time>2013-12-29T09:46:40Z</time>
		</trkpt>
		<trkpt lat="39.5557975769043" lon="2.68181920051575">
			<ele>49.4000015258789</ele>
			<time>2013-12-29T09:46:42Z</time>
		</trkpt>
		<trkpt lat="39.5558319091797" lon="2.68173980712891">
			<ele>49.2999992370605</ele>
			<time>2013-12-29T09:46:44Z</time>
		</trkpt>
		<trkpt lat="39.5558662414551" lon="2.68166017532349">
			<ele>49.2999992370605</ele>
			<time>2013-12-29T09:46:46Z</time>
		</trkpt>
		<trkpt lat="39.5559005737305" lon="2.6815767288208">
			<ele>49.2999992370605</ele>
			<time>2013-12-29T09:46:48Z</time>
		</trkpt>
		<trkpt lat="39.5559387207031" lon="2.68149065971375">
			<ele>49.2999992370605</ele>
			<time>2013-12-29T09:46:50Z</time>
		</trkpt>
		<trkpt lat="39.5559730529785" lon="2.68140602111816">
			<ele>49.2000007629395</ele>
			<time>2013-12-29T09:46:52Z</time>
		</trkpt>
		<trkpt lat="39.5560111999512" lon="2.68132162094116">
			<ele>49.2000007629395</ele>
			<time>2013-12-29T09:46:54Z</time>
		</trkpt>
		<trkpt lat="39.5560455322266" lon="2.68123865127563">
			<ele>49.0999984741211</ele>
			<time>2013-12-29T09:46:56Z</time>
		</trkpt>
		<trkpt lat="39.556079864502" lon="2.68115496635437">
			<ele>49.0999984741211</ele>
			<time>2013-12-29T09:46:58Z</time>
		</trkpt>
		<trkpt lat="39.5561141967773" lon="2.68107008934021">
			<ele>49</ele>
			<time>2013-12-29T09:47:00Z</time>
		</trkpt>
		<trkpt lat="39.5561485290527" lon="2.68098497390747">
			<ele>48.9000015258789</ele>
			<time>2013-12-29T09:47:02Z</time>
		</trkpt>
		<trkpt lat="39.5561828613281" lon="2.68089771270752">
			<ele>49</ele>
			<time>2013-12-29T09:47:04Z</time>
		</trkpt>
		<trkpt lat="39.5562133789063" lon="2.68081212043762">
			<ele>49.2000007629395</ele>
			<time>2013-12-29T09:47:06Z</time>
		</trkpt>
		<trkpt lat="39.5562477111816" lon="2.68072748184204">
			<ele>49.2999992370605</ele>
			<time>2013-12-29T09:47:08Z</time>
		</trkpt>
		<trkpt lat="39.5562782287598" lon="2.68064117431641">
			<ele>49.4000015258789</ele>
			<time>2013-12-29T09:47:10Z</time>
		</trkpt>
		<trkpt lat="39.5563125610352" lon="2.68055558204651">
			<ele>49.5</ele>
			<time>2013-12-29T09:47:12Z</time>
		</trkpt>
		<trkpt lat="39.5563430786133" lon="2.68046951293945">
			<ele>49.5999984741211</ele>
			<time>2013-12-29T09:47:14Z</time>
		</trkpt>
		<trkpt lat="39.5563774108887" lon="2.68038749694824">
			<ele>49.5999984741211</ele>
			<time>2013-12-29T09:47:16Z</time>
		</trkpt>
		<trkpt lat="39.5564079284668" lon="2.6803035736084">
			<ele>49.7000007629395</ele>
			<time>2013-12-29T09:47:18Z</time>
		</trkpt>
		<trkpt lat="39.5564384460449" lon="2.68022060394287">
			<ele>49.7000007629395</ele>
			<time>2013-12-29T09:47:20Z</time>
		</trkpt>
		<trkpt lat="39.5564727783203" lon="2.68013381958008">
			<ele>49.7000007629395</ele>
			<time>2013-12-29T09:47:22Z</time>
		</trkpt>
		<trkpt lat="39.5565032958984" lon="2.68004775047302">
			<ele>50</ele>
			<time>2013-12-29T09:47:24Z</time>
		</trkpt>
		<trkpt lat="39.5565338134766" lon="2.67996406555176">
			<ele>50.2000007629395</ele>
			<time>2013-12-29T09:47:26Z</time>
		</trkpt>
		<trkpt lat="39.5565643310547" lon="2.67987680435181">
			<ele>50</ele>
			<time>2013-12-29T09:47:28Z</time>
		</trkpt>
		<trkpt lat="39.5565986633301" lon="2.67979264259338">
			<ele>50.0999984741211</ele>
			<time>2013-12-29T09:47:30Z</time>
		</trkpt>
		<trkpt lat="39.5566291809082" lon="2.67971086502075">
			<ele>49.5999984741211</ele>
			<time>2013-12-29T09:47:32Z</time>
		</trkpt>
		<trkpt lat="39.5566596984863" lon="2.6796247959137">
			<ele>49.5999984741211</ele>
			<time>2013-12-29T09:47:34Z</time>
		</trkpt>
		<trkpt lat="39.5566902160645" lon="2.67954039573669">
			<ele>49.7000007629395</ele>
			<time>2013-12-29T09:47:36Z</time>
		</trkpt>
		<trkpt lat="39.5567359924316" lon="2.67940902709961">
			<ele>49.4000015258789</ele>
			<time>2013-12-29T09:47:39Z</time>
		</trkpt>
		<trkpt lat="39.5567665100098" lon="2.67932391166687">
			<ele>49.2999992370605</ele>
			<time>2013-12-29T09:47:41Z</time>
		</trkpt>
		<trkpt lat="39.5567932128906" lon="2.67924022674561">
			<ele>49.0999984741211</ele>
			<time>2013-12-29T09:47:43Z</time>
		</trkpt>
		<trkpt lat="39.556827545166" lon="2.6791558265686">
			<ele>49.2000007629395</ele>
			<time>2013-12-29T09:47:45Z</time>
		</trkpt>
		<trkpt lat="39.5568580627441" lon="2.67906975746155">
			<ele>49.2999992370605</ele>
			<time>2013-12-29T09:47:47Z</time>
		</trkpt>
		<trkpt lat="39.5568885803223" lon="2.67898631095886">
			<ele>49.2000007629395</ele>
			<time>2013-12-29T09:47:49Z</time>
		</trkpt>
		<trkpt lat="39.5569190979004" lon="2.67890167236328">
			<ele>49.0999984741211</ele>
			<time>2013-12-29T09:47:51Z</time>
		</trkpt>
		<trkpt lat="39.5569534301758" lon="2.67881178855896">
			<ele>49.4000015258789</ele>
			<time>2013-12-29T09:47:53Z</time>
		</trkpt>
		<trkpt lat="39.5569877624512" lon="2.67872619628906">
			<ele>49.4000015258789</ele>
			<time>2013-12-29T09:47:55Z</time>
		</trkpt>
		<trkpt lat="39.5570182800293" lon="2.67864060401917">
			<ele>49.2000007629395</ele>
			<time>2013-12-29T09:47:57Z</time>
		</trkpt>
		<trkpt lat="39.5570526123047" lon="2.67855143547058">
			<ele>49.5</ele>
			<time>2013-12-29T09:47:59Z</time>
		</trkpt>
		<trkpt lat="39.5570831298828" lon="2.67846274375916">
			<ele>49.5999984741211</ele>
			<time>2013-12-29T09:48:01Z</time>
		</trkpt>
		<trkpt lat="39.5571136474609" lon="2.6783754825592">
			<ele>49.5999984741211</ele>
			<time>2013-12-29T09:48:03Z</time>
		</trkpt>
		<trkpt lat="39.5571441650391" lon="2.67828583717346">
			<ele>49.5999984741211</ele>
			<time>2013-12-29T09:48:05Z</time>
		</trkpt>
		<trkpt lat="39.5571784973145" lon="2.67819786071777">
			<ele>49.5</ele>
			<time>2013-12-29T09:48:07Z</time>
		</trkpt>
		<trkpt lat="39.5572090148926" lon="2.67810916900635">
			<ele>49.7000007629395</ele>
			<time>2013-12-29T09:48:09Z</time>
		</trkpt>
		<trkpt lat="39.557243347168" lon="2.67802095413208">
			<ele>49.7000007629395</ele>
			<time>2013-12-29T09:48:11Z</time>
		</trkpt>
		<trkpt lat="39.5572738647461" lon="2.67793083190918">
			<ele>49.5999984741211</ele>
			<time>2013-12-29T09:48:13Z</time>
		</trkpt>
		<trkpt lat="39.5573043823242" lon="2.67784261703491">
			<ele>49.4000015258789</ele>
			<time>2013-12-29T09:48:15Z</time>
		</trkpt>
		<trkpt lat="39.5573348999023" lon="2.67775344848633">
			<ele>49.4000015258789</ele>
			<time>2013-12-29T09:48:17Z</time>
		</trkpt>
		<trkpt lat="39.5573654174805" lon="2.67766356468201">
			<ele>49.2999992370605</ele>
			<time>2013-12-29T09:48:19Z</time>
		</trkpt>
		<trkpt lat="39.5573921203613" lon="2.67756962776184">
			<ele>49.2000007629395</ele>
			<time>2013-12-29T09:48:21Z</time>
		</trkpt>
		<trkpt lat="39.5574188232422" lon="2.67748045921326">
			<ele>49.0999984741211</ele>
			<time>2013-12-29T09:48:23Z</time>
		</trkpt>
		<trkpt lat="39.5574493408203" lon="2.67739200592041">
			<ele>49.0999984741211</ele>
			<time>2013-12-29T09:48:25Z</time>
		</trkpt>
		<trkpt lat="39.5574798583984" lon="2.67730212211609">
			<ele>48.9000015258789</ele>
			<time>2013-12-29T09:48:27Z</time>
		</trkpt>
		<trkpt lat="39.5575065612793" lon="2.67721176147461">
			<ele>48.9000015258789</ele>
			<time>2013-12-29T09:48:29Z</time>
		</trkpt>
		<trkpt lat="39.5575332641602" lon="2.67712378501892">
			<ele>48.7999992370605</ele>
			<time>2013-12-29T09:48:31Z</time>
		</trkpt>
		<trkpt lat="39.5575637817383" lon="2.67703676223755">
			<ele>48.7999992370605</ele>
			<time>2013-12-29T09:48:33Z</time>
		</trkpt>
		<trkpt lat="39.5575904846191" lon="2.67694926261902">
			<ele>48.7999992370605</ele>
			<time>2013-12-29T09:48:35Z</time>
		</trkpt>
		<trkpt lat="39.5576248168945" lon="2.67686247825623">
			<ele>48.7999992370605</ele>
			<time>2013-12-29T09:48:37Z</time>
		</trkpt>
		<trkpt lat="39.5576629638672" lon="2.67678070068359">
			<ele>48.7999992370605</ele>
			<time>2013-12-29T09:48:39Z</time>
		</trkpt>
		<trkpt lat="39.5577049255371" lon="2.67669868469238">
			<ele>48.7999992370605</ele>
			<time>2013-12-29T09:48:41Z</time>
		</trkpt>
		<trkpt lat="39.5577507019043" lon="2.6766197681427">
			<ele>48.9000015258789</ele>
			<time>2013-12-29T09:48:43Z</time>
		</trkpt>
		<trkpt lat="39.5578002929688" lon="2.67654538154602">
			<ele>48.9000015258789</ele>
			<time>2013-12-29T09:48:45Z</time>
		</trkpt>
		<trkpt lat="39.5578498840332" lon="2.6764702796936">
			<ele>48.7999992370605</ele>
			<time>2013-12-29T09:48:47Z</time>
		</trkpt>
		<trkpt lat="39.5578956604004" lon="2.67639112472534">
			<ele>48.7000007629395</ele>
			<time>2013-12-29T09:48:49Z</time>
		</trkpt>
		<trkpt lat="39.5579490661621" lon="2.67631459236145">
			<ele>48.7999992370605</ele>
			<time>2013-12-29T09:48:51Z</time>
		</trkpt>
		<trkpt lat="39.5579948425293" lon="2.67623686790466">
			<ele>48.7000007629395</ele>
			<time>2013-12-29T09:48:53Z</time>
		</trkpt>
		<trkpt lat="39.5580444335938" lon="2.67615985870361">
			<ele>48.7000007629395</ele>
			<time>2013-12-29T09:48:55Z</time>
		</trkpt>
		<trkpt lat="39.5580940246582" lon="2.67608594894409">
			<ele>48.7999992370605</ele>
			<time>2013-12-29T09:48:57Z</time>
		</trkpt>
		<trkpt lat="39.5581512451172" lon="2.67602181434631">
			<ele>48.7999992370605</ele>
			<time>2013-12-29T09:48:59Z</time>
		</trkpt>
		<trkpt lat="39.5582084655762" lon="2.67596077919006">
			<ele>48.7999992370605</ele>
			<time>2013-12-29T09:49:01Z</time>
		</trkpt>
		<trkpt lat="39.5582695007324" lon="2.67590546607971">
			<ele>48.7999992370605</ele>
			<time>2013-12-29T09:49:03Z</time>
		</trkpt>
		<trkpt lat="39.5583305358887" lon="2.67585301399231">
			<ele>48.7999992370605</ele>
			<time>2013-12-29T09:49:05Z</time>
		</trkpt>
		<trkpt lat="39.5583915710449" lon="2.67579865455627">
			<ele>48.9000015258789</ele>
			<time>2013-12-29T09:49:07Z</time>
		</trkpt>
		<trkpt lat="39.5584526062012" lon="2.67574572563171">
			<ele>48.7999992370605</ele>
			<time>2013-12-29T09:49:09Z</time>
		</trkpt>
		<trkpt lat="39.5585136413574" lon="2.67569160461426">
			<ele>48.9000015258789</ele>
			<time>2013-12-29T09:49:11Z</time>
		</trkpt>
		<trkpt lat="39.5585708618164" lon="2.67563676834106">
			<ele>48.7000007629395</ele>
			<time>2013-12-29T09:49:13Z</time>
		</trkpt>
		<trkpt lat="39.5586242675781" lon="2.67557239532471">
			<ele>48.7000007629395</ele>
			<time>2013-12-29T09:49:15Z</time>
		</trkpt>
		<trkpt lat="39.5586585998535" lon="2.67549514770508">
			<ele>48.5999984741211</ele>
			<time>2013-12-29T09:49:17Z</time>
		</trkpt>
		<trkpt lat="39.5586929321289" lon="2.6754138469696">
			<ele>48.7000007629395</ele>
			<time>2013-12-29T09:49:19Z</time>
		</trkpt>
		<trkpt lat="39.558723449707" lon="2.67532849311829">
			<ele>48.7000007629395</ele>
			<time>2013-12-29T09:49:21Z</time>
		</trkpt>
		<trkpt lat="39.5587348937988" lon="2.67523908615112">
			<ele>48.7999992370605</ele>
			<time>2013-12-29T09:49:23Z</time>
		</trkpt>
		<trkpt lat="39.5587310791016" lon="2.67514801025391">
			<ele>48.5</ele>
			<time>2013-12-29T09:49:25Z</time>
		</trkpt>
		<trkpt lat="39.5587196350098" lon="2.6750545501709">
			<ele>48.7000007629395</ele>
			<time>2013-12-29T09:49:27Z</time>
		</trkpt>
		<trkpt lat="39.5587043762207" lon="2.67495965957642">
			<ele>48.5999984741211</ele>
			<time>2013-12-29T09:49:29Z</time>
		</trkpt>
		<trkpt lat="39.5586891174316" lon="2.67485976219177">
			<ele>48.5</ele>
			<time>2013-12-29T09:49:31Z</time>
		</trkpt>
		<trkpt lat="39.5586776733398" lon="2.67476606369019">
			<ele>48.7999992370605</ele>
			<time>2013-12-29T09:49:33Z</time>
		</trkpt>
		<trkpt lat="39.5586624145508" lon="2.67467451095581">
			<ele>48.9000015258789</ele>
			<time>2013-12-29T09:49:35Z</time>
		</trkpt>
		<trkpt lat="39.558650970459" lon="2.67458319664001">
			<ele>49</ele>
			<time>2013-12-29T09:49:37Z</time>
		</trkpt>
		<trkpt lat="39.5586471557617" lon="2.67448592185974">
			<ele>49.5999984741211</ele>
			<time>2013-12-29T09:49:39Z</time>
		</trkpt>
		<trkpt lat="39.5586395263672" lon="2.67439246177673">
			<ele>49.7999992370605</ele>
			<time>2013-12-29T09:49:41Z</time>
		</trkpt>
		<trkpt lat="39.5586166381836" lon="2.67430090904236">
			<ele>50.2000007629395</ele>
			<time>2013-12-29T09:49:43Z</time>
		</trkpt>
		<trkpt lat="39.5585479736328" lon="2.67426252365112">
			<ele>51.0999984741211</ele>
			<time>2013-12-29T09:49:45Z</time>
		</trkpt>
		<trkpt lat="39.5584945678711" lon="2.67421984672546">
			<ele>51</ele>
			<time>2013-12-29T09:49:47Z</time>
		</trkpt>
		<trkpt lat="39.5584869384766" lon="2.67411828041077">
			<ele>50.7999992370605</ele>
			<time>2013-12-29T09:49:49Z</time>
		</trkpt>
		<trkpt lat="39.558479309082" lon="2.67401599884033">
			<ele>50.7999992370605</ele>
			<time>2013-12-29T09:49:51Z</time>
		</trkpt>
		<trkpt lat="39.5584907531738" lon="2.67391920089722">
			<ele>50.7000007629395</ele>
			<time>2013-12-29T09:49:53Z</time>
		</trkpt>
		<trkpt lat="39.5585098266602" lon="2.67383074760437">
			<ele>50.5</ele>
			<time>2013-12-29T09:49:55Z</time>
		</trkpt>
		<trkpt lat="39.558536529541" lon="2.67374587059021">
			<ele>50.5</ele>
			<time>2013-12-29T09:49:57Z</time>
		</trkpt>
		<trkpt lat="39.5585708618164" lon="2.67366695404053">
			<ele>50.2000007629395</ele>
			<time>2013-12-29T09:49:59Z</time>
		</trkpt>
		<trkpt lat="39.5586013793945" lon="2.67358684539795">
			<ele>50.0999984741211</ele>
			<time>2013-12-29T09:50:01Z</time>
		</trkpt>
		<trkpt lat="39.5586280822754" lon="2.67351198196411">
			<ele>49.7999992370605</ele>
			<time>2013-12-29T09:50:03Z</time>
		</trkpt>
		<trkpt lat="39.5586585998535" lon="2.67344689369202">
			<ele>49.9000015258789</ele>
			<time>2013-12-29T09:50:05Z</time>
		</trkpt>
		<trkpt lat="39.5586929321289" lon="2.67339515686035">
			<ele>49.9000015258789</ele>
			<time>2013-12-29T09:50:07Z</time>
		</trkpt>
		<trkpt lat="39.5587272644043" lon="2.67335367202759">
			<ele>49.7000007629395</ele>
			<time>2013-12-29T09:50:09Z</time>
		</trkpt>
		<trkpt lat="39.5587539672852" lon="2.6732931137085">
			<ele>49.7999992370605</ele>
			<time>2013-12-29T09:50:11Z</time>
		</trkpt>
		<trkpt lat="39.5587882995605" lon="2.67324662208557">
			<ele>50.0999984741211</ele>
			<time>2013-12-29T09:50:15Z</time>
		</trkpt>
		<trkpt lat="39.5588150024414" lon="2.67319369316101">
			<ele>49.9000015258789</ele>
			<time>2013-12-29T09:50:17Z</time>
		</trkpt>
		<trkpt lat="39.5588150024414" lon="2.67312979698181">
			<ele>50</ele>
			<time>2013-12-29T09:54:20Z</time>
		</trkpt>
		<trkpt lat="39.5588035583496" lon="2.67307305335999">
			<ele>49.7000007629395</ele>
			<time>2013-12-29T09:54:22Z</time>
		</trkpt>
		<trkpt lat="39.5588188171387" lon="2.67300319671631">
			<ele>49.7000007629395</ele>
			<time>2013-12-29T09:54:24Z</time>
		</trkpt>
		<trkpt lat="39.5588531494141" lon="2.67293763160706">
			<ele>49.5</ele>
			<time>2013-12-29T09:54:26Z</time>
		</trkpt>
		<trkpt lat="39.5588912963867" lon="2.67287421226501">
			<ele>49.5999984741211</ele>
			<time>2013-12-29T09:54:28Z</time>
		</trkpt>
		<trkpt lat="39.5589408874512" lon="2.67281770706177">
			<ele>49.5999984741211</ele>
			<time>2013-12-29T09:54:30Z</time>
		</trkpt>
		<trkpt lat="39.5589904785156" lon="2.672771692276">
			<ele>49.7000007629395</ele>
			<time>2013-12-29T09:54:32Z</time>
		</trkpt>
		<trkpt lat="39.5590400695801" lon="2.67273306846619">
			<ele>49.7999992370605</ele>
			<time>2013-12-29T09:54:34Z</time>
		</trkpt>
		<trkpt lat="39.5590972900391" lon="2.6727020740509">
			<ele>49.9000015258789</ele>
			<time>2013-12-29T09:54:36Z</time>
		</trkpt>
		<trkpt lat="39.5591583251953" lon="2.67268085479736">
			<ele>50</ele>
			<time>2013-12-29T09:54:38Z</time>
		</trkpt>
		<trkpt lat="39.5592155456543" lon="2.67267203330994">
			<ele>50.0999984741211</ele>
			<time>2013-12-29T09:54:40Z</time>
		</trkpt>
		<trkpt lat="39.5592765808105" lon="2.67267966270447">
			<ele>50</ele>
			<time>2013-12-29T09:54:42Z</time>
		</trkpt>
		<trkpt lat="39.559326171875" lon="2.6727147102356">
			<ele>50</ele>
			<time>2013-12-29T09:54:44Z</time>
		</trkpt>
		<trkpt lat="39.5593605041504" lon="2.67278361320496">
			<ele>50.0999984741211</ele>
			<time>2013-12-29T09:54:46Z</time>
		</trkpt>
		<trkpt lat="39.559398651123" lon="2.67284226417542">
			<ele>50.7000007629395</ele>
			<time>2013-12-29T09:54:48Z</time>
		</trkpt>
		<trkpt lat="39.559455871582" lon="2.67288088798523">
			<ele>50.7999992370605</ele>
			<time>2013-12-29T09:54:50Z</time>
		</trkpt>
		<trkpt lat="39.559513092041" lon="2.67292332649231">
			<ele>51.2999992370605</ele>
			<time>2013-12-29T09:54:52Z</time>
		</trkpt>
		<trkpt lat="39.5595703125" lon="2.67296719551086">
			<ele>51.0999984741211</ele>
			<time>2013-12-29T09:54:54Z</time>
		</trkpt>
		<trkpt lat="39.5596313476563" lon="2.67301154136658">
			<ele>51.0999984741211</ele>
			<time>2013-12-29T09:54:56Z</time>
		</trkpt>
		<trkpt lat="39.5596961975098" lon="2.67303586006165">
			<ele>51.2000007629395</ele>
			<time>2013-12-29T09:54:58Z</time>
		</trkpt>
		<trkpt lat="39.5597686767578" lon="2.67302560806274">
			<ele>51.0999984741211</ele>
			<time>2013-12-29T09:55:00Z</time>
		</trkpt>
		<trkpt lat="39.5598335266113" lon="2.67299962043762">
			<ele>51.2000007629395</ele>
			<time>2013-12-29T09:55:02Z</time>
		</trkpt>
		<trkpt lat="39.5598983764648" lon="2.67297577857971">
			<ele>51.2999992370605</ele>
			<time>2013-12-29T09:55:04Z</time>
		</trkpt>
		<trkpt lat="39.5599670410156" lon="2.67296624183655">
			<ele>51.2000007629395</ele>
			<time>2013-12-29T09:55:06Z</time>
		</trkpt>
		<trkpt lat="39.5600318908691" lon="2.67293238639832">
			<ele>51.2000007629395</ele>
			<time>2013-12-29T09:55:08Z</time>
		</trkpt>
		<trkpt lat="39.5600852966309" lon="2.6728732585907">
			<ele>51.2000007629395</ele>
			<time>2013-12-29T09:55:10Z</time>
		</trkpt>
		<trkpt lat="39.560131072998" lon="2.67280435562134">
			<ele>51.2000007629395</ele>
			<time>2013-12-29T09:55:12Z</time>
		</trkpt>
		<trkpt lat="39.5601768493652" lon="2.67273116111755">
			<ele>51.2999992370605</ele>
			<time>2013-12-29T09:55:14Z</time>
		</trkpt>
		<trkpt lat="39.5602226257324" lon="2.67265868186951">
			<ele>51.4000015258789</ele>
			<time>2013-12-29T09:55:16Z</time>
		</trkpt>
		<trkpt lat="39.5602569580078" lon="2.67257785797119">
			<ele>51.2999992370605</ele>
			<time>2013-12-29T09:55:18Z</time>
		</trkpt>
		<trkpt lat="39.5602722167969" lon="2.67248439788818">
			<ele>51.2999992370605</ele>
			<time>2013-12-29T09:55:20Z</time>
		</trkpt>
		<trkpt lat="39.560302734375" lon="2.67239618301392">
			<ele>51.2000007629395</ele>
			<time>2013-12-29T09:55:22Z</time>
		</trkpt>
		<trkpt lat="39.5603332519531" lon="2.67231059074402">
			<ele>51.2999992370605</ele>
			<time>2013-12-29T09:55:24Z</time>
		</trkpt>
		<trkpt lat="39.560359954834" lon="2.67222499847412">
			<ele>51.2000007629395</ele>
			<time>2013-12-29T09:55:26Z</time>
		</trkpt>
		<trkpt lat="39.5603866577148" lon="2.67213678359985">
			<ele>51.0999984741211</ele>
			<time>2013-12-29T09:55:28Z</time>
		</trkpt>
		<trkpt lat="39.5604095458984" lon="2.67205047607422">
			<ele>51</ele>
			<time>2013-12-29T09:55:30Z</time>
		</trkpt>
		<trkpt lat="39.5604286193848" lon="2.67196035385132">
			<ele>51.0999984741211</ele>
			<time>2013-12-29T09:55:32Z</time>
		</trkpt>
		<trkpt lat="39.5604438781738" lon="2.67186760902405">
			<ele>51.2000007629395</ele>
			<time>2013-12-29T09:55:34Z</time>
		</trkpt>
		<trkpt lat="39.5604553222656" lon="2.67176461219788">
			<ele>51.4000015258789</ele>
			<time>2013-12-29T09:55:36Z</time>
		</trkpt>
		<trkpt lat="39.5604515075684" lon="2.67166972160339">
			<ele>52.2999992370605</ele>
			<time>2013-12-29T09:55:38Z</time>
		</trkpt>
		<trkpt lat="39.5604286193848" lon="2.67158150672913">
			<ele>52.0999984741211</ele>
			<time>2013-12-29T09:55:40Z</time>
		</trkpt>
		<trkpt lat="39.5604057312012" lon="2.67149806022644">
			<ele>51.9000015258789</ele>
			<time>2013-12-29T09:55:42Z</time>
		</trkpt>
		<trkpt lat="39.5603713989258" lon="2.67139387130737">
			<ele>51.2000007629395</ele>
			<time>2013-12-29T09:55:43Z</time>
		</trkpt>
		<trkpt lat="39.5603561401367" lon="2.67133283615112">
			<ele>51</ele>
			<time>2013-12-29T09:55:45Z</time>
		</trkpt>
		<trkpt lat="39.5603446960449" lon="2.67127370834351">
			<ele>50.9000015258789</ele>
			<time>2013-12-29T09:55:46Z</time>
		</trkpt>
		<trkpt lat="39.5603370666504" lon="2.67116141319275">
			<ele>50.7000007629395</ele>
			<time>2013-12-29T09:55:48Z</time>
		</trkpt>
		<trkpt lat="39.5603256225586" lon="2.67105746269226">
			<ele>51</ele>
			<time>2013-12-29T09:55:50Z</time>
		</trkpt>
		<trkpt lat="39.5603179931641" lon="2.67096519470215">
			<ele>50.9000015258789</ele>
			<time>2013-12-29T09:55:52Z</time>
		</trkpt>
		<trkpt lat="39.5603408813477" lon="2.67088150978088">
			<ele>50.5</ele>
			<time>2013-12-29T09:55:54Z</time>
		</trkpt>
		<trkpt lat="39.5603828430176" lon="2.67080450057983">
			<ele>50.5999984741211</ele>
			<time>2013-12-29T09:55:56Z</time>
		</trkpt>
		<trkpt lat="39.5604476928711" lon="2.67075490951538">
			<ele>50.5</ele>
			<time>2013-12-29T09:55:58Z</time>
		</trkpt>
		<trkpt lat="39.5605201721191" lon="2.67074370384216">
			<ele>50.5999984741211</ele>
			<time>2013-12-29T09:56:00Z</time>
		</trkpt>
		<trkpt lat="39.5605926513672" lon="2.67075037956238">
			<ele>50.7000007629395</ele>
			<time>2013-12-29T09:56:02Z</time>
		</trkpt>
		<trkpt lat="39.5606689453125" lon="2.67075157165527">
			<ele>50.9000015258789</ele>
			<time>2013-12-29T09:56:04Z</time>
		</trkpt>
		<trkpt lat="39.5607414245605" lon="2.67075657844543">
			<ele>51</ele>
			<time>2013-12-29T09:56:06Z</time>
		</trkpt>
		<trkpt lat="39.5607986450195" lon="2.67074608802795">
			<ele>51.5999984741211</ele>
			<time>2013-12-29T09:56:08Z</time>
		</trkpt>
		<trkpt lat="39.560863494873" lon="2.67075943946838">
			<ele>52.5</ele>
			<time>2013-12-29T09:56:10Z</time>
		</trkpt>
		<trkpt lat="39.5609397888184" lon="2.67077159881592">
			<ele>53.2999992370605</ele>
			<time>2013-12-29T09:56:12Z</time>
		</trkpt>
		<trkpt lat="39.5610122680664" lon="2.67078447341919">
			<ele>53.2000007629395</ele>
			<time>2013-12-29T09:56:14Z</time>
		</trkpt>
		<trkpt lat="39.5610885620117" lon="2.67079591751099">
			<ele>53.5999984741211</ele>
			<time>2013-12-29T09:56:16Z</time>
		</trkpt>
		<trkpt lat="39.5611610412598" lon="2.67080283164978">
			<ele>53.5999984741211</ele>
			<time>2013-12-29T09:56:18Z</time>
		</trkpt>
		<trkpt lat="39.5612373352051" lon="2.67080903053284">
			<ele>53.7000007629395</ele>
			<time>2013-12-29T09:56:20Z</time>
		</trkpt>
		<trkpt lat="39.5613021850586" lon="2.67080497741699">
			<ele>53.9000015258789</ele>
			<time>2013-12-29T09:56:22Z</time>
		</trkpt>
		<trkpt lat="39.5613708496094" lon="2.67079925537109">
			<ele>54</ele>
			<time>2013-12-29T09:56:24Z</time>
		</trkpt>
		<trkpt lat="39.5614356994629" lon="2.6708037853241">
			<ele>54.5</ele>
			<time>2013-12-29T09:56:26Z</time>
		</trkpt>
		<trkpt lat="39.5615043640137" lon="2.67079925537109">
			<ele>54.4000015258789</ele>
			<time>2013-12-29T09:56:28Z</time>
		</trkpt>
		<trkpt lat="39.5615730285645" lon="2.67078804969788">
			<ele>54.2999992370605</ele>
			<time>2013-12-29T09:56:30Z</time>
		</trkpt>
		<trkpt lat="39.561637878418" lon="2.67076730728149">
			<ele>53.7000007629395</ele>
			<time>2013-12-29T09:56:32Z</time>
		</trkpt>
		<trkpt lat="39.5617027282715" lon="2.67072892189026">
			<ele>53.9000015258789</ele>
			<time>2013-12-29T09:56:34Z</time>
		</trkpt>
		<trkpt lat="39.561767578125" lon="2.67067503929138">
			<ele>53.9000015258789</ele>
			<time>2013-12-29T09:56:36Z</time>
		</trkpt>
		<trkpt lat="39.5618171691895" lon="2.67061376571655">
			<ele>54.0999984741211</ele>
			<time>2013-12-29T09:56:38Z</time>
		</trkpt>
		<trkpt lat="39.5618743896484" lon="2.67057037353516">
			<ele>54.5</ele>
			<time>2013-12-29T09:56:40Z</time>
		</trkpt>
		<trkpt lat="39.5619277954102" lon="2.67051696777344">
			<ele>54</ele>
			<time>2013-12-29T09:56:42Z</time>
		</trkpt>
		<trkpt lat="39.5619697570801" lon="2.67046070098877">
			<ele>54.0999984741211</ele>
			<time>2013-12-29T09:56:44Z</time>
		</trkpt>
		<trkpt lat="39.5620269775391" lon="2.67040181159973">
			<ele>53.5999984741211</ele>
			<time>2013-12-29T09:56:46Z</time>
		</trkpt>
		<trkpt lat="39.5620803833008" lon="2.67035365104675">
			<ele>53.5</ele>
			<time>2013-12-29T09:56:48Z</time>
		</trkpt>
		<trkpt lat="39.5621299743652" lon="2.67029857635498">
			<ele>52.9000015258789</ele>
			<time>2013-12-29T09:56:50Z</time>
		</trkpt>
		<trkpt lat="39.5621795654297" lon="2.67024159431458">
			<ele>52.5999984741211</ele>
			<time>2013-12-29T09:56:52Z</time>
		</trkpt>
		<trkpt lat="39.5622329711914" lon="2.67018818855286">
			<ele>52.2000007629395</ele>
			<time>2013-12-29T09:56:54Z</time>
		</trkpt>
		<trkpt lat="39.5622863769531" lon="2.67013454437256">
			<ele>52.5</ele>
			<time>2013-12-29T09:56:56Z</time>
		</trkpt>
		<trkpt lat="39.5623435974121" lon="2.67008280754089">
			<ele>52.7999992370605</ele>
			<time>2013-12-29T09:56:58Z</time>
		</trkpt>
		<trkpt lat="39.5623970031738" lon="2.67002725601196">
			<ele>53</ele>
			<time>2013-12-29T09:57:00Z</time>
		</trkpt>
		<trkpt lat="39.5624542236328" lon="2.66997003555298">
			<ele>52.7999992370605</ele>
			<time>2013-12-29T09:57:02Z</time>
		</trkpt>
		<trkpt lat="39.5625076293945" lon="2.66990804672241">
			<ele>53.2999992370605</ele>
			<time>2013-12-29T09:57:04Z</time>
		</trkpt>
		<trkpt lat="39.562557220459" lon="2.66984367370605">
			<ele>53.2999992370605</ele>
			<time>2013-12-29T09:57:06Z</time>
		</trkpt>
		<trkpt lat="39.5626068115234" lon="2.66977691650391">
			<ele>53.0999984741211</ele>
			<time>2013-12-29T09:57:08Z</time>
		</trkpt>
		<trkpt lat="39.5626564025879" lon="2.6697096824646">
			<ele>52.9000015258789</ele>
			<time>2013-12-29T09:57:10Z</time>
		</trkpt>
		<trkpt lat="39.5626945495605" lon="2.66963934898376">
			<ele>52.4000015258789</ele>
			<time>2013-12-29T09:57:12Z</time>
		</trkpt>
		<trkpt lat="39.562744140625" lon="2.66956949234009">
			<ele>52.4000015258789</ele>
			<time>2013-12-29T09:57:14Z</time>
		</trkpt>
		<trkpt lat="39.5627670288086" lon="2.66948342323303">
			<ele>52.2999992370605</ele>
			<time>2013-12-29T09:57:16Z</time>
		</trkpt>
		<trkpt lat="39.5627937316895" lon="2.66939949989319">
			<ele>52.2000007629395</ele>
			<time>2013-12-29T09:57:18Z</time>
		</trkpt>
		<trkpt lat="39.5628089904785" lon="2.66932106018066">
			<ele>52.0999984741211</ele>
			<time>2013-12-29T09:57:20Z</time>
		</trkpt>
		<trkpt lat="39.5628204345703" lon="2.66923570632935">
			<ele>51.5999984741211</ele>
			<time>2013-12-29T09:57:22Z</time>
		</trkpt>
		<trkpt lat="39.5628242492676" lon="2.66914820671082">
			<ele>51.7999992370605</ele>
			<time>2013-12-29T09:57:24Z</time>
		</trkpt>
		<trkpt lat="39.5628280639648" lon="2.6690571308136">
			<ele>51.5999984741211</ele>
			<time>2013-12-29T09:57:26Z</time>
		</trkpt>
		<trkpt lat="39.5628204345703" lon="2.66897130012512">
			<ele>51.7000007629395</ele>
			<time>2013-12-29T09:57:28Z</time>
		</trkpt>
		<trkpt lat="39.5628089904785" lon="2.6688859462738">
			<ele>51.7000007629395</ele>
			<time>2013-12-29T09:57:30Z</time>
		</trkpt>
		<trkpt lat="39.5627937316895" lon="2.66880130767822">
			<ele>51.7999992370605</ele>
			<time>2013-12-29T09:57:32Z</time>
		</trkpt>
		<trkpt lat="39.5627746582031" lon="2.66871762275696">
			<ele>51.5999984741211</ele>
			<time>2013-12-29T09:57:34Z</time>
		</trkpt>
		<trkpt lat="39.5627517700195" lon="2.66863131523132">
			<ele>51.7000007629395</ele>
			<time>2013-12-29T09:57:36Z</time>
		</trkpt>
		<trkpt lat="39.5627250671387" lon="2.66854667663574">
			<ele>51.7000007629395</ele>
			<time>2013-12-29T09:57:38Z</time>
		</trkpt>
		<trkpt lat="39.562686920166" lon="2.668461561203">
			<ele>51.7000007629395</ele>
			<time>2013-12-29T09:57:40Z</time>
		</trkpt>
		<trkpt lat="39.5626525878906" lon="2.66838598251343">
			<ele>51.0999984741211</ele>
			<time>2013-12-29T09:57:42Z</time>
		</trkpt>
		<trkpt lat="39.5626068115234" lon="2.66830587387085">
			<ele>50.9000015258789</ele>
			<time>2013-12-29T09:57:44Z</time>
		</trkpt>
		<trkpt lat="39.5625610351563" lon="2.66823124885559">
			<ele>50.7000007629395</ele>
			<time>2013-12-29T09:57:46Z</time>
		</trkpt>
		<trkpt lat="39.5625" lon="2.66816520690918">
			<ele>50.2999992370605</ele>
			<time>2013-12-29T09:57:48Z</time>
		</trkpt>
		<trkpt lat="39.5624389648438" lon="2.66809797286987">
			<ele>50.2000007629395</ele>
			<time>2013-12-29T09:57:50Z</time>
		</trkpt>
		<trkpt lat="39.562370300293" lon="2.6680428981781">
			<ele>50.2999992370605</ele>
			<time>2013-12-29T09:57:52Z</time>
		</trkpt>
		<trkpt lat="39.5623016357422" lon="2.66799139976501">
			<ele>50</ele>
			<time>2013-12-29T09:57:54Z</time>
		</trkpt>
		<trkpt lat="39.5622291564941" lon="2.66794776916504">
			<ele>50</ele>
			<time>2013-12-29T09:57:56Z</time>
		</trkpt>
		<trkpt lat="39.5621528625488" lon="2.66790437698364">
			<ele>50.2999992370605</ele>
			<time>2013-12-29T09:57:58Z</time>
		</trkpt>
		<trkpt lat="39.562084197998" lon="2.6678614616394">
			<ele>50.7000007629395</ele>
			<time>2013-12-29T09:58:00Z</time>
		</trkpt>
		<trkpt lat="39.5620155334473" lon="2.6678159236908">
			<ele>50.5999984741211</ele>
			<time>2013-12-29T09:58:02Z</time>
		</trkpt>
		<trkpt lat="39.561954498291" lon="2.66775131225586">
			<ele>50.5</ele>
			<time>2013-12-29T09:58:04Z</time>
		</trkpt>
		<trkpt lat="39.5619201660156" lon="2.66766142845154">
			<ele>50.5999984741211</ele>
			<time>2013-12-29T09:58:06Z</time>
		</trkpt>
		<trkpt lat="39.5618896484375" lon="2.66756105422974">
			<ele>50.7000007629395</ele>
			<time>2013-12-29T09:58:08Z</time>
		</trkpt>
		<trkpt lat="39.5618667602539" lon="2.66745972633362">
			<ele>50.5999984741211</ele>
			<time>2013-12-29T09:58:10Z</time>
		</trkpt>
		<trkpt lat="39.5618324279785" lon="2.66736006736755">
			<ele>50.7000007629395</ele>
			<time>2013-12-29T09:58:12Z</time>
		</trkpt>
		<trkpt lat="39.561767578125" lon="2.66729426383972">
			<ele>51.0999984741211</ele>
			<time>2013-12-29T09:58:14Z</time>
		</trkpt>
		<trkpt lat="39.5616912841797" lon="2.6672523021698">
			<ele>50.9000015258789</ele>
			<time>2013-12-29T09:58:16Z</time>
		</trkpt>
		<trkpt lat="39.5616111755371" lon="2.66721129417419">
			<ele>51.5999984741211</ele>
			<time>2013-12-29T09:58:18Z</time>
		</trkpt>
		<trkpt lat="39.5615386962891" lon="2.66717076301575">
			<ele>51.0999984741211</ele>
			<time>2013-12-29T09:58:20Z</time>
		</trkpt>
		<trkpt lat="39.561466217041" lon="2.66712760925293">
			<ele>51.9000015258789</ele>
			<time>2013-12-29T09:58:22Z</time>
		</trkpt>
		<trkpt lat="39.5613899230957" lon="2.66709136962891">
			<ele>52</ele>
			<time>2013-12-29T09:58:24Z</time>
		</trkpt>
		<trkpt lat="39.5613098144531" lon="2.667076587677">
			<ele>52.0999984741211</ele>
			<time>2013-12-29T09:58:26Z</time>
		</trkpt>
		<trkpt lat="39.5612297058105" lon="2.66704607009888">
			<ele>52.2000007629395</ele>
			<time>2013-12-29T09:58:28Z</time>
		</trkpt>
		<trkpt lat="39.5611572265625" lon="2.66699957847595">
			<ele>52.2999992370605</ele>
			<time>2013-12-29T09:58:30Z</time>
		</trkpt>
		<trkpt lat="39.5610961914063" lon="2.66693496704102">
			<ele>52.4000015258789</ele>
			<time>2013-12-29T09:58:32Z</time>
		</trkpt>
		<trkpt lat="39.5610389709473" lon="2.6668689250946">
			<ele>52.2999992370605</ele>
			<time>2013-12-29T09:58:34Z</time>
		</trkpt>
		<trkpt lat="39.560962677002" lon="2.6668438911438">
			<ele>52.0999984741211</ele>
			<time>2013-12-29T09:58:36Z</time>
		</trkpt>
		<trkpt lat="39.560905456543" lon="2.6667788028717">
			<ele>52.2000007629395</ele>
			<time>2013-12-29T09:58:38Z</time>
		</trkpt>
		<trkpt lat="39.5609436035156" lon="2.66669416427612">
			<ele>52.4000015258789</ele>
			<time>2013-12-29T09:58:40Z</time>
		</trkpt>
		<trkpt lat="39.560977935791" lon="2.66661047935486">
			<ele>52.2000007629395</ele>
			<time>2013-12-29T09:58:42Z</time>
		</trkpt>
		<trkpt lat="39.5610084533691" lon="2.66652131080627">
			<ele>52.2999992370605</ele>
			<time>2013-12-29T09:58:44Z</time>
		</trkpt>
		<trkpt lat="39.5610389709473" lon="2.66643381118774">
			<ele>52.2999992370605</ele>
			<time>2013-12-29T09:58:46Z</time>
		</trkpt>
		<trkpt lat="39.5610694885254" lon="2.66634583473206">
			<ele>52.0999984741211</ele>
			<time>2013-12-29T09:58:48Z</time>
		</trkpt>
		<trkpt lat="39.5611000061035" lon="2.66625833511353">
			<ele>52.2000007629395</ele>
			<time>2013-12-29T09:58:50Z</time>
		</trkpt>
		<trkpt lat="39.5611305236816" lon="2.66617393493652">
			<ele>52.2999992370605</ele>
			<time>2013-12-29T09:58:52Z</time>
		</trkpt>
		<trkpt lat="39.561164855957" lon="2.66608929634094">
			<ele>52.4000015258789</ele>
			<time>2013-12-29T09:58:54Z</time>
		</trkpt>
		<trkpt lat="39.5611953735352" lon="2.6660041809082">
			<ele>52.4000015258789</ele>
			<time>2013-12-29T09:58:56Z</time>
		</trkpt>
		<trkpt lat="39.5612258911133" lon="2.66592192649841">
			<ele>52.4000015258789</ele>
			<time>2013-12-29T09:58:58Z</time>
		</trkpt>
		<trkpt lat="39.5612564086914" lon="2.66583919525146">
			<ele>52.5999984741211</ele>
			<time>2013-12-29T09:59:00Z</time>
		</trkpt>
		<trkpt lat="39.5612869262695" lon="2.66575574874878">
			<ele>52.7000007629395</ele>
			<time>2013-12-29T09:59:02Z</time>
		</trkpt>
		<trkpt lat="39.5613212585449" lon="2.66567397117615">
			<ele>52.5999984741211</ele>
			<time>2013-12-29T09:59:04Z</time>
		</trkpt>
		<trkpt lat="39.5613479614258" lon="2.66559362411499">
			<ele>52.5999984741211</ele>
			<time>2013-12-29T09:59:06Z</time>
		</trkpt>
		<trkpt lat="39.5613784790039" lon="2.66551351547241">
			<ele>52.5999984741211</ele>
			<time>2013-12-29T09:59:08Z</time>
		</trkpt>
		<trkpt lat="39.5614051818848" lon="2.66543245315552">
			<ele>52.5</ele>
			<time>2013-12-29T09:59:10Z</time>
		</trkpt>
		<trkpt lat="39.5614356994629" lon="2.6653516292572">
			<ele>52.4000015258789</ele>
			<time>2013-12-29T09:59:12Z</time>
		</trkpt>
		<trkpt lat="39.561466217041" lon="2.66527223587036">
			<ele>52.4000015258789</ele>
			<time>2013-12-29T09:59:14Z</time>
		</trkpt>
		<trkpt lat="39.5614967346191" lon="2.66519165039063">
			<ele>52.2000007629395</ele>
			<time>2013-12-29T09:59:16Z</time>
		</trkpt>
		<trkpt lat="39.5615234375" lon="2.66510844230652">
			<ele>52.2999992370605</ele>
			<time>2013-12-29T09:59:18Z</time>
		</trkpt>
		<trkpt lat="39.5615539550781" lon="2.66502714157104">
			<ele>52.2000007629395</ele>
			<time>2013-12-29T09:59:20Z</time>
		</trkpt>
		<trkpt lat="39.561580657959" lon="2.66494274139404">
			<ele>52.2000007629395</ele>
			<time>2013-12-29T09:59:22Z</time>
		</trkpt>
		<trkpt lat="39.5616149902344" lon="2.66486382484436">
			<ele>52.2999992370605</ele>
			<time>2013-12-29T09:59:24Z</time>
		</trkpt>
		<trkpt lat="39.5616416931152" lon="2.6647801399231">
			<ele>52.5</ele>
			<time>2013-12-29T09:59:26Z</time>
		</trkpt>
		<trkpt lat="39.5616722106934" lon="2.66469955444336">
			<ele>52.5</ele>
			<time>2013-12-29T09:59:28Z</time>
		</trkpt>
		<trkpt lat="39.5616989135742" lon="2.66462302207947">
			<ele>52.0999984741211</ele>
			<time>2013-12-29T09:59:30Z</time>
		</trkpt>
		<trkpt lat="39.5617294311523" lon="2.66454672813416">
			<ele>51.9000015258789</ele>
			<time>2013-12-29T09:59:32Z</time>
		</trkpt>
		<trkpt lat="39.5617561340332" lon="2.66446733474731">
			<ele>52</ele>
			<time>2013-12-29T09:59:34Z</time>
		</trkpt>
		<trkpt lat="39.5617866516113" lon="2.66438603401184">
			<ele>51.9000015258789</ele>
			<time>2013-12-29T09:59:36Z</time>
		</trkpt>
		<trkpt lat="39.5618209838867" lon="2.66430568695068">
			<ele>52</ele>
			<time>2013-12-29T09:59:38Z</time>
		</trkpt>
		<trkpt lat="39.5618515014648" lon="2.66422295570374">
			<ele>51.9000015258789</ele>
			<time>2013-12-29T09:59:40Z</time>
		</trkpt>
		<trkpt lat="39.5618782043457" lon="2.66414475440979">
			<ele>52</ele>
			<time>2013-12-29T09:59:42Z</time>
		</trkpt>
		<trkpt lat="39.5619049072266" lon="2.66406273841858">
			<ele>51.7999992370605</ele>
			<time>2013-12-29T09:59:44Z</time>
		</trkpt>
		<trkpt lat="39.5619354248047" lon="2.66398000717163">
			<ele>52</ele>
			<time>2013-12-29T09:59:46Z</time>
		</trkpt>
		<trkpt lat="39.5619621276855" lon="2.66390132904053">
			<ele>51.7999992370605</ele>
			<time>2013-12-29T09:59:48Z</time>
		</trkpt>
		<trkpt lat="39.5619888305664" lon="2.66382122039795">
			<ele>51.9000015258789</ele>
			<time>2013-12-29T09:59:50Z</time>
		</trkpt>
		<trkpt lat="39.5620193481445" lon="2.66374135017395">
			<ele>52.2000007629395</ele>
			<time>2013-12-29T09:59:52Z</time>
		</trkpt>
		<trkpt lat="39.5620498657227" lon="2.66366291046143">
			<ele>52.2000007629395</ele>
			<time>2013-12-29T09:59:54Z</time>
		</trkpt>
		<trkpt lat="39.5620803833008" lon="2.66358780860901">
			<ele>52.2000007629395</ele>
			<time>2013-12-29T09:59:56Z</time>
		</trkpt>
		<trkpt lat="39.5621147155762" lon="2.66350746154785">
			<ele>52.7000007629395</ele>
			<time>2013-12-29T09:59:58Z</time>
		</trkpt>
		<trkpt lat="39.5621490478516" lon="2.66343212127686">
			<ele>53.2999992370605</ele>
			<time>2013-12-29T10:00:00Z</time>
		</trkpt>
		<trkpt lat="39.562183380127" lon="2.66335701942444">
			<ele>53.5</ele>
			<time>2013-12-29T10:00:02Z</time>
		</trkpt>
		<trkpt lat="39.5622177124023" lon="2.66328883171082">
			<ele>53.7000007629395</ele>
			<time>2013-12-29T10:00:04Z</time>
		</trkpt>
		<trkpt lat="39.5622482299805" lon="2.66322255134583">
			<ele>53.4000015258789</ele>
			<time>2013-12-29T10:00:06Z</time>
		</trkpt>
		<trkpt lat="39.5622825622559" lon="2.66315126419067">
			<ele>53.4000015258789</ele>
			<time>2013-12-29T10:00:08Z</time>
		</trkpt>
		<trkpt lat="39.5623207092285" lon="2.66308164596558">
			<ele>53.2999992370605</ele>
			<time>2013-12-29T10:00:10Z</time>
		</trkpt>
		<trkpt lat="39.5623626708984" lon="2.66300892829895">
			<ele>53.4000015258789</ele>
			<time>2013-12-29T10:00:12Z</time>
		</trkpt>
		<trkpt lat="39.5624008178711" lon="2.66293621063232">
			<ele>53.4000015258789</ele>
			<time>2013-12-29T10:00:14Z</time>
		</trkpt>
		<trkpt lat="39.5624389648438" lon="2.66286277770996">
			<ele>53.2999992370605</ele>
			<time>2013-12-29T10:00:16Z</time>
		</trkpt>
		<trkpt lat="39.5624771118164" lon="2.66278719902039">
			<ele>53.2999992370605</ele>
			<time>2013-12-29T10:00:18Z</time>
		</trkpt>
		<trkpt lat="39.5625152587891" lon="2.66271305084229">
			<ele>53.2000007629395</ele>
			<time>2013-12-29T10:00:20Z</time>
		</trkpt>
		<trkpt lat="39.5625495910645" lon="2.66263580322266">
			<ele>53.2999992370605</ele>
			<time>2013-12-29T10:00:22Z</time>
		</trkpt>
		<trkpt lat="39.5625839233398" lon="2.66255855560303">
			<ele>53.4000015258789</ele>
			<time>2013-12-29T10:00:24Z</time>
		</trkpt>
		<trkpt lat="39.5626220703125" lon="2.66247606277466">
			<ele>53.5</ele>
			<time>2013-12-29T10:00:26Z</time>
		</trkpt>
		<trkpt lat="39.5626525878906" lon="2.66239786148071">
			<ele>53.7999992370605</ele>
			<time>2013-12-29T10:00:28Z</time>
		</trkpt>
		<trkpt lat="39.5626831054688" lon="2.66232204437256">
			<ele>53.9000015258789</ele>
			<time>2013-12-29T10:00:30Z</time>
		</trkpt>
		<trkpt lat="39.5627136230469" lon="2.66224551200867">
			<ele>54</ele>
			<time>2013-12-29T10:00:32Z</time>
		</trkpt>
		<trkpt lat="39.5627365112305" lon="2.66216278076172">
			<ele>54.0999984741211</ele>
			<time>2013-12-29T10:00:34Z</time>
		</trkpt>
		<trkpt lat="39.5627632141113" lon="2.66208052635193">
			<ele>54.2999992370605</ele>
			<time>2013-12-29T10:00:36Z</time>
		</trkpt>
		<trkpt lat="39.5627861022949" lon="2.6619975566864">
			<ele>54.5</ele>
			<time>2013-12-29T10:00:38Z</time>
		</trkpt>
		<trkpt lat="39.5628089904785" lon="2.6619188785553">
			<ele>54.4000015258789</ele>
			<time>2013-12-29T10:00:40Z</time>
		</trkpt>
		<trkpt lat="39.5628318786621" lon="2.66183757781982">
			<ele>54.2999992370605</ele>
			<time>2013-12-29T10:00:42Z</time>
		</trkpt>
		<trkpt lat="39.5628547668457" lon="2.66175675392151">
			<ele>54.2000007629395</ele>
			<time>2013-12-29T10:00:44Z</time>
		</trkpt>
		<trkpt lat="39.562873840332" lon="2.66167688369751">
			<ele>54.0999984741211</ele>
			<time>2013-12-29T10:00:46Z</time>
		</trkpt>
		<trkpt lat="39.5628967285156" lon="2.66159510612488">
			<ele>53.9000015258789</ele>
			<time>2013-12-29T10:00:48Z</time>
		</trkpt>
		<trkpt lat="39.5629196166992" lon="2.66151165962219">
			<ele>53.9000015258789</ele>
			<time>2013-12-29T10:00:50Z</time>
		</trkpt>
		<trkpt lat="39.5629425048828" lon="2.66142582893372">
			<ele>53.9000015258789</ele>
			<time>2013-12-29T10:00:52Z</time>
		</trkpt>
		<trkpt lat="39.5629653930664" lon="2.66133999824524">
			<ele>53.9000015258789</ele>
			<time>2013-12-29T10:00:54Z</time>
		</trkpt>
		<trkpt lat="39.56298828125" lon="2.66124963760376">
			<ele>54</ele>
			<time>2013-12-29T10:00:56Z</time>
		</trkpt>
		<trkpt lat="39.5630149841309" lon="2.66116404533386">
			<ele>54</ele>
			<time>2013-12-29T10:00:58Z</time>
		</trkpt>
		<trkpt lat="39.563045501709" lon="2.66107821464539">
			<ele>53.7999992370605</ele>
			<time>2013-12-29T10:01:00Z</time>
		</trkpt>
		<trkpt lat="39.5630683898926" lon="2.66098856925964">
			<ele>53.9000015258789</ele>
			<time>2013-12-29T10:01:02Z</time>
		</trkpt>
		<trkpt lat="39.5630989074707" lon="2.66089940071106">
			<ele>53.5999984741211</ele>
			<time>2013-12-29T10:01:04Z</time>
		</trkpt>
		<trkpt lat="39.5631294250488" lon="2.66081213951111">
			<ele>53.7000007629395</ele>
			<time>2013-12-29T10:01:06Z</time>
		</trkpt>
		<trkpt lat="39.563159942627" lon="2.66072678565979">
			<ele>53.5</ele>
			<time>2013-12-29T10:01:08Z</time>
		</trkpt>
		<trkpt lat="39.5631866455078" lon="2.66063714027405">
			<ele>53.2000007629395</ele>
			<time>2013-12-29T10:01:10Z</time>
		</trkpt>
		<trkpt lat="39.5632209777832" lon="2.6605486869812">
			<ele>53.2000007629395</ele>
			<time>2013-12-29T10:01:12Z</time>
		</trkpt>
		<trkpt lat="39.5632476806641" lon="2.6604597568512">
			<ele>53.2000007629395</ele>
			<time>2013-12-29T10:01:14Z</time>
		</trkpt>
		<trkpt lat="39.5632781982422" lon="2.66037511825562">
			<ele>53.2999992370605</ele>
			<time>2013-12-29T10:01:16Z</time>
		</trkpt>
		<trkpt lat="39.563304901123" lon="2.66029405593872">
			<ele>53.4000015258789</ele>
			<time>2013-12-29T10:01:18Z</time>
		</trkpt>
		<trkpt lat="39.5633354187012" lon="2.66021037101746">
			<ele>53.5</ele>
			<time>2013-12-29T10:01:20Z</time>
		</trkpt>
		<trkpt lat="39.5633659362793" lon="2.66013145446777">
			<ele>53.4000015258789</ele>
			<time>2013-12-29T10:01:22Z</time>
		</trkpt>
		<trkpt lat="39.5633964538574" lon="2.66004872322083">
			<ele>53.5</ele>
			<time>2013-12-29T10:01:24Z</time>
		</trkpt>
		<trkpt lat="39.5634231567383" lon="2.65996718406677">
			<ele>53.5999984741211</ele>
			<time>2013-12-29T10:01:26Z</time>
		</trkpt>
		<trkpt lat="39.5634536743164" lon="2.65988564491272">
			<ele>53.4000015258789</ele>
			<time>2013-12-29T10:01:28Z</time>
		</trkpt>
		<trkpt lat="39.5634880065918" lon="2.65979981422424">
			<ele>53.0999984741211</ele>
			<time>2013-12-29T10:01:30Z</time>
		</trkpt>
		<trkpt lat="39.5635185241699" lon="2.65970754623413">
			<ele>53</ele>
			<time>2013-12-29T10:01:32Z</time>
		</trkpt>
		<trkpt lat="39.563549041748" lon="2.65961837768555">
			<ele>52.7999992370605</ele>
			<time>2013-12-29T10:01:34Z</time>
		</trkpt>
		<trkpt lat="39.5635833740234" lon="2.65953159332275">
			<ele>52.9000015258789</ele>
			<time>2013-12-29T10:01:36Z</time>
		</trkpt>
		<trkpt lat="39.5636138916016" lon="2.65944695472717">
			<ele>53</ele>
			<time>2013-12-29T10:01:38Z</time>
		</trkpt>
		<trkpt lat="39.5636405944824" lon="2.65935921669006">
			<ele>53</ele>
			<time>2013-12-29T10:01:40Z</time>
		</trkpt>
		<trkpt lat="39.5636749267578" lon="2.65927481651306">
			<ele>53.0999984741211</ele>
			<time>2013-12-29T10:01:42Z</time>
		</trkpt>
		<trkpt lat="39.5637054443359" lon="2.65918803215027">
			<ele>53.2000007629395</ele>
			<time>2013-12-29T10:01:44Z</time>
		</trkpt>
		<trkpt lat="39.5637359619141" lon="2.659104347229">
			<ele>53</ele>
			<time>2013-12-29T10:01:46Z</time>
		</trkpt>
		<trkpt lat="39.5637626647949" lon="2.65902233123779">
			<ele>53</ele>
			<time>2013-12-29T10:01:48Z</time>
		</trkpt>
		<trkpt lat="39.563793182373" lon="2.65893721580505">
			<ele>53</ele>
			<time>2013-12-29T10:01:50Z</time>
		</trkpt>
		<trkpt lat="39.5638198852539" lon="2.65885734558105">
			<ele>53</ele>
			<time>2013-12-29T10:01:52Z</time>
		</trkpt>
		<trkpt lat="39.5638465881348" lon="2.65877723693848">
			<ele>52.9000015258789</ele>
			<time>2013-12-29T10:01:54Z</time>
		</trkpt>
		<trkpt lat="39.5638618469238" lon="2.65868830680847">
			<ele>53.0999984741211</ele>
			<time>2013-12-29T10:01:56Z</time>
		</trkpt>
		<trkpt lat="39.5638885498047" lon="2.65860366821289">
			<ele>53</ele>
			<time>2013-12-29T10:01:58Z</time>
		</trkpt>
		<trkpt lat="39.5639152526855" lon="2.65852093696594">
			<ele>52.9000015258789</ele>
			<time>2013-12-29T10:02:00Z</time>
		</trkpt>
		<trkpt lat="39.5639457702637" lon="2.65843796730042">
			<ele>53.0999984741211</ele>
			<time>2013-12-29T10:02:02Z</time>
		</trkpt>
		<trkpt lat="39.5639686584473" lon="2.65835547447205">
			<ele>53</ele>
			<time>2013-12-29T10:02:04Z</time>
		</trkpt>
		<trkpt lat="39.5639991760254" lon="2.65826821327209">
			<ele>53.2999992370605</ele>
			<time>2013-12-29T10:02:06Z</time>
		</trkpt>
		<trkpt lat="39.564022064209" lon="2.65818119049072">
			<ele>53.5</ele>
			<time>2013-12-29T10:02:08Z</time>
		</trkpt>
		<trkpt lat="39.5640487670898" lon="2.65809440612793">
			<ele>53.4000015258789</ele>
			<time>2013-12-29T10:02:10Z</time>
		</trkpt>
		<trkpt lat="39.5640754699707" lon="2.65800905227661">
			<ele>53.5999984741211</ele>
			<time>2013-12-29T10:02:12Z</time>
		</trkpt>
		<trkpt lat="39.5641059875488" lon="2.65792393684387">
			<ele>53.5999984741211</ele>
			<time>2013-12-29T10:02:14Z</time>
		</trkpt>
		<trkpt lat="39.5641288757324" lon="2.65784335136414">
			<ele>53.7000007629395</ele>
			<time>2013-12-29T10:02:16Z</time>
		</trkpt>
		<trkpt lat="39.5641479492188" lon="2.65776205062866">
			<ele>53.7000007629395</ele>
			<time>2013-12-29T10:02:18Z</time>
		</trkpt>
		<trkpt lat="39.5641555786133" lon="2.65766835212708">
			<ele>53.7000007629395</ele>
			<time>2013-12-29T10:02:20Z</time>
		</trkpt>
		<trkpt lat="39.5641670227051" lon="2.65757465362549">
			<ele>53.7999992370605</ele>
			<time>2013-12-29T10:02:22Z</time>
		</trkpt>
		<trkpt lat="39.5641708374023" lon="2.65748262405396">
			<ele>54</ele>
			<time>2013-12-29T10:02:24Z</time>
		</trkpt>
		<trkpt lat="39.5641746520996" lon="2.65739107131958">
			<ele>53.9000015258789</ele>
			<time>2013-12-29T10:02:26Z</time>
		</trkpt>
		<trkpt lat="39.5641784667969" lon="2.65730166435242">
			<ele>53.7999992370605</ele>
			<time>2013-12-29T10:02:28Z</time>
		</trkpt>
		<trkpt lat="39.5641822814941" lon="2.65720796585083">
			<ele>53.7000007629395</ele>
			<time>2013-12-29T10:02:30Z</time>
		</trkpt>
		<trkpt lat="39.5641822814941" lon="2.6571102142334">
			<ele>53.7999992370605</ele>
			<time>2013-12-29T10:02:32Z</time>
		</trkpt>
		<trkpt lat="39.5641822814941" lon="2.65701746940613">
			<ele>53.9000015258789</ele>
			<time>2013-12-29T10:02:34Z</time>
		</trkpt>
		<trkpt lat="39.5641822814941" lon="2.6569230556488">
			<ele>53.9000015258789</ele>
			<time>2013-12-29T10:02:36Z</time>
		</trkpt>
		<trkpt lat="39.5641860961914" lon="2.6568284034729">
			<ele>54</ele>
			<time>2013-12-29T10:02:38Z</time>
		</trkpt>
		<trkpt lat="39.5641822814941" lon="2.65673446655273">
			<ele>54</ele>
			<time>2013-12-29T10:02:40Z</time>
		</trkpt>
		<trkpt lat="39.5641822814941" lon="2.65663957595825">
			<ele>54.0999984741211</ele>
			<time>2013-12-29T10:02:42Z</time>
		</trkpt>
		<trkpt lat="39.5641822814941" lon="2.6565477848053">
			<ele>54</ele>
			<time>2013-12-29T10:02:44Z</time>
		</trkpt>
		<trkpt lat="39.5641746520996" lon="2.6564633846283">
			<ele>53.9000015258789</ele>
			<time>2013-12-29T10:02:46Z</time>
		</trkpt>
		<trkpt lat="39.5641708374023" lon="2.65639162063599">
			<ele>54</ele>
			<time>2013-12-29T10:02:48Z</time>
		</trkpt>
		<trkpt lat="39.5641975402832" lon="2.6564633846283">
			<ele>53.5999984741211</ele>
			<time>2013-12-29T10:02:54Z</time>
		</trkpt>
		<trkpt lat="39.5642204284668" lon="2.65652775764465">
			<ele>53.7000007629395</ele>
			<time>2013-12-29T10:02:58Z</time>
		</trkpt>
		<trkpt lat="39.5642852783203" lon="2.65652418136597">
			<ele>53</ele>
			<time>2013-12-29T10:03:00Z</time>
		</trkpt>
		<trkpt lat="39.5643463134766" lon="2.65651178359985">
			<ele>53.2999992370605</ele>
			<time>2013-12-29T10:03:03Z</time>
		</trkpt>
		<trkpt lat="39.5643882751465" lon="2.65646815299988">
			<ele>53.2000007629395</ele>
			<time>2013-12-29T10:03:05Z</time>
		</trkpt>
		<trkpt lat="39.5644187927246" lon="2.656409740448">
			<ele>53.0999984741211</ele>
			<time>2013-12-29T10:03:06Z</time>
		</trkpt>
		<trkpt lat="39.5644836425781" lon="2.65638709068298">
			<ele>52.7999992370605</ele>
			<time>2013-12-29T10:03:09Z</time>
		</trkpt>
		<trkpt lat="39.5645523071289" lon="2.65635442733765">
			<ele>53</ele>
			<time>2013-12-29T10:03:11Z</time>
		</trkpt>
		<trkpt lat="39.5646133422852" lon="2.65634346008301">
			<ele>53</ele>
			<time>2013-12-29T10:03:13Z</time>
		</trkpt>
		<trkpt lat="39.5646629333496" lon="2.6563515663147">
			<ele>53.0999984741211</ele>
			<time>2013-12-29T10:03:15Z</time>
		</trkpt>
		<trkpt lat="39.5647277832031" lon="2.65634703636169">
			<ele>53.5999984741211</ele>
			<time>2013-12-29T10:03:17Z</time>
		</trkpt>
		<trkpt lat="39.5647735595703" lon="2.65633201599121">
			<ele>53.7999992370605</ele>
			<time>2013-12-29T10:03:21Z</time>
		</trkpt>
		<trkpt lat="39.5647621154785" lon="2.65626740455627">
			<ele>54.0999984741211</ele>
			<time>2013-12-29T10:03:24Z</time>
		</trkpt>
		<trkpt lat="39.5647850036621" lon="2.65632343292236">
			<ele>52.5999984741211</ele>
			<time>2013-12-29T10:04:22Z</time>
		</trkpt>
		<trkpt lat="39.5648231506348" lon="2.65636348724365">
			<ele>53.0999984741211</ele>
			<time>2013-12-29T10:04:24Z</time>
		</trkpt>
		<trkpt lat="39.5648765563965" lon="2.65638518333435">
			<ele>53</ele>
			<time>2013-12-29T10:04:26Z</time>
		</trkpt>
		<trkpt lat="39.56494140625" lon="2.65639424324036">
			<ele>53.0999984741211</ele>
			<time>2013-12-29T10:04:28Z</time>
		</trkpt>
		<trkpt lat="39.5650024414063" lon="2.65640068054199">
			<ele>53.5999984741211</ele>
			<time>2013-12-29T10:04:30Z</time>
		</trkpt>
		<trkpt lat="39.5650634765625" lon="2.65640616416931">
			<ele>54</ele>
			<time>2013-12-29T10:04:32Z</time>
		</trkpt>
		<trkpt lat="39.565128326416" lon="2.656414270401">
			<ele>54.7000007629395</ele>
			<time>2013-12-29T10:04:34Z</time>
		</trkpt>
		<trkpt lat="39.5651893615723" lon="2.65642118453979">
			<ele>55.2999992370605</ele>
			<time>2013-12-29T10:04:36Z</time>
		</trkpt>
		<trkpt lat="39.5652503967285" lon="2.6564314365387">
			<ele>55.5999984741211</ele>
			<time>2013-12-29T10:04:38Z</time>
		</trkpt>
		<trkpt lat="39.565315246582" lon="2.65643644332886">
			<ele>55.9000015258789</ele>
			<time>2013-12-29T10:04:40Z</time>
		</trkpt>
		<trkpt lat="39.5653762817383" lon="2.65644121170044">
			<ele>56</ele>
			<time>2013-12-29T10:04:42Z</time>
		</trkpt>
		<trkpt lat="39.5654335021973" lon="2.65642905235291">
			<ele>56.4000015258789</ele>
			<time>2013-12-29T10:04:44Z</time>
		</trkpt>
		<trkpt lat="39.5654907226563" lon="2.65644264221191">
			<ele>56.5</ele>
			<time>2013-12-29T10:04:46Z</time>
		</trkpt>
		<trkpt lat="39.565544128418" lon="2.65646481513977">
			<ele>56.7999992370605</ele>
			<time>2013-12-29T10:04:48Z</time>
		</trkpt>
		<trkpt lat="39.565601348877" lon="2.65646648406982">
			<ele>57.2999992370605</ele>
			<time>2013-12-29T10:04:49Z</time>
		</trkpt>
		<trkpt lat="39.5656585693359" lon="2.65647125244141">
			<ele>57.7000007629395</ele>
			<time>2013-12-29T10:04:52Z</time>
		</trkpt>
		<trkpt lat="39.5657196044922" lon="2.65647411346436">
			<ele>58.0999984741211</ele>
			<time>2013-12-29T10:04:54Z</time>
		</trkpt>
		<trkpt lat="39.5657806396484" lon="2.65647530555725">
			<ele>58.2999992370605</ele>
			<time>2013-12-29T10:04:56Z</time>
		</trkpt>
		<trkpt lat="39.5658416748047" lon="2.65647649765015">
			<ele>58.4000015258789</ele>
			<time>2013-12-29T10:04:58Z</time>
		</trkpt>
		<trkpt lat="39.5659103393555" lon="2.65648174285889">
			<ele>58.7999992370605</ele>
			<time>2013-12-29T10:05:00Z</time>
		</trkpt>
		<trkpt lat="39.5659675598145" lon="2.656489610672">
			<ele>59</ele>
			<time>2013-12-29T10:05:02Z</time>
		</trkpt>
		<trkpt lat="39.5660285949707" lon="2.65649461746216">
			<ele>59</ele>
			<time>2013-12-29T10:05:04Z</time>
		</trkpt>
		<trkpt lat="39.566089630127" lon="2.65649819374084">
			<ele>59.2000007629395</ele>
			<time>2013-12-29T10:05:06Z</time>
		</trkpt>
		<trkpt lat="39.5661430358887" lon="2.65649914741516">
			<ele>59.0999984741211</ele>
			<time>2013-12-29T10:05:08Z</time>
		</trkpt>
		<trkpt lat="39.5661964416504" lon="2.65650510787964">
			<ele>58.7999992370605</ele>
			<time>2013-12-29T10:05:10Z</time>
		</trkpt>
		<trkpt lat="39.5662422180176" lon="2.65649890899658">
			<ele>59.0999984741211</ele>
			<time>2013-12-29T10:05:12Z</time>
		</trkpt>
		<trkpt lat="39.5662727355957" lon="2.65645027160645">
			<ele>59.2000007629395</ele>
			<time>2013-12-29T10:05:14Z</time>
		</trkpt>
		<trkpt lat="39.5662879943848" lon="2.65638184547424">
			<ele>58.7999992370605</ele>
			<time>2013-12-29T10:05:16Z</time>
		</trkpt>
		<trkpt lat="39.566291809082" lon="2.65629410743713">
			<ele>58.5999984741211</ele>
			<time>2013-12-29T10:05:18Z</time>
		</trkpt>
		<trkpt lat="39.566291809082" lon="2.65620946884155">
			<ele>59.0999984741211</ele>
			<time>2013-12-29T10:05:20Z</time>
		</trkpt>
		<trkpt lat="39.5662841796875" lon="2.65612268447876">
			<ele>59.5</ele>
			<time>2013-12-29T10:05:22Z</time>
		</trkpt>
		<trkpt lat="39.5662956237793" lon="2.65604758262634">
			<ele>59.7999992370605</ele>
			<time>2013-12-29T10:05:24Z</time>
		</trkpt>
		<trkpt lat="39.5663070678711" lon="2.65596747398376">
			<ele>59.5999984741211</ele>
			<time>2013-12-29T10:05:26Z</time>
		</trkpt>
		<trkpt lat="39.5663146972656" lon="2.65588235855103">
			<ele>59.5999984741211</ele>
			<time>2013-12-29T10:05:28Z</time>
		</trkpt>
		<trkpt lat="39.5663185119629" lon="2.65580654144287">
			<ele>59.9000015258789</ele>
			<time>2013-12-29T10:05:30Z</time>
		</trkpt>
		<trkpt lat="39.5663909912109" lon="2.65580558776855">
			<ele>60</ele>
			<time>2013-12-29T10:05:33Z</time>
		</trkpt>
		<trkpt lat="39.5664520263672" lon="2.65581893920898">
			<ele>60.2999992370605</ele>
			<time>2013-12-29T10:05:35Z</time>
		</trkpt>
		<trkpt lat="39.5665130615234" lon="2.65582942962646">
			<ele>59.7000007629395</ele>
			<time>2013-12-29T10:05:37Z</time>
		</trkpt>
		<trkpt lat="39.5665702819824" lon="2.65582466125488">
			<ele>59.7999992370605</ele>
			<time>2013-12-29T10:05:39Z</time>
		</trkpt>
		<trkpt lat="39.5666198730469" lon="2.65582728385925">
			<ele>60.0999984741211</ele>
			<time>2013-12-29T10:05:40Z</time>
		</trkpt>
		<trkpt lat="39.5666809082031" lon="2.65583109855652">
			<ele>60.2999992370605</ele>
			<time>2013-12-29T10:05:43Z</time>
		</trkpt>
		<trkpt lat="39.5667533874512" lon="2.65583229064941">
			<ele>61.5999984741211</ele>
			<time>2013-12-29T10:05:46Z</time>
		</trkpt>
		<trkpt lat="39.5668106079102" lon="2.65584278106689">
			<ele>61.9000015258789</ele>
			<time>2013-12-29T10:05:48Z</time>
		</trkpt>
		<trkpt lat="39.5668640136719" lon="2.65584993362427">
			<ele>62.2999992370605</ele>
			<time>2013-12-29T10:05:49Z</time>
		</trkpt>
		<trkpt lat="39.5669097900391" lon="2.65587258338928">
			<ele>63.2000007629395</ele>
			<time>2013-12-29T10:05:51Z</time>
		</trkpt>
		<trkpt lat="39.566951751709" lon="2.65581798553467">
			<ele>64</ele>
			<time>2013-12-29T10:05:56Z</time>
		</trkpt>
		<trkpt lat="39.5669479370117" lon="2.65575885772705">
			<ele>64.4000015258789</ele>
			<time>2013-12-29T10:05:58Z</time>
		</trkpt>
		<trkpt lat="39.5669479370117" lon="2.65564513206482">
			<ele>63.2999992370605</ele>
			<time>2013-12-29T10:06:00Z</time>
		</trkpt>
		<trkpt lat="39.5669555664063" lon="2.65556216239929">
			<ele>63.4000015258789</ele>
			<time>2013-12-29T10:06:02Z</time>
		</trkpt>
		<trkpt lat="39.566967010498" lon="2.65549325942993">
			<ele>63.9000015258789</ele>
			<time>2013-12-29T10:06:03Z</time>
		</trkpt>
		<trkpt lat="39.5669784545898" lon="2.65542340278625">
			<ele>64.4000015258789</ele>
			<time>2013-12-29T10:06:06Z</time>
		</trkpt>
		<trkpt lat="39.5669822692871" lon="2.655348777771">
			<ele>65.1999969482422</ele>
			<time>2013-12-29T10:06:08Z</time>
		</trkpt>
		<trkpt lat="39.5669898986816" lon="2.65528249740601">
			<ele>64.3000030517578</ele>
			<time>2013-12-29T10:06:10Z</time>
		</trkpt>
		<trkpt lat="39.5669975280762" lon="2.65520286560059">
			<ele>65.1999969482422</ele>
			<time>2013-12-29T10:06:12Z</time>
		</trkpt>
		<trkpt lat="39.5670127868652" lon="2.65514302253723">
			<ele>64.5999984741211</ele>
			<time>2013-12-29T10:06:13Z</time>
		</trkpt>
		<trkpt lat="39.5670166015625" lon="2.65506291389465">
			<ele>64.8000030517578</ele>
			<time>2013-12-29T10:06:16Z</time>
		</trkpt>
		<trkpt lat="39.5670166015625" lon="2.65498280525208">
			<ele>66</ele>
			<time>2013-12-29T10:06:18Z</time>
		</trkpt>
		<trkpt lat="39.5670204162598" lon="2.65490770339966">
			<ele>65.6999969482422</ele>
			<time>2013-12-29T10:06:20Z</time>
		</trkpt>
		<trkpt lat="39.5670318603516" lon="2.65483379364014">
			<ele>65.9000015258789</ele>
			<time>2013-12-29T10:06:22Z</time>
		</trkpt>
		<trkpt lat="39.5670356750488" lon="2.65475630760193">
			<ele>66</ele>
			<time>2013-12-29T10:06:24Z</time>
		</trkpt>
		<trkpt lat="39.5670318603516" lon="2.65469670295715">
			<ele>65.9000015258789</ele>
			<time>2013-12-29T10:06:25Z</time>
		</trkpt>
		<trkpt lat="39.5669631958008" lon="2.65464448928833">
			<ele>66.6999969482422</ele>
			<time>2013-12-29T10:06:32Z</time>
		</trkpt>
		<trkpt lat="39.5669288635254" lon="2.65459942817688">
			<ele>66.0999984741211</ele>
			<time>2013-12-29T10:06:33Z</time>
		</trkpt>
		<trkpt lat="39.5668983459473" lon="2.65454769134521">
			<ele>66.1999969482422</ele>
			<time>2013-12-29T10:06:36Z</time>
		</trkpt>
		<trkpt lat="39.5668449401855" lon="2.65455961227417">
			<ele>67.9000015258789</ele>
			<time>2013-12-29T10:06:41Z</time>
		</trkpt>
		<trkpt lat="39.5668029785156" lon="2.65458464622498">
			<ele>69.5999984741211</ele>
			<time>2013-12-29T10:06:43Z</time>
		</trkpt>
		<trkpt lat="39.5667572021484" lon="2.65455198287964">
			<ele>74.0999984741211</ele>
			<time>2013-12-29T10:06:45Z</time>
		</trkpt>
		<trkpt lat="39.5666999816895" lon="2.65452671051025">
			<ele>76</ele>
			<time>2013-12-29T10:06:47Z</time>
		</trkpt>
		<trkpt lat="39.5666465759277" lon="2.65450191497803">
			<ele>77.1999969482422</ele>
			<time>2013-12-29T10:06:49Z</time>
		</trkpt>
		<trkpt lat="39.566593170166" lon="2.65453410148621">
			<ele>77</ele>
			<time>2013-12-29T10:06:51Z</time>
		</trkpt>
		<trkpt lat="39.5665473937988" lon="2.6545238494873">
			<ele>79.4000015258789</ele>
			<time>2013-12-29T10:06:53Z</time>
		</trkpt>
		<trkpt lat="39.5664863586426" lon="2.65451645851135">
			<ele>80.6999969482422</ele>
			<time>2013-12-29T10:06:54Z</time>
		</trkpt>
		<trkpt lat="39.5664176940918" lon="2.65451765060425">
			<ele>81.6999969482422</ele>
			<time>2013-12-29T10:06:57Z</time>
		</trkpt>
		<trkpt lat="39.5663528442383" lon="2.65451836585999">
			<ele>81.6999969482422</ele>
			<time>2013-12-29T10:06:59Z</time>
		</trkpt>
		<trkpt lat="39.5662994384766" lon="2.65454983711243">
			<ele>81.1999969482422</ele>
			<time>2013-12-29T10:07:01Z</time>
		</trkpt>
		<trkpt lat="39.566291809082" lon="2.6544668674469">
			<ele>80</ele>
			<time>2013-12-29T10:07:05Z</time>
		</trkpt>
		<trkpt lat="39.566276550293" lon="2.65441226959229">
			<ele>80.1999969482422</ele>
			<time>2013-12-29T10:07:07Z</time>
		</trkpt>
		<trkpt lat="39.5662841796875" lon="2.65435433387756">
			<ele>79.5</ele>
			<time>2013-12-29T10:07:09Z</time>
		</trkpt>
		<trkpt lat="39.5663108825684" lon="2.65426135063171">
			<ele>79.1999969482422</ele>
			<time>2013-12-29T10:07:12Z</time>
		</trkpt>
		<trkpt lat="39.566333770752" lon="2.65418148040771">
			<ele>77.8000030517578</ele>
			<time>2013-12-29T10:07:15Z</time>
		</trkpt>
		<trkpt lat="39.5663528442383" lon="2.65410470962524">
			<ele>77.5999984741211</ele>
			<time>2013-12-29T10:07:17Z</time>
		</trkpt>
		<trkpt lat="39.5663795471191" lon="2.65403866767883">
			<ele>77.9000015258789</ele>
			<time>2013-12-29T10:07:19Z</time>
		</trkpt>
		<trkpt lat="39.5664024353027" lon="2.65393567085266">
			<ele>76.6999969482422</ele>
			<time>2013-12-29T10:07:21Z</time>
		</trkpt>
		<trkpt lat="39.5664138793945" lon="2.65387630462646">
			<ele>76.0999984741211</ele>
			<time>2013-12-29T10:07:22Z</time>
		</trkpt>
		<trkpt lat="39.5664215087891" lon="2.65380835533142">
			<ele>76.6999969482422</ele>
			<time>2013-12-29T10:07:25Z</time>
		</trkpt>
		<trkpt lat="39.5664329528809" lon="2.65374207496643">
			<ele>76.5</ele>
			<time>2013-12-29T10:07:27Z</time>
		</trkpt>
		<trkpt lat="39.5664138793945" lon="2.65368914604187">
			<ele>76.1999969482422</ele>
			<time>2013-12-29T10:07:30Z</time>
		</trkpt>
		<trkpt lat="39.5663642883301" lon="2.65366816520691">
			<ele>78.8000030517578</ele>
			<time>2013-12-29T10:07:45Z</time>
		</trkpt>
		<trkpt lat="39.5664024353027" lon="2.65361881256104">
			<ele>73.6999969482422</ele>
			<time>2013-12-29T10:13:53Z</time>
		</trkpt>
		<trkpt lat="39.5664100646973" lon="2.65355491638184">
			<ele>73.5999984741211</ele>
			<time>2013-12-29T10:13:55Z</time>
		</trkpt>
		<trkpt lat="39.5664253234863" lon="2.65346264839172">
			<ele>72</ele>
			<time>2013-12-29T10:13:58Z</time>
		</trkpt>
		<trkpt lat="39.5664367675781" lon="2.65339350700378">
			<ele>71.0999984741211</ele>
			<time>2013-12-29T10:13:59Z</time>
		</trkpt>
		<trkpt lat="39.5664596557617" lon="2.65333223342896">
			<ele>69.0999984741211</ele>
			<time>2013-12-29T10:14:01Z</time>
		</trkpt>
		<trkpt lat="39.5664672851563" lon="2.65325665473938">
			<ele>69.0999984741211</ele>
			<time>2013-12-29T10:14:05Z</time>
		</trkpt>
		<trkpt lat="39.5664825439453" lon="2.6531822681427">
			<ele>68.8000030517578</ele>
			<time>2013-12-29T10:14:08Z</time>
		</trkpt>
		<trkpt lat="39.5665054321289" lon="2.65308594703674">
			<ele>68.8000030517578</ele>
			<time>2013-12-29T10:14:12Z</time>
		</trkpt>
		<trkpt lat="39.5665321350098" lon="2.65304064750671">
			<ele>68.3000030517578</ele>
			<time>2013-12-29T10:14:13Z</time>
		</trkpt>
		<trkpt lat="39.5665550231934" lon="2.65298199653625">
			<ele>67.3000030517578</ele>
			<time>2013-12-29T10:14:15Z</time>
		</trkpt>
		<trkpt lat="39.5665664672852" lon="2.65292382240295">
			<ele>67</ele>
			<time>2013-12-29T10:14:17Z</time>
		</trkpt>
		<trkpt lat="39.5665855407715" lon="2.65284991264343">
			<ele>66.4000015258789</ele>
			<time>2013-12-29T10:14:21Z</time>
		</trkpt>
		<trkpt lat="39.5666275024414" lon="2.6528058052063">
			<ele>65.9000015258789</ele>
			<time>2013-12-29T10:14:23Z</time>
		</trkpt>
		<trkpt lat="39.5666465759277" lon="2.65274024009705">
			<ele>66.5999984741211</ele>
			<time>2013-12-29T10:14:25Z</time>
		</trkpt>
		<trkpt lat="39.5666618347168" lon="2.65263652801514">
			<ele>60.5999984741211</ele>
			<time>2013-12-29T10:14:29Z</time>
		</trkpt>
		<trkpt lat="39.5666809082031" lon="2.65254974365234">
			<ele>59.5999984741211</ele>
			<time>2013-12-29T10:14:32Z</time>
		</trkpt>
		<trkpt lat="39.5667495727539" lon="2.65251803398132">
			<ele>59.7999992370605</ele>
			<time>2013-12-29T10:14:34Z</time>
		</trkpt>
		<trkpt lat="39.5668106079102" lon="2.65251445770264">
			<ele>60</ele>
			<time>2013-12-29T10:14:35Z</time>
		</trkpt>
		<trkpt lat="39.5668640136719" lon="2.6524703502655">
			<ele>59.7999992370605</ele>
			<time>2013-12-29T10:14:38Z</time>
		</trkpt>
		<trkpt lat="39.5669136047363" lon="2.65240430831909">
			<ele>60.2999992370605</ele>
			<time>2013-12-29T10:14:40Z</time>
		</trkpt>
		<trkpt lat="39.5669441223145" lon="2.65234351158142">
			<ele>61.7000007629395</ele>
			<time>2013-12-29T10:14:42Z</time>
		</trkpt>
		<trkpt lat="39.5670051574707" lon="2.65232706069946">
			<ele>62.7999992370605</ele>
			<time>2013-12-29T10:14:44Z</time>
		</trkpt>
		<trkpt lat="39.5670471191406" lon="2.65227770805359">
			<ele>63.4000015258789</ele>
			<time>2013-12-29T10:14:45Z</time>
		</trkpt>
		<trkpt lat="39.5670890808105" lon="2.65222263336182">
			<ele>64.0999984741211</ele>
			<time>2013-12-29T10:14:48Z</time>
		</trkpt>
		<trkpt lat="39.5671234130859" lon="2.65216732025146">
			<ele>64.9000015258789</ele>
			<time>2013-12-29T10:14:49Z</time>
		</trkpt>
		<trkpt lat="39.5671653747559" lon="2.65212893486023">
			<ele>65.5999984741211</ele>
			<time>2013-12-29T10:14:52Z</time>
		</trkpt>
		<trkpt lat="39.5672225952148" lon="2.65209245681763">
			<ele>66.0999984741211</ele>
			<time>2013-12-29T10:14:54Z</time>
		</trkpt>
		<trkpt lat="39.5672760009766" lon="2.65205860137939">
			<ele>66.4000015258789</ele>
			<time>2013-12-29T10:14:56Z</time>
		</trkpt>
		<trkpt lat="39.5673027038574" lon="2.65198993682861">
			<ele>66.4000015258789</ele>
			<time>2013-12-29T10:14:58Z</time>
		</trkpt>
		<trkpt lat="39.5672950744629" lon="2.65193176269531">
			<ele>66.5999984741211</ele>
			<time>2013-12-29T10:14:58Z</time>
		</trkpt>
		<trkpt lat="39.5673179626465" lon="2.651850938797">
			<ele>66.1999969482422</ele>
			<time>2013-12-29T10:15:01Z</time>
		</trkpt>
		<trkpt lat="39.5673484802246" lon="2.65178632736206">
			<ele>66</ele>
			<time>2013-12-29T10:15:03Z</time>
		</trkpt>
		<trkpt lat="39.5673027038574" lon="2.65169382095337">
			<ele>66.0999984741211</ele>
			<time>2013-12-29T10:15:04Z</time>
		</trkpt>
		<trkpt lat="39.5673179626465" lon="2.65163946151733">
			<ele>62.0999984741211</ele>
			<time>2013-12-29T10:15:06Z</time>
		</trkpt>
		<trkpt lat="39.5673370361328" lon="2.65156936645508">
			<ele>61.0999984741211</ele>
			<time>2013-12-29T10:15:08Z</time>
		</trkpt>
		<trkpt lat="39.5673599243164" lon="2.65150880813599">
			<ele>61.5</ele>
			<time>2013-12-29T10:15:10Z</time>
		</trkpt>
		<trkpt lat="39.5673942565918" lon="2.65146636962891">
			<ele>61.7999992370605</ele>
			<time>2013-12-29T10:15:12Z</time>
		</trkpt>
		<trkpt lat="39.5674362182617" lon="2.6513979434967">
			<ele>63.9000015258789</ele>
			<time>2013-12-29T10:15:16Z</time>
		</trkpt>
		<trkpt lat="39.567440032959" lon="2.65131640434265">
			<ele>64.4000015258789</ele>
			<time>2013-12-29T10:15:16Z</time>
		</trkpt>
		<trkpt lat="39.5674476623535" lon="2.65124177932739">
			<ele>64.6999969482422</ele>
			<time>2013-12-29T10:15:19Z</time>
		</trkpt>
		<trkpt lat="39.5674629211426" lon="2.65117383003235">
			<ele>64.6999969482422</ele>
			<time>2013-12-29T10:15:20Z</time>
		</trkpt>
		<trkpt lat="39.5674743652344" lon="2.65108752250671">
			<ele>64.5</ele>
			<time>2013-12-29T10:15:23Z</time>
		</trkpt>
		<trkpt lat="39.5675010681152" lon="2.65101504325867">
			<ele>64.4000015258789</ele>
			<time>2013-12-29T10:15:25Z</time>
		</trkpt>
		<trkpt lat="39.567512512207" lon="2.65095400810242">
			<ele>64.6999969482422</ele>
			<time>2013-12-29T10:15:26Z</time>
		</trkpt>
		<trkpt lat="39.5675010681152" lon="2.65089583396912">
			<ele>63.7999992370605</ele>
			<time>2013-12-29T10:15:29Z</time>
		</trkpt>
		<trkpt lat="39.5674591064453" lon="2.65087175369263">
			<ele>63.9000015258789</ele>
			<time>2013-12-29T10:15:37Z</time>
		</trkpt>
		<trkpt lat="39.5674819946289" lon="2.65092754364014">
			<ele>62.9000015258789</ele>
			<time>2013-12-29T10:15:44Z</time>
		</trkpt>
		<trkpt lat="39.567512512207" lon="2.65082979202271">
			<ele>67.1999969482422</ele>
			<time>2013-12-29T10:17:55Z</time>
		</trkpt>
		<trkpt lat="39.5675010681152" lon="2.65075016021729">
			<ele>66.5999984741211</ele>
			<time>2013-12-29T10:17:58Z</time>
		</trkpt>
		<trkpt lat="39.5675201416016" lon="2.65069079399109">
			<ele>66.6999969482422</ele>
			<time>2013-12-29T10:18:00Z</time>
		</trkpt>
		<trkpt lat="39.5675392150879" lon="2.65060830116272">
			<ele>66.9000015258789</ele>
			<time>2013-12-29T10:18:03Z</time>
		</trkpt>
		<trkpt lat="39.5675468444824" lon="2.65053915977478">
			<ele>66.9000015258789</ele>
			<time>2013-12-29T10:18:04Z</time>
		</trkpt>
		<trkpt lat="39.5675773620605" lon="2.65046501159668">
			<ele>68.3000030517578</ele>
			<time>2013-12-29T10:18:08Z</time>
		</trkpt>
		<trkpt lat="39.5675659179688" lon="2.650386095047">
			<ele>66.6999969482422</ele>
			<time>2013-12-29T10:18:11Z</time>
		</trkpt>
		<trkpt lat="39.5675163269043" lon="2.65032958984375">
			<ele>79.4000015258789</ele>
			<time>2013-12-29T10:18:12Z</time>
		</trkpt>
		<trkpt lat="39.5675086975098" lon="2.65024495124817">
			<ele>91</ele>
			<time>2013-12-29T10:18:16Z</time>
		</trkpt>
		<trkpt lat="39.5674934387207" lon="2.65017890930176">
			<ele>92.1999969482422</ele>
			<time>2013-12-29T10:18:16Z</time>
		</trkpt>
		<trkpt lat="39.5674781799316" lon="2.65008282661438">
			<ele>92.3000030517578</ele>
			<time>2013-12-29T10:18:19Z</time>
		</trkpt>
		<trkpt lat="39.5674781799316" lon="2.65001964569092">
			<ele>93.1999969482422</ele>
			<time>2013-12-29T10:18:23Z</time>
		</trkpt>
		<trkpt lat="39.5675010681152" lon="2.65009522438049">
			<ele>91.3000030517578</ele>
			<time>2013-12-29T10:18:26Z</time>
		</trkpt>
		<trkpt lat="39.5675086975098" lon="2.65016078948975">
			<ele>90.1999969482422</ele>
			<time>2013-12-29T10:18:30Z</time>
		</trkpt>
		<trkpt lat="39.5675163269043" lon="2.65025949478149">
			<ele>85.5999984741211</ele>
			<time>2013-12-29T10:18:33Z</time>
		</trkpt>
		<trkpt lat="39.5675926208496" lon="2.65030217170715">
			<ele>84.4000015258789</ele>
			<time>2013-12-29T10:18:37Z</time>
		</trkpt>
		<trkpt lat="39.5676460266113" lon="2.65032768249512">
			<ele>83.5999984741211</ele>
			<time>2013-12-29T10:18:39Z</time>
		</trkpt>
		<trkpt lat="39.5676956176758" lon="2.65035486221313">
			<ele>82.9000015258789</ele>
			<time>2013-12-29T10:18:40Z</time>
		</trkpt>
		<trkpt lat="39.5677452087402" lon="2.65038108825684">
			<ele>82.8000030517578</ele>
			<time>2013-12-29T10:18:42Z</time>
		</trkpt>
		<trkpt lat="39.5678749084473" lon="2.65043759346008">
			<ele>82.5</ele>
			<time>2013-12-29T10:18:46Z</time>
		</trkpt>
		<trkpt lat="39.5679512023926" lon="2.65045690536499">
			<ele>81.5999984741211</ele>
			<time>2013-12-29T10:18:49Z</time>
		</trkpt>
		<trkpt lat="39.5680541992188" lon="2.65049481391907">
			<ele>80.9000015258789</ele>
			<time>2013-12-29T10:18:53Z</time>
		</trkpt>
		<trkpt lat="39.5681266784668" lon="2.65055418014526">
			<ele>80.3000030517578</ele>
			<time>2013-12-29T10:18:54Z</time>
		</trkpt>
		<trkpt lat="39.5681838989258" lon="2.65054416656494">
			<ele>80.4000015258789</ele>
			<time>2013-12-29T10:18:57Z</time>
		</trkpt>
		<trkpt lat="39.568244934082" lon="2.65054678916931">
			<ele>79.5999984741211</ele>
			<time>2013-12-29T10:18:58Z</time>
		</trkpt>
		<trkpt lat="39.568286895752" lon="2.65057802200317">
			<ele>79.6999969482422</ele>
			<time>2013-12-29T10:19:02Z</time>
		</trkpt>
		<trkpt lat="39.5683517456055" lon="2.65063333511353">
			<ele>79.4000015258789</ele>
			<time>2013-12-29T10:19:03Z</time>
		</trkpt>
		<trkpt lat="39.5683975219727" lon="2.65067219734192">
			<ele>79.0999984741211</ele>
			<time>2013-12-29T10:19:05Z</time>
		</trkpt>
		<trkpt lat="39.5684509277344" lon="2.65072798728943">
			<ele>79</ele>
			<time>2013-12-29T10:19:08Z</time>
		</trkpt>
		<trkpt lat="39.5684928894043" lon="2.65075731277466">
			<ele>79.3000030517578</ele>
			<time>2013-12-29T10:19:10Z</time>
		</trkpt>
		<trkpt lat="39.5685501098633" lon="2.65078735351563">
			<ele>79.1999969482422</ele>
			<time>2013-12-29T10:19:12Z</time>
		</trkpt>
		<trkpt lat="39.5686340332031" lon="2.6507396697998">
			<ele>79</ele>
			<time>2013-12-29T10:19:14Z</time>
		</trkpt>
		<trkpt lat="39.5686912536621" lon="2.65072202682495">
			<ele>79.4000015258789</ele>
			<time>2013-12-29T10:19:17Z</time>
		</trkpt>
		<trkpt lat="39.5687370300293" lon="2.65074586868286">
			<ele>80.5999984741211</ele>
			<time>2013-12-29T10:19:19Z</time>
		</trkpt>
		<trkpt lat="39.5688247680664" lon="2.65080571174622">
			<ele>81.6999969482422</ele>
			<time>2013-12-29T10:19:21Z</time>
		</trkpt>
		<trkpt lat="39.5688629150391" lon="2.65075945854187">
			<ele>82.8000030517578</ele>
			<time>2013-12-29T10:19:24Z</time>
		</trkpt>
		<trkpt lat="39.5689315795898" lon="2.65076756477356">
			<ele>81.6999969482422</ele>
			<time>2013-12-29T10:19:26Z</time>
		</trkpt>
		<trkpt lat="39.5689697265625" lon="2.65071821212769">
			<ele>76.6999969482422</ele>
			<time>2013-12-29T10:19:29Z</time>
		</trkpt>
		<trkpt lat="39.5690231323242" lon="2.65073251724243">
			<ele>77.4000015258789</ele>
			<time>2013-12-29T10:19:32Z</time>
		</trkpt>
		<trkpt lat="39.5690689086914" lon="2.65076303482056">
			<ele>78</ele>
			<time>2013-12-29T10:19:34Z</time>
		</trkpt>
		<trkpt lat="39.5691146850586" lon="2.65077638626099">
			<ele>78.3000030517578</ele>
			<time>2013-12-29T10:19:36Z</time>
		</trkpt>
		<trkpt lat="39.5691680908203" lon="2.65076303482056">
			<ele>77.9000015258789</ele>
			<time>2013-12-29T10:19:38Z</time>
		</trkpt>
		<trkpt lat="39.5692253112793" lon="2.65069079399109">
			<ele>77.6999969482422</ele>
			<time>2013-12-29T10:19:40Z</time>
		</trkpt>
		<trkpt lat="39.569278717041" lon="2.65065550804138">
			<ele>77.3000030517578</ele>
			<time>2013-12-29T10:19:43Z</time>
		</trkpt>
		<trkpt lat="39.5692901611328" lon="2.65057730674744">
			<ele>76.6999969482422</ele>
			<time>2013-12-29T10:19:45Z</time>
		</trkpt>
		<trkpt lat="39.5693168640137" lon="2.65051531791687">
			<ele>74.9000015258789</ele>
			<time>2013-12-29T10:19:47Z</time>
		</trkpt>
		<trkpt lat="39.5693397521973" lon="2.65046572685242">
			<ele>75.4000015258789</ele>
			<time>2013-12-29T10:19:49Z</time>
		</trkpt>
		<trkpt lat="39.5693626403809" lon="2.65038132667542">
			<ele>73.9000015258789</ele>
			<time>2013-12-29T10:19:51Z</time>
		</trkpt>
		<trkpt lat="39.569408416748" lon="2.65032649040222">
			<ele>71.6999969482422</ele>
			<time>2013-12-29T10:19:54Z</time>
		</trkpt>
		<trkpt lat="39.569465637207" lon="2.65027260780334">
			<ele>70.6999969482422</ele>
			<time>2013-12-29T10:19:56Z</time>
		</trkpt>
		<trkpt lat="39.5694999694824" lon="2.65022039413452">
			<ele>70.1999969482422</ele>
			<time>2013-12-29T10:19:59Z</time>
		</trkpt>
		<trkpt lat="39.569507598877" lon="2.65013265609741">
			<ele>71</ele>
			<time>2013-12-29T10:20:02Z</time>
		</trkpt>
		<trkpt lat="39.569507598877" lon="2.65006947517395">
			<ele>70</ele>
			<time>2013-12-29T10:20:04Z</time>
		</trkpt>
		<trkpt lat="39.5694999694824" lon="2.6500084400177">
			<ele>68.8000030517578</ele>
			<time>2013-12-29T10:20:06Z</time>
		</trkpt>
		<trkpt lat="39.5694770812988" lon="2.64994239807129">
			<ele>68.1999969482422</ele>
			<time>2013-12-29T10:20:08Z</time>
		</trkpt>
		<trkpt lat="39.5694618225098" lon="2.64987349510193">
			<ele>68.4000015258789</ele>
			<time>2013-12-29T10:20:10Z</time>
		</trkpt>
		<trkpt lat="39.5694160461426" lon="2.64981937408447">
			<ele>69</ele>
			<time>2013-12-29T10:20:13Z</time>
		</trkpt>
		<trkpt lat="39.5694007873535" lon="2.64974927902222">
			<ele>68.9000015258789</ele>
			<time>2013-12-29T10:20:15Z</time>
		</trkpt>
		<trkpt lat="39.5693550109863" lon="2.64967346191406">
			<ele>68.9000015258789</ele>
			<time>2013-12-29T10:20:17Z</time>
		</trkpt>
		<trkpt lat="39.5693130493164" lon="2.64960527420044">
			<ele>68.6999969482422</ele>
			<time>2013-12-29T10:20:19Z</time>
		</trkpt>
		<trkpt lat="39.5692672729492" lon="2.64956498146057">
			<ele>68.6999969482422</ele>
			<time>2013-12-29T10:20:20Z</time>
		</trkpt>
		<trkpt lat="39.569263458252" lon="2.64948129653931">
			<ele>68.5999984741211</ele>
			<time>2013-12-29T10:20:22Z</time>
		</trkpt>
		<trkpt lat="39.5692291259766" lon="2.64941906929016">
			<ele>68.6999969482422</ele>
			<time>2013-12-29T10:20:24Z</time>
		</trkpt>
		<trkpt lat="39.569164276123" lon="2.64939498901367">
			<ele>69.8000030517578</ele>
			<time>2013-12-29T10:20:26Z</time>
		</trkpt>
		<trkpt lat="39.5691795349121" lon="2.64932155609131">
			<ele>69.4000015258789</ele>
			<time>2013-12-29T10:20:29Z</time>
		</trkpt>
		<trkpt lat="39.5692367553711" lon="2.64928269386292">
			<ele>68.1999969482422</ele>
			<time>2013-12-29T10:20:32Z</time>
		</trkpt>
		<trkpt lat="39.5692825317383" lon="2.64923810958862">
			<ele>68</ele>
			<time>2013-12-29T10:20:34Z</time>
		</trkpt>
		<trkpt lat="39.5693435668945" lon="2.64919471740723">
			<ele>69.3000030517578</ele>
			<time>2013-12-29T10:20:36Z</time>
		</trkpt>
		<trkpt lat="39.5694160461426" lon="2.64913177490234">
			<ele>69.9000015258789</ele>
			<time>2013-12-29T10:20:38Z</time>
		</trkpt>
		<trkpt lat="39.5694541931152" lon="2.64905118942261">
			<ele>70.0999984741211</ele>
			<time>2013-12-29T10:20:40Z</time>
		</trkpt>
		<trkpt lat="39.5694732666016" lon="2.64896297454834">
			<ele>70.6999969482422</ele>
			<time>2013-12-29T10:20:42Z</time>
		</trkpt>
		<trkpt lat="39.5694236755371" lon="2.64890646934509">
			<ele>70.8000030517578</ele>
			<time>2013-12-29T10:20:43Z</time>
		</trkpt>
		<trkpt lat="39.5694007873535" lon="2.64885258674622">
			<ele>71.0999984741211</ele>
			<time>2013-12-29T10:20:44Z</time>
		</trkpt>
		<trkpt lat="39.5693817138672" lon="2.6487991809845">
			<ele>71.3000030517578</ele>
			<time>2013-12-29T10:20:45Z</time>
		</trkpt>
		<trkpt lat="39.5693588256836" lon="2.64873576164246">
			<ele>71.0999984741211</ele>
			<time>2013-12-29T10:20:46Z</time>
		</trkpt>
		<trkpt lat="39.5693321228027" lon="2.64866757392883">
			<ele>70.9000015258789</ele>
			<time>2013-12-29T10:20:47Z</time>
		</trkpt>
		<trkpt lat="39.5693016052246" lon="2.64859771728516">
			<ele>70.8000030517578</ele>
			<time>2013-12-29T10:20:48Z</time>
		</trkpt>
		<trkpt lat="39.5692672729492" lon="2.64853405952454">
			<ele>71</ele>
			<time>2013-12-29T10:20:49Z</time>
		</trkpt>
		<trkpt lat="39.5692329406738" lon="2.64845752716064">
			<ele>71</ele>
			<time>2013-12-29T10:20:50Z</time>
		</trkpt>
		<trkpt lat="39.5691947937012" lon="2.64837598800659">
			<ele>70.9000015258789</ele>
			<time>2013-12-29T10:20:51Z</time>
		</trkpt>
		<trkpt lat="39.569149017334" lon="2.64830231666565">
			<ele>70.9000015258789</ele>
			<time>2013-12-29T10:20:52Z</time>
		</trkpt>
		<trkpt lat="39.5691108703613" lon="2.64821171760559">
			<ele>70.8000030517578</ele>
			<time>2013-12-29T10:20:53Z</time>
		</trkpt>
		<trkpt lat="39.5690765380859" lon="2.64809703826904">
			<ele>70.6999969482422</ele>
			<time>2013-12-29T10:20:54Z</time>
		</trkpt>
		<trkpt lat="39.5690574645996" lon="2.6480348110199">
			<ele>70.9000015258789</ele>
			<time>2013-12-29T10:20:55Z</time>
		</trkpt>
		<trkpt lat="39.569034576416" lon="2.64797306060791">
			<ele>70.6999969482422</ele>
			<time>2013-12-29T10:20:56Z</time>
		</trkpt>
		<trkpt lat="39.5689811706543" lon="2.64789319038391">
			<ele>70.8000030517578</ele>
			<time>2013-12-29T10:20:58Z</time>
		</trkpt>
		<trkpt lat="39.5689582824707" lon="2.64778280258179">
			<ele>70.8000030517578</ele>
			<time>2013-12-29T10:21:00Z</time>
		</trkpt>
		<trkpt lat="39.5689277648926" lon="2.64771246910095">
			<ele>71</ele>
			<time>2013-12-29T10:21:01Z</time>
		</trkpt>
		<trkpt lat="39.568904876709" lon="2.6476411819458">
			<ele>71.0999984741211</ele>
			<time>2013-12-29T10:21:02Z</time>
		</trkpt>
		<trkpt lat="39.5688781738281" lon="2.64757704734802">
			<ele>71.0999984741211</ele>
			<time>2013-12-29T10:21:03Z</time>
		</trkpt>
		<trkpt lat="39.5688552856445" lon="2.64749193191528">
			<ele>70.5</ele>
			<time>2013-12-29T10:21:04Z</time>
		</trkpt>
		<trkpt lat="39.5688323974609" lon="2.64741277694702">
			<ele>70.3000030517578</ele>
			<time>2013-12-29T10:21:05Z</time>
		</trkpt>
		<trkpt lat="39.5688247680664" lon="2.6473274230957">
			<ele>70.6999969482422</ele>
			<time>2013-12-29T10:21:06Z</time>
		</trkpt>
		<trkpt lat="39.5688323974609" lon="2.64724659919739">
			<ele>71.1999969482422</ele>
			<time>2013-12-29T10:21:07Z</time>
		</trkpt>
		<trkpt lat="39.5688552856445" lon="2.6471860408783">
			<ele>70.3000030517578</ele>
			<time>2013-12-29T10:21:08Z</time>
		</trkpt>
		<trkpt lat="39.5688514709473" lon="2.64710879325867">
			<ele>69.8000030517578</ele>
			<time>2013-12-29T10:21:09Z</time>
		</trkpt>
		<trkpt lat="39.5689468383789" lon="2.64708852767944">
			<ele>67.9000015258789</ele>
			<time>2013-12-29T10:21:10Z</time>
		</trkpt>
		<trkpt lat="39.5689888000488" lon="2.64704036712646">
			<ele>66.4000015258789</ele>
			<time>2013-12-29T10:21:11Z</time>
		</trkpt>
		<trkpt lat="39.5690269470215" lon="2.64698839187622">
			<ele>65.8000030517578</ele>
			<time>2013-12-29T10:21:12Z</time>
		</trkpt>
		<trkpt lat="39.5690765380859" lon="2.64691853523254">
			<ele>65</ele>
			<time>2013-12-29T10:21:13Z</time>
		</trkpt>
		<trkpt lat="39.5691146850586" lon="2.64685654640198">
			<ele>64</ele>
			<time>2013-12-29T10:21:14Z</time>
		</trkpt>
		<trkpt lat="39.569149017334" lon="2.64679145812988">
			<ele>63.4000015258789</ele>
			<time>2013-12-29T10:21:15Z</time>
		</trkpt>
		<trkpt lat="39.5691528320313" lon="2.6467227935791">
			<ele>62.0999984741211</ele>
			<time>2013-12-29T10:21:16Z</time>
		</trkpt>
		<trkpt lat="39.5691719055176" lon="2.64665627479553">
			<ele>62.2999992370605</ele>
			<time>2013-12-29T10:21:17Z</time>
		</trkpt>
		<trkpt lat="39.5692100524902" lon="2.64656281471252">
			<ele>59.2999992370605</ele>
			<time>2013-12-29T10:21:19Z</time>
		</trkpt>
		<trkpt lat="39.5692291259766" lon="2.64650702476501">
			<ele>59.2999992370605</ele>
			<time>2013-12-29T10:21:20Z</time>
		</trkpt>
		<trkpt lat="39.5692481994629" lon="2.64644908905029">
			<ele>59.7000007629395</ele>
			<time>2013-12-29T10:21:21Z</time>
		</trkpt>
		<trkpt lat="39.5692672729492" lon="2.64634728431702">
			<ele>59.7000007629395</ele>
			<time>2013-12-29T10:21:23Z</time>
		</trkpt>
		<trkpt lat="39.5692977905273" lon="2.64630198478699">
			<ele>59.2999992370605</ele>
			<time>2013-12-29T10:21:25Z</time>
		</trkpt>
		<trkpt lat="39.5693435668945" lon="2.64627695083618">
			<ele>60.7999992370605</ele>
			<time>2013-12-29T10:21:28Z</time>
		</trkpt>
		<trkpt lat="39.569408416748" lon="2.64626002311707">
			<ele>61.7999992370605</ele>
			<time>2013-12-29T10:21:30Z</time>
		</trkpt>
		<trkpt lat="39.5694732666016" lon="2.64624452590942">
			<ele>62.2999992370605</ele>
			<time>2013-12-29T10:21:33Z</time>
		</trkpt>
		<trkpt lat="39.5695571899414" lon="2.64634728431702">
			<ele>69</ele>
			<time>2013-12-29T10:21:35Z</time>
		</trkpt>
		<trkpt lat="39.569637298584" lon="2.64638304710388">
			<ele>72.8000030517578</ele>
			<time>2013-12-29T10:21:37Z</time>
		</trkpt>
		<trkpt lat="39.569709777832" lon="2.64641141891479">
			<ele>74</ele>
			<time>2013-12-29T10:21:39Z</time>
		</trkpt>
		<trkpt lat="39.5697860717773" lon="2.6464307308197">
			<ele>74.5</ele>
			<time>2013-12-29T10:21:41Z</time>
		</trkpt>
		<trkpt lat="39.5698661804199" lon="2.64645195007324">
			<ele>73.9000015258789</ele>
			<time>2013-12-29T10:21:43Z</time>
		</trkpt>
		<trkpt lat="39.5699462890625" lon="2.64646029472351">
			<ele>71.4000015258789</ele>
			<time>2013-12-29T10:21:46Z</time>
		</trkpt>
		<trkpt lat="39.5700187683105" lon="2.64648246765137">
			<ele>70.6999969482422</ele>
			<time>2013-12-29T10:21:48Z</time>
		</trkpt>
		<trkpt lat="39.5700874328613" lon="2.64649558067322">
			<ele>70.1999969482422</ele>
			<time>2013-12-29T10:21:50Z</time>
		</trkpt>
		<trkpt lat="39.5701332092285" lon="2.64651155471802">
			<ele>70</ele>
			<time>2013-12-29T10:21:51Z</time>
		</trkpt>
		<trkpt lat="39.5702018737793" lon="2.64651775360107">
			<ele>70.5</ele>
			<time>2013-12-29T10:21:53Z</time>
		</trkpt>
		<trkpt lat="39.5702476501465" lon="2.6465106010437">
			<ele>70.6999969482422</ele>
			<time>2013-12-29T10:21:54Z</time>
		</trkpt>
		<trkpt lat="39.5703353881836" lon="2.64653444290161">
			<ele>66.5</ele>
			<time>2013-12-29T10:21:56Z</time>
		</trkpt>
		<trkpt lat="39.5704078674316" lon="2.64655756950378">
			<ele>64.8000030517578</ele>
			<time>2013-12-29T10:21:58Z</time>
		</trkpt>
		<trkpt lat="39.5704765319824" lon="2.64658880233765">
			<ele>63.2000007629395</ele>
			<time>2013-12-29T10:22:00Z</time>
		</trkpt>
		<trkpt lat="39.5705299377441" lon="2.64659523963928">
			<ele>63.7000007629395</ele>
			<time>2013-12-29T10:22:01Z</time>
		</trkpt>
		<trkpt lat="39.5706024169922" lon="2.64660382270813">
			<ele>63.0999984741211</ele>
			<time>2013-12-29T10:22:03Z</time>
		</trkpt>
		<trkpt lat="39.5706748962402" lon="2.64662051200867">
			<ele>62.5999984741211</ele>
			<time>2013-12-29T10:22:05Z</time>
		</trkpt>
		<trkpt lat="39.5707588195801" lon="2.64663124084473">
			<ele>61.9000015258789</ele>
			<time>2013-12-29T10:22:07Z</time>
		</trkpt>
		<trkpt lat="39.5708160400391" lon="2.64666175842285">
			<ele>63.2000007629395</ele>
			<time>2013-12-29T10:22:09Z</time>
		</trkpt>
		<trkpt lat="39.5708770751953" lon="2.6467080116272">
			<ele>61.7999992370605</ele>
			<time>2013-12-29T10:22:11Z</time>
		</trkpt>
		<trkpt lat="39.5709533691406" lon="2.64675235748291">
			<ele>61.2000007629395</ele>
			<time>2013-12-29T10:22:13Z</time>
		</trkpt>
		<trkpt lat="39.5710144042969" lon="2.64678072929382">
			<ele>61</ele>
			<time>2013-12-29T10:22:15Z</time>
		</trkpt>
		<trkpt lat="39.5710716247559" lon="2.64684152603149">
			<ele>63.5999984741211</ele>
			<time>2013-12-29T10:22:16Z</time>
		</trkpt>
		<trkpt lat="39.5711288452148" lon="2.6469030380249">
			<ele>63.7999992370605</ele>
			<time>2013-12-29T10:22:18Z</time>
		</trkpt>
		<trkpt lat="39.5711860656738" lon="2.64695477485657">
			<ele>63.4000015258789</ele>
			<time>2013-12-29T10:22:20Z</time>
		</trkpt>
		<trkpt lat="39.5712432861328" lon="2.64699935913086">
			<ele>63.4000015258789</ele>
			<time>2013-12-29T10:22:22Z</time>
		</trkpt>
		<trkpt lat="39.5713043212891" lon="2.6470000743866">
			<ele>62.2999992370605</ele>
			<time>2013-12-29T10:22:25Z</time>
		</trkpt>
		<trkpt lat="39.5713500976563" lon="2.64697909355164">
			<ele>59.0999984741211</ele>
			<time>2013-12-29T10:22:28Z</time>
		</trkpt>
		<trkpt lat="39.5713043212891" lon="2.64699625968933">
			<ele>58.5999984741211</ele>
			<time>2013-12-29T10:22:32Z</time>
		</trkpt>
		<trkpt lat="39.5713691711426" lon="2.64700627326965">
			<ele>56.5</ele>
			<time>2013-12-29T10:22:38Z</time>
		</trkpt>
		<trkpt lat="39.5714340209961" lon="2.64700102806091">
			<ele>57</ele>
			<time>2013-12-29T10:22:41Z</time>
		</trkpt>
		<trkpt lat="39.5714950561523" lon="2.646968126297">
			<ele>57</ele>
			<time>2013-12-29T10:22:43Z</time>
		</trkpt>
		<trkpt lat="39.5715560913086" lon="2.64692831039429">
			<ele>57.2000007629395</ele>
			<time>2013-12-29T10:22:45Z</time>
		</trkpt>
		<trkpt lat="39.571605682373" lon="2.64686703681946">
			<ele>56</ele>
			<time>2013-12-29T10:22:47Z</time>
		</trkpt>
		<trkpt lat="39.5716400146484" lon="2.64679074287415">
			<ele>54.5</ele>
			<time>2013-12-29T10:22:49Z</time>
		</trkpt>
		<trkpt lat="39.5716209411621" lon="2.64671492576599">
			<ele>56.2999992370605</ele>
			<time>2013-12-29T10:22:50Z</time>
		</trkpt>
		<trkpt lat="39.5716400146484" lon="2.64663076400757">
			<ele>54.7999992370605</ele>
			<time>2013-12-29T10:22:52Z</time>
		</trkpt>
		<trkpt lat="39.5716590881348" lon="2.64655184745789">
			<ele>54.2999992370605</ele>
			<time>2013-12-29T10:22:54Z</time>
		</trkpt>
		<trkpt lat="39.5716819763184" lon="2.64647722244263">
			<ele>54.0999984741211</ele>
			<time>2013-12-29T10:22:56Z</time>
		</trkpt>
		<trkpt lat="39.5717086791992" lon="2.64638543128967">
			<ele>53.9000015258789</ele>
			<time>2013-12-29T10:22:58Z</time>
		</trkpt>
		<trkpt lat="39.5717353820801" lon="2.64630365371704">
			<ele>53.9000015258789</ele>
			<time>2013-12-29T10:23:00Z</time>
		</trkpt>
		<trkpt lat="39.5717544555664" lon="2.64623284339905">
			<ele>54.0999984741211</ele>
			<time>2013-12-29T10:23:02Z</time>
		</trkpt>
		<trkpt lat="39.5718002319336" lon="2.64616012573242">
			<ele>54.4000015258789</ele>
			<time>2013-12-29T10:23:05Z</time>
		</trkpt>
		<trkpt lat="39.5718421936035" lon="2.64610719680786">
			<ele>54.4000015258789</ele>
			<time>2013-12-29T10:23:08Z</time>
		</trkpt>
		<trkpt lat="39.5718421936035" lon="2.64604592323303">
			<ele>56.9000015258789</ele>
			<time>2013-12-29T10:23:14Z</time>
		</trkpt>
		<trkpt lat="39.5717239379883" lon="2.646075963974">
			<ele>66.3000030517578</ele>
			<time>2013-12-29T10:23:47Z</time>
		</trkpt>
		<trkpt lat="39.5716590881348" lon="2.64608073234558">
			<ele>65.8000030517578</ele>
			<time>2013-12-29T10:23:49Z</time>
		</trkpt>
		<trkpt lat="39.5715522766113" lon="2.64604663848877">
			<ele>67</ele>
			<time>2013-12-29T10:23:50Z</time>
		</trkpt>
		<trkpt lat="39.5715103149414" lon="2.64611887931824">
			<ele>66.4000015258789</ele>
			<time>2013-12-29T10:23:51Z</time>
		</trkpt>
		<trkpt lat="39.5714492797852" lon="2.64610457420349">
			<ele>66.5999984741211</ele>
			<time>2013-12-29T10:23:53Z</time>
		</trkpt>
		<trkpt lat="39.571403503418" lon="2.64609217643738">
			<ele>67</ele>
			<time>2013-12-29T10:23:55Z</time>
		</trkpt>
		<trkpt lat="39.571346282959" lon="2.64608120918274">
			<ele>67.0999984741211</ele>
			<time>2013-12-29T10:23:58Z</time>
		</trkpt>
		<trkpt lat="39.5712814331055" lon="2.64609479904175">
			<ele>66.9000015258789</ele>
			<time>2013-12-29T10:24:00Z</time>
		</trkpt>
		<trkpt lat="39.5712242126465" lon="2.64610457420349">
			<ele>68.1999969482422</ele>
			<time>2013-12-29T10:24:03Z</time>
		</trkpt>
		<trkpt lat="39.5711517333984" lon="2.64609622955322">
			<ele>67.8000030517578</ele>
			<time>2013-12-29T10:24:07Z</time>
		</trkpt>
		<trkpt lat="39.5710983276367" lon="2.64608025550842">
			<ele>68.5999984741211</ele>
			<time>2013-12-29T10:24:08Z</time>
		</trkpt>
		<trkpt lat="39.5710372924805" lon="2.6460657119751">
			<ele>68.1999969482422</ele>
			<time>2013-12-29T10:24:10Z</time>
		</trkpt>
		<trkpt lat="39.5709800720215" lon="2.64601254463196">
			<ele>70.5999984741211</ele>
			<time>2013-12-29T10:24:11Z</time>
		</trkpt>
		<trkpt lat="39.5709190368652" lon="2.64600706100464">
			<ele>71.5</ele>
			<time>2013-12-29T10:24:13Z</time>
		</trkpt>
		<trkpt lat="39.5708618164063" lon="2.64597868919373">
			<ele>72.1999969482422</ele>
			<time>2013-12-29T10:24:15Z</time>
		</trkpt>
		<trkpt lat="39.5708160400391" lon="2.64593696594238">
			<ele>73.3000030517578</ele>
			<time>2013-12-29T10:24:17Z</time>
		</trkpt>
		<trkpt lat="39.5707626342773" lon="2.6458957195282">
			<ele>73.9000015258789</ele>
			<time>2013-12-29T10:24:19Z</time>
		</trkpt>
		<trkpt lat="39.5707244873047" lon="2.64585828781128">
			<ele>74</ele>
			<time>2013-12-29T10:24:21Z</time>
		</trkpt>
		<trkpt lat="39.5706787109375" lon="2.6458101272583">
			<ele>72.0999984741211</ele>
			<time>2013-12-29T10:24:23Z</time>
		</trkpt>
		<trkpt lat="39.5706176757813" lon="2.64573812484741">
			<ele>70.8000030517578</ele>
			<time>2013-12-29T10:24:25Z</time>
		</trkpt>
		<trkpt lat="39.5705490112305" lon="2.64569330215454">
			<ele>71.1999969482422</ele>
			<time>2013-12-29T10:24:27Z</time>
		</trkpt>
		<trkpt lat="39.5704536437988" lon="2.64564037322998">
			<ele>71</ele>
			<time>2013-12-29T10:24:31Z</time>
		</trkpt>
		<trkpt lat="39.5704040527344" lon="2.64563488960266">
			<ele>71</ele>
			<time>2013-12-29T10:24:32Z</time>
		</trkpt>
		<trkpt lat="39.570384979248" lon="2.6455774307251">
			<ele>70.0999984741211</ele>
			<time>2013-12-29T10:24:39Z</time>
		</trkpt>
		<trkpt lat="39.570426940918" lon="2.64552783966064">
			<ele>70.0999984741211</ele>
			<time>2013-12-29T10:24:43Z</time>
		</trkpt>
		<trkpt lat="39.5704612731934" lon="2.64548754692078">
			<ele>70.3000030517578</ele>
			<time>2013-12-29T10:24:45Z</time>
		</trkpt>
		<trkpt lat="39.5705032348633" lon="2.64542031288147">
			<ele>69.5</ele>
			<time>2013-12-29T10:24:47Z</time>
		</trkpt>
		<trkpt lat="39.5705223083496" lon="2.64535760879517">
			<ele>68.8000030517578</ele>
			<time>2013-12-29T10:24:49Z</time>
		</trkpt>
		<trkpt lat="39.5705451965332" lon="2.64527678489685">
			<ele>67.6999969482422</ele>
			<time>2013-12-29T10:24:51Z</time>
		</trkpt>
		<trkpt lat="39.5705871582031" lon="2.6452054977417">
			<ele>67</ele>
			<time>2013-12-29T10:24:53Z</time>
		</trkpt>
		<trkpt lat="39.5705795288086" lon="2.64514064788818">
			<ele>66.0999984741211</ele>
			<time>2013-12-29T10:24:55Z</time>
		</trkpt>
		<trkpt lat="39.5706100463867" lon="2.64506125450134">
			<ele>65.4000015258789</ele>
			<time>2013-12-29T10:24:57Z</time>
		</trkpt>
		<trkpt lat="39.5706214904785" lon="2.64499092102051">
			<ele>64.5</ele>
			<time>2013-12-29T10:24:59Z</time>
		</trkpt>
		<trkpt lat="39.5706367492676" lon="2.64490127563477">
			<ele>63.7999992370605</ele>
			<time>2013-12-29T10:25:01Z</time>
		</trkpt>
		<trkpt lat="39.5706825256348" lon="2.64487147331238">
			<ele>63.2999992370605</ele>
			<time>2013-12-29T10:25:02Z</time>
		</trkpt>
		<trkpt lat="39.5707168579102" lon="2.64477252960205">
			<ele>62.5</ele>
			<time>2013-12-29T10:25:04Z</time>
		</trkpt>
		<trkpt lat="39.5707244873047" lon="2.64470267295837">
			<ele>62.4000015258789</ele>
			<time>2013-12-29T10:25:06Z</time>
		</trkpt>
		<trkpt lat="39.5707244873047" lon="2.64462161064148">
			<ele>61.4000015258789</ele>
			<time>2013-12-29T10:25:08Z</time>
		</trkpt>
		<trkpt lat="39.5707626342773" lon="2.64456176757813">
			<ele>54.2000007629395</ele>
			<time>2013-12-29T10:25:11Z</time>
		</trkpt>
		<trkpt lat="39.5707778930664" lon="2.64448666572571">
			<ele>53.4000015258789</ele>
			<time>2013-12-29T10:25:13Z</time>
		</trkpt>
		<trkpt lat="39.5707778930664" lon="2.64440631866455">
			<ele>58</ele>
			<time>2013-12-29T10:25:14Z</time>
		</trkpt>
		<trkpt lat="39.5708045959473" lon="2.64432334899902">
			<ele>58.5</ele>
			<time>2013-12-29T10:25:16Z</time>
		</trkpt>
		<trkpt lat="39.5708236694336" lon="2.64426279067993">
			<ele>57.4000015258789</ele>
			<time>2013-12-29T10:25:18Z</time>
		</trkpt>
		<trkpt lat="39.5708427429199" lon="2.64420199394226">
			<ele>57.5999984741211</ele>
			<time>2013-12-29T10:25:20Z</time>
		</trkpt>
		<trkpt lat="39.5708808898926" lon="2.64414167404175">
			<ele>55.2999992370605</ele>
			<time>2013-12-29T10:25:23Z</time>
		</trkpt>
		<trkpt lat="39.5709114074707" lon="2.64409279823303">
			<ele>54.9000015258789</ele>
			<time>2013-12-29T10:25:25Z</time>
		</trkpt>
		<trkpt lat="39.5709114074707" lon="2.64402341842651">
			<ele>56.4000015258789</ele>
			<time>2013-12-29T10:25:27Z</time>
		</trkpt>
		<trkpt lat="39.5708770751953" lon="2.64395332336426">
			<ele>56.0999984741211</ele>
			<time>2013-12-29T10:25:30Z</time>
		</trkpt>
		<trkpt lat="39.5708198547363" lon="2.64388108253479">
			<ele>55.9000015258789</ele>
			<time>2013-12-29T10:25:34Z</time>
		</trkpt>
		<trkpt lat="39.5707740783691" lon="2.64384150505066">
			<ele>56.7000007629395</ele>
			<time>2013-12-29T10:25:35Z</time>
		</trkpt>
		<trkpt lat="39.5706977844238" lon="2.64374613761902">
			<ele>57.5999984741211</ele>
			<time>2013-12-29T10:25:38Z</time>
		</trkpt>
		<trkpt lat="39.5706672668457" lon="2.64369559288025">
			<ele>57.5999984741211</ele>
			<time>2013-12-29T10:25:39Z</time>
		</trkpt>
		<trkpt lat="39.5706481933594" lon="2.64360952377319">
			<ele>58.4000015258789</ele>
			<time>2013-12-29T10:25:41Z</time>
		</trkpt>
		<trkpt lat="39.5706443786621" lon="2.64354610443115">
			<ele>60.5999984741211</ele>
			<time>2013-12-29T10:25:43Z</time>
		</trkpt>
		<trkpt lat="39.5706596374512" lon="2.64344835281372">
			<ele>62.2999992370605</ele>
			<time>2013-12-29T10:25:45Z</time>
		</trkpt>
		<trkpt lat="39.5706596374512" lon="2.64334321022034">
			<ele>65.0999984741211</ele>
			<time>2013-12-29T10:25:47Z</time>
		</trkpt>
		<trkpt lat="39.5706787109375" lon="2.64324879646301">
			<ele>68</ele>
			<time>2013-12-29T10:25:49Z</time>
		</trkpt>
		<trkpt lat="39.5706977844238" lon="2.64316630363464">
			<ele>68.6999969482422</ele>
			<time>2013-12-29T10:25:51Z</time>
		</trkpt>
		<trkpt lat="39.5707054138184" lon="2.64306497573853">
			<ele>68.9000015258789</ele>
			<time>2013-12-29T10:25:53Z</time>
		</trkpt>
		<trkpt lat="39.5707130432129" lon="2.642982006073">
			<ele>67.5999984741211</ele>
			<time>2013-12-29T10:25:55Z</time>
		</trkpt>
		<trkpt lat="39.5707168579102" lon="2.64291882514954">
			<ele>68.1999969482422</ele>
			<time>2013-12-29T10:25:57Z</time>
		</trkpt>
		<trkpt lat="39.5707511901855" lon="2.64284157752991">
			<ele>67.0999984741211</ele>
			<time>2013-12-29T10:25:59Z</time>
		</trkpt>
		<trkpt lat="39.5707168579102" lon="2.64275050163269">
			<ele>66.5</ele>
			<time>2013-12-29T10:26:01Z</time>
		</trkpt>
		<trkpt lat="39.5707092285156" lon="2.6426694393158">
			<ele>66.4000015258789</ele>
			<time>2013-12-29T10:26:03Z</time>
		</trkpt>
		<trkpt lat="39.5706977844238" lon="2.64258909225464">
			<ele>66.6999969482422</ele>
			<time>2013-12-29T10:26:05Z</time>
		</trkpt>
		<trkpt lat="39.5706825256348" lon="2.64251971244812">
			<ele>66.0999984741211</ele>
			<time>2013-12-29T10:26:07Z</time>
		</trkpt>
		<trkpt lat="39.5706672668457" lon="2.64245676994324">
			<ele>65.5999984741211</ele>
			<time>2013-12-29T10:26:09Z</time>
		</trkpt>
		<trkpt lat="39.5706596374512" lon="2.64239525794983">
			<ele>64.6999969482422</ele>
			<time>2013-12-29T10:26:11Z</time>
		</trkpt>
		<trkpt lat="39.5706520080566" lon="2.64233446121216">
			<ele>64.6999969482422</ele>
			<time>2013-12-29T10:26:12Z</time>
		</trkpt>
		<trkpt lat="39.5706405639648" lon="2.64225292205811">
			<ele>64.1999969482422</ele>
			<time>2013-12-29T10:26:16Z</time>
		</trkpt>
		<trkpt lat="39.5706329345703" lon="2.64218950271606">
			<ele>64.5</ele>
			<time>2013-12-29T10:26:18Z</time>
		</trkpt>
		<trkpt lat="39.570629119873" lon="2.64212536811829">
			<ele>64.5999984741211</ele>
			<time>2013-12-29T10:26:20Z</time>
		</trkpt>
		<trkpt lat="39.5706481933594" lon="2.64206647872925">
			<ele>64.5</ele>
			<time>2013-12-29T10:26:21Z</time>
		</trkpt>
		<trkpt lat="39.5706787109375" lon="2.64201855659485">
			<ele>64.0999984741211</ele>
			<time>2013-12-29T10:26:24Z</time>
		</trkpt>
		<trkpt lat="39.5707130432129" lon="2.64198303222656">
			<ele>63.9000015258789</ele>
			<time>2013-12-29T10:26:25Z</time>
		</trkpt>
		<trkpt lat="39.5707473754883" lon="2.64194107055664">
			<ele>63.7000007629395</ele>
			<time>2013-12-29T10:26:27Z</time>
		</trkpt>
		<trkpt lat="39.5707893371582" lon="2.64191627502441">
			<ele>63.9000015258789</ele>
			<time>2013-12-29T10:26:30Z</time>
		</trkpt>
		<trkpt lat="39.570858001709" lon="2.64192032814026">
			<ele>63.2999992370605</ele>
			<time>2013-12-29T10:26:33Z</time>
		</trkpt>
		<trkpt lat="39.5709075927734" lon="2.64193511009216">
			<ele>63.2000007629395</ele>
			<time>2013-12-29T10:26:35Z</time>
		</trkpt>
		<trkpt lat="39.5709609985352" lon="2.64194130897522">
			<ele>64.0999984741211</ele>
			<time>2013-12-29T10:26:37Z</time>
		</trkpt>
		<trkpt lat="39.5710105895996" lon="2.64195418357849">
			<ele>64.5</ele>
			<time>2013-12-29T10:26:39Z</time>
		</trkpt>
		<trkpt lat="39.5710601806641" lon="2.64197516441345">
			<ele>59.5</ele>
			<time>2013-12-29T10:26:41Z</time>
		</trkpt>
		<trkpt lat="39.5711135864258" lon="2.64200377464294">
			<ele>59.4000015258789</ele>
			<time>2013-12-29T10:26:43Z</time>
		</trkpt>
		<trkpt lat="39.5711631774902" lon="2.64202404022217">
			<ele>58.2999992370605</ele>
			<time>2013-12-29T10:26:45Z</time>
		</trkpt>
		<trkpt lat="39.5712127685547" lon="2.64204549789429">
			<ele>59</ele>
			<time>2013-12-29T10:26:47Z</time>
		</trkpt>
		<trkpt lat="39.5712661743164" lon="2.64205718040466">
			<ele>59.4000015258789</ele>
			<time>2013-12-29T10:26:48Z</time>
		</trkpt>
		<trkpt lat="39.5713119506836" lon="2.64203810691833">
			<ele>59.5</ele>
			<time>2013-12-29T10:26:51Z</time>
		</trkpt>
		<trkpt lat="39.5713500976563" lon="2.64198565483093">
			<ele>60.2000007629395</ele>
			<time>2013-12-29T10:26:53Z</time>
		</trkpt>
		<trkpt lat="39.5713729858398" lon="2.6419084072113">
			<ele>61</ele>
			<time>2013-12-29T10:26:55Z</time>
		</trkpt>
		<trkpt lat="39.5713958740234" lon="2.64183449745178">
			<ele>61.2000007629395</ele>
			<time>2013-12-29T10:26:57Z</time>
		</trkpt>
		<trkpt lat="39.571418762207" lon="2.64176940917969">
			<ele>61.5</ele>
			<time>2013-12-29T10:26:59Z</time>
		</trkpt>
		<trkpt lat="39.5714302062988" lon="2.64169573783875">
			<ele>62.2999992370605</ele>
			<time>2013-12-29T10:27:01Z</time>
		</trkpt>
		<trkpt lat="39.5714530944824" lon="2.64162516593933">
			<ele>62.9000015258789</ele>
			<time>2013-12-29T10:27:03Z</time>
		</trkpt>
		<trkpt lat="39.571475982666" lon="2.64155983924866">
			<ele>62.9000015258789</ele>
			<time>2013-12-29T10:27:05Z</time>
		</trkpt>
		<trkpt lat="39.5715217590332" lon="2.64153122901917">
			<ele>62.7999992370605</ele>
			<time>2013-12-29T10:27:07Z</time>
		</trkpt>
		<trkpt lat="39.5715789794922" lon="2.64154410362244">
			<ele>63.2999992370605</ele>
			<time>2013-12-29T10:27:09Z</time>
		</trkpt>
		<trkpt lat="39.5716323852539" lon="2.6415479183197">
			<ele>63.2999992370605</ele>
			<time>2013-12-29T10:27:11Z</time>
		</trkpt>
		<trkpt lat="39.5716896057129" lon="2.6415638923645">
			<ele>63.5999984741211</ele>
			<time>2013-12-29T10:27:13Z</time>
		</trkpt>
		<trkpt lat="39.5717468261719" lon="2.64157867431641">
			<ele>63.9000015258789</ele>
			<time>2013-12-29T10:27:15Z</time>
		</trkpt>
		<trkpt lat="39.5718040466309" lon="2.64159226417542">
			<ele>64.0999984741211</ele>
			<time>2013-12-29T10:27:17Z</time>
		</trkpt>
		<trkpt lat="39.5718650817871" lon="2.64160466194153">
			<ele>64.4000015258789</ele>
			<time>2013-12-29T10:27:19Z</time>
		</trkpt>
		<trkpt lat="39.5719261169434" lon="2.64161396026611">
			<ele>64.4000015258789</ele>
			<time>2013-12-29T10:27:21Z</time>
		</trkpt>
		<trkpt lat="39.5719795227051" lon="2.64162540435791">
			<ele>64.1999969482422</ele>
			<time>2013-12-29T10:27:23Z</time>
		</trkpt>
		<trkpt lat="39.5720405578613" lon="2.64163494110107">
			<ele>64.3000030517578</ele>
			<time>2013-12-29T10:27:25Z</time>
		</trkpt>
		<trkpt lat="39.5720977783203" lon="2.64164781570435">
			<ele>64.3000030517578</ele>
			<time>2013-12-29T10:27:27Z</time>
		</trkpt>
		<trkpt lat="39.5721588134766" lon="2.64166283607483">
			<ele>64.5</ele>
			<time>2013-12-29T10:27:29Z</time>
		</trkpt>
		<trkpt lat="39.5722160339355" lon="2.64166569709778">
			<ele>65</ele>
			<time>2013-12-29T10:27:31Z</time>
		</trkpt>
		<trkpt lat="39.5722694396973" lon="2.64167547225952">
			<ele>65.3000030517578</ele>
			<time>2013-12-29T10:27:33Z</time>
		</trkpt>
		<trkpt lat="39.5723304748535" lon="2.64168262481689">
			<ele>65.6999969482422</ele>
			<time>2013-12-29T10:27:35Z</time>
		</trkpt>
		<trkpt lat="39.5723876953125" lon="2.64169597625732">
			<ele>65.6999969482422</ele>
			<time>2013-12-29T10:27:37Z</time>
		</trkpt>
		<trkpt lat="39.5724411010742" lon="2.6417088508606">
			<ele>65.6999969482422</ele>
			<time>2013-12-29T10:27:39Z</time>
		</trkpt>
		<trkpt lat="39.5724906921387" lon="2.64170742034912">
			<ele>65.9000015258789</ele>
			<time>2013-12-29T10:27:41Z</time>
		</trkpt>
		<trkpt lat="39.5725517272949" lon="2.64170575141907">
			<ele>65.6999969482422</ele>
			<time>2013-12-29T10:27:44Z</time>
		</trkpt>
		<trkpt lat="39.5726051330566" lon="2.6417031288147">
			<ele>66.3000030517578</ele>
			<time>2013-12-29T10:27:59Z</time>
		</trkpt>
		<trkpt lat="39.5726547241211" lon="2.64170455932617">
			<ele>66.3000030517578</ele>
			<time>2013-12-29T10:28:01Z</time>
		</trkpt>
		<trkpt lat="39.5727081298828" lon="2.64171624183655">
			<ele>67.0999984741211</ele>
			<time>2013-12-29T10:28:05Z</time>
		</trkpt>
		<trkpt lat="39.5727691650391" lon="2.64174270629883">
			<ele>67.6999969482422</ele>
			<time>2013-12-29T10:28:07Z</time>
		</trkpt>
		<trkpt lat="39.5727996826172" lon="2.64169764518738">
			<ele>67.3000030517578</ele>
			<time>2013-12-29T10:28:11Z</time>
		</trkpt>
		<trkpt lat="39.5727729797363" lon="2.64164733886719">
			<ele>69</ele>
			<time>2013-12-29T10:29:35Z</time>
		</trkpt>
		<trkpt lat="39.5727462768555" lon="2.6415741443634">
			<ele>68.1999969482422</ele>
			<time>2013-12-29T10:29:38Z</time>
		</trkpt>
		<trkpt lat="39.5727462768555" lon="2.64151549339294">
			<ele>69.0999984741211</ele>
			<time>2013-12-29T10:29:40Z</time>
		</trkpt>
		<trkpt lat="39.5727577209473" lon="2.64145231246948">
			<ele>69.0999984741211</ele>
			<time>2013-12-29T10:29:42Z</time>
		</trkpt>
		<trkpt lat="39.5727767944336" lon="2.64138460159302">
			<ele>69.9000015258789</ele>
			<time>2013-12-29T10:29:44Z</time>
		</trkpt>
		<trkpt lat="39.5727958679199" lon="2.64132523536682">
			<ele>68.9000015258789</ele>
			<time>2013-12-29T10:29:46Z</time>
		</trkpt>
		<trkpt lat="39.5728302001953" lon="2.64125943183899">
			<ele>69.1999969482422</ele>
			<time>2013-12-29T10:29:48Z</time>
		</trkpt>
		<trkpt lat="39.5728569030762" lon="2.64120292663574">
			<ele>68.3000030517578</ele>
			<time>2013-12-29T10:29:50Z</time>
		</trkpt>
		<trkpt lat="39.5728797912598" lon="2.64113664627075">
			<ele>67.4000015258789</ele>
			<time>2013-12-29T10:29:52Z</time>
		</trkpt>
		<trkpt lat="39.5729064941406" lon="2.64106512069702">
			<ele>68.4000015258789</ele>
			<time>2013-12-29T10:29:54Z</time>
		</trkpt>
		<trkpt lat="39.5729293823242" lon="2.64099955558777">
			<ele>68.9000015258789</ele>
			<time>2013-12-29T10:29:56Z</time>
		</trkpt>
		<trkpt lat="39.5729560852051" lon="2.64094138145447">
			<ele>68</ele>
			<time>2013-12-29T10:29:58Z</time>
		</trkpt>
		<trkpt lat="39.572998046875" lon="2.64088702201843">
			<ele>66.8000030517578</ele>
			<time>2013-12-29T10:30:00Z</time>
		</trkpt>
		<trkpt lat="39.5730018615723" lon="2.64082646369934">
			<ele>68</ele>
			<time>2013-12-29T10:30:03Z</time>
		</trkpt>
		<trkpt lat="39.5730857849121" lon="2.64074873924255">
			<ele>61.9000015258789</ele>
			<time>2013-12-29T10:30:50Z</time>
		</trkpt>
		<trkpt lat="39.5731201171875" lon="2.64070749282837">
			<ele>61.2999992370605</ele>
			<time>2013-12-29T10:30:52Z</time>
		</trkpt>
		<trkpt lat="39.5731582641602" lon="2.64065456390381">
			<ele>60.7999992370605</ele>
			<time>2013-12-29T10:30:54Z</time>
		</trkpt>
		<trkpt lat="39.5732078552246" lon="2.64058518409729">
			<ele>61.4000015258789</ele>
			<time>2013-12-29T10:30:56Z</time>
		</trkpt>
		<trkpt lat="39.5732536315918" lon="2.64052271842957">
			<ele>61.7000007629395</ele>
			<time>2013-12-29T10:30:58Z</time>
		</trkpt>
		<trkpt lat="39.5732917785645" lon="2.64047884941101">
			<ele>62.0999984741211</ele>
			<time>2013-12-29T10:31:00Z</time>
		</trkpt>
		<trkpt lat="39.5733528137207" lon="2.64045691490173">
			<ele>68.0999984741211</ele>
			<time>2013-12-29T10:31:03Z</time>
		</trkpt>
		<trkpt lat="39.5733680725098" lon="2.64036464691162">
			<ele>68.3000030517578</ele>
			<time>2013-12-29T10:31:05Z</time>
		</trkpt>
		<trkpt lat="39.573413848877" lon="2.64029788970947">
			<ele>67.5999984741211</ele>
			<time>2013-12-29T10:31:07Z</time>
		</trkpt>
		<trkpt lat="39.5734558105469" lon="2.64024758338928">
			<ele>67.3000030517578</ele>
			<time>2013-12-29T10:31:09Z</time>
		</trkpt>
		<trkpt lat="39.5734977722168" lon="2.64019775390625">
			<ele>67.0999984741211</ele>
			<time>2013-12-29T10:31:11Z</time>
		</trkpt>
		<trkpt lat="39.5735168457031" lon="2.64012002944946">
			<ele>67.9000015258789</ele>
			<time>2013-12-29T10:31:13Z</time>
		</trkpt>
		<trkpt lat="39.5735473632813" lon="2.64005875587463">
			<ele>68.3000030517578</ele>
			<time>2013-12-29T10:31:15Z</time>
		</trkpt>
		<trkpt lat="39.5735969543457" lon="2.63998627662659">
			<ele>68.5</ele>
			<time>2013-12-29T10:31:17Z</time>
		</trkpt>
		<trkpt lat="39.5736274719238" lon="2.63993120193481">
			<ele>68.4000015258789</ele>
			<time>2013-12-29T10:31:18Z</time>
		</trkpt>
		<trkpt lat="39.5736999511719" lon="2.63994121551514">
			<ele>68.5</ele>
			<time>2013-12-29T10:31:20Z</time>
		</trkpt>
		<trkpt lat="39.5737419128418" lon="2.63992476463318">
			<ele>68.1999969482422</ele>
			<time>2013-12-29T10:31:22Z</time>
		</trkpt>
		<trkpt lat="39.5737380981445" lon="2.63985133171082">
			<ele>68</ele>
			<time>2013-12-29T10:31:23Z</time>
		</trkpt>
		<trkpt lat="39.5737495422363" lon="2.63976097106934">
			<ele>68</ele>
			<time>2013-12-29T10:31:25Z</time>
		</trkpt>
		<trkpt lat="39.5737915039063" lon="2.63969826698303">
			<ele>69.8000030517578</ele>
			<time>2013-12-29T10:31:28Z</time>
		</trkpt>
		<trkpt lat="39.5737533569336" lon="2.63964629173279">
			<ele>54.9000015258789</ele>
			<time>2013-12-29T10:31:32Z</time>
		</trkpt>
		<trkpt lat="39.5736694335938" lon="2.63963484764099">
			<ele>51.2000007629395</ele>
			<time>2013-12-29T10:31:36Z</time>
		</trkpt>
		<trkpt lat="39.573600769043" lon="2.63962435722351">
			<ele>50.2000007629395</ele>
			<time>2013-12-29T10:31:38Z</time>
		</trkpt>
		<trkpt lat="39.5735397338867" lon="2.63956832885742">
			<ele>50.0999984741211</ele>
			<time>2013-12-29T10:31:40Z</time>
		</trkpt>
		<trkpt lat="39.5735092163086" lon="2.63951992988586">
			<ele>52</ele>
			<time>2013-12-29T10:31:42Z</time>
		</trkpt>
		<trkpt lat="39.5734405517578" lon="2.63947105407715">
			<ele>58.4000015258789</ele>
			<time>2013-12-29T10:31:44Z</time>
		</trkpt>
		<trkpt lat="39.5733947753906" lon="2.63943552970886">
			<ele>64.4000015258789</ele>
			<time>2013-12-29T10:31:46Z</time>
		</trkpt>
		<trkpt lat="39.5733375549316" lon="2.63938736915588">
			<ele>68.5999984741211</ele>
			<time>2013-12-29T10:31:49Z</time>
		</trkpt>
		<trkpt lat="39.5733375549316" lon="2.63932251930237">
			<ele>70</ele>
			<time>2013-12-29T10:31:51Z</time>
		</trkpt>
		<trkpt lat="39.5733528137207" lon="2.63925266265869">
			<ele>69.5</ele>
			<time>2013-12-29T10:31:53Z</time>
		</trkpt>
		<trkpt lat="39.5733680725098" lon="2.6391806602478">
			<ele>70.9000015258789</ele>
			<time>2013-12-29T10:31:55Z</time>
		</trkpt>
		<trkpt lat="39.5733795166016" lon="2.63911485671997">
			<ele>70.9000015258789</ele>
			<time>2013-12-29T10:31:57Z</time>
		</trkpt>
		<trkpt lat="39.5733909606934" lon="2.6390552520752">
			<ele>71.4000015258789</ele>
			<time>2013-12-29T10:31:59Z</time>
		</trkpt>
		<trkpt lat="39.5734024047852" lon="2.63899683952332">
			<ele>71.3000030517578</ele>
			<time>2013-12-29T10:32:01Z</time>
		</trkpt>
		<trkpt lat="39.5734176635742" lon="2.63890814781189">
			<ele>70.0999984741211</ele>
			<time>2013-12-29T10:32:04Z</time>
		</trkpt>
		<trkpt lat="39.5734367370605" lon="2.63883662223816">
			<ele>70.5</ele>
			<time>2013-12-29T10:32:06Z</time>
		</trkpt>
		<trkpt lat="39.5734519958496" lon="2.63877320289612">
			<ele>71.0999984741211</ele>
			<time>2013-12-29T10:32:08Z</time>
		</trkpt>
		<trkpt lat="39.5734634399414" lon="2.63868594169617">
			<ele>71.8000030517578</ele>
			<time>2013-12-29T10:32:11Z</time>
		</trkpt>
		<trkpt lat="39.5734596252441" lon="2.63862133026123">
			<ele>72.0999984741211</ele>
			<time>2013-12-29T10:32:13Z</time>
		</trkpt>
		<trkpt lat="39.5734214782715" lon="2.63854694366455">
			<ele>71.5999984741211</ele>
			<time>2013-12-29T10:32:15Z</time>
		</trkpt>
		<trkpt lat="39.5733909606934" lon="2.6384699344635">
			<ele>71.0999984741211</ele>
			<time>2013-12-29T10:32:17Z</time>
		</trkpt>
		<trkpt lat="39.5733528137207" lon="2.63838219642639">
			<ele>70.8000030517578</ele>
			<time>2013-12-29T10:32:19Z</time>
		</trkpt>
		<trkpt lat="39.5733184814453" lon="2.6383011341095">
			<ele>70.9000015258789</ele>
			<time>2013-12-29T10:32:21Z</time>
		</trkpt>
		<trkpt lat="39.5732574462891" lon="2.63820743560791">
			<ele>70.5999984741211</ele>
			<time>2013-12-29T10:32:23Z</time>
		</trkpt>
		<trkpt lat="39.5732269287109" lon="2.63815784454346">
			<ele>70.5</ele>
			<time>2013-12-29T10:32:24Z</time>
		</trkpt>
		<trkpt lat="39.5732002258301" lon="2.6381094455719">
			<ele>70.4000015258789</ele>
			<time>2013-12-29T10:32:25Z</time>
		</trkpt>
		<trkpt lat="39.5731582641602" lon="2.63806200027466">
			<ele>70.6999969482422</ele>
			<time>2013-12-29T10:32:26Z</time>
		</trkpt>
		<trkpt lat="39.5731239318848" lon="2.63802075386047">
			<ele>70.0999984741211</ele>
			<time>2013-12-29T10:32:27Z</time>
		</trkpt>
		<trkpt lat="39.5730667114258" lon="2.63793158531189">
			<ele>70.1999969482422</ele>
			<time>2013-12-29T10:32:29Z</time>
		</trkpt>
		<trkpt lat="39.5730285644531" lon="2.63788437843323">
			<ele>70.6999969482422</ele>
			<time>2013-12-29T10:32:30Z</time>
		</trkpt>
		<trkpt lat="39.572998046875" lon="2.63783288002014">
			<ele>70.6999969482422</ele>
			<time>2013-12-29T10:32:31Z</time>
		</trkpt>
		<trkpt lat="39.5729522705078" lon="2.63773226737976">
			<ele>71.3000030517578</ele>
			<time>2013-12-29T10:32:33Z</time>
		</trkpt>
		<trkpt lat="39.5729179382324" lon="2.63768172264099">
			<ele>71.1999969482422</ele>
			<time>2013-12-29T10:32:34Z</time>
		</trkpt>
		<trkpt lat="39.5728874206543" lon="2.63762903213501">
			<ele>70.4000015258789</ele>
			<time>2013-12-29T10:32:35Z</time>
		</trkpt>
		<trkpt lat="39.5728569030762" lon="2.63757586479187">
			<ele>70</ele>
			<time>2013-12-29T10:32:36Z</time>
		</trkpt>
		<trkpt lat="39.5728225708008" lon="2.63751649856567">
			<ele>69.4000015258789</ele>
			<time>2013-12-29T10:32:37Z</time>
		</trkpt>
		<trkpt lat="39.5727882385254" lon="2.63746237754822">
			<ele>69.0999984741211</ele>
			<time>2013-12-29T10:32:38Z</time>
		</trkpt>
		<trkpt lat="39.57275390625" lon="2.63740348815918">
			<ele>69</ele>
			<time>2013-12-29T10:32:39Z</time>
		</trkpt>
		<trkpt lat="39.5727005004883" lon="2.63732290267944">
			<ele>66.5</ele>
			<time>2013-12-29T10:32:41Z</time>
		</trkpt>
		<trkpt lat="39.5726623535156" lon="2.63726401329041">
			<ele>67.0999984741211</ele>
			<time>2013-12-29T10:32:42Z</time>
		</trkpt>
		<trkpt lat="39.5726280212402" lon="2.63721060752869">
			<ele>67.0999984741211</ele>
			<time>2013-12-29T10:32:43Z</time>
		</trkpt>
		<trkpt lat="39.5725936889648" lon="2.63715839385986">
			<ele>67</ele>
			<time>2013-12-29T10:32:44Z</time>
		</trkpt>
		<trkpt lat="39.5725631713867" lon="2.63710260391235">
			<ele>67.1999969482422</ele>
			<time>2013-12-29T10:32:45Z</time>
		</trkpt>
		<trkpt lat="39.5725517272949" lon="2.63703989982605">
			<ele>67.1999969482422</ele>
			<time>2013-12-29T10:32:46Z</time>
		</trkpt>
		<trkpt lat="39.5725173950195" lon="2.63697648048401">
			<ele>67.4000015258789</ele>
			<time>2013-12-29T10:32:47Z</time>
		</trkpt>
		<trkpt lat="39.5724830627441" lon="2.6369149684906">
			<ele>67.4000015258789</ele>
			<time>2013-12-29T10:32:48Z</time>
		</trkpt>
		<trkpt lat="39.572437286377" lon="2.63686871528625">
			<ele>67.3000030517578</ele>
			<time>2013-12-29T10:32:49Z</time>
		</trkpt>
		<trkpt lat="39.572395324707" lon="2.63679313659668">
			<ele>67.9000015258789</ele>
			<time>2013-12-29T10:32:50Z</time>
		</trkpt>
		<trkpt lat="39.5723495483398" lon="2.63672995567322">
			<ele>67.3000030517578</ele>
			<time>2013-12-29T10:32:51Z</time>
		</trkpt>
		<trkpt lat="39.5723114013672" lon="2.63666033744812">
			<ele>67.5</ele>
			<time>2013-12-29T10:32:52Z</time>
		</trkpt>
		<trkpt lat="39.5722770690918" lon="2.63659024238586">
			<ele>67.5999984741211</ele>
			<time>2013-12-29T10:32:53Z</time>
		</trkpt>
		<trkpt lat="39.5722389221191" lon="2.63652348518372">
			<ele>67.5999984741211</ele>
			<time>2013-12-29T10:32:54Z</time>
		</trkpt>
		<trkpt lat="39.5722007751465" lon="2.6364598274231">
			<ele>67.3000030517578</ele>
			<time>2013-12-29T10:32:55Z</time>
		</trkpt>
		<trkpt lat="39.5721588134766" lon="2.63639163970947">
			<ele>67.1999969482422</ele>
			<time>2013-12-29T10:32:56Z</time>
		</trkpt>
		<trkpt lat="39.5721206665039" lon="2.63632488250732">
			<ele>67.4000015258789</ele>
			<time>2013-12-29T10:32:57Z</time>
		</trkpt>
		<trkpt lat="39.5720748901367" lon="2.6362578868866">
			<ele>67.4000015258789</ele>
			<time>2013-12-29T10:32:58Z</time>
		</trkpt>
		<trkpt lat="39.5720367431641" lon="2.63619613647461">
			<ele>67.4000015258789</ele>
			<time>2013-12-29T10:32:59Z</time>
		</trkpt>
		<trkpt lat="39.5720024108887" lon="2.63613724708557">
			<ele>67.3000030517578</ele>
			<time>2013-12-29T10:33:00Z</time>
		</trkpt>
		<trkpt lat="39.5719680786133" lon="2.63608860969543">
			<ele>68.3000030517578</ele>
			<time>2013-12-29T10:33:01Z</time>
		</trkpt>
		<trkpt lat="39.5719375610352" lon="2.63603234291077">
			<ele>69.3000030517578</ele>
			<time>2013-12-29T10:33:02Z</time>
		</trkpt>
		<trkpt lat="39.5719108581543" lon="2.63598155975342">
			<ele>69.0999984741211</ele>
			<time>2013-12-29T10:33:03Z</time>
		</trkpt>
		<trkpt lat="39.5718841552734" lon="2.63593220710754">
			<ele>69.4000015258789</ele>
			<time>2013-12-29T10:33:04Z</time>
		</trkpt>
		<trkpt lat="39.5718383789063" lon="2.6358482837677">
			<ele>69.8000030517578</ele>
			<time>2013-12-29T10:33:06Z</time>
		</trkpt>
		<trkpt lat="39.5718116760254" lon="2.6357958316803">
			<ele>69.5</ele>
			<time>2013-12-29T10:33:08Z</time>
		</trkpt>
		<trkpt lat="39.5717658996582" lon="2.63577675819397">
			<ele>72.9000015258789</ele>
			<time>2013-12-29T10:33:20Z</time>
		</trkpt>
		<trkpt lat="39.5717430114746" lon="2.63571119308472">
			<ele>72.4000015258789</ele>
			<time>2013-12-29T10:33:42Z</time>
		</trkpt>
		<trkpt lat="39.5717010498047" lon="2.63563418388367">
			<ele>72.9000015258789</ele>
			<time>2013-12-29T10:33:44Z</time>
		</trkpt>
		<trkpt lat="39.5716667175293" lon="2.63556981086731">
			<ele>73.3000030517578</ele>
			<time>2013-12-29T10:33:46Z</time>
		</trkpt>
		<trkpt lat="39.5716361999512" lon="2.63550162315369">
			<ele>72.8000030517578</ele>
			<time>2013-12-29T10:33:48Z</time>
		</trkpt>
		<trkpt lat="39.5715866088867" lon="2.63544464111328">
			<ele>72.9000015258789</ele>
			<time>2013-12-29T10:33:50Z</time>
		</trkpt>
		<trkpt lat="39.5715446472168" lon="2.63538265228271">
			<ele>72.4000015258789</ele>
			<time>2013-12-29T10:33:52Z</time>
		</trkpt>
		<trkpt lat="39.5715103149414" lon="2.63530135154724">
			<ele>72.3000030517578</ele>
			<time>2013-12-29T10:33:54Z</time>
		</trkpt>
		<trkpt lat="39.571475982666" lon="2.63522934913635">
			<ele>72.0999984741211</ele>
			<time>2013-12-29T10:33:56Z</time>
		</trkpt>
		<trkpt lat="39.5714378356934" lon="2.63515901565552">
			<ele>72.0999984741211</ele>
			<time>2013-12-29T10:33:58Z</time>
		</trkpt>
		<trkpt lat="39.5713882446289" lon="2.63510608673096">
			<ele>72.3000030517578</ele>
			<time>2013-12-29T10:34:00Z</time>
		</trkpt>
		<trkpt lat="39.5713424682617" lon="2.6350314617157">
			<ele>72.1999969482422</ele>
			<time>2013-12-29T10:34:02Z</time>
		</trkpt>
		<trkpt lat="39.5713119506836" lon="2.63495707511902">
			<ele>72.1999969482422</ele>
			<time>2013-12-29T10:34:03Z</time>
		</trkpt>
		<trkpt lat="39.5712661743164" lon="2.63490986824036">
			<ele>72</ele>
			<time>2013-12-29T10:34:04Z</time>
		</trkpt>
		<trkpt lat="39.5712203979492" lon="2.6348340511322">
			<ele>71.1999969482422</ele>
			<time>2013-12-29T10:34:06Z</time>
		</trkpt>
		<trkpt lat="39.5711936950684" lon="2.63478779792786">
			<ele>71.5</ele>
			<time>2013-12-29T10:34:07Z</time>
		</trkpt>
		<trkpt lat="39.5711479187012" lon="2.63470506668091">
			<ele>71.3000030517578</ele>
			<time>2013-12-29T10:34:09Z</time>
		</trkpt>
		<trkpt lat="39.5711059570313" lon="2.6346583366394">
			<ele>70.5</ele>
			<time>2013-12-29T10:34:10Z</time>
		</trkpt>
		<trkpt lat="39.5710792541504" lon="2.63460469245911">
			<ele>69.9000015258789</ele>
			<time>2013-12-29T10:34:11Z</time>
		</trkpt>
		<trkpt lat="39.571044921875" lon="2.63453364372253">
			<ele>70.1999969482422</ele>
			<time>2013-12-29T10:34:13Z</time>
		</trkpt>
		<trkpt lat="39.5710144042969" lon="2.63447499275208">
			<ele>70.4000015258789</ele>
			<time>2013-12-29T10:34:14Z</time>
		</trkpt>
		<trkpt lat="39.5709800720215" lon="2.63440728187561">
			<ele>70.3000030517578</ele>
			<time>2013-12-29T10:34:15Z</time>
		</trkpt>
		<trkpt lat="39.5709342956543" lon="2.63434052467346">
			<ele>70.4000015258789</ele>
			<time>2013-12-29T10:34:16Z</time>
		</trkpt>
		<trkpt lat="39.5708999633789" lon="2.63429641723633">
			<ele>70.3000030517578</ele>
			<time>2013-12-29T10:34:17Z</time>
		</trkpt>
		<trkpt lat="39.5708694458008" lon="2.63423585891724">
			<ele>70.4000015258789</ele>
			<time>2013-12-29T10:34:18Z</time>
		</trkpt>
		<trkpt lat="39.5708274841309" lon="2.63418173789978">
			<ele>70.5999984741211</ele>
			<time>2013-12-29T10:34:19Z</time>
		</trkpt>
		<trkpt lat="39.5707855224609" lon="2.63408350944519">
			<ele>70.5999984741211</ele>
			<time>2013-12-29T10:34:21Z</time>
		</trkpt>
		<trkpt lat="39.570728302002" lon="2.63401913642883">
			<ele>70.5999984741211</ele>
			<time>2013-12-29T10:34:22Z</time>
		</trkpt>
		<trkpt lat="39.5706939697266" lon="2.63395500183105">
			<ele>70.5999984741211</ele>
			<time>2013-12-29T10:34:23Z</time>
		</trkpt>
		<trkpt lat="39.5706596374512" lon="2.63390016555786">
			<ele>71</ele>
			<time>2013-12-29T10:34:24Z</time>
		</trkpt>
		<trkpt lat="39.570629119873" lon="2.63384199142456">
			<ele>71.5999984741211</ele>
			<time>2013-12-29T10:34:25Z</time>
		</trkpt>
		<trkpt lat="39.5705833435059" lon="2.63378024101257">
			<ele>71.5999984741211</ele>
			<time>2013-12-29T10:34:26Z</time>
		</trkpt>
		<trkpt lat="39.5705490112305" lon="2.63372206687927">
			<ele>71.6999969482422</ele>
			<time>2013-12-29T10:34:27Z</time>
		</trkpt>
		<trkpt lat="39.5705108642578" lon="2.63366866111755">
			<ele>71.5</ele>
			<time>2013-12-29T10:34:28Z</time>
		</trkpt>
		<trkpt lat="39.5704765319824" lon="2.63360285758972">
			<ele>71.5</ele>
			<time>2013-12-29T10:34:29Z</time>
		</trkpt>
		<trkpt lat="39.5704536437988" lon="2.63353395462036">
			<ele>69.8000030517578</ele>
			<time>2013-12-29T10:34:30Z</time>
		</trkpt>
		<trkpt lat="39.5704154968262" lon="2.63346457481384">
			<ele>69.0999984741211</ele>
			<time>2013-12-29T10:34:31Z</time>
		</trkpt>
		<trkpt lat="39.5703773498535" lon="2.63339281082153">
			<ele>68.5999984741211</ele>
			<time>2013-12-29T10:34:32Z</time>
		</trkpt>
		<trkpt lat="39.5703430175781" lon="2.63332772254944">
			<ele>69.5999984741211</ele>
			<time>2013-12-29T10:34:33Z</time>
		</trkpt>
		<trkpt lat="39.5703086853027" lon="2.63326263427734">
			<ele>70</ele>
			<time>2013-12-29T10:34:34Z</time>
		</trkpt>
		<trkpt lat="39.5702857971191" lon="2.63317227363586">
			<ele>65.6999969482422</ele>
			<time>2013-12-29T10:34:36Z</time>
		</trkpt>
		<trkpt lat="39.5702590942383" lon="2.63312101364136">
			<ele>65.5999984741211</ele>
			<time>2013-12-29T10:34:37Z</time>
		</trkpt>
		<trkpt lat="39.5702247619629" lon="2.63305234909058">
			<ele>65.0999984741211</ele>
			<time>2013-12-29T10:34:39Z</time>
		</trkpt>
		<trkpt lat="39.5701904296875" lon="2.63298749923706">
			<ele>65.9000015258789</ele>
			<time>2013-12-29T10:34:41Z</time>
		</trkpt>
		<trkpt lat="39.5701599121094" lon="2.63290619850159">
			<ele>67.9000015258789</ele>
			<time>2013-12-29T10:35:02Z</time>
		</trkpt>
		<trkpt lat="39.5701751708984" lon="2.63283443450928">
			<ele>68.3000030517578</ele>
			<time>2013-12-29T10:35:04Z</time>
		</trkpt>
		<trkpt lat="39.5702285766602" lon="2.63277387619019">
			<ele>67.8000030517578</ele>
			<time>2013-12-29T10:35:07Z</time>
		</trkpt>
		<trkpt lat="39.5702781677246" lon="2.6327269077301">
			<ele>68.9000015258789</ele>
			<time>2013-12-29T10:35:09Z</time>
		</trkpt>
		<trkpt lat="39.5703277587891" lon="2.63268280029297">
			<ele>68.3000030517578</ele>
			<time>2013-12-29T10:35:11Z</time>
		</trkpt>
		<trkpt lat="39.5703811645508" lon="2.63263893127441">
			<ele>68.1999969482422</ele>
			<time>2013-12-29T10:35:13Z</time>
		</trkpt>
		<trkpt lat="39.5704307556152" lon="2.63259506225586">
			<ele>68.5</ele>
			<time>2013-12-29T10:35:15Z</time>
		</trkpt>
		<trkpt lat="39.5704689025879" lon="2.63254618644714">
			<ele>67.5</ele>
			<time>2013-12-29T10:35:17Z</time>
		</trkpt>
		<trkpt lat="39.5705070495605" lon="2.63249182701111">
			<ele>65.8000030517578</ele>
			<time>2013-12-29T10:35:19Z</time>
		</trkpt>
		<trkpt lat="39.5705223083496" lon="2.63242316246033">
			<ele>66.5999984741211</ele>
			<time>2013-12-29T10:35:21Z</time>
		</trkpt>
		<trkpt lat="39.5705261230469" lon="2.63235020637512">
			<ele>66.6999969482422</ele>
			<time>2013-12-29T10:35:23Z</time>
		</trkpt>
		<trkpt lat="39.5705337524414" lon="2.63227415084839">
			<ele>68</ele>
			<time>2013-12-29T10:35:25Z</time>
		</trkpt>
		<trkpt lat="39.5705528259277" lon="2.63219618797302">
			<ele>68</ele>
			<time>2013-12-29T10:35:27Z</time>
		</trkpt>
		<trkpt lat="39.5705642700195" lon="2.63211631774902">
			<ele>68.0999984741211</ele>
			<time>2013-12-29T10:35:29Z</time>
		</trkpt>
		<trkpt lat="39.5705680847168" lon="2.63203930854797">
			<ele>68.5</ele>
			<time>2013-12-29T10:35:31Z</time>
		</trkpt>
		<trkpt lat="39.5705833435059" lon="2.6319591999054">
			<ele>68.8000030517578</ele>
			<time>2013-12-29T10:35:33Z</time>
		</trkpt>
		<trkpt lat="39.5705604553223" lon="2.63189435005188">
			<ele>68</ele>
			<time>2013-12-29T10:35:35Z</time>
		</trkpt>
		<trkpt lat="39.5705642700195" lon="2.63182377815247">
			<ele>68</ele>
			<time>2013-12-29T10:35:37Z</time>
		</trkpt>
		<trkpt lat="39.5705642700195" lon="2.63176083564758">
			<ele>68.3000030517578</ele>
			<time>2013-12-29T10:35:39Z</time>
		</trkpt>
		<trkpt lat="39.5705757141113" lon="2.63169407844543">
			<ele>68.5999984741211</ele>
			<time>2013-12-29T10:35:41Z</time>
		</trkpt>
		<trkpt lat="39.5705795288086" lon="2.63162660598755">
			<ele>68.5</ele>
			<time>2013-12-29T10:35:43Z</time>
		</trkpt>
		<trkpt lat="39.5705909729004" lon="2.63155889511108">
			<ele>68.5</ele>
			<time>2013-12-29T10:35:45Z</time>
		</trkpt>
		<trkpt lat="39.5705947875977" lon="2.63148641586304">
			<ele>69.8000030517578</ele>
			<time>2013-12-29T10:35:47Z</time>
		</trkpt>
		<trkpt lat="39.5705986022949" lon="2.63141393661499">
			<ele>70.3000030517578</ele>
			<time>2013-12-29T10:35:49Z</time>
		</trkpt>
		<trkpt lat="39.5706100463867" lon="2.6313202381134">
			<ele>68.8000030517578</ele>
			<time>2013-12-29T10:35:52Z</time>
		</trkpt>
		<trkpt lat="39.5706100463867" lon="2.63125658035278">
			<ele>69</ele>
			<time>2013-12-29T10:35:53Z</time>
		</trkpt>
		<trkpt lat="39.570613861084" lon="2.63117671012878">
			<ele>68.8000030517578</ele>
			<time>2013-12-29T10:35:56Z</time>
		</trkpt>
		<trkpt lat="39.5706176757813" lon="2.63110280036926">
			<ele>68.9000015258789</ele>
			<time>2013-12-29T10:35:58Z</time>
		</trkpt>
		<trkpt lat="39.5706214904785" lon="2.63103365898132">
			<ele>69</ele>
			<time>2013-12-29T10:36:00Z</time>
		</trkpt>
		<trkpt lat="39.5706253051758" lon="2.63096475601196">
			<ele>69.3000030517578</ele>
			<time>2013-12-29T10:36:02Z</time>
		</trkpt>
		<trkpt lat="39.5706214904785" lon="2.63090062141418">
			<ele>69.5</ele>
			<time>2013-12-29T10:36:04Z</time>
		</trkpt>
		<trkpt lat="39.5706520080566" lon="2.63082981109619">
			<ele>69.1999969482422</ele>
			<time>2013-12-29T10:36:06Z</time>
		</trkpt>
		<trkpt lat="39.5706481933594" lon="2.63076424598694">
			<ele>70.1999969482422</ele>
			<time>2013-12-29T10:36:08Z</time>
		</trkpt>
		<trkpt lat="39.5706558227539" lon="2.63069343566895">
			<ele>71</ele>
			<time>2013-12-29T10:36:10Z</time>
		</trkpt>
		<trkpt lat="39.5706596374512" lon="2.63062143325806">
			<ele>71.4000015258789</ele>
			<time>2013-12-29T10:36:12Z</time>
		</trkpt>
		<trkpt lat="39.570671081543" lon="2.63054323196411">
			<ele>71.8000030517578</ele>
			<time>2013-12-29T10:36:15Z</time>
		</trkpt>
		<trkpt lat="39.570686340332" lon="2.63048410415649">
			<ele>72.6999969482422</ele>
			<time>2013-12-29T10:36:19Z</time>
		</trkpt>
		<trkpt lat="39.5706901550293" lon="2.63041114807129">
			<ele>71.8000030517578</ele>
			<time>2013-12-29T10:36:43Z</time>
		</trkpt>
		<trkpt lat="39.5706901550293" lon="2.63035202026367">
			<ele>72.5999984741211</ele>
			<time>2013-12-29T10:36:45Z</time>
		</trkpt>
		<trkpt lat="39.5706787109375" lon="2.63027596473694">
			<ele>72.4000015258789</ele>
			<time>2013-12-29T10:36:47Z</time>
		</trkpt>
		<trkpt lat="39.5706748962402" lon="2.63020443916321">
			<ele>72.5</ele>
			<time>2013-12-29T10:36:49Z</time>
		</trkpt>
		<trkpt lat="39.5706634521484" lon="2.63013696670532">
			<ele>73.3000030517578</ele>
			<time>2013-12-29T10:36:51Z</time>
		</trkpt>
		<trkpt lat="39.5706520080566" lon="2.6300733089447">
			<ele>73.1999969482422</ele>
			<time>2013-12-29T10:36:53Z</time>
		</trkpt>
		<trkpt lat="39.5706481933594" lon="2.62999963760376">
			<ele>73.5</ele>
			<time>2013-12-29T10:36:55Z</time>
		</trkpt>
		<trkpt lat="39.5706443786621" lon="2.62993764877319">
			<ele>73.6999969482422</ele>
			<time>2013-12-29T10:36:56Z</time>
		</trkpt>
		<trkpt lat="39.5706481933594" lon="2.62986516952515">
			<ele>74.6999969482422</ele>
			<time>2013-12-29T10:36:59Z</time>
		</trkpt>
		<trkpt lat="39.5706443786621" lon="2.62979459762573">
			<ele>74.6999969482422</ele>
			<time>2013-12-29T10:37:01Z</time>
		</trkpt>
		<trkpt lat="39.5706405639648" lon="2.62972664833069">
			<ele>76.0999984741211</ele>
			<time>2013-12-29T10:37:02Z</time>
		</trkpt>
		<trkpt lat="39.5706329345703" lon="2.62966418266296">
			<ele>76.5</ele>
			<time>2013-12-29T10:37:04Z</time>
		</trkpt>
		<trkpt lat="39.570629119873" lon="2.6295919418335">
			<ele>77.8000030517578</ele>
			<time>2013-12-29T10:37:07Z</time>
		</trkpt>
		<trkpt lat="39.5706367492676" lon="2.62950539588928">
			<ele>78.1999969482422</ele>
			<time>2013-12-29T10:37:09Z</time>
		</trkpt>
		<trkpt lat="39.5706329345703" lon="2.6294264793396">
			<ele>78</ele>
			<time>2013-12-29T10:37:11Z</time>
		</trkpt>
		<trkpt lat="39.5706253051758" lon="2.62935757637024">
			<ele>78.1999969482422</ele>
			<time>2013-12-29T10:37:13Z</time>
		</trkpt>
		<trkpt lat="39.5706214904785" lon="2.62929105758667">
			<ele>78.6999969482422</ele>
			<time>2013-12-29T10:37:15Z</time>
		</trkpt>
		<trkpt lat="39.5706176757813" lon="2.62922477722168">
			<ele>78.5</ele>
			<time>2013-12-29T10:37:17Z</time>
		</trkpt>
		<trkpt lat="39.5706214904785" lon="2.62916326522827">
			<ele>76.8000030517578</ele>
			<time>2013-12-29T10:37:19Z</time>
		</trkpt>
		<trkpt lat="39.5706214904785" lon="2.62909293174744">
			<ele>76.4000015258789</ele>
			<time>2013-12-29T10:37:21Z</time>
		</trkpt>
		<trkpt lat="39.5706176757813" lon="2.62902283668518">
			<ele>76.3000030517578</ele>
			<time>2013-12-29T10:37:23Z</time>
		</trkpt>
		<trkpt lat="39.5706176757813" lon="2.62895154953003">
			<ele>76.6999969482422</ele>
			<time>2013-12-29T10:37:25Z</time>
		</trkpt>
		<trkpt lat="39.570613861084" lon="2.62888216972351">
			<ele>77.0999984741211</ele>
			<time>2013-12-29T10:37:27Z</time>
		</trkpt>
		<trkpt lat="39.5706100463867" lon="2.6288149356842">
			<ele>77.9000015258789</ele>
			<time>2013-12-29T10:37:29Z</time>
		</trkpt>
		<trkpt lat="39.5706100463867" lon="2.62874388694763">
			<ele>78.5</ele>
			<time>2013-12-29T10:37:31Z</time>
		</trkpt>
		<trkpt lat="39.5706062316895" lon="2.62867283821106">
			<ele>78.8000030517578</ele>
			<time>2013-12-29T10:37:33Z</time>
		</trkpt>
		<trkpt lat="39.5705986022949" lon="2.62860369682312">
			<ele>79.6999969482422</ele>
			<time>2013-12-29T10:37:35Z</time>
		</trkpt>
		<trkpt lat="39.5705986022949" lon="2.62853217124939">
			<ele>79.6999969482422</ele>
			<time>2013-12-29T10:37:37Z</time>
		</trkpt>
		<trkpt lat="39.5705909729004" lon="2.62845039367676">
			<ele>80.3000030517578</ele>
			<time>2013-12-29T10:37:39Z</time>
		</trkpt>
		<trkpt lat="39.570613861084" lon="2.62839341163635">
			<ele>78.8000030517578</ele>
			<time>2013-12-29T10:37:40Z</time>
		</trkpt>
		<trkpt lat="39.5706253051758" lon="2.62831974029541">
			<ele>78.6999969482422</ele>
			<time>2013-12-29T10:37:43Z</time>
		</trkpt>
		<trkpt lat="39.5706329345703" lon="2.62824130058289">
			<ele>78.4000015258789</ele>
			<time>2013-12-29T10:37:45Z</time>
		</trkpt>
		<trkpt lat="39.5706405639648" lon="2.62816452980042">
			<ele>78.5</ele>
			<time>2013-12-29T10:37:47Z</time>
		</trkpt>
		<trkpt lat="39.5706481933594" lon="2.62808990478516">
			<ele>78.4000015258789</ele>
			<time>2013-12-29T10:37:49Z</time>
		</trkpt>
		<trkpt lat="39.5706558227539" lon="2.62801909446716">
			<ele>78.8000030517578</ele>
			<time>2013-12-29T10:37:51Z</time>
		</trkpt>
		<trkpt lat="39.5706634521484" lon="2.62795352935791">
			<ele>78.4000015258789</ele>
			<time>2013-12-29T10:37:53Z</time>
		</trkpt>
		<trkpt lat="39.570671081543" lon="2.62788343429565">
			<ele>78.5</ele>
			<time>2013-12-29T10:37:55Z</time>
		</trkpt>
		<trkpt lat="39.5706748962402" lon="2.62781524658203">
			<ele>78.8000030517578</ele>
			<time>2013-12-29T10:37:56Z</time>
		</trkpt>
		<trkpt lat="39.570686340332" lon="2.62775588035583">
			<ele>78.0999984741211</ele>
			<time>2013-12-29T10:37:58Z</time>
		</trkpt>
		<trkpt lat="39.5706977844238" lon="2.62769269943237">
			<ele>77.6999969482422</ele>
			<time>2013-12-29T10:38:00Z</time>
		</trkpt>
		<trkpt lat="39.5707092285156" lon="2.62762761116028">
			<ele>77.4000015258789</ele>
			<time>2013-12-29T10:38:02Z</time>
		</trkpt>
		<trkpt lat="39.5707168579102" lon="2.62755346298218">
			<ele>77.5999984741211</ele>
			<time>2013-12-29T10:38:05Z</time>
		</trkpt>
		<trkpt lat="39.5707244873047" lon="2.62747836112976">
			<ele>77.9000015258789</ele>
			<time>2013-12-29T10:38:07Z</time>
		</trkpt>
		<trkpt lat="39.5707359313965" lon="2.62740087509155">
			<ele>78.5999984741211</ele>
			<time>2013-12-29T10:38:09Z</time>
		</trkpt>
		<trkpt lat="39.5707473754883" lon="2.62733483314514">
			<ele>78.8000030517578</ele>
			<time>2013-12-29T10:38:10Z</time>
		</trkpt>
		<trkpt lat="39.5707626342773" lon="2.62726998329163">
			<ele>78.9000015258789</ele>
			<time>2013-12-29T10:38:12Z</time>
		</trkpt>
		<trkpt lat="39.5707855224609" lon="2.62720131874084">
			<ele>78.6999969482422</ele>
			<time>2013-12-29T10:38:15Z</time>
		</trkpt>
		<trkpt lat="39.5708045959473" lon="2.62712907791138">
			<ele>78.9000015258789</ele>
			<time>2013-12-29T10:38:17Z</time>
		</trkpt>
		<trkpt lat="39.5708160400391" lon="2.62705898284912">
			<ele>79.0999984741211</ele>
			<time>2013-12-29T10:38:19Z</time>
		</trkpt>
		<trkpt lat="39.5708274841309" lon="2.62699747085571">
			<ele>78.6999969482422</ele>
			<time>2013-12-29T10:38:20Z</time>
		</trkpt>
		<trkpt lat="39.5708465576172" lon="2.62693071365356">
			<ele>78.8000030517578</ele>
			<time>2013-12-29T10:38:22Z</time>
		</trkpt>
		<trkpt lat="39.5708656311035" lon="2.62686562538147">
			<ele>79.8000030517578</ele>
			<time>2013-12-29T10:38:24Z</time>
		</trkpt>
		<trkpt lat="39.5708847045898" lon="2.62680315971375">
			<ele>79.8000030517578</ele>
			<time>2013-12-29T10:38:26Z</time>
		</trkpt>
		<trkpt lat="39.5709037780762" lon="2.6267454624176">
			<ele>80</ele>
			<time>2013-12-29T10:38:28Z</time>
		</trkpt>
		<trkpt lat="39.5709228515625" lon="2.62668704986572">
			<ele>80.4000015258789</ele>
			<time>2013-12-29T10:38:30Z</time>
		</trkpt>
		<trkpt lat="39.5709381103516" lon="2.62662434577942">
			<ele>81</ele>
			<time>2013-12-29T10:38:32Z</time>
		</trkpt>
		<trkpt lat="39.5709609985352" lon="2.6265697479248">
			<ele>80.4000015258789</ele>
			<time>2013-12-29T10:38:34Z</time>
		</trkpt>
		<trkpt lat="39.5709800720215" lon="2.62650918960571">
			<ele>80.5</ele>
			<time>2013-12-29T10:38:36Z</time>
		</trkpt>
		<trkpt lat="39.5709991455078" lon="2.62644743919373">
			<ele>80.3000030517578</ele>
			<time>2013-12-29T10:38:38Z</time>
		</trkpt>
		<trkpt lat="39.5710220336914" lon="2.62638092041016">
			<ele>80.6999969482422</ele>
			<time>2013-12-29T10:38:41Z</time>
		</trkpt>
		<trkpt lat="39.5710487365723" lon="2.62631750106812">
			<ele>81.0999984741211</ele>
			<time>2013-12-29T10:38:43Z</time>
		</trkpt>
		<trkpt lat="39.5710678100586" lon="2.62625622749329">
			<ele>81.6999969482422</ele>
			<time>2013-12-29T10:38:45Z</time>
		</trkpt>
		<trkpt lat="39.5710830688477" lon="2.62619614601135">
			<ele>81.9000015258789</ele>
			<time>2013-12-29T10:38:47Z</time>
		</trkpt>
		<trkpt lat="39.5710983276367" lon="2.62613773345947">
			<ele>82.1999969482422</ele>
			<time>2013-12-29T10:38:49Z</time>
		</trkpt>
		<trkpt lat="39.571117401123" lon="2.62608027458191">
			<ele>83.1999969482422</ele>
			<time>2013-12-29T10:38:51Z</time>
		</trkpt>
		<trkpt lat="39.5711364746094" lon="2.62602305412292">
			<ele>83.5999984741211</ele>
			<time>2013-12-29T10:38:53Z</time>
		</trkpt>
		<trkpt lat="39.5711555480957" lon="2.62596917152405">
			<ele>84.5</ele>
			<time>2013-12-29T10:38:55Z</time>
		</trkpt>
		<trkpt lat="39.5711822509766" lon="2.62590336799622">
			<ele>85.5</ele>
			<time>2013-12-29T10:38:57Z</time>
		</trkpt>
		<trkpt lat="39.5712013244629" lon="2.62584066390991">
			<ele>86.5999984741211</ele>
			<time>2013-12-29T10:38:59Z</time>
		</trkpt>
		<trkpt lat="39.571216583252" lon="2.62577986717224">
			<ele>86.8000030517578</ele>
			<time>2013-12-29T10:39:01Z</time>
		</trkpt>
		<trkpt lat="39.5712356567383" lon="2.62572431564331">
			<ele>87.0999984741211</ele>
			<time>2013-12-29T10:39:03Z</time>
		</trkpt>
		<trkpt lat="39.5712547302246" lon="2.62566471099854">
			<ele>87.5</ele>
			<time>2013-12-29T10:39:05Z</time>
		</trkpt>
		<trkpt lat="39.5712738037109" lon="2.62560057640076">
			<ele>87.0999984741211</ele>
			<time>2013-12-29T10:39:07Z</time>
		</trkpt>
		<trkpt lat="39.5712890625" lon="2.62554216384888">
			<ele>87.4000015258789</ele>
			<time>2013-12-29T10:39:09Z</time>
		</trkpt>
		<trkpt lat="39.5713043212891" lon="2.62548136711121">
			<ele>87.8000030517578</ele>
			<time>2013-12-29T10:39:11Z</time>
		</trkpt>
		<trkpt lat="39.5713272094727" lon="2.62541913986206">
			<ele>87.6999969482422</ele>
			<time>2013-12-29T10:39:13Z</time>
		</trkpt>
		<trkpt lat="39.5713424682617" lon="2.62535786628723">
			<ele>87.8000030517578</ele>
			<time>2013-12-29T10:39:15Z</time>
		</trkpt>
		<trkpt lat="39.571361541748" lon="2.62530040740967">
			<ele>88.5</ele>
			<time>2013-12-29T10:39:17Z</time>
		</trkpt>
		<trkpt lat="39.5713920593262" lon="2.62524366378784">
			<ele>88.8000030517578</ele>
			<time>2013-12-29T10:39:19Z</time>
		</trkpt>
		<trkpt lat="39.571418762207" lon="2.62518692016602">
			<ele>88.6999969482422</ele>
			<time>2013-12-29T10:39:20Z</time>
		</trkpt>
		<trkpt lat="39.5714378356934" lon="2.6251232624054">
			<ele>88.9000015258789</ele>
			<time>2013-12-29T10:39:23Z</time>
		</trkpt>
		<trkpt lat="39.5714569091797" lon="2.62506866455078">
			<ele>89.4000015258789</ele>
			<time>2013-12-29T10:39:25Z</time>
		</trkpt>
		<trkpt lat="39.5714721679688" lon="2.62501311302185">
			<ele>89.6999969482422</ele>
			<time>2013-12-29T10:39:27Z</time>
		</trkpt>
		<trkpt lat="39.5714988708496" lon="2.62494206428528">
			<ele>89.5</ele>
			<time>2013-12-29T10:39:29Z</time>
		</trkpt>
		<trkpt lat="39.5715103149414" lon="2.6248676776886">
			<ele>90.0999984741211</ele>
			<time>2013-12-29T10:39:33Z</time>
		</trkpt>
		<trkpt lat="39.5715217590332" lon="2.62479519844055">
			<ele>90.9000015258789</ele>
			<time>2013-12-29T10:39:35Z</time>
		</trkpt>
		<trkpt lat="39.5715370178223" lon="2.62471485137939">
			<ele>91.4000015258789</ele>
			<time>2013-12-29T10:39:39Z</time>
		</trkpt>
		<trkpt lat="39.5715446472168" lon="2.62464666366577">
			<ele>91.5999984741211</ele>
			<time>2013-12-29T10:39:41Z</time>
		</trkpt>
		<trkpt lat="39.5715560913086" lon="2.62457728385925">
			<ele>92.0999984741211</ele>
			<time>2013-12-29T10:39:46Z</time>
		</trkpt>
		<trkpt lat="39.5715599060059" lon="2.62451410293579">
			<ele>92.4000015258789</ele>
			<time>2013-12-29T10:39:48Z</time>
		</trkpt>
		<trkpt lat="39.5715713500977" lon="2.62445616722107">
			<ele>92.4000015258789</ele>
			<time>2013-12-29T10:39:50Z</time>
		</trkpt>
		<trkpt lat="39.5715980529785" lon="2.62440252304077">
			<ele>91.8000030517578</ele>
			<time>2013-12-29T10:39:52Z</time>
		</trkpt>
		<trkpt lat="39.5716018676758" lon="2.62433218955994">
			<ele>92.4000015258789</ele>
			<time>2013-12-29T10:40:05Z</time>
		</trkpt>
		<trkpt lat="39.5716133117676" lon="2.62427568435669">
			<ele>92.3000030517578</ele>
			<time>2013-12-29T10:40:07Z</time>
		</trkpt>
		<trkpt lat="39.5716285705566" lon="2.62419509887695">
			<ele>92.8000030517578</ele>
			<time>2013-12-29T10:40:11Z</time>
		</trkpt>
		<trkpt lat="39.5716438293457" lon="2.62411499023438">
			<ele>93.5999984741211</ele>
			<time>2013-12-29T10:40:13Z</time>
		</trkpt>
		<trkpt lat="39.5716590881348" lon="2.62403631210327">
			<ele>94</ele>
			<time>2013-12-29T10:40:17Z</time>
		</trkpt>
		<trkpt lat="39.5716705322266" lon="2.62395930290222">
			<ele>94.5</ele>
			<time>2013-12-29T10:40:19Z</time>
		</trkpt>
		<trkpt lat="39.5716819763184" lon="2.62388944625854">
			<ele>94.6999969482422</ele>
			<time>2013-12-29T10:40:23Z</time>
		</trkpt>
		<trkpt lat="39.5716896057129" lon="2.62381720542908">
			<ele>94.9000015258789</ele>
			<time>2013-12-29T10:40:25Z</time>
		</trkpt>
		<trkpt lat="39.571704864502" lon="2.62374353408813">
			<ele>95.1999969482422</ele>
			<time>2013-12-29T10:40:29Z</time>
		</trkpt>
		<trkpt lat="39.5717163085938" lon="2.62367510795593">
			<ele>95.6999969482422</ele>
			<time>2013-12-29T10:40:31Z</time>
		</trkpt>
		<trkpt lat="39.5717353820801" lon="2.62360548973083">
			<ele>96.1999969482422</ele>
			<time>2013-12-29T10:40:35Z</time>
		</trkpt>
		<trkpt lat="39.5717544555664" lon="2.62353515625">
			<ele>96.5</ele>
			<time>2013-12-29T10:40:37Z</time>
		</trkpt>
		<trkpt lat="39.5717620849609" lon="2.62345933914185">
			<ele>97.3000030517578</ele>
			<time>2013-12-29T10:40:41Z</time>
		</trkpt>
		<trkpt lat="39.57177734375" lon="2.62338614463806">
			<ele>97.3000030517578</ele>
			<time>2013-12-29T10:40:43Z</time>
		</trkpt>
		<trkpt lat="39.5717926025391" lon="2.62331175804138">
			<ele>97.8000030517578</ele>
			<time>2013-12-29T10:40:47Z</time>
		</trkpt>
		<trkpt lat="39.5718154907227" lon="2.6232476234436">
			<ele>98</ele>
			<time>2013-12-29T10:40:49Z</time>
		</trkpt>
		<trkpt lat="39.571849822998" lon="2.62319827079773">
			<ele>99</ele>
			<time>2013-12-29T10:40:53Z</time>
		</trkpt>
		<trkpt lat="39.571891784668" lon="2.623206615448">
			<ele>99.5999984741211</ele>
			<time>2013-12-29T10:41:00Z</time>
		</trkpt>
		<trkpt lat="39.5718727111816" lon="2.62329053878784">
			<ele>98.5999984741211</ele>
			<time>2013-12-29T10:41:05Z</time>
		</trkpt>
		<trkpt lat="39.5718574523926" lon="2.62336993217468">
			<ele>99.8000030517578</ele>
			<time>2013-12-29T10:41:08Z</time>
		</trkpt>
		<trkpt lat="39.5718803405762" lon="2.62345170974731">
			<ele>98.3000030517578</ele>
			<time>2013-12-29T10:41:09Z</time>
		</trkpt>
		<trkpt lat="39.5718994140625" lon="2.62350583076477">
			<ele>97.8000030517578</ele>
			<time>2013-12-29T10:41:10Z</time>
		</trkpt>
		<trkpt lat="39.5719261169434" lon="2.62357950210571">
			<ele>97.6999969482422</ele>
			<time>2013-12-29T10:41:12Z</time>
		</trkpt>
		<trkpt lat="39.5719375610352" lon="2.62365627288818">
			<ele>97.4000015258789</ele>
			<time>2013-12-29T10:41:14Z</time>
		</trkpt>
		<trkpt lat="39.5719795227051" lon="2.62370038032532">
			<ele>98.0999984741211</ele>
			<time>2013-12-29T10:41:16Z</time>
		</trkpt>
		<trkpt lat="39.5720252990723" lon="2.62370705604553">
			<ele>96.4000015258789</ele>
			<time>2013-12-29T10:41:18Z</time>
		</trkpt>
		<trkpt lat="39.5720748901367" lon="2.62370896339417">
			<ele>95.3000030517578</ele>
			<time>2013-12-29T10:41:20Z</time>
		</trkpt>
		<trkpt lat="39.5721321105957" lon="2.62370777130127">
			<ele>94.4000015258789</ele>
			<time>2013-12-29T10:41:23Z</time>
		</trkpt>
		<trkpt lat="39.572208404541" lon="2.62371349334717">
			<ele>94.4000015258789</ele>
			<time>2013-12-29T10:41:25Z</time>
		</trkpt>
		<trkpt lat="39.5722923278809" lon="2.62370300292969">
			<ele>93.6999969482422</ele>
			<time>2013-12-29T10:41:27Z</time>
		</trkpt>
		<trkpt lat="39.572380065918" lon="2.62370347976685">
			<ele>93.0999984741211</ele>
			<time>2013-12-29T10:41:29Z</time>
		</trkpt>
		<trkpt lat="39.5724639892578" lon="2.62369799613953">
			<ele>92.8000030517578</ele>
			<time>2013-12-29T10:41:31Z</time>
		</trkpt>
		<trkpt lat="39.5725288391113" lon="2.6236891746521">
			<ele>92.0999984741211</ele>
			<time>2013-12-29T10:41:33Z</time>
		</trkpt>
		<trkpt lat="39.5725784301758" lon="2.62362504005432">
			<ele>91.9000015258789</ele>
			<time>2013-12-29T10:41:35Z</time>
		</trkpt>
		<trkpt lat="39.5726203918457" lon="2.62354707717896">
			<ele>92.0999984741211</ele>
			<time>2013-12-29T10:41:37Z</time>
		</trkpt>
		<trkpt lat="39.5725708007813" lon="2.62351441383362">
			<ele>91.8000030517578</ele>
			<time>2013-12-29T10:41:38Z</time>
		</trkpt>
		<trkpt lat="39.5725555419922" lon="2.62344741821289">
			<ele>92.1999969482422</ele>
			<time>2013-12-29T10:41:40Z</time>
		</trkpt>
		<trkpt lat="39.5725517272949" lon="2.62336754798889">
			<ele>91.9000015258789</ele>
			<time>2013-12-29T10:41:42Z</time>
		</trkpt>
		<trkpt lat="39.5725479125977" lon="2.62329363822937">
			<ele>91.9000015258789</ele>
			<time>2013-12-29T10:41:44Z</time>
		</trkpt>
		<trkpt lat="39.5725440979004" lon="2.62322044372559">
			<ele>92.3000030517578</ele>
			<time>2013-12-29T10:41:46Z</time>
		</trkpt>
		<trkpt lat="39.5725440979004" lon="2.62315273284912">
			<ele>92.4000015258789</ele>
			<time>2013-12-29T10:41:47Z</time>
		</trkpt>
		<trkpt lat="39.5725402832031" lon="2.62308764457703">
			<ele>92.8000030517578</ele>
			<time>2013-12-29T10:41:49Z</time>
		</trkpt>
		<trkpt lat="39.5725402832031" lon="2.6230251789093">
			<ele>93</ele>
			<time>2013-12-29T10:41:51Z</time>
		</trkpt>
		<trkpt lat="39.5725364685059" lon="2.62296199798584">
			<ele>93.3000030517578</ele>
			<time>2013-12-29T10:41:53Z</time>
		</trkpt>
		<trkpt lat="39.5725326538086" lon="2.62289643287659">
			<ele>93.8000030517578</ele>
			<time>2013-12-29T10:41:55Z</time>
		</trkpt>
		<trkpt lat="39.5725326538086" lon="2.62282991409302">
			<ele>94</ele>
			<time>2013-12-29T10:41:57Z</time>
		</trkpt>
		<trkpt lat="39.5725479125977" lon="2.62277126312256">
			<ele>94.0999984741211</ele>
			<time>2013-12-29T10:41:59Z</time>
		</trkpt>
		<trkpt lat="39.5725631713867" lon="2.62268543243408">
			<ele>94.8000030517578</ele>
			<time>2013-12-29T10:42:03Z</time>
		</trkpt>
		<trkpt lat="39.5725784301758" lon="2.62259984016418">
			<ele>95.0999984741211</ele>
			<time>2013-12-29T10:42:05Z</time>
		</trkpt>
		<trkpt lat="39.5725975036621" lon="2.62254214286804">
			<ele>95.1999969482422</ele>
			<time>2013-12-29T10:42:07Z</time>
		</trkpt>
		<trkpt lat="39.5726089477539" lon="2.62248396873474">
			<ele>95.4000015258789</ele>
			<time>2013-12-29T10:42:09Z</time>
		</trkpt>
		<trkpt lat="39.572624206543" lon="2.62242746353149">
			<ele>95.5</ele>
			<time>2013-12-29T10:42:11Z</time>
		</trkpt>
		<trkpt lat="39.5726432800293" lon="2.62236785888672">
			<ele>95.9000015258789</ele>
			<time>2013-12-29T10:42:13Z</time>
		</trkpt>
		<trkpt lat="39.5726585388184" lon="2.6223087310791">
			<ele>96.3000030517578</ele>
			<time>2013-12-29T10:42:15Z</time>
		</trkpt>
		<trkpt lat="39.5726737976074" lon="2.62225246429443">
			<ele>96.4000015258789</ele>
			<time>2013-12-29T10:42:17Z</time>
		</trkpt>
		<trkpt lat="39.5726890563965" lon="2.62219548225403">
			<ele>96.8000030517578</ele>
			<time>2013-12-29T10:42:19Z</time>
		</trkpt>
		<trkpt lat="39.5727081298828" lon="2.62214136123657">
			<ele>97.0999984741211</ele>
			<time>2013-12-29T10:42:21Z</time>
		</trkpt>
		<trkpt lat="39.5727272033691" lon="2.62208700180054">
			<ele>97.4000015258789</ele>
			<time>2013-12-29T10:42:23Z</time>
		</trkpt>
		<trkpt lat="39.5727424621582" lon="2.62203168869019">
			<ele>97.8000030517578</ele>
			<time>2013-12-29T10:42:25Z</time>
		</trkpt>
		<trkpt lat="39.5727577209473" lon="2.62197279930115">
			<ele>98.3000030517578</ele>
			<time>2013-12-29T10:42:27Z</time>
		</trkpt>
		<trkpt lat="39.5727767944336" lon="2.62189364433289">
			<ele>99</ele>
			<time>2013-12-29T10:42:31Z</time>
		</trkpt>
		<trkpt lat="39.5727920532227" lon="2.62181162834167">
			<ele>100</ele>
			<time>2013-12-29T10:42:33Z</time>
		</trkpt>
		<trkpt lat="39.5728073120117" lon="2.62173342704773">
			<ele>100.400001525879</ele>
			<time>2013-12-29T10:42:37Z</time>
		</trkpt>
		<trkpt lat="39.5728149414063" lon="2.62165307998657">
			<ele>100.800003051758</ele>
			<time>2013-12-29T10:42:39Z</time>
		</trkpt>
		<trkpt lat="39.572826385498" lon="2.62157368659973">
			<ele>101.400001525879</ele>
			<time>2013-12-29T10:42:43Z</time>
		</trkpt>
		<trkpt lat="39.5728302001953" lon="2.62149810791016">
			<ele>101.800003051758</ele>
			<time>2013-12-29T10:42:45Z</time>
		</trkpt>
		<trkpt lat="39.5728378295898" lon="2.62142395973206">
			<ele>102.300003051758</ele>
			<time>2013-12-29T10:42:49Z</time>
		</trkpt>
		<trkpt lat="39.5728378295898" lon="2.62135004997253">
			<ele>102.800003051758</ele>
			<time>2013-12-29T10:42:51Z</time>
		</trkpt>
		<trkpt lat="39.5728416442871" lon="2.62127733230591">
			<ele>103.199996948242</ele>
			<time>2013-12-29T10:42:55Z</time>
		</trkpt>
		<trkpt lat="39.5728454589844" lon="2.62120532989502">
			<ele>103.599998474121</ele>
			<time>2013-12-29T10:42:57Z</time>
		</trkpt>
		<trkpt lat="39.5728530883789" lon="2.62113308906555">
			<ele>103.800003051758</ele>
			<time>2013-12-29T10:43:01Z</time>
		</trkpt>
		<trkpt lat="39.5728569030762" lon="2.6210606098175">
			<ele>104.400001525879</ele>
			<time>2013-12-29T10:43:03Z</time>
		</trkpt>
		<trkpt lat="39.5728645324707" lon="2.62099075317383">
			<ele>105</ele>
			<time>2013-12-29T10:43:07Z</time>
		</trkpt>
		<trkpt lat="39.5728721618652" lon="2.62091588973999">
			<ele>105.300003051758</ele>
			<time>2013-12-29T10:43:09Z</time>
		</trkpt>
		<trkpt lat="39.5728759765625" lon="2.62084150314331">
			<ele>105.300003051758</ele>
			<time>2013-12-29T10:43:13Z</time>
		</trkpt>
		<trkpt lat="39.572883605957" lon="2.62077021598816">
			<ele>105.300003051758</ele>
			<time>2013-12-29T10:43:15Z</time>
		</trkpt>
		<trkpt lat="39.5729064941406" lon="2.62069296836853">
			<ele>105.199996948242</ele>
			<time>2013-12-29T10:43:19Z</time>
		</trkpt>
		<trkpt lat="39.5729217529297" lon="2.6206374168396">
			<ele>105.599998474121</ele>
			<time>2013-12-29T10:43:21Z</time>
		</trkpt>
		<trkpt lat="39.572940826416" lon="2.62056088447571">
			<ele>105.599998474121</ele>
			<time>2013-12-29T10:43:23Z</time>
		</trkpt>
		<trkpt lat="39.5729713439941" lon="2.62048983573914">
			<ele>106.699996948242</ele>
			<time>2013-12-29T10:43:27Z</time>
		</trkpt>
		<trkpt lat="39.5729904174805" lon="2.62041711807251">
			<ele>106.699996948242</ele>
			<time>2013-12-29T10:43:29Z</time>
		</trkpt>
		<trkpt lat="39.5730133056641" lon="2.62034130096436">
			<ele>107.199996948242</ele>
			<time>2013-12-29T10:43:33Z</time>
		</trkpt>
		<trkpt lat="39.5730285644531" lon="2.62027287483215">
			<ele>107.599998474121</ele>
			<time>2013-12-29T10:43:35Z</time>
		</trkpt>
		<trkpt lat="39.5730400085449" lon="2.62019968032837">
			<ele>108.099998474121</ele>
			<time>2013-12-29T10:43:39Z</time>
		</trkpt>
		<trkpt lat="39.5730400085449" lon="2.62014150619507">
			<ele>108.300003051758</ele>
			<time>2013-12-29T10:43:41Z</time>
		</trkpt>
		<trkpt lat="39.5730056762695" lon="2.62009072303772">
			<ele>107.599998474121</ele>
			<time>2013-12-29T10:43:46Z</time>
		</trkpt>
		<trkpt lat="39.5729637145996" lon="2.62005019187927">
			<ele>106.099998474121</ele>
			<time>2013-12-29T10:44:25Z</time>
		</trkpt>
		<trkpt lat="39.5729217529297" lon="2.61998391151428">
			<ele>106.5</ele>
			<time>2013-12-29T10:44:30Z</time>
		</trkpt>
		<trkpt lat="39.5729064941406" lon="2.61988711357117">
			<ele>112</ele>
			<time>2013-12-29T10:44:32Z</time>
		</trkpt>
		<trkpt lat="39.5728950500488" lon="2.6198205947876">
			<ele>115.199996948242</ele>
			<time>2013-12-29T10:44:33Z</time>
		</trkpt>
		<trkpt lat="39.5729064941406" lon="2.61975741386414">
			<ele>112.599998474121</ele>
			<time>2013-12-29T10:44:35Z</time>
		</trkpt>
		<trkpt lat="39.5729179382324" lon="2.61970019340515">
			<ele>112</ele>
			<time>2013-12-29T10:44:37Z</time>
		</trkpt>
		<trkpt lat="39.5729293823242" lon="2.61963844299316">
			<ele>112</ele>
			<time>2013-12-29T10:44:39Z</time>
		</trkpt>
		<trkpt lat="39.5729370117188" lon="2.61957001686096">
			<ele>112.5</ele>
			<time>2013-12-29T10:44:41Z</time>
		</trkpt>
		<trkpt lat="39.572940826416" lon="2.61950325965881">
			<ele>113.099998474121</ele>
			<time>2013-12-29T10:44:43Z</time>
		</trkpt>
		<trkpt lat="39.5729331970215" lon="2.61943578720093">
			<ele>113.199996948242</ele>
			<time>2013-12-29T10:44:46Z</time>
		</trkpt>
		<trkpt lat="39.5728912353516" lon="2.61938452720642">
			<ele>113.599998474121</ele>
			<time>2013-12-29T10:44:48Z</time>
		</trkpt>
		<trkpt lat="39.5728569030762" lon="2.61933732032776">
			<ele>113.5</ele>
			<time>2013-12-29T10:44:50Z</time>
		</trkpt>
		<trkpt lat="39.5728454589844" lon="2.61927175521851">
			<ele>114.599998474121</ele>
			<time>2013-12-29T10:44:51Z</time>
		</trkpt>
		<trkpt lat="39.5728607177734" lon="2.61919522285461">
			<ele>115.199996948242</ele>
			<time>2013-12-29T10:44:55Z</time>
		</trkpt>
		<trkpt lat="39.5728034973145" lon="2.61914730072021">
			<ele>114.900001525879</ele>
			<time>2013-12-29T10:44:57Z</time>
		</trkpt>
		<trkpt lat="39.5727653503418" lon="2.61910200119019">
			<ele>115.099998474121</ele>
			<time>2013-12-29T10:45:00Z</time>
		</trkpt>
		<trkpt lat="39.5727272033691" lon="2.61905646324158">
			<ele>115.300003051758</ele>
			<time>2013-12-29T10:45:02Z</time>
		</trkpt>
		<trkpt lat="39.5726890563965" lon="2.61900663375854">
			<ele>115</ele>
			<time>2013-12-29T10:45:04Z</time>
		</trkpt>
		<trkpt lat="39.5726432800293" lon="2.61895418167114">
			<ele>114.800003051758</ele>
			<time>2013-12-29T10:45:06Z</time>
		</trkpt>
		<trkpt lat="39.5726127624512" lon="2.61890745162964">
			<ele>114.699996948242</ele>
			<time>2013-12-29T10:45:07Z</time>
		</trkpt>
		<trkpt lat="39.5725746154785" lon="2.61885857582092">
			<ele>114.599998474121</ele>
			<time>2013-12-29T10:45:09Z</time>
		</trkpt>
		<trkpt lat="39.5725364685059" lon="2.61881327629089">
			<ele>114</ele>
			<time>2013-12-29T10:45:11Z</time>
		</trkpt>
		<trkpt lat="39.5725021362305" lon="2.61875009536743">
			<ele>112.599998474121</ele>
			<time>2013-12-29T10:45:13Z</time>
		</trkpt>
		<trkpt lat="39.5725326538086" lon="2.61869597434998">
			<ele>111</ele>
			<time>2013-12-29T10:45:15Z</time>
		</trkpt>
		<trkpt lat="39.5725517272949" lon="2.61864376068115">
			<ele>110.800003051758</ele>
			<time>2013-12-29T10:45:17Z</time>
		</trkpt>
		<trkpt lat="39.5725708007813" lon="2.61859130859375">
			<ele>110.5</ele>
			<time>2013-12-29T10:45:19Z</time>
		</trkpt>
		<trkpt lat="39.5725936889648" lon="2.61853837966919">
			<ele>110.900001525879</ele>
			<time>2013-12-29T10:45:21Z</time>
		</trkpt>
		<trkpt lat="39.5726203918457" lon="2.61846208572388">
			<ele>110.599998474121</ele>
			<time>2013-12-29T10:45:25Z</time>
		</trkpt>
		<trkpt lat="39.572639465332" lon="2.6183979511261">
			<ele>110.800003051758</ele>
			<time>2013-12-29T10:45:27Z</time>
		</trkpt>
		<trkpt lat="39.5726547241211" lon="2.61833333969116">
			<ele>111.099998474121</ele>
			<time>2013-12-29T10:45:29Z</time>
		</trkpt>
		<trkpt lat="39.5726737976074" lon="2.61827039718628">
			<ele>111.300003051758</ele>
			<time>2013-12-29T10:45:31Z</time>
		</trkpt>
		<trkpt lat="39.5726852416992" lon="2.61821126937866">
			<ele>111.900001525879</ele>
			<time>2013-12-29T10:45:33Z</time>
		</trkpt>
		<trkpt lat="39.5727005004883" lon="2.61815023422241">
			<ele>112.300003051758</ele>
			<time>2013-12-29T10:45:35Z</time>
		</trkpt>
		<trkpt lat="39.5727233886719" lon="2.61806678771973">
			<ele>113.099998474121</ele>
			<time>2013-12-29T10:45:37Z</time>
		</trkpt>
		<trkpt lat="39.5727424621582" lon="2.61801218986511">
			<ele>113.400001525879</ele>
			<time>2013-12-29T10:45:39Z</time>
		</trkpt>
		<trkpt lat="39.5727500915527" lon="2.61795330047607">
			<ele>115</ele>
			<time>2013-12-29T10:45:41Z</time>
		</trkpt>
		<trkpt lat="39.5727729797363" lon="2.6178719997406">
			<ele>115.599998474121</ele>
			<time>2013-12-29T10:45:45Z</time>
		</trkpt>
		<trkpt lat="39.5728034973145" lon="2.61780047416687">
			<ele>115.5</ele>
			<time>2013-12-29T10:45:47Z</time>
		</trkpt>
		<trkpt lat="39.572826385498" lon="2.61772346496582">
			<ele>115.699996948242</ele>
			<time>2013-12-29T10:45:51Z</time>
		</trkpt>
		<trkpt lat="39.5728492736816" lon="2.61764407157898">
			<ele>116.099998474121</ele>
			<time>2013-12-29T10:45:53Z</time>
		</trkpt>
		<trkpt lat="39.572868347168" lon="2.61757898330688">
			<ele>116.099998474121</ele>
			<time>2013-12-29T10:45:56Z</time>
		</trkpt>
		<trkpt lat="39.5728874206543" lon="2.61752414703369">
			<ele>116.199996948242</ele>
			<time>2013-12-29T10:45:58Z</time>
		</trkpt>
		<trkpt lat="39.5729064941406" lon="2.61744999885559">
			<ele>117.099998474121</ele>
			<time>2013-12-29T10:46:00Z</time>
		</trkpt>
		<trkpt lat="39.5729293823242" lon="2.6173689365387">
			<ele>117.400001525879</ele>
			<time>2013-12-29T10:46:04Z</time>
		</trkpt>
		<trkpt lat="39.5729560852051" lon="2.61729264259338">
			<ele>117.5</ele>
			<time>2013-12-29T10:46:06Z</time>
		</trkpt>
		<trkpt lat="39.5729866027832" lon="2.61721706390381">
			<ele>117.599998474121</ele>
			<time>2013-12-29T10:46:10Z</time>
		</trkpt>
		<trkpt lat="39.5730133056641" lon="2.61714100837708">
			<ele>117.800003051758</ele>
			<time>2013-12-29T10:46:12Z</time>
		</trkpt>
		<trkpt lat="39.5730438232422" lon="2.61706900596619">
			<ele>117.800003051758</ele>
			<time>2013-12-29T10:46:16Z</time>
		</trkpt>
		<trkpt lat="39.5730781555176" lon="2.61700010299683">
			<ele>118.099998474121</ele>
			<time>2013-12-29T10:46:18Z</time>
		</trkpt>
		<trkpt lat="39.5731086730957" lon="2.61692905426025">
			<ele>118.900001525879</ele>
			<time>2013-12-29T10:46:22Z</time>
		</trkpt>
		<trkpt lat="39.5731353759766" lon="2.61687898635864">
			<ele>119</ele>
			<time>2013-12-29T10:46:24Z</time>
		</trkpt>
		<trkpt lat="39.5731582641602" lon="2.61682724952698">
			<ele>119.099998474121</ele>
			<time>2013-12-29T10:46:26Z</time>
		</trkpt>
		<trkpt lat="39.573184967041" lon="2.61675500869751">
			<ele>119.199996948242</ele>
			<time>2013-12-29T10:46:28Z</time>
		</trkpt>
		<trkpt lat="39.5732078552246" lon="2.61668086051941">
			<ele>119.199996948242</ele>
			<time>2013-12-29T10:46:32Z</time>
		</trkpt>
		<trkpt lat="39.5732269287109" lon="2.61662769317627">
			<ele>119.5</ele>
			<time>2013-12-29T10:46:34Z</time>
		</trkpt>
		<trkpt lat="39.5732498168945" lon="2.61654829978943">
			<ele>119.800003051758</ele>
			<time>2013-12-29T10:46:36Z</time>
		</trkpt>
		<trkpt lat="39.5732650756836" lon="2.61649441719055">
			<ele>119.800003051758</ele>
			<time>2013-12-29T10:46:38Z</time>
		</trkpt>
		<trkpt lat="39.5732803344727" lon="2.61643981933594">
			<ele>119.699996948242</ele>
			<time>2013-12-29T10:46:40Z</time>
		</trkpt>
		<trkpt lat="39.573299407959" lon="2.61636185646057">
			<ele>119.5</ele>
			<time>2013-12-29T10:46:44Z</time>
		</trkpt>
		<trkpt lat="39.5733108520508" lon="2.61630368232727">
			<ele>119.699996948242</ele>
			<time>2013-12-29T10:46:46Z</time>
		</trkpt>
		<trkpt lat="39.5733222961426" lon="2.6162474155426">
			<ele>119.599998474121</ele>
			<time>2013-12-29T10:46:48Z</time>
		</trkpt>
		<trkpt lat="39.5733337402344" lon="2.61616253852844">
			<ele>119.599998474121</ele>
			<time>2013-12-29T10:46:50Z</time>
		</trkpt>
		<trkpt lat="39.5733413696289" lon="2.61608910560608">
			<ele>119.599998474121</ele>
			<time>2013-12-29T10:46:54Z</time>
		</trkpt>
		<trkpt lat="39.5733413696289" lon="2.61602711677551">
			<ele>119.5</ele>
			<time>2013-12-29T10:46:56Z</time>
		</trkpt>
		<trkpt lat="39.5733489990234" lon="2.61595678329468">
			<ele>119.199996948242</ele>
			<time>2013-12-29T10:47:00Z</time>
		</trkpt>
		<trkpt lat="39.5733604431152" lon="2.61587285995483">
			<ele>119</ele>
			<time>2013-12-29T10:47:02Z</time>
		</trkpt>
		<trkpt lat="39.5733604431152" lon="2.61579728126526">
			<ele>119.800003051758</ele>
			<time>2013-12-29T10:47:06Z</time>
		</trkpt>
		<trkpt lat="39.5733604431152" lon="2.61572456359863">
			<ele>120</ele>
			<time>2013-12-29T10:47:08Z</time>
		</trkpt>
		<trkpt lat="39.5733757019043" lon="2.61564445495605">
			<ele>120.400001525879</ele>
			<time>2013-12-29T10:47:12Z</time>
		</trkpt>
		<trkpt lat="39.5733833312988" lon="2.61556315422058">
			<ele>120.300003051758</ele>
			<time>2013-12-29T10:47:14Z</time>
		</trkpt>
		<trkpt lat="39.5733909606934" lon="2.61549282073975">
			<ele>120.5</ele>
			<time>2013-12-29T10:47:15Z</time>
		</trkpt>
		<trkpt lat="39.5734062194824" lon="2.61542701721191">
			<ele>120.199996948242</ele>
			<time>2013-12-29T10:47:18Z</time>
		</trkpt>
		<trkpt lat="39.5734176635742" lon="2.61535978317261">
			<ele>120.099998474121</ele>
			<time>2013-12-29T10:47:20Z</time>
		</trkpt>
		<trkpt lat="39.573429107666" lon="2.61528921127319">
			<ele>120</ele>
			<time>2013-12-29T10:47:22Z</time>
		</trkpt>
		<trkpt lat="39.5734405517578" lon="2.61521983146667">
			<ele>119.900001525879</ele>
			<time>2013-12-29T10:47:23Z</time>
		</trkpt>
		<trkpt lat="39.5734481811523" lon="2.6151430606842">
			<ele>119.699996948242</ele>
			<time>2013-12-29T10:47:26Z</time>
		</trkpt>
		<trkpt lat="39.5734558105469" lon="2.61507081985474">
			<ele>119.5</ele>
			<time>2013-12-29T10:47:28Z</time>
		</trkpt>
		<trkpt lat="39.5734672546387" lon="2.61500978469849">
			<ele>119.5</ele>
			<time>2013-12-29T10:47:29Z</time>
		</trkpt>
		<trkpt lat="39.5734748840332" lon="2.61494874954224">
			<ele>119.5</ele>
			<time>2013-12-29T10:47:31Z</time>
		</trkpt>
		<trkpt lat="39.573486328125" lon="2.61488366127014">
			<ele>119.5</ele>
			<time>2013-12-29T10:47:33Z</time>
		</trkpt>
		<trkpt lat="39.5734939575195" lon="2.61482191085815">
			<ele>119.699996948242</ele>
			<time>2013-12-29T10:47:35Z</time>
		</trkpt>
		<trkpt lat="39.5735130310059" lon="2.61474609375">
			<ele>119.800003051758</ele>
			<time>2013-12-29T10:47:38Z</time>
		</trkpt>
		<trkpt lat="39.5735244750977" lon="2.614670753479">
			<ele>119.900001525879</ele>
			<time>2013-12-29T10:47:40Z</time>
		</trkpt>
		<trkpt lat="39.5735321044922" lon="2.61459970474243">
			<ele>119.900001525879</ele>
			<time>2013-12-29T10:47:42Z</time>
		</trkpt>
		<trkpt lat="39.573543548584" lon="2.61452722549438">
			<ele>119.599998474121</ele>
			<time>2013-12-29T10:47:44Z</time>
		</trkpt>
		<trkpt lat="39.573558807373" lon="2.61446189880371">
			<ele>119.300003051758</ele>
			<time>2013-12-29T10:47:45Z</time>
		</trkpt>
		<trkpt lat="39.5735702514648" lon="2.61439800262451">
			<ele>119.400001525879</ele>
			<time>2013-12-29T10:47:47Z</time>
		</trkpt>
		<trkpt lat="39.5735855102539" lon="2.61432862281799">
			<ele>119.400001525879</ele>
			<time>2013-12-29T10:47:49Z</time>
		</trkpt>
		<trkpt lat="39.5735969543457" lon="2.61425542831421">
			<ele>119.800003051758</ele>
			<time>2013-12-29T10:47:52Z</time>
		</trkpt>
		<trkpt lat="39.5736122131348" lon="2.61418700218201">
			<ele>120</ele>
			<time>2013-12-29T10:47:53Z</time>
		</trkpt>
		<trkpt lat="39.5736274719238" lon="2.6141185760498">
			<ele>120.400001525879</ele>
			<time>2013-12-29T10:47:56Z</time>
		</trkpt>
		<trkpt lat="39.5736427307129" lon="2.61404919624329">
			<ele>120.400001525879</ele>
			<time>2013-12-29T10:47:58Z</time>
		</trkpt>
		<trkpt lat="39.5736541748047" lon="2.61398196220398">
			<ele>120.5</ele>
			<time>2013-12-29T10:47:59Z</time>
		</trkpt>
		<trkpt lat="39.5736656188965" lon="2.61391592025757">
			<ele>120.5</ele>
			<time>2013-12-29T10:48:01Z</time>
		</trkpt>
		<trkpt lat="39.5736770629883" lon="2.613849401474">
			<ele>120.699996948242</ele>
			<time>2013-12-29T10:48:03Z</time>
		</trkpt>
		<trkpt lat="39.5736923217773" lon="2.61378288269043">
			<ele>120.800003051758</ele>
			<time>2013-12-29T10:48:05Z</time>
		</trkpt>
		<trkpt lat="39.5737037658691" lon="2.61371660232544">
			<ele>120.900001525879</ele>
			<time>2013-12-29T10:48:07Z</time>
		</trkpt>
		<trkpt lat="39.5737190246582" lon="2.61365294456482">
			<ele>120.900001525879</ele>
			<time>2013-12-29T10:48:09Z</time>
		</trkpt>
		<trkpt lat="39.57373046875" lon="2.6135892868042">
			<ele>120.900001525879</ele>
			<time>2013-12-29T10:48:11Z</time>
		</trkpt>
		<trkpt lat="39.5737419128418" lon="2.61352276802063">
			<ele>121</ele>
			<time>2013-12-29T10:48:13Z</time>
		</trkpt>
		<trkpt lat="39.5737571716309" lon="2.61345195770264">
			<ele>121.599998474121</ele>
			<time>2013-12-29T10:48:16Z</time>
		</trkpt>
		<trkpt lat="39.5737762451172" lon="2.61338257789612">
			<ele>121.300003051758</ele>
			<time>2013-12-29T10:48:18Z</time>
		</trkpt>
		<trkpt lat="39.5737953186035" lon="2.61331415176392">
			<ele>121.099998474121</ele>
			<time>2013-12-29T10:48:20Z</time>
		</trkpt>
		<trkpt lat="39.5738067626953" lon="2.61325240135193">
			<ele>121.400001525879</ele>
			<time>2013-12-29T10:48:21Z</time>
		</trkpt>
		<trkpt lat="39.5738182067871" lon="2.61319184303284">
			<ele>121.699996948242</ele>
			<time>2013-12-29T10:48:23Z</time>
		</trkpt>
		<trkpt lat="39.5738372802734" lon="2.61313438415527">
			<ele>121.900001525879</ele>
			<time>2013-12-29T10:48:25Z</time>
		</trkpt>
		<trkpt lat="39.5738716125488" lon="2.6130747795105">
			<ele>121.5</ele>
			<time>2013-12-29T10:48:28Z</time>
		</trkpt>
		<trkpt lat="39.5738716125488" lon="2.61301255226135">
			<ele>121.5</ele>
			<time>2013-12-29T10:48:30Z</time>
		</trkpt>
		<trkpt lat="39.5738754272461" lon="2.61295342445374">
			<ele>121</ele>
			<time>2013-12-29T10:48:32Z</time>
		</trkpt>
		<trkpt lat="39.5738830566406" lon="2.61289310455322">
			<ele>121.099998474121</ele>
			<time>2013-12-29T10:48:34Z</time>
		</trkpt>
		<trkpt lat="39.5738945007324" lon="2.6128306388855">
			<ele>121.400001525879</ele>
			<time>2013-12-29T10:48:36Z</time>
		</trkpt>
		<trkpt lat="39.5739097595215" lon="2.61276531219482">
			<ele>121.300003051758</ele>
			<time>2013-12-29T10:48:38Z</time>
		</trkpt>
		<trkpt lat="39.5739212036133" lon="2.61270546913147">
			<ele>120.599998474121</ele>
			<time>2013-12-29T10:48:39Z</time>
		</trkpt>
		<trkpt lat="39.5739364624023" lon="2.61264371871948">
			<ele>120.199996948242</ele>
			<time>2013-12-29T10:48:41Z</time>
		</trkpt>
		<trkpt lat="39.5739517211914" lon="2.61258435249329">
			<ele>120.400001525879</ele>
			<time>2013-12-29T10:48:43Z</time>
		</trkpt>
		<trkpt lat="39.5739593505859" lon="2.61252188682556">
			<ele>120.400001525879</ele>
			<time>2013-12-29T10:48:45Z</time>
		</trkpt>
		<trkpt lat="39.573974609375" lon="2.61246037483215">
			<ele>120.5</ele>
			<time>2013-12-29T10:48:47Z</time>
		</trkpt>
		<trkpt lat="39.5740165710449" lon="2.61242580413818">
			<ele>120.5</ele>
			<time>2013-12-29T10:48:49Z</time>
		</trkpt>
		<trkpt lat="39.5740585327148" lon="2.61239790916443">
			<ele>120.5</ele>
			<time>2013-12-29T10:48:51Z</time>
		</trkpt>
		<trkpt lat="39.5741195678711" lon="2.61236476898193">
			<ele>120.099998474121</ele>
			<time>2013-12-29T10:48:55Z</time>
		</trkpt>
		<trkpt lat="39.5741577148438" lon="2.61232662200928">
			<ele>120</ele>
			<time>2013-12-29T10:48:57Z</time>
		</trkpt>
		<trkpt lat="39.5741920471191" lon="2.6122829914093">
			<ele>120.5</ele>
			<time>2013-12-29T10:48:59Z</time>
		</trkpt>
		<trkpt lat="39.5742225646973" lon="2.61223316192627">
			<ele>120.5</ele>
			<time>2013-12-29T10:49:01Z</time>
		</trkpt>
		<trkpt lat="39.5742492675781" lon="2.61218118667603">
			<ele>120.699996948242</ele>
			<time>2013-12-29T10:49:03Z</time>
		</trkpt>
		<trkpt lat="39.5742683410645" lon="2.61212682723999">
			<ele>121.099998474121</ele>
			<time>2013-12-29T10:49:05Z</time>
		</trkpt>
		<trkpt lat="39.5742683410645" lon="2.61204171180725">
			<ele>121.199996948242</ele>
			<time>2013-12-29T10:49:07Z</time>
		</trkpt>
		<trkpt lat="39.5742530822754" lon="2.61195969581604">
			<ele>122</ele>
			<time>2013-12-29T10:49:11Z</time>
		</trkpt>
		<trkpt lat="39.5742378234863" lon="2.6119019985199">
			<ele>122.199996948242</ele>
			<time>2013-12-29T10:49:13Z</time>
		</trkpt>
		<trkpt lat="39.5742034912109" lon="2.61182260513306">
			<ele>122.300003051758</ele>
			<time>2013-12-29T10:49:15Z</time>
		</trkpt>
		<trkpt lat="39.5741729736328" lon="2.61177396774292">
			<ele>122.400001525879</ele>
			<time>2013-12-29T10:49:17Z</time>
		</trkpt>
		<trkpt lat="39.574146270752" lon="2.61171913146973">
			<ele>122.800003051758</ele>
			<time>2013-12-29T10:49:19Z</time>
		</trkpt>
		<trkpt lat="39.5741348266602" lon="2.61165642738342">
			<ele>122.800003051758</ele>
			<time>2013-12-29T10:49:21Z</time>
		</trkpt>
		<trkpt lat="39.5741348266602" lon="2.61159038543701">
			<ele>123.099998474121</ele>
			<time>2013-12-29T10:49:23Z</time>
		</trkpt>
		<trkpt lat="39.574146270752" lon="2.61150670051575">
			<ele>123.199996948242</ele>
			<time>2013-12-29T10:49:27Z</time>
		</trkpt>
		<trkpt lat="39.5741577148438" lon="2.61144733428955">
			<ele>123.099998474121</ele>
			<time>2013-12-29T10:49:29Z</time>
		</trkpt>
		<trkpt lat="39.5741691589355" lon="2.61138606071472">
			<ele>123.199996948242</ele>
			<time>2013-12-29T10:49:31Z</time>
		</trkpt>
		<trkpt lat="39.5741729736328" lon="2.61132740974426">
			<ele>123.400001525879</ele>
			<time>2013-12-29T10:49:33Z</time>
		</trkpt>
		<trkpt lat="39.5741806030273" lon="2.61126899719238">
			<ele>123.599998474121</ele>
			<time>2013-12-29T10:49:35Z</time>
		</trkpt>
		<trkpt lat="39.5741920471191" lon="2.61118507385254">
			<ele>123.699996948242</ele>
			<time>2013-12-29T10:49:37Z</time>
		</trkpt>
		<trkpt lat="39.5742034912109" lon="2.61110281944275">
			<ele>123.699996948242</ele>
			<time>2013-12-29T10:49:41Z</time>
		</trkpt>
		<trkpt lat="39.5742149353027" lon="2.61103749275208">
			<ele>123.5</ele>
			<time>2013-12-29T10:49:43Z</time>
		</trkpt>
		<trkpt lat="39.5742225646973" lon="2.61097931861877">
			<ele>123.5</ele>
			<time>2013-12-29T10:49:45Z</time>
		</trkpt>
		<trkpt lat="39.5742340087891" lon="2.61089992523193">
			<ele>123.699996948242</ele>
			<time>2013-12-29T10:49:47Z</time>
		</trkpt>
		<trkpt lat="39.5742416381836" lon="2.61083674430847">
			<ele>123.599998474121</ele>
			<time>2013-12-29T10:49:51Z</time>
		</trkpt>
		<trkpt lat="39.5742530822754" lon="2.61077356338501">
			<ele>123.599998474121</ele>
			<time>2013-12-29T10:49:53Z</time>
		</trkpt>
		<trkpt lat="39.5742416381836" lon="2.61071491241455">
			<ele>124.800003051758</ele>
			<time>2013-12-29T10:50:33Z</time>
		</trkpt>
		<trkpt lat="39.5742530822754" lon="2.61064743995667">
			<ele>125</ele>
			<time>2013-12-29T10:50:55Z</time>
		</trkpt>
		<trkpt lat="39.5742721557617" lon="2.61058926582336">
			<ele>124.699996948242</ele>
			<time>2013-12-29T10:50:57Z</time>
		</trkpt>
		<trkpt lat="39.5742950439453" lon="2.61051082611084">
			<ele>124.400001525879</ele>
			<time>2013-12-29T10:51:00Z</time>
		</trkpt>
		<trkpt lat="39.574333190918" lon="2.61044669151306">
			<ele>124.199996948242</ele>
			<time>2013-12-29T10:51:02Z</time>
		</trkpt>
		<trkpt lat="39.5743865966797" lon="2.61042475700378">
			<ele>123.800003051758</ele>
			<time>2013-12-29T10:51:03Z</time>
		</trkpt>
		<trkpt lat="39.5744438171387" lon="2.61039662361145">
			<ele>123.699996948242</ele>
			<time>2013-12-29T10:51:06Z</time>
		</trkpt>
		<trkpt lat="39.5744857788086" lon="2.61034774780273">
			<ele>123.800003051758</ele>
			<time>2013-12-29T10:51:08Z</time>
		</trkpt>
		<trkpt lat="39.5745239257813" lon="2.61028933525085">
			<ele>124.199996948242</ele>
			<time>2013-12-29T10:51:10Z</time>
		</trkpt>
		<trkpt lat="39.5745544433594" lon="2.61022090911865">
			<ele>124.300003051758</ele>
			<time>2013-12-29T10:51:12Z</time>
		</trkpt>
		<trkpt lat="39.5745735168457" lon="2.61015248298645">
			<ele>124.400001525879</ele>
			<time>2013-12-29T10:51:14Z</time>
		</trkpt>
		<trkpt lat="39.5745735168457" lon="2.61008453369141">
			<ele>124.400001525879</ele>
			<time>2013-12-29T10:51:15Z</time>
		</trkpt>
		<trkpt lat="39.5745658874512" lon="2.61001491546631">
			<ele>124.699996948242</ele>
			<time>2013-12-29T10:51:17Z</time>
		</trkpt>
		<trkpt lat="39.5745506286621" lon="2.60995292663574">
			<ele>124.800003051758</ele>
			<time>2013-12-29T10:51:19Z</time>
		</trkpt>
		<trkpt lat="39.5745239257813" lon="2.6098964214325">
			<ele>124.699996948242</ele>
			<time>2013-12-29T10:51:21Z</time>
		</trkpt>
		<trkpt lat="39.5744934082031" lon="2.6098461151123">
			<ele>124.800003051758</ele>
			<time>2013-12-29T10:51:23Z</time>
		</trkpt>
		<trkpt lat="39.5744514465332" lon="2.60980105400085">
			<ele>125</ele>
			<time>2013-12-29T10:51:25Z</time>
		</trkpt>
		<trkpt lat="39.574405670166" lon="2.60976481437683">
			<ele>125.199996948242</ele>
			<time>2013-12-29T10:51:28Z</time>
		</trkpt>
		<trkpt lat="39.5743560791016" lon="2.60972356796265">
			<ele>125.300003051758</ele>
			<time>2013-12-29T10:51:29Z</time>
		</trkpt>
		<trkpt lat="39.5743103027344" lon="2.60969042778015">
			<ele>125.400001525879</ele>
			<time>2013-12-29T10:51:32Z</time>
		</trkpt>
		<trkpt lat="39.5742568969727" lon="2.60968804359436">
			<ele>125.5</ele>
			<time>2013-12-29T10:51:34Z</time>
		</trkpt>
		<trkpt lat="39.5742034912109" lon="2.60969686508179">
			<ele>125.400001525879</ele>
			<time>2013-12-29T10:51:35Z</time>
		</trkpt>
		<trkpt lat="39.5741577148438" lon="2.60972142219543">
			<ele>124.699996948242</ele>
			<time>2013-12-29T10:51:37Z</time>
		</trkpt>
		<trkpt lat="39.5741119384766" lon="2.60974454879761">
			<ele>124.699996948242</ele>
			<time>2013-12-29T10:51:39Z</time>
		</trkpt>
		<trkpt lat="39.5741577148438" lon="2.60972237586975">
			<ele>126.300003051758</ele>
			<time>2013-12-29T10:52:06Z</time>
		</trkpt>
		<trkpt lat="39.5742073059082" lon="2.6097092628479">
			<ele>126.599998474121</ele>
			<time>2013-12-29T10:52:08Z</time>
		</trkpt>
		<trkpt lat="39.5742530822754" lon="2.60969662666321">
			<ele>126.400001525879</ele>
			<time>2013-12-29T10:52:11Z</time>
		</trkpt>
		<trkpt lat="39.5742988586426" lon="2.60968279838562">
			<ele>126.5</ele>
			<time>2013-12-29T10:52:13Z</time>
		</trkpt>
		<trkpt lat="39.5743217468262" lon="2.609619140625">
			<ele>126.300003051758</ele>
			<time>2013-12-29T10:52:15Z</time>
		</trkpt>
		<trkpt lat="39.5743217468262" lon="2.60954284667969">
			<ele>126.5</ele>
			<time>2013-12-29T10:52:18Z</time>
		</trkpt>
		<trkpt lat="39.5743217468262" lon="2.60947251319885">
			<ele>126.699996948242</ele>
			<time>2013-12-29T10:52:20Z</time>
		</trkpt>
		<trkpt lat="39.5743255615234" lon="2.60940289497375">
			<ele>127.099998474121</ele>
			<time>2013-12-29T10:52:22Z</time>
		</trkpt>
		<trkpt lat="39.5743370056152" lon="2.60933303833008">
			<ele>127.800003051758</ele>
			<time>2013-12-29T10:52:24Z</time>
		</trkpt>
		<trkpt lat="39.574348449707" lon="2.6092643737793">
			<ele>128.100006103516</ele>
			<time>2013-12-29T10:52:26Z</time>
		</trkpt>
		<trkpt lat="39.5743408203125" lon="2.60920429229736">
			<ele>129.5</ele>
			<time>2013-12-29T10:53:15Z</time>
		</trkpt>
		<trkpt lat="39.574348449707" lon="2.6091365814209">
			<ele>129.5</ele>
			<time>2013-12-29T10:53:18Z</time>
		</trkpt>
		<trkpt lat="39.5743598937988" lon="2.60907649993896">
			<ele>129.399993896484</ele>
			<time>2013-12-29T10:53:20Z</time>
		</trkpt>
		<trkpt lat="39.5743637084961" lon="2.60901069641113">
			<ele>129.800003051758</ele>
			<time>2013-12-29T10:53:22Z</time>
		</trkpt>
		<trkpt lat="39.5743637084961" lon="2.60894680023193">
			<ele>129.899993896484</ele>
			<time>2013-12-29T10:53:24Z</time>
		</trkpt>
		<trkpt lat="39.5743675231934" lon="2.60888600349426">
			<ele>129.800003051758</ele>
			<time>2013-12-29T10:53:26Z</time>
		</trkpt>
		<trkpt lat="39.5743675231934" lon="2.60882353782654">
			<ele>130</ele>
			<time>2013-12-29T10:53:28Z</time>
		</trkpt>
		<trkpt lat="39.5743675231934" lon="2.6087646484375">
			<ele>130.300003051758</ele>
			<time>2013-12-29T10:53:30Z</time>
		</trkpt>
		<trkpt lat="39.5743637084961" lon="2.60870504379272">
			<ele>130.399993896484</ele>
			<time>2013-12-29T10:53:32Z</time>
		</trkpt>
		<trkpt lat="39.5743598937988" lon="2.60864591598511">
			<ele>130.5</ele>
			<time>2013-12-29T10:53:34Z</time>
		</trkpt>
		<trkpt lat="39.5743598937988" lon="2.60858702659607">
			<ele>130.699996948242</ele>
			<time>2013-12-29T10:53:36Z</time>
		</trkpt>
		<trkpt lat="39.5743637084961" lon="2.60852861404419">
			<ele>130.699996948242</ele>
			<time>2013-12-29T10:53:38Z</time>
		</trkpt>
		<trkpt lat="39.5743560791016" lon="2.60846710205078">
			<ele>130.699996948242</ele>
			<time>2013-12-29T10:53:40Z</time>
		</trkpt>
		<trkpt lat="39.5743560791016" lon="2.60840535163879">
			<ele>130.600006103516</ele>
			<time>2013-12-29T10:53:42Z</time>
		</trkpt>
		<trkpt lat="39.5743522644043" lon="2.60834193229675">
			<ele>130.699996948242</ele>
			<time>2013-12-29T10:53:44Z</time>
		</trkpt>
		<trkpt lat="39.5743522644043" lon="2.60827374458313">
			<ele>130.800003051758</ele>
			<time>2013-12-29T10:53:46Z</time>
		</trkpt>
		<trkpt lat="39.574348449707" lon="2.60820531845093">
			<ele>130.600006103516</ele>
			<time>2013-12-29T10:53:48Z</time>
		</trkpt>
		<trkpt lat="39.5743446350098" lon="2.6081395149231">
			<ele>130.899993896484</ele>
			<time>2013-12-29T10:53:50Z</time>
		</trkpt>
		<trkpt lat="39.5743370056152" lon="2.608074426651">
			<ele>130.800003051758</ele>
			<time>2013-12-29T10:53:52Z</time>
		</trkpt>
		<trkpt lat="39.5743255615234" lon="2.60800743103027">
			<ele>131.199996948242</ele>
			<time>2013-12-29T10:53:54Z</time>
		</trkpt>
		<trkpt lat="39.5743255615234" lon="2.60793662071228">
			<ele>131.800003051758</ele>
			<time>2013-12-29T10:53:57Z</time>
		</trkpt>
		<trkpt lat="39.5743141174316" lon="2.60787177085876">
			<ele>131.899993896484</ele>
			<time>2013-12-29T10:53:58Z</time>
		</trkpt>
		<trkpt lat="39.5743026733398" lon="2.60780739784241">
			<ele>132.300003051758</ele>
			<time>2013-12-29T10:54:00Z</time>
		</trkpt>
		<trkpt lat="39.574291229248" lon="2.60774254798889">
			<ele>132.600006103516</ele>
			<time>2013-12-29T10:54:03Z</time>
		</trkpt>
		<trkpt lat="39.5742645263672" lon="2.60768246650696">
			<ele>133.5</ele>
			<time>2013-12-29T10:54:05Z</time>
		</trkpt>
		<trkpt lat="39.5742530822754" lon="2.60761642456055">
			<ele>133.800003051758</ele>
			<time>2013-12-29T10:54:07Z</time>
		</trkpt>
		<trkpt lat="39.5742416381836" lon="2.60755443572998">
			<ele>134</ele>
			<time>2013-12-29T10:54:09Z</time>
		</trkpt>
		<trkpt lat="39.5742263793945" lon="2.60749053955078">
			<ele>134.399993896484</ele>
			<time>2013-12-29T10:54:11Z</time>
		</trkpt>
		<trkpt lat="39.5742149353027" lon="2.60742902755737">
			<ele>133.600006103516</ele>
			<time>2013-12-29T10:54:13Z</time>
		</trkpt>
		<trkpt lat="39.5741996765137" lon="2.60736489295959">
			<ele>134.399993896484</ele>
			<time>2013-12-29T10:54:15Z</time>
		</trkpt>
		<trkpt lat="39.5741882324219" lon="2.6073055267334">
			<ele>134.600006103516</ele>
			<time>2013-12-29T10:54:17Z</time>
		</trkpt>
		<trkpt lat="39.5741653442383" lon="2.60724973678589">
			<ele>134.399993896484</ele>
			<time>2013-12-29T10:54:19Z</time>
		</trkpt>
		<trkpt lat="39.5741539001465" lon="2.60719084739685">
			<ele>134.600006103516</ele>
			<time>2013-12-29T10:54:21Z</time>
		</trkpt>
		<trkpt lat="39.5741348266602" lon="2.60712671279907">
			<ele>135.5</ele>
			<time>2013-12-29T10:54:23Z</time>
		</trkpt>
		<trkpt lat="39.574104309082" lon="2.6070556640625">
			<ele>136.100006103516</ele>
			<time>2013-12-29T10:54:25Z</time>
		</trkpt>
		<trkpt lat="39.5740776062012" lon="2.60699963569641">
			<ele>136.600006103516</ele>
			<time>2013-12-29T10:54:27Z</time>
		</trkpt>
		<trkpt lat="39.574047088623" lon="2.60692572593689">
			<ele>137.5</ele>
			<time>2013-12-29T10:54:30Z</time>
		</trkpt>
		<trkpt lat="39.5740089416504" lon="2.60686063766479">
			<ele>137.800003051758</ele>
			<time>2013-12-29T10:54:32Z</time>
		</trkpt>
		<trkpt lat="39.5739936828613" lon="2.60680294036865">
			<ele>137.399993896484</ele>
			<time>2013-12-29T10:54:34Z</time>
		</trkpt>
		<trkpt lat="39.5739669799805" lon="2.60674738883972">
			<ele>138.5</ele>
			<time>2013-12-29T10:54:36Z</time>
		</trkpt>
		<trkpt lat="39.5739479064941" lon="2.60669088363647">
			<ele>139.5</ele>
			<time>2013-12-29T10:54:38Z</time>
		</trkpt>
		<trkpt lat="39.5739479064941" lon="2.60662293434143">
			<ele>140.699996948242</ele>
			<time>2013-12-29T10:54:41Z</time>
		</trkpt>
		<trkpt lat="39.5739669799805" lon="2.60657000541687">
			<ele>138.899993896484</ele>
			<time>2013-12-29T10:54:43Z</time>
		</trkpt>
		<trkpt lat="39.573974609375" lon="2.60648560523987">
			<ele>138.899993896484</ele>
			<time>2013-12-29T10:54:45Z</time>
		</trkpt>
		<trkpt lat="39.5739898681641" lon="2.6064281463623">
			<ele>139.5</ele>
			<time>2013-12-29T10:54:47Z</time>
		</trkpt>
		<trkpt lat="39.5740013122559" lon="2.60636711120605">
			<ele>139.600006103516</ele>
			<time>2013-12-29T10:54:49Z</time>
		</trkpt>
		<trkpt lat="39.5740165710449" lon="2.60630893707275">
			<ele>139.699996948242</ele>
			<time>2013-12-29T10:54:51Z</time>
		</trkpt>
		<trkpt lat="39.5740356445313" lon="2.60625028610229">
			<ele>139.899993896484</ele>
			<time>2013-12-29T10:54:53Z</time>
		</trkpt>
		<trkpt lat="39.5740661621094" lon="2.60617232322693">
			<ele>140.600006103516</ele>
			<time>2013-12-29T10:54:57Z</time>
		</trkpt>
		<trkpt lat="39.5740928649902" lon="2.60611915588379">
			<ele>140.800003051758</ele>
			<time>2013-12-29T10:54:59Z</time>
		</trkpt>
		<trkpt lat="39.5741157531738" lon="2.60606646537781">
			<ele>141</ele>
			<time>2013-12-29T10:55:01Z</time>
		</trkpt>
		<trkpt lat="39.5741348266602" lon="2.60601377487183">
			<ele>141.399993896484</ele>
			<time>2013-12-29T10:55:03Z</time>
		</trkpt>
		<trkpt lat="39.5741577148438" lon="2.60593199729919">
			<ele>141.600006103516</ele>
			<time>2013-12-29T10:55:05Z</time>
		</trkpt>
		<trkpt lat="39.5741806030273" lon="2.60585355758667">
			<ele>142.100006103516</ele>
			<time>2013-12-29T10:55:09Z</time>
		</trkpt>
		<trkpt lat="39.5742073059082" lon="2.60577988624573">
			<ele>142.5</ele>
			<time>2013-12-29T10:55:11Z</time>
		</trkpt>
		<trkpt lat="39.5742301940918" lon="2.60571336746216">
			<ele>142.399993896484</ele>
			<time>2013-12-29T10:55:15Z</time>
		</trkpt>
		<trkpt lat="39.5742416381836" lon="2.60564541816711">
			<ele>142.5</ele>
			<time>2013-12-29T10:55:17Z</time>
		</trkpt>
		<trkpt lat="39.5742530822754" lon="2.60556888580322">
			<ele>143.199996948242</ele>
			<time>2013-12-29T10:55:21Z</time>
		</trkpt>
		<trkpt lat="39.5742721557617" lon="2.60549187660217">
			<ele>143.300003051758</ele>
			<time>2013-12-29T10:55:23Z</time>
		</trkpt>
		<trkpt lat="39.5742874145508" lon="2.60541844367981">
			<ele>143.699996948242</ele>
			<time>2013-12-29T10:55:27Z</time>
		</trkpt>
		<trkpt lat="39.5742988586426" lon="2.60534477233887">
			<ele>144.399993896484</ele>
			<time>2013-12-29T10:55:29Z</time>
		</trkpt>
		<trkpt lat="39.5743141174316" lon="2.60526895523071">
			<ele>145.199996948242</ele>
			<time>2013-12-29T10:55:33Z</time>
		</trkpt>
		<trkpt lat="39.5743255615234" lon="2.60519695281982">
			<ele>146</ele>
			<time>2013-12-29T10:55:35Z</time>
		</trkpt>
		<trkpt lat="39.5743408203125" lon="2.60512638092041">
			<ele>146.199996948242</ele>
			<time>2013-12-29T10:55:39Z</time>
		</trkpt>
		<trkpt lat="39.5743560791016" lon="2.6050546169281">
			<ele>146.5</ele>
			<time>2013-12-29T10:55:41Z</time>
		</trkpt>
		<trkpt lat="39.5743713378906" lon="2.60498738288879">
			<ele>147.100006103516</ele>
			<time>2013-12-29T10:55:45Z</time>
		</trkpt>
		<trkpt lat="39.574390411377" lon="2.60492563247681">
			<ele>147</ele>
			<time>2013-12-29T10:55:47Z</time>
		</trkpt>
		<trkpt lat="39.5744132995605" lon="2.60485601425171">
			<ele>147.399993896484</ele>
			<time>2013-12-29T10:55:51Z</time>
		</trkpt>
		<trkpt lat="39.5744361877441" lon="2.60479187965393">
			<ele>147.5</ele>
			<time>2013-12-29T10:55:53Z</time>
		</trkpt>
		<trkpt lat="39.5744590759277" lon="2.60471606254578">
			<ele>148</ele>
			<time>2013-12-29T10:55:57Z</time>
		</trkpt>
		<trkpt lat="39.5744743347168" lon="2.60465526580811">
			<ele>147.5</ele>
			<time>2013-12-29T10:55:59Z</time>
		</trkpt>
		<trkpt lat="39.5745086669922" lon="2.60458874702454">
			<ele>147.600006103516</ele>
			<time>2013-12-29T10:56:03Z</time>
		</trkpt>
		<trkpt lat="39.5745315551758" lon="2.60453462600708">
			<ele>147.800003051758</ele>
			<time>2013-12-29T10:56:05Z</time>
		</trkpt>
		<trkpt lat="39.5745544433594" lon="2.60447835922241">
			<ele>147.5</ele>
			<time>2013-12-29T10:56:07Z</time>
		</trkpt>
		<trkpt lat="39.5745735168457" lon="2.60441923141479">
			<ele>147.100006103516</ele>
			<time>2013-12-29T10:56:08Z</time>
		</trkpt>
		<trkpt lat="39.574592590332" lon="2.60435342788696">
			<ele>147</ele>
			<time>2013-12-29T10:56:11Z</time>
		</trkpt>
		<trkpt lat="39.5746078491211" lon="2.60427927970886">
			<ele>147.100006103516</ele>
			<time>2013-12-29T10:56:13Z</time>
		</trkpt>
		<trkpt lat="39.574634552002" lon="2.60419511795044">
			<ele>146.699996948242</ele>
			<time>2013-12-29T10:56:15Z</time>
		</trkpt>
		<trkpt lat="39.5746765136719" lon="2.60408401489258">
			<ele>146.199996948242</ele>
			<time>2013-12-29T10:56:17Z</time>
		</trkpt>
		<trkpt lat="39.57470703125" lon="2.6039776802063">
			<ele>146</ele>
			<time>2013-12-29T10:56:18Z</time>
		</trkpt>
		<trkpt lat="39.5747299194336" lon="2.60391545295715">
			<ele>145.800003051758</ele>
			<time>2013-12-29T10:56:20Z</time>
		</trkpt>
		<trkpt lat="39.5747489929199" lon="2.60385370254517">
			<ele>145.300003051758</ele>
			<time>2013-12-29T10:56:21Z</time>
		</trkpt>
		<trkpt lat="39.5747604370117" lon="2.60379195213318">
			<ele>144.800003051758</ele>
			<time>2013-12-29T10:56:22Z</time>
		</trkpt>
		<trkpt lat="39.5747718811035" lon="2.60372614860535">
			<ele>144.600006103516</ele>
			<time>2013-12-29T10:56:23Z</time>
		</trkpt>
		<trkpt lat="39.5747833251953" lon="2.60365629196167">
			<ele>144.199996948242</ele>
			<time>2013-12-29T10:56:24Z</time>
		</trkpt>
		<trkpt lat="39.5747947692871" lon="2.60358285903931">
			<ele>143.800003051758</ele>
			<time>2013-12-29T10:56:25Z</time>
		</trkpt>
		<trkpt lat="39.5748023986816" lon="2.60350608825684">
			<ele>143.399993896484</ele>
			<time>2013-12-29T10:56:26Z</time>
		</trkpt>
		<trkpt lat="39.5748138427734" lon="2.60341906547546">
			<ele>143.100006103516</ele>
			<time>2013-12-29T10:56:27Z</time>
		</trkpt>
		<trkpt lat="39.5748291015625" lon="2.60333657264709">
			<ele>142.899993896484</ele>
			<time>2013-12-29T10:56:28Z</time>
		</trkpt>
		<trkpt lat="39.5748443603516" lon="2.60325312614441">
			<ele>142.5</ele>
			<time>2013-12-29T10:56:29Z</time>
		</trkpt>
		<trkpt lat="39.5748519897461" lon="2.60317063331604">
			<ele>142.5</ele>
			<time>2013-12-29T10:56:30Z</time>
		</trkpt>
		<trkpt lat="39.5748596191406" lon="2.6030809879303">
			<ele>142.199996948242</ele>
			<time>2013-12-29T10:56:31Z</time>
		</trkpt>
		<trkpt lat="39.5748710632324" lon="2.60299444198608">
			<ele>141.800003051758</ele>
			<time>2013-12-29T10:56:32Z</time>
		</trkpt>
		<trkpt lat="39.5748901367188" lon="2.60290861129761">
			<ele>141.5</ele>
			<time>2013-12-29T10:56:33Z</time>
		</trkpt>
		<trkpt lat="39.5749130249023" lon="2.60281610488892">
			<ele>141.399993896484</ele>
			<time>2013-12-29T10:56:34Z</time>
		</trkpt>
		<trkpt lat="39.5749320983887" lon="2.60272526741028">
			<ele>141.199996948242</ele>
			<time>2013-12-29T10:56:35Z</time>
		</trkpt>
		<trkpt lat="39.5749549865723" lon="2.60263919830322">
			<ele>140.800003051758</ele>
			<time>2013-12-29T10:56:36Z</time>
		</trkpt>
		<trkpt lat="39.5750007629395" lon="2.60255193710327">
			<ele>139.600006103516</ele>
			<time>2013-12-29T10:56:37Z</time>
		</trkpt>
		<trkpt lat="39.5750465393066" lon="2.60246968269348">
			<ele>138.899993896484</ele>
			<time>2013-12-29T10:56:38Z</time>
		</trkpt>
		<trkpt lat="39.5750961303711" lon="2.60239958763123">
			<ele>138.300003051758</ele>
			<time>2013-12-29T10:56:39Z</time>
		</trkpt>
		<trkpt lat="39.5751571655273" lon="2.60234355926514">
			<ele>137.699996948242</ele>
			<time>2013-12-29T10:56:40Z</time>
		</trkpt>
		<trkpt lat="39.5752258300781" lon="2.60229730606079">
			<ele>137.199996948242</ele>
			<time>2013-12-29T10:56:41Z</time>
		</trkpt>
		<trkpt lat="39.5752944946289" lon="2.60225701332092">
			<ele>136.300003051758</ele>
			<time>2013-12-29T10:56:42Z</time>
		</trkpt>
		<trkpt lat="39.5753631591797" lon="2.60221648216248">
			<ele>135.899993896484</ele>
			<time>2013-12-29T10:56:43Z</time>
		</trkpt>
		<trkpt lat="39.5754356384277" lon="2.60216546058655">
			<ele>135.399993896484</ele>
			<time>2013-12-29T10:56:44Z</time>
		</trkpt>
		<trkpt lat="39.5755043029785" lon="2.60211133956909">
			<ele>134.600006103516</ele>
			<time>2013-12-29T10:56:45Z</time>
		</trkpt>
		<trkpt lat="39.5755653381348" lon="2.60204863548279">
			<ele>134.300003051758</ele>
			<time>2013-12-29T10:56:46Z</time>
		</trkpt>
		<trkpt lat="39.575626373291" lon="2.60197162628174">
			<ele>133.899993896484</ele>
			<time>2013-12-29T10:56:47Z</time>
		</trkpt>
		<trkpt lat="39.5756759643555" lon="2.60187768936157">
			<ele>133.199996948242</ele>
			<time>2013-12-29T10:56:48Z</time>
		</trkpt>
		<trkpt lat="39.5756874084473" lon="2.6017792224884">
			<ele>133.199996948242</ele>
			<time>2013-12-29T10:56:49Z</time>
		</trkpt>
		<trkpt lat="39.5757217407227" lon="2.60169625282288">
			<ele>133.5</ele>
			<time>2013-12-29T10:56:50Z</time>
		</trkpt>
		<trkpt lat="39.5757522583008" lon="2.60161352157593">
			<ele>133.5</ele>
			<time>2013-12-29T10:56:51Z</time>
		</trkpt>
		<trkpt lat="39.5757827758789" lon="2.60153245925903">
			<ele>133.800003051758</ele>
			<time>2013-12-29T10:56:52Z</time>
		</trkpt>
		<trkpt lat="39.5758018493652" lon="2.60145330429077">
			<ele>133.899993896484</ele>
			<time>2013-12-29T10:56:53Z</time>
		</trkpt>
		<trkpt lat="39.5758209228516" lon="2.60138154029846">
			<ele>134.100006103516</ele>
			<time>2013-12-29T10:56:54Z</time>
		</trkpt>
		<trkpt lat="39.5758323669434" lon="2.60132169723511">
			<ele>134</ele>
			<time>2013-12-29T10:56:55Z</time>
		</trkpt>
		<trkpt lat="39.5758399963379" lon="2.60125732421875">
			<ele>134.100006103516</ele>
			<time>2013-12-29T10:56:56Z</time>
		</trkpt>
		<trkpt lat="39.5758666992188" lon="2.60114645957947">
			<ele>134.699996948242</ele>
			<time>2013-12-29T10:56:58Z</time>
		</trkpt>
		<trkpt lat="39.5758972167969" lon="2.60106062889099">
			<ele>135.100006103516</ele>
			<time>2013-12-29T10:57:00Z</time>
		</trkpt>
		<trkpt lat="39.575927734375" lon="2.60098671913147">
			<ele>134.899993896484</ele>
			<time>2013-12-29T10:57:02Z</time>
		</trkpt>
		<trkpt lat="39.5759620666504" lon="2.60091161727905">
			<ele>134.199996948242</ele>
			<time>2013-12-29T10:57:04Z</time>
		</trkpt>
		<trkpt lat="39.576000213623" lon="2.60083913803101">
			<ele>134.600006103516</ele>
			<time>2013-12-29T10:57:06Z</time>
		</trkpt>
		<trkpt lat="39.5760269165039" lon="2.60076498985291">
			<ele>135</ele>
			<time>2013-12-29T10:57:08Z</time>
		</trkpt>
		<trkpt lat="39.5760459899902" lon="2.60069799423218">
			<ele>135.300003051758</ele>
			<time>2013-12-29T10:57:10Z</time>
		</trkpt>
		<trkpt lat="39.5760688781738" lon="2.60062742233276">
			<ele>136.300003051758</ele>
			<time>2013-12-29T10:57:12Z</time>
		</trkpt>
		<trkpt lat="39.5760955810547" lon="2.60055160522461">
			<ele>136.5</ele>
			<time>2013-12-29T10:57:14Z</time>
		</trkpt>
		<trkpt lat="39.576114654541" lon="2.60048317909241">
			<ele>137.199996948242</ele>
			<time>2013-12-29T10:57:16Z</time>
		</trkpt>
		<trkpt lat="39.5761337280273" lon="2.60041093826294">
			<ele>137</ele>
			<time>2013-12-29T10:57:18Z</time>
		</trkpt>
		<trkpt lat="39.5761489868164" lon="2.60034155845642">
			<ele>137.300003051758</ele>
			<time>2013-12-29T10:57:19Z</time>
		</trkpt>
		<trkpt lat="39.5761680603027" lon="2.60027050971985">
			<ele>137.399993896484</ele>
			<time>2013-12-29T10:57:22Z</time>
		</trkpt>
		<trkpt lat="39.5761756896973" lon="2.60019421577454">
			<ele>137.800003051758</ele>
			<time>2013-12-29T10:57:24Z</time>
		</trkpt>
		<trkpt lat="39.5761909484863" lon="2.60012245178223">
			<ele>138.199996948242</ele>
			<time>2013-12-29T10:57:26Z</time>
		</trkpt>
		<trkpt lat="39.5761985778809" lon="2.60004639625549">
			<ele>138.800003051758</ele>
			<time>2013-12-29T10:57:28Z</time>
		</trkpt>
		<trkpt lat="39.5762100219727" lon="2.59997177124023">
			<ele>138.800003051758</ele>
			<time>2013-12-29T10:57:30Z</time>
		</trkpt>
		<trkpt lat="39.5762214660645" lon="2.59990000724792">
			<ele>138.899993896484</ele>
			<time>2013-12-29T10:57:32Z</time>
		</trkpt>
		<trkpt lat="39.576229095459" lon="2.5998260974884">
			<ele>138.800003051758</ele>
			<time>2013-12-29T10:57:34Z</time>
		</trkpt>
		<trkpt lat="39.576244354248" lon="2.59975075721741">
			<ele>139.100006103516</ele>
			<time>2013-12-29T10:57:36Z</time>
		</trkpt>
		<trkpt lat="39.5762481689453" lon="2.59967422485352">
			<ele>139.300003051758</ele>
			<time>2013-12-29T10:57:38Z</time>
		</trkpt>
		<trkpt lat="39.5762634277344" lon="2.59960889816284">
			<ele>136.5</ele>
			<time>2013-12-29T10:57:39Z</time>
		</trkpt>
		<trkpt lat="39.5762634277344" lon="2.59953379631042">
			<ele>133.899993896484</ele>
			<time>2013-12-29T10:57:41Z</time>
		</trkpt>
		<trkpt lat="39.5762519836426" lon="2.59945678710938">
			<ele>134.199996948242</ele>
			<time>2013-12-29T10:57:44Z</time>
		</trkpt>
		<trkpt lat="39.576244354248" lon="2.59938097000122">
			<ele>134.800003051758</ele>
			<time>2013-12-29T10:57:46Z</time>
		</trkpt>
		<trkpt lat="39.576229095459" lon="2.59930825233459">
			<ele>135.300003051758</ele>
			<time>2013-12-29T10:57:48Z</time>
		</trkpt>
		<trkpt lat="39.5762176513672" lon="2.59924125671387">
			<ele>135.800003051758</ele>
			<time>2013-12-29T10:57:49Z</time>
		</trkpt>
		<trkpt lat="39.5762062072754" lon="2.59916949272156">
			<ele>136.5</ele>
			<time>2013-12-29T10:57:52Z</time>
		</trkpt>
		<trkpt lat="39.5761947631836" lon="2.59909987449646">
			<ele>136.300003051758</ele>
			<time>2013-12-29T10:57:53Z</time>
		</trkpt>
		<trkpt lat="39.5761871337891" lon="2.59903144836426">
			<ele>137</ele>
			<time>2013-12-29T10:57:55Z</time>
		</trkpt>
		<trkpt lat="39.5761756896973" lon="2.59895753860474">
			<ele>137.5</ele>
			<time>2013-12-29T10:57:58Z</time>
		</trkpt>
		<trkpt lat="39.5761642456055" lon="2.59888625144958">
			<ele>137.399993896484</ele>
			<time>2013-12-29T10:58:00Z</time>
		</trkpt>
		<trkpt lat="39.5761451721191" lon="2.59881520271301">
			<ele>139</ele>
			<time>2013-12-29T10:58:02Z</time>
		</trkpt>
		<trkpt lat="39.5761337280273" lon="2.59874939918518">
			<ele>138.899993896484</ele>
			<time>2013-12-29T10:58:03Z</time>
		</trkpt>
		<trkpt lat="39.5761375427246" lon="2.5986852645874">
			<ele>136</ele>
			<time>2013-12-29T10:58:05Z</time>
		</trkpt>
		<trkpt lat="39.5761184692383" lon="2.59861540794373">
			<ele>137.600006103516</ele>
			<time>2013-12-29T10:58:07Z</time>
		</trkpt>
		<trkpt lat="39.5761070251465" lon="2.59854650497437">
			<ele>138.199996948242</ele>
			<time>2013-12-29T10:58:10Z</time>
		</trkpt>
		<trkpt lat="39.5760955810547" lon="2.59847593307495">
			<ele>138.300003051758</ele>
			<time>2013-12-29T10:58:12Z</time>
		</trkpt>
		<trkpt lat="39.5760841369629" lon="2.59840512275696">
			<ele>138.899993896484</ele>
			<time>2013-12-29T10:58:13Z</time>
		</trkpt>
		<trkpt lat="39.5760803222656" lon="2.59833288192749">
			<ele>139.100006103516</ele>
			<time>2013-12-29T10:58:16Z</time>
		</trkpt>
		<trkpt lat="39.5760841369629" lon="2.5982608795166">
			<ele>139.5</ele>
			<time>2013-12-29T10:58:18Z</time>
		</trkpt>
		<trkpt lat="39.5760917663574" lon="2.59818363189697">
			<ele>140.600006103516</ele>
			<time>2013-12-29T10:58:20Z</time>
		</trkpt>
		<trkpt lat="39.5760955810547" lon="2.59811568260193">
			<ele>141.399993896484</ele>
			<time>2013-12-29T10:58:21Z</time>
		</trkpt>
		<trkpt lat="39.5761070251465" lon="2.59804797172546">
			<ele>141.800003051758</ele>
			<time>2013-12-29T10:58:24Z</time>
		</trkpt>
		<trkpt lat="39.5761108398438" lon="2.59797930717468">
			<ele>142.199996948242</ele>
			<time>2013-12-29T10:58:26Z</time>
		</trkpt>
		<trkpt lat="39.5761108398438" lon="2.59791302680969">
			<ele>143</ele>
			<time>2013-12-29T10:58:28Z</time>
		</trkpt>
		<trkpt lat="39.5761184692383" lon="2.59784603118896">
			<ele>143.300003051758</ele>
			<time>2013-12-29T10:58:30Z</time>
		</trkpt>
		<trkpt lat="39.5761222839355" lon="2.59777855873108">
			<ele>143.699996948242</ele>
			<time>2013-12-29T10:58:32Z</time>
		</trkpt>
		<trkpt lat="39.5761222839355" lon="2.59771037101746">
			<ele>144.600006103516</ele>
			<time>2013-12-29T10:58:34Z</time>
		</trkpt>
		<trkpt lat="39.5761337280273" lon="2.59764957427979">
			<ele>143.100006103516</ele>
			<time>2013-12-29T10:58:36Z</time>
		</trkpt>
		<trkpt lat="39.5761299133301" lon="2.59759044647217">
			<ele>144.199996948242</ele>
			<time>2013-12-29T10:58:38Z</time>
		</trkpt>
		<trkpt lat="39.5761337280273" lon="2.59752607345581">
			<ele>144.600006103516</ele>
			<time>2013-12-29T10:58:40Z</time>
		</trkpt>
		<trkpt lat="39.5761299133301" lon="2.59746670722961">
			<ele>144.899993896484</ele>
			<time>2013-12-29T10:58:42Z</time>
		</trkpt>
		<trkpt lat="39.5761260986328" lon="2.59740734100342">
			<ele>145</ele>
			<time>2013-12-29T10:58:44Z</time>
		</trkpt>
		<trkpt lat="39.5761260986328" lon="2.59734630584717">
			<ele>145.300003051758</ele>
			<time>2013-12-29T10:58:46Z</time>
		</trkpt>
		<trkpt lat="39.5761184692383" lon="2.59728455543518">
			<ele>145.800003051758</ele>
			<time>2013-12-29T10:58:48Z</time>
		</trkpt>
		<trkpt lat="39.5761108398438" lon="2.59722256660461">
			<ele>146.5</ele>
			<time>2013-12-29T10:58:50Z</time>
		</trkpt>
		<trkpt lat="39.5761032104492" lon="2.59715962409973">
			<ele>147.399993896484</ele>
			<time>2013-12-29T10:58:52Z</time>
		</trkpt>
		<trkpt lat="39.5761032104492" lon="2.59709501266479">
			<ele>147.800003051758</ele>
			<time>2013-12-29T10:58:54Z</time>
		</trkpt>
		<trkpt lat="39.5761032104492" lon="2.59703540802002">
			<ele>148.5</ele>
			<time>2013-12-29T10:58:56Z</time>
		</trkpt>
		<trkpt lat="39.576099395752" lon="2.5969717502594">
			<ele>149.399993896484</ele>
			<time>2013-12-29T10:58:58Z</time>
		</trkpt>
		<trkpt lat="39.5761032104492" lon="2.59691047668457">
			<ele>150</ele>
			<time>2013-12-29T10:59:00Z</time>
		</trkpt>
		<trkpt lat="39.5761222839355" lon="2.59685111045837">
			<ele>150.300003051758</ele>
			<time>2013-12-29T10:59:02Z</time>
		</trkpt>
		<trkpt lat="39.5761413574219" lon="2.59679579734802">
			<ele>150.800003051758</ele>
			<time>2013-12-29T10:59:04Z</time>
		</trkpt>
		<trkpt lat="39.5761642456055" lon="2.5967423915863">
			<ele>151.399993896484</ele>
			<time>2013-12-29T10:59:06Z</time>
		</trkpt>
		<trkpt lat="39.5761871337891" lon="2.59668850898743">
			<ele>152.199996948242</ele>
			<time>2013-12-29T10:59:08Z</time>
		</trkpt>
		<trkpt lat="39.5762062072754" lon="2.59663224220276">
			<ele>152.699996948242</ele>
			<time>2013-12-29T10:59:10Z</time>
		</trkpt>
		<trkpt lat="39.576229095459" lon="2.5965793132782">
			<ele>152.800003051758</ele>
			<time>2013-12-29T10:59:12Z</time>
		</trkpt>
		<trkpt lat="39.5762519836426" lon="2.59652709960938">
			<ele>153.399993896484</ele>
			<time>2013-12-29T10:59:14Z</time>
		</trkpt>
		<trkpt lat="39.5762748718262" lon="2.59647226333618">
			<ele>153.899993896484</ele>
			<time>2013-12-29T10:59:16Z</time>
		</trkpt>
		<trkpt lat="39.5762977600098" lon="2.59642267227173">
			<ele>154.300003051758</ele>
			<time>2013-12-29T10:59:18Z</time>
		</trkpt>
		<trkpt lat="39.5763320922852" lon="2.59634637832642">
			<ele>155.300003051758</ele>
			<time>2013-12-29T10:59:20Z</time>
		</trkpt>
		<trkpt lat="39.576358795166" lon="2.59629607200623">
			<ele>155.800003051758</ele>
			<time>2013-12-29T10:59:22Z</time>
		</trkpt>
		<trkpt lat="39.5763816833496" lon="2.59624433517456">
			<ele>156.100006103516</ele>
			<time>2013-12-29T10:59:24Z</time>
		</trkpt>
		<trkpt lat="39.5764083862305" lon="2.59619855880737">
			<ele>156.300003051758</ele>
			<time>2013-12-29T10:59:27Z</time>
		</trkpt>
		<trkpt lat="39.5764579772949" lon="2.59614729881287">
			<ele>156.300003051758</ele>
			<time>2013-12-29T10:59:30Z</time>
		</trkpt>
		<trkpt lat="39.5765228271484" lon="2.59613633155823">
			<ele>156</ele>
			<time>2013-12-29T10:59:33Z</time>
		</trkpt>
		<trkpt lat="39.5765914916992" lon="2.59613490104675">
			<ele>156</ele>
			<time>2013-12-29T10:59:36Z</time>
		</trkpt>
		<trkpt lat="39.5766296386719" lon="2.59616923332214">
			<ele>155.699996948242</ele>
			<time>2013-12-29T10:59:38Z</time>
		</trkpt>
		<trkpt lat="39.5766716003418" lon="2.59619474411011">
			<ele>155.300003051758</ele>
			<time>2013-12-29T10:59:40Z</time>
		</trkpt>
		<trkpt lat="39.5766983032227" lon="2.59624338150024">
			<ele>154.399993896484</ele>
			<time>2013-12-29T10:59:42Z</time>
		</trkpt>
		<trkpt lat="39.5767250061035" lon="2.59629416465759">
			<ele>155.199996948242</ele>
			<time>2013-12-29T10:59:44Z</time>
		</trkpt>
		<trkpt lat="39.5767631530762" lon="2.59635949134827">
			<ele>154.800003051758</ele>
			<time>2013-12-29T10:59:47Z</time>
		</trkpt>
		<trkpt lat="39.5768051147461" lon="2.59642314910889">
			<ele>154.5</ele>
			<time>2013-12-29T10:59:50Z</time>
		</trkpt>
		<trkpt lat="39.576847076416" lon="2.59646248817444">
			<ele>156.199996948242</ele>
			<time>2013-12-29T10:59:53Z</time>
		</trkpt>
		<trkpt lat="39.5768966674805" lon="2.59645938873291">
			<ele>155.800003051758</ele>
			<time>2013-12-29T10:59:56Z</time>
		</trkpt>
		<trkpt lat="39.5769309997559" lon="2.59640574455261">
			<ele>155.399993896484</ele>
			<time>2013-12-29T10:59:59Z</time>
		</trkpt>
		<trkpt lat="39.5769004821777" lon="2.59633731842041">
			<ele>156.5</ele>
			<time>2013-12-29T11:00:01Z</time>
		</trkpt>
		<trkpt lat="39.5768699645996" lon="2.59626436233521">
			<ele>154.600006103516</ele>
			<time>2013-12-29T11:00:03Z</time>
		</trkpt>
		<trkpt lat="39.576847076416" lon="2.59619331359863">
			<ele>154</ele>
			<time>2013-12-29T11:00:07Z</time>
		</trkpt>
		<trkpt lat="39.5768356323242" lon="2.59613442420959">
			<ele>151</ele>
			<time>2013-12-29T11:00:09Z</time>
		</trkpt>
		<trkpt lat="39.5768127441406" lon="2.59605979919434">
			<ele>151.600006103516</ele>
			<time>2013-12-29T11:00:12Z</time>
		</trkpt>
		<trkpt lat="39.5767974853516" lon="2.59597992897034">
			<ele>152.300003051758</ele>
			<time>2013-12-29T11:00:15Z</time>
		</trkpt>
		<trkpt lat="39.5767860412598" lon="2.59591031074524">
			<ele>151.800003051758</ele>
			<time>2013-12-29T11:00:18Z</time>
		</trkpt>
		<trkpt lat="39.5767593383789" lon="2.59583640098572">
			<ele>152</ele>
			<time>2013-12-29T11:00:21Z</time>
		</trkpt>
		<trkpt lat="39.576732635498" lon="2.59577226638794">
			<ele>151.600006103516</ele>
			<time>2013-12-29T11:00:24Z</time>
		</trkpt>
		<trkpt lat="39.5767059326172" lon="2.59570360183716">
			<ele>152.699996948242</ele>
			<time>2013-12-29T11:00:27Z</time>
		</trkpt>
		<trkpt lat="39.5766792297363" lon="2.59564185142517">
			<ele>153.399993896484</ele>
			<time>2013-12-29T11:00:30Z</time>
		</trkpt>
		<trkpt lat="39.5766639709473" lon="2.59558749198914">
			<ele>154.100006103516</ele>
			<time>2013-12-29T11:00:32Z</time>
		</trkpt>
		<trkpt lat="39.5766410827637" lon="2.59552717208862">
			<ele>152.800003051758</ele>
			<time>2013-12-29T11:00:35Z</time>
		</trkpt>
		<trkpt lat="39.5766143798828" lon="2.59547162055969">
			<ele>153</ele>
			<time>2013-12-29T11:00:37Z</time>
		</trkpt>
		<trkpt lat="39.5765800476074" lon="2.59540963172913">
			<ele>154</ele>
			<time>2013-12-29T11:00:41Z</time>
		</trkpt>
		<trkpt lat="39.5765533447266" lon="2.59533667564392">
			<ele>155</ele>
			<time>2013-12-29T11:00:44Z</time>
		</trkpt>
		<trkpt lat="39.576530456543" lon="2.5952615737915">
			<ele>155.699996948242</ele>
			<time>2013-12-29T11:00:47Z</time>
		</trkpt>
		<trkpt lat="39.5764923095703" lon="2.59518718719482">
			<ele>156.199996948242</ele>
			<time>2013-12-29T11:00:50Z</time>
		</trkpt>
		<trkpt lat="39.5764656066895" lon="2.59511208534241">
			<ele>156.600006103516</ele>
			<time>2013-12-29T11:00:53Z</time>
		</trkpt>
		<trkpt lat="39.5764350891113" lon="2.5950403213501">
			<ele>156.899993896484</ele>
			<time>2013-12-29T11:00:56Z</time>
		</trkpt>
		<trkpt lat="39.5764122009277" lon="2.59497261047363">
			<ele>156.300003051758</ele>
			<time>2013-12-29T11:00:59Z</time>
		</trkpt>
		<trkpt lat="39.5763740539551" lon="2.59490728378296">
			<ele>156</ele>
			<time>2013-12-29T11:01:02Z</time>
		</trkpt>
		<trkpt lat="39.576343536377" lon="2.59485769271851">
			<ele>156.600006103516</ele>
			<time>2013-12-29T11:01:04Z</time>
		</trkpt>
		<trkpt lat="39.5763053894043" lon="2.5947904586792">
			<ele>156.5</ele>
			<time>2013-12-29T11:01:07Z</time>
		</trkpt>
		<trkpt lat="39.5762786865234" lon="2.59473824501038">
			<ele>153.399993896484</ele>
			<time>2013-12-29T11:01:10Z</time>
		</trkpt>
		<trkpt lat="39.5762405395508" lon="2.59469842910767">
			<ele>152.399993896484</ele>
			<time>2013-12-29T11:01:12Z</time>
		</trkpt>
		<trkpt lat="39.5761871337891" lon="2.59464621543884">
			<ele>153.199996948242</ele>
			<time>2013-12-29T11:01:16Z</time>
		</trkpt>
		<trkpt lat="39.5761413574219" lon="2.59462714195251">
			<ele>154.600006103516</ele>
			<time>2013-12-29T11:01:18Z</time>
		</trkpt>
		<trkpt lat="39.5760955810547" lon="2.5946090221405">
			<ele>155.899993896484</ele>
			<time>2013-12-29T11:01:20Z</time>
		</trkpt>
		<trkpt lat="39.5760498046875" lon="2.59460639953613">
			<ele>156.899993896484</ele>
			<time>2013-12-29T11:01:21Z</time>
		</trkpt>
		<trkpt lat="39.575984954834" lon="2.59459924697876">
			<ele>157.399993896484</ele>
			<time>2013-12-29T11:01:25Z</time>
		</trkpt>
		<trkpt lat="39.575927734375" lon="2.59459352493286">
			<ele>158</ele>
			<time>2013-12-29T11:01:28Z</time>
		</trkpt>
		<trkpt lat="39.5758743286133" lon="2.59458565711975">
			<ele>159.899993896484</ele>
			<time>2013-12-29T11:01:30Z</time>
		</trkpt>
		<trkpt lat="39.5758285522461" lon="2.59457659721375">
			<ele>160.5</ele>
			<time>2013-12-29T11:01:32Z</time>
		</trkpt>
		<trkpt lat="39.5757827758789" lon="2.59456944465637">
			<ele>161.600006103516</ele>
			<time>2013-12-29T11:01:34Z</time>
		</trkpt>
		<trkpt lat="39.5757331848145" lon="2.59456133842468">
			<ele>162.600006103516</ele>
			<time>2013-12-29T11:01:36Z</time>
		</trkpt>
		<trkpt lat="39.5756721496582" lon="2.59454393386841">
			<ele>163.199996948242</ele>
			<time>2013-12-29T11:01:38Z</time>
		</trkpt>
		<trkpt lat="39.575626373291" lon="2.59449648857117">
			<ele>165</ele>
			<time>2013-12-29T11:01:42Z</time>
		</trkpt>
		<trkpt lat="39.5756454467773" lon="2.59442901611328">
			<ele>166.300003051758</ele>
			<time>2013-12-29T11:01:44Z</time>
		</trkpt>
		<trkpt lat="39.5756950378418" lon="2.59437918663025">
			<ele>167</ele>
			<time>2013-12-29T11:01:48Z</time>
		</trkpt>
		<trkpt lat="39.5757446289063" lon="2.59432888031006">
			<ele>167.699996948242</ele>
			<time>2013-12-29T11:01:51Z</time>
		</trkpt>
		<trkpt lat="39.5757904052734" lon="2.59428215026855">
			<ele>168.199996948242</ele>
			<time>2013-12-29T11:01:54Z</time>
		</trkpt>
		<trkpt lat="39.5758399963379" lon="2.59423613548279">
			<ele>168.899993896484</ele>
			<time>2013-12-29T11:01:57Z</time>
		</trkpt>
		<trkpt lat="39.5758934020996" lon="2.59420013427734">
			<ele>168.899993896484</ele>
			<time>2013-12-29T11:02:00Z</time>
		</trkpt>
		<trkpt lat="39.5759429931641" lon="2.59414958953857">
			<ele>169.300003051758</ele>
			<time>2013-12-29T11:02:03Z</time>
		</trkpt>
		<trkpt lat="39.5759887695313" lon="2.59410285949707">
			<ele>170</ele>
			<time>2013-12-29T11:02:06Z</time>
		</trkpt>
		<trkpt lat="39.576042175293" lon="2.59406137466431">
			<ele>171</ele>
			<time>2013-12-29T11:02:08Z</time>
		</trkpt>
		<trkpt lat="39.5761032104492" lon="2.59404182434082">
			<ele>171.199996948242</ele>
			<time>2013-12-29T11:02:12Z</time>
		</trkpt>
		<trkpt lat="39.5761604309082" lon="2.59403491020203">
			<ele>171.300003051758</ele>
			<time>2013-12-29T11:02:14Z</time>
		</trkpt>
		<trkpt lat="39.5762138366699" lon="2.59402513504028">
			<ele>170.699996948242</ele>
			<time>2013-12-29T11:02:18Z</time>
		</trkpt>
		<trkpt lat="39.5762710571289" lon="2.59401082992554">
			<ele>171.199996948242</ele>
			<time>2013-12-29T11:02:20Z</time>
		</trkpt>
		<trkpt lat="39.5763320922852" lon="2.59399008750916">
			<ele>171.899993896484</ele>
			<time>2013-12-29T11:02:24Z</time>
		</trkpt>
		<trkpt lat="39.5763854980469" lon="2.59397101402283">
			<ele>172.899993896484</ele>
			<time>2013-12-29T11:02:27Z</time>
		</trkpt>
		<trkpt lat="39.5764045715332" lon="2.59391593933105">
			<ele>174.5</ele>
			<time>2013-12-29T11:11:21Z</time>
		</trkpt>
		<trkpt lat="39.5764312744141" lon="2.59386730194092">
			<ele>174.699996948242</ele>
			<time>2013-12-29T11:11:30Z</time>
		</trkpt>
		<trkpt lat="39.5764770507813" lon="2.59382939338684">
			<ele>175.399993896484</ele>
			<time>2013-12-29T11:11:34Z</time>
		</trkpt>
		<trkpt lat="39.5765266418457" lon="2.5937967300415">
			<ele>175.600006103516</ele>
			<time>2013-12-29T11:11:36Z</time>
		</trkpt>
		<trkpt lat="39.5765686035156" lon="2.59374380111694">
			<ele>177.300003051758</ele>
			<time>2013-12-29T11:11:40Z</time>
		</trkpt>
		<trkpt lat="39.5766067504883" lon="2.59370017051697">
			<ele>177.899993896484</ele>
			<time>2013-12-29T11:11:43Z</time>
		</trkpt>
		<trkpt lat="39.5766487121582" lon="2.59365367889404">
			<ele>178.5</ele>
			<time>2013-12-29T11:11:46Z</time>
		</trkpt>
		<trkpt lat="39.5766830444336" lon="2.5936062335968">
			<ele>178.5</ele>
			<time>2013-12-29T11:11:48Z</time>
		</trkpt>
		<trkpt lat="39.5767211914063" lon="2.59355640411377">
			<ele>178.899993896484</ele>
			<time>2013-12-29T11:11:52Z</time>
		</trkpt>
		<trkpt lat="39.5767593383789" lon="2.59350919723511">
			<ele>179</ele>
			<time>2013-12-29T11:11:55Z</time>
		</trkpt>
		<trkpt lat="39.5767974853516" lon="2.59345889091492">
			<ele>180.300003051758</ele>
			<time>2013-12-29T11:11:58Z</time>
		</trkpt>
		<trkpt lat="39.5768165588379" lon="2.59340119361877">
			<ele>181.300003051758</ele>
			<time>2013-12-29T11:12:01Z</time>
		</trkpt>
		<trkpt lat="39.5768356323242" lon="2.59334468841553">
			<ele>181.899993896484</ele>
			<time>2013-12-29T11:12:04Z</time>
		</trkpt>
		<trkpt lat="39.5768432617188" lon="2.59327840805054">
			<ele>182.699996948242</ele>
			<time>2013-12-29T11:12:07Z</time>
		</trkpt>
		<trkpt lat="39.5768547058105" lon="2.59320211410522">
			<ele>183.5</ele>
			<time>2013-12-29T11:12:10Z</time>
		</trkpt>
		<trkpt lat="39.5768699645996" lon="2.59313988685608">
			<ele>184.399993896484</ele>
			<time>2013-12-29T11:12:13Z</time>
		</trkpt>
		<trkpt lat="39.5768890380859" lon="2.59307026863098">
			<ele>184.899993896484</ele>
			<time>2013-12-29T11:12:16Z</time>
		</trkpt>
		<trkpt lat="39.5769157409668" lon="2.59300589561462">
			<ele>185.600006103516</ele>
			<time>2013-12-29T11:12:19Z</time>
		</trkpt>
		<trkpt lat="39.576961517334" lon="2.59297370910645">
			<ele>186.100006103516</ele>
			<time>2013-12-29T11:12:22Z</time>
		</trkpt>
		<trkpt lat="39.5770072937012" lon="2.5930118560791">
			<ele>186.899993896484</ele>
			<time>2013-12-29T11:12:25Z</time>
		</trkpt>
		<trkpt lat="39.5770263671875" lon="2.59307932853699">
			<ele>187.800003051758</ele>
			<time>2013-12-29T11:12:28Z</time>
		</trkpt>
		<trkpt lat="39.5770416259766" lon="2.59315156936646">
			<ele>188</ele>
			<time>2013-12-29T11:12:31Z</time>
		</trkpt>
		<trkpt lat="39.5770606994629" lon="2.59321570396423">
			<ele>188.600006103516</ele>
			<time>2013-12-29T11:12:34Z</time>
		</trkpt>
		<trkpt lat="39.5770950317383" lon="2.59327006340027">
			<ele>188.899993896484</ele>
			<time>2013-12-29T11:12:37Z</time>
		</trkpt>
		<trkpt lat="39.5771369934082" lon="2.5933084487915">
			<ele>189.800003051758</ele>
			<time>2013-12-29T11:12:40Z</time>
		</trkpt>
		<trkpt lat="39.5771865844727" lon="2.59332537651062">
			<ele>189.800003051758</ele>
			<time>2013-12-29T11:12:43Z</time>
		</trkpt>
		<trkpt lat="39.5772438049316" lon="2.59330892562866">
			<ele>189.800003051758</ele>
			<time>2013-12-29T11:12:46Z</time>
		</trkpt>
		<trkpt lat="39.5772972106934" lon="2.59327673912048">
			<ele>191.399993896484</ele>
			<time>2013-12-29T11:12:49Z</time>
		</trkpt>
		<trkpt lat="39.577320098877" lon="2.59322071075439">
			<ele>191.899993896484</ele>
			<time>2013-12-29T11:12:52Z</time>
		</trkpt>
		<trkpt lat="39.5773315429688" lon="2.59315538406372">
			<ele>191.800003051758</ele>
			<time>2013-12-29T11:12:55Z</time>
		</trkpt>
		<trkpt lat="39.5773277282715" lon="2.59309363365173">
			<ele>191.600006103516</ele>
			<time>2013-12-29T11:12:58Z</time>
		</trkpt>
		<trkpt lat="39.5773162841797" lon="2.59302163124084">
			<ele>191.800003051758</ele>
			<time>2013-12-29T11:13:01Z</time>
		</trkpt>
		<trkpt lat="39.5773048400879" lon="2.59294939041138">
			<ele>192.899993896484</ele>
			<time>2013-12-29T11:13:04Z</time>
		</trkpt>
		<trkpt lat="39.5773010253906" lon="2.59288120269775">
			<ele>192.800003051758</ele>
			<time>2013-12-29T11:13:07Z</time>
		</trkpt>
		<trkpt lat="39.5772895812988" lon="2.59281015396118">
			<ele>193.100006103516</ele>
			<time>2013-12-29T11:13:10Z</time>
		</trkpt>
		<trkpt lat="39.5772819519043" lon="2.59274435043335">
			<ele>193.699996948242</ele>
			<time>2013-12-29T11:13:13Z</time>
		</trkpt>
		<trkpt lat="39.5772705078125" lon="2.5926775932312">
			<ele>194.199996948242</ele>
			<time>2013-12-29T11:13:16Z</time>
		</trkpt>
		<trkpt lat="39.577262878418" lon="2.59260392189026">
			<ele>195</ele>
			<time>2013-12-29T11:13:19Z</time>
		</trkpt>
		<trkpt lat="39.577262878418" lon="2.59253263473511">
			<ele>195.300003051758</ele>
			<time>2013-12-29T11:13:22Z</time>
		</trkpt>
		<trkpt lat="39.577262878418" lon="2.5924665927887">
			<ele>195.5</ele>
			<time>2013-12-29T11:13:25Z</time>
		</trkpt>
		<trkpt lat="39.5772666931152" lon="2.59239816665649">
			<ele>195.800003051758</ele>
			<time>2013-12-29T11:13:28Z</time>
		</trkpt>
		<trkpt lat="39.577278137207" lon="2.59233379364014">
			<ele>196.199996948242</ele>
			<time>2013-12-29T11:13:31Z</time>
		</trkpt>
		<trkpt lat="39.5772895812988" lon="2.5922691822052">
			<ele>196.199996948242</ele>
			<time>2013-12-29T11:13:34Z</time>
		</trkpt>
		<trkpt lat="39.5772972106934" lon="2.59220004081726">
			<ele>197.199996948242</ele>
			<time>2013-12-29T11:13:37Z</time>
		</trkpt>
		<trkpt lat="39.5773124694824" lon="2.59213256835938">
			<ele>197.100006103516</ele>
			<time>2013-12-29T11:13:40Z</time>
		</trkpt>
		<trkpt lat="39.5773315429688" lon="2.5920729637146">
			<ele>197.399993896484</ele>
			<time>2013-12-29T11:13:43Z</time>
		</trkpt>
		<trkpt lat="39.5773506164551" lon="2.59201169013977">
			<ele>197.100006103516</ele>
			<time>2013-12-29T11:13:46Z</time>
		</trkpt>
		<trkpt lat="39.5773620605469" lon="2.59194922447205">
			<ele>197.600006103516</ele>
			<time>2013-12-29T11:13:49Z</time>
		</trkpt>
		<trkpt lat="39.5773773193359" lon="2.59188342094421">
			<ele>197.399993896484</ele>
			<time>2013-12-29T11:13:52Z</time>
		</trkpt>
		<trkpt lat="39.5773887634277" lon="2.59182143211365">
			<ele>197.800003051758</ele>
			<time>2013-12-29T11:13:55Z</time>
		</trkpt>
		<trkpt lat="39.5774002075195" lon="2.59175872802734">
			<ele>198.100006103516</ele>
			<time>2013-12-29T11:13:58Z</time>
		</trkpt>
		<trkpt lat="39.5774078369141" lon="2.59169721603394">
			<ele>198.199996948242</ele>
			<time>2013-12-29T11:14:01Z</time>
		</trkpt>
		<trkpt lat="39.5774154663086" lon="2.59163665771484">
			<ele>198.300003051758</ele>
			<time>2013-12-29T11:14:04Z</time>
		</trkpt>
		<trkpt lat="39.5774269104004" lon="2.59157037734985">
			<ele>198.800003051758</ele>
			<time>2013-12-29T11:14:07Z</time>
		</trkpt>
		<trkpt lat="39.5774383544922" lon="2.59150218963623">
			<ele>198.800003051758</ele>
			<time>2013-12-29T11:14:10Z</time>
		</trkpt>
		<trkpt lat="39.5774459838867" lon="2.59143209457397">
			<ele>199.199996948242</ele>
			<time>2013-12-29T11:14:13Z</time>
		</trkpt>
		<trkpt lat="39.5774536132813" lon="2.59136462211609">
			<ele>199.699996948242</ele>
			<time>2013-12-29T11:14:16Z</time>
		</trkpt>
		<trkpt lat="39.577465057373" lon="2.59129548072815">
			<ele>200.199996948242</ele>
			<time>2013-12-29T11:14:19Z</time>
		</trkpt>
		<trkpt lat="39.5774726867676" lon="2.59122514724731">
			<ele>200.300003051758</ele>
			<time>2013-12-29T11:14:22Z</time>
		</trkpt>
		<trkpt lat="39.5774841308594" lon="2.59115862846375">
			<ele>200.699996948242</ele>
			<time>2013-12-29T11:14:25Z</time>
		</trkpt>
		<trkpt lat="39.5774993896484" lon="2.59109330177307">
			<ele>201</ele>
			<time>2013-12-29T11:14:28Z</time>
		</trkpt>
		<trkpt lat="39.5775146484375" lon="2.59102606773376">
			<ele>201.600006103516</ele>
			<time>2013-12-29T11:14:31Z</time>
		</trkpt>
		<trkpt lat="39.5775337219238" lon="2.59095907211304">
			<ele>201.800003051758</ele>
			<time>2013-12-29T11:14:34Z</time>
		</trkpt>
		<trkpt lat="39.5775604248047" lon="2.59089875221252">
			<ele>201.800003051758</ele>
			<time>2013-12-29T11:14:37Z</time>
		</trkpt>
		<trkpt lat="39.5775947570801" lon="2.59084177017212">
			<ele>202.5</ele>
			<time>2013-12-29T11:14:40Z</time>
		</trkpt>
		<trkpt lat="39.5776290893555" lon="2.59079313278198">
			<ele>202.5</ele>
			<time>2013-12-29T11:14:43Z</time>
		</trkpt>
		<trkpt lat="39.5776634216309" lon="2.59074091911316">
			<ele>202.800003051758</ele>
			<time>2013-12-29T11:14:46Z</time>
		</trkpt>
		<trkpt lat="39.577693939209" lon="2.59068655967712">
			<ele>202.899993896484</ele>
			<time>2013-12-29T11:14:49Z</time>
		</trkpt>
		<trkpt lat="39.5777320861816" lon="2.59063458442688">
			<ele>203.199996948242</ele>
			<time>2013-12-29T11:14:52Z</time>
		</trkpt>
		<trkpt lat="39.577766418457" lon="2.59057784080505">
			<ele>203</ele>
			<time>2013-12-29T11:14:55Z</time>
		</trkpt>
		<trkpt lat="39.5777969360352" lon="2.59052062034607">
			<ele>203.199996948242</ele>
			<time>2013-12-29T11:14:58Z</time>
		</trkpt>
		<trkpt lat="39.5778465270996" lon="2.59044528007507">
			<ele>203.5</ele>
			<time>2013-12-29T11:15:01Z</time>
		</trkpt>
		<trkpt lat="39.577880859375" lon="2.59038352966309">
			<ele>203.699996948242</ele>
			<time>2013-12-29T11:15:05Z</time>
		</trkpt>
		<trkpt lat="39.5779190063477" lon="2.59032583236694">
			<ele>203.600006103516</ele>
			<time>2013-12-29T11:15:08Z</time>
		</trkpt>
		<trkpt lat="39.577953338623" lon="2.59027147293091">
			<ele>203.800003051758</ele>
			<time>2013-12-29T11:15:11Z</time>
		</trkpt>
		<trkpt lat="39.577995300293" lon="2.59021711349487">
			<ele>203.100006103516</ele>
			<time>2013-12-29T11:15:14Z</time>
		</trkpt>
		<trkpt lat="39.5780258178711" lon="2.59015464782715">
			<ele>203.199996948242</ele>
			<time>2013-12-29T11:15:17Z</time>
		</trkpt>
		<trkpt lat="39.578067779541" lon="2.59009909629822">
			<ele>203</ele>
			<time>2013-12-29T11:15:20Z</time>
		</trkpt>
		<trkpt lat="39.5780982971191" lon="2.59005546569824">
			<ele>203.100006103516</ele>
			<time>2013-12-29T11:15:22Z</time>
		</trkpt>
		<trkpt lat="39.5781440734863" lon="2.58999156951904">
			<ele>202.699996948242</ele>
			<time>2013-12-29T11:15:25Z</time>
		</trkpt>
		<trkpt lat="39.5781707763672" lon="2.58993983268738">
			<ele>202.699996948242</ele>
			<time>2013-12-29T11:15:27Z</time>
		</trkpt>
		<trkpt lat="39.5782089233398" lon="2.58988428115845">
			<ele>202.699996948242</ele>
			<time>2013-12-29T11:15:29Z</time>
		</trkpt>
		<trkpt lat="39.5782508850098" lon="2.58982133865356">
			<ele>202.699996948242</ele>
			<time>2013-12-29T11:15:31Z</time>
		</trkpt>
		<trkpt lat="39.5782852172852" lon="2.5897524356842">
			<ele>202.300003051758</ele>
			<time>2013-12-29T11:15:33Z</time>
		</trkpt>
		<trkpt lat="39.5783233642578" lon="2.58966207504272">
			<ele>202.199996948242</ele>
			<time>2013-12-29T11:15:35Z</time>
		</trkpt>
		<trkpt lat="39.5783576965332" lon="2.58956670761108">
			<ele>202</ele>
			<time>2013-12-29T11:15:37Z</time>
		</trkpt>
		<trkpt lat="39.5783882141113" lon="2.58946943283081">
			<ele>201.899993896484</ele>
			<time>2013-12-29T11:15:39Z</time>
		</trkpt>
		<trkpt lat="39.578426361084" lon="2.5893714427948">
			<ele>201.800003051758</ele>
			<time>2013-12-29T11:15:41Z</time>
		</trkpt>
		<trkpt lat="39.5784645080566" lon="2.58927369117737">
			<ele>201.399993896484</ele>
			<time>2013-12-29T11:15:43Z</time>
		</trkpt>
		<trkpt lat="39.578498840332" lon="2.58917331695557">
			<ele>201.100006103516</ele>
			<time>2013-12-29T11:15:45Z</time>
		</trkpt>
		<trkpt lat="39.5785369873047" lon="2.5890736579895">
			<ele>201</ele>
			<time>2013-12-29T11:15:47Z</time>
		</trkpt>
		<trkpt lat="39.5785751342773" lon="2.58897662162781">
			<ele>200.899993896484</ele>
			<time>2013-12-29T11:15:49Z</time>
		</trkpt>
		<trkpt lat="39.5786094665527" lon="2.58888077735901">
			<ele>200.600006103516</ele>
			<time>2013-12-29T11:15:51Z</time>
		</trkpt>
		<trkpt lat="39.5786437988281" lon="2.58878302574158">
			<ele>200.600006103516</ele>
			<time>2013-12-29T11:15:53Z</time>
		</trkpt>
		<trkpt lat="39.5786781311035" lon="2.58869361877441">
			<ele>200.800003051758</ele>
			<time>2013-12-29T11:15:55Z</time>
		</trkpt>
		<trkpt lat="39.5787162780762" lon="2.58860206604004">
			<ele>201</ele>
			<time>2013-12-29T11:15:57Z</time>
		</trkpt>
		<trkpt lat="39.5787467956543" lon="2.58850717544556">
			<ele>201.199996948242</ele>
			<time>2013-12-29T11:15:59Z</time>
		</trkpt>
		<trkpt lat="39.578784942627" lon="2.58841490745544">
			<ele>200.899993896484</ele>
			<time>2013-12-29T11:16:01Z</time>
		</trkpt>
		<trkpt lat="39.5788192749023" lon="2.58832335472107">
			<ele>200.899993896484</ele>
			<time>2013-12-29T11:16:03Z</time>
		</trkpt>
		<trkpt lat="39.5788497924805" lon="2.58823108673096">
			<ele>200.899993896484</ele>
			<time>2013-12-29T11:16:05Z</time>
		</trkpt>
		<trkpt lat="39.5788841247559" lon="2.58814406394958">
			<ele>200.699996948242</ele>
			<time>2013-12-29T11:16:07Z</time>
		</trkpt>
		<trkpt lat="39.5789222717285" lon="2.58806133270264">
			<ele>200.800003051758</ele>
			<time>2013-12-29T11:16:09Z</time>
		</trkpt>
		<trkpt lat="39.5789527893066" lon="2.58798408508301">
			<ele>200.699996948242</ele>
			<time>2013-12-29T11:16:11Z</time>
		</trkpt>
		<trkpt lat="39.5789833068848" lon="2.58791065216064">
			<ele>200.399993896484</ele>
			<time>2013-12-29T11:16:13Z</time>
		</trkpt>
		<trkpt lat="39.5790138244629" lon="2.58784008026123">
			<ele>200.600006103516</ele>
			<time>2013-12-29T11:16:15Z</time>
		</trkpt>
		<trkpt lat="39.579044342041" lon="2.58777499198914">
			<ele>201.100006103516</ele>
			<time>2013-12-29T11:16:17Z</time>
		</trkpt>
		<trkpt lat="39.5790748596191" lon="2.58770847320557">
			<ele>201.199996948242</ele>
			<time>2013-12-29T11:16:19Z</time>
		</trkpt>
		<trkpt lat="39.5791015625" lon="2.58764362335205">
			<ele>201.699996948242</ele>
			<time>2013-12-29T11:16:21Z</time>
		</trkpt>
		<trkpt lat="39.5791282653809" lon="2.58757853507996">
			<ele>202</ele>
			<time>2013-12-29T11:16:23Z</time>
		</trkpt>
		<trkpt lat="39.5791549682617" lon="2.58752107620239">
			<ele>202.399993896484</ele>
			<time>2013-12-29T11:16:25Z</time>
		</trkpt>
		<trkpt lat="39.5791778564453" lon="2.58746600151062">
			<ele>202.300003051758</ele>
			<time>2013-12-29T11:16:27Z</time>
		</trkpt>
		<trkpt lat="39.5791931152344" lon="2.58740735054016">
			<ele>202.399993896484</ele>
			<time>2013-12-29T11:16:29Z</time>
		</trkpt>
		<trkpt lat="39.5792045593262" lon="2.58734536170959">
			<ele>202.699996948242</ele>
			<time>2013-12-29T11:16:31Z</time>
		</trkpt>
		<trkpt lat="39.5792121887207" lon="2.5872585773468">
			<ele>202.699996948242</ele>
			<time>2013-12-29T11:16:34Z</time>
		</trkpt>
		<trkpt lat="39.5792121887207" lon="2.58719801902771">
			<ele>202.800003051758</ele>
			<time>2013-12-29T11:16:36Z</time>
		</trkpt>
		<trkpt lat="39.5792121887207" lon="2.58711194992065">
			<ele>203.199996948242</ele>
			<time>2013-12-29T11:16:39Z</time>
		</trkpt>
		<trkpt lat="39.579216003418" lon="2.5870304107666">
			<ele>203.399993896484</ele>
			<time>2013-12-29T11:16:42Z</time>
		</trkpt>
		<trkpt lat="39.5792198181152" lon="2.58695530891418">
			<ele>203.800003051758</ele>
			<time>2013-12-29T11:16:45Z</time>
		</trkpt>
		<trkpt lat="39.5792274475098" lon="2.58687353134155">
			<ele>204.600006103516</ele>
			<time>2013-12-29T11:16:48Z</time>
		</trkpt>
		<trkpt lat="39.579231262207" lon="2.58679795265198">
			<ele>204.899993896484</ele>
			<time>2013-12-29T11:16:51Z</time>
		</trkpt>
		<trkpt lat="39.5792350769043" lon="2.58672308921814">
			<ele>205.399993896484</ele>
			<time>2013-12-29T11:16:54Z</time>
		</trkpt>
		<trkpt lat="39.5792427062988" lon="2.58664894104004">
			<ele>205.699996948242</ele>
			<time>2013-12-29T11:16:56Z</time>
		</trkpt>
		<trkpt lat="39.5792541503906" lon="2.58657455444336">
			<ele>206</ele>
			<time>2013-12-29T11:17:00Z</time>
		</trkpt>
		<trkpt lat="39.5792655944824" lon="2.58649563789368">
			<ele>206.600006103516</ele>
			<time>2013-12-29T11:17:02Z</time>
		</trkpt>
		<trkpt lat="39.579273223877" lon="2.58643889427185">
			<ele>206.699996948242</ele>
			<time>2013-12-29T11:17:04Z</time>
		</trkpt>
		<trkpt lat="39.579288482666" lon="2.58635926246643">
			<ele>207.399993896484</ele>
			<time>2013-12-29T11:17:08Z</time>
		</trkpt>
		<trkpt lat="39.5793037414551" lon="2.58628177642822">
			<ele>207.600006103516</ele>
			<time>2013-12-29T11:17:11Z</time>
		</trkpt>
		<trkpt lat="39.5793190002441" lon="2.58620262145996">
			<ele>208</ele>
			<time>2013-12-29T11:17:14Z</time>
		</trkpt>
		<trkpt lat="39.5793380737305" lon="2.5861279964447">
			<ele>208</ele>
			<time>2013-12-29T11:17:17Z</time>
		</trkpt>
		<trkpt lat="39.5793571472168" lon="2.58606052398682">
			<ele>208.100006103516</ele>
			<time>2013-12-29T11:17:20Z</time>
		</trkpt>
		<trkpt lat="39.5793800354004" lon="2.58599734306335">
			<ele>208.5</ele>
			<time>2013-12-29T11:17:22Z</time>
		</trkpt>
		<trkpt lat="39.5793991088867" lon="2.58593392372131">
			<ele>208.800003051758</ele>
			<time>2013-12-29T11:17:26Z</time>
		</trkpt>
		<trkpt lat="39.579418182373" lon="2.58586359024048">
			<ele>208.899993896484</ele>
			<time>2013-12-29T11:17:29Z</time>
		</trkpt>
		<trkpt lat="39.5794410705566" lon="2.58579897880554">
			<ele>209.100006103516</ele>
			<time>2013-12-29T11:17:32Z</time>
		</trkpt>
		<trkpt lat="39.5794677734375" lon="2.58573222160339">
			<ele>209.399993896484</ele>
			<time>2013-12-29T11:17:35Z</time>
		</trkpt>
		<trkpt lat="39.5794944763184" lon="2.58567118644714">
			<ele>209.899993896484</ele>
			<time>2013-12-29T11:17:38Z</time>
		</trkpt>
		<trkpt lat="39.5795135498047" lon="2.58561325073242">
			<ele>210.5</ele>
			<time>2013-12-29T11:17:40Z</time>
		</trkpt>
		<trkpt lat="39.579532623291" lon="2.58555603027344">
			<ele>210.800003051758</ele>
			<time>2013-12-29T11:17:44Z</time>
		</trkpt>
		<trkpt lat="39.5795593261719" lon="2.58548736572266">
			<ele>211.5</ele>
			<time>2013-12-29T11:17:46Z</time>
		</trkpt>
		<trkpt lat="39.5795822143555" lon="2.58542418479919">
			<ele>211.199996948242</ele>
			<time>2013-12-29T11:17:50Z</time>
		</trkpt>
		<trkpt lat="39.5796051025391" lon="2.58536982536316">
			<ele>211.5</ele>
			<time>2013-12-29T11:17:52Z</time>
		</trkpt>
		<trkpt lat="39.5796279907227" lon="2.5853066444397">
			<ele>211.600006103516</ele>
			<time>2013-12-29T11:17:56Z</time>
		</trkpt>
		<trkpt lat="39.5796546936035" lon="2.58524441719055">
			<ele>211.899993896484</ele>
			<time>2013-12-29T11:17:58Z</time>
		</trkpt>
		<trkpt lat="39.5796775817871" lon="2.5851788520813">
			<ele>212.5</ele>
			<time>2013-12-29T11:18:02Z</time>
		</trkpt>
		<trkpt lat="39.5797004699707" lon="2.58512544631958">
			<ele>213.100006103516</ele>
			<time>2013-12-29T11:18:04Z</time>
		</trkpt>
		<trkpt lat="39.579719543457" lon="2.5850625038147">
			<ele>213.399993896484</ele>
			<time>2013-12-29T11:18:08Z</time>
		</trkpt>
		<trkpt lat="39.5797386169434" lon="2.58500409126282">
			<ele>213.800003051758</ele>
			<time>2013-12-29T11:18:10Z</time>
		</trkpt>
		<trkpt lat="39.579761505127" lon="2.58494400978088">
			<ele>214.199996948242</ele>
			<time>2013-12-29T11:18:14Z</time>
		</trkpt>
		<trkpt lat="39.5797843933105" lon="2.58487868309021">
			<ele>214.5</ele>
			<time>2013-12-29T11:18:16Z</time>
		</trkpt>
		<trkpt lat="39.5798072814941" lon="2.58481693267822">
			<ele>215.300003051758</ele>
			<time>2013-12-29T11:18:20Z</time>
		</trkpt>
		<trkpt lat="39.5798301696777" lon="2.58475136756897">
			<ele>215.600006103516</ele>
			<time>2013-12-29T11:18:22Z</time>
		</trkpt>
		<trkpt lat="39.5798530578613" lon="2.58468890190125">
			<ele>215.800003051758</ele>
			<time>2013-12-29T11:18:26Z</time>
		</trkpt>
		<trkpt lat="39.5798759460449" lon="2.58462810516357">
			<ele>215.800003051758</ele>
			<time>2013-12-29T11:18:28Z</time>
		</trkpt>
		<trkpt lat="39.5798950195313" lon="2.5845673084259">
			<ele>215.899993896484</ele>
			<time>2013-12-29T11:18:32Z</time>
		</trkpt>
		<trkpt lat="39.5799179077148" lon="2.58450412750244">
			<ele>216.199996948242</ele>
			<time>2013-12-29T11:18:34Z</time>
		</trkpt>
		<trkpt lat="39.5799407958984" lon="2.58444666862488">
			<ele>216.399993896484</ele>
			<time>2013-12-29T11:18:38Z</time>
		</trkpt>
		<trkpt lat="39.5799598693848" lon="2.58438968658447">
			<ele>216.800003051758</ele>
			<time>2013-12-29T11:18:41Z</time>
		</trkpt>
		<trkpt lat="39.5799789428711" lon="2.58433103561401">
			<ele>217</ele>
			<time>2013-12-29T11:18:44Z</time>
		</trkpt>
		<trkpt lat="39.5800018310547" lon="2.58426737785339">
			<ele>217.399993896484</ele>
			<time>2013-12-29T11:18:46Z</time>
		</trkpt>
		<trkpt lat="39.580020904541" lon="2.58420205116272">
			<ele>217.699996948242</ele>
			<time>2013-12-29T11:18:50Z</time>
		</trkpt>
		<trkpt lat="39.5800437927246" lon="2.58413767814636">
			<ele>218</ele>
			<time>2013-12-29T11:18:52Z</time>
		</trkpt>
		<trkpt lat="39.5800704956055" lon="2.58407211303711">
			<ele>218.5</ele>
			<time>2013-12-29T11:18:56Z</time>
		</trkpt>
		<trkpt lat="39.5801010131836" lon="2.58401465415955">
			<ele>218.800003051758</ele>
			<time>2013-12-29T11:18:58Z</time>
		</trkpt>
		<trkpt lat="39.5801391601563" lon="2.58396530151367">
			<ele>219.199996948242</ele>
			<time>2013-12-29T11:19:02Z</time>
		</trkpt>
		<trkpt lat="39.5801773071289" lon="2.58392190933228">
			<ele>218.699996948242</ele>
			<time>2013-12-29T11:19:04Z</time>
		</trkpt>
		<trkpt lat="39.5802230834961" lon="2.58388710021973">
			<ele>217.899993896484</ele>
			<time>2013-12-29T11:19:08Z</time>
		</trkpt>
		<trkpt lat="39.5802764892578" lon="2.58387279510498">
			<ele>218.100006103516</ele>
			<time>2013-12-29T11:19:10Z</time>
		</trkpt>
		<trkpt lat="39.5803337097168" lon="2.5838611125946">
			<ele>218.199996948242</ele>
			<time>2013-12-29T11:19:14Z</time>
		</trkpt>
		<trkpt lat="39.5803871154785" lon="2.5838508605957">
			<ele>218.699996948242</ele>
			<time>2013-12-29T11:19:16Z</time>
		</trkpt>
		<trkpt lat="39.5804443359375" lon="2.58385348320007">
			<ele>219.100006103516</ele>
			<time>2013-12-29T11:19:20Z</time>
		</trkpt>
		<trkpt lat="39.5805015563965" lon="2.5838463306427">
			<ele>219.600006103516</ele>
			<time>2013-12-29T11:19:22Z</time>
		</trkpt>
		<trkpt lat="39.5805587768555" lon="2.58383822441101">
			<ele>219.800003051758</ele>
			<time>2013-12-29T11:19:26Z</time>
		</trkpt>
		<trkpt lat="39.5806159973145" lon="2.5838303565979">
			<ele>220.199996948242</ele>
			<time>2013-12-29T11:19:29Z</time>
		</trkpt>
		<trkpt lat="39.5806694030762" lon="2.58381199836731">
			<ele>220.699996948242</ele>
			<time>2013-12-29T11:19:32Z</time>
		</trkpt>
		<trkpt lat="39.5807228088379" lon="2.58378839492798">
			<ele>221</ele>
			<time>2013-12-29T11:19:34Z</time>
		</trkpt>
		<trkpt lat="39.5807609558105" lon="2.58375477790833">
			<ele>221.100006103516</ele>
			<time>2013-12-29T11:19:38Z</time>
		</trkpt>
		<trkpt lat="39.580810546875" lon="2.58371424674988">
			<ele>221.699996948242</ele>
			<time>2013-12-29T11:19:40Z</time>
		</trkpt>
		<trkpt lat="39.5808486938477" lon="2.583664894104">
			<ele>222.600006103516</ele>
			<time>2013-12-29T11:19:44Z</time>
		</trkpt>
		<trkpt lat="39.5808410644531" lon="2.58360290527344">
			<ele>222.100006103516</ele>
			<time>2013-12-29T11:22:50Z</time>
		</trkpt>
		<trkpt lat="39.5808525085449" lon="2.58353114128113">
			<ele>222.5</ele>
			<time>2013-12-29T11:22:53Z</time>
		</trkpt>
		<trkpt lat="39.5808563232422" lon="2.58344388008118">
			<ele>223.300003051758</ele>
			<time>2013-12-29T11:22:56Z</time>
		</trkpt>
		<trkpt lat="39.5808601379395" lon="2.58336067199707">
			<ele>223.899993896484</ele>
			<time>2013-12-29T11:22:59Z</time>
		</trkpt>
		<trkpt lat="39.5808601379395" lon="2.58327770233154">
			<ele>225.800003051758</ele>
			<time>2013-12-29T11:23:02Z</time>
		</trkpt>
		<trkpt lat="39.5808753967285" lon="2.58320331573486">
			<ele>225.100006103516</ele>
			<time>2013-12-29T11:23:05Z</time>
		</trkpt>
		<trkpt lat="39.580883026123" lon="2.5831241607666">
			<ele>225.699996948242</ele>
			<time>2013-12-29T11:23:08Z</time>
		</trkpt>
		<trkpt lat="39.580883026123" lon="2.5830512046814">
			<ele>228.100006103516</ele>
			<time>2013-12-29T11:23:11Z</time>
		</trkpt>
		<trkpt lat="39.5808944702148" lon="2.5829770565033">
			<ele>228.399993896484</ele>
			<time>2013-12-29T11:23:14Z</time>
		</trkpt>
		<trkpt lat="39.5809020996094" lon="2.58289909362793">
			<ele>228.800003051758</ele>
			<time>2013-12-29T11:23:17Z</time>
		</trkpt>
		<trkpt lat="39.5809326171875" lon="2.58282732963562">
			<ele>224.399993896484</ele>
			<time>2013-12-29T11:23:20Z</time>
		</trkpt>
		<trkpt lat="39.5809288024902" lon="2.58275365829468">
			<ele>226.600006103516</ele>
			<time>2013-12-29T11:23:23Z</time>
		</trkpt>
		<trkpt lat="39.5809364318848" lon="2.58267998695374">
			<ele>227.5</ele>
			<time>2013-12-29T11:23:26Z</time>
		</trkpt>
		<trkpt lat="39.580940246582" lon="2.58261060714722">
			<ele>229.100006103516</ele>
			<time>2013-12-29T11:23:29Z</time>
		</trkpt>
		<trkpt lat="39.5809516906738" lon="2.58254408836365">
			<ele>230.300003051758</ele>
			<time>2013-12-29T11:23:32Z</time>
		</trkpt>
		<trkpt lat="39.5809516906738" lon="2.5824728012085">
			<ele>231</ele>
			<time>2013-12-29T11:23:35Z</time>
		</trkpt>
		<trkpt lat="39.5809555053711" lon="2.58240842819214">
			<ele>231.100006103516</ele>
			<time>2013-12-29T11:23:38Z</time>
		</trkpt>
		<trkpt lat="39.5809593200684" lon="2.58233332633972">
			<ele>231.600006103516</ele>
			<time>2013-12-29T11:23:41Z</time>
		</trkpt>
		<trkpt lat="39.5809669494629" lon="2.58226847648621">
			<ele>232</ele>
			<time>2013-12-29T11:23:44Z</time>
		</trkpt>
		<trkpt lat="39.5809745788574" lon="2.58220291137695">
			<ele>232.899993896484</ele>
			<time>2013-12-29T11:23:47Z</time>
		</trkpt>
		<trkpt lat="39.5809745788574" lon="2.58213543891907">
			<ele>233.699996948242</ele>
			<time>2013-12-29T11:23:50Z</time>
		</trkpt>
		<trkpt lat="39.580982208252" lon="2.58206343650818">
			<ele>235.100006103516</ele>
			<time>2013-12-29T11:23:53Z</time>
		</trkpt>
		<trkpt lat="39.5809860229492" lon="2.58198356628418">
			<ele>235.800003051758</ele>
			<time>2013-12-29T11:23:56Z</time>
		</trkpt>
		<trkpt lat="39.5809898376465" lon="2.58191227912903">
			<ele>236.100006103516</ele>
			<time>2013-12-29T11:23:59Z</time>
		</trkpt>
		<trkpt lat="39.5809936523438" lon="2.58183693885803">
			<ele>235.899993896484</ele>
			<time>2013-12-29T11:24:02Z</time>
		</trkpt>
		<trkpt lat="39.5809936523438" lon="2.58176302909851">
			<ele>236.899993896484</ele>
			<time>2013-12-29T11:24:05Z</time>
		</trkpt>
		<trkpt lat="39.580997467041" lon="2.58169722557068">
			<ele>237.5</ele>
			<time>2013-12-29T11:24:08Z</time>
		</trkpt>
		<trkpt lat="39.580997467041" lon="2.58163523674011">
			<ele>238.199996948242</ele>
			<time>2013-12-29T11:24:11Z</time>
		</trkpt>
		<trkpt lat="39.580997467041" lon="2.58157086372375">
			<ele>238.800003051758</ele>
			<time>2013-12-29T11:24:14Z</time>
		</trkpt>
		<trkpt lat="39.5810012817383" lon="2.58150577545166">
			<ele>239.199996948242</ele>
			<time>2013-12-29T11:24:17Z</time>
		</trkpt>
		<trkpt lat="39.5810050964355" lon="2.58144187927246">
			<ele>240.5</ele>
			<time>2013-12-29T11:24:20Z</time>
		</trkpt>
		<trkpt lat="39.5810089111328" lon="2.58137798309326">
			<ele>239.800003051758</ele>
			<time>2013-12-29T11:24:23Z</time>
		</trkpt>
		<trkpt lat="39.5810127258301" lon="2.58131289482117">
			<ele>240.100006103516</ele>
			<time>2013-12-29T11:24:26Z</time>
		</trkpt>
		<trkpt lat="39.5810089111328" lon="2.58125066757202">
			<ele>241</ele>
			<time>2013-12-29T11:24:29Z</time>
		</trkpt>
		<trkpt lat="39.5810089111328" lon="2.58118915557861">
			<ele>241.600006103516</ele>
			<time>2013-12-29T11:24:32Z</time>
		</trkpt>
		<trkpt lat="39.5809936523438" lon="2.58112406730652">
			<ele>242.5</ele>
			<time>2013-12-29T11:24:35Z</time>
		</trkpt>
		<trkpt lat="39.5809898376465" lon="2.58106565475464">
			<ele>242.899993896484</ele>
			<time>2013-12-29T11:24:38Z</time>
		</trkpt>
		<trkpt lat="39.5809783935547" lon="2.58100485801697">
			<ele>243.399993896484</ele>
			<time>2013-12-29T11:24:41Z</time>
		</trkpt>
		<trkpt lat="39.5809631347656" lon="2.5809440612793">
			<ele>243.100006103516</ele>
			<time>2013-12-29T11:24:44Z</time>
		</trkpt>
		<trkpt lat="39.5809440612793" lon="2.58087754249573">
			<ele>243.699996948242</ele>
			<time>2013-12-29T11:24:47Z</time>
		</trkpt>
		<trkpt lat="39.5809326171875" lon="2.58081412315369">
			<ele>244.199996948242</ele>
			<time>2013-12-29T11:24:51Z</time>
		</trkpt>
		<trkpt lat="39.5809288024902" lon="2.58075404167175">
			<ele>243.100006103516</ele>
			<time>2013-12-29T11:24:54Z</time>
		</trkpt>
		<trkpt lat="39.5809173583984" lon="2.58068919181824">
			<ele>243.699996948242</ele>
			<time>2013-12-29T11:24:57Z</time>
		</trkpt>
		<trkpt lat="39.5808944702148" lon="2.58062696456909">
			<ele>245.100006103516</ele>
			<time>2013-12-29T11:25:00Z</time>
		</trkpt>
		<trkpt lat="39.5808944702148" lon="2.58055877685547">
			<ele>243.899993896484</ele>
			<time>2013-12-29T11:25:02Z</time>
		</trkpt>
		<trkpt lat="39.5808792114258" lon="2.58048510551453">
			<ele>246.5</ele>
			<time>2013-12-29T11:25:06Z</time>
		</trkpt>
		<trkpt lat="39.5808715820313" lon="2.5804181098938">
			<ele>247.300003051758</ele>
			<time>2013-12-29T11:25:08Z</time>
		</trkpt>
		<trkpt lat="39.580867767334" lon="2.58035063743591">
			<ele>247.800003051758</ele>
			<time>2013-12-29T11:25:12Z</time>
		</trkpt>
		<trkpt lat="39.5808486938477" lon="2.58028984069824">
			<ele>248.800003051758</ele>
			<time>2013-12-29T11:25:14Z</time>
		</trkpt>
		<trkpt lat="39.5808410644531" lon="2.58022522926331">
			<ele>248</ele>
			<time>2013-12-29T11:25:18Z</time>
		</trkpt>
		<trkpt lat="39.5808372497559" lon="2.5801522731781">
			<ele>248.199996948242</ele>
			<time>2013-12-29T11:25:20Z</time>
		</trkpt>
		<trkpt lat="39.5808296203613" lon="2.58009123802185">
			<ele>248.5</ele>
			<time>2013-12-29T11:25:24Z</time>
		</trkpt>
		<trkpt lat="39.5808258056641" lon="2.58002114295959">
			<ele>248.699996948242</ele>
			<time>2013-12-29T11:25:26Z</time>
		</trkpt>
		<trkpt lat="39.5808258056641" lon="2.57995057106018">
			<ele>250</ele>
			<time>2013-12-29T11:25:30Z</time>
		</trkpt>
		<trkpt lat="39.5808258056641" lon="2.57988429069519">
			<ele>250.100006103516</ele>
			<time>2013-12-29T11:25:32Z</time>
		</trkpt>
		<trkpt lat="39.5808296203613" lon="2.57981562614441">
			<ele>250.600006103516</ele>
			<time>2013-12-29T11:25:36Z</time>
		</trkpt>
		<trkpt lat="39.5808296203613" lon="2.57974696159363">
			<ele>250.600006103516</ele>
			<time>2013-12-29T11:25:38Z</time>
		</trkpt>
		<trkpt lat="39.5808334350586" lon="2.57968592643738">
			<ele>251.600006103516</ele>
			<time>2013-12-29T11:25:42Z</time>
		</trkpt>
		<trkpt lat="39.5808372497559" lon="2.5796217918396">
			<ele>251.199996948242</ele>
			<time>2013-12-29T11:25:45Z</time>
		</trkpt>
		<trkpt lat="39.5808410644531" lon="2.5795590877533">
			<ele>252</ele>
			<time>2013-12-29T11:25:48Z</time>
		</trkpt>
		<trkpt lat="39.5808334350586" lon="2.57949447631836">
			<ele>252.600006103516</ele>
			<time>2013-12-29T11:25:50Z</time>
		</trkpt>
		<trkpt lat="39.5808296203613" lon="2.57943344116211">
			<ele>251.899993896484</ele>
			<time>2013-12-29T11:25:54Z</time>
		</trkpt>
		<trkpt lat="39.5808219909668" lon="2.57937145233154">
			<ele>250.800003051758</ele>
			<time>2013-12-29T11:29:31Z</time>
		</trkpt>
		<trkpt lat="39.5807876586914" lon="2.57929444313049">
			<ele>250.199996948242</ele>
			<time>2013-12-29T11:29:35Z</time>
		</trkpt>
		<trkpt lat="39.5807647705078" lon="2.57922554016113">
			<ele>249.5</ele>
			<time>2013-12-29T11:29:39Z</time>
		</trkpt>
		<trkpt lat="39.580753326416" lon="2.57916021347046">
			<ele>246.600006103516</ele>
			<time>2013-12-29T11:29:41Z</time>
		</trkpt>
		<trkpt lat="39.5807228088379" lon="2.57910656929016">
			<ele>249.300003051758</ele>
			<time>2013-12-29T11:29:43Z</time>
		</trkpt>
		<trkpt lat="39.5806999206543" lon="2.57903361320496">
			<ele>246.699996948242</ele>
			<time>2013-12-29T11:29:47Z</time>
		</trkpt>
		<trkpt lat="39.5806770324707" lon="2.57896852493286">
			<ele>245.399993896484</ele>
			<time>2013-12-29T11:29:49Z</time>
		</trkpt>
		<trkpt lat="39.5806465148926" lon="2.5788996219635">
			<ele>244.899993896484</ele>
			<time>2013-12-29T11:29:53Z</time>
		</trkpt>
		<trkpt lat="39.5806159973145" lon="2.57885241508484">
			<ele>246</ele>
			<time>2013-12-29T11:29:55Z</time>
		</trkpt>
		<trkpt lat="39.5805778503418" lon="2.57879281044006">
			<ele>247.600006103516</ele>
			<time>2013-12-29T11:29:57Z</time>
		</trkpt>
		<trkpt lat="39.5805282592773" lon="2.5787353515625">
			<ele>248.800003051758</ele>
			<time>2013-12-29T11:30:01Z</time>
		</trkpt>
		<trkpt lat="39.5804748535156" lon="2.578688621521">
			<ele>251</ele>
			<time>2013-12-29T11:30:03Z</time>
		</trkpt>
		<trkpt lat="39.5804290771484" lon="2.57864665985107">
			<ele>250.800003051758</ele>
			<time>2013-12-29T11:30:07Z</time>
		</trkpt>
		<trkpt lat="39.580379486084" lon="2.57861089706421">
			<ele>252.199996948242</ele>
			<time>2013-12-29T11:30:09Z</time>
		</trkpt>
		<trkpt lat="39.5803260803223" lon="2.57857942581177">
			<ele>253.699996948242</ele>
			<time>2013-12-29T11:30:13Z</time>
		</trkpt>
		<trkpt lat="39.5802803039551" lon="2.578537940979">
			<ele>253.100006103516</ele>
			<time>2013-12-29T11:30:15Z</time>
		</trkpt>
		<trkpt lat="39.5802612304688" lon="2.57846641540527">
			<ele>253.300003051758</ele>
			<time>2013-12-29T11:30:19Z</time>
		</trkpt>
		<trkpt lat="39.5802726745605" lon="2.57839608192444">
			<ele>254.899993896484</ele>
			<time>2013-12-29T11:30:21Z</time>
		</trkpt>
		<trkpt lat="39.5803184509277" lon="2.57836413383484">
			<ele>256.100006103516</ele>
			<time>2013-12-29T11:30:25Z</time>
		</trkpt>
		<trkpt lat="39.5803871154785" lon="2.57834243774414">
			<ele>256.700012207031</ele>
			<time>2013-12-29T11:30:28Z</time>
		</trkpt>
		<trkpt lat="39.5804443359375" lon="2.57835698127747">
			<ele>256.700012207031</ele>
			<time>2013-12-29T11:30:29Z</time>
		</trkpt>
		<trkpt lat="39.5805015563965" lon="2.57836079597473">
			<ele>255.100006103516</ele>
			<time>2013-12-29T11:30:32Z</time>
		</trkpt>
		<trkpt lat="39.5805549621582" lon="2.57835102081299">
			<ele>257.399993896484</ele>
			<time>2013-12-29T11:30:36Z</time>
		</trkpt>
		<trkpt lat="39.5806083679199" lon="2.57835125923157">
			<ele>258.200012207031</ele>
			<time>2013-12-29T11:30:39Z</time>
		</trkpt>
		<trkpt lat="39.5806541442871" lon="2.57834076881409">
			<ele>258.600006103516</ele>
			<time>2013-12-29T11:30:41Z</time>
		</trkpt>
		<trkpt lat="39.580696105957" lon="2.57831573486328">
			<ele>258.600006103516</ele>
			<time>2013-12-29T11:30:43Z</time>
		</trkpt>
		<trkpt lat="39.5807418823242" lon="2.57827854156494">
			<ele>259.299987792969</ele>
			<time>2013-12-29T11:30:47Z</time>
		</trkpt>
		<trkpt lat="39.5807495117188" lon="2.578204870224">
			<ele>262</ele>
			<time>2013-12-29T11:30:50Z</time>
		</trkpt>
		<trkpt lat="39.5807228088379" lon="2.57813405990601">
			<ele>263.799987792969</ele>
			<time>2013-12-29T11:30:54Z</time>
		</trkpt>
		<trkpt lat="39.5806694030762" lon="2.57811522483826">
			<ele>262.200012207031</ele>
			<time>2013-12-29T11:30:56Z</time>
		</trkpt>
		<trkpt lat="39.5806159973145" lon="2.57807564735413">
			<ele>263.200012207031</ele>
			<time>2013-12-29T11:31:00Z</time>
		</trkpt>
		<trkpt lat="39.5805625915527" lon="2.57803893089294">
			<ele>264.200012207031</ele>
			<time>2013-12-29T11:31:02Z</time>
		</trkpt>
		<trkpt lat="39.5805206298828" lon="2.57800245285034">
			<ele>264.700012207031</ele>
			<time>2013-12-29T11:31:06Z</time>
		</trkpt>
		<trkpt lat="39.5804672241211" lon="2.57797122001648">
			<ele>266.100006103516</ele>
			<time>2013-12-29T11:31:08Z</time>
		</trkpt>
		<trkpt lat="39.5804252624512" lon="2.57793617248535">
			<ele>266.299987792969</ele>
			<time>2013-12-29T11:31:12Z</time>
		</trkpt>
		<trkpt lat="39.5803756713867" lon="2.57789611816406">
			<ele>267.200012207031</ele>
			<time>2013-12-29T11:31:14Z</time>
		</trkpt>
		<trkpt lat="39.5803260803223" lon="2.5778636932373">
			<ele>268.5</ele>
			<time>2013-12-29T11:31:18Z</time>
		</trkpt>
		<trkpt lat="39.5802841186523" lon="2.57782530784607">
			<ele>269.600006103516</ele>
			<time>2013-12-29T11:31:21Z</time>
		</trkpt>
		<trkpt lat="39.5802421569824" lon="2.57778239250183">
			<ele>269.399993896484</ele>
			<time>2013-12-29T11:31:24Z</time>
		</trkpt>
		<trkpt lat="39.5801963806152" lon="2.57775473594666">
			<ele>270.700012207031</ele>
			<time>2013-12-29T11:31:26Z</time>
		</trkpt>
		<trkpt lat="39.5801467895508" lon="2.57773852348328">
			<ele>271.200012207031</ele>
			<time>2013-12-29T11:31:30Z</time>
		</trkpt>
		<trkpt lat="39.5800971984863" lon="2.5777153968811">
			<ele>271.700012207031</ele>
			<time>2013-12-29T11:31:32Z</time>
		</trkpt>
		<trkpt lat="39.5800514221191" lon="2.57769632339478">
			<ele>271.600006103516</ele>
			<time>2013-12-29T11:31:36Z</time>
		</trkpt>
		<trkpt lat="39.580005645752" lon="2.57767128944397">
			<ele>272</ele>
			<time>2013-12-29T11:31:39Z</time>
		</trkpt>
		<trkpt lat="39.5799598693848" lon="2.57765007019043">
			<ele>272.100006103516</ele>
			<time>2013-12-29T11:31:42Z</time>
		</trkpt>
		<trkpt lat="39.5799102783203" lon="2.57762503623962">
			<ele>274.5</ele>
			<time>2013-12-29T11:31:44Z</time>
		</trkpt>
		<trkpt lat="39.5798645019531" lon="2.5776264667511">
			<ele>273.200012207031</ele>
			<time>2013-12-29T11:31:48Z</time>
		</trkpt>
		<trkpt lat="39.5798149108887" lon="2.57762479782104">
			<ele>273.5</ele>
			<time>2013-12-29T11:31:50Z</time>
		</trkpt>
		<trkpt lat="39.579761505127" lon="2.57763504981995">
			<ele>273.600006103516</ele>
			<time>2013-12-29T11:31:54Z</time>
		</trkpt>
		<trkpt lat="39.5796966552734" lon="2.57766222953796">
			<ele>271.799987792969</ele>
			<time>2013-12-29T11:31:58Z</time>
		</trkpt>
		<trkpt lat="39.5796699523926" lon="2.57771635055542">
			<ele>274</ele>
			<time>2013-12-29T11:32:00Z</time>
		</trkpt>
		<trkpt lat="39.5796165466309" lon="2.57775497436523">
			<ele>274.799987792969</ele>
			<time>2013-12-29T11:32:02Z</time>
		</trkpt>
		<trkpt lat="39.5795783996582" lon="2.57779312133789">
			<ele>275</ele>
			<time>2013-12-29T11:32:06Z</time>
		</trkpt>
		<trkpt lat="39.579532623291" lon="2.57783007621765">
			<ele>271.600006103516</ele>
			<time>2013-12-29T11:32:08Z</time>
		</trkpt>
		<trkpt lat="39.5795021057129" lon="2.57787346839905">
			<ele>276</ele>
			<time>2013-12-29T11:32:10Z</time>
		</trkpt>
		<trkpt lat="39.5794677734375" lon="2.57792067527771">
			<ele>278.299987792969</ele>
			<time>2013-12-29T11:32:14Z</time>
		</trkpt>
		<trkpt lat="39.5794410705566" lon="2.57796669006348">
			<ele>280.100006103516</ele>
			<time>2013-12-29T11:32:16Z</time>
		</trkpt>
		<trkpt lat="39.5794067382813" lon="2.57800555229187">
			<ele>279.700012207031</ele>
			<time>2013-12-29T11:32:21Z</time>
		</trkpt>
		<trkpt lat="39.5793991088867" lon="2.57806992530823">
			<ele>279.100006103516</ele>
			<time>2013-12-29T11:32:23Z</time>
		</trkpt>
		<trkpt lat="39.5793914794922" lon="2.57814860343933">
			<ele>279.700012207031</ele>
			<time>2013-12-29T11:32:27Z</time>
		</trkpt>
		<trkpt lat="39.5793991088867" lon="2.57821369171143">
			<ele>277.399993896484</ele>
			<time>2013-12-29T11:32:29Z</time>
		</trkpt>
		<trkpt lat="39.5793952941895" lon="2.57827830314636">
			<ele>276.700012207031</ele>
			<time>2013-12-29T11:32:33Z</time>
		</trkpt>
		<trkpt lat="39.5793838500977" lon="2.57836079597473">
			<ele>286.399993896484</ele>
			<time>2013-12-29T11:32:35Z</time>
		</trkpt>
		<trkpt lat="39.5793800354004" lon="2.57844400405884">
			<ele>281.899993896484</ele>
			<time>2013-12-29T11:32:41Z</time>
		</trkpt>
		<trkpt lat="39.5793876647949" lon="2.57851195335388">
			<ele>279.700012207031</ele>
			<time>2013-12-29T11:32:43Z</time>
		</trkpt>
		<trkpt lat="39.5793952941895" lon="2.57858371734619">
			<ele>280</ele>
			<time>2013-12-29T11:32:45Z</time>
		</trkpt>
		<trkpt lat="39.5793991088867" lon="2.57866859436035">
			<ele>279.299987792969</ele>
			<time>2013-12-29T11:32:47Z</time>
		</trkpt>
		<trkpt lat="39.5793991088867" lon="2.57874727249146">
			<ele>279.600006103516</ele>
			<time>2013-12-29T11:32:51Z</time>
		</trkpt>
		<trkpt lat="39.5794258117676" lon="2.57881093025208">
			<ele>278.100006103516</ele>
			<time>2013-12-29T11:32:53Z</time>
		</trkpt>
		<trkpt lat="39.5794296264648" lon="2.57888174057007">
			<ele>275.600006103516</ele>
			<time>2013-12-29T11:32:57Z</time>
		</trkpt>
		<trkpt lat="39.5794296264648" lon="2.57895469665527">
			<ele>277.600006103516</ele>
			<time>2013-12-29T11:33:00Z</time>
		</trkpt>
		<trkpt lat="39.5794410705566" lon="2.57901239395142">
			<ele>276.899993896484</ele>
			<time>2013-12-29T11:33:02Z</time>
		</trkpt>
		<trkpt lat="39.5794486999512" lon="2.57910180091858">
			<ele>278.299987792969</ele>
			<time>2013-12-29T11:33:04Z</time>
		</trkpt>
		<trkpt lat="39.5794105529785" lon="2.57914686203003">
			<ele>277.5</ele>
			<time>2013-12-29T11:33:06Z</time>
		</trkpt>
		<trkpt lat="39.5793647766113" lon="2.57916140556335">
			<ele>278</ele>
			<time>2013-12-29T11:33:08Z</time>
		</trkpt>
		<trkpt lat="39.5793304443359" lon="2.57912302017212">
			<ele>277.899993896484</ele>
			<time>2013-12-29T11:33:10Z</time>
		</trkpt>
		<trkpt lat="39.5792999267578" lon="2.57908058166504">
			<ele>278.399993896484</ele>
			<time>2013-12-29T11:33:14Z</time>
		</trkpt>
		<trkpt lat="39.5792617797852" lon="2.57902002334595">
			<ele>276.799987792969</ele>
			<time>2013-12-29T11:33:16Z</time>
		</trkpt>
		<trkpt lat="39.5792198181152" lon="2.5789692401886">
			<ele>277.600006103516</ele>
			<time>2013-12-29T11:33:20Z</time>
		</trkpt>
		<trkpt lat="39.5791816711426" lon="2.57893300056458">
			<ele>278.399993896484</ele>
			<time>2013-12-29T11:33:22Z</time>
		</trkpt>
		<trkpt lat="39.5791358947754" lon="2.57895112037659">
			<ele>280.100006103516</ele>
			<time>2013-12-29T11:35:23Z</time>
		</trkpt>
		<trkpt lat="39.5790672302246" lon="2.57897686958313">
			<ele>281</ele>
			<time>2013-12-29T11:35:27Z</time>
		</trkpt>
		<trkpt lat="39.5790138244629" lon="2.57899618148804">
			<ele>281.399993896484</ele>
			<time>2013-12-29T11:35:30Z</time>
		</trkpt>
		<trkpt lat="39.5789680480957" lon="2.57901453971863">
			<ele>281.700012207031</ele>
			<time>2013-12-29T11:35:32Z</time>
		</trkpt>
		<trkpt lat="39.5789070129395" lon="2.57905578613281">
			<ele>281.899993896484</ele>
			<time>2013-12-29T11:35:35Z</time>
		</trkpt>
		<trkpt lat="39.5788650512695" lon="2.57907915115356">
			<ele>282.299987792969</ele>
			<time>2013-12-29T11:35:37Z</time>
		</trkpt>
		<trkpt lat="39.5788192749023" lon="2.57908296585083">
			<ele>283.799987792969</ele>
			<time>2013-12-29T11:35:39Z</time>
		</trkpt>
		<trkpt lat="39.5787696838379" lon="2.57902646064758">
			<ele>284.5</ele>
			<time>2013-12-29T11:35:42Z</time>
		</trkpt>
		<trkpt lat="39.5787773132324" lon="2.57895922660828">
			<ele>286</ele>
			<time>2013-12-29T11:35:44Z</time>
		</trkpt>
		<trkpt lat="39.5788154602051" lon="2.57890033721924">
			<ele>285.299987792969</ele>
			<time>2013-12-29T11:35:47Z</time>
		</trkpt>
		<trkpt lat="39.5788536071777" lon="2.57884502410889">
			<ele>282.600006103516</ele>
			<time>2013-12-29T11:35:50Z</time>
		</trkpt>
		<trkpt lat="39.5789031982422" lon="2.57878994941711">
			<ele>283.100006103516</ele>
			<time>2013-12-29T11:35:53Z</time>
		</trkpt>
		<trkpt lat="39.5789222717285" lon="2.57873606681824">
			<ele>283.299987792969</ele>
			<time>2013-12-29T11:35:55Z</time>
		</trkpt>
		<trkpt lat="39.5789489746094" lon="2.57865905761719">
			<ele>284.299987792969</ele>
			<time>2013-12-29T11:35:58Z</time>
		</trkpt>
		<trkpt lat="39.5789566040039" lon="2.57859516143799">
			<ele>286.299987792969</ele>
			<time>2013-12-29T11:36:01Z</time>
		</trkpt>
		<trkpt lat="39.5789527893066" lon="2.57852005958557">
			<ele>286.700012207031</ele>
			<time>2013-12-29T11:36:04Z</time>
		</trkpt>
		<trkpt lat="39.578929901123" lon="2.57845830917358">
			<ele>290.399993896484</ele>
			<time>2013-12-29T11:36:07Z</time>
		</trkpt>
		<trkpt lat="39.578929901123" lon="2.57839751243591">
			<ele>291.200012207031</ele>
			<time>2013-12-29T11:36:10Z</time>
		</trkpt>
		<trkpt lat="39.5789070129395" lon="2.57832884788513">
			<ele>293.200012207031</ele>
			<time>2013-12-29T11:36:13Z</time>
		</trkpt>
		<trkpt lat="39.5788917541504" lon="2.57827377319336">
			<ele>296.399993896484</ele>
			<time>2013-12-29T11:36:16Z</time>
		</trkpt>
		<trkpt lat="39.5788764953613" lon="2.57820081710815">
			<ele>296</ele>
			<time>2013-12-29T11:36:19Z</time>
		</trkpt>
		<trkpt lat="39.5788650512695" lon="2.57812571525574">
			<ele>295.700012207031</ele>
			<time>2013-12-29T11:36:23Z</time>
		</trkpt>
		<trkpt lat="39.578857421875" lon="2.57806277275085">
			<ele>295.600006103516</ele>
			<time>2013-12-29T11:36:27Z</time>
		</trkpt>
		<trkpt lat="39.5788459777832" lon="2.57799077033997">
			<ele>296.200012207031</ele>
			<time>2013-12-29T11:36:29Z</time>
		</trkpt>
		<trkpt lat="39.5788650512695" lon="2.57792663574219">
			<ele>298</ele>
			<time>2013-12-29T11:36:32Z</time>
		</trkpt>
		<trkpt lat="39.5788612365723" lon="2.57785558700562">
			<ele>298.799987792969</ele>
			<time>2013-12-29T11:36:35Z</time>
		</trkpt>
		<trkpt lat="39.5788688659668" lon="2.57778787612915">
			<ele>299.100006103516</ele>
			<time>2013-12-29T11:36:38Z</time>
		</trkpt>
		<trkpt lat="39.5788764953613" lon="2.57772064208984">
			<ele>299.100006103516</ele>
			<time>2013-12-29T11:36:40Z</time>
		</trkpt>
		<trkpt lat="39.5789070129395" lon="2.57764983177185">
			<ele>300.5</ele>
			<time>2013-12-29T11:36:43Z</time>
		</trkpt>
		<trkpt lat="39.5789184570313" lon="2.5775830745697">
			<ele>300.200012207031</ele>
			<time>2013-12-29T11:36:46Z</time>
		</trkpt>
		<trkpt lat="39.5789184570313" lon="2.57752251625061">
			<ele>300.899993896484</ele>
			<time>2013-12-29T11:36:48Z</time>
		</trkpt>
		<trkpt lat="39.5789375305176" lon="2.57745766639709">
			<ele>301.600006103516</ele>
			<time>2013-12-29T11:36:51Z</time>
		</trkpt>
		<trkpt lat="39.5789489746094" lon="2.57739400863647">
			<ele>302.5</ele>
			<time>2013-12-29T11:36:54Z</time>
		</trkpt>
		<trkpt lat="39.578971862793" lon="2.57732677459717">
			<ele>303.399993896484</ele>
			<time>2013-12-29T11:36:57Z</time>
		</trkpt>
		<trkpt lat="39.578971862793" lon="2.57725238800049">
			<ele>300.200012207031</ele>
			<time>2013-12-29T11:37:01Z</time>
		</trkpt>
		<trkpt lat="39.5790214538574" lon="2.57719993591309">
			<ele>291.799987792969</ele>
			<time>2013-12-29T11:37:04Z</time>
		</trkpt>
		<trkpt lat="39.5790367126465" lon="2.577143907547">
			<ele>297.200012207031</ele>
			<time>2013-12-29T11:40:15Z</time>
		</trkpt>
		<trkpt lat="39.5790672302246" lon="2.5770788192749">
			<ele>298.700012207031</ele>
			<time>2013-12-29T11:40:18Z</time>
		</trkpt>
		<trkpt lat="39.5790863037109" lon="2.57700681686401">
			<ele>298</ele>
			<time>2013-12-29T11:40:21Z</time>
		</trkpt>
		<trkpt lat="39.5791091918945" lon="2.57693362236023">
			<ele>299</ele>
			<time>2013-12-29T11:40:24Z</time>
		</trkpt>
		<trkpt lat="39.5791397094727" lon="2.57686376571655">
			<ele>299.299987792969</ele>
			<time>2013-12-29T11:40:27Z</time>
		</trkpt>
		<trkpt lat="39.5791664123535" lon="2.57679224014282">
			<ele>299.700012207031</ele>
			<time>2013-12-29T11:40:30Z</time>
		</trkpt>
		<trkpt lat="39.5791931152344" lon="2.57672929763794">
			<ele>299.899993896484</ele>
			<time>2013-12-29T11:40:33Z</time>
		</trkpt>
		<trkpt lat="39.579216003418" lon="2.57666420936584">
			<ele>299.5</ele>
			<time>2013-12-29T11:40:36Z</time>
		</trkpt>
		<trkpt lat="39.5792427062988" lon="2.57658863067627">
			<ele>300.799987792969</ele>
			<time>2013-12-29T11:40:39Z</time>
		</trkpt>
		<trkpt lat="39.579273223877" lon="2.57653951644897">
			<ele>301.100006103516</ele>
			<time>2013-12-29T11:40:42Z</time>
		</trkpt>
		<trkpt lat="39.579273223877" lon="2.57646918296814">
			<ele>301.700012207031</ele>
			<time>2013-12-29T11:40:45Z</time>
		</trkpt>
		<trkpt lat="39.5792617797852" lon="2.57640552520752">
			<ele>303.100006103516</ele>
			<time>2013-12-29T11:40:48Z</time>
		</trkpt>
		<trkpt lat="39.579231262207" lon="2.57635092735291">
			<ele>303.399993896484</ele>
			<time>2013-12-29T11:40:51Z</time>
		</trkpt>
		<trkpt lat="39.5792083740234" lon="2.57627987861633">
			<ele>303.899993896484</ele>
			<time>2013-12-29T11:40:54Z</time>
		</trkpt>
		<trkpt lat="39.5791854858398" lon="2.57621765136719">
			<ele>304.600006103516</ele>
			<time>2013-12-29T11:40:57Z</time>
		</trkpt>
		<trkpt lat="39.579158782959" lon="2.57614684104919">
			<ele>308.5</ele>
			<time>2013-12-29T11:41:00Z</time>
		</trkpt>
		<trkpt lat="39.5791435241699" lon="2.57607197761536">
			<ele>310.100006103516</ele>
			<time>2013-12-29T11:41:03Z</time>
		</trkpt>
		<trkpt lat="39.5791320800781" lon="2.57601523399353">
			<ele>310.5</ele>
			<time>2013-12-29T11:41:06Z</time>
		</trkpt>
		<trkpt lat="39.5791358947754" lon="2.57593870162964">
			<ele>311.700012207031</ele>
			<time>2013-12-29T11:41:09Z</time>
		</trkpt>
		<trkpt lat="39.5791244506836" lon="2.57585859298706">
			<ele>313</ele>
			<time>2013-12-29T11:41:12Z</time>
		</trkpt>
		<trkpt lat="39.5791130065918" lon="2.57580018043518">
			<ele>313.5</ele>
			<time>2013-12-29T11:41:14Z</time>
		</trkpt>
		<trkpt lat="39.5791091918945" lon="2.57573318481445">
			<ele>313</ele>
			<time>2013-12-29T11:41:17Z</time>
		</trkpt>
		<trkpt lat="39.5790786743164" lon="2.57565784454346">
			<ele>312.899993896484</ele>
			<time>2013-12-29T11:41:20Z</time>
		</trkpt>
		<trkpt lat="39.5791282653809" lon="2.57561755180359">
			<ele>310.799987792969</ele>
			<time>2013-12-29T11:41:23Z</time>
		</trkpt>
		<trkpt lat="39.579158782959" lon="2.5755729675293">
			<ele>309.799987792969</ele>
			<time>2013-12-29T11:41:26Z</time>
		</trkpt>
		<trkpt lat="39.5792388916016" lon="2.57556438446045">
			<ele>309.700012207031</ele>
			<time>2013-12-29T11:41:30Z</time>
		</trkpt>
		<trkpt lat="39.5792922973633" lon="2.57561707496643">
			<ele>311.299987792969</ele>
			<time>2013-12-29T11:41:32Z</time>
		</trkpt>
		<trkpt lat="39.5793418884277" lon="2.57564830780029">
			<ele>312.100006103516</ele>
			<time>2013-12-29T11:41:34Z</time>
		</trkpt>
		<trkpt lat="39.5793952941895" lon="2.57567882537842">
			<ele>311.600006103516</ele>
			<time>2013-12-29T11:41:37Z</time>
		</trkpt>
		<trkpt lat="39.5794105529785" lon="2.57574987411499">
			<ele>313.100006103516</ele>
			<time>2013-12-29T11:41:39Z</time>
		</trkpt>
		<trkpt lat="39.5794563293457" lon="2.57578372955322">
			<ele>314.100006103516</ele>
			<time>2013-12-29T11:41:41Z</time>
		</trkpt>
		<trkpt lat="39.5795135498047" lon="2.5758273601532">
			<ele>311.700012207031</ele>
			<time>2013-12-29T11:41:45Z</time>
		</trkpt>
		<trkpt lat="39.5795593261719" lon="2.57586693763733">
			<ele>310.799987792969</ele>
			<time>2013-12-29T11:41:48Z</time>
		</trkpt>
		<trkpt lat="39.5795974731445" lon="2.5759060382843">
			<ele>311.299987792969</ele>
			<time>2013-12-29T11:41:51Z</time>
		</trkpt>
		<trkpt lat="39.5796318054199" lon="2.57597517967224">
			<ele>313.600006103516</ele>
			<time>2013-12-29T11:41:54Z</time>
		</trkpt>
		<trkpt lat="39.5796737670898" lon="2.57602071762085">
			<ele>313.600006103516</ele>
			<time>2013-12-29T11:41:57Z</time>
		</trkpt>
		<trkpt lat="39.5797080993652" lon="2.57606649398804">
			<ele>314.200012207031</ele>
			<time>2013-12-29T11:42:00Z</time>
		</trkpt>
		<trkpt lat="39.5797424316406" lon="2.57610535621643">
			<ele>315.100006103516</ele>
			<time>2013-12-29T11:42:03Z</time>
		</trkpt>
		<trkpt lat="39.5797996520996" lon="2.5761239528656">
			<ele>315.5</ele>
			<time>2013-12-29T11:42:06Z</time>
		</trkpt>
		<trkpt lat="39.5798492431641" lon="2.57613921165466">
			<ele>313.299987792969</ele>
			<time>2013-12-29T11:42:10Z</time>
		</trkpt>
		<trkpt lat="39.5798988342285" lon="2.57613372802734">
			<ele>314.200012207031</ele>
			<time>2013-12-29T11:42:14Z</time>
		</trkpt>
		<trkpt lat="39.5799560546875" lon="2.57612061500549">
			<ele>314.200012207031</ele>
			<time>2013-12-29T11:42:18Z</time>
		</trkpt>
		<trkpt lat="39.5800018310547" lon="2.57608723640442">
			<ele>314.299987792969</ele>
			<time>2013-12-29T11:42:21Z</time>
		</trkpt>
		<trkpt lat="39.5800361633301" lon="2.57604122161865">
			<ele>314</ele>
			<time>2013-12-29T11:42:24Z</time>
		</trkpt>
		<trkpt lat="39.580078125" lon="2.57600808143616">
			<ele>313.299987792969</ele>
			<time>2013-12-29T11:42:27Z</time>
		</trkpt>
		<trkpt lat="39.5801086425781" lon="2.57605171203613">
			<ele>315.399993896484</ele>
			<time>2013-12-29T11:45:21Z</time>
		</trkpt>
		<trkpt lat="39.5801239013672" lon="2.57598114013672">
			<ele>315.200012207031</ele>
			<time>2013-12-29T11:45:52Z</time>
		</trkpt>
		<trkpt lat="39.5801620483398" lon="2.57591915130615">
			<ele>314.799987792969</ele>
			<time>2013-12-29T11:45:55Z</time>
		</trkpt>
		<trkpt lat="39.5801963806152" lon="2.5758490562439">
			<ele>315.100006103516</ele>
			<time>2013-12-29T11:45:58Z</time>
		</trkpt>
		<trkpt lat="39.5802383422852" lon="2.57579898834229">
			<ele>314.600006103516</ele>
			<time>2013-12-29T11:46:02Z</time>
		</trkpt>
		<trkpt lat="39.5802612304688" lon="2.57573962211609">
			<ele>314.799987792969</ele>
			<time>2013-12-29T11:46:05Z</time>
		</trkpt>
		<trkpt lat="39.5802879333496" lon="2.57567095756531">
			<ele>315.700012207031</ele>
			<time>2013-12-29T11:46:08Z</time>
		</trkpt>
		<trkpt lat="39.5802993774414" lon="2.57560396194458">
			<ele>316.399993896484</ele>
			<time>2013-12-29T11:46:11Z</time>
		</trkpt>
		<trkpt lat="39.5803031921387" lon="2.57553672790527">
			<ele>317.5</ele>
			<time>2013-12-29T11:46:14Z</time>
		</trkpt>
		<trkpt lat="39.5802726745605" lon="2.57548880577087">
			<ele>312.399993896484</ele>
			<time>2013-12-29T11:46:17Z</time>
		</trkpt>
		<trkpt lat="39.5802230834961" lon="2.57546854019165">
			<ele>310.799987792969</ele>
			<time>2013-12-29T11:46:20Z</time>
		</trkpt>
		<trkpt lat="39.5801773071289" lon="2.57551550865173">
			<ele>313.100006103516</ele>
			<time>2013-12-29T11:46:23Z</time>
		</trkpt>
		<trkpt lat="39.5801429748535" lon="2.5755627155304">
			<ele>313.399993896484</ele>
			<time>2013-12-29T11:46:26Z</time>
		</trkpt>
		<trkpt lat="39.5801162719727" lon="2.57561731338501">
			<ele>314.200012207031</ele>
			<time>2013-12-29T11:46:29Z</time>
		</trkpt>
		<trkpt lat="39.5800895690918" lon="2.57568216323853">
			<ele>314.5</ele>
			<time>2013-12-29T11:46:32Z</time>
		</trkpt>
		<trkpt lat="39.5800476074219" lon="2.57574772834778">
			<ele>314.899993896484</ele>
			<time>2013-12-29T11:46:35Z</time>
		</trkpt>
		<trkpt lat="39.5800094604492" lon="2.57579970359802">
			<ele>316.600006103516</ele>
			<time>2013-12-29T11:46:38Z</time>
		</trkpt>
		<trkpt lat="39.5799598693848" lon="2.57583713531494">
			<ele>317.299987792969</ele>
			<time>2013-12-29T11:46:41Z</time>
		</trkpt>
		<trkpt lat="39.5799102783203" lon="2.57586336135864">
			<ele>317.399993896484</ele>
			<time>2013-12-29T11:46:44Z</time>
		</trkpt>
		<trkpt lat="39.5798492431641" lon="2.57585978507996">
			<ele>318.5</ele>
			<time>2013-12-29T11:46:47Z</time>
		</trkpt>
		<trkpt lat="39.5798072814941" lon="2.57582020759583">
			<ele>319.100006103516</ele>
			<time>2013-12-29T11:46:50Z</time>
		</trkpt>
		<trkpt lat="39.5797843933105" lon="2.57576560974121">
			<ele>315.600006103516</ele>
			<time>2013-12-29T11:46:53Z</time>
		</trkpt>
		<trkpt lat="39.5797538757324" lon="2.57571148872375">
			<ele>317.200012207031</ele>
			<time>2013-12-29T11:46:56Z</time>
		</trkpt>
		<trkpt lat="39.5797309875488" lon="2.57565355300903">
			<ele>317.600006103516</ele>
			<time>2013-12-29T11:46:59Z</time>
		</trkpt>
		<trkpt lat="39.5796928405762" lon="2.57559895515442">
			<ele>318.600006103516</ele>
			<time>2013-12-29T11:47:02Z</time>
		</trkpt>
		<trkpt lat="39.5796699523926" lon="2.57554841041565">
			<ele>319.299987792969</ele>
			<time>2013-12-29T11:47:05Z</time>
		</trkpt>
		<trkpt lat="39.5796356201172" lon="2.57549166679382">
			<ele>319.799987792969</ele>
			<time>2013-12-29T11:47:08Z</time>
		</trkpt>
		<trkpt lat="39.5796012878418" lon="2.57543158531189">
			<ele>321.700012207031</ele>
			<time>2013-12-29T11:47:11Z</time>
		</trkpt>
		<trkpt lat="39.5795707702637" lon="2.57537770271301">
			<ele>322.100006103516</ele>
			<time>2013-12-29T11:47:14Z</time>
		</trkpt>
		<trkpt lat="39.5795402526855" lon="2.57532620429993">
			<ele>323.600006103516</ele>
			<time>2013-12-29T11:47:17Z</time>
		</trkpt>
		<trkpt lat="39.5795097351074" lon="2.57527923583984">
			<ele>324.5</ele>
			<time>2013-12-29T11:47:20Z</time>
		</trkpt>
		<trkpt lat="39.5794792175293" lon="2.57522535324097">
			<ele>323.799987792969</ele>
			<time>2013-12-29T11:47:23Z</time>
		</trkpt>
		<trkpt lat="39.5794563293457" lon="2.57517290115356">
			<ele>323.299987792969</ele>
			<time>2013-12-29T11:47:26Z</time>
		</trkpt>
		<trkpt lat="39.5794258117676" lon="2.57511973381042">
			<ele>321.899993896484</ele>
			<time>2013-12-29T11:47:30Z</time>
		</trkpt>
		<trkpt lat="39.5793876647949" lon="2.57506608963013">
			<ele>319.899993896484</ele>
			<time>2013-12-29T11:47:33Z</time>
		</trkpt>
		<trkpt lat="39.5793495178223" lon="2.57500743865967">
			<ele>319.600006103516</ele>
			<time>2013-12-29T11:47:36Z</time>
		</trkpt>
		<trkpt lat="39.5793190002441" lon="2.57493782043457">
			<ele>319.799987792969</ele>
			<time>2013-12-29T11:47:39Z</time>
		</trkpt>
		<trkpt lat="39.5793762207031" lon="2.5749785900116">
			<ele>320</ele>
			<time>2013-12-29T11:47:42Z</time>
		</trkpt>
		<trkpt lat="39.5794143676758" lon="2.57501888275146">
			<ele>320.899993896484</ele>
			<time>2013-12-29T11:47:44Z</time>
		</trkpt>
		<trkpt lat="39.5794677734375" lon="2.5750675201416">
			<ele>322.700012207031</ele>
			<time>2013-12-29T11:47:47Z</time>
		</trkpt>
		<trkpt lat="39.5795097351074" lon="2.57512044906616">
			<ele>324.100006103516</ele>
			<time>2013-12-29T11:47:50Z</time>
		</trkpt>
		<trkpt lat="39.5795516967773" lon="2.57517290115356">
			<ele>325.5</ele>
			<time>2013-12-29T11:47:53Z</time>
		</trkpt>
		<trkpt lat="39.5795936584473" lon="2.57520484924316">
			<ele>326.100006103516</ele>
			<time>2013-12-29T11:47:55Z</time>
		</trkpt>
		<trkpt lat="39.5796432495117" lon="2.57524943351746">
			<ele>327.5</ele>
			<time>2013-12-29T11:47:58Z</time>
		</trkpt>
		<trkpt lat="39.5796813964844" lon="2.5752854347229">
			<ele>329.799987792969</ele>
			<time>2013-12-29T11:48:01Z</time>
		</trkpt>
		<trkpt lat="39.5797348022461" lon="2.57531404495239">
			<ele>331.5</ele>
			<time>2013-12-29T11:48:04Z</time>
		</trkpt>
		<trkpt lat="39.5797843933105" lon="2.5753059387207">
			<ele>331</ele>
			<time>2013-12-29T11:48:07Z</time>
		</trkpt>
		<trkpt lat="39.5798454284668" lon="2.57529282569885">
			<ele>331.399993896484</ele>
			<time>2013-12-29T11:48:11Z</time>
		</trkpt>
		<trkpt lat="39.5798873901367" lon="2.5752637386322">
			<ele>332.100006103516</ele>
			<time>2013-12-29T11:48:14Z</time>
		</trkpt>
		<trkpt lat="39.5799446105957" lon="2.57523512840271">
			<ele>333</ele>
			<time>2013-12-29T11:48:17Z</time>
		</trkpt>
		<trkpt lat="39.5800018310547" lon="2.57523107528687">
			<ele>334.200012207031</ele>
			<time>2013-12-29T11:48:20Z</time>
		</trkpt>
		<trkpt lat="39.5800552368164" lon="2.57523369789124">
			<ele>334.5</ele>
			<time>2013-12-29T11:48:23Z</time>
		</trkpt>
		<trkpt lat="39.5801048278809" lon="2.57521724700928">
			<ele>335.600006103516</ele>
			<time>2013-12-29T11:48:26Z</time>
		</trkpt>
		<trkpt lat="39.5801658630371" lon="2.57520627975464">
			<ele>336.299987792969</ele>
			<time>2013-12-29T11:48:29Z</time>
		</trkpt>
		<trkpt lat="39.5802230834961" lon="2.5751838684082">
			<ele>336.799987792969</ele>
			<time>2013-12-29T11:48:33Z</time>
		</trkpt>
		<trkpt lat="39.5802688598633" lon="2.57518100738525">
			<ele>337.200012207031</ele>
			<time>2013-12-29T11:48:36Z</time>
		</trkpt>
		<trkpt lat="39.5803260803223" lon="2.57518315315247">
			<ele>337.200012207031</ele>
			<time>2013-12-29T11:48:39Z</time>
		</trkpt>
		<trkpt lat="39.580379486084" lon="2.57517433166504">
			<ele>338.200012207031</ele>
			<time>2013-12-29T11:48:42Z</time>
		</trkpt>
		<trkpt lat="39.5804328918457" lon="2.57518362998962">
			<ele>338</ele>
			<time>2013-12-29T11:48:45Z</time>
		</trkpt>
		<trkpt lat="39.5804824829102" lon="2.57517075538635">
			<ele>337.700012207031</ele>
			<time>2013-12-29T11:48:49Z</time>
		</trkpt>
		<trkpt lat="39.5805320739746" lon="2.57516312599182">
			<ele>338.299987792969</ele>
			<time>2013-12-29T11:48:52Z</time>
		</trkpt>
		<trkpt lat="39.5805816650391" lon="2.57514667510986">
			<ele>337.5</ele>
			<time>2013-12-29T11:48:56Z</time>
		</trkpt>
		<trkpt lat="39.5806427001953" lon="2.57514071464539">
			<ele>338.100006103516</ele>
			<time>2013-12-29T11:48:59Z</time>
		</trkpt>
		<trkpt lat="39.580696105957" lon="2.57512998580933">
			<ele>339.399993896484</ele>
			<time>2013-12-29T11:49:02Z</time>
		</trkpt>
		<trkpt lat="39.5807418823242" lon="2.57512998580933">
			<ele>339</ele>
			<time>2013-12-29T11:49:05Z</time>
		</trkpt>
		<trkpt lat="39.5807991027832" lon="2.57514929771423">
			<ele>340</ele>
			<time>2013-12-29T11:49:08Z</time>
		</trkpt>
		<trkpt lat="39.5808486938477" lon="2.57518601417542">
			<ele>339.700012207031</ele>
			<time>2013-12-29T11:49:11Z</time>
		</trkpt>
		<trkpt lat="39.5809059143066" lon="2.57523202896118">
			<ele>340.299987792969</ele>
			<time>2013-12-29T11:49:14Z</time>
		</trkpt>
		<trkpt lat="39.5809364318848" lon="2.57528734207153">
			<ele>339.100006103516</ele>
			<time>2013-12-29T11:49:17Z</time>
		</trkpt>
		<trkpt lat="39.5809936523438" lon="2.57532644271851">
			<ele>339.899993896484</ele>
			<time>2013-12-29T11:49:20Z</time>
		</trkpt>
		<trkpt lat="39.5810317993164" lon="2.57537746429443">
			<ele>341.399993896484</ele>
			<time>2013-12-29T11:49:23Z</time>
		</trkpt>
		<trkpt lat="39.5810775756836" lon="2.57540559768677">
			<ele>342.600006103516</ele>
			<time>2013-12-29T11:49:26Z</time>
		</trkpt>
		<trkpt lat="39.5810813903809" lon="2.57534003257751">
			<ele>350.5</ele>
			<time>2013-12-29T11:54:29Z</time>
		</trkpt>
		<trkpt lat="39.5811042785645" lon="2.57528209686279">
			<ele>350.700012207031</ele>
			<time>2013-12-29T11:54:31Z</time>
		</trkpt>
		<trkpt lat="39.5810966491699" lon="2.57522249221802">
			<ele>350.700012207031</ele>
			<time>2013-12-29T11:54:34Z</time>
		</trkpt>
		<trkpt lat="39.5810623168945" lon="2.57517266273499">
			<ele>351.299987792969</ele>
			<time>2013-12-29T11:54:37Z</time>
		</trkpt>
		<trkpt lat="39.5810317993164" lon="2.57512331008911">
			<ele>351.299987792969</ele>
			<time>2013-12-29T11:54:39Z</time>
		</trkpt>
		<trkpt lat="39.5809898376465" lon="2.57507872581482">
			<ele>351.399993896484</ele>
			<time>2013-12-29T11:54:42Z</time>
		</trkpt>
		<trkpt lat="39.5809440612793" lon="2.57503533363342">
			<ele>352.100006103516</ele>
			<time>2013-12-29T11:54:46Z</time>
		</trkpt>
		<trkpt lat="39.5809097290039" lon="2.57498645782471">
			<ele>352.700012207031</ele>
			<time>2013-12-29T11:54:49Z</time>
		</trkpt>
		<trkpt lat="39.5808792114258" lon="2.57494425773621">
			<ele>352.600006103516</ele>
			<time>2013-12-29T11:54:52Z</time>
		</trkpt>
		<trkpt lat="39.5808486938477" lon="2.5748827457428">
			<ele>352.600006103516</ele>
			<time>2013-12-29T11:54:55Z</time>
		</trkpt>
		<trkpt lat="39.580810546875" lon="2.57484841346741">
			<ele>351.899993896484</ele>
			<time>2013-12-29T11:54:58Z</time>
		</trkpt>
		<trkpt lat="39.5807838439941" lon="2.57478594779968">
			<ele>352.299987792969</ele>
			<time>2013-12-29T11:55:01Z</time>
		</trkpt>
		<trkpt lat="39.5807495117188" lon="2.57474255561829">
			<ele>352.600006103516</ele>
			<time>2013-12-29T11:55:04Z</time>
		</trkpt>
		<trkpt lat="39.5807037353516" lon="2.57470440864563">
			<ele>353</ele>
			<time>2013-12-29T11:55:07Z</time>
		</trkpt>
		<trkpt lat="39.5806617736816" lon="2.57466149330139">
			<ele>354.5</ele>
			<time>2013-12-29T11:55:10Z</time>
		</trkpt>
		<trkpt lat="39.5806312561035" lon="2.57459568977356">
			<ele>353.700012207031</ele>
			<time>2013-12-29T11:55:13Z</time>
		</trkpt>
		<trkpt lat="39.5806312561035" lon="2.57452940940857">
			<ele>354.700012207031</ele>
			<time>2013-12-29T11:55:17Z</time>
		</trkpt>
		<trkpt lat="39.5806846618652" lon="2.57450199127197">
			<ele>353.399993896484</ele>
			<time>2013-12-29T11:55:20Z</time>
		</trkpt>
		<trkpt lat="39.5807418823242" lon="2.57449316978455">
			<ele>354.399993896484</ele>
			<time>2013-12-29T11:55:23Z</time>
		</trkpt>
		<trkpt lat="39.5807952880859" lon="2.57451510429382">
			<ele>352.299987792969</ele>
			<time>2013-12-29T11:55:26Z</time>
		</trkpt>
		<trkpt lat="39.5808563232422" lon="2.57453012466431">
			<ele>351.700012207031</ele>
			<time>2013-12-29T11:55:29Z</time>
		</trkpt>
		<trkpt lat="39.5808982849121" lon="2.57455253601074">
			<ele>351.799987792969</ele>
			<time>2013-12-29T11:55:31Z</time>
		</trkpt>
		<trkpt lat="39.5809440612793" lon="2.57460165023804">
			<ele>354.100006103516</ele>
			<time>2013-12-29T11:55:34Z</time>
		</trkpt>
		<trkpt lat="39.5809745788574" lon="2.57464575767517">
			<ele>355.799987792969</ele>
			<time>2013-12-29T11:55:36Z</time>
		</trkpt>
		<trkpt lat="39.5810203552246" lon="2.5746865272522">
			<ele>354.100006103516</ele>
			<time>2013-12-29T11:55:39Z</time>
		</trkpt>
		<trkpt lat="39.5810775756836" lon="2.57473826408386">
			<ele>355.299987792969</ele>
			<time>2013-12-29T11:55:42Z</time>
		</trkpt>
		<trkpt lat="39.5811042785645" lon="2.57479357719421">
			<ele>357.100006103516</ele>
			<time>2013-12-29T11:55:45Z</time>
		</trkpt>
		<trkpt lat="39.5811538696289" lon="2.57483768463135">
			<ele>359.200012207031</ele>
			<time>2013-12-29T11:55:48Z</time>
		</trkpt>
		<trkpt lat="39.5812034606934" lon="2.5748507976532">
			<ele>360.799987792969</ele>
			<time>2013-12-29T11:55:52Z</time>
		</trkpt>
		<trkpt lat="39.5812034606934" lon="2.57478880882263">
			<ele>358.200012207031</ele>
			<time>2013-12-29T12:01:03Z</time>
		</trkpt>
		<trkpt lat="39.581226348877" lon="2.57472729682922">
			<ele>358.899993896484</ele>
			<time>2013-12-29T12:01:07Z</time>
		</trkpt>
		<trkpt lat="39.5812149047852" lon="2.57463955879211">
			<ele>358.200012207031</ele>
			<time>2013-12-29T12:01:10Z</time>
		</trkpt>
		<trkpt lat="39.581169128418" lon="2.57458257675171">
			<ele>357.700012207031</ele>
			<time>2013-12-29T12:01:13Z</time>
		</trkpt>
		<trkpt lat="39.5811233520508" lon="2.57452607154846">
			<ele>357.100006103516</ele>
			<time>2013-12-29T12:01:16Z</time>
		</trkpt>
		<trkpt lat="39.5810737609863" lon="2.57448077201843">
			<ele>357.399993896484</ele>
			<time>2013-12-29T12:01:19Z</time>
		</trkpt>
		<trkpt lat="39.5810317993164" lon="2.57442903518677">
			<ele>357</ele>
			<time>2013-12-29T12:01:22Z</time>
		</trkpt>
		<trkpt lat="39.580982208252" lon="2.5743842124939">
			<ele>357.799987792969</ele>
			<time>2013-12-29T12:01:25Z</time>
		</trkpt>
		<trkpt lat="39.5809364318848" lon="2.57435274124146">
			<ele>357.799987792969</ele>
			<time>2013-12-29T12:01:27Z</time>
		</trkpt>
		<trkpt lat="39.5808868408203" lon="2.57433176040649">
			<ele>359</ele>
			<time>2013-12-29T12:01:29Z</time>
		</trkpt>
		<trkpt lat="39.5808410644531" lon="2.57430911064148">
			<ele>359.200012207031</ele>
			<time>2013-12-29T12:01:31Z</time>
		</trkpt>
		<trkpt lat="39.5807800292969" lon="2.57427453994751">
			<ele>359.600006103516</ele>
			<time>2013-12-29T12:01:34Z</time>
		</trkpt>
		<trkpt lat="39.5807342529297" lon="2.57422256469727">
			<ele>359.200012207031</ele>
			<time>2013-12-29T12:01:37Z</time>
		</trkpt>
		<trkpt lat="39.5806846618652" lon="2.57421469688416">
			<ele>357.799987792969</ele>
			<time>2013-12-29T12:01:39Z</time>
		</trkpt>
		<trkpt lat="39.5806427001953" lon="2.57419180870056">
			<ele>359.799987792969</ele>
			<time>2013-12-29T12:01:41Z</time>
		</trkpt>
		<trkpt lat="39.5805931091309" lon="2.57413864135742">
			<ele>361.100006103516</ele>
			<time>2013-12-29T12:01:44Z</time>
		</trkpt>
		<trkpt lat="39.58056640625" lon="2.57406234741211">
			<ele>362.5</ele>
			<time>2013-12-29T12:01:47Z</time>
		</trkpt>
		<trkpt lat="39.5805702209473" lon="2.57399964332581">
			<ele>363.100006103516</ele>
			<time>2013-12-29T12:01:49Z</time>
		</trkpt>
		<trkpt lat="39.5805854797363" lon="2.57391977310181">
			<ele>364.100006103516</ele>
			<time>2013-12-29T12:01:52Z</time>
		</trkpt>
		<trkpt lat="39.5805931091309" lon="2.57384085655212">
			<ele>365.100006103516</ele>
			<time>2013-12-29T12:01:55Z</time>
		</trkpt>
		<trkpt lat="39.5805969238281" lon="2.57376027107239">
			<ele>366.700012207031</ele>
			<time>2013-12-29T12:01:58Z</time>
		</trkpt>
		<trkpt lat="39.5806045532227" lon="2.57368278503418">
			<ele>367.5</ele>
			<time>2013-12-29T12:02:01Z</time>
		</trkpt>
		<trkpt lat="39.5806007385254" lon="2.57360148429871">
			<ele>367.399993896484</ele>
			<time>2013-12-29T12:02:04Z</time>
		</trkpt>
		<trkpt lat="39.5805931091309" lon="2.57353138923645">
			<ele>366.100006103516</ele>
			<time>2013-12-29T12:02:07Z</time>
		</trkpt>
		<trkpt lat="39.5805778503418" lon="2.57347273826599">
			<ele>365.399993896484</ele>
			<time>2013-12-29T12:02:10Z</time>
		</trkpt>
		<trkpt lat="39.5805587768555" lon="2.57341480255127">
			<ele>365.5</ele>
			<time>2013-12-29T12:02:13Z</time>
		</trkpt>
		<trkpt lat="39.5805358886719" lon="2.57335734367371">
			<ele>366</ele>
			<time>2013-12-29T12:02:16Z</time>
		</trkpt>
		<trkpt lat="39.5805168151855" lon="2.57329273223877">
			<ele>358.399993896484</ele>
			<time>2013-12-29T12:02:19Z</time>
		</trkpt>
		<trkpt lat="39.5805015563965" lon="2.57322907447815">
			<ele>362.299987792969</ele>
			<time>2013-12-29T12:02:21Z</time>
		</trkpt>
		<trkpt lat="39.5804862976074" lon="2.57314920425415">
			<ele>362</ele>
			<time>2013-12-29T12:02:24Z</time>
		</trkpt>
		<trkpt lat="39.5804634094238" lon="2.57307195663452">
			<ele>362.200012207031</ele>
			<time>2013-12-29T12:02:27Z</time>
		</trkpt>
		<trkpt lat="39.5804481506348" lon="2.57299137115479">
			<ele>363.200012207031</ele>
			<time>2013-12-29T12:02:30Z</time>
		</trkpt>
		<trkpt lat="39.5804290771484" lon="2.57292008399963">
			<ele>364</ele>
			<time>2013-12-29T12:02:33Z</time>
		</trkpt>
		<trkpt lat="39.5804023742676" lon="2.57283854484558">
			<ele>364.700012207031</ele>
			<time>2013-12-29T12:02:36Z</time>
		</trkpt>
		<trkpt lat="39.580379486084" lon="2.57276701927185">
			<ele>364.700012207031</ele>
			<time>2013-12-29T12:02:39Z</time>
		</trkpt>
		<trkpt lat="39.5803527832031" lon="2.57269430160522">
			<ele>365.299987792969</ele>
			<time>2013-12-29T12:02:42Z</time>
		</trkpt>
		<trkpt lat="39.5803298950195" lon="2.57262301445007">
			<ele>366</ele>
			<time>2013-12-29T12:02:45Z</time>
		</trkpt>
		<trkpt lat="39.5803070068359" lon="2.57254552841187">
			<ele>366.100006103516</ele>
			<time>2013-12-29T12:02:48Z</time>
		</trkpt>
		<trkpt lat="39.5802879333496" lon="2.5724880695343">
			<ele>366.200012207031</ele>
			<time>2013-12-29T12:02:50Z</time>
		</trkpt>
		<trkpt lat="39.5802726745605" lon="2.57242918014526">
			<ele>366.5</ele>
			<time>2013-12-29T12:02:52Z</time>
		</trkpt>
		<trkpt lat="39.5802536010742" lon="2.5723671913147">
			<ele>366.700012207031</ele>
			<time>2013-12-29T12:02:54Z</time>
		</trkpt>
		<trkpt lat="39.5802345275879" lon="2.57230305671692">
			<ele>366.799987792969</ele>
			<time>2013-12-29T12:02:56Z</time>
		</trkpt>
		<trkpt lat="39.5802154541016" lon="2.57223653793335">
			<ele>367.200012207031</ele>
			<time>2013-12-29T12:02:58Z</time>
		</trkpt>
		<trkpt lat="39.5802001953125" lon="2.57217311859131">
			<ele>367.200012207031</ele>
			<time>2013-12-29T12:03:00Z</time>
		</trkpt>
		<trkpt lat="39.5801811218262" lon="2.57210898399353">
			<ele>367.5</ele>
			<time>2013-12-29T12:03:02Z</time>
		</trkpt>
		<trkpt lat="39.5801658630371" lon="2.5720489025116">
			<ele>367.600006103516</ele>
			<time>2013-12-29T12:03:04Z</time>
		</trkpt>
		<trkpt lat="39.5801467895508" lon="2.57198858261108">
			<ele>367.799987792969</ele>
			<time>2013-12-29T12:03:06Z</time>
		</trkpt>
		<trkpt lat="39.5801277160645" lon="2.5719268321991">
			<ele>367.899993896484</ele>
			<time>2013-12-29T12:03:08Z</time>
		</trkpt>
		<trkpt lat="39.5801124572754" lon="2.57186579704285">
			<ele>368.200012207031</ele>
			<time>2013-12-29T12:03:10Z</time>
		</trkpt>
		<trkpt lat="39.5800971984863" lon="2.5718047618866">
			<ele>368.600006103516</ele>
			<time>2013-12-29T12:03:12Z</time>
		</trkpt>
		<trkpt lat="39.5800819396973" lon="2.5717465877533">
			<ele>369</ele>
			<time>2013-12-29T12:03:14Z</time>
		</trkpt>
		<trkpt lat="39.5800628662109" lon="2.57168412208557">
			<ele>369.299987792969</ele>
			<time>2013-12-29T12:03:16Z</time>
		</trkpt>
		<trkpt lat="39.5800437927246" lon="2.57161974906921">
			<ele>369.600006103516</ele>
			<time>2013-12-29T12:03:18Z</time>
		</trkpt>
		<trkpt lat="39.5800247192383" lon="2.57155609130859">
			<ele>370.200012207031</ele>
			<time>2013-12-29T12:03:20Z</time>
		</trkpt>
		<trkpt lat="39.5800132751465" lon="2.57148909568787">
			<ele>370.799987792969</ele>
			<time>2013-12-29T12:03:22Z</time>
		</trkpt>
		<trkpt lat="39.5799980163574" lon="2.57142615318298">
			<ele>370.700012207031</ele>
			<time>2013-12-29T12:03:24Z</time>
		</trkpt>
		<trkpt lat="39.5799865722656" lon="2.57136249542236">
			<ele>369.899993896484</ele>
			<time>2013-12-29T12:03:26Z</time>
		</trkpt>
		<trkpt lat="39.5799789428711" lon="2.57129859924316">
			<ele>370.700012207031</ele>
			<time>2013-12-29T12:03:28Z</time>
		</trkpt>
		<trkpt lat="39.5799674987793" lon="2.57123613357544">
			<ele>371.399993896484</ele>
			<time>2013-12-29T12:03:30Z</time>
		</trkpt>
		<trkpt lat="39.5799598693848" lon="2.57115197181702">
			<ele>370.100006103516</ele>
			<time>2013-12-29T12:03:33Z</time>
		</trkpt>
		<trkpt lat="39.5799446105957" lon="2.57107257843018">
			<ele>370.899993896484</ele>
			<time>2013-12-29T12:03:36Z</time>
		</trkpt>
		<trkpt lat="39.5799369812012" lon="2.57101488113403">
			<ele>371.600006103516</ele>
			<time>2013-12-29T12:03:38Z</time>
		</trkpt>
		<trkpt lat="39.5799331665039" lon="2.57093596458435">
			<ele>371.200012207031</ele>
			<time>2013-12-29T12:03:41Z</time>
		</trkpt>
		<trkpt lat="39.5799255371094" lon="2.57087373733521">
			<ele>367.899993896484</ele>
			<time>2013-12-29T12:03:44Z</time>
		</trkpt>
		<trkpt lat="39.5799179077148" lon="2.57080149650574">
			<ele>367.299987792969</ele>
			<time>2013-12-29T12:03:47Z</time>
		</trkpt>
		<trkpt lat="39.5799179077148" lon="2.57073044776917">
			<ele>368.899993896484</ele>
			<time>2013-12-29T12:03:50Z</time>
		</trkpt>
		<trkpt lat="39.5798988342285" lon="2.57066082954407">
			<ele>370</ele>
			<time>2013-12-29T12:03:53Z</time>
		</trkpt>
		<trkpt lat="39.579906463623" lon="2.57057929039001">
			<ele>371.200012207031</ele>
			<time>2013-12-29T12:03:57Z</time>
		</trkpt>
		<trkpt lat="39.5799255371094" lon="2.57051038742065">
			<ele>372.899993896484</ele>
			<time>2013-12-29T12:03:59Z</time>
		</trkpt>
		<trkpt lat="39.5799522399902" lon="2.57045865058899">
			<ele>373.600006103516</ele>
			<time>2013-12-29T12:04:01Z</time>
		</trkpt>
		<trkpt lat="39.5799942016602" lon="2.57043027877808">
			<ele>372.5</ele>
			<time>2013-12-29T12:04:04Z</time>
		</trkpt>
		<trkpt lat="39.5800285339355" lon="2.57037615776062">
			<ele>375.799987792969</ele>
			<time>2013-12-29T12:04:08Z</time>
		</trkpt>
		<trkpt lat="39.5800628662109" lon="2.57031416893005">
			<ele>376.299987792969</ele>
			<time>2013-12-29T12:04:11Z</time>
		</trkpt>
		<trkpt lat="39.5801048278809" lon="2.57025480270386">
			<ele>376.299987792969</ele>
			<time>2013-12-29T12:04:14Z</time>
		</trkpt>
		<trkpt lat="39.5801391601563" lon="2.57019948959351">
			<ele>375.399993896484</ele>
			<time>2013-12-29T12:04:17Z</time>
		</trkpt>
		<trkpt lat="39.5801849365234" lon="2.57014513015747">
			<ele>375.700012207031</ele>
			<time>2013-12-29T12:04:20Z</time>
		</trkpt>
		<trkpt lat="39.5802192687988" lon="2.57010698318481">
			<ele>377.200012207031</ele>
			<time>2013-12-29T12:04:23Z</time>
		</trkpt>
		<trkpt lat="39.5802612304688" lon="2.57006335258484">
			<ele>376.600006103516</ele>
			<time>2013-12-29T12:04:26Z</time>
		</trkpt>
		<trkpt lat="39.5802955627441" lon="2.5700261592865">
			<ele>376.200012207031</ele>
			<time>2013-12-29T12:04:29Z</time>
		</trkpt>
		<trkpt lat="39.5803337097168" lon="2.56997203826904">
			<ele>376.200012207031</ele>
			<time>2013-12-29T12:04:32Z</time>
		</trkpt>
		<trkpt lat="39.5803718566895" lon="2.56991076469421">
			<ele>376.899993896484</ele>
			<time>2013-12-29T12:04:35Z</time>
		</trkpt>
		<trkpt lat="39.580394744873" lon="2.56985306739807">
			<ele>377.600006103516</ele>
			<time>2013-12-29T12:04:38Z</time>
		</trkpt>
		<trkpt lat="39.5803833007813" lon="2.56978750228882">
			<ele>378.200012207031</ele>
			<time>2013-12-29T12:04:42Z</time>
		</trkpt>
		<trkpt lat="39.5803565979004" lon="2.56972599029541">
			<ele>379.899993896484</ele>
			<time>2013-12-29T12:04:45Z</time>
		</trkpt>
		<trkpt lat="39.5803260803223" lon="2.56966996192932">
			<ele>381.299987792969</ele>
			<time>2013-12-29T12:04:48Z</time>
		</trkpt>
		<trkpt lat="39.5802803039551" lon="2.56964039802551">
			<ele>382.200012207031</ele>
			<time>2013-12-29T12:04:52Z</time>
		</trkpt>
		<trkpt lat="39.5802345275879" lon="2.56960105895996">
			<ele>382.700012207031</ele>
			<time>2013-12-29T12:04:55Z</time>
		</trkpt>
		<trkpt lat="39.5801849365234" lon="2.56955242156982">
			<ele>382.200012207031</ele>
			<time>2013-12-29T12:04:59Z</time>
		</trkpt>
		<trkpt lat="39.5801467895508" lon="2.56952118873596">
			<ele>383.5</ele>
			<time>2013-12-29T12:05:02Z</time>
		</trkpt>
		<trkpt lat="39.5801124572754" lon="2.56947231292725">
			<ele>382.5</ele>
			<time>2013-12-29T12:05:05Z</time>
		</trkpt>
		<trkpt lat="39.580078125" lon="2.56942081451416">
			<ele>382.5</ele>
			<time>2013-12-29T12:05:08Z</time>
		</trkpt>
		<trkpt lat="39.5800437927246" lon="2.56937599182129">
			<ele>383</ele>
			<time>2013-12-29T12:05:11Z</time>
		</trkpt>
		<trkpt lat="39.5799980163574" lon="2.5693359375">
			<ele>383.799987792969</ele>
			<time>2013-12-29T12:05:14Z</time>
		</trkpt>
		<trkpt lat="39.579963684082" lon="2.56929683685303">
			<ele>385.200012207031</ele>
			<time>2013-12-29T12:05:17Z</time>
		</trkpt>
		<trkpt lat="39.5799293518066" lon="2.56924343109131">
			<ele>385.799987792969</ele>
			<time>2013-12-29T12:05:20Z</time>
		</trkpt>
		<trkpt lat="39.5799102783203" lon="2.56918382644653">
			<ele>387.799987792969</ele>
			<time>2013-12-29T12:05:23Z</time>
		</trkpt>
		<trkpt lat="39.5799026489258" lon="2.56911301612854">
			<ele>388.100006103516</ele>
			<time>2013-12-29T12:05:26Z</time>
		</trkpt>
		<trkpt lat="39.5798950195313" lon="2.56903862953186">
			<ele>387.5</ele>
			<time>2013-12-29T12:05:29Z</time>
		</trkpt>
		<trkpt lat="39.579906463623" lon="2.56895780563354">
			<ele>387.399993896484</ele>
			<time>2013-12-29T12:05:32Z</time>
		</trkpt>
		<trkpt lat="39.579948425293" lon="2.56888651847839">
			<ele>386.100006103516</ele>
			<time>2013-12-29T12:05:35Z</time>
		</trkpt>
		<trkpt lat="39.5799980163574" lon="2.56884813308716">
			<ele>383.700012207031</ele>
			<time>2013-12-29T12:05:38Z</time>
		</trkpt>
		<trkpt lat="39.5800552368164" lon="2.56882262229919">
			<ele>384</ele>
			<time>2013-12-29T12:05:41Z</time>
		</trkpt>
		<trkpt lat="39.5800971984863" lon="2.56878447532654">
			<ele>385</ele>
			<time>2013-12-29T12:05:44Z</time>
		</trkpt>
		<trkpt lat="39.5801544189453" lon="2.56877183914185">
			<ele>386.5</ele>
			<time>2013-12-29T12:05:47Z</time>
		</trkpt>
		<trkpt lat="39.5802040100098" lon="2.56875395774841">
			<ele>388.899993896484</ele>
			<time>2013-12-29T12:05:50Z</time>
		</trkpt>
		<trkpt lat="39.580265045166" lon="2.56872868537903">
			<ele>390.399993896484</ele>
			<time>2013-12-29T12:05:53Z</time>
		</trkpt>
		<trkpt lat="39.5803108215332" lon="2.56870579719543">
			<ele>391.299987792969</ele>
			<time>2013-12-29T12:05:55Z</time>
		</trkpt>
		<trkpt lat="39.5803565979004" lon="2.5686936378479">
			<ele>392</ele>
			<time>2013-12-29T12:05:58Z</time>
		</trkpt>
		<trkpt lat="39.5804061889648" lon="2.56868767738342">
			<ele>391.899993896484</ele>
			<time>2013-12-29T12:06:01Z</time>
		</trkpt>
		<trkpt lat="39.5804634094238" lon="2.56864523887634">
			<ele>391.600006103516</ele>
			<time>2013-12-29T12:06:05Z</time>
		</trkpt>
		<trkpt lat="39.5805168151855" lon="2.56862759590149">
			<ele>393.100006103516</ele>
			<time>2013-12-29T12:06:08Z</time>
		</trkpt>
		<trkpt lat="39.5805740356445" lon="2.56859350204468">
			<ele>393.200012207031</ele>
			<time>2013-12-29T12:06:11Z</time>
		</trkpt>
		<trkpt lat="39.5806159973145" lon="2.56856894493103">
			<ele>393.600006103516</ele>
			<time>2013-12-29T12:06:14Z</time>
		</trkpt>
		<trkpt lat="39.5806617736816" lon="2.56852626800537">
			<ele>393.600006103516</ele>
			<time>2013-12-29T12:06:18Z</time>
		</trkpt>
		<trkpt lat="39.5807037353516" lon="2.56846737861633">
			<ele>393.399993896484</ele>
			<time>2013-12-29T12:06:21Z</time>
		</trkpt>
		<trkpt lat="39.5807495117188" lon="2.56842875480652">
			<ele>392.200012207031</ele>
			<time>2013-12-29T12:06:25Z</time>
		</trkpt>
		<trkpt lat="39.5807914733887" lon="2.56840491294861">
			<ele>396.200012207031</ele>
			<time>2013-12-29T12:06:28Z</time>
		</trkpt>
		<trkpt lat="39.5808258056641" lon="2.56834101676941">
			<ele>397.5</ele>
			<time>2013-12-29T12:06:31Z</time>
		</trkpt>
		<trkpt lat="39.5808753967285" lon="2.56828856468201">
			<ele>396.700012207031</ele>
			<time>2013-12-29T12:06:34Z</time>
		</trkpt>
		<trkpt lat="39.5809020996094" lon="2.56821274757385">
			<ele>396.100006103516</ele>
			<time>2013-12-29T12:06:37Z</time>
		</trkpt>
		<trkpt lat="39.5809364318848" lon="2.56816339492798">
			<ele>395.799987792969</ele>
			<time>2013-12-29T12:06:40Z</time>
		</trkpt>
		<trkpt lat="39.5809555053711" lon="2.5681095123291">
			<ele>395.5</ele>
			<time>2013-12-29T12:06:43Z</time>
		</trkpt>
		<trkpt lat="39.580982208252" lon="2.56804037094116">
			<ele>395.5</ele>
			<time>2013-12-29T12:06:46Z</time>
		</trkpt>
		<trkpt lat="39.5810050964355" lon="2.56799077987671">
			<ele>402.200012207031</ele>
			<time>2013-12-29T12:06:50Z</time>
		</trkpt>
		<trkpt lat="39.5810432434082" lon="2.5679452419281">
			<ele>402.899993896484</ele>
			<time>2013-12-29T12:06:53Z</time>
		</trkpt>
		<trkpt lat="39.5810699462891" lon="2.56787180900574">
			<ele>401.299987792969</ele>
			<time>2013-12-29T12:06:56Z</time>
		</trkpt>
		<trkpt lat="39.5811004638672" lon="2.56780958175659">
			<ele>400.600006103516</ele>
			<time>2013-12-29T12:06:59Z</time>
		</trkpt>
		<trkpt lat="39.5811309814453" lon="2.56774997711182">
			<ele>400.700012207031</ele>
			<time>2013-12-29T12:07:02Z</time>
		</trkpt>
		<trkpt lat="39.5811576843262" lon="2.56769919395447">
			<ele>400.200012207031</ele>
			<time>2013-12-29T12:07:05Z</time>
		</trkpt>
		<trkpt lat="39.5811805725098" lon="2.56763982772827">
			<ele>400.200012207031</ele>
			<time>2013-12-29T12:07:08Z</time>
		</trkpt>
		<trkpt lat="39.5812072753906" lon="2.56756949424744">
			<ele>400.399993896484</ele>
			<time>2013-12-29T12:07:11Z</time>
		</trkpt>
		<trkpt lat="39.581241607666" lon="2.56751656532288">
			<ele>400.799987792969</ele>
			<time>2013-12-29T12:07:14Z</time>
		</trkpt>
		<trkpt lat="39.5812721252441" lon="2.56746864318848">
			<ele>401.399993896484</ele>
			<time>2013-12-29T12:07:17Z</time>
		</trkpt>
		<trkpt lat="39.5812911987305" lon="2.56740355491638">
			<ele>401.899993896484</ele>
			<time>2013-12-29T12:07:20Z</time>
		</trkpt>
		<trkpt lat="39.581298828125" lon="2.5673348903656">
			<ele>401.200012207031</ele>
			<time>2013-12-29T12:07:23Z</time>
		</trkpt>
		<trkpt lat="39.5813064575195" lon="2.56726622581482">
			<ele>401.299987792969</ele>
			<time>2013-12-29T12:07:26Z</time>
		</trkpt>
		<trkpt lat="39.5813140869141" lon="2.56720066070557">
			<ele>400.5</ele>
			<time>2013-12-29T12:07:29Z</time>
		</trkpt>
		<trkpt lat="39.5813140869141" lon="2.56711864471436">
			<ele>400.799987792969</ele>
			<time>2013-12-29T12:07:32Z</time>
		</trkpt>
		<trkpt lat="39.5813140869141" lon="2.56703591346741">
			<ele>401.399993896484</ele>
			<time>2013-12-29T12:07:35Z</time>
		</trkpt>
		<trkpt lat="39.5813140869141" lon="2.56696629524231">
			<ele>401.5</ele>
			<time>2013-12-29T12:07:38Z</time>
		</trkpt>
		<trkpt lat="39.5813293457031" lon="2.566899061203">
			<ele>402.100006103516</ele>
			<time>2013-12-29T12:07:41Z</time>
		</trkpt>
		<trkpt lat="39.5813369750977" lon="2.5668363571167">
			<ele>403</ele>
			<time>2013-12-29T12:07:44Z</time>
		</trkpt>
		<trkpt lat="39.5813407897949" lon="2.56677508354187">
			<ele>403.399993896484</ele>
			<time>2013-12-29T12:07:47Z</time>
		</trkpt>
		<trkpt lat="39.5813674926758" lon="2.56672263145447">
			<ele>402.5</ele>
			<time>2013-12-29T12:07:51Z</time>
		</trkpt>
		<trkpt lat="39.5813446044922" lon="2.56667256355286">
			<ele>405.5</ele>
			<time>2013-12-29T12:11:00Z</time>
		</trkpt>
		<trkpt lat="39.5813293457031" lon="2.56661128997803">
			<ele>407.399993896484</ele>
			<time>2013-12-29T12:11:15Z</time>
		</trkpt>
		<trkpt lat="39.5813293457031" lon="2.56653308868408">
			<ele>408.399993896484</ele>
			<time>2013-12-29T12:11:18Z</time>
		</trkpt>
		<trkpt lat="39.5813255310059" lon="2.56646585464478">
			<ele>409</ele>
			<time>2013-12-29T12:11:21Z</time>
		</trkpt>
		<trkpt lat="39.5813179016113" lon="2.56638836860657">
			<ele>409.700012207031</ele>
			<time>2013-12-29T12:11:24Z</time>
		</trkpt>
		<trkpt lat="39.5813179016113" lon="2.56630992889404">
			<ele>409.299987792969</ele>
			<time>2013-12-29T12:11:27Z</time>
		</trkpt>
		<trkpt lat="39.5813140869141" lon="2.5662477016449">
			<ele>409.100006103516</ele>
			<time>2013-12-29T12:11:30Z</time>
		</trkpt>
		<trkpt lat="39.5813140869141" lon="2.56618714332581">
			<ele>409.399993896484</ele>
			<time>2013-12-29T12:11:33Z</time>
		</trkpt>
		<trkpt lat="39.5813179016113" lon="2.56610870361328">
			<ele>409.200012207031</ele>
			<time>2013-12-29T12:11:36Z</time>
		</trkpt>
		<trkpt lat="39.5813255310059" lon="2.56603789329529">
			<ele>409.799987792969</ele>
			<time>2013-12-29T12:11:39Z</time>
		</trkpt>
		<trkpt lat="39.5813255310059" lon="2.56596612930298">
			<ele>408.700012207031</ele>
			<time>2013-12-29T12:11:42Z</time>
		</trkpt>
		<trkpt lat="39.5813598632813" lon="2.56590509414673">
			<ele>410.700012207031</ele>
			<time>2013-12-29T12:11:45Z</time>
		</trkpt>
		<trkpt lat="39.5813827514648" lon="2.56583428382874">
			<ele>411.700012207031</ele>
			<time>2013-12-29T12:11:48Z</time>
		</trkpt>
		<trkpt lat="39.5814170837402" lon="2.56576871871948">
			<ele>410.700012207031</ele>
			<time>2013-12-29T12:11:52Z</time>
		</trkpt>
		<trkpt lat="39.5814361572266" lon="2.56570911407471">
			<ele>409.5</ele>
			<time>2013-12-29T12:11:55Z</time>
		</trkpt>
		<trkpt lat="39.5814552307129" lon="2.56565070152283">
			<ele>410.100006103516</ele>
			<time>2013-12-29T12:11:58Z</time>
		</trkpt>
		<trkpt lat="39.5814743041992" lon="2.565598487854">
			<ele>410.5</ele>
			<time>2013-12-29T12:12:01Z</time>
		</trkpt>
		<trkpt lat="39.5814933776855" lon="2.56553745269775">
			<ele>411.399993896484</ele>
			<time>2013-12-29T12:12:04Z</time>
		</trkpt>
		<trkpt lat="39.5815238952637" lon="2.56548523902893">
			<ele>411.5</ele>
			<time>2013-12-29T12:12:07Z</time>
		</trkpt>
		<trkpt lat="39.58154296875" lon="2.56542801856995">
			<ele>411.100006103516</ele>
			<time>2013-12-29T12:12:10Z</time>
		</trkpt>
		<trkpt lat="39.5815696716309" lon="2.56536316871643">
			<ele>412</ele>
			<time>2013-12-29T12:12:15Z</time>
		</trkpt>
		<trkpt lat="39.5815887451172" lon="2.56529831886292">
			<ele>412.100006103516</ele>
			<time>2013-12-29T12:12:17Z</time>
		</trkpt>
		<trkpt lat="39.5816040039063" lon="2.56523752212524">
			<ele>412.899993896484</ele>
			<time>2013-12-29T12:12:20Z</time>
		</trkpt>
		<trkpt lat="39.5816230773926" lon="2.56517672538757">
			<ele>413.200012207031</ele>
			<time>2013-12-29T12:12:23Z</time>
		</trkpt>
		<trkpt lat="39.5816345214844" lon="2.5651068687439">
			<ele>413.899993896484</ele>
			<time>2013-12-29T12:12:26Z</time>
		</trkpt>
		<trkpt lat="39.5816459655762" lon="2.56503486633301">
			<ele>414.799987792969</ele>
			<time>2013-12-29T12:12:29Z</time>
		</trkpt>
		<trkpt lat="39.581657409668" lon="2.5649721622467">
			<ele>415.200012207031</ele>
			<time>2013-12-29T12:12:32Z</time>
		</trkpt>
		<trkpt lat="39.5816764831543" lon="2.56491136550903">
			<ele>413.5</ele>
			<time>2013-12-29T12:12:36Z</time>
		</trkpt>
		<trkpt lat="39.5816841125488" lon="2.56484198570251">
			<ele>413.899993896484</ele>
			<time>2013-12-29T12:12:41Z</time>
		</trkpt>
		<trkpt lat="39.5816917419434" lon="2.56478261947632">
			<ele>415.100006103516</ele>
			<time>2013-12-29T12:12:43Z</time>
		</trkpt>
		<trkpt lat="39.5817031860352" lon="2.56471657752991">
			<ele>414.5</ele>
			<time>2013-12-29T12:12:46Z</time>
		</trkpt>
		<trkpt lat="39.5817108154297" lon="2.56464838981628">
			<ele>414.600006103516</ele>
			<time>2013-12-29T12:12:49Z</time>
		</trkpt>
		<trkpt lat="39.5817337036133" lon="2.56458163261414">
			<ele>415.100006103516</ele>
			<time>2013-12-29T12:12:53Z</time>
		</trkpt>
		<trkpt lat="39.5817451477051" lon="2.56451606750488">
			<ele>416</ele>
			<time>2013-12-29T12:12:56Z</time>
		</trkpt>
		<trkpt lat="39.5817642211914" lon="2.56445646286011">
			<ele>416</ele>
			<time>2013-12-29T12:12:59Z</time>
		</trkpt>
		<trkpt lat="39.5817909240723" lon="2.56440758705139">
			<ele>416.899993896484</ele>
			<time>2013-12-29T12:13:02Z</time>
		</trkpt>
		<trkpt lat="39.5818252563477" lon="2.56436967849731">
			<ele>416.100006103516</ele>
			<time>2013-12-29T12:13:05Z</time>
		</trkpt>
		<trkpt lat="39.5818557739258" lon="2.5643196105957">
			<ele>415.5</ele>
			<time>2013-12-29T12:13:08Z</time>
		</trkpt>
		<trkpt lat="39.5818977355957" lon="2.56427574157715">
			<ele>415.200012207031</ele>
			<time>2013-12-29T12:13:11Z</time>
		</trkpt>
		<trkpt lat="39.5819320678711" lon="2.56423330307007">
			<ele>413.799987792969</ele>
			<time>2013-12-29T12:13:14Z</time>
		</trkpt>
		<trkpt lat="39.5819702148438" lon="2.56417751312256">
			<ele>415.200012207031</ele>
			<time>2013-12-29T12:13:18Z</time>
		</trkpt>
		<trkpt lat="39.5820045471191" lon="2.56413507461548">
			<ele>415.899993896484</ele>
			<time>2013-12-29T12:13:21Z</time>
		</trkpt>
		<trkpt lat="39.5820236206055" lon="2.56405925750732">
			<ele>417.399993896484</ele>
			<time>2013-12-29T12:13:25Z</time>
		</trkpt>
		<trkpt lat="39.5820159912109" lon="2.56399273872375">
			<ele>419.200012207031</ele>
			<time>2013-12-29T12:13:28Z</time>
		</trkpt>
		<trkpt lat="39.5820083618164" lon="2.56391716003418">
			<ele>420.299987792969</ele>
			<time>2013-12-29T12:13:31Z</time>
		</trkpt>
		<trkpt lat="39.5820007324219" lon="2.56385731697083">
			<ele>421.799987792969</ele>
			<time>2013-12-29T12:13:34Z</time>
		</trkpt>
		<trkpt lat="39.5819816589355" lon="2.56380152702332">
			<ele>423.399993896484</ele>
			<time>2013-12-29T12:13:37Z</time>
		</trkpt>
		<trkpt lat="39.5819625854492" lon="2.56372952461243">
			<ele>424.200012207031</ele>
			<time>2013-12-29T12:13:41Z</time>
		</trkpt>
		<trkpt lat="39.5819473266602" lon="2.56365704536438">
			<ele>425.100006103516</ele>
			<time>2013-12-29T12:13:45Z</time>
		</trkpt>
		<trkpt lat="39.5819549560547" lon="2.5635871887207">
			<ele>424.299987792969</ele>
			<time>2013-12-29T12:13:49Z</time>
		</trkpt>
		<trkpt lat="39.5819511413574" lon="2.56351709365845">
			<ele>423.700012207031</ele>
			<time>2013-12-29T12:13:53Z</time>
		</trkpt>
		<trkpt lat="39.5819702148438" lon="2.56344509124756">
			<ele>424.100006103516</ele>
			<time>2013-12-29T12:19:01Z</time>
		</trkpt>
		<trkpt lat="39.5819854736328" lon="2.56334662437439">
			<ele>424.100006103516</ele>
			<time>2013-12-29T12:19:03Z</time>
		</trkpt>
		<trkpt lat="39.5820274353027" lon="2.56326818466187">
			<ele>423.799987792969</ele>
			<time>2013-12-29T12:19:05Z</time>
		</trkpt>
		<trkpt lat="39.5820617675781" lon="2.56318092346191">
			<ele>422.799987792969</ele>
			<time>2013-12-29T12:19:07Z</time>
		</trkpt>
		<trkpt lat="39.5820846557617" lon="2.56312799453735">
			<ele>422.299987792969</ele>
			<time>2013-12-29T12:19:08Z</time>
		</trkpt>
		<trkpt lat="39.5821189880371" lon="2.56301403045654">
			<ele>422.399993896484</ele>
			<time>2013-12-29T12:19:10Z</time>
		</trkpt>
		<trkpt lat="39.5821418762207" lon="2.5629506111145">
			<ele>422.200012207031</ele>
			<time>2013-12-29T12:19:11Z</time>
		</trkpt>
		<trkpt lat="39.5821685791016" lon="2.56289529800415">
			<ele>421.700012207031</ele>
			<time>2013-12-29T12:19:12Z</time>
		</trkpt>
		<trkpt lat="39.5821990966797" lon="2.56283831596375">
			<ele>420.799987792969</ele>
			<time>2013-12-29T12:19:13Z</time>
		</trkpt>
		<trkpt lat="39.5822257995605" lon="2.56276607513428">
			<ele>420.200012207031</ele>
			<time>2013-12-29T12:19:14Z</time>
		</trkpt>
		<trkpt lat="39.5822601318359" lon="2.56269145011902">
			<ele>419.5</ele>
			<time>2013-12-29T12:19:15Z</time>
		</trkpt>
		<trkpt lat="39.5823135375977" lon="2.56262993812561">
			<ele>419.299987792969</ele>
			<time>2013-12-29T12:19:16Z</time>
		</trkpt>
		<trkpt lat="39.5823669433594" lon="2.56257796287537">
			<ele>418.899993896484</ele>
			<time>2013-12-29T12:19:17Z</time>
		</trkpt>
		<trkpt lat="39.5824127197266" lon="2.56253528594971">
			<ele>418.799987792969</ele>
			<time>2013-12-29T12:19:18Z</time>
		</trkpt>
		<trkpt lat="39.5824508666992" lon="2.56250309944153">
			<ele>418.700012207031</ele>
			<time>2013-12-29T12:19:19Z</time>
		</trkpt>
		<trkpt lat="39.5824775695801" lon="2.56243801116943">
			<ele>417</ele>
			<time>2013-12-29T12:19:21Z</time>
		</trkpt>
		<trkpt lat="39.5824699401855" lon="2.56237649917603">
			<ele>416.899993896484</ele>
			<time>2013-12-29T12:19:22Z</time>
		</trkpt>
		<trkpt lat="39.5824279785156" lon="2.56229758262634">
			<ele>416.700012207031</ele>
			<time>2013-12-29T12:19:24Z</time>
		</trkpt>
		<trkpt lat="39.5823593139648" lon="2.56236290931702">
			<ele>416.100006103516</ele>
			<time>2013-12-29T12:19:25Z</time>
		</trkpt>
		<trkpt lat="39.5822792053223" lon="2.56243491172791">
			<ele>415.5</ele>
			<time>2013-12-29T12:19:27Z</time>
		</trkpt>
		<trkpt lat="39.5822334289551" lon="2.56247782707214">
			<ele>415.200012207031</ele>
			<time>2013-12-29T12:19:28Z</time>
		</trkpt>
		<trkpt lat="39.5821876525879" lon="2.56251931190491">
			<ele>414.899993896484</ele>
			<time>2013-12-29T12:19:29Z</time>
		</trkpt>
		<trkpt lat="39.5821380615234" lon="2.56255745887756">
			<ele>415.100006103516</ele>
			<time>2013-12-29T12:19:30Z</time>
		</trkpt>
		<trkpt lat="39.5820808410645" lon="2.56259775161743">
			<ele>415.100006103516</ele>
			<time>2013-12-29T12:19:31Z</time>
		</trkpt>
		<trkpt lat="39.5820198059082" lon="2.56262874603271">
			<ele>415</ele>
			<time>2013-12-29T12:19:32Z</time>
		</trkpt>
		<trkpt lat="39.581958770752" lon="2.56268548965454">
			<ele>415</ele>
			<time>2013-12-29T12:19:33Z</time>
		</trkpt>
		<trkpt lat="39.5818977355957" lon="2.56271171569824">
			<ele>415.399993896484</ele>
			<time>2013-12-29T12:19:34Z</time>
		</trkpt>
		<trkpt lat="39.5818328857422" lon="2.56274151802063">
			<ele>414</ele>
			<time>2013-12-29T12:19:35Z</time>
		</trkpt>
		<trkpt lat="39.5817756652832" lon="2.56276941299438">
			<ele>413.899993896484</ele>
			<time>2013-12-29T12:19:36Z</time>
		</trkpt>
		<trkpt lat="39.5817184448242" lon="2.56277966499329">
			<ele>413.299987792969</ele>
			<time>2013-12-29T12:19:38Z</time>
		</trkpt>
		<trkpt lat="39.5817604064941" lon="2.56274938583374">
			<ele>413.600006103516</ele>
			<time>2013-12-29T12:19:51Z</time>
		</trkpt>
		<trkpt lat="39.581714630127" lon="2.56277751922607">
			<ele>409.799987792969</ele>
			<time>2013-12-29T12:21:31Z</time>
		</trkpt>
		<trkpt lat="39.581657409668" lon="2.56278800964355">
			<ele>409.299987792969</ele>
			<time>2013-12-29T12:21:33Z</time>
		</trkpt>
		<trkpt lat="39.5815963745117" lon="2.56279230117798">
			<ele>408.899993896484</ele>
			<time>2013-12-29T12:21:35Z</time>
		</trkpt>
		<trkpt lat="39.5815086364746" lon="2.56278967857361">
			<ele>408.799987792969</ele>
			<time>2013-12-29T12:21:37Z</time>
		</trkpt>
		<trkpt lat="39.5814628601074" lon="2.56278991699219">
			<ele>408.700012207031</ele>
			<time>2013-12-29T12:21:38Z</time>
		</trkpt>
		<trkpt lat="39.581413269043" lon="2.56278514862061">
			<ele>408.600006103516</ele>
			<time>2013-12-29T12:21:39Z</time>
		</trkpt>
		<trkpt lat="39.5813636779785" lon="2.56277966499329">
			<ele>408.100006103516</ele>
			<time>2013-12-29T12:21:40Z</time>
		</trkpt>
		<trkpt lat="39.5813102722168" lon="2.56277513504028">
			<ele>407.899993896484</ele>
			<time>2013-12-29T12:21:41Z</time>
		</trkpt>
		<trkpt lat="39.5812530517578" lon="2.5627703666687">
			<ele>407.399993896484</ele>
			<time>2013-12-29T12:21:42Z</time>
		</trkpt>
		<trkpt lat="39.5811958312988" lon="2.56276559829712">
			<ele>406.700012207031</ele>
			<time>2013-12-29T12:21:43Z</time>
		</trkpt>
		<trkpt lat="39.5811347961426" lon="2.56275343894958">
			<ele>406.600006103516</ele>
			<time>2013-12-29T12:21:44Z</time>
		</trkpt>
		<trkpt lat="39.5810737609863" lon="2.56274509429932">
			<ele>406.700012207031</ele>
			<time>2013-12-29T12:21:45Z</time>
		</trkpt>
		<trkpt lat="39.5810089111328" lon="2.56273102760315">
			<ele>406.100006103516</ele>
			<time>2013-12-29T12:21:46Z</time>
		</trkpt>
		<trkpt lat="39.5809440612793" lon="2.56271505355835">
			<ele>405.700012207031</ele>
			<time>2013-12-29T12:21:47Z</time>
		</trkpt>
		<trkpt lat="39.5808753967285" lon="2.56269645690918">
			<ele>405.700012207031</ele>
			<time>2013-12-29T12:21:48Z</time>
		</trkpt>
		<trkpt lat="39.5808067321777" lon="2.56267762184143">
			<ele>405.399993896484</ele>
			<time>2013-12-29T12:21:49Z</time>
		</trkpt>
		<trkpt lat="39.5807342529297" lon="2.56265091896057">
			<ele>405.700012207031</ele>
			<time>2013-12-29T12:21:50Z</time>
		</trkpt>
		<trkpt lat="39.5806655883789" lon="2.56262516975403">
			<ele>405.299987792969</ele>
			<time>2013-12-29T12:21:51Z</time>
		</trkpt>
		<trkpt lat="39.5806007385254" lon="2.56259822845459">
			<ele>405</ele>
			<time>2013-12-29T12:21:52Z</time>
		</trkpt>
		<trkpt lat="39.5805282592773" lon="2.56256103515625">
			<ele>404.399993896484</ele>
			<time>2013-12-29T12:21:53Z</time>
		</trkpt>
		<trkpt lat="39.5804595947266" lon="2.56252026557922">
			<ele>404.100006103516</ele>
			<time>2013-12-29T12:21:54Z</time>
		</trkpt>
		<trkpt lat="39.580394744873" lon="2.56247878074646">
			<ele>403.899993896484</ele>
			<time>2013-12-29T12:21:55Z</time>
		</trkpt>
		<trkpt lat="39.5803489685059" lon="2.56242156028748">
			<ele>403.299987792969</ele>
			<time>2013-12-29T12:21:55Z</time>
		</trkpt>
		<trkpt lat="39.5803298950195" lon="2.56233978271484">
			<ele>402.5</ele>
			<time>2013-12-29T12:21:57Z</time>
		</trkpt>
		<trkpt lat="39.5803489685059" lon="2.56225967407227">
			<ele>402.399993896484</ele>
			<time>2013-12-29T12:21:58Z</time>
		</trkpt>
		<trkpt lat="39.5803833007813" lon="2.56219220161438">
			<ele>402.200012207031</ele>
			<time>2013-12-29T12:21:59Z</time>
		</trkpt>
		<trkpt lat="39.5804252624512" lon="2.56213092803955">
			<ele>401.799987792969</ele>
			<time>2013-12-29T12:22:00Z</time>
		</trkpt>
		<trkpt lat="39.5804786682129" lon="2.56207704544067">
			<ele>401.299987792969</ele>
			<time>2013-12-29T12:22:01Z</time>
		</trkpt>
		<trkpt lat="39.5805320739746" lon="2.56202626228333">
			<ele>402.100006103516</ele>
			<time>2013-12-29T12:22:02Z</time>
		</trkpt>
		<trkpt lat="39.5805892944336" lon="2.56197261810303">
			<ele>401.5</ele>
			<time>2013-12-29T12:22:03Z</time>
		</trkpt>
		<trkpt lat="39.5806503295898" lon="2.56192994117737">
			<ele>401</ele>
			<time>2013-12-29T12:22:04Z</time>
		</trkpt>
		<trkpt lat="39.5807228088379" lon="2.56188082695007">
			<ele>400.200012207031</ele>
			<time>2013-12-29T12:22:05Z</time>
		</trkpt>
		<trkpt lat="39.5807838439941" lon="2.56183385848999">
			<ele>399.700012207031</ele>
			<time>2013-12-29T12:22:06Z</time>
		</trkpt>
		<trkpt lat="39.5808525085449" lon="2.56179809570313">
			<ele>399.799987792969</ele>
			<time>2013-12-29T12:22:07Z</time>
		</trkpt>
		<trkpt lat="39.5809288024902" lon="2.5617470741272">
			<ele>398.299987792969</ele>
			<time>2013-12-29T12:22:08Z</time>
		</trkpt>
		<trkpt lat="39.5809936523438" lon="2.56168675422668">
			<ele>397.399993896484</ele>
			<time>2013-12-29T12:22:09Z</time>
		</trkpt>
		<trkpt lat="39.5810432434082" lon="2.56162357330322">
			<ele>397.600006103516</ele>
			<time>2013-12-29T12:22:10Z</time>
		</trkpt>
		<trkpt lat="39.5810546875" lon="2.56152367591858">
			<ele>396.299987792969</ele>
			<time>2013-12-29T12:22:11Z</time>
		</trkpt>
		<trkpt lat="39.5810699462891" lon="2.56143093109131">
			<ele>396.399993896484</ele>
			<time>2013-12-29T12:22:12Z</time>
		</trkpt>
		<trkpt lat="39.5810699462891" lon="2.56135511398315">
			<ele>396.200012207031</ele>
			<time>2013-12-29T12:22:13Z</time>
		</trkpt>
		<trkpt lat="39.5811004638672" lon="2.56127524375916">
			<ele>394.200012207031</ele>
			<time>2013-12-29T12:22:15Z</time>
		</trkpt>
		<trkpt lat="39.5811614990234" lon="2.56132912635803">
			<ele>393.5</ele>
			<time>2013-12-29T12:22:16Z</time>
		</trkpt>
		<trkpt lat="39.5812034606934" lon="2.56136441230774">
			<ele>393.600006103516</ele>
			<time>2013-12-29T12:22:17Z</time>
		</trkpt>
		<trkpt lat="39.5812034606934" lon="2.56145453453064">
			<ele>392.899993896484</ele>
			<time>2013-12-29T12:22:18Z</time>
		</trkpt>
		<trkpt lat="39.5811920166016" lon="2.56153678894043">
			<ele>392.100006103516</ele>
			<time>2013-12-29T12:22:19Z</time>
		</trkpt>
		<trkpt lat="39.5811767578125" lon="2.56161570549011">
			<ele>391.899993896484</ele>
			<time>2013-12-29T12:22:20Z</time>
		</trkpt>
		<trkpt lat="39.5811576843262" lon="2.56169414520264">
			<ele>391.799987792969</ele>
			<time>2013-12-29T12:22:21Z</time>
		</trkpt>
		<trkpt lat="39.5811195373535" lon="2.56177425384521">
			<ele>392.100006103516</ele>
			<time>2013-12-29T12:22:22Z</time>
		</trkpt>
		<trkpt lat="39.5810699462891" lon="2.56184315681458">
			<ele>391.100006103516</ele>
			<time>2013-12-29T12:22:23Z</time>
		</trkpt>
		<trkpt lat="39.5810279846191" lon="2.56192398071289">
			<ele>390.700012207031</ele>
			<time>2013-12-29T12:22:24Z</time>
		</trkpt>
		<trkpt lat="39.5809898376465" lon="2.56199145317078">
			<ele>390.399993896484</ele>
			<time>2013-12-29T12:22:25Z</time>
		</trkpt>
		<trkpt lat="39.5809555053711" lon="2.56206202507019">
			<ele>390</ele>
			<time>2013-12-29T12:22:26Z</time>
		</trkpt>
		<trkpt lat="39.5809364318848" lon="2.5621280670166">
			<ele>390</ele>
			<time>2013-12-29T12:22:27Z</time>
		</trkpt>
		<trkpt lat="39.5809593200684" lon="2.56220936775208">
			<ele>389.600006103516</ele>
			<time>2013-12-29T12:22:28Z</time>
		</trkpt>
		<trkpt lat="39.580997467041" lon="2.56224083900452">
			<ele>389.799987792969</ele>
			<time>2013-12-29T12:22:29Z</time>
		</trkpt>
		<trkpt lat="39.5810585021973" lon="2.56225800514221">
			<ele>389.899993896484</ele>
			<time>2013-12-29T12:22:30Z</time>
		</trkpt>
		<trkpt lat="39.5811195373535" lon="2.56226801872253">
			<ele>389.700012207031</ele>
			<time>2013-12-29T12:22:31Z</time>
		</trkpt>
		<trkpt lat="39.581184387207" lon="2.56227540969849">
			<ele>389.299987792969</ele>
			<time>2013-12-29T12:22:32Z</time>
		</trkpt>
		<trkpt lat="39.5812492370605" lon="2.56227970123291">
			<ele>389.5</ele>
			<time>2013-12-29T12:22:33Z</time>
		</trkpt>
		<trkpt lat="39.5813217163086" lon="2.56226468086243">
			<ele>389.600006103516</ele>
			<time>2013-12-29T12:22:34Z</time>
		</trkpt>
		<trkpt lat="39.5813827514648" lon="2.56222605705261">
			<ele>388.399993896484</ele>
			<time>2013-12-29T12:22:35Z</time>
		</trkpt>
		<trkpt lat="39.5814476013184" lon="2.56220650672913">
			<ele>388.100006103516</ele>
			<time>2013-12-29T12:22:36Z</time>
		</trkpt>
		<trkpt lat="39.5815200805664" lon="2.56219458580017">
			<ele>388.200012207031</ele>
			<time>2013-12-29T12:22:37Z</time>
		</trkpt>
		<trkpt lat="39.5815963745117" lon="2.56217813491821">
			<ele>388.5</ele>
			<time>2013-12-29T12:22:38Z</time>
		</trkpt>
		<trkpt lat="39.5816535949707" lon="2.5621337890625">
			<ele>387.399993896484</ele>
			<time>2013-12-29T12:22:39Z</time>
		</trkpt>
		<trkpt lat="39.5817222595215" lon="2.5621018409729">
			<ele>387</ele>
			<time>2013-12-29T12:22:40Z</time>
		</trkpt>
		<trkpt lat="39.5817947387695" lon="2.56205201148987">
			<ele>386.600006103516</ele>
			<time>2013-12-29T12:22:41Z</time>
		</trkpt>
		<trkpt lat="39.5818328857422" lon="2.56196594238281">
			<ele>385.299987792969</ele>
			<time>2013-12-29T12:22:42Z</time>
		</trkpt>
		<trkpt lat="39.5818939208984" lon="2.56189489364624">
			<ele>385.100006103516</ele>
			<time>2013-12-29T12:22:43Z</time>
		</trkpt>
		<trkpt lat="39.5819473266602" lon="2.56182456016541">
			<ele>385.200012207031</ele>
			<time>2013-12-29T12:22:44Z</time>
		</trkpt>
		<trkpt lat="39.5820045471191" lon="2.56175589561462">
			<ele>385.399993896484</ele>
			<time>2013-12-29T12:22:45Z</time>
		</trkpt>
		<trkpt lat="39.5820693969727" lon="2.5616774559021">
			<ele>383.799987792969</ele>
			<time>2013-12-29T12:22:46Z</time>
		</trkpt>
		<trkpt lat="39.5821342468262" lon="2.56160712242126">
			<ele>383.200012207031</ele>
			<time>2013-12-29T12:22:47Z</time>
		</trkpt>
		<trkpt lat="39.5821876525879" lon="2.56154584884644">
			<ele>381.799987792969</ele>
			<time>2013-12-29T12:22:48Z</time>
		</trkpt>
		<trkpt lat="39.5822525024414" lon="2.5615074634552">
			<ele>380.399993896484</ele>
			<time>2013-12-29T12:22:49Z</time>
		</trkpt>
		<trkpt lat="39.5823860168457" lon="2.56151080131531">
			<ele>377.700012207031</ele>
			<time>2013-12-29T12:22:51Z</time>
		</trkpt>
		<trkpt lat="39.5824356079102" lon="2.56138396263123">
			<ele>378.899993896484</ele>
			<time>2013-12-29T12:22:52Z</time>
		</trkpt>
		<trkpt lat="39.5824890136719" lon="2.56132245063782">
			<ele>378.5</ele>
			<time>2013-12-29T12:22:53Z</time>
		</trkpt>
		<trkpt lat="39.58251953125" lon="2.56125426292419">
			<ele>378.799987792969</ele>
			<time>2013-12-29T12:22:54Z</time>
		</trkpt>
		<trkpt lat="39.5825119018555" lon="2.5611400604248">
			<ele>377.700012207031</ele>
			<time>2013-12-29T12:22:55Z</time>
		</trkpt>
		<trkpt lat="39.5825119018555" lon="2.56104421615601">
			<ele>377.600006103516</ele>
			<time>2013-12-29T12:22:56Z</time>
		</trkpt>
		<trkpt lat="39.5824890136719" lon="2.56094074249268">
			<ele>376.899993896484</ele>
			<time>2013-12-29T12:22:57Z</time>
		</trkpt>
		<trkpt lat="39.5824584960938" lon="2.56084537506104">
			<ele>376.399993896484</ele>
			<time>2013-12-29T12:22:58Z</time>
		</trkpt>
		<trkpt lat="39.5824279785156" lon="2.56075668334961">
			<ele>375.700012207031</ele>
			<time>2013-12-29T12:22:59Z</time>
		</trkpt>
		<trkpt lat="39.5824203491211" lon="2.56065726280212">
			<ele>375.299987792969</ele>
			<time>2013-12-29T12:23:00Z</time>
		</trkpt>
		<trkpt lat="39.5824584960938" lon="2.56056809425354">
			<ele>374.600006103516</ele>
			<time>2013-12-29T12:23:01Z</time>
		</trkpt>
		<trkpt lat="39.5824928283691" lon="2.56047940254211">
			<ele>373.799987792969</ele>
			<time>2013-12-29T12:23:02Z</time>
		</trkpt>
		<trkpt lat="39.5825500488281" lon="2.56040906906128">
			<ele>374</ele>
			<time>2013-12-29T12:23:03Z</time>
		</trkpt>
		<trkpt lat="39.5826072692871" lon="2.5603563785553">
			<ele>374.100006103516</ele>
			<time>2013-12-29T12:23:04Z</time>
		</trkpt>
		<trkpt lat="39.582691192627" lon="2.56036448478699">
			<ele>371.600006103516</ele>
			<time>2013-12-29T12:23:05Z</time>
		</trkpt>
		<trkpt lat="39.5827560424805" lon="2.5603334903717">
			<ele>371.100006103516</ele>
			<time>2013-12-29T12:23:06Z</time>
		</trkpt>
		<trkpt lat="39.5828399658203" lon="2.56030917167664">
			<ele>370.799987792969</ele>
			<time>2013-12-29T12:23:07Z</time>
		</trkpt>
		<trkpt lat="39.5829200744629" lon="2.56026673316956">
			<ele>370.399993896484</ele>
			<time>2013-12-29T12:23:08Z</time>
		</trkpt>
		<trkpt lat="39.5829963684082" lon="2.56022715568542">
			<ele>370.200012207031</ele>
			<time>2013-12-29T12:23:09Z</time>
		</trkpt>
		<trkpt lat="39.5830726623535" lon="2.56019282341003">
			<ele>370.100006103516</ele>
			<time>2013-12-29T12:23:10Z</time>
		</trkpt>
		<trkpt lat="39.5831413269043" lon="2.56014442443848">
			<ele>369.700012207031</ele>
			<time>2013-12-29T12:23:11Z</time>
		</trkpt>
		<trkpt lat="39.5832214355469" lon="2.5601007938385">
			<ele>369.799987792969</ele>
			<time>2013-12-29T12:23:12Z</time>
		</trkpt>
		<trkpt lat="39.583309173584" lon="2.56011319160461">
			<ele>369.200012207031</ele>
			<time>2013-12-29T12:23:13Z</time>
		</trkpt>
		<trkpt lat="39.5833892822266" lon="2.56011438369751">
			<ele>369.299987792969</ele>
			<time>2013-12-29T12:23:14Z</time>
		</trkpt>
		<trkpt lat="39.5834693908691" lon="2.56012988090515">
			<ele>369.399993896484</ele>
			<time>2013-12-29T12:23:15Z</time>
		</trkpt>
		<trkpt lat="39.583553314209" lon="2.56015348434448">
			<ele>369.200012207031</ele>
			<time>2013-12-29T12:23:16Z</time>
		</trkpt>
		<trkpt lat="39.5836219787598" lon="2.56017732620239">
			<ele>368.799987792969</ele>
			<time>2013-12-29T12:23:17Z</time>
		</trkpt>
		<trkpt lat="39.5836982727051" lon="2.56020379066467">
			<ele>368.799987792969</ele>
			<time>2013-12-29T12:23:18Z</time>
		</trkpt>
		<trkpt lat="39.5837707519531" lon="2.56023550033569">
			<ele>369</ele>
			<time>2013-12-29T12:23:19Z</time>
		</trkpt>
		<trkpt lat="39.5838470458984" lon="2.56026029586792">
			<ele>369</ele>
			<time>2013-12-29T12:23:20Z</time>
		</trkpt>
		<trkpt lat="39.5839233398438" lon="2.56028366088867">
			<ele>369.299987792969</ele>
			<time>2013-12-29T12:23:21Z</time>
		</trkpt>
		<trkpt lat="39.5839920043945" lon="2.56030106544495">
			<ele>368.700012207031</ele>
			<time>2013-12-29T12:23:22Z</time>
		</trkpt>
		<trkpt lat="39.5840606689453" lon="2.56032109260559">
			<ele>368.399993896484</ele>
			<time>2013-12-29T12:23:23Z</time>
		</trkpt>
		<trkpt lat="39.5841369628906" lon="2.5603346824646">
			<ele>368.399993896484</ele>
			<time>2013-12-29T12:23:24Z</time>
		</trkpt>
		<trkpt lat="39.5842094421387" lon="2.56035137176514">
			<ele>368.399993896484</ele>
			<time>2013-12-29T12:23:25Z</time>
		</trkpt>
		<trkpt lat="39.5842781066895" lon="2.56036615371704">
			<ele>368.600006103516</ele>
			<time>2013-12-29T12:23:26Z</time>
		</trkpt>
		<trkpt lat="39.5843658447266" lon="2.56035614013672">
			<ele>367.200012207031</ele>
			<time>2013-12-29T12:23:27Z</time>
		</trkpt>
		<trkpt lat="39.5844421386719" lon="2.5603654384613">
			<ele>366.899993896484</ele>
			<time>2013-12-29T12:23:28Z</time>
		</trkpt>
		<trkpt lat="39.5845222473145" lon="2.56037211418152">
			<ele>366.200012207031</ele>
			<time>2013-12-29T12:23:29Z</time>
		</trkpt>
		<trkpt lat="39.5845985412598" lon="2.56039786338806">
			<ele>366</ele>
			<time>2013-12-29T12:23:30Z</time>
		</trkpt>
		<trkpt lat="39.5846748352051" lon="2.56042981147766">
			<ele>365.5</ele>
			<time>2013-12-29T12:23:31Z</time>
		</trkpt>
		<trkpt lat="39.5847473144531" lon="2.56044411659241">
			<ele>364.600006103516</ele>
			<time>2013-12-29T12:23:32Z</time>
		</trkpt>
		<trkpt lat="39.5848197937012" lon="2.56046414375305">
			<ele>364.100006103516</ele>
			<time>2013-12-29T12:23:33Z</time>
		</trkpt>
		<trkpt lat="39.5848808288574" lon="2.56049299240112">
			<ele>363.5</ele>
			<time>2013-12-29T12:23:34Z</time>
		</trkpt>
		<trkpt lat="39.5849304199219" lon="2.56057500839233">
			<ele>362.5</ele>
			<time>2013-12-29T12:23:35Z</time>
		</trkpt>
		<trkpt lat="39.5849685668945" lon="2.56065249443054">
			<ele>361.399993896484</ele>
			<time>2013-12-29T12:23:36Z</time>
		</trkpt>
		<trkpt lat="39.5849838256836" lon="2.5607225894928">
			<ele>360.700012207031</ele>
			<time>2013-12-29T12:23:37Z</time>
		</trkpt>
		<trkpt lat="39.5849952697754" lon="2.56081056594849">
			<ele>360.5</ele>
			<time>2013-12-29T12:23:38Z</time>
		</trkpt>
		<trkpt lat="39.5850028991699" lon="2.56089043617249">
			<ele>359.899993896484</ele>
			<time>2013-12-29T12:23:39Z</time>
		</trkpt>
		<trkpt lat="39.5850105285645" lon="2.5609655380249">
			<ele>359.200012207031</ele>
			<time>2013-12-29T12:23:40Z</time>
		</trkpt>
		<trkpt lat="39.5850296020508" lon="2.56104707717896">
			<ele>358.899993896484</ele>
			<time>2013-12-29T12:23:41Z</time>
		</trkpt>
		<trkpt lat="39.585090637207" lon="2.56109738349915">
			<ele>357.200012207031</ele>
			<time>2013-12-29T12:23:42Z</time>
		</trkpt>
		<trkpt lat="39.585132598877" lon="2.56114792823792">
			<ele>356.899993896484</ele>
			<time>2013-12-29T12:23:43Z</time>
		</trkpt>
		<trkpt lat="39.5852088928223" lon="2.56115770339966">
			<ele>356.399993896484</ele>
			<time>2013-12-29T12:23:44Z</time>
		</trkpt>
		<trkpt lat="39.585277557373" lon="2.56118083000183">
			<ele>356.100006103516</ele>
			<time>2013-12-29T12:23:45Z</time>
		</trkpt>
		<trkpt lat="39.5853424072266" lon="2.56118083000183">
			<ele>355.899993896484</ele>
			<time>2013-12-29T12:23:46Z</time>
		</trkpt>
		<trkpt lat="39.5854110717773" lon="2.56118512153625">
			<ele>356.200012207031</ele>
			<time>2013-12-29T12:23:47Z</time>
		</trkpt>
		<trkpt lat="39.5854759216309" lon="2.56118702888489">
			<ele>356.5</ele>
			<time>2013-12-29T12:23:48Z</time>
		</trkpt>
		<trkpt lat="39.5855369567871" lon="2.56119203567505">
			<ele>356.399993896484</ele>
			<time>2013-12-29T12:23:49Z</time>
		</trkpt>
		<trkpt lat="39.5855979919434" lon="2.56121397018433">
			<ele>356.100006103516</ele>
			<time>2013-12-29T12:23:50Z</time>
		</trkpt>
		<trkpt lat="39.5856590270996" lon="2.56123065948486">
			<ele>356.100006103516</ele>
			<time>2013-12-29T12:23:51Z</time>
		</trkpt>
		<trkpt lat="39.5857162475586" lon="2.56124877929688">
			<ele>356.399993896484</ele>
			<time>2013-12-29T12:23:52Z</time>
		</trkpt>
		<trkpt lat="39.5857734680176" lon="2.5612781047821">
			<ele>356.5</ele>
			<time>2013-12-29T12:23:53Z</time>
		</trkpt>
		<trkpt lat="39.5858345031738" lon="2.56131434440613">
			<ele>356.799987792969</ele>
			<time>2013-12-29T12:23:54Z</time>
		</trkpt>
		<trkpt lat="39.5858879089355" lon="2.56135606765747">
			<ele>356.899993896484</ele>
			<time>2013-12-29T12:23:55Z</time>
		</trkpt>
		<trkpt lat="39.5859489440918" lon="2.56139445304871">
			<ele>356.399993896484</ele>
			<time>2013-12-29T12:23:56Z</time>
		</trkpt>
		<trkpt lat="39.5860061645508" lon="2.56142663955688">
			<ele>356.399993896484</ele>
			<time>2013-12-29T12:23:57Z</time>
		</trkpt>
		<trkpt lat="39.5860595703125" lon="2.56147003173828">
			<ele>356.700012207031</ele>
			<time>2013-12-29T12:23:58Z</time>
		</trkpt>
		<trkpt lat="39.5861015319824" lon="2.5615291595459">
			<ele>357.299987792969</ele>
			<time>2013-12-29T12:23:59Z</time>
		</trkpt>
		<trkpt lat="39.5861015319824" lon="2.56162714958191">
			<ele>356.799987792969</ele>
			<time>2013-12-29T12:24:00Z</time>
		</trkpt>
		<trkpt lat="39.5861206054688" lon="2.56170392036438">
			<ele>356.700012207031</ele>
			<time>2013-12-29T12:24:01Z</time>
		</trkpt>
		<trkpt lat="39.5861778259277" lon="2.56174850463867">
			<ele>356.399993896484</ele>
			<time>2013-12-29T12:24:02Z</time>
		</trkpt>
		<trkpt lat="39.5862236022949" lon="2.56178998947144">
			<ele>356</ele>
			<time>2013-12-29T12:24:03Z</time>
		</trkpt>
		<trkpt lat="39.5862731933594" lon="2.56177759170532">
			<ele>355.799987792969</ele>
			<time>2013-12-29T12:24:05Z</time>
		</trkpt>
		<trkpt lat="39.5863342285156" lon="2.5616443157196">
			<ele>356.100006103516</ele>
			<time>2013-12-29T12:24:06Z</time>
		</trkpt>
		<trkpt lat="39.586368560791" lon="2.5615496635437">
			<ele>355.100006103516</ele>
			<time>2013-12-29T12:24:07Z</time>
		</trkpt>
		<trkpt lat="39.5863838195801" lon="2.56142687797546">
			<ele>355.399993896484</ele>
			<time>2013-12-29T12:24:08Z</time>
		</trkpt>
		<trkpt lat="39.5863952636719" lon="2.561283826828">
			<ele>353.100006103516</ele>
			<time>2013-12-29T12:24:09Z</time>
		</trkpt>
		<trkpt lat="39.5864219665527" lon="2.56117701530457">
			<ele>352.600006103516</ele>
			<time>2013-12-29T12:24:10Z</time>
		</trkpt>
		<trkpt lat="39.5864868164063" lon="2.56109666824341">
			<ele>351.299987792969</ele>
			<time>2013-12-29T12:24:11Z</time>
		</trkpt>
		<trkpt lat="39.5865478515625" lon="2.56100296974182">
			<ele>350.600006103516</ele>
			<time>2013-12-29T12:24:12Z</time>
		</trkpt>
		<trkpt lat="39.5866050720215" lon="2.5609085559845">
			<ele>350.899993896484</ele>
			<time>2013-12-29T12:24:13Z</time>
		</trkpt>
		<trkpt lat="39.5866584777832" lon="2.56081700325012">
			<ele>350.899993896484</ele>
			<time>2013-12-29T12:24:14Z</time>
		</trkpt>
		<trkpt lat="39.5867233276367" lon="2.56072688102722">
			<ele>351.299987792969</ele>
			<time>2013-12-29T12:24:15Z</time>
		</trkpt>
		<trkpt lat="39.5867919921875" lon="2.56063389778137">
			<ele>351.899993896484</ele>
			<time>2013-12-29T12:24:16Z</time>
		</trkpt>
		<trkpt lat="39.5868606567383" lon="2.5605456829071">
			<ele>352.200012207031</ele>
			<time>2013-12-29T12:24:17Z</time>
		</trkpt>
		<trkpt lat="39.5869216918945" lon="2.56046509742737">
			<ele>351.700012207031</ele>
			<time>2013-12-29T12:24:18Z</time>
		</trkpt>
		<trkpt lat="39.5869827270508" lon="2.560387134552">
			<ele>351.600006103516</ele>
			<time>2013-12-29T12:24:19Z</time>
		</trkpt>
		<trkpt lat="39.5870246887207" lon="2.56029915809631">
			<ele>351.700012207031</ele>
			<time>2013-12-29T12:24:20Z</time>
		</trkpt>
		<trkpt lat="39.5870666503906" lon="2.56023979187012">
			<ele>351.299987792969</ele>
			<time>2013-12-29T12:24:21Z</time>
		</trkpt>
		<trkpt lat="39.587043762207" lon="2.56015300750732">
			<ele>350.299987792969</ele>
			<time>2013-12-29T12:24:22Z</time>
		</trkpt>
		<trkpt lat="39.5869903564453" lon="2.5600950717926">
			<ele>349.100006103516</ele>
			<time>2013-12-29T12:24:23Z</time>
		</trkpt>
		<trkpt lat="39.5869407653809" lon="2.56005501747131">
			<ele>349.299987792969</ele>
			<time>2013-12-29T12:24:24Z</time>
		</trkpt>
		<trkpt lat="39.5868797302246" lon="2.56013798713684">
			<ele>348.700012207031</ele>
			<time>2013-12-29T12:24:25Z</time>
		</trkpt>
		<trkpt lat="39.5868339538574" lon="2.56020307540894">
			<ele>347.799987792969</ele>
			<time>2013-12-29T12:24:26Z</time>
		</trkpt>
		<trkpt lat="39.5867919921875" lon="2.56026649475098">
			<ele>347.100006103516</ele>
			<time>2013-12-29T12:24:27Z</time>
		</trkpt>
		<trkpt lat="39.5867538452148" lon="2.5603358745575">
			<ele>346.899993896484</ele>
			<time>2013-12-29T12:24:28Z</time>
		</trkpt>
		<trkpt lat="39.5867118835449" lon="2.56039977073669">
			<ele>346.700012207031</ele>
			<time>2013-12-29T12:24:29Z</time>
		</trkpt>
		<trkpt lat="39.5866737365723" lon="2.56046319007874">
			<ele>346.600006103516</ele>
			<time>2013-12-29T12:24:30Z</time>
		</trkpt>
		<trkpt lat="39.5866317749023" lon="2.5605149269104">
			<ele>346.100006103516</ele>
			<time>2013-12-29T12:24:31Z</time>
		</trkpt>
		<trkpt lat="39.5865859985352" lon="2.56055593490601">
			<ele>345.700012207031</ele>
			<time>2013-12-29T12:24:32Z</time>
		</trkpt>
		<trkpt lat="39.5865325927734" lon="2.56058311462402">
			<ele>345.299987792969</ele>
			<time>2013-12-29T12:24:33Z</time>
		</trkpt>
		<trkpt lat="39.5864715576172" lon="2.56058502197266">
			<ele>345.299987792969</ele>
			<time>2013-12-29T12:24:34Z</time>
		</trkpt>
		<trkpt lat="39.5864143371582" lon="2.56056022644043">
			<ele>344.700012207031</ele>
			<time>2013-12-29T12:24:35Z</time>
		</trkpt>
		<trkpt lat="39.5863723754883" lon="2.5605092048645">
			<ele>344.299987792969</ele>
			<time>2013-12-29T12:24:36Z</time>
		</trkpt>
		<trkpt lat="39.5863494873047" lon="2.56043863296509">
			<ele>344</ele>
			<time>2013-12-29T12:24:37Z</time>
		</trkpt>
		<trkpt lat="39.5863265991211" lon="2.56036496162415">
			<ele>343.299987792969</ele>
			<time>2013-12-29T12:24:38Z</time>
		</trkpt>
		<trkpt lat="39.586296081543" lon="2.56029438972473">
			<ele>342.700012207031</ele>
			<time>2013-12-29T12:24:39Z</time>
		</trkpt>
		<trkpt lat="39.5862579345703" lon="2.56023287773132">
			<ele>342.700012207031</ele>
			<time>2013-12-29T12:24:40Z</time>
		</trkpt>
		<trkpt lat="39.5862083435059" lon="2.56018853187561">
			<ele>342.799987792969</ele>
			<time>2013-12-29T12:24:41Z</time>
		</trkpt>
		<trkpt lat="39.5861473083496" lon="2.56015396118164">
			<ele>342.700012207031</ele>
			<time>2013-12-29T12:24:42Z</time>
		</trkpt>
		<trkpt lat="39.5860824584961" lon="2.56011700630188">
			<ele>341.899993896484</ele>
			<time>2013-12-29T12:24:43Z</time>
		</trkpt>
		<trkpt lat="39.5860214233398" lon="2.56009364128113">
			<ele>341.600006103516</ele>
			<time>2013-12-29T12:24:44Z</time>
		</trkpt>
		<trkpt lat="39.5859603881836" lon="2.56004071235657">
			<ele>341.5</ele>
			<time>2013-12-29T12:24:45Z</time>
		</trkpt>
		<trkpt lat="39.5859184265137" lon="2.55996155738831">
			<ele>341</ele>
			<time>2013-12-29T12:24:46Z</time>
		</trkpt>
		<trkpt lat="39.5859527587891" lon="2.55986952781677">
			<ele>339.399993896484</ele>
			<time>2013-12-29T12:24:47Z</time>
		</trkpt>
		<trkpt lat="39.5860061645508" lon="2.55980849266052">
			<ele>338.100006103516</ele>
			<time>2013-12-29T12:24:48Z</time>
		</trkpt>
		<trkpt lat="39.586067199707" lon="2.55981492996216">
			<ele>337.600006103516</ele>
			<time>2013-12-29T12:24:49Z</time>
		</trkpt>
		<trkpt lat="39.5861282348633" lon="2.55983352661133">
			<ele>338.100006103516</ele>
			<time>2013-12-29T12:24:50Z</time>
		</trkpt>
		<trkpt lat="39.5861358642578" lon="2.55993175506592">
			<ele>336.600006103516</ele>
			<time>2013-12-29T12:24:51Z</time>
		</trkpt>
		<trkpt lat="39.5861701965332" lon="2.55999898910522">
			<ele>337.100006103516</ele>
			<time>2013-12-29T12:24:52Z</time>
		</trkpt>
		<trkpt lat="39.5862236022949" lon="2.5600323677063">
			<ele>336.899993896484</ele>
			<time>2013-12-29T12:24:53Z</time>
		</trkpt>
		<trkpt lat="39.5862731933594" lon="2.56004691123962">
			<ele>336.899993896484</ele>
			<time>2013-12-29T12:24:54Z</time>
		</trkpt>
		<trkpt lat="39.5863456726074" lon="2.55998420715332">
			<ele>337.100006103516</ele>
			<time>2013-12-29T12:24:55Z</time>
		</trkpt>
		<trkpt lat="39.5864067077637" lon="2.55995607376099">
			<ele>336.100006103516</ele>
			<time>2013-12-29T12:24:56Z</time>
		</trkpt>
		<trkpt lat="39.5864524841309" lon="2.55987787246704">
			<ele>336.100006103516</ele>
			<time>2013-12-29T12:24:57Z</time>
		</trkpt>
		<trkpt lat="39.5865020751953" lon="2.5598132610321">
			<ele>335.799987792969</ele>
			<time>2013-12-29T12:24:58Z</time>
		</trkpt>
		<trkpt lat="39.5865097045898" lon="2.55971646308899">
			<ele>335.600006103516</ele>
			<time>2013-12-29T12:24:59Z</time>
		</trkpt>
		<trkpt lat="39.5865211486816" lon="2.55962920188904">
			<ele>335.700012207031</ele>
			<time>2013-12-29T12:25:00Z</time>
		</trkpt>
		<trkpt lat="39.5865173339844" lon="2.55952954292297">
			<ele>335.5</ele>
			<time>2013-12-29T12:25:01Z</time>
		</trkpt>
		<trkpt lat="39.5865020751953" lon="2.55944156646729">
			<ele>335.700012207031</ele>
			<time>2013-12-29T12:25:02Z</time>
		</trkpt>
		<trkpt lat="39.5865211486816" lon="2.55933523178101">
			<ele>333</ele>
			<time>2013-12-29T12:25:03Z</time>
		</trkpt>
		<trkpt lat="39.5865097045898" lon="2.55923771858215">
			<ele>333.100006103516</ele>
			<time>2013-12-29T12:25:04Z</time>
		</trkpt>
		<trkpt lat="39.5865097045898" lon="2.55914497375488">
			<ele>332.700012207031</ele>
			<time>2013-12-29T12:25:05Z</time>
		</trkpt>
		<trkpt lat="39.5865325927734" lon="2.55903553962708">
			<ele>332.100006103516</ele>
			<time>2013-12-29T12:25:06Z</time>
		</trkpt>
		<trkpt lat="39.5865516662598" lon="2.55896162986755">
			<ele>331.399993896484</ele>
			<time>2013-12-29T12:25:07Z</time>
		</trkpt>
		<trkpt lat="39.5865631103516" lon="2.55887508392334">
			<ele>330.799987792969</ele>
			<time>2013-12-29T12:25:08Z</time>
		</trkpt>
		<trkpt lat="39.5865325927734" lon="2.55879330635071">
			<ele>331.700012207031</ele>
			<time>2013-12-29T12:25:09Z</time>
		</trkpt>
		<trkpt lat="39.586540222168" lon="2.55870771408081">
			<ele>331</ele>
			<time>2013-12-29T12:25:10Z</time>
		</trkpt>
		<trkpt lat="39.5865516662598" lon="2.55862021446228">
			<ele>330.600006103516</ele>
			<time>2013-12-29T12:25:11Z</time>
		</trkpt>
		<trkpt lat="39.5865669250488" lon="2.55853652954102">
			<ele>330.299987792969</ele>
			<time>2013-12-29T12:25:12Z</time>
		</trkpt>
		<trkpt lat="39.5865821838379" lon="2.55844235420227">
			<ele>330.5</ele>
			<time>2013-12-29T12:25:13Z</time>
		</trkpt>
		<trkpt lat="39.5866050720215" lon="2.55835294723511">
			<ele>329.899993896484</ele>
			<time>2013-12-29T12:25:14Z</time>
		</trkpt>
		<trkpt lat="39.5866394042969" lon="2.55826854705811">
			<ele>329.299987792969</ele>
			<time>2013-12-29T12:25:15Z</time>
		</trkpt>
		<trkpt lat="39.5866775512695" lon="2.55819940567017">
			<ele>329.399993896484</ele>
			<time>2013-12-29T12:25:16Z</time>
		</trkpt>
		<trkpt lat="39.5867118835449" lon="2.55812406539917">
			<ele>329.399993896484</ele>
			<time>2013-12-29T12:25:17Z</time>
		</trkpt>
		<trkpt lat="39.586742401123" lon="2.55805563926697">
			<ele>329.5</ele>
			<time>2013-12-29T12:25:18Z</time>
		</trkpt>
		<trkpt lat="39.5867767333984" lon="2.55799579620361">
			<ele>329.399993896484</ele>
			<time>2013-12-29T12:25:19Z</time>
		</trkpt>
		<trkpt lat="39.5868110656738" lon="2.55791234970093">
			<ele>329.200012207031</ele>
			<time>2013-12-29T12:25:20Z</time>
		</trkpt>
		<trkpt lat="39.586841583252" lon="2.55784559249878">
			<ele>329.399993896484</ele>
			<time>2013-12-29T12:25:21Z</time>
		</trkpt>
		<trkpt lat="39.5868721008301" lon="2.55777359008789">
			<ele>329.399993896484</ele>
			<time>2013-12-29T12:25:22Z</time>
		</trkpt>
		<trkpt lat="39.5869102478027" lon="2.55770492553711">
			<ele>329.200012207031</ele>
			<time>2013-12-29T12:25:23Z</time>
		</trkpt>
		<trkpt lat="39.5869407653809" lon="2.55762577056885">
			<ele>328.799987792969</ele>
			<time>2013-12-29T12:25:24Z</time>
		</trkpt>
		<trkpt lat="39.5869789123535" lon="2.55755162239075">
			<ele>328.600006103516</ele>
			<time>2013-12-29T12:25:25Z</time>
		</trkpt>
		<trkpt lat="39.5869941711426" lon="2.55746054649353">
			<ele>328.5</ele>
			<time>2013-12-29T12:25:26Z</time>
		</trkpt>
		<trkpt lat="39.5869674682617" lon="2.55736708641052">
			<ele>327.100006103516</ele>
			<time>2013-12-29T12:25:27Z</time>
		</trkpt>
		<trkpt lat="39.5869636535645" lon="2.55728578567505">
			<ele>326.700012207031</ele>
			<time>2013-12-29T12:25:28Z</time>
		</trkpt>
		<trkpt lat="39.5869522094727" lon="2.55719447135925">
			<ele>326.200012207031</ele>
			<time>2013-12-29T12:25:29Z</time>
		</trkpt>
		<trkpt lat="39.5869483947754" lon="2.55709910392761">
			<ele>325.200012207031</ele>
			<time>2013-12-29T12:25:30Z</time>
		</trkpt>
		<trkpt lat="39.5869636535645" lon="2.5569965839386">
			<ele>324.899993896484</ele>
			<time>2013-12-29T12:25:31Z</time>
		</trkpt>
		<trkpt lat="39.5869979858398" lon="2.55689787864685">
			<ele>324</ele>
			<time>2013-12-29T12:25:32Z</time>
		</trkpt>
		<trkpt lat="39.5870513916016" lon="2.55680751800537">
			<ele>323.100006103516</ele>
			<time>2013-12-29T12:25:33Z</time>
		</trkpt>
		<trkpt lat="39.5871086120605" lon="2.55673098564148">
			<ele>322.5</ele>
			<time>2013-12-29T12:25:34Z</time>
		</trkpt>
		<trkpt lat="39.5871734619141" lon="2.55666136741638">
			<ele>322</ele>
			<time>2013-12-29T12:25:35Z</time>
		</trkpt>
		<trkpt lat="39.5872421264648" lon="2.55660319328308">
			<ele>321.700012207031</ele>
			<time>2013-12-29T12:25:36Z</time>
		</trkpt>
		<trkpt lat="39.5873107910156" lon="2.55654358863831">
			<ele>321</ele>
			<time>2013-12-29T12:25:37Z</time>
		</trkpt>
		<trkpt lat="39.5873832702637" lon="2.55648589134216">
			<ele>320.899993896484</ele>
			<time>2013-12-29T12:25:38Z</time>
		</trkpt>
		<trkpt lat="39.5874557495117" lon="2.5564398765564">
			<ele>321.100006103516</ele>
			<time>2013-12-29T12:25:39Z</time>
		</trkpt>
		<trkpt lat="39.5875358581543" lon="2.55641770362854">
			<ele>321.5</ele>
			<time>2013-12-29T12:25:40Z</time>
		</trkpt>
		<trkpt lat="39.5876274108887" lon="2.55645203590393">
			<ele>320.5</ele>
			<time>2013-12-29T12:25:41Z</time>
		</trkpt>
		<trkpt lat="39.5877151489258" lon="2.55644202232361">
			<ele>320</ele>
			<time>2013-12-29T12:25:42Z</time>
		</trkpt>
		<trkpt lat="39.5877990722656" lon="2.55644631385803">
			<ele>319.899993896484</ele>
			<time>2013-12-29T12:25:43Z</time>
		</trkpt>
		<trkpt lat="39.5878715515137" lon="2.55646228790283">
			<ele>318.700012207031</ele>
			<time>2013-12-29T12:25:44Z</time>
		</trkpt>
		<trkpt lat="39.5879592895508" lon="2.556480884552">
			<ele>318.399993896484</ele>
			<time>2013-12-29T12:25:45Z</time>
		</trkpt>
		<trkpt lat="39.5880432128906" lon="2.55649828910828">
			<ele>318.5</ele>
			<time>2013-12-29T12:25:46Z</time>
		</trkpt>
		<trkpt lat="39.5881195068359" lon="2.55652379989624">
			<ele>317.600006103516</ele>
			<time>2013-12-29T12:25:47Z</time>
		</trkpt>
		<trkpt lat="39.5881996154785" lon="2.55654358863831">
			<ele>316.799987792969</ele>
			<time>2013-12-29T12:25:48Z</time>
		</trkpt>
		<trkpt lat="39.5882797241211" lon="2.55656218528748">
			<ele>316.700012207031</ele>
			<time>2013-12-29T12:25:49Z</time>
		</trkpt>
		<trkpt lat="39.5883598327637" lon="2.55657958984375">
			<ele>316.299987792969</ele>
			<time>2013-12-29T12:25:50Z</time>
		</trkpt>
		<trkpt lat="39.5884475708008" lon="2.55657744407654">
			<ele>315.600006103516</ele>
			<time>2013-12-29T12:25:51Z</time>
		</trkpt>
		<trkpt lat="39.5885314941406" lon="2.55658864974976">
			<ele>315.200012207031</ele>
			<time>2013-12-29T12:25:52Z</time>
		</trkpt>
		<trkpt lat="39.5886154174805" lon="2.55658173561096">
			<ele>314.600006103516</ele>
			<time>2013-12-29T12:25:53Z</time>
		</trkpt>
		<trkpt lat="39.5886993408203" lon="2.55657911300659">
			<ele>314.399993896484</ele>
			<time>2013-12-29T12:25:54Z</time>
		</trkpt>
		<trkpt lat="39.5887756347656" lon="2.55657362937927">
			<ele>314.100006103516</ele>
			<time>2013-12-29T12:25:55Z</time>
		</trkpt>
		<trkpt lat="39.5888633728027" lon="2.55658102035522">
			<ele>314.299987792969</ele>
			<time>2013-12-29T12:25:56Z</time>
		</trkpt>
		<trkpt lat="39.5889472961426" lon="2.55658221244812">
			<ele>314.200012207031</ele>
			<time>2013-12-29T12:25:57Z</time>
		</trkpt>
		<trkpt lat="39.5890312194824" lon="2.55659484863281">
			<ele>314.5</ele>
			<time>2013-12-29T12:25:58Z</time>
		</trkpt>
		<trkpt lat="39.5891189575195" lon="2.55660247802734">
			<ele>314.5</ele>
			<time>2013-12-29T12:25:59Z</time>
		</trkpt>
		<trkpt lat="39.5891914367676" lon="2.55659866333008">
			<ele>314.100006103516</ele>
			<time>2013-12-29T12:26:00Z</time>
		</trkpt>
		<trkpt lat="39.5892715454102" lon="2.55660486221313">
			<ele>314.100006103516</ele>
			<time>2013-12-29T12:26:01Z</time>
		</trkpt>
		<trkpt lat="39.5893669128418" lon="2.55661225318909">
			<ele>312.899993896484</ele>
			<time>2013-12-29T12:26:02Z</time>
		</trkpt>
		<trkpt lat="39.5894546508789" lon="2.55660438537598">
			<ele>312.5</ele>
			<time>2013-12-29T12:26:03Z</time>
		</trkpt>
		<trkpt lat="39.5895385742188" lon="2.55658411979675">
			<ele>311.399993896484</ele>
			<time>2013-12-29T12:26:04Z</time>
		</trkpt>
		<trkpt lat="39.5896186828613" lon="2.55652928352356">
			<ele>310.700012207031</ele>
			<time>2013-12-29T12:26:05Z</time>
		</trkpt>
		<trkpt lat="39.5896949768066" lon="2.55646514892578">
			<ele>310.299987792969</ele>
			<time>2013-12-29T12:26:06Z</time>
		</trkpt>
		<trkpt lat="39.5897445678711" lon="2.55636429786682">
			<ele>309.700012207031</ele>
			<time>2013-12-29T12:26:07Z</time>
		</trkpt>
		<trkpt lat="39.589786529541" lon="2.55628323554993">
			<ele>309.399993896484</ele>
			<time>2013-12-29T12:26:08Z</time>
		</trkpt>
		<trkpt lat="39.5898323059082" lon="2.55622005462646">
			<ele>309.100006103516</ele>
			<time>2013-12-29T12:26:09Z</time>
		</trkpt>
		<trkpt lat="39.5898666381836" lon="2.55617094039917">
			<ele>308.600006103516</ele>
			<time>2013-12-29T12:26:10Z</time>
		</trkpt>
		<trkpt lat="39.5899238586426" lon="2.55608797073364">
			<ele>307.600006103516</ele>
			<time>2013-12-29T12:26:12Z</time>
		</trkpt>
		<trkpt lat="39.5899620056152" lon="2.55605506896973">
			<ele>307</ele>
			<time>2013-12-29T12:26:13Z</time>
		</trkpt>
		<trkpt lat="39.5900039672852" lon="2.55607557296753">
			<ele>307.299987792969</ele>
			<time>2013-12-29T12:26:14Z</time>
		</trkpt>
		<trkpt lat="39.5900611877441" lon="2.55608344078064">
			<ele>307.5</ele>
			<time>2013-12-29T12:26:16Z</time>
		</trkpt>
		<trkpt lat="39.5901069641113" lon="2.55610036849976">
			<ele>307.299987792969</ele>
			<time>2013-12-29T12:26:18Z</time>
		</trkpt>
		<trkpt lat="39.5901527404785" lon="2.55611157417297">
			<ele>307.299987792969</ele>
			<time>2013-12-29T12:26:20Z</time>
		</trkpt>
		<trkpt lat="39.590217590332" lon="2.5561351776123">
			<ele>307.399993896484</ele>
			<time>2013-12-29T12:26:22Z</time>
		</trkpt>
		<trkpt lat="39.5902900695801" lon="2.55614471435547">
			<ele>307.700012207031</ele>
			<time>2013-12-29T12:26:26Z</time>
		</trkpt>
		<trkpt lat="39.5903472900391" lon="2.55615663528442">
			<ele>308.899993896484</ele>
			<time>2013-12-29T12:26:28Z</time>
		</trkpt>
		<trkpt lat="39.5903930664063" lon="2.55617070198059">
			<ele>308.600006103516</ele>
			<time>2013-12-29T12:26:30Z</time>
		</trkpt>
		<trkpt lat="39.5904426574707" lon="2.55618691444397">
			<ele>307.899993896484</ele>
			<time>2013-12-29T12:26:34Z</time>
		</trkpt>
		<trkpt lat="39.5905113220215" lon="2.55618381500244">
			<ele>308.799987792969</ele>
			<time>2013-12-29T12:26:36Z</time>
		</trkpt>
		<trkpt lat="39.5905723571777" lon="2.55619311332703">
			<ele>308.600006103516</ele>
			<time>2013-12-29T12:26:40Z</time>
		</trkpt>
		<trkpt lat="39.5906257629395" lon="2.55620384216309">
			<ele>308.100006103516</ele>
			<time>2013-12-29T12:26:42Z</time>
		</trkpt>
		<trkpt lat="39.5906791687012" lon="2.55621457099915">
			<ele>308.399993896484</ele>
			<time>2013-12-29T12:26:46Z</time>
		</trkpt>
		<trkpt lat="39.5907402038574" lon="2.55621528625488">
			<ele>308.700012207031</ele>
			<time>2013-12-29T12:26:48Z</time>
		</trkpt>
		<trkpt lat="39.5907936096191" lon="2.5562207698822">
			<ele>308.899993896484</ele>
			<time>2013-12-29T12:26:52Z</time>
		</trkpt>
		<trkpt lat="39.5908432006836" lon="2.55621123313904">
			<ele>309.299987792969</ele>
			<time>2013-12-29T12:26:54Z</time>
		</trkpt>
		<trkpt lat="39.5909004211426" lon="2.55624055862427">
			<ele>310</ele>
			<time>2013-12-29T12:26:57Z</time>
		</trkpt>
		<trkpt lat="39.5909614562988" lon="2.55624723434448">
			<ele>310.600006103516</ele>
			<time>2013-12-29T12:26:59Z</time>
		</trkpt>
		<trkpt lat="39.5910148620605" lon="2.55625438690186">
			<ele>310.399993896484</ele>
			<time>2013-12-29T12:27:03Z</time>
		</trkpt>
		<trkpt lat="39.591064453125" lon="2.55626463890076">
			<ele>310.5</ele>
			<time>2013-12-29T12:27:05Z</time>
		</trkpt>
		<trkpt lat="39.5911140441895" lon="2.55628371238708">
			<ele>310.399993896484</ele>
			<time>2013-12-29T12:27:09Z</time>
		</trkpt>
		<trkpt lat="39.5911598205566" lon="2.5562903881073">
			<ele>310.799987792969</ele>
			<time>2013-12-29T12:27:11Z</time>
		</trkpt>
		<trkpt lat="39.5912132263184" lon="2.55630254745483">
			<ele>311.399993896484</ele>
			<time>2013-12-29T12:27:15Z</time>
		</trkpt>
		<trkpt lat="39.5912628173828" lon="2.55631804466248">
			<ele>312</ele>
			<time>2013-12-29T12:27:17Z</time>
		</trkpt>
		<trkpt lat="39.5913124084473" lon="2.55634355545044">
			<ele>312.299987792969</ele>
			<time>2013-12-29T12:27:21Z</time>
		</trkpt>
		<trkpt lat="39.591365814209" lon="2.55638599395752">
			<ele>312.899993896484</ele>
			<time>2013-12-29T12:27:23Z</time>
		</trkpt>
		<trkpt lat="39.5914154052734" lon="2.556401014328">
			<ele>313.100006103516</ele>
			<time>2013-12-29T12:27:27Z</time>
		</trkpt>
		<trkpt lat="39.5914611816406" lon="2.55643558502197">
			<ele>313.5</ele>
			<time>2013-12-29T12:27:30Z</time>
		</trkpt>
		<trkpt lat="39.5915069580078" lon="2.5564558506012">
			<ele>314.5</ele>
			<time>2013-12-29T12:27:34Z</time>
		</trkpt>
		<trkpt lat="39.5915603637695" lon="2.55647611618042">
			<ele>314.899993896484</ele>
			<time>2013-12-29T12:27:36Z</time>
		</trkpt>
		<trkpt lat="39.5916061401367" lon="2.55651259422302">
			<ele>313.299987792969</ele>
			<time>2013-12-29T12:27:40Z</time>
		</trkpt>
		<trkpt lat="39.5916519165039" lon="2.5565345287323">
			<ele>312.899993896484</ele>
			<time>2013-12-29T12:27:43Z</time>
		</trkpt>
		<trkpt lat="39.5917015075684" lon="2.55655813217163">
			<ele>313.399993896484</ele>
			<time>2013-12-29T12:27:45Z</time>
		</trkpt>
		<trkpt lat="39.5917549133301" lon="2.55658364295959">
			<ele>314.399993896484</ele>
			<time>2013-12-29T12:27:49Z</time>
		</trkpt>
		<trkpt lat="39.5918121337891" lon="2.55661702156067">
			<ele>315.899993896484</ele>
			<time>2013-12-29T12:27:51Z</time>
		</trkpt>
		<trkpt lat="39.591869354248" lon="2.55662703514099">
			<ele>316.799987792969</ele>
			<time>2013-12-29T12:27:55Z</time>
		</trkpt>
		<trkpt lat="39.591911315918" lon="2.55665850639343">
			<ele>316.700012207031</ele>
			<time>2013-12-29T12:27:57Z</time>
		</trkpt>
		<trkpt lat="39.591968536377" lon="2.55667996406555">
			<ele>317.100006103516</ele>
			<time>2013-12-29T12:28:01Z</time>
		</trkpt>
		<trkpt lat="39.5920104980469" lon="2.55669856071472">
			<ele>318.100006103516</ele>
			<time>2013-12-29T12:28:05Z</time>
		</trkpt>
		<trkpt lat="39.5920639038086" lon="2.55672764778137">
			<ele>317.899993896484</ele>
			<time>2013-12-29T12:28:08Z</time>
		</trkpt>
		<trkpt lat="39.592113494873" lon="2.55674386024475">
			<ele>317.299987792969</ele>
			<time>2013-12-29T12:28:11Z</time>
		</trkpt>
		<trkpt lat="39.5921669006348" lon="2.55676674842834">
			<ele>316.100006103516</ele>
			<time>2013-12-29T12:28:13Z</time>
		</trkpt>
		<trkpt lat="39.5922203063965" lon="2.55677366256714">
			<ele>315.600006103516</ele>
			<time>2013-12-29T12:28:18Z</time>
		</trkpt>
		<trkpt lat="39.5922698974609" lon="2.55679130554199">
			<ele>314.899993896484</ele>
			<time>2013-12-29T12:28:20Z</time>
		</trkpt>
		<trkpt lat="39.5923271179199" lon="2.55681037902832">
			<ele>314.899993896484</ele>
			<time>2013-12-29T12:28:24Z</time>
		</trkpt>
		<trkpt lat="39.5923728942871" lon="2.55682730674744">
			<ele>315.5</ele>
			<time>2013-12-29T12:28:28Z</time>
		</trkpt>
		<trkpt lat="39.5924224853516" lon="2.55683708190918">
			<ele>315.700012207031</ele>
			<time>2013-12-29T12:28:30Z</time>
		</trkpt>
		<trkpt lat="39.592472076416" lon="2.55685186386108">
			<ele>317.5</ele>
			<time>2013-12-29T12:28:34Z</time>
		</trkpt>
		<trkpt lat="39.5925178527832" lon="2.55685234069824">
			<ele>317.899993896484</ele>
			<time>2013-12-29T12:28:36Z</time>
		</trkpt>
		<trkpt lat="39.5925674438477" lon="2.55686140060425">
			<ele>317.700012207031</ele>
			<time>2013-12-29T12:28:40Z</time>
		</trkpt>
		<trkpt lat="39.5926208496094" lon="2.55688047409058">
			<ele>316.299987792969</ele>
			<time>2013-12-29T12:28:42Z</time>
		</trkpt>
		<trkpt lat="39.5926704406738" lon="2.55689001083374">
			<ele>316.600006103516</ele>
			<time>2013-12-29T12:28:46Z</time>
		</trkpt>
		<trkpt lat="39.5927314758301" lon="2.55691003799438">
			<ele>317.100006103516</ele>
			<time>2013-12-29T12:28:50Z</time>
		</trkpt>
		<trkpt lat="39.5927772521973" lon="2.55693697929382">
			<ele>317.299987792969</ele>
			<time>2013-12-29T12:28:52Z</time>
		</trkpt>
		<trkpt lat="39.5928230285645" lon="2.55695986747742">
			<ele>317.100006103516</ele>
			<time>2013-12-29T12:28:56Z</time>
		</trkpt>
		<trkpt lat="39.5928688049316" lon="2.55698728561401">
			<ele>316.899993896484</ele>
			<time>2013-12-29T12:28:58Z</time>
		</trkpt>
		<trkpt lat="39.5929145812988" lon="2.55702519416809">
			<ele>317</ele>
			<time>2013-12-29T12:29:02Z</time>
		</trkpt>
		<trkpt lat="39.5929565429688" lon="2.5570604801178">
			<ele>317.399993896484</ele>
			<time>2013-12-29T12:29:04Z</time>
		</trkpt>
		<trkpt lat="39.5929985046387" lon="2.55710768699646">
			<ele>318.100006103516</ele>
			<time>2013-12-29T12:29:08Z</time>
		</trkpt>
		<trkpt lat="39.5930290222168" lon="2.55716776847839">
			<ele>318</ele>
			<time>2013-12-29T12:29:10Z</time>
		</trkpt>
		<trkpt lat="39.5930480957031" lon="2.55722975730896">
			<ele>317.799987792969</ele>
			<time>2013-12-29T12:29:14Z</time>
		</trkpt>
		<trkpt lat="39.5930633544922" lon="2.55728912353516">
			<ele>317.600006103516</ele>
			<time>2013-12-29T12:29:16Z</time>
		</trkpt>
		<trkpt lat="39.5930786132813" lon="2.5573627948761">
			<ele>317.600006103516</ele>
			<time>2013-12-29T12:29:20Z</time>
		</trkpt>
		<trkpt lat="39.5930786132813" lon="2.55742120742798">
			<ele>317.5</ele>
			<time>2013-12-29T12:29:23Z</time>
		</trkpt>
		<trkpt lat="39.5930786132813" lon="2.55747961997986">
			<ele>317.700012207031</ele>
			<time>2013-12-29T12:29:34Z</time>
		</trkpt>
		<trkpt lat="39.5931243896484" lon="2.55744457244873">
			<ele>317.700012207031</ele>
			<time>2013-12-29T12:29:41Z</time>
		</trkpt>
		<trkpt lat="39.5931434631348" lon="2.55738663673401">
			<ele>316.399993896484</ele>
			<time>2013-12-29T12:29:48Z</time>
		</trkpt>
		<trkpt lat="39.5931701660156" lon="2.55733585357666">
			<ele>316.100006103516</ele>
			<time>2013-12-29T12:29:55Z</time>
		</trkpt>
		<trkpt lat="39.5931243896484" lon="2.55728697776794">
			<ele>317</ele>
			<time>2013-12-29T13:09:03Z</time>
		</trkpt>
		<trkpt lat="39.5931053161621" lon="2.55733895301819">
			<ele>318.399993896484</ele>
			<time>2013-12-29T13:09:05Z</time>
		</trkpt>
		<trkpt lat="39.593090057373" lon="2.55741047859192">
			<ele>319</ele>
			<time>2013-12-29T13:09:09Z</time>
		</trkpt>
		<trkpt lat="39.593090057373" lon="2.55747485160828">
			<ele>319.299987792969</ele>
			<time>2013-12-29T13:09:11Z</time>
		</trkpt>
		<trkpt lat="39.5931015014648" lon="2.55754923820496">
			<ele>318.700012207031</ele>
			<time>2013-12-29T13:09:15Z</time>
		</trkpt>
		<trkpt lat="39.5931129455566" lon="2.55761933326721">
			<ele>319.399993896484</ele>
			<time>2013-12-29T13:09:17Z</time>
		</trkpt>
		<trkpt lat="39.593132019043" lon="2.55769944190979">
			<ele>319.200012207031</ele>
			<time>2013-12-29T13:09:19Z</time>
		</trkpt>
		<trkpt lat="39.5931510925293" lon="2.55778098106384">
			<ele>318.899993896484</ele>
			<time>2013-12-29T13:09:21Z</time>
		</trkpt>
		<trkpt lat="39.5931663513184" lon="2.55786395072937">
			<ele>318.899993896484</ele>
			<time>2013-12-29T13:09:23Z</time>
		</trkpt>
		<trkpt lat="39.5931854248047" lon="2.55794215202332">
			<ele>318.700012207031</ele>
			<time>2013-12-29T13:09:25Z</time>
		</trkpt>
		<trkpt lat="39.5932006835938" lon="2.55801868438721">
			<ele>318.799987792969</ele>
			<time>2013-12-29T13:09:27Z</time>
		</trkpt>
		<trkpt lat="39.5932083129883" lon="2.55810022354126">
			<ele>318.799987792969</ele>
			<time>2013-12-29T13:09:29Z</time>
		</trkpt>
		<trkpt lat="39.5932273864746" lon="2.55817770957947">
			<ele>318.600006103516</ele>
			<time>2013-12-29T13:09:31Z</time>
		</trkpt>
		<trkpt lat="39.5932540893555" lon="2.55826330184937">
			<ele>318.899993896484</ele>
			<time>2013-12-29T13:09:33Z</time>
		</trkpt>
		<trkpt lat="39.5932769775391" lon="2.55834150314331">
			<ele>319</ele>
			<time>2013-12-29T13:09:35Z</time>
		</trkpt>
		<trkpt lat="39.5932998657227" lon="2.55842351913452">
			<ele>319.100006103516</ele>
			<time>2013-12-29T13:09:37Z</time>
		</trkpt>
		<trkpt lat="39.5933380126953" lon="2.55850172042847">
			<ele>319</ele>
			<time>2013-12-29T13:09:39Z</time>
		</trkpt>
		<trkpt lat="39.5934028625488" lon="2.55858111381531">
			<ele>318.799987792969</ele>
			<time>2013-12-29T13:09:41Z</time>
		</trkpt>
		<trkpt lat="39.593433380127" lon="2.55862379074097">
			<ele>318.600006103516</ele>
			<time>2013-12-29T13:09:42Z</time>
		</trkpt>
		<trkpt lat="39.5934677124023" lon="2.55867004394531">
			<ele>318.799987792969</ele>
			<time>2013-12-29T13:09:43Z</time>
		</trkpt>
		<trkpt lat="39.593505859375" lon="2.55871677398682">
			<ele>318.799987792969</ele>
			<time>2013-12-29T13:09:44Z</time>
		</trkpt>
		<trkpt lat="39.5935401916504" lon="2.55876111984253">
			<ele>318.899993896484</ele>
			<time>2013-12-29T13:09:45Z</time>
		</trkpt>
		<trkpt lat="39.593578338623" lon="2.55880737304688">
			<ele>319.299987792969</ele>
			<time>2013-12-29T13:09:46Z</time>
		</trkpt>
		<trkpt lat="39.5936164855957" lon="2.55885219573975">
			<ele>318.899993896484</ele>
			<time>2013-12-29T13:09:47Z</time>
		</trkpt>
		<trkpt lat="39.5936546325684" lon="2.55890083312988">
			<ele>319</ele>
			<time>2013-12-29T13:09:48Z</time>
		</trkpt>
		<trkpt lat="39.593692779541" lon="2.55894923210144">
			<ele>318.600006103516</ele>
			<time>2013-12-29T13:09:49Z</time>
		</trkpt>
		<trkpt lat="39.5937347412109" lon="2.55899500846863">
			<ele>318.399993896484</ele>
			<time>2013-12-29T13:09:50Z</time>
		</trkpt>
		<trkpt lat="39.5937728881836" lon="2.55904102325439">
			<ele>317.899993896484</ele>
			<time>2013-12-29T13:09:51Z</time>
		</trkpt>
		<trkpt lat="39.5938186645508" lon="2.55909037590027">
			<ele>317.5</ele>
			<time>2013-12-29T13:09:52Z</time>
		</trkpt>
		<trkpt lat="39.5938606262207" lon="2.55913710594177">
			<ele>317.5</ele>
			<time>2013-12-29T13:09:53Z</time>
		</trkpt>
		<trkpt lat="39.5939064025879" lon="2.55918717384338">
			<ele>317.299987792969</ele>
			<time>2013-12-29T13:09:54Z</time>
		</trkpt>
		<trkpt lat="39.5939445495605" lon="2.55924224853516">
			<ele>316.899993896484</ele>
			<time>2013-12-29T13:09:55Z</time>
		</trkpt>
		<trkpt lat="39.5939903259277" lon="2.55929636955261">
			<ele>316.700012207031</ele>
			<time>2013-12-29T13:09:56Z</time>
		</trkpt>
		<trkpt lat="39.5940284729004" lon="2.55935144424438">
			<ele>316.399993896484</ele>
			<time>2013-12-29T13:09:57Z</time>
		</trkpt>
		<trkpt lat="39.5940704345703" lon="2.55941700935364">
			<ele>316.100006103516</ele>
			<time>2013-12-29T13:09:58Z</time>
		</trkpt>
		<trkpt lat="39.5941009521484" lon="2.55948519706726">
			<ele>315.700012207031</ele>
			<time>2013-12-29T13:09:59Z</time>
		</trkpt>
		<trkpt lat="39.5941276550293" lon="2.55956029891968">
			<ele>315.600006103516</ele>
			<time>2013-12-29T13:10:00Z</time>
		</trkpt>
		<trkpt lat="39.5941429138184" lon="2.55963754653931">
			<ele>315.200012207031</ele>
			<time>2013-12-29T13:10:01Z</time>
		</trkpt>
		<trkpt lat="39.5941581726074" lon="2.5597186088562">
			<ele>315.600006103516</ele>
			<time>2013-12-29T13:10:02Z</time>
		</trkpt>
		<trkpt lat="39.5941543579102" lon="2.55980229377747">
			<ele>314.799987792969</ele>
			<time>2013-12-29T13:10:03Z</time>
		</trkpt>
		<trkpt lat="39.5941352844238" lon="2.55987977981567">
			<ele>314.5</ele>
			<time>2013-12-29T13:10:04Z</time>
		</trkpt>
		<trkpt lat="39.5941123962402" lon="2.55995750427246">
			<ele>315</ele>
			<time>2013-12-29T13:10:05Z</time>
		</trkpt>
		<trkpt lat="39.5940856933594" lon="2.56003069877625">
			<ele>314</ele>
			<time>2013-12-29T13:10:06Z</time>
		</trkpt>
		<trkpt lat="39.5940589904785" lon="2.56011462211609">
			<ele>313.899993896484</ele>
			<time>2013-12-29T13:10:07Z</time>
		</trkpt>
		<trkpt lat="39.5940475463867" lon="2.56020188331604">
			<ele>313.600006103516</ele>
			<time>2013-12-29T13:10:08Z</time>
		</trkpt>
		<trkpt lat="39.5940551757813" lon="2.56029057502747">
			<ele>313.399993896484</ele>
			<time>2013-12-29T13:10:09Z</time>
		</trkpt>
		<trkpt lat="39.5940780639648" lon="2.56037640571594">
			<ele>313</ele>
			<time>2013-12-29T13:10:10Z</time>
		</trkpt>
		<trkpt lat="39.5941162109375" lon="2.56045317649841">
			<ele>312.700012207031</ele>
			<time>2013-12-29T13:10:11Z</time>
		</trkpt>
		<trkpt lat="39.5941696166992" lon="2.56051778793335">
			<ele>312.5</ele>
			<time>2013-12-29T13:10:12Z</time>
		</trkpt>
		<trkpt lat="39.5942306518555" lon="2.56056237220764">
			<ele>312.100006103516</ele>
			<time>2013-12-29T13:10:13Z</time>
		</trkpt>
		<trkpt lat="39.5943031311035" lon="2.56059265136719">
			<ele>311.600006103516</ele>
			<time>2013-12-29T13:10:14Z</time>
		</trkpt>
		<trkpt lat="39.5943832397461" lon="2.56060361862183">
			<ele>311</ele>
			<time>2013-12-29T13:10:15Z</time>
		</trkpt>
		<trkpt lat="39.5944595336914" lon="2.56060266494751">
			<ele>311.5</ele>
			<time>2013-12-29T13:10:16Z</time>
		</trkpt>
		<trkpt lat="39.5945434570313" lon="2.56058931350708">
			<ele>312.299987792969</ele>
			<time>2013-12-29T13:10:17Z</time>
		</trkpt>
		<trkpt lat="39.5946197509766" lon="2.56058645248413">
			<ele>313.200012207031</ele>
			<time>2013-12-29T13:10:18Z</time>
		</trkpt>
		<trkpt lat="39.5947036743164" lon="2.56059074401855">
			<ele>313.600006103516</ele>
			<time>2013-12-29T13:10:19Z</time>
		</trkpt>
		<trkpt lat="39.5947685241699" lon="2.56061124801636">
			<ele>313.600006103516</ele>
			<time>2013-12-29T13:10:20Z</time>
		</trkpt>
		<trkpt lat="39.5948715209961" lon="2.56061029434204">
			<ele>313.899993896484</ele>
			<time>2013-12-29T13:10:21Z</time>
		</trkpt>
		<trkpt lat="39.5949554443359" lon="2.56066584587097">
			<ele>309.899993896484</ele>
			<time>2013-12-29T13:10:22Z</time>
		</trkpt>
		<trkpt lat="39.5950202941895" lon="2.56069684028625">
			<ele>309.200012207031</ele>
			<time>2013-12-29T13:10:23Z</time>
		</trkpt>
		<trkpt lat="39.5951080322266" lon="2.56071758270264">
			<ele>309.399993896484</ele>
			<time>2013-12-29T13:10:24Z</time>
		</trkpt>
		<trkpt lat="39.5951995849609" lon="2.56075167655945">
			<ele>309.899993896484</ele>
			<time>2013-12-29T13:10:25Z</time>
		</trkpt>
		<trkpt lat="39.5952796936035" lon="2.56077122688293">
			<ele>310.799987792969</ele>
			<time>2013-12-29T13:10:26Z</time>
		</trkpt>
		<trkpt lat="39.5953674316406" lon="2.56079173088074">
			<ele>310.899993896484</ele>
			<time>2013-12-29T13:10:27Z</time>
		</trkpt>
		<trkpt lat="39.595458984375" lon="2.56081938743591">
			<ele>310.700012207031</ele>
			<time>2013-12-29T13:10:28Z</time>
		</trkpt>
		<trkpt lat="39.5955429077148" lon="2.56084680557251">
			<ele>310.600006103516</ele>
			<time>2013-12-29T13:10:29Z</time>
		</trkpt>
		<trkpt lat="39.5956382751465" lon="2.56090021133423">
			<ele>310.299987792969</ele>
			<time>2013-12-29T13:10:30Z</time>
		</trkpt>
		<trkpt lat="39.5956954956055" lon="2.56098103523254">
			<ele>309.600006103516</ele>
			<time>2013-12-29T13:10:31Z</time>
		</trkpt>
		<trkpt lat="39.595703125" lon="2.56107807159424">
			<ele>305.799987792969</ele>
			<time>2013-12-29T13:10:32Z</time>
		</trkpt>
		<trkpt lat="39.5957450866699" lon="2.56117033958435">
			<ele>305.100006103516</ele>
			<time>2013-12-29T13:10:33Z</time>
		</trkpt>
		<trkpt lat="39.5957679748535" lon="2.56127762794495">
			<ele>305</ele>
			<time>2013-12-29T13:10:34Z</time>
		</trkpt>
		<trkpt lat="39.5957908630371" lon="2.56137800216675">
			<ele>304.799987792969</ele>
			<time>2013-12-29T13:10:35Z</time>
		</trkpt>
		<trkpt lat="39.5958023071289" lon="2.56148719787598">
			<ele>304.399993896484</ele>
			<time>2013-12-29T13:10:36Z</time>
		</trkpt>
		<trkpt lat="39.595817565918" lon="2.56159543991089">
			<ele>305.299987792969</ele>
			<time>2013-12-29T13:10:37Z</time>
		</trkpt>
		<trkpt lat="39.595832824707" lon="2.56171178817749">
			<ele>306.100006103516</ele>
			<time>2013-12-29T13:10:38Z</time>
		</trkpt>
		<trkpt lat="39.5958442687988" lon="2.56179976463318">
			<ele>304.799987792969</ele>
			<time>2013-12-29T13:10:39Z</time>
		</trkpt>
		<trkpt lat="39.5958633422852" lon="2.56191229820251">
			<ele>304.700012207031</ele>
			<time>2013-12-29T13:10:40Z</time>
		</trkpt>
		<trkpt lat="39.5958786010742" lon="2.56201791763306">
			<ele>304.700012207031</ele>
			<time>2013-12-29T13:10:41Z</time>
		</trkpt>
		<trkpt lat="39.5958938598633" lon="2.56210350990295">
			<ele>303</ele>
			<time>2013-12-29T13:10:42Z</time>
		</trkpt>
		<trkpt lat="39.5959205627441" lon="2.56220102310181">
			<ele>302.799987792969</ele>
			<time>2013-12-29T13:10:43Z</time>
		</trkpt>
		<trkpt lat="39.5959510803223" lon="2.56228709220886">
			<ele>302</ele>
			<time>2013-12-29T13:10:44Z</time>
		</trkpt>
		<trkpt lat="39.5959854125977" lon="2.56236386299133">
			<ele>301.399993896484</ele>
			<time>2013-12-29T13:10:45Z</time>
		</trkpt>
		<trkpt lat="39.5960273742676" lon="2.56244206428528">
			<ele>301</ele>
			<time>2013-12-29T13:10:46Z</time>
		</trkpt>
		<trkpt lat="39.5960731506348" lon="2.56251978874207">
			<ele>301.200012207031</ele>
			<time>2013-12-29T13:10:47Z</time>
		</trkpt>
		<trkpt lat="39.5961227416992" lon="2.56259536743164">
			<ele>301.399993896484</ele>
			<time>2013-12-29T13:10:48Z</time>
		</trkpt>
		<trkpt lat="39.5961418151855" lon="2.56267595291138">
			<ele>299.700012207031</ele>
			<time>2013-12-29T13:10:49Z</time>
		</trkpt>
		<trkpt lat="39.5961875915527" lon="2.56276822090149">
			<ele>299.299987792969</ele>
			<time>2013-12-29T13:10:50Z</time>
		</trkpt>
		<trkpt lat="39.5962371826172" lon="2.56285285949707">
			<ele>299.299987792969</ele>
			<time>2013-12-29T13:10:51Z</time>
		</trkpt>
		<trkpt lat="39.5962791442871" lon="2.56293797492981">
			<ele>298.100006103516</ele>
			<time>2013-12-29T13:10:52Z</time>
		</trkpt>
		<trkpt lat="39.596321105957" lon="2.5630259513855">
			<ele>297.100006103516</ele>
			<time>2013-12-29T13:10:53Z</time>
		</trkpt>
		<trkpt lat="39.5963706970215" lon="2.56311178207397">
			<ele>296.5</ele>
			<time>2013-12-29T13:10:54Z</time>
		</trkpt>
		<trkpt lat="39.5964241027832" lon="2.56319975852966">
			<ele>295.600006103516</ele>
			<time>2013-12-29T13:10:55Z</time>
		</trkpt>
		<trkpt lat="39.5964736938477" lon="2.56328535079956">
			<ele>295.600006103516</ele>
			<time>2013-12-29T13:10:56Z</time>
		</trkpt>
		<trkpt lat="39.5965194702148" lon="2.56337022781372">
			<ele>295.700012207031</ele>
			<time>2013-12-29T13:10:57Z</time>
		</trkpt>
		<trkpt lat="39.5965614318848" lon="2.56346487998962">
			<ele>294.399993896484</ele>
			<time>2013-12-29T13:10:58Z</time>
		</trkpt>
		<trkpt lat="39.5966148376465" lon="2.56355381011963">
			<ele>294</ele>
			<time>2013-12-29T13:10:59Z</time>
		</trkpt>
		<trkpt lat="39.5966644287109" lon="2.56363725662231">
			<ele>293.399993896484</ele>
			<time>2013-12-29T13:11:00Z</time>
		</trkpt>
		<trkpt lat="39.5967102050781" lon="2.56372833251953">
			<ele>293</ele>
			<time>2013-12-29T13:11:01Z</time>
		</trkpt>
		<trkpt lat="39.5967636108398" lon="2.56381392478943">
			<ele>292.5</ele>
			<time>2013-12-29T13:11:02Z</time>
		</trkpt>
		<trkpt lat="39.5968246459961" lon="2.56390070915222">
			<ele>292.399993896484</ele>
			<time>2013-12-29T13:11:03Z</time>
		</trkpt>
		<trkpt lat="39.5968742370605" lon="2.56399083137512">
			<ele>291.200012207031</ele>
			<time>2013-12-29T13:11:04Z</time>
		</trkpt>
		<trkpt lat="39.5969314575195" lon="2.56407999992371">
			<ele>290.899993896484</ele>
			<time>2013-12-29T13:11:05Z</time>
		</trkpt>
		<trkpt lat="39.5969848632813" lon="2.56417393684387">
			<ele>290.899993896484</ele>
			<time>2013-12-29T13:11:06Z</time>
		</trkpt>
		<trkpt lat="39.5970420837402" lon="2.56426119804382">
			<ele>290.700012207031</ele>
			<time>2013-12-29T13:11:07Z</time>
		</trkpt>
		<trkpt lat="39.597095489502" lon="2.56436896324158">
			<ele>290.799987792969</ele>
			<time>2013-12-29T13:11:08Z</time>
		</trkpt>
		<trkpt lat="39.5971374511719" lon="2.56446743011475">
			<ele>291.399993896484</ele>
			<time>2013-12-29T13:11:09Z</time>
		</trkpt>
		<trkpt lat="39.5971832275391" lon="2.56457257270813">
			<ele>291.100006103516</ele>
			<time>2013-12-29T13:11:10Z</time>
		</trkpt>
		<trkpt lat="39.5972290039063" lon="2.56468677520752">
			<ele>291.299987792969</ele>
			<time>2013-12-29T13:11:11Z</time>
		</trkpt>
		<trkpt lat="39.597282409668" lon="2.5647873878479">
			<ele>291.399993896484</ele>
			<time>2013-12-29T13:11:12Z</time>
		</trkpt>
		<trkpt lat="39.5973205566406" lon="2.56486487388611">
			<ele>291.5</ele>
			<time>2013-12-29T13:11:13Z</time>
		</trkpt>
		<trkpt lat="39.5973777770996" lon="2.56492924690247">
			<ele>291.5</ele>
			<time>2013-12-29T13:11:14Z</time>
		</trkpt>
		<trkpt lat="39.5974388122559" lon="2.56496524810791">
			<ele>291.299987792969</ele>
			<time>2013-12-29T13:11:15Z</time>
		</trkpt>
		<trkpt lat="39.5975036621094" lon="2.56476402282715">
			<ele>290.399993896484</ele>
			<time>2013-12-29T13:11:17Z</time>
		</trkpt>
		<trkpt lat="39.5974769592285" lon="2.56465005874634">
			<ele>289.5</ele>
			<time>2013-12-29T13:11:19Z</time>
		</trkpt>
		<trkpt lat="39.5974884033203" lon="2.56456422805786">
			<ele>288.299987792969</ele>
			<time>2013-12-29T13:11:20Z</time>
		</trkpt>
		<trkpt lat="39.5974998474121" lon="2.56445693969727">
			<ele>287.899993896484</ele>
			<time>2013-12-29T13:11:21Z</time>
		</trkpt>
		<trkpt lat="39.5975227355957" lon="2.56436562538147">
			<ele>287.299987792969</ele>
			<time>2013-12-29T13:11:22Z</time>
		</trkpt>
		<trkpt lat="39.5975379943848" lon="2.56425976753235">
			<ele>288.399993896484</ele>
			<time>2013-12-29T13:11:23Z</time>
		</trkpt>
		<trkpt lat="39.5975570678711" lon="2.56418061256409">
			<ele>286.899993896484</ele>
			<time>2013-12-29T13:11:24Z</time>
		</trkpt>
		<trkpt lat="39.5975723266602" lon="2.56411337852478">
			<ele>286</ele>
			<time>2013-12-29T13:11:25Z</time>
		</trkpt>
		<trkpt lat="39.597599029541" lon="2.56405591964722">
			<ele>285.399993896484</ele>
			<time>2013-12-29T13:11:26Z</time>
		</trkpt>
		<trkpt lat="39.5976715087891" lon="2.56407809257507">
			<ele>283.799987792969</ele>
			<time>2013-12-29T13:11:27Z</time>
		</trkpt>
		<trkpt lat="39.5977363586426" lon="2.56410694122314">
			<ele>283.399993896484</ele>
			<time>2013-12-29T13:11:28Z</time>
		</trkpt>
		<trkpt lat="39.5977745056152" lon="2.56418514251709">
			<ele>283.100006103516</ele>
			<time>2013-12-29T13:11:29Z</time>
		</trkpt>
		<trkpt lat="39.5977630615234" lon="2.56430244445801">
			<ele>282.100006103516</ele>
			<time>2013-12-29T13:11:30Z</time>
		</trkpt>
		<trkpt lat="39.5977783203125" lon="2.56439423561096">
			<ele>281.899993896484</ele>
			<time>2013-12-29T13:11:31Z</time>
		</trkpt>
		<trkpt lat="39.5978050231934" lon="2.56449937820435">
			<ele>281.899993896484</ele>
			<time>2013-12-29T13:11:32Z</time>
		</trkpt>
		<trkpt lat="39.5978546142578" lon="2.56460571289063">
			<ele>280.200012207031</ele>
			<time>2013-12-29T13:11:33Z</time>
		</trkpt>
		<trkpt lat="39.5978889465332" lon="2.56471848487854">
			<ele>279.200012207031</ele>
			<time>2013-12-29T13:11:34Z</time>
		</trkpt>
		<trkpt lat="39.5979270935059" lon="2.56483483314514">
			<ele>278.399993896484</ele>
			<time>2013-12-29T13:11:35Z</time>
		</trkpt>
		<trkpt lat="39.5979652404785" lon="2.56495547294617">
			<ele>278.200012207031</ele>
			<time>2013-12-29T13:11:36Z</time>
		</trkpt>
		<trkpt lat="39.5979995727539" lon="2.56507182121277">
			<ele>277.299987792969</ele>
			<time>2013-12-29T13:11:37Z</time>
		</trkpt>
		<trkpt lat="39.5980339050293" lon="2.56519222259521">
			<ele>277</ele>
			<time>2013-12-29T13:11:38Z</time>
		</trkpt>
		<trkpt lat="39.598072052002" lon="2.56531977653503">
			<ele>276.200012207031</ele>
			<time>2013-12-29T13:11:39Z</time>
		</trkpt>
		<trkpt lat="39.5981178283691" lon="2.56543922424316">
			<ele>276.200012207031</ele>
			<time>2013-12-29T13:11:40Z</time>
		</trkpt>
		<trkpt lat="39.5981636047363" lon="2.56555485725403">
			<ele>276.200012207031</ele>
			<time>2013-12-29T13:11:41Z</time>
		</trkpt>
		<trkpt lat="39.5982437133789" lon="2.56565380096436">
			<ele>274.899993896484</ele>
			<time>2013-12-29T13:11:42Z</time>
		</trkpt>
		<trkpt lat="39.5983123779297" lon="2.565749168396">
			<ele>274.799987792969</ele>
			<time>2013-12-29T13:11:43Z</time>
		</trkpt>
		<trkpt lat="39.5983963012695" lon="2.56583404541016">
			<ele>274.600006103516</ele>
			<time>2013-12-29T13:11:44Z</time>
		</trkpt>
		<trkpt lat="39.5984840393066" lon="2.56592440605164">
			<ele>274.799987792969</ele>
			<time>2013-12-29T13:11:45Z</time>
		</trkpt>
		<trkpt lat="39.5985679626465" lon="2.56601524353027">
			<ele>275</ele>
			<time>2013-12-29T13:11:46Z</time>
		</trkpt>
		<trkpt lat="39.5986518859863" lon="2.56610608100891">
			<ele>275</ele>
			<time>2013-12-29T13:11:47Z</time>
		</trkpt>
		<trkpt lat="39.5987739562988" lon="2.56616830825806">
			<ele>273.700012207031</ele>
			<time>2013-12-29T13:11:48Z</time>
		</trkpt>
		<trkpt lat="39.598876953125" lon="2.56623697280884">
			<ele>273.399993896484</ele>
			<time>2013-12-29T13:11:49Z</time>
		</trkpt>
		<trkpt lat="39.5989761352539" lon="2.5662899017334">
			<ele>272.899993896484</ele>
			<time>2013-12-29T13:11:50Z</time>
		</trkpt>
		<trkpt lat="39.5990791320801" lon="2.56637477874756">
			<ele>272</ele>
			<time>2013-12-29T13:11:51Z</time>
		</trkpt>
		<trkpt lat="39.5991706848145" lon="2.56645536422729">
			<ele>271.700012207031</ele>
			<time>2013-12-29T13:11:52Z</time>
		</trkpt>
		<trkpt lat="39.5992469787598" lon="2.56655430793762">
			<ele>271.299987792969</ele>
			<time>2013-12-29T13:11:53Z</time>
		</trkpt>
		<trkpt lat="39.5992622375488" lon="2.56666159629822">
			<ele>270.399993896484</ele>
			<time>2013-12-29T13:11:54Z</time>
		</trkpt>
		<trkpt lat="39.5992584228516" lon="2.56678032875061">
			<ele>269.799987792969</ele>
			<time>2013-12-29T13:11:55Z</time>
		</trkpt>
		<trkpt lat="39.5992012023926" lon="2.56694364547729">
			<ele>269.399993896484</ele>
			<time>2013-12-29T13:11:56Z</time>
		</trkpt>
		<trkpt lat="39.5991973876953" lon="2.56707501411438">
			<ele>269.299987792969</ele>
			<time>2013-12-29T13:11:57Z</time>
		</trkpt>
		<trkpt lat="39.5992317199707" lon="2.56718373298645">
			<ele>269</ele>
			<time>2013-12-29T13:11:58Z</time>
		</trkpt>
		<trkpt lat="39.5993118286133" lon="2.56728053092957">
			<ele>267.700012207031</ele>
			<time>2013-12-29T13:11:59Z</time>
		</trkpt>
		<trkpt lat="39.5993728637695" lon="2.5673885345459">
			<ele>266.899993896484</ele>
			<time>2013-12-29T13:12:00Z</time>
		</trkpt>
		<trkpt lat="39.5994415283203" lon="2.56748414039612">
			<ele>266.100006103516</ele>
			<time>2013-12-29T13:12:01Z</time>
		</trkpt>
		<trkpt lat="39.599536895752" lon="2.56756448745728">
			<ele>265.899993896484</ele>
			<time>2013-12-29T13:12:02Z</time>
		</trkpt>
		<trkpt lat="39.5996208190918" lon="2.56763458251953">
			<ele>265.899993896484</ele>
			<time>2013-12-29T13:12:03Z</time>
		</trkpt>
		<trkpt lat="39.5996856689453" lon="2.56773710250854">
			<ele>265.600006103516</ele>
			<time>2013-12-29T13:12:04Z</time>
		</trkpt>
		<trkpt lat="39.5997505187988" lon="2.56782341003418">
			<ele>265.299987792969</ele>
			<time>2013-12-29T13:12:05Z</time>
		</trkpt>
		<trkpt lat="39.5998153686523" lon="2.56791257858276">
			<ele>265.399993896484</ele>
			<time>2013-12-29T13:12:06Z</time>
		</trkpt>
		<trkpt lat="39.5998878479004" lon="2.56799483299255">
			<ele>265.899993896484</ele>
			<time>2013-12-29T13:12:07Z</time>
		</trkpt>
		<trkpt lat="39.5999565124512" lon="2.568039894104">
			<ele>265.899993896484</ele>
			<time>2013-12-29T13:12:08Z</time>
		</trkpt>
		<trkpt lat="39.6000366210938" lon="2.56802582740784">
			<ele>264.600006103516</ele>
			<time>2013-12-29T13:12:09Z</time>
		</trkpt>
		<trkpt lat="39.6001281738281" lon="2.56801819801331">
			<ele>264.5</ele>
			<time>2013-12-29T13:12:10Z</time>
		</trkpt>
		<trkpt lat="39.6002311706543" lon="2.5680091381073">
			<ele>262.399993896484</ele>
			<time>2013-12-29T13:12:11Z</time>
		</trkpt>
		<trkpt lat="39.6003379821777" lon="2.56799554824829">
			<ele>261.799987792969</ele>
			<time>2013-12-29T13:12:12Z</time>
		</trkpt>
		<trkpt lat="39.6004524230957" lon="2.56797432899475">
			<ele>260.899993896484</ele>
			<time>2013-12-29T13:12:13Z</time>
		</trkpt>
		<trkpt lat="39.6005668640137" lon="2.56795310974121">
			<ele>260.600006103516</ele>
			<time>2013-12-29T13:12:14Z</time>
		</trkpt>
		<trkpt lat="39.6006774902344" lon="2.56795477867126">
			<ele>260.299987792969</ele>
			<time>2013-12-29T13:12:15Z</time>
		</trkpt>
		<trkpt lat="39.6007957458496" lon="2.56796765327454">
			<ele>259.100006103516</ele>
			<time>2013-12-29T13:12:16Z</time>
		</trkpt>
		<trkpt lat="39.6009101867676" lon="2.56801247596741">
			<ele>258.5</ele>
			<time>2013-12-29T13:12:17Z</time>
		</trkpt>
		<trkpt lat="39.6010093688965" lon="2.56806921958923">
			<ele>258.100006103516</ele>
			<time>2013-12-29T13:12:18Z</time>
		</trkpt>
		<trkpt lat="39.6011199951172" lon="2.56812882423401">
			<ele>257.399993896484</ele>
			<time>2013-12-29T13:12:19Z</time>
		</trkpt>
		<trkpt lat="39.601203918457" lon="2.56819725036621">
			<ele>255</ele>
			<time>2013-12-29T13:12:20Z</time>
		</trkpt>
		<trkpt lat="39.6012840270996" lon="2.568284034729">
			<ele>254.600006103516</ele>
			<time>2013-12-29T13:12:21Z</time>
		</trkpt>
		<trkpt lat="39.6013679504395" lon="2.56836342811584">
			<ele>254.399993896484</ele>
			<time>2013-12-29T13:12:22Z</time>
		</trkpt>
		<trkpt lat="39.6014556884766" lon="2.56846642494202">
			<ele>254.100006103516</ele>
			<time>2013-12-29T13:12:23Z</time>
		</trkpt>
		<trkpt lat="39.6015357971191" lon="2.56856894493103">
			<ele>253.800003051758</ele>
			<time>2013-12-29T13:12:24Z</time>
		</trkpt>
		<trkpt lat="39.6016159057617" lon="2.56867098808289">
			<ele>253.5</ele>
			<time>2013-12-29T13:12:25Z</time>
		</trkpt>
		<trkpt lat="39.6016845703125" lon="2.56877732276917">
			<ele>253.5</ele>
			<time>2013-12-29T13:12:26Z</time>
		</trkpt>
		<trkpt lat="39.6017074584961" lon="2.56890058517456">
			<ele>251.399993896484</ele>
			<time>2013-12-29T13:12:27Z</time>
		</trkpt>
		<trkpt lat="39.6017608642578" lon="2.56901288032532">
			<ele>251</ele>
			<time>2013-12-29T13:12:28Z</time>
		</trkpt>
		<trkpt lat="39.6018180847168" lon="2.56912112236023">
			<ele>251</ele>
			<time>2013-12-29T13:12:29Z</time>
		</trkpt>
		<trkpt lat="39.6018753051758" lon="2.5692412853241">
			<ele>250.600006103516</ele>
			<time>2013-12-29T13:12:30Z</time>
		</trkpt>
		<trkpt lat="39.601921081543" lon="2.5693724155426">
			<ele>250</ele>
			<time>2013-12-29T13:12:31Z</time>
		</trkpt>
		<trkpt lat="39.601993560791" lon="2.56948375701904">
			<ele>249.699996948242</ele>
			<time>2013-12-29T13:12:32Z</time>
		</trkpt>
		<trkpt lat="39.6020011901855" lon="2.56964325904846">
			<ele>247.899993896484</ele>
			<time>2013-12-29T13:12:33Z</time>
		</trkpt>
		<trkpt lat="39.6020355224609" lon="2.5697865486145">
			<ele>247.100006103516</ele>
			<time>2013-12-29T13:12:34Z</time>
		</trkpt>
		<trkpt lat="39.6020851135254" lon="2.56991577148438">
			<ele>246.399993896484</ele>
			<time>2013-12-29T13:12:35Z</time>
		</trkpt>
		<trkpt lat="39.6021308898926" lon="2.57005000114441">
			<ele>245.800003051758</ele>
			<time>2013-12-29T13:12:36Z</time>
		</trkpt>
		<trkpt lat="39.6021766662598" lon="2.57018566131592">
			<ele>244.600006103516</ele>
			<time>2013-12-29T13:12:37Z</time>
		</trkpt>
		<trkpt lat="39.6022148132324" lon="2.57031536102295">
			<ele>244.399993896484</ele>
			<time>2013-12-29T13:12:38Z</time>
		</trkpt>
		<trkpt lat="39.6022567749023" lon="2.57044315338135">
			<ele>244.399993896484</ele>
			<time>2013-12-29T13:12:39Z</time>
		</trkpt>
		<trkpt lat="39.6023063659668" lon="2.57056164741516">
			<ele>244.300003051758</ele>
			<time>2013-12-29T13:12:40Z</time>
		</trkpt>
		<trkpt lat="39.6023406982422" lon="2.57068943977356">
			<ele>242.800003051758</ele>
			<time>2013-12-29T13:12:41Z</time>
		</trkpt>
		<trkpt lat="39.6023826599121" lon="2.5708167552948">
			<ele>242.5</ele>
			<time>2013-12-29T13:12:42Z</time>
		</trkpt>
		<trkpt lat="39.6024169921875" lon="2.57094120979309">
			<ele>242.199996948242</ele>
			<time>2013-12-29T13:12:43Z</time>
		</trkpt>
		<trkpt lat="39.6024475097656" lon="2.57106113433838">
			<ele>241.800003051758</ele>
			<time>2013-12-29T13:12:44Z</time>
		</trkpt>
		<trkpt lat="39.6025085449219" lon="2.57114887237549">
			<ele>241.600006103516</ele>
			<time>2013-12-29T13:12:45Z</time>
		</trkpt>
		<trkpt lat="39.6025848388672" lon="2.5712263584137">
			<ele>241.5</ele>
			<time>2013-12-29T13:12:46Z</time>
		</trkpt>
		<trkpt lat="39.6026649475098" lon="2.57126641273499">
			<ele>241.399993896484</ele>
			<time>2013-12-29T13:12:47Z</time>
		</trkpt>
		<trkpt lat="39.6027526855469" lon="2.57133007049561">
			<ele>239.800003051758</ele>
			<time>2013-12-29T13:12:48Z</time>
		</trkpt>
		<trkpt lat="39.6028175354004" lon="2.57140517234802">
			<ele>239.800003051758</ele>
			<time>2013-12-29T13:12:49Z</time>
		</trkpt>
		<trkpt lat="39.6028861999512" lon="2.57148623466492">
			<ele>239.5</ele>
			<time>2013-12-29T13:12:50Z</time>
		</trkpt>
		<trkpt lat="39.6029472351074" lon="2.57156729698181">
			<ele>239.399993896484</ele>
			<time>2013-12-29T13:12:51Z</time>
		</trkpt>
		<trkpt lat="39.6030082702637" lon="2.57165312767029">
			<ele>239.5</ele>
			<time>2013-12-29T13:12:52Z</time>
		</trkpt>
		<trkpt lat="39.6030731201172" lon="2.57173895835876">
			<ele>239.300003051758</ele>
			<time>2013-12-29T13:12:53Z</time>
		</trkpt>
		<trkpt lat="39.6031341552734" lon="2.57180738449097">
			<ele>239.399993896484</ele>
			<time>2013-12-29T13:12:54Z</time>
		</trkpt>
		<trkpt lat="39.603199005127" lon="2.5718674659729">
			<ele>239.399993896484</ele>
			<time>2013-12-29T13:12:55Z</time>
		</trkpt>
		<trkpt lat="39.6032981872559" lon="2.57186460494995">
			<ele>239.300003051758</ele>
			<time>2013-12-29T13:12:56Z</time>
		</trkpt>
		<trkpt lat="39.6033821105957" lon="2.57190036773682">
			<ele>239.199996948242</ele>
			<time>2013-12-29T13:12:57Z</time>
		</trkpt>
		<trkpt lat="39.6034660339355" lon="2.57195091247559">
			<ele>239</ele>
			<time>2013-12-29T13:12:58Z</time>
		</trkpt>
		<trkpt lat="39.6035385131836" lon="2.57201766967773">
			<ele>238.699996948242</ele>
			<time>2013-12-29T13:12:59Z</time>
		</trkpt>
		<trkpt lat="39.6036071777344" lon="2.57210254669189">
			<ele>238.899993896484</ele>
			<time>2013-12-29T13:13:00Z</time>
		</trkpt>
		<trkpt lat="39.6036491394043" lon="2.57221341133118">
			<ele>238.399993896484</ele>
			<time>2013-12-29T13:13:01Z</time>
		</trkpt>
		<trkpt lat="39.6037139892578" lon="2.57232809066772">
			<ele>237.600006103516</ele>
			<time>2013-12-29T13:13:02Z</time>
		</trkpt>
		<trkpt lat="39.6037902832031" lon="2.57242178916931">
			<ele>237.300003051758</ele>
			<time>2013-12-29T13:13:03Z</time>
		</trkpt>
		<trkpt lat="39.6038589477539" lon="2.57246589660645">
			<ele>237.600006103516</ele>
			<time>2013-12-29T13:13:04Z</time>
		</trkpt>
		<trkpt lat="39.603931427002" lon="2.57252264022827">
			<ele>237.899993896484</ele>
			<time>2013-12-29T13:13:05Z</time>
		</trkpt>
		<trkpt lat="39.6040077209473" lon="2.57257461547852">
			<ele>236.699996948242</ele>
			<time>2013-12-29T13:13:06Z</time>
		</trkpt>
		<trkpt lat="39.6040687561035" lon="2.57263970375061">
			<ele>236.300003051758</ele>
			<time>2013-12-29T13:13:07Z</time>
		</trkpt>
		<trkpt lat="39.6041297912598" lon="2.57271981239319">
			<ele>236.100006103516</ele>
			<time>2013-12-29T13:13:08Z</time>
		</trkpt>
		<trkpt lat="39.6042022705078" lon="2.57279968261719">
			<ele>235.899993896484</ele>
			<time>2013-12-29T13:13:09Z</time>
		</trkpt>
		<trkpt lat="39.604248046875" lon="2.57288789749146">
			<ele>234.600006103516</ele>
			<time>2013-12-29T13:13:10Z</time>
		</trkpt>
		<trkpt lat="39.604305267334" lon="2.57297205924988">
			<ele>234.399993896484</ele>
			<time>2013-12-29T13:13:11Z</time>
		</trkpt>
		<trkpt lat="39.6043319702148" lon="2.57307100296021">
			<ele>233.800003051758</ele>
			<time>2013-12-29T13:13:12Z</time>
		</trkpt>
		<trkpt lat="39.6043701171875" lon="2.57317042350769">
			<ele>233.800003051758</ele>
			<time>2013-12-29T13:13:13Z</time>
		</trkpt>
		<trkpt lat="39.6043930053711" lon="2.57327723503113">
			<ele>233.699996948242</ele>
			<time>2013-12-29T13:13:14Z</time>
		</trkpt>
		<trkpt lat="39.6044044494629" lon="2.57339692115784">
			<ele>233.899993896484</ele>
			<time>2013-12-29T13:13:15Z</time>
		</trkpt>
		<trkpt lat="39.6044311523438" lon="2.5735011100769">
			<ele>233.399993896484</ele>
			<time>2013-12-29T13:13:16Z</time>
		</trkpt>
		<trkpt lat="39.6044769287109" lon="2.57358074188232">
			<ele>233.399993896484</ele>
			<time>2013-12-29T13:13:17Z</time>
		</trkpt>
		<trkpt lat="39.604606628418" lon="2.57353544235229">
			<ele>233.600006103516</ele>
			<time>2013-12-29T13:13:18Z</time>
		</trkpt>
		<trkpt lat="39.6046829223633" lon="2.57353758811951">
			<ele>233.699996948242</ele>
			<time>2013-12-29T13:13:19Z</time>
		</trkpt>
		<trkpt lat="39.6047706604004" lon="2.57355880737305">
			<ele>234.100006103516</ele>
			<time>2013-12-29T13:13:20Z</time>
		</trkpt>
		<trkpt lat="39.604850769043" lon="2.57360911369324">
			<ele>233.800003051758</ele>
			<time>2013-12-29T13:13:21Z</time>
		</trkpt>
		<trkpt lat="39.6049118041992" lon="2.57369446754456">
			<ele>232.600006103516</ele>
			<time>2013-12-29T13:13:22Z</time>
		</trkpt>
		<trkpt lat="39.6049880981445" lon="2.57376480102539">
			<ele>231.699996948242</ele>
			<time>2013-12-29T13:13:23Z</time>
		</trkpt>
		<trkpt lat="39.605037689209" lon="2.57384872436523">
			<ele>231.399993896484</ele>
			<time>2013-12-29T13:13:24Z</time>
		</trkpt>
		<trkpt lat="39.605094909668" lon="2.57393479347229">
			<ele>230.699996948242</ele>
			<time>2013-12-29T13:13:25Z</time>
		</trkpt>
		<trkpt lat="39.605152130127" lon="2.57402348518372">
			<ele>230.100006103516</ele>
			<time>2013-12-29T13:13:26Z</time>
		</trkpt>
		<trkpt lat="39.6051979064941" lon="2.57410883903503">
			<ele>229.5</ele>
			<time>2013-12-29T13:13:27Z</time>
		</trkpt>
		<trkpt lat="39.6052474975586" lon="2.57418727874756">
			<ele>228.600006103516</ele>
			<time>2013-12-29T13:13:28Z</time>
		</trkpt>
		<trkpt lat="39.6053085327148" lon="2.57426571846008">
			<ele>227.699996948242</ele>
			<time>2013-12-29T13:13:29Z</time>
		</trkpt>
		<trkpt lat="39.6053695678711" lon="2.57433223724365">
			<ele>227.5</ele>
			<time>2013-12-29T13:13:30Z</time>
		</trkpt>
		<trkpt lat="39.6054382324219" lon="2.57440328598022">
			<ele>227</ele>
			<time>2013-12-29T13:13:31Z</time>
		</trkpt>
		<trkpt lat="39.6054992675781" lon="2.57447004318237">
			<ele>226.600006103516</ele>
			<time>2013-12-29T13:13:32Z</time>
		</trkpt>
		<trkpt lat="39.6055603027344" lon="2.57455086708069">
			<ele>226.199996948242</ele>
			<time>2013-12-29T13:13:33Z</time>
		</trkpt>
		<trkpt lat="39.6056213378906" lon="2.57463216781616">
			<ele>225.600006103516</ele>
			<time>2013-12-29T13:13:34Z</time>
		</trkpt>
		<trkpt lat="39.6056823730469" lon="2.57471537590027">
			<ele>225.199996948242</ele>
			<time>2013-12-29T13:13:35Z</time>
		</trkpt>
		<trkpt lat="39.6057395935059" lon="2.57479381561279">
			<ele>224.600006103516</ele>
			<time>2013-12-29T13:13:36Z</time>
		</trkpt>
		<trkpt lat="39.6058082580566" lon="2.57488179206848">
			<ele>224.100006103516</ele>
			<time>2013-12-29T13:13:37Z</time>
		</trkpt>
		<trkpt lat="39.6058731079102" lon="2.57497024536133">
			<ele>223.899993896484</ele>
			<time>2013-12-29T13:13:38Z</time>
		</trkpt>
		<trkpt lat="39.6059265136719" lon="2.57506322860718">
			<ele>222.5</ele>
			<time>2013-12-29T13:13:39Z</time>
		</trkpt>
		<trkpt lat="39.6059913635254" lon="2.5751588344574">
			<ele>221.600006103516</ele>
			<time>2013-12-29T13:13:40Z</time>
		</trkpt>
		<trkpt lat="39.6060523986816" lon="2.57524657249451">
			<ele>221.100006103516</ele>
			<time>2013-12-29T13:13:41Z</time>
		</trkpt>
		<trkpt lat="39.6061172485352" lon="2.57533812522888">
			<ele>221.199996948242</ele>
			<time>2013-12-29T13:13:42Z</time>
		</trkpt>
		<trkpt lat="39.6061592102051" lon="2.57543921470642">
			<ele>220.699996948242</ele>
			<time>2013-12-29T13:13:43Z</time>
		</trkpt>
		<trkpt lat="39.6062126159668" lon="2.5755352973938">
			<ele>220.5</ele>
			<time>2013-12-29T13:13:44Z</time>
		</trkpt>
		<trkpt lat="39.6062622070313" lon="2.57563829421997">
			<ele>220.399993896484</ele>
			<time>2013-12-29T13:13:45Z</time>
		</trkpt>
		<trkpt lat="39.6063117980957" lon="2.57575273513794">
			<ele>220.100006103516</ele>
			<time>2013-12-29T13:13:46Z</time>
		</trkpt>
		<trkpt lat="39.6063499450684" lon="2.57586193084717">
			<ele>219.300003051758</ele>
			<time>2013-12-29T13:13:47Z</time>
		</trkpt>
		<trkpt lat="39.6063995361328" lon="2.57596731185913">
			<ele>219</ele>
			<time>2013-12-29T13:13:48Z</time>
		</trkpt>
		<trkpt lat="39.6064376831055" lon="2.57607650756836">
			<ele>218.300003051758</ele>
			<time>2013-12-29T13:13:49Z</time>
		</trkpt>
		<trkpt lat="39.6064796447754" lon="2.57618880271912">
			<ele>218</ele>
			<time>2013-12-29T13:13:50Z</time>
		</trkpt>
		<trkpt lat="39.6065254211426" lon="2.57630014419556">
			<ele>217.399993896484</ele>
			<time>2013-12-29T13:13:51Z</time>
		</trkpt>
		<trkpt lat="39.6065788269043" lon="2.57641577720642">
			<ele>216.300003051758</ele>
			<time>2013-12-29T13:13:52Z</time>
		</trkpt>
		<trkpt lat="39.6066246032715" lon="2.57652354240417">
			<ele>216.100006103516</ele>
			<time>2013-12-29T13:13:53Z</time>
		</trkpt>
		<trkpt lat="39.6066627502441" lon="2.57663702964783">
			<ele>215.199996948242</ele>
			<time>2013-12-29T13:13:54Z</time>
		</trkpt>
		<trkpt lat="39.6067047119141" lon="2.57675075531006">
			<ele>214.699996948242</ele>
			<time>2013-12-29T13:13:55Z</time>
		</trkpt>
		<trkpt lat="39.6067504882813" lon="2.57686018943787">
			<ele>214.5</ele>
			<time>2013-12-29T13:13:56Z</time>
		</trkpt>
		<trkpt lat="39.6068077087402" lon="2.57695436477661">
			<ele>214.600006103516</ele>
			<time>2013-12-29T13:13:57Z</time>
		</trkpt>
		<trkpt lat="39.6068916320801" lon="2.57702541351318">
			<ele>214.5</ele>
			<time>2013-12-29T13:13:58Z</time>
		</trkpt>
		<trkpt lat="39.6069793701172" lon="2.57709884643555">
			<ele>214.399993896484</ele>
			<time>2013-12-29T13:13:59Z</time>
		</trkpt>
		<trkpt lat="39.6070594787598" lon="2.57718467712402">
			<ele>214.5</ele>
			<time>2013-12-29T13:14:00Z</time>
		</trkpt>
		<trkpt lat="39.6071166992188" lon="2.57728123664856">
			<ele>214.5</ele>
			<time>2013-12-29T13:14:01Z</time>
		</trkpt>
		<trkpt lat="39.6071166992188" lon="2.57743215560913">
			<ele>213.600006103516</ele>
			<time>2013-12-29T13:14:02Z</time>
		</trkpt>
		<trkpt lat="39.6071395874023" lon="2.57755422592163">
			<ele>213.100006103516</ele>
			<time>2013-12-29T13:14:03Z</time>
		</trkpt>
		<trkpt lat="39.6071166992188" lon="2.57770037651062">
			<ele>212.5</ele>
			<time>2013-12-29T13:14:04Z</time>
		</trkpt>
		<trkpt lat="39.6070899963379" lon="2.57782125473022">
			<ele>212</ele>
			<time>2013-12-29T13:14:05Z</time>
		</trkpt>
		<trkpt lat="39.6070442199707" lon="2.57791566848755">
			<ele>212.5</ele>
			<time>2013-12-29T13:14:06Z</time>
		</trkpt>
		<trkpt lat="39.6070137023926" lon="2.57804441452026">
			<ele>212.199996948242</ele>
			<time>2013-12-29T13:14:07Z</time>
		</trkpt>
		<trkpt lat="39.6069717407227" lon="2.57816815376282">
			<ele>211.600006103516</ele>
			<time>2013-12-29T13:14:08Z</time>
		</trkpt>
		<trkpt lat="39.6069374084473" lon="2.57829070091248">
			<ele>211.399993896484</ele>
			<time>2013-12-29T13:14:09Z</time>
		</trkpt>
		<trkpt lat="39.60693359375" lon="2.57841992378235">
			<ele>211.100006103516</ele>
			<time>2013-12-29T13:14:10Z</time>
		</trkpt>
		<trkpt lat="39.6069564819336" lon="2.57850766181946">
			<ele>210.300003051758</ele>
			<time>2013-12-29T13:14:11Z</time>
		</trkpt>
		<trkpt lat="39.6069831848145" lon="2.57858180999756">
			<ele>209.300003051758</ele>
			<time>2013-12-29T13:14:12Z</time>
		</trkpt>
		<trkpt lat="39.6070327758789" lon="2.57859873771667">
			<ele>208.699996948242</ele>
			<time>2013-12-29T13:14:13Z</time>
		</trkpt>
		<trkpt lat="39.6071281433105" lon="2.57851767539978">
			<ele>207.5</ele>
			<time>2013-12-29T13:14:14Z</time>
		</trkpt>
		<trkpt lat="39.607234954834" lon="2.57842707633972">
			<ele>207.5</ele>
			<time>2013-12-29T13:14:15Z</time>
		</trkpt>
		<trkpt lat="39.6073188781738" lon="2.57832813262939">
			<ele>207.199996948242</ele>
			<time>2013-12-29T13:14:16Z</time>
		</trkpt>
		<trkpt lat="39.6073799133301" lon="2.57824373245239">
			<ele>207.100006103516</ele>
			<time>2013-12-29T13:14:17Z</time>
		</trkpt>
		<trkpt lat="39.6074638366699" lon="2.57815003395081">
			<ele>207</ele>
			<time>2013-12-29T13:14:18Z</time>
		</trkpt>
		<trkpt lat="39.6075401306152" lon="2.57806205749512">
			<ele>206.699996948242</ele>
			<time>2013-12-29T13:14:19Z</time>
		</trkpt>
		<trkpt lat="39.6076164245605" lon="2.5780017375946">
			<ele>204.600006103516</ele>
			<time>2013-12-29T13:14:20Z</time>
		</trkpt>
		<trkpt lat="39.6077079772949" lon="2.57795190811157">
			<ele>204.100006103516</ele>
			<time>2013-12-29T13:14:21Z</time>
		</trkpt>
		<trkpt lat="39.6078033447266" lon="2.57790899276733">
			<ele>203.300003051758</ele>
			<time>2013-12-29T13:14:22Z</time>
		</trkpt>
		<trkpt lat="39.60791015625" lon="2.57789039611816">
			<ele>202.699996948242</ele>
			<time>2013-12-29T13:14:23Z</time>
		</trkpt>
		<trkpt lat="39.6079978942871" lon="2.5779185295105">
			<ele>203</ele>
			<time>2013-12-29T13:14:24Z</time>
		</trkpt>
		<trkpt lat="39.6080856323242" lon="2.5779857635498">
			<ele>203</ele>
			<time>2013-12-29T13:14:25Z</time>
		</trkpt>
		<trkpt lat="39.6081771850586" lon="2.57802629470825">
			<ele>202.899993896484</ele>
			<time>2013-12-29T13:14:26Z</time>
		</trkpt>
		<trkpt lat="39.6082496643066" lon="2.57808256149292">
			<ele>202.899993896484</ele>
			<time>2013-12-29T13:14:27Z</time>
		</trkpt>
		<trkpt lat="39.6083297729492" lon="2.57815504074097">
			<ele>203.600006103516</ele>
			<time>2013-12-29T13:14:28Z</time>
		</trkpt>
		<trkpt lat="39.6084213256836" lon="2.57822942733765">
			<ele>202.699996948242</ele>
			<time>2013-12-29T13:14:29Z</time>
		</trkpt>
		<trkpt lat="39.6085014343262" lon="2.57829308509827">
			<ele>202.399993896484</ele>
			<time>2013-12-29T13:14:30Z</time>
		</trkpt>
		<trkpt lat="39.6085929870605" lon="2.57836270332336">
			<ele>202.5</ele>
			<time>2013-12-29T13:14:31Z</time>
		</trkpt>
		<trkpt lat="39.6086807250977" lon="2.57842946052551">
			<ele>202.100006103516</ele>
			<time>2013-12-29T13:14:32Z</time>
		</trkpt>
		<trkpt lat="39.6087493896484" lon="2.5784969329834">
			<ele>202.5</ele>
			<time>2013-12-29T13:14:33Z</time>
		</trkpt>
		<trkpt lat="39.608814239502" lon="2.57858657836914">
			<ele>201.800003051758</ele>
			<time>2013-12-29T13:14:34Z</time>
		</trkpt>
		<trkpt lat="39.60888671875" lon="2.57866549491882">
			<ele>201.199996948242</ele>
			<time>2013-12-29T13:14:35Z</time>
		</trkpt>
		<trkpt lat="39.6089553833008" lon="2.57875680923462">
			<ele>201.199996948242</ele>
			<time>2013-12-29T13:14:36Z</time>
		</trkpt>
		<trkpt lat="39.6090126037598" lon="2.57884860038757">
			<ele>201.300003051758</ele>
			<time>2013-12-29T13:14:37Z</time>
		</trkpt>
		<trkpt lat="39.609073638916" lon="2.57894396781921">
			<ele>200.899993896484</ele>
			<time>2013-12-29T13:14:38Z</time>
		</trkpt>
		<trkpt lat="39.6091270446777" lon="2.57903814315796">
			<ele>200.399993896484</ele>
			<time>2013-12-29T13:14:39Z</time>
		</trkpt>
		<trkpt lat="39.6091804504395" lon="2.57913279533386">
			<ele>199.800003051758</ele>
			<time>2013-12-29T13:14:40Z</time>
		</trkpt>
		<trkpt lat="39.6092376708984" lon="2.57922005653381">
			<ele>199.100006103516</ele>
			<time>2013-12-29T13:14:41Z</time>
		</trkpt>
		<trkpt lat="39.6092987060547" lon="2.57930970191956">
			<ele>198.899993896484</ele>
			<time>2013-12-29T13:14:42Z</time>
		</trkpt>
		<trkpt lat="39.6093559265137" lon="2.57940006256104">
			<ele>198.699996948242</ele>
			<time>2013-12-29T13:14:43Z</time>
		</trkpt>
		<trkpt lat="39.6094017028809" lon="2.57949233055115">
			<ele>197.899993896484</ele>
			<time>2013-12-29T13:14:44Z</time>
		</trkpt>
		<trkpt lat="39.6094589233398" lon="2.57958149909973">
			<ele>197.399993896484</ele>
			<time>2013-12-29T13:14:45Z</time>
		</trkpt>
		<trkpt lat="39.6095199584961" lon="2.57967615127563">
			<ele>196.5</ele>
			<time>2013-12-29T13:14:46Z</time>
		</trkpt>
		<trkpt lat="39.6095809936523" lon="2.57976722717285">
			<ele>196.199996948242</ele>
			<time>2013-12-29T13:14:47Z</time>
		</trkpt>
		<trkpt lat="39.6096382141113" lon="2.57986235618591">
			<ele>195.899993896484</ele>
			<time>2013-12-29T13:14:48Z</time>
		</trkpt>
		<trkpt lat="39.609691619873" lon="2.57995891571045">
			<ele>196.100006103516</ele>
			<time>2013-12-29T13:14:49Z</time>
		</trkpt>
		<trkpt lat="39.6097183227539" lon="2.58007216453552">
			<ele>195.800003051758</ele>
			<time>2013-12-29T13:14:50Z</time>
		</trkpt>
		<trkpt lat="39.6097450256348" lon="2.58018064498901">
			<ele>195.699996948242</ele>
			<time>2013-12-29T13:14:51Z</time>
		</trkpt>
		<trkpt lat="39.6097679138184" lon="2.58029079437256">
			<ele>195.5</ele>
			<time>2013-12-29T13:14:52Z</time>
		</trkpt>
		<trkpt lat="39.6097602844238" lon="2.58040833473206">
			<ele>195.199996948242</ele>
			<time>2013-12-29T13:14:53Z</time>
		</trkpt>
		<trkpt lat="39.6097679138184" lon="2.58052158355713">
			<ele>194.5</ele>
			<time>2013-12-29T13:14:54Z</time>
		</trkpt>
		<trkpt lat="39.6098136901855" lon="2.58062696456909">
			<ele>193.800003051758</ele>
			<time>2013-12-29T13:14:55Z</time>
		</trkpt>
		<trkpt lat="39.6098442077637" lon="2.58072996139526">
			<ele>193.899993896484</ele>
			<time>2013-12-29T13:14:56Z</time>
		</trkpt>
		<trkpt lat="39.6099090576172" lon="2.58081436157227">
			<ele>193.100006103516</ele>
			<time>2013-12-29T13:14:57Z</time>
		</trkpt>
		<trkpt lat="39.6099662780762" lon="2.58089685440063">
			<ele>192.300003051758</ele>
			<time>2013-12-29T13:14:58Z</time>
		</trkpt>
		<trkpt lat="39.610034942627" lon="2.58097410202026">
			<ele>191.600006103516</ele>
			<time>2013-12-29T13:14:59Z</time>
		</trkpt>
		<trkpt lat="39.6101036071777" lon="2.5810558795929">
			<ele>191.199996948242</ele>
			<time>2013-12-29T13:15:00Z</time>
		</trkpt>
		<trkpt lat="39.6101684570313" lon="2.58113741874695">
			<ele>190.800003051758</ele>
			<time>2013-12-29T13:15:01Z</time>
		</trkpt>
		<trkpt lat="39.6102294921875" lon="2.58122992515564">
			<ele>189.699996948242</ele>
			<time>2013-12-29T13:15:02Z</time>
		</trkpt>
		<trkpt lat="39.610279083252" lon="2.58133316040039">
			<ele>189.399993896484</ele>
			<time>2013-12-29T13:15:03Z</time>
		</trkpt>
		<trkpt lat="39.6103057861328" lon="2.58144664764404">
			<ele>189</ele>
			<time>2013-12-29T13:15:04Z</time>
		</trkpt>
		<trkpt lat="39.6103172302246" lon="2.58157062530518">
			<ele>188.699996948242</ele>
			<time>2013-12-29T13:15:05Z</time>
		</trkpt>
		<trkpt lat="39.6103172302246" lon="2.58168935775757">
			<ele>188.899993896484</ele>
			<time>2013-12-29T13:15:06Z</time>
		</trkpt>
		<trkpt lat="39.6103248596191" lon="2.58181285858154">
			<ele>188.800003051758</ele>
			<time>2013-12-29T13:15:07Z</time>
		</trkpt>
		<trkpt lat="39.6103248596191" lon="2.58193683624268">
			<ele>188.600006103516</ele>
			<time>2013-12-29T13:15:08Z</time>
		</trkpt>
		<trkpt lat="39.6103286743164" lon="2.5820643901825">
			<ele>188.5</ele>
			<time>2013-12-29T13:15:09Z</time>
		</trkpt>
		<trkpt lat="39.6103668212891" lon="2.58217000961304">
			<ele>188.5</ele>
			<time>2013-12-29T13:15:10Z</time>
		</trkpt>
		<trkpt lat="39.610424041748" lon="2.5822765827179">
			<ele>188.100006103516</ele>
			<time>2013-12-29T13:15:11Z</time>
		</trkpt>
		<trkpt lat="39.6104927062988" lon="2.58235740661621">
			<ele>187.800003051758</ele>
			<time>2013-12-29T13:15:12Z</time>
		</trkpt>
		<trkpt lat="39.6106300354004" lon="2.58237195014954">
			<ele>187.199996948242</ele>
			<time>2013-12-29T13:15:13Z</time>
		</trkpt>
		<trkpt lat="39.6107177734375" lon="2.58241105079651">
			<ele>187</ele>
			<time>2013-12-29T13:15:14Z</time>
		</trkpt>
		<trkpt lat="39.6108016967773" lon="2.58244872093201">
			<ele>186.199996948242</ele>
			<time>2013-12-29T13:15:15Z</time>
		</trkpt>
		<trkpt lat="39.6108894348145" lon="2.58249235153198">
			<ele>185.399993896484</ele>
			<time>2013-12-29T13:15:16Z</time>
		</trkpt>
		<trkpt lat="39.6109771728516" lon="2.58253192901611">
			<ele>185</ele>
			<time>2013-12-29T13:15:17Z</time>
		</trkpt>
		<trkpt lat="39.6110610961914" lon="2.58257913589478">
			<ele>184.399993896484</ele>
			<time>2013-12-29T13:15:18Z</time>
		</trkpt>
		<trkpt lat="39.6111488342285" lon="2.58262372016907">
			<ele>184.199996948242</ele>
			<time>2013-12-29T13:15:19Z</time>
		</trkpt>
		<trkpt lat="39.6112365722656" lon="2.58267521858215">
			<ele>184</ele>
			<time>2013-12-29T13:15:20Z</time>
		</trkpt>
		<trkpt lat="39.6113357543945" lon="2.58273553848267">
			<ele>183.100006103516</ele>
			<time>2013-12-29T13:15:21Z</time>
		</trkpt>
		<trkpt lat="39.611442565918" lon="2.58280682563782">
			<ele>182.5</ele>
			<time>2013-12-29T13:15:22Z</time>
		</trkpt>
		<trkpt lat="39.6115341186523" lon="2.58287739753723">
			<ele>182</ele>
			<time>2013-12-29T13:15:23Z</time>
		</trkpt>
		<trkpt lat="39.6116104125977" lon="2.58293318748474">
			<ele>180.699996948242</ele>
			<time>2013-12-29T13:15:24Z</time>
		</trkpt>
		<trkpt lat="39.611701965332" lon="2.58299398422241">
			<ele>180.600006103516</ele>
			<time>2013-12-29T13:15:25Z</time>
		</trkpt>
		<trkpt lat="39.6118049621582" lon="2.58305621147156">
			<ele>180.800003051758</ele>
			<time>2013-12-29T13:15:26Z</time>
		</trkpt>
		<trkpt lat="39.6119003295898" lon="2.58311557769775">
			<ele>180.100006103516</ele>
			<time>2013-12-29T13:15:27Z</time>
		</trkpt>
		<trkpt lat="39.6119918823242" lon="2.58318090438843">
			<ele>179.5</ele>
			<time>2013-12-29T13:15:28Z</time>
		</trkpt>
		<trkpt lat="39.6120681762695" lon="2.58325242996216">
			<ele>178.600006103516</ele>
			<time>2013-12-29T13:15:29Z</time>
		</trkpt>
		<trkpt lat="39.6121444702148" lon="2.5833420753479">
			<ele>177.800003051758</ele>
			<time>2013-12-29T13:15:30Z</time>
		</trkpt>
		<trkpt lat="39.6122245788574" lon="2.58343577384949">
			<ele>176.899993896484</ele>
			<time>2013-12-29T13:15:31Z</time>
		</trkpt>
		<trkpt lat="39.6122817993164" lon="2.58354926109314">
			<ele>175.899993896484</ele>
			<time>2013-12-29T13:15:32Z</time>
		</trkpt>
		<trkpt lat="39.6123313903809" lon="2.58366966247559">
			<ele>175.5</ele>
			<time>2013-12-29T13:15:33Z</time>
		</trkpt>
		<trkpt lat="39.6123657226563" lon="2.58379650115967">
			<ele>174.800003051758</ele>
			<time>2013-12-29T13:15:34Z</time>
		</trkpt>
		<trkpt lat="39.6123962402344" lon="2.58392953872681">
			<ele>174.100006103516</ele>
			<time>2013-12-29T13:15:35Z</time>
		</trkpt>
		<trkpt lat="39.6124267578125" lon="2.58405876159668">
			<ele>173.600006103516</ele>
			<time>2013-12-29T13:15:36Z</time>
		</trkpt>
		<trkpt lat="39.6124572753906" lon="2.58418869972229">
			<ele>173.100006103516</ele>
			<time>2013-12-29T13:15:37Z</time>
		</trkpt>
		<trkpt lat="39.6124839782715" lon="2.58432054519653">
			<ele>172.100006103516</ele>
			<time>2013-12-29T13:15:38Z</time>
		</trkpt>
		<trkpt lat="39.6125030517578" lon="2.58445072174072">
			<ele>171.300003051758</ele>
			<time>2013-12-29T13:15:39Z</time>
		</trkpt>
		<trkpt lat="39.6125221252441" lon="2.58458042144775">
			<ele>170.5</ele>
			<time>2013-12-29T13:15:40Z</time>
		</trkpt>
		<trkpt lat="39.612548828125" lon="2.58470749855042">
			<ele>170.199996948242</ele>
			<time>2013-12-29T13:15:41Z</time>
		</trkpt>
		<trkpt lat="39.6125717163086" lon="2.58483672142029">
			<ele>169.5</ele>
			<time>2013-12-29T13:15:42Z</time>
		</trkpt>
		<trkpt lat="39.6125946044922" lon="2.5849609375">
			<ele>168.600006103516</ele>
			<time>2013-12-29T13:15:43Z</time>
		</trkpt>
		<trkpt lat="39.6126174926758" lon="2.5850887298584">
			<ele>167.899993896484</ele>
			<time>2013-12-29T13:15:44Z</time>
		</trkpt>
		<trkpt lat="39.6126441955566" lon="2.5852165222168">
			<ele>167</ele>
			<time>2013-12-29T13:15:45Z</time>
		</trkpt>
		<trkpt lat="39.6126708984375" lon="2.58534169197083">
			<ele>166.399993896484</ele>
			<time>2013-12-29T13:15:46Z</time>
		</trkpt>
		<trkpt lat="39.6126976013184" lon="2.58546471595764">
			<ele>165.800003051758</ele>
			<time>2013-12-29T13:15:47Z</time>
		</trkpt>
		<trkpt lat="39.6127281188965" lon="2.58559012413025">
			<ele>165.300003051758</ele>
			<time>2013-12-29T13:15:48Z</time>
		</trkpt>
		<trkpt lat="39.6127510070801" lon="2.58571815490723">
			<ele>165.399993896484</ele>
			<time>2013-12-29T13:15:49Z</time>
		</trkpt>
		<trkpt lat="39.6127738952637" lon="2.58584570884705">
			<ele>164.800003051758</ele>
			<time>2013-12-29T13:15:50Z</time>
		</trkpt>
		<trkpt lat="39.6128005981445" lon="2.58597111701965">
			<ele>164.100006103516</ele>
			<time>2013-12-29T13:15:51Z</time>
		</trkpt>
		<trkpt lat="39.6128311157227" lon="2.5860960483551">
			<ele>164</ele>
			<time>2013-12-29T13:15:52Z</time>
		</trkpt>
		<trkpt lat="39.612865447998" lon="2.58621954917908">
			<ele>163.800003051758</ele>
			<time>2013-12-29T13:15:53Z</time>
		</trkpt>
		<trkpt lat="39.6128959655762" lon="2.58634161949158">
			<ele>163.399993896484</ele>
			<time>2013-12-29T13:15:54Z</time>
		</trkpt>
		<trkpt lat="39.6129188537598" lon="2.58645367622375">
			<ele>163.100006103516</ele>
			<time>2013-12-29T13:15:55Z</time>
		</trkpt>
		<trkpt lat="39.6129455566406" lon="2.58653879165649">
			<ele>163.100006103516</ele>
			<time>2013-12-29T13:15:56Z</time>
		</trkpt>
		<trkpt lat="39.6129875183105" lon="2.58661031723022">
			<ele>162.399993896484</ele>
			<time>2013-12-29T13:15:57Z</time>
		</trkpt>
		<trkpt lat="39.6130294799805" lon="2.5866801738739">
			<ele>162.199996948242</ele>
			<time>2013-12-29T13:15:58Z</time>
		</trkpt>
		<trkpt lat="39.6130752563477" lon="2.58675098419189">
			<ele>161.699996948242</ele>
			<time>2013-12-29T13:15:59Z</time>
		</trkpt>
		<trkpt lat="39.6131172180176" lon="2.58683133125305">
			<ele>161.699996948242</ele>
			<time>2013-12-29T13:16:00Z</time>
		</trkpt>
		<trkpt lat="39.6131553649902" lon="2.58691477775574">
			<ele>161.600006103516</ele>
			<time>2013-12-29T13:16:01Z</time>
		</trkpt>
		<trkpt lat="39.6131896972656" lon="2.58699727058411">
			<ele>161.300003051758</ele>
			<time>2013-12-29T13:16:02Z</time>
		</trkpt>
		<trkpt lat="39.6132316589355" lon="2.58707189559937">
			<ele>160.899993896484</ele>
			<time>2013-12-29T13:16:03Z</time>
		</trkpt>
		<trkpt lat="39.6132774353027" lon="2.58713793754578">
			<ele>160.699996948242</ele>
			<time>2013-12-29T13:16:04Z</time>
		</trkpt>
		<trkpt lat="39.6133346557617" lon="2.58720517158508">
			<ele>160.5</ele>
			<time>2013-12-29T13:16:05Z</time>
		</trkpt>
		<trkpt lat="39.6133880615234" lon="2.58726191520691">
			<ele>160.300003051758</ele>
			<time>2013-12-29T13:16:06Z</time>
		</trkpt>
		<trkpt lat="39.6134452819824" lon="2.58731007575989">
			<ele>160.300003051758</ele>
			<time>2013-12-29T13:16:07Z</time>
		</trkpt>
		<trkpt lat="39.6135101318359" lon="2.58735728263855">
			<ele>160.300003051758</ele>
			<time>2013-12-29T13:16:08Z</time>
		</trkpt>
		<trkpt lat="39.6135711669922" lon="2.58740234375">
			<ele>160.199996948242</ele>
			<time>2013-12-29T13:16:09Z</time>
		</trkpt>
		<trkpt lat="39.6136322021484" lon="2.58744525909424">
			<ele>160.300003051758</ele>
			<time>2013-12-29T13:16:10Z</time>
		</trkpt>
		<trkpt lat="39.613697052002" lon="2.58748245239258">
			<ele>160.199996948242</ele>
			<time>2013-12-29T13:16:11Z</time>
		</trkpt>
		<trkpt lat="39.6137619018555" lon="2.58752346038818">
			<ele>160.300003051758</ele>
			<time>2013-12-29T13:16:12Z</time>
		</trkpt>
		<trkpt lat="39.6138191223145" lon="2.58755254745483">
			<ele>160.5</ele>
			<time>2013-12-29T13:16:13Z</time>
		</trkpt>
		<trkpt lat="39.6138801574707" lon="2.58759021759033">
			<ele>160.5</ele>
			<time>2013-12-29T13:16:14Z</time>
		</trkpt>
		<trkpt lat="39.613941192627" lon="2.58762550354004">
			<ele>160.399993896484</ele>
			<time>2013-12-29T13:16:15Z</time>
		</trkpt>
		<trkpt lat="39.6140022277832" lon="2.58766078948975">
			<ele>160.199996948242</ele>
			<time>2013-12-29T13:16:16Z</time>
		</trkpt>
		<trkpt lat="39.6140632629395" lon="2.58769917488098">
			<ele>160.100006103516</ele>
			<time>2013-12-29T13:16:17Z</time>
		</trkpt>
		<trkpt lat="39.6141204833984" lon="2.5877377986908">
			<ele>159.699996948242</ele>
			<time>2013-12-29T13:16:18Z</time>
		</trkpt>
		<trkpt lat="39.6141815185547" lon="2.58777594566345">
			<ele>159.399993896484</ele>
			<time>2013-12-29T13:16:19Z</time>
		</trkpt>
		<trkpt lat="39.6142387390137" lon="2.58781242370605">
			<ele>159.399993896484</ele>
			<time>2013-12-29T13:16:20Z</time>
		</trkpt>
		<trkpt lat="39.6142997741699" lon="2.58784794807434">
			<ele>159.100006103516</ele>
			<time>2013-12-29T13:16:21Z</time>
		</trkpt>
		<trkpt lat="39.6143531799316" lon="2.587886095047">
			<ele>159</ele>
			<time>2013-12-29T13:16:22Z</time>
		</trkpt>
		<trkpt lat="39.6144104003906" lon="2.58792924880981">
			<ele>159</ele>
			<time>2013-12-29T13:16:23Z</time>
		</trkpt>
		<trkpt lat="39.6144676208496" lon="2.58797025680542">
			<ele>158.800003051758</ele>
			<time>2013-12-29T13:16:24Z</time>
		</trkpt>
		<trkpt lat="39.6145248413086" lon="2.58800840377808">
			<ele>159</ele>
			<time>2013-12-29T13:16:25Z</time>
		</trkpt>
		<trkpt lat="39.6145782470703" lon="2.58804655075073">
			<ele>159.100006103516</ele>
			<time>2013-12-29T13:16:26Z</time>
		</trkpt>
		<trkpt lat="39.6146278381348" lon="2.58808565139771">
			<ele>159.100006103516</ele>
			<time>2013-12-29T13:16:27Z</time>
		</trkpt>
		<trkpt lat="39.6146850585938" lon="2.58812642097473">
			<ele>159</ele>
			<time>2013-12-29T13:16:28Z</time>
		</trkpt>
		<trkpt lat="39.6147384643555" lon="2.58816051483154">
			<ele>159.100006103516</ele>
			<time>2013-12-29T13:16:29Z</time>
		</trkpt>
		<trkpt lat="39.6147918701172" lon="2.58819842338562">
			<ele>158.899993896484</ele>
			<time>2013-12-29T13:16:30Z</time>
		</trkpt>
		<trkpt lat="39.6148376464844" lon="2.58823943138123">
			<ele>158.899993896484</ele>
			<time>2013-12-29T13:16:31Z</time>
		</trkpt>
		<trkpt lat="39.6148948669434" lon="2.58828043937683">
			<ele>158.699996948242</ele>
			<time>2013-12-29T13:16:32Z</time>
		</trkpt>
		<trkpt lat="39.6149406433105" lon="2.58831977844238">
			<ele>158.699996948242</ele>
			<time>2013-12-29T13:16:33Z</time>
		</trkpt>
		<trkpt lat="39.6149978637695" lon="2.58835935592651">
			<ele>158.800003051758</ele>
			<time>2013-12-29T13:16:34Z</time>
		</trkpt>
		<trkpt lat="39.6150512695313" lon="2.58839297294617">
			<ele>158.899993896484</ele>
			<time>2013-12-29T13:16:35Z</time>
		</trkpt>
		<trkpt lat="39.6151008605957" lon="2.58842778205872">
			<ele>158.600006103516</ele>
			<time>2013-12-29T13:16:36Z</time>
		</trkpt>
		<trkpt lat="39.6151580810547" lon="2.58846759796143">
			<ele>158.600006103516</ele>
			<time>2013-12-29T13:16:37Z</time>
		</trkpt>
		<trkpt lat="39.6152114868164" lon="2.58850884437561">
			<ele>158.699996948242</ele>
			<time>2013-12-29T13:16:38Z</time>
		</trkpt>
		<trkpt lat="39.6152687072754" lon="2.58854937553406">
			<ele>158.600006103516</ele>
			<time>2013-12-29T13:16:39Z</time>
		</trkpt>
		<trkpt lat="39.6153259277344" lon="2.58859515190125">
			<ele>158.399993896484</ele>
			<time>2013-12-29T13:16:40Z</time>
		</trkpt>
		<trkpt lat="39.6153793334961" lon="2.58863973617554">
			<ele>158.199996948242</ele>
			<time>2013-12-29T13:16:41Z</time>
		</trkpt>
		<trkpt lat="39.6154327392578" lon="2.58868527412415">
			<ele>158.300003051758</ele>
			<time>2013-12-29T13:16:42Z</time>
		</trkpt>
		<trkpt lat="39.6154861450195" lon="2.58873558044434">
			<ele>158.100006103516</ele>
			<time>2013-12-29T13:16:43Z</time>
		</trkpt>
		<trkpt lat="39.615535736084" lon="2.58878779411316">
			<ele>158</ele>
			<time>2013-12-29T13:16:44Z</time>
		</trkpt>
		<trkpt lat="39.6155853271484" lon="2.58884072303772">
			<ele>157.899993896484</ele>
			<time>2013-12-29T13:16:45Z</time>
		</trkpt>
		<trkpt lat="39.6156387329102" lon="2.58889007568359">
			<ele>158.100006103516</ele>
			<time>2013-12-29T13:16:46Z</time>
		</trkpt>
		<trkpt lat="39.6156845092773" lon="2.58894276618958">
			<ele>158.100006103516</ele>
			<time>2013-12-29T13:16:47Z</time>
		</trkpt>
		<trkpt lat="39.6157302856445" lon="2.58899974822998">
			<ele>158.199996948242</ele>
			<time>2013-12-29T13:16:48Z</time>
		</trkpt>
		<trkpt lat="39.615779876709" lon="2.58905148506165">
			<ele>158.300003051758</ele>
			<time>2013-12-29T13:16:49Z</time>
		</trkpt>
		<trkpt lat="39.6158256530762" lon="2.58910894393921">
			<ele>157.800003051758</ele>
			<time>2013-12-29T13:16:50Z</time>
		</trkpt>
		<trkpt lat="39.6158752441406" lon="2.58916330337524">
			<ele>157.899993896484</ele>
			<time>2013-12-29T13:16:51Z</time>
		</trkpt>
		<trkpt lat="39.6159210205078" lon="2.58921909332275">
			<ele>157.699996948242</ele>
			<time>2013-12-29T13:16:52Z</time>
		</trkpt>
		<trkpt lat="39.6159629821777" lon="2.58927178382874">
			<ele>157.800003051758</ele>
			<time>2013-12-29T13:16:53Z</time>
		</trkpt>
		<trkpt lat="39.6160049438477" lon="2.58932423591614">
			<ele>157.399993896484</ele>
			<time>2013-12-29T13:16:54Z</time>
		</trkpt>
		<trkpt lat="39.6160469055176" lon="2.58938074111938">
			<ele>157.199996948242</ele>
			<time>2013-12-29T13:16:55Z</time>
		</trkpt>
		<trkpt lat="39.6160888671875" lon="2.5894410610199">
			<ele>157</ele>
			<time>2013-12-29T13:16:56Z</time>
		</trkpt>
		<trkpt lat="39.6161270141602" lon="2.58950066566467">
			<ele>157.399993896484</ele>
			<time>2013-12-29T13:16:57Z</time>
		</trkpt>
		<trkpt lat="39.6161651611328" lon="2.58956432342529">
			<ele>157.199996948242</ele>
			<time>2013-12-29T13:16:58Z</time>
		</trkpt>
		<trkpt lat="39.6161994934082" lon="2.58962869644165">
			<ele>157.100006103516</ele>
			<time>2013-12-29T13:16:59Z</time>
		</trkpt>
		<trkpt lat="39.6162414550781" lon="2.58969402313232">
			<ele>157.100006103516</ele>
			<time>2013-12-29T13:17:00Z</time>
		</trkpt>
		<trkpt lat="39.6162719726563" lon="2.58975696563721">
			<ele>156.899993896484</ele>
			<time>2013-12-29T13:17:01Z</time>
		</trkpt>
		<trkpt lat="39.6163063049316" lon="2.58981943130493">
			<ele>156.800003051758</ele>
			<time>2013-12-29T13:17:02Z</time>
		</trkpt>
		<trkpt lat="39.616340637207" lon="2.58988499641418">
			<ele>156.800003051758</ele>
			<time>2013-12-29T13:17:03Z</time>
		</trkpt>
		<trkpt lat="39.6163711547852" lon="2.58995056152344">
			<ele>156.600006103516</ele>
			<time>2013-12-29T13:17:04Z</time>
		</trkpt>
		<trkpt lat="39.6164016723633" lon="2.59001517295837">
			<ele>156.300003051758</ele>
			<time>2013-12-29T13:17:05Z</time>
		</trkpt>
		<trkpt lat="39.6164321899414" lon="2.59008193016052">
			<ele>156.100006103516</ele>
			<time>2013-12-29T13:17:06Z</time>
		</trkpt>
		<trkpt lat="39.6164627075195" lon="2.59015536308289">
			<ele>155.899993896484</ele>
			<time>2013-12-29T13:17:07Z</time>
		</trkpt>
		<trkpt lat="39.6164894104004" lon="2.59022092819214">
			<ele>155.199996948242</ele>
			<time>2013-12-29T13:17:08Z</time>
		</trkpt>
		<trkpt lat="39.6165199279785" lon="2.5902898311615">
			<ele>154.5</ele>
			<time>2013-12-29T13:17:09Z</time>
		</trkpt>
		<trkpt lat="39.6165504455566" lon="2.59036564826965">
			<ele>154.199996948242</ele>
			<time>2013-12-29T13:17:10Z</time>
		</trkpt>
		<trkpt lat="39.6165809631348" lon="2.59044051170349">
			<ele>153.5</ele>
			<time>2013-12-29T13:17:11Z</time>
		</trkpt>
		<trkpt lat="39.6166076660156" lon="2.59051942825317">
			<ele>153.399993896484</ele>
			<time>2013-12-29T13:17:12Z</time>
		</trkpt>
		<trkpt lat="39.6166229248047" lon="2.59060072898865">
			<ele>153</ele>
			<time>2013-12-29T13:17:13Z</time>
		</trkpt>
		<trkpt lat="39.6166343688965" lon="2.59068322181702">
			<ele>152.899993896484</ele>
			<time>2013-12-29T13:17:14Z</time>
		</trkpt>
		<trkpt lat="39.6166458129883" lon="2.5907678604126">
			<ele>152.699996948242</ele>
			<time>2013-12-29T13:17:15Z</time>
		</trkpt>
		<trkpt lat="39.616641998291" lon="2.59085750579834">
			<ele>152.399993896484</ele>
			<time>2013-12-29T13:17:16Z</time>
		</trkpt>
		<trkpt lat="39.616641998291" lon="2.59094524383545">
			<ele>151.800003051758</ele>
			<time>2013-12-29T13:17:17Z</time>
		</trkpt>
		<trkpt lat="39.6166381835938" lon="2.5910336971283">
			<ele>151.600006103516</ele>
			<time>2013-12-29T13:17:18Z</time>
		</trkpt>
		<trkpt lat="39.6166381835938" lon="2.59112119674683">
			<ele>151.300003051758</ele>
			<time>2013-12-29T13:17:19Z</time>
		</trkpt>
		<trkpt lat="39.6166381835938" lon="2.59120440483093">
			<ele>151.199996948242</ele>
			<time>2013-12-29T13:17:20Z</time>
		</trkpt>
		<trkpt lat="39.6166381835938" lon="2.5912914276123">
			<ele>151</ele>
			<time>2013-12-29T13:17:21Z</time>
		</trkpt>
		<trkpt lat="39.6166381835938" lon="2.59137320518494">
			<ele>151.300003051758</ele>
			<time>2013-12-29T13:17:22Z</time>
		</trkpt>
		<trkpt lat="39.6166343688965" lon="2.59145927429199">
			<ele>151.199996948242</ele>
			<time>2013-12-29T13:17:23Z</time>
		</trkpt>
		<trkpt lat="39.6166305541992" lon="2.59153866767883">
			<ele>151.300003051758</ele>
			<time>2013-12-29T13:17:24Z</time>
		</trkpt>
		<trkpt lat="39.6166229248047" lon="2.59162545204163">
			<ele>151.600006103516</ele>
			<time>2013-12-29T13:17:25Z</time>
		</trkpt>
		<trkpt lat="39.6166229248047" lon="2.59171032905579">
			<ele>152</ele>
			<time>2013-12-29T13:17:26Z</time>
		</trkpt>
		<trkpt lat="39.6166229248047" lon="2.59179425239563">
			<ele>152.100006103516</ele>
			<time>2013-12-29T13:17:27Z</time>
		</trkpt>
		<trkpt lat="39.6166229248047" lon="2.59187483787537">
			<ele>152.199996948242</ele>
			<time>2013-12-29T13:17:28Z</time>
		</trkpt>
		<trkpt lat="39.6166191101074" lon="2.59196043014526">
			<ele>152.399993896484</ele>
			<time>2013-12-29T13:17:29Z</time>
		</trkpt>
		<trkpt lat="39.6166229248047" lon="2.59204697608948">
			<ele>152.199996948242</ele>
			<time>2013-12-29T13:17:30Z</time>
		</trkpt>
		<trkpt lat="39.6166305541992" lon="2.59212970733643">
			<ele>152</ele>
			<time>2013-12-29T13:17:31Z</time>
		</trkpt>
		<trkpt lat="39.6166381835938" lon="2.59221792221069">
			<ele>151.600006103516</ele>
			<time>2013-12-29T13:17:32Z</time>
		</trkpt>
		<trkpt lat="39.6166496276855" lon="2.59230494499207">
			<ele>151.600006103516</ele>
			<time>2013-12-29T13:17:33Z</time>
		</trkpt>
		<trkpt lat="39.6166572570801" lon="2.59238576889038">
			<ele>151.300003051758</ele>
			<time>2013-12-29T13:17:34Z</time>
		</trkpt>
		<trkpt lat="39.6166610717773" lon="2.59245300292969">
			<ele>151.100006103516</ele>
			<time>2013-12-29T13:17:35Z</time>
		</trkpt>
		<trkpt lat="39.6166763305664" lon="2.59252953529358">
			<ele>151.199996948242</ele>
			<time>2013-12-29T13:17:36Z</time>
		</trkpt>
		<trkpt lat="39.6167106628418" lon="2.59260892868042">
			<ele>151.199996948242</ele>
			<time>2013-12-29T13:17:37Z</time>
		</trkpt>
		<trkpt lat="39.6167526245117" lon="2.59268546104431">
			<ele>151.199996948242</ele>
			<time>2013-12-29T13:17:38Z</time>
		</trkpt>
		<trkpt lat="39.6167945861816" lon="2.59275078773499">
			<ele>151.300003051758</ele>
			<time>2013-12-29T13:17:39Z</time>
		</trkpt>
		<trkpt lat="39.6168403625488" lon="2.59280467033386">
			<ele>151.100006103516</ele>
			<time>2013-12-29T13:17:40Z</time>
		</trkpt>
		<trkpt lat="39.6169242858887" lon="2.59283328056335">
			<ele>151.100006103516</ele>
			<time>2013-12-29T13:17:41Z</time>
		</trkpt>
		<trkpt lat="39.6169624328613" lon="2.5928680896759">
			<ele>151</ele>
			<time>2013-12-29T13:17:42Z</time>
		</trkpt>
		<trkpt lat="39.617015838623" lon="2.59289789199829">
			<ele>151.100006103516</ele>
			<time>2013-12-29T13:17:43Z</time>
		</trkpt>
		<trkpt lat="39.6170768737793" lon="2.59291338920593">
			<ele>151.199996948242</ele>
			<time>2013-12-29T13:17:44Z</time>
		</trkpt>
		<trkpt lat="39.6171455383301" lon="2.59294366836548">
			<ele>151.300003051758</ele>
			<time>2013-12-29T13:17:45Z</time>
		</trkpt>
		<trkpt lat="39.6172180175781" lon="2.5929491519928">
			<ele>151.199996948242</ele>
			<time>2013-12-29T13:17:46Z</time>
		</trkpt>
		<trkpt lat="39.6172828674316" lon="2.59296107292175">
			<ele>150.800003051758</ele>
			<time>2013-12-29T13:17:47Z</time>
		</trkpt>
		<trkpt lat="39.6173439025879" lon="2.59296917915344">
			<ele>150.300003051758</ele>
			<time>2013-12-29T13:17:48Z</time>
		</trkpt>
		<trkpt lat="39.6174049377441" lon="2.59297633171082">
			<ele>150.199996948242</ele>
			<time>2013-12-29T13:17:49Z</time>
		</trkpt>
		<trkpt lat="39.6174621582031" lon="2.59299468994141">
			<ele>150.199996948242</ele>
			<time>2013-12-29T13:17:50Z</time>
		</trkpt>
		<trkpt lat="39.6175231933594" lon="2.5930163860321">
			<ele>150.399993896484</ele>
			<time>2013-12-29T13:17:51Z</time>
		</trkpt>
		<trkpt lat="39.6175994873047" lon="2.59304690361023">
			<ele>150.899993896484</ele>
			<time>2013-12-29T13:17:52Z</time>
		</trkpt>
		<trkpt lat="39.6176681518555" lon="2.59307837486267">
			<ele>150.600006103516</ele>
			<time>2013-12-29T13:17:53Z</time>
		</trkpt>
		<trkpt lat="39.6177253723145" lon="2.59313321113586">
			<ele>149.699996948242</ele>
			<time>2013-12-29T13:17:54Z</time>
		</trkpt>
		<trkpt lat="39.6177787780762" lon="2.59318399429321">
			<ele>149.699996948242</ele>
			<time>2013-12-29T13:17:55Z</time>
		</trkpt>
		<trkpt lat="39.6178207397461" lon="2.59325432777405">
			<ele>149.699996948242</ele>
			<time>2013-12-29T13:17:56Z</time>
		</trkpt>
		<trkpt lat="39.6178550720215" lon="2.59332847595215">
			<ele>149.399993896484</ele>
			<time>2013-12-29T13:17:57Z</time>
		</trkpt>
		<trkpt lat="39.6178779602051" lon="2.59340238571167">
			<ele>148.399993896484</ele>
			<time>2013-12-29T13:17:58Z</time>
		</trkpt>
		<trkpt lat="39.6179046630859" lon="2.59348225593567">
			<ele>148.300003051758</ele>
			<time>2013-12-29T13:17:59Z</time>
		</trkpt>
		<trkpt lat="39.6179275512695" lon="2.59355902671814">
			<ele>148.199996948242</ele>
			<time>2013-12-29T13:18:00Z</time>
		</trkpt>
		<trkpt lat="39.6179428100586" lon="2.5936450958252">
			<ele>147.800003051758</ele>
			<time>2013-12-29T13:18:01Z</time>
		</trkpt>
		<trkpt lat="39.6179542541504" lon="2.59373426437378">
			<ele>147.5</ele>
			<time>2013-12-29T13:18:02Z</time>
		</trkpt>
		<trkpt lat="39.6179733276367" lon="2.59381604194641">
			<ele>147.300003051758</ele>
			<time>2013-12-29T13:18:03Z</time>
		</trkpt>
		<trkpt lat="39.6179962158203" lon="2.59389448165894">
			<ele>147.5</ele>
			<time>2013-12-29T13:18:04Z</time>
		</trkpt>
		<trkpt lat="39.6180152893066" lon="2.59397649765015">
			<ele>147.300003051758</ele>
			<time>2013-12-29T13:18:05Z</time>
		</trkpt>
		<trkpt lat="39.6180191040039" lon="2.59405636787415">
			<ele>147.100006103516</ele>
			<time>2013-12-29T13:18:06Z</time>
		</trkpt>
		<trkpt lat="39.6180267333984" lon="2.59413909912109">
			<ele>146.899993896484</ele>
			<time>2013-12-29T13:18:07Z</time>
		</trkpt>
		<trkpt lat="39.6180267333984" lon="2.59421944618225">
			<ele>146.699996948242</ele>
			<time>2013-12-29T13:18:08Z</time>
		</trkpt>
		<trkpt lat="39.6180191040039" lon="2.59431648254395">
			<ele>147</ele>
			<time>2013-12-29T13:18:09Z</time>
		</trkpt>
		<trkpt lat="39.6180229187012" lon="2.59440684318542">
			<ele>147.300003051758</ele>
			<time>2013-12-29T13:18:10Z</time>
		</trkpt>
		<trkpt lat="39.6180267333984" lon="2.59448933601379">
			<ele>147.100006103516</ele>
			<time>2013-12-29T13:18:11Z</time>
		</trkpt>
		<trkpt lat="39.6180267333984" lon="2.59457445144653">
			<ele>146.699996948242</ele>
			<time>2013-12-29T13:18:12Z</time>
		</trkpt>
		<trkpt lat="39.6180267333984" lon="2.59465980529785">
			<ele>146.5</ele>
			<time>2013-12-29T13:18:13Z</time>
		</trkpt>
		<trkpt lat="39.618034362793" lon="2.59474396705627">
			<ele>146.199996948242</ele>
			<time>2013-12-29T13:18:14Z</time>
		</trkpt>
		<trkpt lat="39.618034362793" lon="2.59482836723328">
			<ele>146.100006103516</ele>
			<time>2013-12-29T13:18:15Z</time>
		</trkpt>
		<trkpt lat="39.618034362793" lon="2.59491229057312">
			<ele>146.199996948242</ele>
			<time>2013-12-29T13:18:16Z</time>
		</trkpt>
		<trkpt lat="39.6180381774902" lon="2.59500336647034">
			<ele>146.199996948242</ele>
			<time>2013-12-29T13:18:17Z</time>
		</trkpt>
		<trkpt lat="39.6180381774902" lon="2.59508728981018">
			<ele>146.100006103516</ele>
			<time>2013-12-29T13:18:18Z</time>
		</trkpt>
		<trkpt lat="39.6180458068848" lon="2.59516882896423">
			<ele>146</ele>
			<time>2013-12-29T13:18:19Z</time>
		</trkpt>
		<trkpt lat="39.618049621582" lon="2.59525609016418">
			<ele>146</ele>
			<time>2013-12-29T13:18:20Z</time>
		</trkpt>
		<trkpt lat="39.6180534362793" lon="2.59533929824829">
			<ele>146</ele>
			<time>2013-12-29T13:18:21Z</time>
		</trkpt>
		<trkpt lat="39.6180572509766" lon="2.5954225063324">
			<ele>146</ele>
			<time>2013-12-29T13:18:22Z</time>
		</trkpt>
		<trkpt lat="39.6180648803711" lon="2.59551000595093">
			<ele>145.800003051758</ele>
			<time>2013-12-29T13:18:23Z</time>
		</trkpt>
		<trkpt lat="39.6180686950684" lon="2.59558725357056">
			<ele>146</ele>
			<time>2013-12-29T13:18:24Z</time>
		</trkpt>
		<trkpt lat="39.6180763244629" lon="2.59566807746887">
			<ele>145.899993896484</ele>
			<time>2013-12-29T13:18:25Z</time>
		</trkpt>
		<trkpt lat="39.6180839538574" lon="2.5957498550415">
			<ele>145.399993896484</ele>
			<time>2013-12-29T13:18:26Z</time>
		</trkpt>
		<trkpt lat="39.618091583252" lon="2.59583353996277">
			<ele>145.399993896484</ele>
			<time>2013-12-29T13:18:27Z</time>
		</trkpt>
		<trkpt lat="39.6181030273438" lon="2.59591674804688">
			<ele>145.300003051758</ele>
			<time>2013-12-29T13:18:28Z</time>
		</trkpt>
		<trkpt lat="39.6181144714355" lon="2.5960066318512">
			<ele>145.399993896484</ele>
			<time>2013-12-29T13:18:29Z</time>
		</trkpt>
		<trkpt lat="39.6181221008301" lon="2.59609365463257">
			<ele>145.399993896484</ele>
			<time>2013-12-29T13:18:30Z</time>
		</trkpt>
		<trkpt lat="39.6181449890137" lon="2.59617400169373">
			<ele>144.699996948242</ele>
			<time>2013-12-29T13:18:31Z</time>
		</trkpt>
		<trkpt lat="39.6181602478027" lon="2.59625935554504">
			<ele>144.899993896484</ele>
			<time>2013-12-29T13:18:32Z</time>
		</trkpt>
		<trkpt lat="39.6181716918945" lon="2.59634590148926">
			<ele>144.600006103516</ele>
			<time>2013-12-29T13:18:33Z</time>
		</trkpt>
		<trkpt lat="39.6181907653809" lon="2.59643220901489">
			<ele>144.600006103516</ele>
			<time>2013-12-29T13:18:34Z</time>
		</trkpt>
		<trkpt lat="39.6182060241699" lon="2.59651970863342">
			<ele>144.5</ele>
			<time>2013-12-29T13:18:35Z</time>
		</trkpt>
		<trkpt lat="39.6182174682617" lon="2.59660840034485">
			<ele>144.399993896484</ele>
			<time>2013-12-29T13:18:36Z</time>
		</trkpt>
		<trkpt lat="39.618236541748" lon="2.59669923782349">
			<ele>144.100006103516</ele>
			<time>2013-12-29T13:18:37Z</time>
		</trkpt>
		<trkpt lat="39.6182479858398" lon="2.59678316116333">
			<ele>144.100006103516</ele>
			<time>2013-12-29T13:18:38Z</time>
		</trkpt>
		<trkpt lat="39.6182594299316" lon="2.59687089920044">
			<ele>144.300003051758</ele>
			<time>2013-12-29T13:18:39Z</time>
		</trkpt>
		<trkpt lat="39.6182746887207" lon="2.59695243835449">
			<ele>144.300003051758</ele>
			<time>2013-12-29T13:18:40Z</time>
		</trkpt>
		<trkpt lat="39.6182899475098" lon="2.59703636169434">
			<ele>144.100006103516</ele>
			<time>2013-12-29T13:18:41Z</time>
		</trkpt>
		<trkpt lat="39.6182975769043" lon="2.59712719917297">
			<ele>144.100006103516</ele>
			<time>2013-12-29T13:18:42Z</time>
		</trkpt>
		<trkpt lat="39.6183090209961" lon="2.59721255302429">
			<ele>143.899993896484</ele>
			<time>2013-12-29T13:18:43Z</time>
		</trkpt>
		<trkpt lat="39.6183280944824" lon="2.59729337692261">
			<ele>144.5</ele>
			<time>2013-12-29T13:18:44Z</time>
		</trkpt>
		<trkpt lat="39.6183433532715" lon="2.59737634658813">
			<ele>144.300003051758</ele>
			<time>2013-12-29T13:18:45Z</time>
		</trkpt>
		<trkpt lat="39.6183547973633" lon="2.59745526313782">
			<ele>144</ele>
			<time>2013-12-29T13:18:46Z</time>
		</trkpt>
		<trkpt lat="39.6183700561523" lon="2.59753847122192">
			<ele>143.800003051758</ele>
			<time>2013-12-29T13:18:47Z</time>
		</trkpt>
		<trkpt lat="39.6183891296387" lon="2.59762287139893">
			<ele>143.899993896484</ele>
			<time>2013-12-29T13:18:48Z</time>
		</trkpt>
		<trkpt lat="39.6184043884277" lon="2.59770846366882">
			<ele>143.899993896484</ele>
			<time>2013-12-29T13:18:49Z</time>
		</trkpt>
		<trkpt lat="39.6184196472168" lon="2.59779381752014">
			<ele>143.800003051758</ele>
			<time>2013-12-29T13:18:50Z</time>
		</trkpt>
		<trkpt lat="39.6184349060059" lon="2.59788298606873">
			<ele>143.800003051758</ele>
			<time>2013-12-29T13:18:51Z</time>
		</trkpt>
		<trkpt lat="39.6184501647949" lon="2.59796762466431">
			<ele>143.399993896484</ele>
			<time>2013-12-29T13:18:52Z</time>
		</trkpt>
		<trkpt lat="39.6184616088867" lon="2.59805107116699">
			<ele>143.100006103516</ele>
			<time>2013-12-29T13:18:53Z</time>
		</trkpt>
		<trkpt lat="39.618480682373" lon="2.5981342792511">
			<ele>143.100006103516</ele>
			<time>2013-12-29T13:18:54Z</time>
		</trkpt>
		<trkpt lat="39.6184921264648" lon="2.59821653366089">
			<ele>143</ele>
			<time>2013-12-29T13:18:55Z</time>
		</trkpt>
		<trkpt lat="39.6185073852539" lon="2.598299741745">
			<ele>142.800003051758</ele>
			<time>2013-12-29T13:18:56Z</time>
		</trkpt>
		<trkpt lat="39.618522644043" lon="2.59838008880615">
			<ele>142.699996948242</ele>
			<time>2013-12-29T13:18:57Z</time>
		</trkpt>
		<trkpt lat="39.6185417175293" lon="2.59845995903015">
			<ele>142.5</ele>
			<time>2013-12-29T13:18:58Z</time>
		</trkpt>
		<trkpt lat="39.6185569763184" lon="2.59853935241699">
			<ele>142.699996948242</ele>
			<time>2013-12-29T13:18:59Z</time>
		</trkpt>
		<trkpt lat="39.6185684204102" lon="2.59862065315247">
			<ele>142.699996948242</ele>
			<time>2013-12-29T13:19:00Z</time>
		</trkpt>
		<trkpt lat="39.618579864502" lon="2.59869790077209">
			<ele>142.199996948242</ele>
			<time>2013-12-29T13:19:01Z</time>
		</trkpt>
		<trkpt lat="39.618595123291" lon="2.59877848625183">
			<ele>142.100006103516</ele>
			<time>2013-12-29T13:19:02Z</time>
		</trkpt>
		<trkpt lat="39.6186103820801" lon="2.59885740280151">
			<ele>141.800003051758</ele>
			<time>2013-12-29T13:19:03Z</time>
		</trkpt>
		<trkpt lat="39.6186218261719" lon="2.5989396572113">
			<ele>141.800003051758</ele>
			<time>2013-12-29T13:19:04Z</time>
		</trkpt>
		<trkpt lat="39.6186370849609" lon="2.59901571273804">
			<ele>141.600006103516</ele>
			<time>2013-12-29T13:19:05Z</time>
		</trkpt>
		<trkpt lat="39.6186561584473" lon="2.59909415245056">
			<ele>141.199996948242</ele>
			<time>2013-12-29T13:19:06Z</time>
		</trkpt>
		<trkpt lat="39.6186714172363" lon="2.59917068481445">
			<ele>141.199996948242</ele>
			<time>2013-12-29T13:19:07Z</time>
		</trkpt>
		<trkpt lat="39.6186828613281" lon="2.59924554824829">
			<ele>141.300003051758</ele>
			<time>2013-12-29T13:19:08Z</time>
		</trkpt>
		<trkpt lat="39.6186943054199" lon="2.59931588172913">
			<ele>141.399993896484</ele>
			<time>2013-12-29T13:19:09Z</time>
		</trkpt>
		<trkpt lat="39.6187133789063" lon="2.59938478469849">
			<ele>141.199996948242</ele>
			<time>2013-12-29T13:19:10Z</time>
		</trkpt>
		<trkpt lat="39.6187210083008" lon="2.59945893287659">
			<ele>141.300003051758</ele>
			<time>2013-12-29T13:19:11Z</time>
		</trkpt>
		<trkpt lat="39.6187362670898" lon="2.5995306968689">
			<ele>141.100006103516</ele>
			<time>2013-12-29T13:19:12Z</time>
		</trkpt>
		<trkpt lat="39.6187477111816" lon="2.59959864616394">
			<ele>141</ele>
			<time>2013-12-29T13:19:13Z</time>
		</trkpt>
		<trkpt lat="39.6187705993652" lon="2.5996561050415">
			<ele>141.100006103516</ele>
			<time>2013-12-29T13:19:14Z</time>
		</trkpt>
		<trkpt lat="39.6187934875488" lon="2.59971761703491">
			<ele>140.800003051758</ele>
			<time>2013-12-29T13:19:15Z</time>
		</trkpt>
		<trkpt lat="39.6188125610352" lon="2.59977412223816">
			<ele>140.699996948242</ele>
			<time>2013-12-29T13:19:16Z</time>
		</trkpt>
		<trkpt lat="39.6188354492188" lon="2.59983777999878">
			<ele>140.800003051758</ele>
			<time>2013-12-29T13:19:17Z</time>
		</trkpt>
		<trkpt lat="39.6188545227051" lon="2.59989833831787">
			<ele>140.800003051758</ele>
			<time>2013-12-29T13:19:18Z</time>
		</trkpt>
		<trkpt lat="39.6188735961914" lon="2.59995293617249">
			<ele>141.100006103516</ele>
			<time>2013-12-29T13:19:19Z</time>
		</trkpt>
		<trkpt lat="39.618896484375" lon="2.60000848770142">
			<ele>141.199996948242</ele>
			<time>2013-12-29T13:19:20Z</time>
		</trkpt>
		<trkpt lat="39.6189117431641" lon="2.60006618499756">
			<ele>141.199996948242</ele>
			<time>2013-12-29T13:19:21Z</time>
		</trkpt>
		<trkpt lat="39.6189575195313" lon="2.60016107559204">
			<ele>141.399993896484</ele>
			<time>2013-12-29T13:19:23Z</time>
		</trkpt>
		<trkpt lat="39.6189918518066" lon="2.60025978088379">
			<ele>141.899993896484</ele>
			<time>2013-12-29T13:19:25Z</time>
		</trkpt>
		<trkpt lat="39.619026184082" lon="2.60035276412964">
			<ele>142.300003051758</ele>
			<time>2013-12-29T13:19:27Z</time>
		</trkpt>
		<trkpt lat="39.6190605163574" lon="2.60042786598206">
			<ele>142.600006103516</ele>
			<time>2013-12-29T13:19:29Z</time>
		</trkpt>
		<trkpt lat="39.6190910339355" lon="2.60050797462463">
			<ele>141.699996948242</ele>
			<time>2013-12-29T13:19:31Z</time>
		</trkpt>
		<trkpt lat="39.6191368103027" lon="2.6005847454071">
			<ele>141.800003051758</ele>
			<time>2013-12-29T13:19:33Z</time>
		</trkpt>
		<trkpt lat="39.6191940307617" lon="2.600661277771">
			<ele>141.800003051758</ele>
			<time>2013-12-29T13:19:35Z</time>
		</trkpt>
		<trkpt lat="39.6192741394043" lon="2.60072708129883">
			<ele>141.5</ele>
			<time>2013-12-29T13:19:37Z</time>
		</trkpt>
		<trkpt lat="39.6193580627441" lon="2.6007707118988">
			<ele>140.699996948242</ele>
			<time>2013-12-29T13:19:39Z</time>
		</trkpt>
		<trkpt lat="39.6194038391113" lon="2.60079431533813">
			<ele>140.899993896484</ele>
			<time>2013-12-29T13:19:40Z</time>
		</trkpt>
		<trkpt lat="39.619457244873" lon="2.60081267356873">
			<ele>140.800003051758</ele>
			<time>2013-12-29T13:19:41Z</time>
		</trkpt>
		<trkpt lat="39.619514465332" lon="2.60082459449768">
			<ele>140.5</ele>
			<time>2013-12-29T13:19:42Z</time>
		</trkpt>
		<trkpt lat="39.6195678710938" lon="2.60083651542664">
			<ele>140.5</ele>
			<time>2013-12-29T13:19:43Z</time>
		</trkpt>
		<trkpt lat="39.61962890625" lon="2.60084772109985">
			<ele>140.5</ele>
			<time>2013-12-29T13:19:44Z</time>
		</trkpt>
		<trkpt lat="39.6196937561035" lon="2.60086226463318">
			<ele>139.800003051758</ele>
			<time>2013-12-29T13:19:45Z</time>
		</trkpt>
		<trkpt lat="39.6197624206543" lon="2.60088610649109">
			<ele>139.899993896484</ele>
			<time>2013-12-29T13:19:46Z</time>
		</trkpt>
		<trkpt lat="39.6198272705078" lon="2.60090899467468">
			<ele>139.5</ele>
			<time>2013-12-29T13:19:47Z</time>
		</trkpt>
		<trkpt lat="39.6198959350586" lon="2.60093808174133">
			<ele>139.5</ele>
			<time>2013-12-29T13:19:48Z</time>
		</trkpt>
		<trkpt lat="39.6199607849121" lon="2.60098457336426">
			<ele>138.899993896484</ele>
			<time>2013-12-29T13:19:49Z</time>
		</trkpt>
		<trkpt lat="39.6200294494629" lon="2.60103392601013">
			<ele>138.899993896484</ele>
			<time>2013-12-29T13:19:50Z</time>
		</trkpt>
		<trkpt lat="39.6200904846191" lon="2.60108637809753">
			<ele>138.300003051758</ele>
			<time>2013-12-29T13:19:51Z</time>
		</trkpt>
		<trkpt lat="39.6201477050781" lon="2.60114908218384">
			<ele>138.100006103516</ele>
			<time>2013-12-29T13:19:52Z</time>
		</trkpt>
		<trkpt lat="39.6202049255371" lon="2.60121321678162">
			<ele>138.5</ele>
			<time>2013-12-29T13:19:53Z</time>
		</trkpt>
		<trkpt lat="39.6202545166016" lon="2.60128426551819">
			<ele>137.899993896484</ele>
			<time>2013-12-29T13:19:54Z</time>
		</trkpt>
		<trkpt lat="39.6202964782715" lon="2.60136127471924">
			<ele>137.5</ele>
			<time>2013-12-29T13:19:55Z</time>
		</trkpt>
		<trkpt lat="39.6203384399414" lon="2.60144925117493">
			<ele>137.5</ele>
			<time>2013-12-29T13:19:56Z</time>
		</trkpt>
		<trkpt lat="39.6203689575195" lon="2.60153484344482">
			<ele>137.300003051758</ele>
			<time>2013-12-29T13:19:57Z</time>
		</trkpt>
		<trkpt lat="39.6203994750977" lon="2.60162711143494">
			<ele>137.300003051758</ele>
			<time>2013-12-29T13:19:58Z</time>
		</trkpt>
		<trkpt lat="39.6204261779785" lon="2.60172319412231">
			<ele>137.300003051758</ele>
			<time>2013-12-29T13:19:59Z</time>
		</trkpt>
		<trkpt lat="39.6204414367676" lon="2.60182046890259">
			<ele>137.399993896484</ele>
			<time>2013-12-29T13:20:00Z</time>
		</trkpt>
		<trkpt lat="39.6204566955566" lon="2.60191893577576">
			<ele>137.300003051758</ele>
			<time>2013-12-29T13:20:01Z</time>
		</trkpt>
		<trkpt lat="39.6204643249512" lon="2.60201954841614">
			<ele>137</ele>
			<time>2013-12-29T13:20:02Z</time>
		</trkpt>
		<trkpt lat="39.620475769043" lon="2.60211563110352">
			<ele>136.899993896484</ele>
			<time>2013-12-29T13:20:03Z</time>
		</trkpt>
		<trkpt lat="39.620491027832" lon="2.60221576690674">
			<ele>136.800003051758</ele>
			<time>2013-12-29T13:20:04Z</time>
		</trkpt>
		<trkpt lat="39.6204986572266" lon="2.6023166179657">
			<ele>137.199996948242</ele>
			<time>2013-12-29T13:20:05Z</time>
		</trkpt>
		<trkpt lat="39.6205062866211" lon="2.60241436958313">
			<ele>137.199996948242</ele>
			<time>2013-12-29T13:20:06Z</time>
		</trkpt>
		<trkpt lat="39.6205177307129" lon="2.60251092910767">
			<ele>136.899993896484</ele>
			<time>2013-12-29T13:20:07Z</time>
		</trkpt>
		<trkpt lat="39.6205291748047" lon="2.60260891914368">
			<ele>136.600006103516</ele>
			<time>2013-12-29T13:20:08Z</time>
		</trkpt>
		<trkpt lat="39.6205406188965" lon="2.60270619392395">
			<ele>136.699996948242</ele>
			<time>2013-12-29T13:20:09Z</time>
		</trkpt>
		<trkpt lat="39.6205520629883" lon="2.60280179977417">
			<ele>136.699996948242</ele>
			<time>2013-12-29T13:20:10Z</time>
		</trkpt>
		<trkpt lat="39.6205635070801" lon="2.60289931297302">
			<ele>136.600006103516</ele>
			<time>2013-12-29T13:20:11Z</time>
		</trkpt>
		<trkpt lat="39.6205787658691" lon="2.60299301147461">
			<ele>136.699996948242</ele>
			<time>2013-12-29T13:20:12Z</time>
		</trkpt>
		<trkpt lat="39.6205825805664" lon="2.60308361053467">
			<ele>136</ele>
			<time>2013-12-29T13:20:13Z</time>
		</trkpt>
		<trkpt lat="39.6205940246582" lon="2.60318064689636">
			<ele>136</ele>
			<time>2013-12-29T13:20:14Z</time>
		</trkpt>
		<trkpt lat="39.6205978393555" lon="2.60327768325806">
			<ele>135.899993896484</ele>
			<time>2013-12-29T13:20:15Z</time>
		</trkpt>
		<trkpt lat="39.6206130981445" lon="2.60336875915527">
			<ele>136.300003051758</ele>
			<time>2013-12-29T13:20:16Z</time>
		</trkpt>
		<trkpt lat="39.6206245422363" lon="2.60345959663391">
			<ele>135.699996948242</ele>
			<time>2013-12-29T13:20:17Z</time>
		</trkpt>
		<trkpt lat="39.6206321716309" lon="2.60355734825134">
			<ele>135.800003051758</ele>
			<time>2013-12-29T13:20:18Z</time>
		</trkpt>
		<trkpt lat="39.6206398010254" lon="2.60365033149719">
			<ele>135.600006103516</ele>
			<time>2013-12-29T13:20:19Z</time>
		</trkpt>
		<trkpt lat="39.6206398010254" lon="2.60374283790588">
			<ele>135.399993896484</ele>
			<time>2013-12-29T13:20:20Z</time>
		</trkpt>
		<trkpt lat="39.6206398010254" lon="2.60383176803589">
			<ele>135.300003051758</ele>
			<time>2013-12-29T13:20:21Z</time>
		</trkpt>
		<trkpt lat="39.6206398010254" lon="2.60391759872437">
			<ele>135.100006103516</ele>
			<time>2013-12-29T13:20:22Z</time>
		</trkpt>
		<trkpt lat="39.6206321716309" lon="2.60400938987732">
			<ele>134.899993896484</ele>
			<time>2013-12-29T13:20:23Z</time>
		</trkpt>
		<trkpt lat="39.6206283569336" lon="2.6040997505188">
			<ele>135</ele>
			<time>2013-12-29T13:20:24Z</time>
		</trkpt>
		<trkpt lat="39.6206245422363" lon="2.60419011116028">
			<ele>134.699996948242</ele>
			<time>2013-12-29T13:20:25Z</time>
		</trkpt>
		<trkpt lat="39.6206245422363" lon="2.6042742729187">
			<ele>134.300003051758</ele>
			<time>2013-12-29T13:20:26Z</time>
		</trkpt>
		<trkpt lat="39.6206169128418" lon="2.60436463356018">
			<ele>134.199996948242</ele>
			<time>2013-12-29T13:20:27Z</time>
		</trkpt>
		<trkpt lat="39.6206130981445" lon="2.6044545173645">
			<ele>134.199996948242</ele>
			<time>2013-12-29T13:20:28Z</time>
		</trkpt>
		<trkpt lat="39.6206130981445" lon="2.60454440116882">
			<ele>134.100006103516</ele>
			<time>2013-12-29T13:20:29Z</time>
		</trkpt>
		<trkpt lat="39.62060546875" lon="2.60463213920593">
			<ele>133.699996948242</ele>
			<time>2013-12-29T13:20:30Z</time>
		</trkpt>
		<trkpt lat="39.6205940246582" lon="2.60471963882446">
			<ele>133.699996948242</ele>
			<time>2013-12-29T13:20:31Z</time>
		</trkpt>
		<trkpt lat="39.6205825805664" lon="2.60480618476868">
			<ele>133.600006103516</ele>
			<time>2013-12-29T13:20:32Z</time>
		</trkpt>
		<trkpt lat="39.6205635070801" lon="2.60489130020142">
			<ele>133.5</ele>
			<time>2013-12-29T13:20:33Z</time>
		</trkpt>
		<trkpt lat="39.6205406188965" lon="2.60497307777405">
			<ele>133.100006103516</ele>
			<time>2013-12-29T13:20:34Z</time>
		</trkpt>
		<trkpt lat="39.6205177307129" lon="2.60505652427673">
			<ele>133.399993896484</ele>
			<time>2013-12-29T13:20:35Z</time>
		</trkpt>
		<trkpt lat="39.620491027832" lon="2.60513591766357">
			<ele>133.5</ele>
			<time>2013-12-29T13:20:36Z</time>
		</trkpt>
		<trkpt lat="39.6204643249512" lon="2.60521960258484">
			<ele>133.800003051758</ele>
			<time>2013-12-29T13:20:37Z</time>
		</trkpt>
		<trkpt lat="39.6204452514648" lon="2.60529947280884">
			<ele>134</ele>
			<time>2013-12-29T13:20:38Z</time>
		</trkpt>
		<trkpt lat="39.6204376220703" lon="2.60538339614868">
			<ele>133.899993896484</ele>
			<time>2013-12-29T13:20:39Z</time>
		</trkpt>
		<trkpt lat="39.620475769043" lon="2.60546326637268">
			<ele>133</ele>
			<time>2013-12-29T13:20:40Z</time>
		</trkpt>
		<trkpt lat="39.6205024719238" lon="2.60555601119995">
			<ele>132.100006103516</ele>
			<time>2013-12-29T13:20:41Z</time>
		</trkpt>
		<trkpt lat="39.6205177307129" lon="2.60565710067749">
			<ele>131.300003051758</ele>
			<time>2013-12-29T13:20:42Z</time>
		</trkpt>
		<trkpt lat="39.6205101013184" lon="2.6057608127594">
			<ele>130.899993896484</ele>
			<time>2013-12-29T13:20:43Z</time>
		</trkpt>
		<trkpt lat="39.6204986572266" lon="2.60586667060852">
			<ele>130.300003051758</ele>
			<time>2013-12-29T13:20:44Z</time>
		</trkpt>
		<trkpt lat="39.6204872131348" lon="2.60597372055054">
			<ele>129.699996948242</ele>
			<time>2013-12-29T13:20:45Z</time>
		</trkpt>
		<trkpt lat="39.6204795837402" lon="2.60608077049255">
			<ele>129.5</ele>
			<time>2013-12-29T13:20:46Z</time>
		</trkpt>
		<trkpt lat="39.6204719543457" lon="2.60618853569031">
			<ele>129.399993896484</ele>
			<time>2013-12-29T13:20:47Z</time>
		</trkpt>
		<trkpt lat="39.6204643249512" lon="2.60629653930664">
			<ele>129.199996948242</ele>
			<time>2013-12-29T13:20:48Z</time>
		</trkpt>
		<trkpt lat="39.6204605102539" lon="2.60640501976013">
			<ele>129.100006103516</ele>
			<time>2013-12-29T13:20:49Z</time>
		</trkpt>
		<trkpt lat="39.6204566955566" lon="2.60651159286499">
			<ele>129.100006103516</ele>
			<time>2013-12-29T13:20:50Z</time>
		</trkpt>
		<trkpt lat="39.6204490661621" lon="2.60661864280701">
			<ele>129.300003051758</ele>
			<time>2013-12-29T13:20:51Z</time>
		</trkpt>
		<trkpt lat="39.6204452514648" lon="2.60671877861023">
			<ele>129.300003051758</ele>
			<time>2013-12-29T13:20:52Z</time>
		</trkpt>
		<trkpt lat="39.6204452514648" lon="2.60682201385498">
			<ele>129.199996948242</ele>
			<time>2013-12-29T13:20:53Z</time>
		</trkpt>
		<trkpt lat="39.6204299926758" lon="2.60693311691284">
			<ele>128.899993896484</ele>
			<time>2013-12-29T13:20:54Z</time>
		</trkpt>
		<trkpt lat="39.6204261779785" lon="2.60703945159912">
			<ele>128.800003051758</ele>
			<time>2013-12-29T13:20:55Z</time>
		</trkpt>
		<trkpt lat="39.620418548584" lon="2.6071457862854">
			<ele>128.5</ele>
			<time>2013-12-29T13:20:56Z</time>
		</trkpt>
		<trkpt lat="39.6204605102539" lon="2.60722994804382">
			<ele>128.100006103516</ele>
			<time>2013-12-29T13:20:57Z</time>
		</trkpt>
		<trkpt lat="39.6204986572266" lon="2.60730457305908">
			<ele>128</ele>
			<time>2013-12-29T13:20:58Z</time>
		</trkpt>
		<trkpt lat="39.620548248291" lon="2.6073751449585">
			<ele>128</ele>
			<time>2013-12-29T13:20:59Z</time>
		</trkpt>
		<trkpt lat="39.62060546875" lon="2.60741996765137">
			<ele>128.399993896484</ele>
			<time>2013-12-29T13:21:00Z</time>
		</trkpt>
		<trkpt lat="39.6206550598145" lon="2.60747885704041">
			<ele>128.5</ele>
			<time>2013-12-29T13:21:01Z</time>
		</trkpt>
		<trkpt lat="39.6206893920898" lon="2.60754704475403">
			<ele>128.5</ele>
			<time>2013-12-29T13:21:02Z</time>
		</trkpt>
		<trkpt lat="39.6207160949707" lon="2.60762500762939">
			<ele>128.399993896484</ele>
			<time>2013-12-29T13:21:03Z</time>
		</trkpt>
		<trkpt lat="39.6207275390625" lon="2.60770177841187">
			<ele>128.800003051758</ele>
			<time>2013-12-29T13:21:04Z</time>
		</trkpt>
		<trkpt lat="39.6207313537598" lon="2.60778212547302">
			<ele>128.800003051758</ele>
			<time>2013-12-29T13:21:05Z</time>
		</trkpt>
		<trkpt lat="39.6207313537598" lon="2.60785889625549">
			<ele>128.899993896484</ele>
			<time>2013-12-29T13:21:06Z</time>
		</trkpt>
		<trkpt lat="39.620735168457" lon="2.60793614387512">
			<ele>129.399993896484</ele>
			<time>2013-12-29T13:21:07Z</time>
		</trkpt>
		<trkpt lat="39.6207389831543" lon="2.60801315307617">
			<ele>129.399993896484</ele>
			<time>2013-12-29T13:21:08Z</time>
		</trkpt>
		<trkpt lat="39.6207427978516" lon="2.60808849334717">
			<ele>129.300003051758</ele>
			<time>2013-12-29T13:21:09Z</time>
		</trkpt>
		<trkpt lat="39.6207427978516" lon="2.60816550254822">
			<ele>129.300003051758</ele>
			<time>2013-12-29T13:21:10Z</time>
		</trkpt>
		<trkpt lat="39.6207504272461" lon="2.60824704170227">
			<ele>129.199996948242</ele>
			<time>2013-12-29T13:21:11Z</time>
		</trkpt>
		<trkpt lat="39.6207504272461" lon="2.60832762718201">
			<ele>129</ele>
			<time>2013-12-29T13:21:12Z</time>
		</trkpt>
		<trkpt lat="39.6207580566406" lon="2.60840368270874">
			<ele>129.199996948242</ele>
			<time>2013-12-29T13:21:13Z</time>
		</trkpt>
		<trkpt lat="39.6207618713379" lon="2.60847759246826">
			<ele>129.199996948242</ele>
			<time>2013-12-29T13:21:14Z</time>
		</trkpt>
		<trkpt lat="39.6207695007324" lon="2.60855340957642">
			<ele>129</ele>
			<time>2013-12-29T13:21:15Z</time>
		</trkpt>
		<trkpt lat="39.6207733154297" lon="2.60862922668457">
			<ele>128.800003051758</ele>
			<time>2013-12-29T13:21:16Z</time>
		</trkpt>
		<trkpt lat="39.6207809448242" lon="2.60870170593262">
			<ele>128.800003051758</ele>
			<time>2013-12-29T13:21:17Z</time>
		</trkpt>
		<trkpt lat="39.6207809448242" lon="2.6087760925293">
			<ele>128.800003051758</ele>
			<time>2013-12-29T13:21:18Z</time>
		</trkpt>
		<trkpt lat="39.6207847595215" lon="2.6088535785675">
			<ele>128.800003051758</ele>
			<time>2013-12-29T13:21:19Z</time>
		</trkpt>
		<trkpt lat="39.6207847595215" lon="2.60892820358276">
			<ele>128.600006103516</ele>
			<time>2013-12-29T13:21:20Z</time>
		</trkpt>
		<trkpt lat="39.6207885742188" lon="2.60900068283081">
			<ele>128.5</ele>
			<time>2013-12-29T13:21:21Z</time>
		</trkpt>
		<trkpt lat="39.620792388916" lon="2.60907292366028">
			<ele>128.600006103516</ele>
			<time>2013-12-29T13:21:22Z</time>
		</trkpt>
		<trkpt lat="39.6208000183105" lon="2.60914587974548">
			<ele>128.5</ele>
			<time>2013-12-29T13:21:23Z</time>
		</trkpt>
		<trkpt lat="39.6208038330078" lon="2.60922026634216">
			<ele>128.699996948242</ele>
			<time>2013-12-29T13:21:24Z</time>
		</trkpt>
		<trkpt lat="39.6208038330078" lon="2.60929226875305">
			<ele>128.699996948242</ele>
			<time>2013-12-29T13:21:25Z</time>
		</trkpt>
		<trkpt lat="39.6208076477051" lon="2.60936498641968">
			<ele>129</ele>
			<time>2013-12-29T13:21:26Z</time>
		</trkpt>
		<trkpt lat="39.6208114624023" lon="2.60943508148193">
			<ele>129.100006103516</ele>
			<time>2013-12-29T13:21:27Z</time>
		</trkpt>
		<trkpt lat="39.6208190917969" lon="2.60951113700867">
			<ele>128.899993896484</ele>
			<time>2013-12-29T13:21:28Z</time>
		</trkpt>
		<trkpt lat="39.6208267211914" lon="2.60957908630371">
			<ele>128.899993896484</ele>
			<time>2013-12-29T13:21:29Z</time>
		</trkpt>
		<trkpt lat="39.6208343505859" lon="2.60964822769165">
			<ele>129</ele>
			<time>2013-12-29T13:21:30Z</time>
		</trkpt>
		<trkpt lat="39.6208457946777" lon="2.60971736907959">
			<ele>128.699996948242</ele>
			<time>2013-12-29T13:21:31Z</time>
		</trkpt>
		<trkpt lat="39.6208572387695" lon="2.60978770256042">
			<ele>129.100006103516</ele>
			<time>2013-12-29T13:21:32Z</time>
		</trkpt>
		<trkpt lat="39.6208648681641" lon="2.60985851287842">
			<ele>129.399993896484</ele>
			<time>2013-12-29T13:21:33Z</time>
		</trkpt>
		<trkpt lat="39.6208877563477" lon="2.60999894142151">
			<ele>130</ele>
			<time>2013-12-29T13:21:35Z</time>
		</trkpt>
		<trkpt lat="39.6209030151367" lon="2.61007022857666">
			<ele>130</ele>
			<time>2013-12-29T13:21:36Z</time>
		</trkpt>
		<trkpt lat="39.6209144592285" lon="2.61013984680176">
			<ele>129.800003051758</ele>
			<time>2013-12-29T13:21:37Z</time>
		</trkpt>
		<trkpt lat="39.6209335327148" lon="2.61020827293396">
			<ele>129.899993896484</ele>
			<time>2013-12-29T13:21:38Z</time>
		</trkpt>
		<trkpt lat="39.6209487915039" lon="2.61027884483337">
			<ele>130</ele>
			<time>2013-12-29T13:21:39Z</time>
		</trkpt>
		<trkpt lat="39.6209678649902" lon="2.61034560203552">
			<ele>129.800003051758</ele>
			<time>2013-12-29T13:21:40Z</time>
		</trkpt>
		<trkpt lat="39.6209907531738" lon="2.61041378974915">
			<ele>130.100006103516</ele>
			<time>2013-12-29T13:21:41Z</time>
		</trkpt>
		<trkpt lat="39.6210136413574" lon="2.61048078536987">
			<ele>130</ele>
			<time>2013-12-29T13:21:42Z</time>
		</trkpt>
		<trkpt lat="39.6210403442383" lon="2.61055135726929">
			<ele>130</ele>
			<time>2013-12-29T13:21:43Z</time>
		</trkpt>
		<trkpt lat="39.6210632324219" lon="2.61062526702881">
			<ele>129.800003051758</ele>
			<time>2013-12-29T13:21:44Z</time>
		</trkpt>
		<trkpt lat="39.6210823059082" lon="2.61069416999817">
			<ele>129.899993896484</ele>
			<time>2013-12-29T13:21:45Z</time>
		</trkpt>
		<trkpt lat="39.6211051940918" lon="2.61076641082764">
			<ele>129.800003051758</ele>
			<time>2013-12-29T13:21:46Z</time>
		</trkpt>
		<trkpt lat="39.6211242675781" lon="2.61083936691284">
			<ele>129.399993896484</ele>
			<time>2013-12-29T13:21:47Z</time>
		</trkpt>
		<trkpt lat="39.6211471557617" lon="2.61091113090515">
			<ele>129.5</ele>
			<time>2013-12-29T13:21:48Z</time>
		</trkpt>
		<trkpt lat="39.6211700439453" lon="2.61097812652588">
			<ele>129.5</ele>
			<time>2013-12-29T13:21:49Z</time>
		</trkpt>
		<trkpt lat="39.6211891174316" lon="2.61104846000671">
			<ele>129.5</ele>
			<time>2013-12-29T13:21:50Z</time>
		</trkpt>
		<trkpt lat="39.6212120056152" lon="2.61111497879028">
			<ele>129.699996948242</ele>
			<time>2013-12-29T13:21:51Z</time>
		</trkpt>
		<trkpt lat="39.6212310791016" lon="2.61118316650391">
			<ele>129.5</ele>
			<time>2013-12-29T13:21:52Z</time>
		</trkpt>
		<trkpt lat="39.6212539672852" lon="2.61124920845032">
			<ele>129.399993896484</ele>
			<time>2013-12-29T13:21:53Z</time>
		</trkpt>
		<trkpt lat="39.6212730407715" lon="2.61131906509399">
			<ele>129.5</ele>
			<time>2013-12-29T13:21:54Z</time>
		</trkpt>
		<trkpt lat="39.6212921142578" lon="2.61138844490051">
			<ele>129.300003051758</ele>
			<time>2013-12-29T13:21:55Z</time>
		</trkpt>
		<trkpt lat="39.6213150024414" lon="2.61145734786987">
			<ele>129.5</ele>
			<time>2013-12-29T13:21:56Z</time>
		</trkpt>
		<trkpt lat="39.6213340759277" lon="2.61152458190918">
			<ele>129.5</ele>
			<time>2013-12-29T13:21:57Z</time>
		</trkpt>
		<trkpt lat="39.6213531494141" lon="2.6115927696228">
			<ele>129.5</ele>
			<time>2013-12-29T13:21:58Z</time>
		</trkpt>
		<trkpt lat="39.6213722229004" lon="2.61165738105774">
			<ele>129.399993896484</ele>
			<time>2013-12-29T13:21:59Z</time>
		</trkpt>
		<trkpt lat="39.6213912963867" lon="2.61172318458557">
			<ele>129.300003051758</ele>
			<time>2013-12-29T13:22:00Z</time>
		</trkpt>
		<trkpt lat="39.621410369873" lon="2.61178922653198">
			<ele>129.100006103516</ele>
			<time>2013-12-29T13:22:01Z</time>
		</trkpt>
		<trkpt lat="39.6214294433594" lon="2.61185193061829">
			<ele>129.300003051758</ele>
			<time>2013-12-29T13:22:02Z</time>
		</trkpt>
		<trkpt lat="39.6214447021484" lon="2.61191630363464">
			<ele>129.399993896484</ele>
			<time>2013-12-29T13:22:03Z</time>
		</trkpt>
		<trkpt lat="39.6214561462402" lon="2.61198234558105">
			<ele>129.199996948242</ele>
			<time>2013-12-29T13:22:04Z</time>
		</trkpt>
		<trkpt lat="39.6214637756348" lon="2.61204814910889">
			<ele>129.600006103516</ele>
			<time>2013-12-29T13:22:05Z</time>
		</trkpt>
		<trkpt lat="39.6214637756348" lon="2.61211752891541">
			<ele>129.800003051758</ele>
			<time>2013-12-29T13:22:06Z</time>
		</trkpt>
		<trkpt lat="39.621467590332" lon="2.61218452453613">
			<ele>129.699996948242</ele>
			<time>2013-12-29T13:22:07Z</time>
		</trkpt>
		<trkpt lat="39.6214637756348" lon="2.61225438117981">
			<ele>129.5</ele>
			<time>2013-12-29T13:22:08Z</time>
		</trkpt>
		<trkpt lat="39.621467590332" lon="2.61232614517212">
			<ele>129.699996948242</ele>
			<time>2013-12-29T13:22:09Z</time>
		</trkpt>
		<trkpt lat="39.6214637756348" lon="2.61239647865295">
			<ele>129.699996948242</ele>
			<time>2013-12-29T13:22:10Z</time>
		</trkpt>
		<trkpt lat="39.6214561462402" lon="2.61246633529663">
			<ele>129.800003051758</ele>
			<time>2013-12-29T13:22:11Z</time>
		</trkpt>
		<trkpt lat="39.6214485168457" lon="2.61253499984741">
			<ele>129.800003051758</ele>
			<time>2013-12-29T13:22:12Z</time>
		</trkpt>
		<trkpt lat="39.6214370727539" lon="2.61260366439819">
			<ele>129.600006103516</ele>
			<time>2013-12-29T13:22:13Z</time>
		</trkpt>
		<trkpt lat="39.6214218139648" lon="2.61266684532166">
			<ele>129.699996948242</ele>
			<time>2013-12-29T13:22:14Z</time>
		</trkpt>
		<trkpt lat="39.6214027404785" lon="2.61272740364075">
			<ele>129.800003051758</ele>
			<time>2013-12-29T13:22:15Z</time>
		</trkpt>
		<trkpt lat="39.6213836669922" lon="2.61278891563416">
			<ele>129.699996948242</ele>
			<time>2013-12-29T13:22:16Z</time>
		</trkpt>
		<trkpt lat="39.6213684082031" lon="2.61285281181335">
			<ele>130.199996948242</ele>
			<time>2013-12-29T13:22:17Z</time>
		</trkpt>
		<trkpt lat="39.6213493347168" lon="2.61291551589966">
			<ele>130</ele>
			<time>2013-12-29T13:22:18Z</time>
		</trkpt>
		<trkpt lat="39.6213302612305" lon="2.61298012733459">
			<ele>130</ele>
			<time>2013-12-29T13:22:19Z</time>
		</trkpt>
		<trkpt lat="39.6213188171387" lon="2.61304044723511">
			<ele>129.899993896484</ele>
			<time>2013-12-29T13:22:20Z</time>
		</trkpt>
		<trkpt lat="39.6213111877441" lon="2.61310029029846">
			<ele>129.899993896484</ele>
			<time>2013-12-29T13:22:21Z</time>
		</trkpt>
		<trkpt lat="39.6212997436523" lon="2.61315870285034">
			<ele>129.800003051758</ele>
			<time>2013-12-29T13:22:22Z</time>
		</trkpt>
		<trkpt lat="39.6212882995605" lon="2.61322212219238">
			<ele>129.5</ele>
			<time>2013-12-29T13:22:23Z</time>
		</trkpt>
		<trkpt lat="39.6212768554688" lon="2.61328196525574">
			<ele>129.399993896484</ele>
			<time>2013-12-29T13:22:24Z</time>
		</trkpt>
		<trkpt lat="39.6212692260742" lon="2.61334180831909">
			<ele>129.399993896484</ele>
			<time>2013-12-29T13:22:25Z</time>
		</trkpt>
		<trkpt lat="39.6212577819824" lon="2.61340022087097">
			<ele>129.5</ele>
			<time>2013-12-29T13:22:26Z</time>
		</trkpt>
		<trkpt lat="39.6212463378906" lon="2.61345744132996">
			<ele>129.5</ele>
			<time>2013-12-29T13:22:27Z</time>
		</trkpt>
		<trkpt lat="39.621223449707" lon="2.61357021331787">
			<ele>129.600006103516</ele>
			<time>2013-12-29T13:22:29Z</time>
		</trkpt>
		<trkpt lat="39.6212120056152" lon="2.61362814903259">
			<ele>129.399993896484</ele>
			<time>2013-12-29T13:22:30Z</time>
		</trkpt>
		<trkpt lat="39.6211967468262" lon="2.6137375831604">
			<ele>129.699996948242</ele>
			<time>2013-12-29T13:22:32Z</time>
		</trkpt>
		<trkpt lat="39.6211776733398" lon="2.61384892463684">
			<ele>129.600006103516</ele>
			<time>2013-12-29T13:22:34Z</time>
		</trkpt>
		<trkpt lat="39.621166229248" lon="2.61390614509583">
			<ele>129.600006103516</ele>
			<time>2013-12-29T13:22:35Z</time>
		</trkpt>
		<trkpt lat="39.6211585998535" lon="2.61396861076355">
			<ele>129.5</ele>
			<time>2013-12-29T13:22:36Z</time>
		</trkpt>
		<trkpt lat="39.6211433410645" lon="2.61403512954712">
			<ele>129.199996948242</ele>
			<time>2013-12-29T13:22:37Z</time>
		</trkpt>
		<trkpt lat="39.6211280822754" lon="2.61410808563232">
			<ele>129.300003051758</ele>
			<time>2013-12-29T13:22:38Z</time>
		</trkpt>
		<trkpt lat="39.6211128234863" lon="2.61418080329895">
			<ele>129.300003051758</ele>
			<time>2013-12-29T13:22:39Z</time>
		</trkpt>
		<trkpt lat="39.62109375" lon="2.61425089836121">
			<ele>129.199996948242</ele>
			<time>2013-12-29T13:22:40Z</time>
		</trkpt>
		<trkpt lat="39.6210708618164" lon="2.61431980133057">
			<ele>129.199996948242</ele>
			<time>2013-12-29T13:22:41Z</time>
		</trkpt>
		<trkpt lat="39.6210403442383" lon="2.61438226699829">
			<ele>129.100006103516</ele>
			<time>2013-12-29T13:22:42Z</time>
		</trkpt>
		<trkpt lat="39.6210060119629" lon="2.6144437789917">
			<ele>128.800003051758</ele>
			<time>2013-12-29T13:22:43Z</time>
		</trkpt>
		<trkpt lat="39.6209678649902" lon="2.61450147628784">
			<ele>128.899993896484</ele>
			<time>2013-12-29T13:22:44Z</time>
		</trkpt>
		<trkpt lat="39.6209259033203" lon="2.61455726623535">
			<ele>128.800003051758</ele>
			<time>2013-12-29T13:22:45Z</time>
		</trkpt>
		<trkpt lat="39.6208839416504" lon="2.61461138725281">
			<ele>128.600006103516</ele>
			<time>2013-12-29T13:22:46Z</time>
		</trkpt>
		<trkpt lat="39.6208419799805" lon="2.61465048789978">
			<ele>128.600006103516</ele>
			<time>2013-12-29T13:22:47Z</time>
		</trkpt>
		<trkpt lat="39.6207962036133" lon="2.61469054222107">
			<ele>128.699996948242</ele>
			<time>2013-12-29T13:22:48Z</time>
		</trkpt>
		<trkpt lat="39.6207542419434" lon="2.61473631858826">
			<ele>129.100006103516</ele>
			<time>2013-12-29T13:22:49Z</time>
		</trkpt>
		<trkpt lat="39.6207160949707" lon="2.6147894859314">
			<ele>128.699996948242</ele>
			<time>2013-12-29T13:22:50Z</time>
		</trkpt>
		<trkpt lat="39.6206703186035" lon="2.61484241485596">
			<ele>129</ele>
			<time>2013-12-29T13:22:51Z</time>
		</trkpt>
		<trkpt lat="39.6206321716309" lon="2.61489725112915">
			<ele>128.899993896484</ele>
			<time>2013-12-29T13:22:52Z</time>
		</trkpt>
		<trkpt lat="39.6205902099609" lon="2.61495399475098">
			<ele>128.600006103516</ele>
			<time>2013-12-29T13:22:53Z</time>
		</trkpt>
		<trkpt lat="39.620548248291" lon="2.61501312255859">
			<ele>128.600006103516</ele>
			<time>2013-12-29T13:22:54Z</time>
		</trkpt>
		<trkpt lat="39.6205062866211" lon="2.61507821083069">
			<ele>128.399993896484</ele>
			<time>2013-12-29T13:22:55Z</time>
		</trkpt>
		<trkpt lat="39.6204643249512" lon="2.61514091491699">
			<ele>128.300003051758</ele>
			<time>2013-12-29T13:22:56Z</time>
		</trkpt>
		<trkpt lat="39.620418548584" lon="2.61520576477051">
			<ele>128.300003051758</ele>
			<time>2013-12-29T13:22:57Z</time>
		</trkpt>
		<trkpt lat="39.6203765869141" lon="2.61527347564697">
			<ele>128.199996948242</ele>
			<time>2013-12-29T13:22:58Z</time>
		</trkpt>
		<trkpt lat="39.6203384399414" lon="2.61533808708191">
			<ele>127.800003051758</ele>
			<time>2013-12-29T13:22:59Z</time>
		</trkpt>
		<trkpt lat="39.6202926635742" lon="2.61540961265564">
			<ele>127.5</ele>
			<time>2013-12-29T13:23:00Z</time>
		</trkpt>
		<trkpt lat="39.6202545166016" lon="2.61548495292664">
			<ele>127.5</ele>
			<time>2013-12-29T13:23:01Z</time>
		</trkpt>
		<trkpt lat="39.6202163696289" lon="2.61555933952332">
			<ele>127.199996948242</ele>
			<time>2013-12-29T13:23:02Z</time>
		</trkpt>
		<trkpt lat="39.620174407959" lon="2.6156313419342">
			<ele>127</ele>
			<time>2013-12-29T13:23:03Z</time>
		</trkpt>
		<trkpt lat="39.6201400756836" lon="2.61570620536804">
			<ele>126.900001525879</ele>
			<time>2013-12-29T13:23:04Z</time>
		</trkpt>
		<trkpt lat="39.6201057434082" lon="2.61578297615051">
			<ele>126.699996948242</ele>
			<time>2013-12-29T13:23:05Z</time>
		</trkpt>
		<trkpt lat="39.6200714111328" lon="2.61585640907288">
			<ele>126.599998474121</ele>
			<time>2013-12-29T13:23:06Z</time>
		</trkpt>
		<trkpt lat="39.6200370788574" lon="2.61593103408813">
			<ele>126.5</ele>
			<time>2013-12-29T13:23:07Z</time>
		</trkpt>
		<trkpt lat="39.6199989318848" lon="2.61600685119629">
			<ele>126.199996948242</ele>
			<time>2013-12-29T13:23:08Z</time>
		</trkpt>
		<trkpt lat="39.6199645996094" lon="2.61608147621155">
			<ele>126.300003051758</ele>
			<time>2013-12-29T13:23:09Z</time>
		</trkpt>
		<trkpt lat="39.619930267334" lon="2.61615586280823">
			<ele>126.199996948242</ele>
			<time>2013-12-29T13:23:10Z</time>
		</trkpt>
		<trkpt lat="39.6198997497559" lon="2.61623215675354">
			<ele>126.300003051758</ele>
			<time>2013-12-29T13:23:11Z</time>
		</trkpt>
		<trkpt lat="39.619873046875" lon="2.61631202697754">
			<ele>126.300003051758</ele>
			<time>2013-12-29T13:23:12Z</time>
		</trkpt>
		<trkpt lat="39.6198501586914" lon="2.61639261245728">
			<ele>126.300003051758</ele>
			<time>2013-12-29T13:23:13Z</time>
		</trkpt>
		<trkpt lat="39.6198310852051" lon="2.61647295951843">
			<ele>126</ele>
			<time>2013-12-29T13:23:14Z</time>
		</trkpt>
		<trkpt lat="39.6198196411133" lon="2.61655402183533">
			<ele>126</ele>
			<time>2013-12-29T13:23:15Z</time>
		</trkpt>
		<trkpt lat="39.6198043823242" lon="2.61663746833801">
			<ele>125.599998474121</ele>
			<time>2013-12-29T13:23:16Z</time>
		</trkpt>
		<trkpt lat="39.6197929382324" lon="2.61671805381775">
			<ele>125.300003051758</ele>
			<time>2013-12-29T13:23:17Z</time>
		</trkpt>
		<trkpt lat="39.6197853088379" lon="2.61679768562317">
			<ele>125.5</ele>
			<time>2013-12-29T13:23:18Z</time>
		</trkpt>
		<trkpt lat="39.6197853088379" lon="2.6168749332428">
			<ele>125.599998474121</ele>
			<time>2013-12-29T13:23:19Z</time>
		</trkpt>
		<trkpt lat="39.6197776794434" lon="2.61695837974548">
			<ele>125.400001525879</ele>
			<time>2013-12-29T13:23:20Z</time>
		</trkpt>
		<trkpt lat="39.6197700500488" lon="2.61703991889954">
			<ele>125.199996948242</ele>
			<time>2013-12-29T13:23:21Z</time>
		</trkpt>
		<trkpt lat="39.6197624206543" lon="2.61712193489075">
			<ele>125.099998474121</ele>
			<time>2013-12-29T13:23:22Z</time>
		</trkpt>
		<trkpt lat="39.619758605957" lon="2.61720299720764">
			<ele>125.300003051758</ele>
			<time>2013-12-29T13:23:23Z</time>
		</trkpt>
		<trkpt lat="39.6197471618652" lon="2.61728119850159">
			<ele>125.099998474121</ele>
			<time>2013-12-29T13:23:24Z</time>
		</trkpt>
		<trkpt lat="39.6197471618652" lon="2.61735963821411">
			<ele>124.800003051758</ele>
			<time>2013-12-29T13:23:25Z</time>
		</trkpt>
		<trkpt lat="39.6197395324707" lon="2.61743879318237">
			<ele>124.900001525879</ele>
			<time>2013-12-29T13:23:26Z</time>
		</trkpt>
		<trkpt lat="39.6197319030762" lon="2.617520570755">
			<ele>125.099998474121</ele>
			<time>2013-12-29T13:23:27Z</time>
		</trkpt>
		<trkpt lat="39.6197280883789" lon="2.61760139465332">
			<ele>125.099998474121</ele>
			<time>2013-12-29T13:23:28Z</time>
		</trkpt>
		<trkpt lat="39.6197280883789" lon="2.61768054962158">
			<ele>125.400001525879</ele>
			<time>2013-12-29T13:23:29Z</time>
		</trkpt>
		<trkpt lat="39.6197242736816" lon="2.61776280403137">
			<ele>125.5</ele>
			<time>2013-12-29T13:23:30Z</time>
		</trkpt>
		<trkpt lat="39.6197166442871" lon="2.61784291267395">
			<ele>125.599998474121</ele>
			<time>2013-12-29T13:23:31Z</time>
		</trkpt>
		<trkpt lat="39.6197090148926" lon="2.61792182922363">
			<ele>125.900001525879</ele>
			<time>2013-12-29T13:23:32Z</time>
		</trkpt>
		<trkpt lat="39.6197090148926" lon="2.61800408363342">
			<ele>125.699996948242</ele>
			<time>2013-12-29T13:23:33Z</time>
		</trkpt>
		<trkpt lat="39.6197052001953" lon="2.61808466911316">
			<ele>125.900001525879</ele>
			<time>2013-12-29T13:23:34Z</time>
		</trkpt>
		<trkpt lat="39.619701385498" lon="2.61816382408142">
			<ele>125.800003051758</ele>
			<time>2013-12-29T13:23:35Z</time>
		</trkpt>
		<trkpt lat="39.619701385498" lon="2.61824584007263">
			<ele>126</ele>
			<time>2013-12-29T13:23:36Z</time>
		</trkpt>
		<trkpt lat="39.6196975708008" lon="2.61832547187805">
			<ele>125.699996948242</ele>
			<time>2013-12-29T13:23:37Z</time>
		</trkpt>
		<trkpt lat="39.6196937561035" lon="2.61840605735779">
			<ele>125.800003051758</ele>
			<time>2013-12-29T13:23:38Z</time>
		</trkpt>
		<trkpt lat="39.619686126709" lon="2.61848759651184">
			<ele>125.599998474121</ele>
			<time>2013-12-29T13:23:39Z</time>
		</trkpt>
		<trkpt lat="39.619686126709" lon="2.61857008934021">
			<ele>125.400001525879</ele>
			<time>2013-12-29T13:23:40Z</time>
		</trkpt>
		<trkpt lat="39.6196823120117" lon="2.61865496635437">
			<ele>125.300003051758</ele>
			<time>2013-12-29T13:23:41Z</time>
		</trkpt>
		<trkpt lat="39.6196823120117" lon="2.61874008178711">
			<ele>125.199996948242</ele>
			<time>2013-12-29T13:23:42Z</time>
		</trkpt>
		<trkpt lat="39.6196784973145" lon="2.61882567405701">
			<ele>125.099998474121</ele>
			<time>2013-12-29T13:23:43Z</time>
		</trkpt>
		<trkpt lat="39.6196746826172" lon="2.61890935897827">
			<ele>124.900001525879</ele>
			<time>2013-12-29T13:23:44Z</time>
		</trkpt>
		<trkpt lat="39.6196708679199" lon="2.61899399757385">
			<ele>124.800003051758</ele>
			<time>2013-12-29T13:23:45Z</time>
		</trkpt>
		<trkpt lat="39.6196632385254" lon="2.61907911300659">
			<ele>124.699996948242</ele>
			<time>2013-12-29T13:23:46Z</time>
		</trkpt>
		<trkpt lat="39.6196632385254" lon="2.61916518211365">
			<ele>124.5</ele>
			<time>2013-12-29T13:23:47Z</time>
		</trkpt>
		<trkpt lat="39.6196594238281" lon="2.61925315856934">
			<ele>124.300003051758</ele>
			<time>2013-12-29T13:23:48Z</time>
		</trkpt>
		<trkpt lat="39.6196556091309" lon="2.61933946609497">
			<ele>124.199996948242</ele>
			<time>2013-12-29T13:23:49Z</time>
		</trkpt>
		<trkpt lat="39.6196556091309" lon="2.61942386627197">
			<ele>123.900001525879</ele>
			<time>2013-12-29T13:23:50Z</time>
		</trkpt>
		<trkpt lat="39.6196517944336" lon="2.61950516700745">
			<ele>123.800003051758</ele>
			<time>2013-12-29T13:23:51Z</time>
		</trkpt>
		<trkpt lat="39.6196441650391" lon="2.61959028244019">
			<ele>123.800003051758</ele>
			<time>2013-12-29T13:23:52Z</time>
		</trkpt>
		<trkpt lat="39.6196403503418" lon="2.61967206001282">
			<ele>123.400001525879</ele>
			<time>2013-12-29T13:23:53Z</time>
		</trkpt>
		<trkpt lat="39.6196403503418" lon="2.6197555065155">
			<ele>123.5</ele>
			<time>2013-12-29T13:23:54Z</time>
		</trkpt>
		<trkpt lat="39.6196365356445" lon="2.6198365688324">
			<ele>123.400001525879</ele>
			<time>2013-12-29T13:23:55Z</time>
		</trkpt>
		<trkpt lat="39.6196327209473" lon="2.61991906166077">
			<ele>123.199996948242</ele>
			<time>2013-12-29T13:23:56Z</time>
		</trkpt>
		<trkpt lat="39.61962890625" lon="2.6199996471405">
			<ele>123.300003051758</ele>
			<time>2013-12-29T13:23:57Z</time>
		</trkpt>
		<trkpt lat="39.6196250915527" lon="2.62008357048035">
			<ele>122.900001525879</ele>
			<time>2013-12-29T13:23:58Z</time>
		</trkpt>
		<trkpt lat="39.6196212768555" lon="2.62016367912292">
			<ele>122.900001525879</ele>
			<time>2013-12-29T13:23:59Z</time>
		</trkpt>
		<trkpt lat="39.6196212768555" lon="2.62024068832397">
			<ele>122.900001525879</ele>
			<time>2013-12-29T13:24:00Z</time>
		</trkpt>
		<trkpt lat="39.6196174621582" lon="2.6203179359436">
			<ele>122.800003051758</ele>
			<time>2013-12-29T13:24:01Z</time>
		</trkpt>
		<trkpt lat="39.6196136474609" lon="2.6203978061676">
			<ele>123</ele>
			<time>2013-12-29T13:24:02Z</time>
		</trkpt>
		<trkpt lat="39.6196136474609" lon="2.62047529220581">
			<ele>123.199996948242</ele>
			<time>2013-12-29T13:24:03Z</time>
		</trkpt>
		<trkpt lat="39.6196098327637" lon="2.62055158615112">
			<ele>123.099998474121</ele>
			<time>2013-12-29T13:24:04Z</time>
		</trkpt>
		<trkpt lat="39.6196098327637" lon="2.6206271648407">
			<ele>122.900001525879</ele>
			<time>2013-12-29T13:24:05Z</time>
		</trkpt>
		<trkpt lat="39.6196098327637" lon="2.62069916725159">
			<ele>122.900001525879</ele>
			<time>2013-12-29T13:24:06Z</time>
		</trkpt>
		<trkpt lat="39.6196022033691" lon="2.62077689170837">
			<ele>123.099998474121</ele>
			<time>2013-12-29T13:24:07Z</time>
		</trkpt>
		<trkpt lat="39.6196022033691" lon="2.6208508014679">
			<ele>123.400001525879</ele>
			<time>2013-12-29T13:24:08Z</time>
		</trkpt>
		<trkpt lat="39.6195945739746" lon="2.62092614173889">
			<ele>123.400001525879</ele>
			<time>2013-12-29T13:24:09Z</time>
		</trkpt>
		<trkpt lat="39.6195907592773" lon="2.62100291252136">
			<ele>123.5</ele>
			<time>2013-12-29T13:24:10Z</time>
		</trkpt>
		<trkpt lat="39.6195869445801" lon="2.62107467651367">
			<ele>123.599998474121</ele>
			<time>2013-12-29T13:24:11Z</time>
		</trkpt>
		<trkpt lat="39.6195831298828" lon="2.62114715576172">
			<ele>123.5</ele>
			<time>2013-12-29T13:24:12Z</time>
		</trkpt>
		<trkpt lat="39.6195793151855" lon="2.62121820449829">
			<ele>123.400001525879</ele>
			<time>2013-12-29T13:24:13Z</time>
		</trkpt>
		<trkpt lat="39.6195755004883" lon="2.62128758430481">
			<ele>123.599998474121</ele>
			<time>2013-12-29T13:24:14Z</time>
		</trkpt>
		<trkpt lat="39.6195678710938" lon="2.6213595867157">
			<ele>123.900001525879</ele>
			<time>2013-12-29T13:24:15Z</time>
		</trkpt>
		<trkpt lat="39.619556427002" lon="2.621422290802">
			<ele>124</ele>
			<time>2013-12-29T13:24:16Z</time>
		</trkpt>
		<trkpt lat="39.6195335388184" lon="2.6214771270752">
			<ele>124.300003051758</ele>
			<time>2013-12-29T13:24:17Z</time>
		</trkpt>
		<trkpt lat="39.6195068359375" lon="2.62153148651123">
			<ele>124.5</ele>
			<time>2013-12-29T13:24:18Z</time>
		</trkpt>
		<trkpt lat="39.6194839477539" lon="2.62158417701721">
			<ele>124.400001525879</ele>
			<time>2013-12-29T13:24:19Z</time>
		</trkpt>
		<trkpt lat="39.6194648742676" lon="2.62163639068604">
			<ele>124.300003051758</ele>
			<time>2013-12-29T13:24:20Z</time>
		</trkpt>
		<trkpt lat="39.6194152832031" lon="2.62172198295593">
			<ele>125</ele>
			<time>2013-12-29T13:24:22Z</time>
		</trkpt>
		<trkpt lat="39.6193695068359" lon="2.62180638313293">
			<ele>125.5</ele>
			<time>2013-12-29T13:24:24Z</time>
		</trkpt>
		<trkpt lat="39.619327545166" lon="2.62187695503235">
			<ele>125.599998474121</ele>
			<time>2013-12-29T13:24:26Z</time>
		</trkpt>
		<trkpt lat="39.6192932128906" lon="2.62193822860718">
			<ele>126.300003051758</ele>
			<time>2013-12-29T13:24:28Z</time>
		</trkpt>
		<trkpt lat="39.6192626953125" lon="2.62198495864868">
			<ele>126.800003051758</ele>
			<time>2013-12-29T13:24:29Z</time>
		</trkpt>
		<trkpt lat="39.6192359924316" lon="2.62203145027161">
			<ele>127.099998474121</ele>
			<time>2013-12-29T13:24:31Z</time>
		</trkpt>
		<trkpt lat="39.6192016601563" lon="2.62211036682129">
			<ele>128.199996948242</ele>
			<time>2013-12-29T13:24:35Z</time>
		</trkpt>
		<trkpt lat="39.6191711425781" lon="2.62215662002563">
			<ele>129.5</ele>
			<time>2013-12-29T13:24:37Z</time>
		</trkpt>
		<trkpt lat="39.6191368103027" lon="2.6222026348114">
			<ele>129.899993896484</ele>
			<time>2013-12-29T13:24:39Z</time>
		</trkpt>
		<trkpt lat="39.6191024780273" lon="2.62227535247803">
			<ele>130.800003051758</ele>
			<time>2013-12-29T13:24:41Z</time>
		</trkpt>
		<trkpt lat="39.6190795898438" lon="2.62232971191406">
			<ele>131.399993896484</ele>
			<time>2013-12-29T13:24:43Z</time>
		</trkpt>
		<trkpt lat="39.6190643310547" lon="2.62241387367249">
			<ele>131.699996948242</ele>
			<time>2013-12-29T13:24:47Z</time>
		</trkpt>
		<trkpt lat="39.6190719604492" lon="2.62247323989868">
			<ele>131.300003051758</ele>
			<time>2013-12-29T13:24:49Z</time>
		</trkpt>
		<trkpt lat="39.6190795898438" lon="2.62253379821777">
			<ele>131.100006103516</ele>
			<time>2013-12-29T13:24:51Z</time>
		</trkpt>
		<trkpt lat="39.6190986633301" lon="2.62260127067566">
			<ele>130.800003051758</ele>
			<time>2013-12-29T13:24:53Z</time>
		</trkpt>
		<trkpt lat="39.6191368103027" lon="2.62266492843628">
			<ele>131.100006103516</ele>
			<time>2013-12-29T13:24:57Z</time>
		</trkpt>
		<trkpt lat="39.6191825866699" lon="2.62271738052368">
			<ele>131.199996948242</ele>
			<time>2013-12-29T13:24:59Z</time>
		</trkpt>
		<trkpt lat="39.6192245483398" lon="2.62274312973022">
			<ele>131.100006103516</ele>
			<time>2013-12-29T13:25:01Z</time>
		</trkpt>
		<trkpt lat="39.6192893981934" lon="2.62278032302856">
			<ele>131.399993896484</ele>
			<time>2013-12-29T13:25:05Z</time>
		</trkpt>
		<trkpt lat="39.6193351745605" lon="2.62281465530396">
			<ele>132.5</ele>
			<time>2013-12-29T13:25:07Z</time>
		</trkpt>
		<trkpt lat="39.6193504333496" lon="2.62287187576294">
			<ele>133.100006103516</ele>
			<time>2013-12-29T13:25:09Z</time>
		</trkpt>
		<trkpt lat="39.6193656921387" lon="2.62294983863831">
			<ele>133.699996948242</ele>
			<time>2013-12-29T13:25:12Z</time>
		</trkpt>
		<trkpt lat="39.6193504333496" lon="2.62302136421204">
			<ele>134.399993896484</ele>
			<time>2013-12-29T13:25:14Z</time>
		</trkpt>
		<trkpt lat="39.6193084716797" lon="2.62307977676392">
			<ele>133.699996948242</ele>
			<time>2013-12-29T13:25:18Z</time>
		</trkpt>
		<trkpt lat="39.6192588806152" lon="2.62312364578247">
			<ele>133.399993896484</ele>
			<time>2013-12-29T13:25:20Z</time>
		</trkpt>
		<trkpt lat="39.6192169189453" lon="2.62317872047424">
			<ele>133.300003051758</ele>
			<time>2013-12-29T13:25:24Z</time>
		</trkpt>
		<trkpt lat="39.6191825866699" lon="2.62324213981628">
			<ele>134.199996948242</ele>
			<time>2013-12-29T13:25:26Z</time>
		</trkpt>
		<trkpt lat="39.619140625" lon="2.62330222129822">
			<ele>134.800003051758</ele>
			<time>2013-12-29T13:25:30Z</time>
		</trkpt>
		<trkpt lat="39.6191215515137" lon="2.62336421012878">
			<ele>135.300003051758</ele>
			<time>2013-12-29T13:25:32Z</time>
		</trkpt>
		<trkpt lat="39.6190986633301" lon="2.62341976165771">
			<ele>135.399993896484</ele>
			<time>2013-12-29T13:25:36Z</time>
		</trkpt>
		<trkpt lat="39.619068145752" lon="2.62346506118774">
			<ele>135.399993896484</ele>
			<time>2013-12-29T13:25:38Z</time>
		</trkpt>
		<trkpt lat="39.6190223693848" lon="2.62351179122925">
			<ele>136.399993896484</ele>
			<time>2013-12-29T13:25:40Z</time>
		</trkpt>
		<trkpt lat="39.6189765930176" lon="2.62356638908386">
			<ele>136.699996948242</ele>
			<time>2013-12-29T13:25:44Z</time>
		</trkpt>
		<trkpt lat="39.6189498901367" lon="2.6236298084259">
			<ele>136.5</ele>
			<time>2013-12-29T13:25:46Z</time>
		</trkpt>
		<trkpt lat="39.6189231872559" lon="2.62370419502258">
			<ele>137</ele>
			<time>2013-12-29T13:25:50Z</time>
		</trkpt>
		<trkpt lat="39.6188926696777" lon="2.62377381324768">
			<ele>137</ele>
			<time>2013-12-29T13:25:52Z</time>
		</trkpt>
		<trkpt lat="39.6188735961914" lon="2.62384414672852">
			<ele>137.100006103516</ele>
			<time>2013-12-29T13:25:56Z</time>
		</trkpt>
		<trkpt lat="39.6188468933105" lon="2.62391233444214">
			<ele>137.699996948242</ele>
			<time>2013-12-29T13:25:58Z</time>
		</trkpt>
		<trkpt lat="39.6188278198242" lon="2.62397646903992">
			<ele>138.600006103516</ele>
			<time>2013-12-29T13:26:02Z</time>
		</trkpt>
		<trkpt lat="39.6188125610352" lon="2.62405014038086">
			<ele>138.600006103516</ele>
			<time>2013-12-29T13:26:04Z</time>
		</trkpt>
		<trkpt lat="39.6187973022461" lon="2.62412428855896">
			<ele>138.399993896484</ele>
			<time>2013-12-29T13:26:08Z</time>
		</trkpt>
		<trkpt lat="39.618782043457" lon="2.62420010566711">
			<ele>138.600006103516</ele>
			<time>2013-12-29T13:26:10Z</time>
		</trkpt>
		<trkpt lat="39.6187629699707" lon="2.62427639961243">
			<ele>138.600006103516</ele>
			<time>2013-12-29T13:26:14Z</time>
		</trkpt>
		<trkpt lat="39.6187438964844" lon="2.62435960769653">
			<ele>138.899993896484</ele>
			<time>2013-12-29T13:26:16Z</time>
		</trkpt>
		<trkpt lat="39.6187324523926" lon="2.62442064285278">
			<ele>139.5</ele>
			<time>2013-12-29T13:26:18Z</time>
		</trkpt>
		<trkpt lat="39.6187210083008" lon="2.62448024749756">
			<ele>139.100006103516</ele>
			<time>2013-12-29T13:26:20Z</time>
		</trkpt>
		<trkpt lat="39.6187019348145" lon="2.62453699111938">
			<ele>138.600006103516</ele>
			<time>2013-12-29T13:26:22Z</time>
		</trkpt>
		<trkpt lat="39.6186904907227" lon="2.62460231781006">
			<ele>138.600006103516</ele>
			<time>2013-12-29T13:26:24Z</time>
		</trkpt>
		<trkpt lat="39.6186752319336" lon="2.6246702671051">
			<ele>138.300003051758</ele>
			<time>2013-12-29T13:26:26Z</time>
		</trkpt>
		<trkpt lat="39.6186561584473" lon="2.62474274635315">
			<ele>138.199996948242</ele>
			<time>2013-12-29T13:26:29Z</time>
		</trkpt>
		<trkpt lat="39.6186408996582" lon="2.62481665611267">
			<ele>138.100006103516</ele>
			<time>2013-12-29T13:26:31Z</time>
		</trkpt>
		<trkpt lat="39.6186256408691" lon="2.62489080429077">
			<ele>138.100006103516</ele>
			<time>2013-12-29T13:26:33Z</time>
		</trkpt>
		<trkpt lat="39.6186103820801" lon="2.6249577999115">
			<ele>137.899993896484</ele>
			<time>2013-12-29T13:26:35Z</time>
		</trkpt>
		<trkpt lat="39.6185989379883" lon="2.62502598762512">
			<ele>138.100006103516</ele>
			<time>2013-12-29T13:26:37Z</time>
		</trkpt>
		<trkpt lat="39.6185836791992" lon="2.62508916854858">
			<ele>138</ele>
			<time>2013-12-29T13:26:39Z</time>
		</trkpt>
		<trkpt lat="39.6185646057129" lon="2.62516760826111">
			<ele>138</ele>
			<time>2013-12-29T13:26:41Z</time>
		</trkpt>
		<trkpt lat="39.6185417175293" lon="2.62524652481079">
			<ele>138.300003051758</ele>
			<time>2013-12-29T13:26:43Z</time>
		</trkpt>
		<trkpt lat="39.618522644043" lon="2.62533187866211">
			<ele>138.199996948242</ele>
			<time>2013-12-29T13:26:45Z</time>
		</trkpt>
		<trkpt lat="39.6184997558594" lon="2.62541270256042">
			<ele>138</ele>
			<time>2013-12-29T13:26:47Z</time>
		</trkpt>
		<trkpt lat="39.6184577941895" lon="2.6254894733429">
			<ele>137.800003051758</ele>
			<time>2013-12-29T13:26:49Z</time>
		</trkpt>
		<trkpt lat="39.618408203125" lon="2.62555575370789">
			<ele>137.800003051758</ele>
			<time>2013-12-29T13:26:51Z</time>
		</trkpt>
		<trkpt lat="39.6183547973633" lon="2.62561678886414">
			<ele>137.699996948242</ele>
			<time>2013-12-29T13:26:53Z</time>
		</trkpt>
		<trkpt lat="39.618293762207" lon="2.62567830085754">
			<ele>137.800003051758</ele>
			<time>2013-12-29T13:26:55Z</time>
		</trkpt>
		<trkpt lat="39.6182327270508" lon="2.62573528289795">
			<ele>138</ele>
			<time>2013-12-29T13:26:57Z</time>
		</trkpt>
		<trkpt lat="39.6181793212891" lon="2.62578344345093">
			<ele>136.5</ele>
			<time>2013-12-29T13:26:59Z</time>
		</trkpt>
		<trkpt lat="39.6181221008301" lon="2.62583160400391">
			<ele>135.100006103516</ele>
			<time>2013-12-29T13:27:01Z</time>
		</trkpt>
		<trkpt lat="39.6180763244629" lon="2.62588238716125">
			<ele>134.399993896484</ele>
			<time>2013-12-29T13:27:03Z</time>
		</trkpt>
		<trkpt lat="39.6180419921875" lon="2.62592077255249">
			<ele>133.800003051758</ele>
			<time>2013-12-29T13:27:04Z</time>
		</trkpt>
		<trkpt lat="39.6179885864258" lon="2.62598204612732">
			<ele>133.5</ele>
			<time>2013-12-29T13:27:06Z</time>
		</trkpt>
		<trkpt lat="39.6179428100586" lon="2.62604522705078">
			<ele>133.899993896484</ele>
			<time>2013-12-29T13:27:08Z</time>
		</trkpt>
		<trkpt lat="39.6178817749023" lon="2.62610149383545">
			<ele>134.300003051758</ele>
			<time>2013-12-29T13:27:10Z</time>
		</trkpt>
		<trkpt lat="39.6178207397461" lon="2.62615776062012">
			<ele>134.199996948242</ele>
			<time>2013-12-29T13:27:12Z</time>
		</trkpt>
		<trkpt lat="39.6177635192871" lon="2.62622332572937">
			<ele>134.300003051758</ele>
			<time>2013-12-29T13:27:14Z</time>
		</trkpt>
		<trkpt lat="39.6177024841309" lon="2.62629222869873">
			<ele>134.600006103516</ele>
			<time>2013-12-29T13:27:16Z</time>
		</trkpt>
		<trkpt lat="39.6176376342773" lon="2.62635135650635">
			<ele>135</ele>
			<time>2013-12-29T13:27:18Z</time>
		</trkpt>
		<trkpt lat="39.6175727844238" lon="2.62641596794128">
			<ele>135.199996948242</ele>
			<time>2013-12-29T13:27:20Z</time>
		</trkpt>
		<trkpt lat="39.6175155639648" lon="2.62648701667786">
			<ele>134.800003051758</ele>
			<time>2013-12-29T13:27:22Z</time>
		</trkpt>
		<trkpt lat="39.6174621582031" lon="2.62655591964722">
			<ele>135</ele>
			<time>2013-12-29T13:27:24Z</time>
		</trkpt>
		<trkpt lat="39.6174087524414" lon="2.62662243843079">
			<ele>135.699996948242</ele>
			<time>2013-12-29T13:27:26Z</time>
		</trkpt>
		<trkpt lat="39.6173629760742" lon="2.62669205665588">
			<ele>135.899993896484</ele>
			<time>2013-12-29T13:27:28Z</time>
		</trkpt>
		<trkpt lat="39.6173248291016" lon="2.62675166130066">
			<ele>136.300003051758</ele>
			<time>2013-12-29T13:27:30Z</time>
		</trkpt>
		<trkpt lat="39.6172866821289" lon="2.62681841850281">
			<ele>136.699996948242</ele>
			<time>2013-12-29T13:27:32Z</time>
		</trkpt>
		<trkpt lat="39.6172485351563" lon="2.62688803672791">
			<ele>136.600006103516</ele>
			<time>2013-12-29T13:27:34Z</time>
		</trkpt>
		<trkpt lat="39.6172142028809" lon="2.62695741653442">
			<ele>136.899993896484</ele>
			<time>2013-12-29T13:27:36Z</time>
		</trkpt>
		<trkpt lat="39.6171722412109" lon="2.62700796127319">
			<ele>137.399993896484</ele>
			<time>2013-12-29T13:27:37Z</time>
		</trkpt>
		<trkpt lat="39.617130279541" lon="2.62707138061523">
			<ele>137.199996948242</ele>
			<time>2013-12-29T13:27:40Z</time>
		</trkpt>
		<trkpt lat="39.6170845031738" lon="2.62715649604797">
			<ele>137.699996948242</ele>
			<time>2013-12-29T13:27:42Z</time>
		</trkpt>
		<trkpt lat="39.6170349121094" lon="2.62723302841187">
			<ele>138.5</ele>
			<time>2013-12-29T13:27:44Z</time>
		</trkpt>
		<trkpt lat="39.6169891357422" lon="2.62730932235718">
			<ele>139</ele>
			<time>2013-12-29T13:27:46Z</time>
		</trkpt>
		<trkpt lat="39.6169319152832" lon="2.62738084793091">
			<ele>139.600006103516</ele>
			<time>2013-12-29T13:27:48Z</time>
		</trkpt>
		<trkpt lat="39.616886138916" lon="2.62745022773743">
			<ele>138.899993896484</ele>
			<time>2013-12-29T13:27:50Z</time>
		</trkpt>
		<trkpt lat="39.6168441772461" lon="2.62752962112427">
			<ele>138.399993896484</ele>
			<time>2013-12-29T13:27:52Z</time>
		</trkpt>
		<trkpt lat="39.6167945861816" lon="2.62761092185974">
			<ele>138</ele>
			<time>2013-12-29T13:27:54Z</time>
		</trkpt>
		<trkpt lat="39.6167526245117" lon="2.62768054008484">
			<ele>138.199996948242</ele>
			<time>2013-12-29T13:27:56Z</time>
		</trkpt>
		<trkpt lat="39.6167106628418" lon="2.62775301933289">
			<ele>138.5</ele>
			<time>2013-12-29T13:27:58Z</time>
		</trkpt>
		<trkpt lat="39.6166610717773" lon="2.62782502174377">
			<ele>138.100006103516</ele>
			<time>2013-12-29T13:28:00Z</time>
		</trkpt>
		<trkpt lat="39.6166076660156" lon="2.62790203094482">
			<ele>137.699996948242</ele>
			<time>2013-12-29T13:28:02Z</time>
		</trkpt>
		<trkpt lat="39.6165504455566" lon="2.62798190116882">
			<ele>137.5</ele>
			<time>2013-12-29T13:28:04Z</time>
		</trkpt>
		<trkpt lat="39.6165008544922" lon="2.62806677818298">
			<ele>136.899993896484</ele>
			<time>2013-12-29T13:28:06Z</time>
		</trkpt>
		<trkpt lat="39.6164512634277" lon="2.62815308570862">
			<ele>137.600006103516</ele>
			<time>2013-12-29T13:28:08Z</time>
		</trkpt>
		<trkpt lat="39.6164016723633" lon="2.62822914123535">
			<ele>136.899993896484</ele>
			<time>2013-12-29T13:28:10Z</time>
		</trkpt>
		<trkpt lat="39.6163520812988" lon="2.62831354141235">
			<ele>136.199996948242</ele>
			<time>2013-12-29T13:28:12Z</time>
		</trkpt>
		<trkpt lat="39.6163177490234" lon="2.62835812568665">
			<ele>137.100006103516</ele>
			<time>2013-12-29T13:28:13Z</time>
		</trkpt>
		<trkpt lat="39.616268157959" lon="2.6284453868866">
			<ele>137</ele>
			<time>2013-12-29T13:28:15Z</time>
		</trkpt>
		<trkpt lat="39.6162109375" lon="2.62852597236633">
			<ele>136.699996948242</ele>
			<time>2013-12-29T13:28:17Z</time>
		</trkpt>
		<trkpt lat="39.616153717041" lon="2.62861204147339">
			<ele>136.300003051758</ele>
			<time>2013-12-29T13:28:19Z</time>
		</trkpt>
		<trkpt lat="39.616096496582" lon="2.62869930267334">
			<ele>136</ele>
			<time>2013-12-29T13:28:21Z</time>
		</trkpt>
		<trkpt lat="39.6160354614258" lon="2.62878203392029">
			<ele>136.100006103516</ele>
			<time>2013-12-29T13:28:23Z</time>
		</trkpt>
		<trkpt lat="39.6160049438477" lon="2.62882661819458">
			<ele>136</ele>
			<time>2013-12-29T13:28:24Z</time>
		</trkpt>
		<trkpt lat="39.6159782409668" lon="2.6288743019104">
			<ele>135.699996948242</ele>
			<time>2013-12-29T13:28:25Z</time>
		</trkpt>
		<trkpt lat="39.6159286499023" lon="2.62895941734314">
			<ele>135.899993896484</ele>
			<time>2013-12-29T13:28:27Z</time>
		</trkpt>
		<trkpt lat="39.6158714294434" lon="2.62904143333435">
			<ele>135.399993896484</ele>
			<time>2013-12-29T13:28:29Z</time>
		</trkpt>
		<trkpt lat="39.6158256530762" lon="2.62911677360535">
			<ele>135</ele>
			<time>2013-12-29T13:28:31Z</time>
		</trkpt>
		<trkpt lat="39.6157722473145" lon="2.62920689582825">
			<ele>134.699996948242</ele>
			<time>2013-12-29T13:28:33Z</time>
		</trkpt>
		<trkpt lat="39.6157150268555" lon="2.62928628921509">
			<ele>134.100006103516</ele>
			<time>2013-12-29T13:28:35Z</time>
		</trkpt>
		<trkpt lat="39.615665435791" lon="2.62936544418335">
			<ele>133.600006103516</ele>
			<time>2013-12-29T13:28:37Z</time>
		</trkpt>
		<trkpt lat="39.6156120300293" lon="2.62944746017456">
			<ele>133.399993896484</ele>
			<time>2013-12-29T13:28:39Z</time>
		</trkpt>
		<trkpt lat="39.6155586242676" lon="2.62953209877014">
			<ele>133.100006103516</ele>
			<time>2013-12-29T13:28:41Z</time>
		</trkpt>
		<trkpt lat="39.6155090332031" lon="2.62960171699524">
			<ele>133.100006103516</ele>
			<time>2013-12-29T13:28:43Z</time>
		</trkpt>
		<trkpt lat="39.6154556274414" lon="2.6296660900116">
			<ele>132.600006103516</ele>
			<time>2013-12-29T13:28:45Z</time>
		</trkpt>
		<trkpt lat="39.6154098510742" lon="2.62973523139954">
			<ele>132.800003051758</ele>
			<time>2013-12-29T13:28:47Z</time>
		</trkpt>
		<trkpt lat="39.6153564453125" lon="2.62980461120605">
			<ele>132.5</ele>
			<time>2013-12-29T13:28:49Z</time>
		</trkpt>
		<trkpt lat="39.615306854248" lon="2.62987971305847">
			<ele>132.699996948242</ele>
			<time>2013-12-29T13:28:51Z</time>
		</trkpt>
		<trkpt lat="39.6152687072754" lon="2.62994503974915">
			<ele>132.199996948242</ele>
			<time>2013-12-29T13:28:52Z</time>
		</trkpt>
		<trkpt lat="39.6152267456055" lon="2.63000822067261">
			<ele>132.399993896484</ele>
			<time>2013-12-29T13:28:54Z</time>
		</trkpt>
		<trkpt lat="39.6151962280273" lon="2.63006472587585">
			<ele>132.199996948242</ele>
			<time>2013-12-29T13:28:56Z</time>
		</trkpt>
		<trkpt lat="39.6151542663574" lon="2.63011908531189">
			<ele>133.899993896484</ele>
			<time>2013-12-29T13:29:11Z</time>
		</trkpt>
		<trkpt lat="39.6150970458984" lon="2.63015484809875">
			<ele>134.600006103516</ele>
			<time>2013-12-29T13:29:13Z</time>
		</trkpt>
		<trkpt lat="39.6150360107422" lon="2.63019037246704">
			<ele>135.399993896484</ele>
			<time>2013-12-29T13:29:15Z</time>
		</trkpt>
		<trkpt lat="39.6149673461914" lon="2.63022327423096">
			<ele>135.699996948242</ele>
			<time>2013-12-29T13:29:17Z</time>
		</trkpt>
		<trkpt lat="39.6148910522461" lon="2.63025331497192">
			<ele>135.300003051758</ele>
			<time>2013-12-29T13:29:19Z</time>
		</trkpt>
		<trkpt lat="39.614818572998" lon="2.63029098510742">
			<ele>134.600006103516</ele>
			<time>2013-12-29T13:29:21Z</time>
		</trkpt>
		<trkpt lat="39.6147384643555" lon="2.63032364845276">
			<ele>134.100006103516</ele>
			<time>2013-12-29T13:29:23Z</time>
		</trkpt>
		<trkpt lat="39.6146583557129" lon="2.6303608417511">
			<ele>134.199996948242</ele>
			<time>2013-12-29T13:29:25Z</time>
		</trkpt>
		<trkpt lat="39.6145896911621" lon="2.63039541244507">
			<ele>134.5</ele>
			<time>2013-12-29T13:29:27Z</time>
		</trkpt>
		<trkpt lat="39.6145248413086" lon="2.63042545318604">
			<ele>134.199996948242</ele>
			<time>2013-12-29T13:29:29Z</time>
		</trkpt>
		<trkpt lat="39.6144523620605" lon="2.63045525550842">
			<ele>134.5</ele>
			<time>2013-12-29T13:29:31Z</time>
		</trkpt>
		<trkpt lat="39.6143836975098" lon="2.63049244880676">
			<ele>134.5</ele>
			<time>2013-12-29T13:29:33Z</time>
		</trkpt>
		<trkpt lat="39.6143035888672" lon="2.63053107261658">
			<ele>134.899993896484</ele>
			<time>2013-12-29T13:29:35Z</time>
		</trkpt>
		<trkpt lat="39.6142272949219" lon="2.63056421279907">
			<ele>135.199996948242</ele>
			<time>2013-12-29T13:29:37Z</time>
		</trkpt>
		<trkpt lat="39.6141548156738" lon="2.63060569763184">
			<ele>135.399993896484</ele>
			<time>2013-12-29T13:29:39Z</time>
		</trkpt>
		<trkpt lat="39.614086151123" lon="2.63065266609192">
			<ele>136.100006103516</ele>
			<time>2013-12-29T13:29:41Z</time>
		</trkpt>
		<trkpt lat="39.6140327453613" lon="2.63068103790283">
			<ele>135.899993896484</ele>
			<time>2013-12-29T13:29:43Z</time>
		</trkpt>
		<trkpt lat="39.6139793395996" lon="2.63070154190063">
			<ele>135.800003051758</ele>
			<time>2013-12-29T13:29:45Z</time>
		</trkpt>
		<trkpt lat="39.6139526367188" lon="2.6307520866394">
			<ele>136.399993896484</ele>
			<time>2013-12-29T13:29:47Z</time>
		</trkpt>
		<trkpt lat="39.6139221191406" lon="2.63082981109619">
			<ele>136.300003051758</ele>
			<time>2013-12-29T13:29:49Z</time>
		</trkpt>
		<trkpt lat="39.6139068603516" lon="2.6309061050415">
			<ele>135.800003051758</ele>
			<time>2013-12-29T13:29:51Z</time>
		</trkpt>
		<trkpt lat="39.6139030456543" lon="2.63099884986877">
			<ele>135.899993896484</ele>
			<time>2013-12-29T13:29:53Z</time>
		</trkpt>
		<trkpt lat="39.6139068603516" lon="2.63105797767639">
			<ele>135.300003051758</ele>
			<time>2013-12-29T13:29:54Z</time>
		</trkpt>
		<trkpt lat="39.6139030456543" lon="2.63115549087524">
			<ele>134.699996948242</ele>
			<time>2013-12-29T13:29:56Z</time>
		</trkpt>
		<trkpt lat="39.6138877868652" lon="2.63123559951782">
			<ele>133.5</ele>
			<time>2013-12-29T13:29:58Z</time>
		</trkpt>
		<trkpt lat="39.6138610839844" lon="2.63133001327515">
			<ele>132.699996948242</ele>
			<time>2013-12-29T13:30:00Z</time>
		</trkpt>
		<trkpt lat="39.613842010498" lon="2.63142704963684">
			<ele>132.399993896484</ele>
			<time>2013-12-29T13:30:02Z</time>
		</trkpt>
		<trkpt lat="39.6138229370117" lon="2.6315233707428">
			<ele>132.600006103516</ele>
			<time>2013-12-29T13:30:04Z</time>
		</trkpt>
		<trkpt lat="39.6138000488281" lon="2.63162660598755">
			<ele>132.600006103516</ele>
			<time>2013-12-29T13:30:06Z</time>
		</trkpt>
		<trkpt lat="39.6137771606445" lon="2.63173007965088">
			<ele>133.100006103516</ele>
			<time>2013-12-29T13:30:08Z</time>
		</trkpt>
		<trkpt lat="39.6137619018555" lon="2.63178658485413">
			<ele>133.199996948242</ele>
			<time>2013-12-29T13:30:09Z</time>
		</trkpt>
		<trkpt lat="39.6137466430664" lon="2.63189387321472">
			<ele>133.5</ele>
			<time>2013-12-29T13:30:11Z</time>
		</trkpt>
		<trkpt lat="39.6137275695801" lon="2.63200616836548">
			<ele>133.399993896484</ele>
			<time>2013-12-29T13:30:13Z</time>
		</trkpt>
		<trkpt lat="39.6137084960938" lon="2.63211035728455">
			<ele>133.399993896484</ele>
			<time>2013-12-29T13:30:15Z</time>
		</trkpt>
		<trkpt lat="39.6137008666992" lon="2.63216876983643">
			<ele>133.5</ele>
			<time>2013-12-29T13:30:16Z</time>
		</trkpt>
		<trkpt lat="39.6136779785156" lon="2.63223552703857">
			<ele>134.100006103516</ele>
			<time>2013-12-29T13:30:17Z</time>
		</trkpt>
		<trkpt lat="39.613655090332" lon="2.63234376907349">
			<ele>134.199996948242</ele>
			<time>2013-12-29T13:30:19Z</time>
		</trkpt>
		<trkpt lat="39.6136474609375" lon="2.63240194320679">
			<ele>134</ele>
			<time>2013-12-29T13:30:20Z</time>
		</trkpt>
		<trkpt lat="39.6136283874512" lon="2.63250875473022">
			<ele>133.100006103516</ele>
			<time>2013-12-29T13:30:22Z</time>
		</trkpt>
		<trkpt lat="39.6136054992676" lon="2.63261818885803">
			<ele>132.600006103516</ele>
			<time>2013-12-29T13:30:24Z</time>
		</trkpt>
		<trkpt lat="39.6135902404785" lon="2.6327223777771">
			<ele>132.399993896484</ele>
			<time>2013-12-29T13:30:26Z</time>
		</trkpt>
		<trkpt lat="39.6135749816895" lon="2.63282084465027">
			<ele>132.199996948242</ele>
			<time>2013-12-29T13:30:28Z</time>
		</trkpt>
		<trkpt lat="39.6135559082031" lon="2.6329174041748">
			<ele>131.600006103516</ele>
			<time>2013-12-29T13:30:30Z</time>
		</trkpt>
		<trkpt lat="39.6135292053223" lon="2.63301682472229">
			<ele>131.399993896484</ele>
			<time>2013-12-29T13:30:32Z</time>
		</trkpt>
		<trkpt lat="39.6135101318359" lon="2.63311862945557">
			<ele>131.100006103516</ele>
			<time>2013-12-29T13:30:34Z</time>
		</trkpt>
		<trkpt lat="39.6134910583496" lon="2.633220911026">
			<ele>130.600006103516</ele>
			<time>2013-12-29T13:30:36Z</time>
		</trkpt>
		<trkpt lat="39.613468170166" lon="2.63332271575928">
			<ele>130.300003051758</ele>
			<time>2013-12-29T13:30:38Z</time>
		</trkpt>
		<trkpt lat="39.613452911377" lon="2.63342690467834">
			<ele>129.600006103516</ele>
			<time>2013-12-29T13:30:40Z</time>
		</trkpt>
		<trkpt lat="39.6134338378906" lon="2.63353514671326">
			<ele>129.600006103516</ele>
			<time>2013-12-29T13:30:42Z</time>
		</trkpt>
		<trkpt lat="39.6134185791016" lon="2.63364195823669">
			<ele>129.399993896484</ele>
			<time>2013-12-29T13:30:44Z</time>
		</trkpt>
		<trkpt lat="39.6134071350098" lon="2.63370013237">
			<ele>129.5</ele>
			<time>2013-12-29T13:30:45Z</time>
		</trkpt>
		<trkpt lat="39.6133880615234" lon="2.63380789756775">
			<ele>129.100006103516</ele>
			<time>2013-12-29T13:30:47Z</time>
		</trkpt>
		<trkpt lat="39.6133651733398" lon="2.63391757011414">
			<ele>128.899993896484</ele>
			<time>2013-12-29T13:30:49Z</time>
		</trkpt>
		<trkpt lat="39.6133422851563" lon="2.63402581214905">
			<ele>128.600006103516</ele>
			<time>2013-12-29T13:30:51Z</time>
		</trkpt>
		<trkpt lat="39.6133232116699" lon="2.63413262367249">
			<ele>128.399993896484</ele>
			<time>2013-12-29T13:30:53Z</time>
		</trkpt>
		<trkpt lat="39.6133003234863" lon="2.63424038887024">
			<ele>127.699996948242</ele>
			<time>2013-12-29T13:30:55Z</time>
		</trkpt>
		<trkpt lat="39.6132774353027" lon="2.6343469619751">
			<ele>127.900001525879</ele>
			<time>2013-12-29T13:30:57Z</time>
		</trkpt>
		<trkpt lat="39.6132583618164" lon="2.63445258140564">
			<ele>127.599998474121</ele>
			<time>2013-12-29T13:30:59Z</time>
		</trkpt>
		<trkpt lat="39.6132354736328" lon="2.63456153869629">
			<ele>127.599998474121</ele>
			<time>2013-12-29T13:31:01Z</time>
		</trkpt>
		<trkpt lat="39.6132125854492" lon="2.63467073440552">
			<ele>127.800003051758</ele>
			<time>2013-12-29T13:31:03Z</time>
		</trkpt>
		<trkpt lat="39.6131935119629" lon="2.63477897644043">
			<ele>128</ele>
			<time>2013-12-29T13:31:05Z</time>
		</trkpt>
		<trkpt lat="39.6131744384766" lon="2.63488960266113">
			<ele>128</ele>
			<time>2013-12-29T13:31:07Z</time>
		</trkpt>
		<trkpt lat="39.6131553649902" lon="2.63499999046326">
			<ele>127.800003051758</ele>
			<time>2013-12-29T13:31:09Z</time>
		</trkpt>
		<trkpt lat="39.6131324768066" lon="2.63510751724243">
			<ele>127.699996948242</ele>
			<time>2013-12-29T13:31:11Z</time>
		</trkpt>
		<trkpt lat="39.6131172180176" lon="2.63521671295166">
			<ele>126.900001525879</ele>
			<time>2013-12-29T13:31:13Z</time>
		</trkpt>
		<trkpt lat="39.6131057739258" lon="2.63527750968933">
			<ele>127.400001525879</ele>
			<time>2013-12-29T13:31:14Z</time>
		</trkpt>
		<trkpt lat="39.6130828857422" lon="2.63539266586304">
			<ele>127.400001525879</ele>
			<time>2013-12-29T13:31:16Z</time>
		</trkpt>
		<trkpt lat="39.6130714416504" lon="2.63545155525208">
			<ele>127.400001525879</ele>
			<time>2013-12-29T13:31:17Z</time>
		</trkpt>
		<trkpt lat="39.6130599975586" lon="2.63551378250122">
			<ele>127.300003051758</ele>
			<time>2013-12-29T13:31:18Z</time>
		</trkpt>
		<trkpt lat="39.613037109375" lon="2.63562178611755">
			<ele>127.300003051758</ele>
			<time>2013-12-29T13:31:20Z</time>
		</trkpt>
		<trkpt lat="39.6130256652832" lon="2.63568091392517">
			<ele>127</ele>
			<time>2013-12-29T13:31:21Z</time>
		</trkpt>
		<trkpt lat="39.6130104064941" lon="2.63578462600708">
			<ele>127</ele>
			<time>2013-12-29T13:31:23Z</time>
		</trkpt>
		<trkpt lat="39.6129951477051" lon="2.63589835166931">
			<ele>127.300003051758</ele>
			<time>2013-12-29T13:31:25Z</time>
		</trkpt>
		<trkpt lat="39.6129875183105" lon="2.63595986366272">
			<ele>127.5</ele>
			<time>2013-12-29T13:31:26Z</time>
		</trkpt>
		<trkpt lat="39.612979888916" lon="2.63602232933044">
			<ele>127.199996948242</ele>
			<time>2013-12-29T13:31:27Z</time>
		</trkpt>
		<trkpt lat="39.6129684448242" lon="2.63608193397522">
			<ele>127.5</ele>
			<time>2013-12-29T13:31:28Z</time>
		</trkpt>
		<trkpt lat="39.6129531860352" lon="2.63619542121887">
			<ele>126.699996948242</ele>
			<time>2013-12-29T13:31:30Z</time>
		</trkpt>
		<trkpt lat="39.6129379272461" lon="2.63626170158386">
			<ele>126.699996948242</ele>
			<time>2013-12-29T13:31:31Z</time>
		</trkpt>
		<trkpt lat="39.6129264831543" lon="2.63632559776306">
			<ele>126.800003051758</ele>
			<time>2013-12-29T13:31:32Z</time>
		</trkpt>
		<trkpt lat="39.6128959655762" lon="2.63644552230835">
			<ele>127</ele>
			<time>2013-12-29T13:31:34Z</time>
		</trkpt>
		<trkpt lat="39.6128845214844" lon="2.63650703430176">
			<ele>127.300003051758</ele>
			<time>2013-12-29T13:31:35Z</time>
		</trkpt>
		<trkpt lat="39.6128768920898" lon="2.63656783103943">
			<ele>127.300003051758</ele>
			<time>2013-12-29T13:31:36Z</time>
		</trkpt>
		<trkpt lat="39.6128692626953" lon="2.63662838935852">
			<ele>126.900001525879</ele>
			<time>2013-12-29T13:31:37Z</time>
		</trkpt>
		<trkpt lat="39.6128578186035" lon="2.6366856098175">
			<ele>127</ele>
			<time>2013-12-29T13:31:38Z</time>
		</trkpt>
		<trkpt lat="39.6128463745117" lon="2.63674211502075">
			<ele>126.599998474121</ele>
			<time>2013-12-29T13:31:39Z</time>
		</trkpt>
		<trkpt lat="39.6128196716309" lon="2.63685846328735">
			<ele>125.900001525879</ele>
			<time>2013-12-29T13:31:41Z</time>
		</trkpt>
		<trkpt lat="39.6128120422363" lon="2.63691687583923">
			<ele>126</ele>
			<time>2013-12-29T13:31:42Z</time>
		</trkpt>
		<trkpt lat="39.61279296875" lon="2.63697981834412">
			<ele>125.699996948242</ele>
			<time>2013-12-29T13:31:43Z</time>
		</trkpt>
		<trkpt lat="39.6127738952637" lon="2.63704943656921">
			<ele>125.599998474121</ele>
			<time>2013-12-29T13:31:44Z</time>
		</trkpt>
		<trkpt lat="39.6127700805664" lon="2.63710856437683">
			<ele>125.699996948242</ele>
			<time>2013-12-29T13:31:45Z</time>
		</trkpt>
		<trkpt lat="39.6127586364746" lon="2.63717675209045">
			<ele>125.300003051758</ele>
			<time>2013-12-29T13:31:46Z</time>
		</trkpt>
		<trkpt lat="39.6127433776855" lon="2.6372401714325">
			<ele>125.199996948242</ele>
			<time>2013-12-29T13:31:47Z</time>
		</trkpt>
		<trkpt lat="39.6127281188965" lon="2.63730645179749">
			<ele>125.099998474121</ele>
			<time>2013-12-29T13:31:48Z</time>
		</trkpt>
		<trkpt lat="39.6127166748047" lon="2.63737297058105">
			<ele>124.900001525879</ele>
			<time>2013-12-29T13:31:49Z</time>
		</trkpt>
		<trkpt lat="39.6127014160156" lon="2.63743424415588">
			<ele>124.800003051758</ele>
			<time>2013-12-29T13:31:50Z</time>
		</trkpt>
		<trkpt lat="39.6126899719238" lon="2.6375048160553">
			<ele>124.599998474121</ele>
			<time>2013-12-29T13:31:51Z</time>
		</trkpt>
		<trkpt lat="39.6126747131348" lon="2.63756918907166">
			<ele>124.5</ele>
			<time>2013-12-29T13:31:52Z</time>
		</trkpt>
		<trkpt lat="39.6126670837402" lon="2.63764047622681">
			<ele>124.5</ele>
			<time>2013-12-29T13:31:53Z</time>
		</trkpt>
		<trkpt lat="39.6126594543457" lon="2.63770484924316">
			<ele>124.699996948242</ele>
			<time>2013-12-29T13:31:54Z</time>
		</trkpt>
		<trkpt lat="39.6126480102539" lon="2.63776612281799">
			<ele>124.400001525879</ele>
			<time>2013-12-29T13:31:55Z</time>
		</trkpt>
		<trkpt lat="39.6126365661621" lon="2.63783121109009">
			<ele>124.5</ele>
			<time>2013-12-29T13:31:56Z</time>
		</trkpt>
		<trkpt lat="39.612621307373" lon="2.63789701461792">
			<ele>124.400001525879</ele>
			<time>2013-12-29T13:31:57Z</time>
		</trkpt>
		<trkpt lat="39.6126098632813" lon="2.63796424865723">
			<ele>124.400001525879</ele>
			<time>2013-12-29T13:31:58Z</time>
		</trkpt>
		<trkpt lat="39.6125946044922" lon="2.63803243637085">
			<ele>124</ele>
			<time>2013-12-29T13:32:00Z</time>
		</trkpt>
		<trkpt lat="39.6125831604004" lon="2.63810062408447">
			<ele>123.599998474121</ele>
			<time>2013-12-29T13:32:01Z</time>
		</trkpt>
		<trkpt lat="39.6125717163086" lon="2.6381688117981">
			<ele>123.5</ele>
			<time>2013-12-29T13:32:02Z</time>
		</trkpt>
		<trkpt lat="39.6125602722168" lon="2.63823485374451">
			<ele>122.900001525879</ele>
			<time>2013-12-29T13:32:03Z</time>
		</trkpt>
		<trkpt lat="39.612548828125" lon="2.6383011341095">
			<ele>123</ele>
			<time>2013-12-29T13:32:04Z</time>
		</trkpt>
		<trkpt lat="39.6125373840332" lon="2.63836574554443">
			<ele>122.800003051758</ele>
			<time>2013-12-29T13:32:05Z</time>
		</trkpt>
		<trkpt lat="39.6125259399414" lon="2.63843631744385">
			<ele>122.699996948242</ele>
			<time>2013-12-29T13:32:06Z</time>
		</trkpt>
		<trkpt lat="39.6125144958496" lon="2.63850212097168">
			<ele>122.599998474121</ele>
			<time>2013-12-29T13:32:07Z</time>
		</trkpt>
		<trkpt lat="39.6124992370605" lon="2.63857126235962">
			<ele>122.800003051758</ele>
			<time>2013-12-29T13:32:08Z</time>
		</trkpt>
		<trkpt lat="39.6124839782715" lon="2.63864326477051">
			<ele>123.199996948242</ele>
			<time>2013-12-29T13:32:09Z</time>
		</trkpt>
		<trkpt lat="39.6124725341797" lon="2.63871121406555">
			<ele>123.300003051758</ele>
			<time>2013-12-29T13:32:10Z</time>
		</trkpt>
		<trkpt lat="39.6124610900879" lon="2.63877630233765">
			<ele>123.199996948242</ele>
			<time>2013-12-29T13:32:11Z</time>
		</trkpt>
		<trkpt lat="39.6124420166016" lon="2.63885092735291">
			<ele>123.099998474121</ele>
			<time>2013-12-29T13:32:12Z</time>
		</trkpt>
		<trkpt lat="39.6124267578125" lon="2.63892078399658">
			<ele>122.900001525879</ele>
			<time>2013-12-29T13:32:13Z</time>
		</trkpt>
		<trkpt lat="39.6124229431152" lon="2.63898777961731">
			<ele>123.099998474121</ele>
			<time>2013-12-29T13:32:14Z</time>
		</trkpt>
		<trkpt lat="39.6124153137207" lon="2.63906145095825">
			<ele>123</ele>
			<time>2013-12-29T13:32:15Z</time>
		</trkpt>
		<trkpt lat="39.6124267578125" lon="2.63913178443909">
			<ele>123.400001525879</ele>
			<time>2013-12-29T13:32:16Z</time>
		</trkpt>
		<trkpt lat="39.6123924255371" lon="2.63917899131775">
			<ele>125</ele>
			<time>2013-12-29T13:32:17Z</time>
		</trkpt>
		<trkpt lat="39.6123428344727" lon="2.63925051689148">
			<ele>125.199996948242</ele>
			<time>2013-12-29T13:32:19Z</time>
		</trkpt>
		<trkpt lat="39.6122665405273" lon="2.63929486274719">
			<ele>125.599998474121</ele>
			<time>2013-12-29T13:32:21Z</time>
		</trkpt>
		<trkpt lat="39.6122207641602" lon="2.63930797576904">
			<ele>125.599998474121</ele>
			<time>2013-12-29T13:32:22Z</time>
		</trkpt>
		<trkpt lat="39.6121368408203" lon="2.63935327529907">
			<ele>126.300003051758</ele>
			<time>2013-12-29T13:32:24Z</time>
		</trkpt>
		<trkpt lat="39.6120948791504" lon="2.63937616348267">
			<ele>126.199996948242</ele>
			<time>2013-12-29T13:32:25Z</time>
		</trkpt>
		<trkpt lat="39.6120071411133" lon="2.63941383361816">
			<ele>126.199996948242</ele>
			<time>2013-12-29T13:32:27Z</time>
		</trkpt>
		<trkpt lat="39.6119651794434" lon="2.63943696022034">
			<ele>126.400001525879</ele>
			<time>2013-12-29T13:32:28Z</time>
		</trkpt>
		<trkpt lat="39.6119232177734" lon="2.63946413993835">
			<ele>126.300003051758</ele>
			<time>2013-12-29T13:32:29Z</time>
		</trkpt>
		<trkpt lat="39.6118316650391" lon="2.63951444625854">
			<ele>126.300003051758</ele>
			<time>2013-12-29T13:32:31Z</time>
		</trkpt>
		<trkpt lat="39.6117820739746" lon="2.63954305648804">
			<ele>126.5</ele>
			<time>2013-12-29T13:32:32Z</time>
		</trkpt>
		<trkpt lat="39.6117362976074" lon="2.63956356048584">
			<ele>126.300003051758</ele>
			<time>2013-12-29T13:32:33Z</time>
		</trkpt>
		<trkpt lat="39.611686706543" lon="2.63958930969238">
			<ele>126</ele>
			<time>2013-12-29T13:32:34Z</time>
		</trkpt>
		<trkpt lat="39.6116333007813" lon="2.63962125778198">
			<ele>125.599998474121</ele>
			<time>2013-12-29T13:32:35Z</time>
		</trkpt>
		<trkpt lat="39.6115837097168" lon="2.6396484375">
			<ele>125.599998474121</ele>
			<time>2013-12-29T13:32:36Z</time>
		</trkpt>
		<trkpt lat="39.6115379333496" lon="2.63966870307922">
			<ele>125.400001525879</ele>
			<time>2013-12-29T13:32:37Z</time>
		</trkpt>
		<trkpt lat="39.6114883422852" lon="2.63969612121582">
			<ele>125.099998474121</ele>
			<time>2013-12-29T13:32:38Z</time>
		</trkpt>
		<trkpt lat="39.6114387512207" lon="2.639723777771">
			<ele>125</ele>
			<time>2013-12-29T13:32:39Z</time>
		</trkpt>
		<trkpt lat="39.6113891601563" lon="2.63974690437317">
			<ele>124.699996948242</ele>
			<time>2013-12-29T13:32:40Z</time>
		</trkpt>
		<trkpt lat="39.6113357543945" lon="2.63977670669556">
			<ele>124.400001525879</ele>
			<time>2013-12-29T13:32:41Z</time>
		</trkpt>
		<trkpt lat="39.6112861633301" lon="2.63980579376221">
			<ele>124.099998474121</ele>
			<time>2013-12-29T13:32:42Z</time>
		</trkpt>
		<trkpt lat="39.6112327575684" lon="2.63982844352722">
			<ele>124</ele>
			<time>2013-12-29T13:32:43Z</time>
		</trkpt>
		<trkpt lat="39.6111869812012" lon="2.63985395431519">
			<ele>124.099998474121</ele>
			<time>2013-12-29T13:32:44Z</time>
		</trkpt>
		<trkpt lat="39.6111259460449" lon="2.63994932174683">
			<ele>124.199996948242</ele>
			<time>2013-12-29T13:32:46Z</time>
		</trkpt>
		<trkpt lat="39.6111373901367" lon="2.64005923271179">
			<ele>123.900001525879</ele>
			<time>2013-12-29T13:32:48Z</time>
		</trkpt>
		<trkpt lat="39.6111640930176" lon="2.64016652107239">
			<ele>123.5</ele>
			<time>2013-12-29T13:32:50Z</time>
		</trkpt>
		<trkpt lat="39.6111793518066" lon="2.64022326469421">
			<ele>123.5</ele>
			<time>2013-12-29T13:32:51Z</time>
		</trkpt>
		<trkpt lat="39.6112060546875" lon="2.64032816886902">
			<ele>123</ele>
			<time>2013-12-29T13:32:53Z</time>
		</trkpt>
		<trkpt lat="39.6112289428711" lon="2.64043378829956">
			<ele>123.199996948242</ele>
			<time>2013-12-29T13:32:55Z</time>
		</trkpt>
		<trkpt lat="39.6111907958984" lon="2.64052438735962">
			<ele>122.699996948242</ele>
			<time>2013-12-29T13:32:57Z</time>
		</trkpt>
		<trkpt lat="39.6111221313477" lon="2.64056491851807">
			<ele>123.300003051758</ele>
			<time>2013-12-29T13:32:59Z</time>
		</trkpt>
		<trkpt lat="39.6110420227051" lon="2.64061641693115">
			<ele>123.699996948242</ele>
			<time>2013-12-29T13:33:01Z</time>
		</trkpt>
		<trkpt lat="39.6110038757324" lon="2.64065408706665">
			<ele>123.800003051758</ele>
			<time>2013-12-29T13:33:02Z</time>
		</trkpt>
		<trkpt lat="39.6109657287598" lon="2.64069151878357">
			<ele>123.900001525879</ele>
			<time>2013-12-29T13:33:03Z</time>
		</trkpt>
		<trkpt lat="39.6109428405762" lon="2.64074277877808">
			<ele>124.099998474121</ele>
			<time>2013-12-29T13:33:04Z</time>
		</trkpt>
		<trkpt lat="39.6109275817871" lon="2.6408052444458">
			<ele>123.800003051758</ele>
			<time>2013-12-29T13:33:05Z</time>
		</trkpt>
		<trkpt lat="39.6109008789063" lon="2.64086365699768">
			<ele>123.599998474121</ele>
			<time>2013-12-29T13:33:06Z</time>
		</trkpt>
		<trkpt lat="39.6108856201172" lon="2.64092326164246">
			<ele>123.5</ele>
			<time>2013-12-29T13:33:07Z</time>
		</trkpt>
		<trkpt lat="39.6108665466309" lon="2.64098119735718">
			<ele>123.5</ele>
			<time>2013-12-29T13:33:08Z</time>
		</trkpt>
		<trkpt lat="39.61083984375" lon="2.64103865623474">
			<ele>123</ele>
			<time>2013-12-29T13:33:09Z</time>
		</trkpt>
		<trkpt lat="39.6108245849609" lon="2.64109492301941">
			<ele>123.199996948242</ele>
			<time>2013-12-29T13:33:10Z</time>
		</trkpt>
		<trkpt lat="39.6107978820801" lon="2.64115571975708">
			<ele>122.400001525879</ele>
			<time>2013-12-29T13:33:11Z</time>
		</trkpt>
		<trkpt lat="39.6107711791992" lon="2.64121079444885">
			<ele>122.300003051758</ele>
			<time>2013-12-29T13:33:12Z</time>
		</trkpt>
		<trkpt lat="39.6107215881348" lon="2.64132571220398">
			<ele>122.300003051758</ele>
			<time>2013-12-29T13:33:14Z</time>
		</trkpt>
		<trkpt lat="39.6107025146484" lon="2.64138889312744">
			<ele>122.099998474121</ele>
			<time>2013-12-29T13:33:15Z</time>
		</trkpt>
		<trkpt lat="39.6106758117676" lon="2.6414487361908">
			<ele>122</ele>
			<time>2013-12-29T13:33:16Z</time>
		</trkpt>
		<trkpt lat="39.6106491088867" lon="2.64150810241699">
			<ele>121.900001525879</ele>
			<time>2013-12-29T13:33:17Z</time>
		</trkpt>
		<trkpt lat="39.6106300354004" lon="2.64157462120056">
			<ele>122</ele>
			<time>2013-12-29T13:33:18Z</time>
		</trkpt>
		<trkpt lat="39.6105842590332" lon="2.64167952537537">
			<ele>122.900001525879</ele>
			<time>2013-12-29T13:33:20Z</time>
		</trkpt>
		<trkpt lat="39.6105613708496" lon="2.64173007011414">
			<ele>123.199996948242</ele>
			<time>2013-12-29T13:33:21Z</time>
		</trkpt>
		<trkpt lat="39.6105422973633" lon="2.64178514480591">
			<ele>122.900001525879</ele>
			<time>2013-12-29T13:33:22Z</time>
		</trkpt>
		<trkpt lat="39.6105079650879" lon="2.64185404777527">
			<ele>121.599998474121</ele>
			<time>2013-12-29T13:33:25Z</time>
		</trkpt>
		<trkpt lat="39.6104621887207" lon="2.64190030097961">
			<ele>120.900001525879</ele>
			<time>2013-12-29T13:33:28Z</time>
		</trkpt>
		<trkpt lat="39.610408782959" lon="2.64189481735229">
			<ele>120.599998474121</ele>
			<time>2013-12-29T13:33:30Z</time>
		</trkpt>
		<trkpt lat="39.6103630065918" lon="2.64189457893372">
			<ele>120.199996948242</ele>
			<time>2013-12-29T13:34:47Z</time>
		</trkpt>
		<trkpt lat="39.6103019714355" lon="2.64188647270203">
			<ele>119.800003051758</ele>
			<time>2013-12-29T13:34:51Z</time>
		</trkpt>
		<trkpt lat="39.610237121582" lon="2.64188098907471">
			<ele>119.5</ele>
			<time>2013-12-29T13:34:53Z</time>
		</trkpt>
		<trkpt lat="39.6101913452148" lon="2.64186930656433">
			<ele>119.400001525879</ele>
			<time>2013-12-29T13:34:54Z</time>
		</trkpt>
		<trkpt lat="39.6101112365723" lon="2.64185094833374">
			<ele>119.199996948242</ele>
			<time>2013-12-29T13:34:56Z</time>
		</trkpt>
		<trkpt lat="39.6100654602051" lon="2.64184141159058">
			<ele>119</ele>
			<time>2013-12-29T13:34:57Z</time>
		</trkpt>
		<trkpt lat="39.6099739074707" lon="2.64183735847473">
			<ele>118.5</ele>
			<time>2013-12-29T13:34:59Z</time>
		</trkpt>
		<trkpt lat="39.609920501709" lon="2.64183449745178">
			<ele>118.199996948242</ele>
			<time>2013-12-29T13:35:00Z</time>
		</trkpt>
		<trkpt lat="39.6098709106445" lon="2.64183115959167">
			<ele>118.199996948242</ele>
			<time>2013-12-29T13:35:01Z</time>
		</trkpt>
		<trkpt lat="39.6098175048828" lon="2.64182329177856">
			<ele>118.099998474121</ele>
			<time>2013-12-29T13:35:02Z</time>
		</trkpt>
		<trkpt lat="39.6097640991211" lon="2.64181804656982">
			<ele>117.800003051758</ele>
			<time>2013-12-29T13:35:03Z</time>
		</trkpt>
		<trkpt lat="39.6097068786621" lon="2.64180707931519">
			<ele>117.5</ele>
			<time>2013-12-29T13:35:04Z</time>
		</trkpt>
		<trkpt lat="39.6096611022949" lon="2.64179062843323">
			<ele>117.300003051758</ele>
			<time>2013-12-29T13:35:05Z</time>
		</trkpt>
		<trkpt lat="39.6096076965332" lon="2.64177656173706">
			<ele>117.199996948242</ele>
			<time>2013-12-29T13:35:06Z</time>
		</trkpt>
		<trkpt lat="39.6095542907715" lon="2.6417543888092">
			<ele>116.800003051758</ele>
			<time>2013-12-29T13:35:07Z</time>
		</trkpt>
		<trkpt lat="39.6095008850098" lon="2.64173769950867">
			<ele>116.800003051758</ele>
			<time>2013-12-29T13:35:08Z</time>
		</trkpt>
		<trkpt lat="39.6094512939453" lon="2.6417248249054">
			<ele>116.800003051758</ele>
			<time>2013-12-29T13:35:09Z</time>
		</trkpt>
		<trkpt lat="39.6093978881836" lon="2.64170956611633">
			<ele>116.900001525879</ele>
			<time>2013-12-29T13:35:10Z</time>
		</trkpt>
		<trkpt lat="39.6093444824219" lon="2.64168739318848">
			<ele>116.900001525879</ele>
			<time>2013-12-29T13:35:11Z</time>
		</trkpt>
		<trkpt lat="39.6092872619629" lon="2.6416699886322">
			<ele>116.800003051758</ele>
			<time>2013-12-29T13:35:12Z</time>
		</trkpt>
		<trkpt lat="39.6092338562012" lon="2.64165616035461">
			<ele>116.5</ele>
			<time>2013-12-29T13:35:13Z</time>
		</trkpt>
		<trkpt lat="39.6091842651367" lon="2.64164185523987">
			<ele>116.300003051758</ele>
			<time>2013-12-29T13:35:14Z</time>
		</trkpt>
		<trkpt lat="39.609130859375" lon="2.64162755012512">
			<ele>116.099998474121</ele>
			<time>2013-12-29T13:35:15Z</time>
		</trkpt>
		<trkpt lat="39.6090812683105" lon="2.64161419868469">
			<ele>115.900001525879</ele>
			<time>2013-12-29T13:35:16Z</time>
		</trkpt>
		<trkpt lat="39.6090354919434" lon="2.6416003704071">
			<ele>115.400001525879</ele>
			<time>2013-12-29T13:35:17Z</time>
		</trkpt>
		<trkpt lat="39.6089859008789" lon="2.64158320426941">
			<ele>115.199996948242</ele>
			<time>2013-12-29T13:35:18Z</time>
		</trkpt>
		<trkpt lat="39.6089363098145" lon="2.64156723022461">
			<ele>115.300003051758</ele>
			<time>2013-12-29T13:35:19Z</time>
		</trkpt>
		<trkpt lat="39.60888671875" lon="2.64155316352844">
			<ele>115.199996948242</ele>
			<time>2013-12-29T13:35:20Z</time>
		</trkpt>
		<trkpt lat="39.6088371276855" lon="2.64154052734375">
			<ele>115.199996948242</ele>
			<time>2013-12-29T13:35:21Z</time>
		</trkpt>
		<trkpt lat="39.6087913513184" lon="2.64153647422791">
			<ele>115.5</ele>
			<time>2013-12-29T13:35:22Z</time>
		</trkpt>
		<trkpt lat="39.6087036132813" lon="2.64153552055359">
			<ele>115.900001525879</ele>
			<time>2013-12-29T13:35:24Z</time>
		</trkpt>
		<trkpt lat="39.6086540222168" lon="2.6415421962738">
			<ele>116.400001525879</ele>
			<time>2013-12-29T13:35:25Z</time>
		</trkpt>
		<trkpt lat="39.608585357666" lon="2.64155578613281">
			<ele>117.400001525879</ele>
			<time>2013-12-29T13:35:26Z</time>
		</trkpt>
		<trkpt lat="39.6085548400879" lon="2.64162254333496">
			<ele>117</ele>
			<time>2013-12-29T13:35:29Z</time>
		</trkpt>
		<trkpt lat="39.6085891723633" lon="2.6416928768158">
			<ele>116.5</ele>
			<time>2013-12-29T13:35:31Z</time>
		</trkpt>
		<trkpt lat="39.6086540222168" lon="2.64174509048462">
			<ele>116.199996948242</ele>
			<time>2013-12-29T13:35:33Z</time>
		</trkpt>
		<trkpt lat="39.6087074279785" lon="2.64181184768677">
			<ele>115.599998474121</ele>
			<time>2013-12-29T13:35:35Z</time>
		</trkpt>
		<trkpt lat="39.6087608337402" lon="2.64188313484192">
			<ele>115.300003051758</ele>
			<time>2013-12-29T13:35:37Z</time>
		</trkpt>
		<trkpt lat="39.6088180541992" lon="2.64196085929871">
			<ele>114.800003051758</ele>
			<time>2013-12-29T13:35:39Z</time>
		</trkpt>
		<trkpt lat="39.6088752746582" lon="2.64203882217407">
			<ele>114.800003051758</ele>
			<time>2013-12-29T13:35:41Z</time>
		</trkpt>
		<trkpt lat="39.6089324951172" lon="2.64211273193359">
			<ele>115</ele>
			<time>2013-12-29T13:35:43Z</time>
		</trkpt>
		<trkpt lat="39.6089973449707" lon="2.6421914100647">
			<ele>115.099998474121</ele>
			<time>2013-12-29T13:35:45Z</time>
		</trkpt>
		<trkpt lat="39.6090621948242" lon="2.64226603507996">
			<ele>114.400001525879</ele>
			<time>2013-12-29T13:35:47Z</time>
		</trkpt>
		<trkpt lat="39.6090888977051" lon="2.64231514930725">
			<ele>115</ele>
			<time>2013-12-29T13:35:48Z</time>
		</trkpt>
		<trkpt lat="39.6091499328613" lon="2.64239406585693">
			<ele>114.699996948242</ele>
			<time>2013-12-29T13:35:50Z</time>
		</trkpt>
		<trkpt lat="39.6092109680176" lon="2.64247179031372">
			<ele>114.099998474121</ele>
			<time>2013-12-29T13:35:52Z</time>
		</trkpt>
		<trkpt lat="39.6092681884766" lon="2.64255785942078">
			<ele>114.5</ele>
			<time>2013-12-29T13:35:54Z</time>
		</trkpt>
		<trkpt lat="39.6092987060547" lon="2.64259886741638">
			<ele>114.5</ele>
			<time>2013-12-29T13:35:55Z</time>
		</trkpt>
		<trkpt lat="39.6093292236328" lon="2.64264249801636">
			<ele>114.800003051758</ele>
			<time>2013-12-29T13:35:56Z</time>
		</trkpt>
		<trkpt lat="39.6093597412109" lon="2.6426887512207">
			<ele>114.900001525879</ele>
			<time>2013-12-29T13:35:57Z</time>
		</trkpt>
		<trkpt lat="39.6094245910645" lon="2.64276146888733">
			<ele>114.5</ele>
			<time>2013-12-29T13:35:59Z</time>
		</trkpt>
		<trkpt lat="39.6094818115234" lon="2.64284110069275">
			<ele>114.599998474121</ele>
			<time>2013-12-29T13:36:01Z</time>
		</trkpt>
		<trkpt lat="39.6095390319824" lon="2.6429238319397">
			<ele>114.699996948242</ele>
			<time>2013-12-29T13:36:03Z</time>
		</trkpt>
		<trkpt lat="39.6096000671387" lon="2.64300346374512">
			<ele>114.900001525879</ele>
			<time>2013-12-29T13:36:05Z</time>
		</trkpt>
		<trkpt lat="39.6096611022949" lon="2.64307689666748">
			<ele>115.099998474121</ele>
			<time>2013-12-29T13:36:07Z</time>
		</trkpt>
		<trkpt lat="39.6097183227539" lon="2.64315176010132">
			<ele>115.400001525879</ele>
			<time>2013-12-29T13:36:09Z</time>
		</trkpt>
		<trkpt lat="39.6097717285156" lon="2.64322352409363">
			<ele>115.599998474121</ele>
			<time>2013-12-29T13:36:11Z</time>
		</trkpt>
		<trkpt lat="39.6098213195801" lon="2.64330244064331">
			<ele>115.400001525879</ele>
			<time>2013-12-29T13:36:13Z</time>
		</trkpt>
		<trkpt lat="39.6098747253418" lon="2.64337658882141">
			<ele>115.5</ele>
			<time>2013-12-29T13:36:15Z</time>
		</trkpt>
		<trkpt lat="39.6099433898926" lon="2.64345693588257">
			<ele>115.199996948242</ele>
			<time>2013-12-29T13:36:17Z</time>
		</trkpt>
		<trkpt lat="39.6099967956543" lon="2.64353179931641">
			<ele>115.199996948242</ele>
			<time>2013-12-29T13:36:19Z</time>
		</trkpt>
		<trkpt lat="39.6100540161133" lon="2.6436071395874">
			<ele>115.300003051758</ele>
			<time>2013-12-29T13:36:21Z</time>
		</trkpt>
		<trkpt lat="39.610107421875" lon="2.6436779499054">
			<ele>115.699996948242</ele>
			<time>2013-12-29T13:36:23Z</time>
		</trkpt>
		<trkpt lat="39.610164642334" lon="2.6437463760376">
			<ele>115.800003051758</ele>
			<time>2013-12-29T13:36:25Z</time>
		</trkpt>
		<trkpt lat="39.6102180480957" lon="2.64381504058838">
			<ele>116.199996948242</ele>
			<time>2013-12-29T13:36:27Z</time>
		</trkpt>
		<trkpt lat="39.6102561950684" lon="2.64388370513916">
			<ele>115.900001525879</ele>
			<time>2013-12-29T13:36:29Z</time>
		</trkpt>
		<trkpt lat="39.6103019714355" lon="2.64396715164185">
			<ele>115.599998474121</ele>
			<time>2013-12-29T13:36:31Z</time>
		</trkpt>
		<trkpt lat="39.6103515625" lon="2.64405465126038">
			<ele>115.099998474121</ele>
			<time>2013-12-29T13:36:33Z</time>
		</trkpt>
		<trkpt lat="39.6104049682617" lon="2.64414477348328">
			<ele>115.300003051758</ele>
			<time>2013-12-29T13:36:35Z</time>
		</trkpt>
		<trkpt lat="39.6104583740234" lon="2.64423823356628">
			<ele>114.900001525879</ele>
			<time>2013-12-29T13:36:37Z</time>
		</trkpt>
		<trkpt lat="39.610481262207" lon="2.64428973197937">
			<ele>114.5</ele>
			<time>2013-12-29T13:36:38Z</time>
		</trkpt>
		<trkpt lat="39.6105041503906" lon="2.64434170722961">
			<ele>114.400001525879</ele>
			<time>2013-12-29T13:36:39Z</time>
		</trkpt>
		<trkpt lat="39.6105346679688" lon="2.64439463615417">
			<ele>114</ele>
			<time>2013-12-29T13:36:40Z</time>
		</trkpt>
		<trkpt lat="39.6105613708496" lon="2.64444947242737">
			<ele>113.699996948242</ele>
			<time>2013-12-29T13:36:41Z</time>
		</trkpt>
		<trkpt lat="39.6105918884277" lon="2.64450478553772">
			<ele>113.800003051758</ele>
			<time>2013-12-29T13:36:42Z</time>
		</trkpt>
		<trkpt lat="39.6106224060059" lon="2.64455699920654">
			<ele>113.599998474121</ele>
			<time>2013-12-29T13:36:43Z</time>
		</trkpt>
		<trkpt lat="39.610652923584" lon="2.6446099281311">
			<ele>113.599998474121</ele>
			<time>2013-12-29T13:36:44Z</time>
		</trkpt>
		<trkpt lat="39.6106834411621" lon="2.64466667175293">
			<ele>113.5</ele>
			<time>2013-12-29T13:36:45Z</time>
		</trkpt>
		<trkpt lat="39.610710144043" lon="2.64471912384033">
			<ele>113.5</ele>
			<time>2013-12-29T13:36:46Z</time>
		</trkpt>
		<trkpt lat="39.6107406616211" lon="2.64477181434631">
			<ele>113.599998474121</ele>
			<time>2013-12-29T13:36:47Z</time>
		</trkpt>
		<trkpt lat="39.610767364502" lon="2.64482069015503">
			<ele>113.5</ele>
			<time>2013-12-29T13:36:48Z</time>
		</trkpt>
		<trkpt lat="39.6107940673828" lon="2.64487648010254">
			<ele>113.599998474121</ele>
			<time>2013-12-29T13:36:49Z</time>
		</trkpt>
		<trkpt lat="39.6108169555664" lon="2.64492774009705">
			<ele>113.599998474121</ele>
			<time>2013-12-29T13:36:50Z</time>
		</trkpt>
		<trkpt lat="39.6108512878418" lon="2.64497184753418">
			<ele>113.800003051758</ele>
			<time>2013-12-29T13:36:51Z</time>
		</trkpt>
		<trkpt lat="39.6108779907227" lon="2.64501786231995">
			<ele>114</ele>
			<time>2013-12-29T13:36:52Z</time>
		</trkpt>
		<trkpt lat="39.6109275817871" lon="2.6451141834259">
			<ele>113.300003051758</ele>
			<time>2013-12-29T13:36:54Z</time>
		</trkpt>
		<trkpt lat="39.6109809875488" lon="2.64521050453186">
			<ele>113.5</ele>
			<time>2013-12-29T13:36:56Z</time>
		</trkpt>
		<trkpt lat="39.6110076904297" lon="2.64526057243347">
			<ele>112.800003051758</ele>
			<time>2013-12-29T13:36:57Z</time>
		</trkpt>
		<trkpt lat="39.6110343933105" lon="2.64531373977661">
			<ele>112.599998474121</ele>
			<time>2013-12-29T13:36:58Z</time>
		</trkpt>
		<trkpt lat="39.6110534667969" lon="2.64536809921265">
			<ele>112.699996948242</ele>
			<time>2013-12-29T13:36:59Z</time>
		</trkpt>
		<trkpt lat="39.6110763549805" lon="2.64541959762573">
			<ele>112.699996948242</ele>
			<time>2013-12-29T13:37:00Z</time>
		</trkpt>
		<trkpt lat="39.6111259460449" lon="2.645503282547">
			<ele>112.800003051758</ele>
			<time>2013-12-29T13:37:02Z</time>
		</trkpt>
		<trkpt lat="39.6111602783203" lon="2.64555311203003">
			<ele>113.199996948242</ele>
			<time>2013-12-29T13:37:03Z</time>
		</trkpt>
		<trkpt lat="39.6111831665039" lon="2.64560198783875">
			<ele>112.800003051758</ele>
			<time>2013-12-29T13:37:04Z</time>
		</trkpt>
		<trkpt lat="39.6112365722656" lon="2.64570283889771">
			<ele>112.199996948242</ele>
			<time>2013-12-29T13:37:06Z</time>
		</trkpt>
		<trkpt lat="39.6112861633301" lon="2.64579367637634">
			<ele>112.400001525879</ele>
			<time>2013-12-29T13:37:08Z</time>
		</trkpt>
		<trkpt lat="39.6113128662109" lon="2.645840883255">
			<ele>112</ele>
			<time>2013-12-29T13:37:09Z</time>
		</trkpt>
		<trkpt lat="39.6113395690918" lon="2.64588856697083">
			<ele>111.699996948242</ele>
			<time>2013-12-29T13:37:10Z</time>
		</trkpt>
		<trkpt lat="39.6113929748535" lon="2.64598369598389">
			<ele>112.5</ele>
			<time>2013-12-29T13:37:12Z</time>
		</trkpt>
		<trkpt lat="39.6114158630371" lon="2.64606785774231">
			<ele>112.599998474121</ele>
			<time>2013-12-29T13:37:14Z</time>
		</trkpt>
		<trkpt lat="39.6113891601563" lon="2.64614272117615">
			<ele>112.400001525879</ele>
			<time>2013-12-29T13:37:16Z</time>
		</trkpt>
		<trkpt lat="39.611328125" lon="2.64616131782532">
			<ele>112.400001525879</ele>
			<time>2013-12-29T13:37:17Z</time>
		</trkpt>
		<trkpt lat="39.6112594604492" lon="2.6461877822876">
			<ele>112.400001525879</ele>
			<time>2013-12-29T13:37:20Z</time>
		</trkpt>
		<trkpt lat="39.6111907958984" lon="2.64622759819031">
			<ele>112.400001525879</ele>
			<time>2013-12-29T13:37:22Z</time>
		</trkpt>
		<trkpt lat="39.6111221313477" lon="2.64627051353455">
			<ele>112.300003051758</ele>
			<time>2013-12-29T13:37:24Z</time>
		</trkpt>
		<trkpt lat="39.6110572814941" lon="2.64628934860229">
			<ele>112.300003051758</ele>
			<time>2013-12-29T13:37:26Z</time>
		</trkpt>
		<trkpt lat="39.6109962463379" lon="2.64631175994873">
			<ele>112.199996948242</ele>
			<time>2013-12-29T13:37:28Z</time>
		</trkpt>
		<trkpt lat="39.6109313964844" lon="2.64633703231812">
			<ele>112.099998474121</ele>
			<time>2013-12-29T13:37:29Z</time>
		</trkpt>
		<trkpt lat="39.6108665466309" lon="2.64636325836182">
			<ele>112</ele>
			<time>2013-12-29T13:37:32Z</time>
		</trkpt>
		<trkpt lat="39.6108055114746" lon="2.64640712738037">
			<ele>111.900001525879</ele>
			<time>2013-12-29T13:37:33Z</time>
		</trkpt>
		<trkpt lat="39.6107444763184" lon="2.64645791053772">
			<ele>111.900001525879</ele>
			<time>2013-12-29T13:37:35Z</time>
		</trkpt>
		<trkpt lat="39.6106834411621" lon="2.64651012420654">
			<ele>111.5</ele>
			<time>2013-12-29T13:37:38Z</time>
		</trkpt>
		<trkpt lat="39.6106109619141" lon="2.64657807350159">
			<ele>112.099998474121</ele>
			<time>2013-12-29T13:37:39Z</time>
		</trkpt>
		<trkpt lat="39.6105461120605" lon="2.64663004875183">
			<ele>111.699996948242</ele>
			<time>2013-12-29T13:37:41Z</time>
		</trkpt>
		<trkpt lat="39.6104850769043" lon="2.64668107032776">
			<ele>111.599998474121</ele>
			<time>2013-12-29T13:37:43Z</time>
		</trkpt>
		<trkpt lat="39.6104164123535" lon="2.64673376083374">
			<ele>111</ele>
			<time>2013-12-29T13:37:45Z</time>
		</trkpt>
		<trkpt lat="39.6103630065918" lon="2.64676475524902">
			<ele>110.900001525879</ele>
			<time>2013-12-29T13:37:46Z</time>
		</trkpt>
		<trkpt lat="39.6103210449219" lon="2.6467912197113">
			<ele>110.900001525879</ele>
			<time>2013-12-29T13:37:47Z</time>
		</trkpt>
		<trkpt lat="39.6102485656738" lon="2.64683175086975">
			<ele>110.800003051758</ele>
			<time>2013-12-29T13:37:49Z</time>
		</trkpt>
		<trkpt lat="39.6101684570313" lon="2.64686322212219">
			<ele>110.800003051758</ele>
			<time>2013-12-29T13:37:51Z</time>
		</trkpt>
		<trkpt lat="39.6100883483887" lon="2.64690256118774">
			<ele>111.099998474121</ele>
			<time>2013-12-29T13:37:53Z</time>
		</trkpt>
		<trkpt lat="39.6100044250488" lon="2.6469292640686">
			<ele>110.699996948242</ele>
			<time>2013-12-29T13:37:55Z</time>
		</trkpt>
		<trkpt lat="39.6099243164063" lon="2.64695954322815">
			<ele>110.800003051758</ele>
			<time>2013-12-29T13:37:57Z</time>
		</trkpt>
		<trkpt lat="39.6098403930664" lon="2.64699244499207">
			<ele>110.900001525879</ele>
			<time>2013-12-29T13:37:59Z</time>
		</trkpt>
		<trkpt lat="39.6097564697266" lon="2.64702248573303">
			<ele>110.800003051758</ele>
			<time>2013-12-29T13:38:02Z</time>
		</trkpt>
		<trkpt lat="39.6096801757813" lon="2.64704966545105">
			<ele>110.699996948242</ele>
			<time>2013-12-29T13:38:04Z</time>
		</trkpt>
		<trkpt lat="39.6096076965332" lon="2.64706969261169">
			<ele>110.699996948242</ele>
			<time>2013-12-29T13:38:05Z</time>
		</trkpt>
		<trkpt lat="39.6095428466797" lon="2.64710760116577">
			<ele>110.800003051758</ele>
			<time>2013-12-29T13:38:07Z</time>
		</trkpt>
		<trkpt lat="39.6094779968262" lon="2.64713978767395">
			<ele>111.199996948242</ele>
			<time>2013-12-29T13:38:09Z</time>
		</trkpt>
		<trkpt lat="39.6094093322754" lon="2.64716601371765">
			<ele>111.599998474121</ele>
			<time>2013-12-29T13:38:11Z</time>
		</trkpt>
		<trkpt lat="39.6093406677246" lon="2.6471893787384">
			<ele>111.699996948242</ele>
			<time>2013-12-29T13:38:13Z</time>
		</trkpt>
		<trkpt lat="39.6092758178711" lon="2.64720249176025">
			<ele>111.900001525879</ele>
			<time>2013-12-29T13:38:15Z</time>
		</trkpt>
		<trkpt lat="39.609203338623" lon="2.64722180366516">
			<ele>111.5</ele>
			<time>2013-12-29T13:38:17Z</time>
		</trkpt>
		<trkpt lat="39.6091384887695" lon="2.6472315788269">
			<ele>111.699996948242</ele>
			<time>2013-12-29T13:38:19Z</time>
		</trkpt>
		<trkpt lat="39.6090850830078" lon="2.64721870422363">
			<ele>111.800003051758</ele>
			<time>2013-12-29T13:38:21Z</time>
		</trkpt>
		<trkpt lat="39.6090354919434" lon="2.64721703529358">
			<ele>112</ele>
			<time>2013-12-29T13:38:23Z</time>
		</trkpt>
		<trkpt lat="39.6089859008789" lon="2.64722752571106">
			<ele>111.800003051758</ele>
			<time>2013-12-29T13:38:25Z</time>
		</trkpt>
		<trkpt lat="39.6089210510254" lon="2.64723682403564">
			<ele>112.099998474121</ele>
			<time>2013-12-29T13:38:27Z</time>
		</trkpt>
		<trkpt lat="39.6088676452637" lon="2.64728713035583">
			<ele>112.5</ele>
			<time>2013-12-29T13:38:29Z</time>
		</trkpt>
		<trkpt lat="39.6087913513184" lon="2.64730095863342">
			<ele>111.900001525879</ele>
			<time>2013-12-29T13:38:31Z</time>
		</trkpt>
		<trkpt lat="39.608715057373" lon="2.64731526374817">
			<ele>111.5</ele>
			<time>2013-12-29T13:38:33Z</time>
		</trkpt>
		<trkpt lat="39.6086387634277" lon="2.64732575416565">
			<ele>111.400001525879</ele>
			<time>2013-12-29T13:38:35Z</time>
		</trkpt>
		<trkpt lat="39.6085548400879" lon="2.64734411239624">
			<ele>111.199996948242</ele>
			<time>2013-12-29T13:38:37Z</time>
		</trkpt>
		<trkpt lat="39.6084747314453" lon="2.64735269546509">
			<ele>110.900001525879</ele>
			<time>2013-12-29T13:38:39Z</time>
		</trkpt>
		<trkpt lat="39.6083908081055" lon="2.64735960960388">
			<ele>111</ele>
			<time>2013-12-29T13:38:41Z</time>
		</trkpt>
		<trkpt lat="39.6083030700684" lon="2.64738059043884">
			<ele>110.699996948242</ele>
			<time>2013-12-29T13:38:43Z</time>
		</trkpt>
		<trkpt lat="39.6082153320313" lon="2.64739680290222">
			<ele>110.599998474121</ele>
			<time>2013-12-29T13:38:45Z</time>
		</trkpt>
		<trkpt lat="39.6081275939941" lon="2.64741206169128">
			<ele>110.099998474121</ele>
			<time>2013-12-29T13:38:47Z</time>
		</trkpt>
		<trkpt lat="39.6080780029297" lon="2.64742136001587">
			<ele>110</ele>
			<time>2013-12-29T13:38:48Z</time>
		</trkpt>
		<trkpt lat="39.6080360412598" lon="2.64743423461914">
			<ele>109.699996948242</ele>
			<time>2013-12-29T13:38:49Z</time>
		</trkpt>
		<trkpt lat="39.6079902648926" lon="2.64744734764099">
			<ele>109.5</ele>
			<time>2013-12-29T13:38:50Z</time>
		</trkpt>
		<trkpt lat="39.6079444885254" lon="2.64746236801147">
			<ele>109.599998474121</ele>
			<time>2013-12-29T13:38:51Z</time>
		</trkpt>
		<trkpt lat="39.6078948974609" lon="2.64747142791748">
			<ele>109.400001525879</ele>
			<time>2013-12-29T13:38:52Z</time>
		</trkpt>
		<trkpt lat="39.6078453063965" lon="2.64748001098633">
			<ele>109.400001525879</ele>
			<time>2013-12-29T13:38:53Z</time>
		</trkpt>
		<trkpt lat="39.607795715332" lon="2.64749336242676">
			<ele>109.300003051758</ele>
			<time>2013-12-29T13:38:54Z</time>
		</trkpt>
		<trkpt lat="39.6077461242676" lon="2.6475088596344">
			<ele>109.400001525879</ele>
			<time>2013-12-29T13:38:55Z</time>
		</trkpt>
		<trkpt lat="39.6076965332031" lon="2.64752864837646">
			<ele>109.599998474121</ele>
			<time>2013-12-29T13:38:56Z</time>
		</trkpt>
		<trkpt lat="39.6076431274414" lon="2.64754271507263">
			<ele>109.900001525879</ele>
			<time>2013-12-29T13:38:57Z</time>
		</trkpt>
		<trkpt lat="39.6075897216797" lon="2.6475555896759">
			<ele>109.599998474121</ele>
			<time>2013-12-29T13:38:58Z</time>
		</trkpt>
		<trkpt lat="39.6075325012207" lon="2.6475670337677">
			<ele>109.400001525879</ele>
			<time>2013-12-29T13:38:59Z</time>
		</trkpt>
		<trkpt lat="39.6074752807617" lon="2.64758014678955">
			<ele>109.300003051758</ele>
			<time>2013-12-29T13:39:01Z</time>
		</trkpt>
		<trkpt lat="39.6074180603027" lon="2.64759492874146">
			<ele>109</ele>
			<time>2013-12-29T13:39:01Z</time>
		</trkpt>
		<trkpt lat="39.6073570251465" lon="2.64761400222778">
			<ele>108.699996948242</ele>
			<time>2013-12-29T13:39:02Z</time>
		</trkpt>
		<trkpt lat="39.6072959899902" lon="2.64763188362122">
			<ele>108.400001525879</ele>
			<time>2013-12-29T13:39:03Z</time>
		</trkpt>
		<trkpt lat="39.6072311401367" lon="2.64765238761902">
			<ele>108.199996948242</ele>
			<time>2013-12-29T13:39:04Z</time>
		</trkpt>
		<trkpt lat="39.6071662902832" lon="2.64767050743103">
			<ele>108</ele>
			<time>2013-12-29T13:39:05Z</time>
		</trkpt>
		<trkpt lat="39.6070976257324" lon="2.64769101142883">
			<ele>107.599998474121</ele>
			<time>2013-12-29T13:39:06Z</time>
		</trkpt>
		<trkpt lat="39.6070251464844" lon="2.64771413803101">
			<ele>107.300003051758</ele>
			<time>2013-12-29T13:39:07Z</time>
		</trkpt>
		<trkpt lat="39.6069526672363" lon="2.64773440361023">
			<ele>107</ele>
			<time>2013-12-29T13:39:08Z</time>
		</trkpt>
		<trkpt lat="39.6068801879883" lon="2.6477530002594">
			<ele>106.800003051758</ele>
			<time>2013-12-29T13:39:09Z</time>
		</trkpt>
		<trkpt lat="39.6068077087402" lon="2.64777183532715">
			<ele>106.599998474121</ele>
			<time>2013-12-29T13:39:10Z</time>
		</trkpt>
		<trkpt lat="39.6067352294922" lon="2.64778518676758">
			<ele>106.400001525879</ele>
			<time>2013-12-29T13:39:11Z</time>
		</trkpt>
		<trkpt lat="39.6066665649414" lon="2.64779877662659">
			<ele>106.5</ele>
			<time>2013-12-29T13:39:12Z</time>
		</trkpt>
		<trkpt lat="39.6065940856934" lon="2.6478066444397">
			<ele>106.400001525879</ele>
			<time>2013-12-29T13:39:14Z</time>
		</trkpt>
		<trkpt lat="39.6065292358398" lon="2.64779996871948">
			<ele>106.300003051758</ele>
			<time>2013-12-29T13:39:15Z</time>
		</trkpt>
		<trkpt lat="39.6064643859863" lon="2.64779043197632">
			<ele>106.300003051758</ele>
			<time>2013-12-29T13:39:16Z</time>
		</trkpt>
		<trkpt lat="39.6064071655273" lon="2.64778208732605">
			<ele>106.5</ele>
			<time>2013-12-29T13:39:17Z</time>
		</trkpt>
		<trkpt lat="39.6063537597656" lon="2.64777493476868">
			<ele>106.5</ele>
			<time>2013-12-29T13:39:18Z</time>
		</trkpt>
		<trkpt lat="39.6063041687012" lon="2.64776825904846">
			<ele>106.5</ele>
			<time>2013-12-29T13:39:19Z</time>
		</trkpt>
		<trkpt lat="39.6062507629395" lon="2.64775991439819">
			<ele>106.699996948242</ele>
			<time>2013-12-29T13:39:20Z</time>
		</trkpt>
		<trkpt lat="39.606201171875" lon="2.64774298667908">
			<ele>106.900001525879</ele>
			<time>2013-12-29T13:39:21Z</time>
		</trkpt>
		<trkpt lat="39.6061592102051" lon="2.64772367477417">
			<ele>107.199996948242</ele>
			<time>2013-12-29T13:39:22Z</time>
		</trkpt>
		<trkpt lat="39.6061096191406" lon="2.64770555496216">
			<ele>107.300003051758</ele>
			<time>2013-12-29T13:39:23Z</time>
		</trkpt>
		<trkpt lat="39.6060638427734" lon="2.64768147468567">
			<ele>107.5</ele>
			<time>2013-12-29T13:39:24Z</time>
		</trkpt>
		<trkpt lat="39.6060180664063" lon="2.64765691757202">
			<ele>107.800003051758</ele>
			<time>2013-12-29T13:39:25Z</time>
		</trkpt>
		<trkpt lat="39.6059875488281" lon="2.64761400222778">
			<ele>108</ele>
			<time>2013-12-29T13:39:26Z</time>
		</trkpt>
		<trkpt lat="39.6059494018555" lon="2.64757442474365">
			<ele>108.300003051758</ele>
			<time>2013-12-29T13:39:27Z</time>
		</trkpt>
		<trkpt lat="39.6058921813965" lon="2.64749598503113">
			<ele>108</ele>
			<time>2013-12-29T13:39:29Z</time>
		</trkpt>
		<trkpt lat="39.6058502197266" lon="2.64740490913391">
			<ele>108.300003051758</ele>
			<time>2013-12-29T13:39:31Z</time>
		</trkpt>
		<trkpt lat="39.6058120727539" lon="2.64730501174927">
			<ele>108.300003051758</ele>
			<time>2013-12-29T13:39:33Z</time>
		</trkpt>
		<trkpt lat="39.605770111084" lon="2.64721822738647">
			<ele>108.300003051758</ele>
			<time>2013-12-29T13:39:35Z</time>
		</trkpt>
		<trkpt lat="39.6057357788086" lon="2.64716005325317">
			<ele>108.199996948242</ele>
			<time>2013-12-29T13:39:37Z</time>
		</trkpt>
		<trkpt lat="39.6056900024414" lon="2.64713621139526">
			<ele>108.599998474121</ele>
			<time>2013-12-29T13:39:40Z</time>
		</trkpt>
		<trkpt lat="39.6056632995605" lon="2.64707231521606">
			<ele>108.699996948242</ele>
			<time>2013-12-29T13:39:45Z</time>
		</trkpt>
		<trkpt lat="39.6056213378906" lon="2.64703631401062">
			<ele>109.099998474121</ele>
			<time>2013-12-29T13:39:47Z</time>
		</trkpt>
		<trkpt lat="39.605583190918" lon="2.64699935913086">
			<ele>109.5</ele>
			<time>2013-12-29T13:39:49Z</time>
		</trkpt>
		<trkpt lat="39.6055526733398" lon="2.64693140983582">
			<ele>109.400001525879</ele>
			<time>2013-12-29T13:39:51Z</time>
		</trkpt>
		<trkpt lat="39.6055183410645" lon="2.64686489105225">
			<ele>109.099998474121</ele>
			<time>2013-12-29T13:39:53Z</time>
		</trkpt>
		<trkpt lat="39.6054992675781" lon="2.64680910110474">
			<ele>108.900001525879</ele>
			<time>2013-12-29T13:39:54Z</time>
		</trkpt>
		<trkpt lat="39.6054725646973" lon="2.64676189422607">
			<ele>109.599998474121</ele>
			<time>2013-12-29T13:39:56Z</time>
		</trkpt>
		<trkpt lat="39.6054191589355" lon="2.64673686027527">
			<ele>109.900001525879</ele>
			<time>2013-12-29T13:40:00Z</time>
		</trkpt>
		<trkpt lat="39.6053886413574" lon="2.64679384231567">
			<ele>111.5</ele>
			<time>2013-12-29T13:40:18Z</time>
		</trkpt>
		<trkpt lat="39.6053924560547" lon="2.64687895774841">
			<ele>111.599998474121</ele>
			<time>2013-12-29T13:40:21Z</time>
		</trkpt>
		<trkpt lat="39.6054229736328" lon="2.64694237709045">
			<ele>111.300003051758</ele>
			<time>2013-12-29T13:40:22Z</time>
		</trkpt>
		<trkpt lat="39.6054534912109" lon="2.64701890945435">
			<ele>110.900001525879</ele>
			<time>2013-12-29T13:40:25Z</time>
		</trkpt>
		<trkpt lat="39.6054763793945" lon="2.64709281921387">
			<ele>110.5</ele>
			<time>2013-12-29T13:40:27Z</time>
		</trkpt>
		<trkpt lat="39.6055107116699" lon="2.64715337753296">
			<ele>110.400001525879</ele>
			<time>2013-12-29T13:40:28Z</time>
		</trkpt>
		<trkpt lat="39.6055526733398" lon="2.64722895622253">
			<ele>109.900001525879</ele>
			<time>2013-12-29T13:40:31Z</time>
		</trkpt>
		<trkpt lat="39.6056060791016" lon="2.64730596542358">
			<ele>109.699996948242</ele>
			<time>2013-12-29T13:40:33Z</time>
		</trkpt>
		<trkpt lat="39.6056632995605" lon="2.64738583564758">
			<ele>109.5</ele>
			<time>2013-12-29T13:40:35Z</time>
		</trkpt>
		<trkpt lat="39.6056976318359" lon="2.64748287200928">
			<ele>109</ele>
			<time>2013-12-29T13:40:37Z</time>
		</trkpt>
		<trkpt lat="39.6056442260742" lon="2.64758133888245">
			<ele>108.800003051758</ele>
			<time>2013-12-29T13:40:39Z</time>
		</trkpt>
		<trkpt lat="39.605598449707" lon="2.64761137962341">
			<ele>108.400001525879</ele>
			<time>2013-12-29T13:40:40Z</time>
		</trkpt>
		<trkpt lat="39.6054916381836" lon="2.64766502380371">
			<ele>108.099998474121</ele>
			<time>2013-12-29T13:40:42Z</time>
		</trkpt>
		<trkpt lat="39.6054382324219" lon="2.64771628379822">
			<ele>107.900001525879</ele>
			<time>2013-12-29T13:40:43Z</time>
		</trkpt>
		<trkpt lat="39.6053924560547" lon="2.64778208732605">
			<ele>107.699996948242</ele>
			<time>2013-12-29T13:40:44Z</time>
		</trkpt>
		<trkpt lat="39.6053466796875" lon="2.64785051345825">
			<ele>107.599998474121</ele>
			<time>2013-12-29T13:40:45Z</time>
		</trkpt>
		<trkpt lat="39.6052932739258" lon="2.64790558815002">
			<ele>107.5</ele>
			<time>2013-12-29T13:40:46Z</time>
		</trkpt>
		<trkpt lat="39.6052169799805" lon="2.64790177345276">
			<ele>106.900001525879</ele>
			<time>2013-12-29T13:40:47Z</time>
		</trkpt>
		<trkpt lat="39.6051445007324" lon="2.64789223670959">
			<ele>106.800003051758</ele>
			<time>2013-12-29T13:40:48Z</time>
		</trkpt>
		<trkpt lat="39.6050720214844" lon="2.64787673950195">
			<ele>106.800003051758</ele>
			<time>2013-12-29T13:40:49Z</time>
		</trkpt>
		<trkpt lat="39.6049995422363" lon="2.64786386489868">
			<ele>106.699996948242</ele>
			<time>2013-12-29T13:40:50Z</time>
		</trkpt>
		<trkpt lat="39.6049270629883" lon="2.64784955978394">
			<ele>106.5</ele>
			<time>2013-12-29T13:40:51Z</time>
		</trkpt>
		<trkpt lat="39.6048545837402" lon="2.64784097671509">
			<ele>106.099998474121</ele>
			<time>2013-12-29T13:40:52Z</time>
		</trkpt>
		<trkpt lat="39.6047821044922" lon="2.64782953262329">
			<ele>105.699996948242</ele>
			<time>2013-12-29T13:40:53Z</time>
		</trkpt>
		<trkpt lat="39.6047210693359" lon="2.64780759811401">
			<ele>105.800003051758</ele>
			<time>2013-12-29T13:40:54Z</time>
		</trkpt>
		<trkpt lat="39.6046600341797" lon="2.64780187606812">
			<ele>105.199996948242</ele>
			<time>2013-12-29T13:40:55Z</time>
		</trkpt>
		<trkpt lat="39.604606628418" lon="2.64778971672058">
			<ele>105.599998474121</ele>
			<time>2013-12-29T13:40:56Z</time>
		</trkpt>
		<trkpt lat="39.6045227050781" lon="2.64777183532715">
			<ele>105</ele>
			<time>2013-12-29T13:40:58Z</time>
		</trkpt>
		<trkpt lat="39.6044731140137" lon="2.64776396751404">
			<ele>104.599998474121</ele>
			<time>2013-12-29T13:40:59Z</time>
		</trkpt>
		<trkpt lat="39.6043930053711" lon="2.64776659011841">
			<ele>104.300003051758</ele>
			<time>2013-12-29T13:41:01Z</time>
		</trkpt>
		<trkpt lat="39.6043395996094" lon="2.64777970314026">
			<ele>104.400001525879</ele>
			<time>2013-12-29T13:41:03Z</time>
		</trkpt>
		<trkpt lat="39.6043968200684" lon="2.64781284332275">
			<ele>104.099998474121</ele>
			<time>2013-12-29T13:41:11Z</time>
		</trkpt>
		<trkpt lat="39.604419708252" lon="2.64787530899048">
			<ele>103.099998474121</ele>
			<time>2013-12-29T13:41:17Z</time>
		</trkpt>
		<trkpt lat="39.6044311523438" lon="2.6479389667511">
			<ele>102.400001525879</ele>
			<time>2013-12-29T13:41:22Z</time>
		</trkpt>
		<trkpt lat="39.6044578552246" lon="2.64801907539368">
			<ele>100.800003051758</ele>
			<time>2013-12-29T13:41:41Z</time>
		</trkpt>
		<trkpt lat="39.6045188903809" lon="2.64805150032043">
			<ele>101.099998474121</ele>
			<time>2013-12-29T13:41:43Z</time>
		</trkpt>
		<trkpt lat="39.6045913696289" lon="2.64806628227234">
			<ele>101.5</ele>
			<time>2013-12-29T13:41:45Z</time>
		</trkpt>
		<trkpt lat="39.604663848877" lon="2.64807963371277">
			<ele>102.5</ele>
			<time>2013-12-29T13:41:47Z</time>
		</trkpt>
		<trkpt lat="39.604736328125" lon="2.64809322357178">
			<ele>103</ele>
			<time>2013-12-29T13:41:49Z</time>
		</trkpt>
		<trkpt lat="39.604808807373" lon="2.64810252189636">
			<ele>103.300003051758</ele>
			<time>2013-12-29T13:41:51Z</time>
		</trkpt>
		<trkpt lat="39.6048698425293" lon="2.64812898635864">
			<ele>103.699996948242</ele>
			<time>2013-12-29T13:41:53Z</time>
		</trkpt>
		<trkpt lat="39.6049308776855" lon="2.64815378189087">
			<ele>104.099998474121</ele>
			<time>2013-12-29T13:41:55Z</time>
		</trkpt>
		<trkpt lat="39.6049995422363" lon="2.6481819152832">
			<ele>104.599998474121</ele>
			<time>2013-12-29T13:41:57Z</time>
		</trkpt>
		<trkpt lat="39.6050682067871" lon="2.64820742607117">
			<ele>104.599998474121</ele>
			<time>2013-12-29T13:41:59Z</time>
		</trkpt>
		<trkpt lat="39.6051330566406" lon="2.64823389053345">
			<ele>105</ele>
			<time>2013-12-29T13:42:01Z</time>
		</trkpt>
		<trkpt lat="39.6052017211914" lon="2.64826011657715">
			<ele>105.099998474121</ele>
			<time>2013-12-29T13:42:03Z</time>
		</trkpt>
		<trkpt lat="39.6052665710449" lon="2.64828372001648">
			<ele>105.5</ele>
			<time>2013-12-29T13:42:05Z</time>
		</trkpt>
		<trkpt lat="39.6053352355957" lon="2.64831209182739">
			<ele>105.199996948242</ele>
			<time>2013-12-29T13:42:07Z</time>
		</trkpt>
		<trkpt lat="39.6054000854492" lon="2.64834046363831">
			<ele>105.199996948242</ele>
			<time>2013-12-29T13:42:09Z</time>
		</trkpt>
		<trkpt lat="39.60546875" lon="2.64838099479675">
			<ele>105.099998474121</ele>
			<time>2013-12-29T13:42:11Z</time>
		</trkpt>
		<trkpt lat="39.6055335998535" lon="2.64842462539673">
			<ele>105</ele>
			<time>2013-12-29T13:42:13Z</time>
		</trkpt>
		<trkpt lat="39.6056022644043" lon="2.64847278594971">
			<ele>104.800003051758</ele>
			<time>2013-12-29T13:42:15Z</time>
		</trkpt>
		<trkpt lat="39.6056747436523" lon="2.64852452278137">
			<ele>104.699996948242</ele>
			<time>2013-12-29T13:42:17Z</time>
		</trkpt>
		<trkpt lat="39.6057510375977" lon="2.64858031272888">
			<ele>104.400001525879</ele>
			<time>2013-12-29T13:42:19Z</time>
		</trkpt>
		<trkpt lat="39.6057929992676" lon="2.64860939979553">
			<ele>104.099998474121</ele>
			<time>2013-12-29T13:42:20Z</time>
		</trkpt>
		<trkpt lat="39.6058311462402" lon="2.64864087104797">
			<ele>103.800003051758</ele>
			<time>2013-12-29T13:42:21Z</time>
		</trkpt>
		<trkpt lat="39.6058769226074" lon="2.64867377281189">
			<ele>103.599998474121</ele>
			<time>2013-12-29T13:42:22Z</time>
		</trkpt>
		<trkpt lat="39.6059226989746" lon="2.64870810508728">
			<ele>103.300003051758</ele>
			<time>2013-12-29T13:42:23Z</time>
		</trkpt>
		<trkpt lat="39.6059684753418" lon="2.64874219894409">
			<ele>103.300003051758</ele>
			<time>2013-12-29T13:42:24Z</time>
		</trkpt>
		<trkpt lat="39.606014251709" lon="2.64877414703369">
			<ele>103.400001525879</ele>
			<time>2013-12-29T13:42:25Z</time>
		</trkpt>
		<trkpt lat="39.6060638427734" lon="2.64881062507629">
			<ele>103</ele>
			<time>2013-12-29T13:42:26Z</time>
		</trkpt>
		<trkpt lat="39.6061134338379" lon="2.64884662628174">
			<ele>102.599998474121</ele>
			<time>2013-12-29T13:42:27Z</time>
		</trkpt>
		<trkpt lat="39.6061553955078" lon="2.6488823890686">
			<ele>102.800003051758</ele>
			<time>2013-12-29T13:42:28Z</time>
		</trkpt>
		<trkpt lat="39.606201171875" lon="2.64891314506531">
			<ele>102.900001525879</ele>
			<time>2013-12-29T13:42:29Z</time>
		</trkpt>
		<trkpt lat="39.6062431335449" lon="2.64894485473633">
			<ele>103</ele>
			<time>2013-12-29T13:42:30Z</time>
		</trkpt>
		<trkpt lat="39.6062850952148" lon="2.64897489547729">
			<ele>103.400001525879</ele>
			<time>2013-12-29T13:42:31Z</time>
		</trkpt>
		<trkpt lat="39.6063194274902" lon="2.64901161193848">
			<ele>103.599998474121</ele>
			<time>2013-12-29T13:42:32Z</time>
		</trkpt>
		<trkpt lat="39.6063537597656" lon="2.64905095100403">
			<ele>103.800003051758</ele>
			<time>2013-12-29T13:42:33Z</time>
		</trkpt>
		<trkpt lat="39.6064224243164" lon="2.64912796020508">
			<ele>103.599998474121</ele>
			<time>2013-12-29T13:42:35Z</time>
		</trkpt>
		<trkpt lat="39.6064567565918" lon="2.64916849136353">
			<ele>103.599998474121</ele>
			<time>2013-12-29T13:42:36Z</time>
		</trkpt>
		<trkpt lat="39.6065216064453" lon="2.64924812316895">
			<ele>103.800003051758</ele>
			<time>2013-12-29T13:42:38Z</time>
		</trkpt>
		<trkpt lat="39.6065864562988" lon="2.64932227134705">
			<ele>103.699996948242</ele>
			<time>2013-12-29T13:42:40Z</time>
		</trkpt>
		<trkpt lat="39.6066513061523" lon="2.64940428733826">
			<ele>103.599998474121</ele>
			<time>2013-12-29T13:42:42Z</time>
		</trkpt>
		<trkpt lat="39.6067123413086" lon="2.64948081970215">
			<ele>103.900001525879</ele>
			<time>2013-12-29T13:42:44Z</time>
		</trkpt>
		<trkpt lat="39.6067733764648" lon="2.64955925941467">
			<ele>104.199996948242</ele>
			<time>2013-12-29T13:42:46Z</time>
		</trkpt>
		<trkpt lat="39.606803894043" lon="2.64959812164307">
			<ele>104.400001525879</ele>
			<time>2013-12-29T13:42:47Z</time>
		</trkpt>
		<trkpt lat="39.606861114502" lon="2.6496844291687">
			<ele>104.400001525879</ele>
			<time>2013-12-29T13:42:49Z</time>
		</trkpt>
		<trkpt lat="39.6069068908691" lon="2.64978170394897">
			<ele>104</ele>
			<time>2013-12-29T13:42:51Z</time>
		</trkpt>
		<trkpt lat="39.6069374084473" lon="2.64988732337952">
			<ele>103.900001525879</ele>
			<time>2013-12-29T13:42:53Z</time>
		</trkpt>
		<trkpt lat="39.6069679260254" lon="2.64999008178711">
			<ele>103.699996948242</ele>
			<time>2013-12-29T13:42:55Z</time>
		</trkpt>
		<trkpt lat="39.6069946289063" lon="2.65009570121765">
			<ele>103.699996948242</ele>
			<time>2013-12-29T13:42:57Z</time>
		</trkpt>
		<trkpt lat="39.6070213317871" lon="2.65019869804382">
			<ele>103.800003051758</ele>
			<time>2013-12-29T13:42:59Z</time>
		</trkpt>
		<trkpt lat="39.6070518493652" lon="2.65030312538147">
			<ele>103.900001525879</ele>
			<time>2013-12-29T13:43:01Z</time>
		</trkpt>
		<trkpt lat="39.6070785522461" lon="2.6504123210907">
			<ele>104.099998474121</ele>
			<time>2013-12-29T13:43:03Z</time>
		</trkpt>
		<trkpt lat="39.607105255127" lon="2.65052056312561">
			<ele>103.900001525879</ele>
			<time>2013-12-29T13:43:05Z</time>
		</trkpt>
		<trkpt lat="39.6071281433105" lon="2.65062546730042">
			<ele>103.599998474121</ele>
			<time>2013-12-29T13:43:07Z</time>
		</trkpt>
		<trkpt lat="39.6071548461914" lon="2.65072917938232">
			<ele>103.400001525879</ele>
			<time>2013-12-29T13:43:09Z</time>
		</trkpt>
		<trkpt lat="39.6071853637695" lon="2.65083384513855">
			<ele>103.300003051758</ele>
			<time>2013-12-29T13:43:11Z</time>
		</trkpt>
		<trkpt lat="39.6072120666504" lon="2.65093994140625">
			<ele>103.300003051758</ele>
			<time>2013-12-29T13:43:13Z</time>
		</trkpt>
		<trkpt lat="39.6072387695313" lon="2.65104746818542">
			<ele>103.300003051758</ele>
			<time>2013-12-29T13:43:15Z</time>
		</trkpt>
		<trkpt lat="39.6072654724121" lon="2.65115666389465">
			<ele>103</ele>
			<time>2013-12-29T13:43:17Z</time>
		</trkpt>
		<trkpt lat="39.6072883605957" lon="2.65126824378967">
			<ele>102.699996948242</ele>
			<time>2013-12-29T13:43:19Z</time>
		</trkpt>
		<trkpt lat="39.6072998046875" lon="2.65132737159729">
			<ele>102.5</ele>
			<time>2013-12-29T13:43:20Z</time>
		</trkpt>
		<trkpt lat="39.6073112487793" lon="2.65138554573059">
			<ele>102.300003051758</ele>
			<time>2013-12-29T13:43:21Z</time>
		</trkpt>
		<trkpt lat="39.6073188781738" lon="2.6514458656311">
			<ele>102.199996948242</ele>
			<time>2013-12-29T13:43:22Z</time>
		</trkpt>
		<trkpt lat="39.6073303222656" lon="2.6515052318573">
			<ele>102.400001525879</ele>
			<time>2013-12-29T13:43:23Z</time>
		</trkpt>
		<trkpt lat="39.6073417663574" lon="2.65156579017639">
			<ele>102.300003051758</ele>
			<time>2013-12-29T13:43:24Z</time>
		</trkpt>
		<trkpt lat="39.607349395752" lon="2.6516273021698">
			<ele>102.199996948242</ele>
			<time>2013-12-29T13:43:25Z</time>
		</trkpt>
		<trkpt lat="39.6073608398438" lon="2.65169048309326">
			<ele>102.199996948242</ele>
			<time>2013-12-29T13:43:26Z</time>
		</trkpt>
		<trkpt lat="39.6073684692383" lon="2.65175604820251">
			<ele>102.099998474121</ele>
			<time>2013-12-29T13:43:27Z</time>
		</trkpt>
		<trkpt lat="39.6073760986328" lon="2.65181732177734">
			<ele>102.099998474121</ele>
			<time>2013-12-29T13:43:28Z</time>
		</trkpt>
		<trkpt lat="39.6073875427246" lon="2.65188384056091">
			<ele>101.800003051758</ele>
			<time>2013-12-29T13:43:29Z</time>
		</trkpt>
		<trkpt lat="39.6073989868164" lon="2.65194940567017">
			<ele>102</ele>
			<time>2013-12-29T13:43:30Z</time>
		</trkpt>
		<trkpt lat="39.6074066162109" lon="2.65201377868652">
			<ele>101.800003051758</ele>
			<time>2013-12-29T13:43:31Z</time>
		</trkpt>
		<trkpt lat="39.6074142456055" lon="2.65208172798157">
			<ele>101.699996948242</ele>
			<time>2013-12-29T13:43:32Z</time>
		</trkpt>
		<trkpt lat="39.607421875" lon="2.6521463394165">
			<ele>101.800003051758</ele>
			<time>2013-12-29T13:43:33Z</time>
		</trkpt>
		<trkpt lat="39.6074295043945" lon="2.65221524238586">
			<ele>101.699996948242</ele>
			<time>2013-12-29T13:43:34Z</time>
		</trkpt>
		<trkpt lat="39.6074371337891" lon="2.65228223800659">
			<ele>101.699996948242</ele>
			<time>2013-12-29T13:43:35Z</time>
		</trkpt>
		<trkpt lat="39.6074485778809" lon="2.65234756469727">
			<ele>101.599998474121</ele>
			<time>2013-12-29T13:43:36Z</time>
		</trkpt>
		<trkpt lat="39.6074638366699" lon="2.65241956710815">
			<ele>101.099998474121</ele>
			<time>2013-12-29T13:43:37Z</time>
		</trkpt>
		<trkpt lat="39.6074752807617" lon="2.65248608589172">
			<ele>101</ele>
			<time>2013-12-29T13:43:38Z</time>
		</trkpt>
		<trkpt lat="39.6074752807617" lon="2.65255904197693">
			<ele>101</ele>
			<time>2013-12-29T13:43:39Z</time>
		</trkpt>
		<trkpt lat="39.6074829101563" lon="2.65263223648071">
			<ele>100.699996948242</ele>
			<time>2013-12-29T13:43:40Z</time>
		</trkpt>
		<trkpt lat="39.607494354248" lon="2.65270185470581">
			<ele>100.300003051758</ele>
			<time>2013-12-29T13:43:41Z</time>
		</trkpt>
		<trkpt lat="39.6075057983398" lon="2.65277433395386">
			<ele>100.300003051758</ele>
			<time>2013-12-29T13:43:42Z</time>
		</trkpt>
		<trkpt lat="39.6075134277344" lon="2.65284967422485">
			<ele>100.5</ele>
			<time>2013-12-29T13:43:43Z</time>
		</trkpt>
		<trkpt lat="39.6075248718262" lon="2.65292191505432">
			<ele>100.699996948242</ele>
			<time>2013-12-29T13:43:44Z</time>
		</trkpt>
		<trkpt lat="39.6075325012207" lon="2.65299582481384">
			<ele>100.199996948242</ele>
			<time>2013-12-29T13:43:45Z</time>
		</trkpt>
		<trkpt lat="39.6075477600098" lon="2.65306115150452">
			<ele>100</ele>
			<time>2013-12-29T13:43:46Z</time>
		</trkpt>
		<trkpt lat="39.607551574707" lon="2.65313029289246">
			<ele>99.9000015258789</ele>
			<time>2013-12-29T13:43:47Z</time>
		</trkpt>
		<trkpt lat="39.607551574707" lon="2.65319967269897">
			<ele>99.4000015258789</ele>
			<time>2013-12-29T13:43:48Z</time>
		</trkpt>
		<trkpt lat="39.6075668334961" lon="2.65327024459839">
			<ele>99</ele>
			<time>2013-12-29T13:43:49Z</time>
		</trkpt>
		<trkpt lat="39.6075668334961" lon="2.65333604812622">
			<ele>99.4000015258789</ele>
			<time>2013-12-29T13:43:50Z</time>
		</trkpt>
		<trkpt lat="39.6075744628906" lon="2.65340256690979">
			<ele>99.4000015258789</ele>
			<time>2013-12-29T13:43:51Z</time>
		</trkpt>
		<trkpt lat="39.6075782775879" lon="2.65347385406494">
			<ele>99.4000015258789</ele>
			<time>2013-12-29T13:43:52Z</time>
		</trkpt>
		<trkpt lat="39.6075859069824" lon="2.6535496711731">
			<ele>99.1999969482422</ele>
			<time>2013-12-29T13:43:53Z</time>
		</trkpt>
		<trkpt lat="39.6075820922852" lon="2.65362119674683">
			<ele>99.5</ele>
			<time>2013-12-29T13:43:54Z</time>
		</trkpt>
		<trkpt lat="39.6075820922852" lon="2.65369367599487">
			<ele>99.4000015258789</ele>
			<time>2013-12-29T13:43:55Z</time>
		</trkpt>
		<trkpt lat="39.6075782775879" lon="2.65376496315002">
			<ele>99.4000015258789</ele>
			<time>2013-12-29T13:43:56Z</time>
		</trkpt>
		<trkpt lat="39.6075744628906" lon="2.65383577346802">
			<ele>99.1999969482422</ele>
			<time>2013-12-29T13:43:57Z</time>
		</trkpt>
		<trkpt lat="39.6075744628906" lon="2.65390968322754">
			<ele>99.1999969482422</ele>
			<time>2013-12-29T13:43:58Z</time>
		</trkpt>
		<trkpt lat="39.6075706481934" lon="2.65397977828979">
			<ele>99.4000015258789</ele>
			<time>2013-12-29T13:43:59Z</time>
		</trkpt>
		<trkpt lat="39.6075668334961" lon="2.65405011177063">
			<ele>99.3000030517578</ele>
			<time>2013-12-29T13:44:00Z</time>
		</trkpt>
		<trkpt lat="39.6075592041016" lon="2.65411782264709">
			<ele>99.5999984741211</ele>
			<time>2013-12-29T13:44:01Z</time>
		</trkpt>
		<trkpt lat="39.6075592041016" lon="2.65418195724487">
			<ele>99.5</ele>
			<time>2013-12-29T13:44:02Z</time>
		</trkpt>
		<trkpt lat="39.6075477600098" lon="2.65424084663391">
			<ele>99.5</ele>
			<time>2013-12-29T13:44:03Z</time>
		</trkpt>
		<trkpt lat="39.6075401306152" lon="2.65430903434753">
			<ele>99.0999984741211</ele>
			<time>2013-12-29T13:44:04Z</time>
		</trkpt>
		<trkpt lat="39.6075286865234" lon="2.65437507629395">
			<ele>99</ele>
			<time>2013-12-29T13:44:05Z</time>
		</trkpt>
		<trkpt lat="39.6075172424316" lon="2.65444087982178">
			<ele>99.0999984741211</ele>
			<time>2013-12-29T13:44:06Z</time>
		</trkpt>
		<trkpt lat="39.6075096130371" lon="2.65450239181519">
			<ele>99.4000015258789</ele>
			<time>2013-12-29T13:44:07Z</time>
		</trkpt>
		<trkpt lat="39.6075057983398" lon="2.65456342697144">
			<ele>99.5999984741211</ele>
			<time>2013-12-29T13:44:08Z</time>
		</trkpt>
		<trkpt lat="39.607494354248" lon="2.65462160110474">
			<ele>99.6999969482422</ele>
			<time>2013-12-29T13:44:09Z</time>
		</trkpt>
		<trkpt lat="39.6074981689453" lon="2.65473890304565">
			<ele>99.6999969482422</ele>
			<time>2013-12-29T13:44:11Z</time>
		</trkpt>
		<trkpt lat="39.6075019836426" lon="2.65483522415161">
			<ele>99.1999969482422</ele>
			<time>2013-12-29T13:44:13Z</time>
		</trkpt>
		<trkpt lat="39.6074829101563" lon="2.65492343902588">
			<ele>99.6999969482422</ele>
			<time>2013-12-29T13:44:15Z</time>
		</trkpt>
		<trkpt lat="39.6074371337891" lon="2.65498495101929">
			<ele>99.8000030517578</ele>
			<time>2013-12-29T13:44:17Z</time>
		</trkpt>
		<trkpt lat="39.6073875427246" lon="2.65502095222473">
			<ele>99.4000015258789</ele>
			<time>2013-12-29T13:44:18Z</time>
		</trkpt>
		<trkpt lat="39.6073303222656" lon="2.65508532524109">
			<ele>99.4000015258789</ele>
			<time>2013-12-29T13:44:21Z</time>
		</trkpt>
		<trkpt lat="39.6072731018066" lon="2.65517902374268">
			<ele>99.4000015258789</ele>
			<time>2013-12-29T13:44:23Z</time>
		</trkpt>
		<trkpt lat="39.607250213623" lon="2.65523552894592">
			<ele>99.4000015258789</ele>
			<time>2013-12-29T13:44:24Z</time>
		</trkpt>
		<trkpt lat="39.6072311401367" lon="2.65529084205627">
			<ele>99.5</ele>
			<time>2013-12-29T13:44:25Z</time>
		</trkpt>
		<trkpt lat="39.607234954834" lon="2.65535426139832">
			<ele>99.3000030517578</ele>
			<time>2013-12-29T13:44:26Z</time>
		</trkpt>
		<trkpt lat="39.6072425842285" lon="2.65541744232178">
			<ele>99.5999984741211</ele>
			<time>2013-12-29T13:44:27Z</time>
		</trkpt>
		<trkpt lat="39.6072463989258" lon="2.65547704696655">
			<ele>99.6999969482422</ele>
			<time>2013-12-29T13:44:28Z</time>
		</trkpt>
		<trkpt lat="39.6072807312012" lon="2.65553164482117">
			<ele>100</ele>
			<time>2013-12-29T13:44:29Z</time>
		</trkpt>
		<trkpt lat="39.6073036193848" lon="2.65559053421021">
			<ele>100.300003051758</ele>
			<time>2013-12-29T13:44:30Z</time>
		</trkpt>
		<trkpt lat="39.6073341369629" lon="2.65564560890198">
			<ele>100.400001525879</ele>
			<time>2013-12-29T13:44:31Z</time>
		</trkpt>
		<trkpt lat="39.6073608398438" lon="2.65570402145386">
			<ele>100.5</ele>
			<time>2013-12-29T13:44:32Z</time>
		</trkpt>
		<trkpt lat="39.6074028015137" lon="2.65575909614563">
			<ele>100.400001525879</ele>
			<time>2013-12-29T13:44:33Z</time>
		</trkpt>
		<trkpt lat="39.6074409484863" lon="2.65581059455872">
			<ele>100.099998474121</ele>
			<time>2013-12-29T13:44:34Z</time>
		</trkpt>
		<trkpt lat="39.6074714660645" lon="2.65585708618164">
			<ele>100.099998474121</ele>
			<time>2013-12-29T13:44:35Z</time>
		</trkpt>
		<trkpt lat="39.607494354248" lon="2.65591192245483">
			<ele>100</ele>
			<time>2013-12-29T13:44:36Z</time>
		</trkpt>
		<trkpt lat="39.6075325012207" lon="2.65596008300781">
			<ele>100</ele>
			<time>2013-12-29T13:44:37Z</time>
		</trkpt>
		<trkpt lat="39.6075592041016" lon="2.65602207183838">
			<ele>100</ele>
			<time>2013-12-29T13:44:38Z</time>
		</trkpt>
		<trkpt lat="39.6075859069824" lon="2.65608167648315">
			<ele>100.699996948242</ele>
			<time>2013-12-29T13:44:39Z</time>
		</trkpt>
		<trkpt lat="39.6076126098633" lon="2.65614008903503">
			<ele>100.800003051758</ele>
			<time>2013-12-29T13:44:40Z</time>
		</trkpt>
		<trkpt lat="39.6076354980469" lon="2.65619254112244">
			<ele>100.800003051758</ele>
			<time>2013-12-29T13:44:41Z</time>
		</trkpt>
		<trkpt lat="39.6076622009277" lon="2.65625309944153">
			<ele>100.699996948242</ele>
			<time>2013-12-29T13:44:42Z</time>
		</trkpt>
		<trkpt lat="39.6076812744141" lon="2.65631699562073">
			<ele>100.599998474121</ele>
			<time>2013-12-29T13:44:43Z</time>
		</trkpt>
		<trkpt lat="39.6077079772949" lon="2.65637874603271">
			<ele>100.199996948242</ele>
			<time>2013-12-29T13:44:44Z</time>
		</trkpt>
		<trkpt lat="39.607723236084" lon="2.65644264221191">
			<ele>100.300003051758</ele>
			<time>2013-12-29T13:44:45Z</time>
		</trkpt>
		<trkpt lat="39.6077308654785" lon="2.65651202201843">
			<ele>100.199996948242</ele>
			<time>2013-12-29T13:44:46Z</time>
		</trkpt>
		<trkpt lat="39.6077423095703" lon="2.65658044815063">
			<ele>100</ele>
			<time>2013-12-29T13:44:47Z</time>
		</trkpt>
		<trkpt lat="39.6077537536621" lon="2.65665125846863">
			<ele>99.9000015258789</ele>
			<time>2013-12-29T13:44:48Z</time>
		</trkpt>
		<trkpt lat="39.6077651977539" lon="2.65672016143799">
			<ele>99.8000030517578</ele>
			<time>2013-12-29T13:44:49Z</time>
		</trkpt>
		<trkpt lat="39.6077766418457" lon="2.65679311752319">
			<ele>99.5999984741211</ele>
			<time>2013-12-29T13:44:50Z</time>
		</trkpt>
		<trkpt lat="39.6077919006348" lon="2.65686440467834">
			<ele>99.5</ele>
			<time>2013-12-29T13:44:51Z</time>
		</trkpt>
		<trkpt lat="39.6077995300293" lon="2.65693879127502">
			<ele>99.4000015258789</ele>
			<time>2013-12-29T13:44:52Z</time>
		</trkpt>
		<trkpt lat="39.6078109741211" lon="2.65700554847717">
			<ele>99.9000015258789</ele>
			<time>2013-12-29T13:44:53Z</time>
		</trkpt>
		<trkpt lat="39.6078300476074" lon="2.65708446502686">
			<ele>99.6999969482422</ele>
			<time>2013-12-29T13:44:54Z</time>
		</trkpt>
		<trkpt lat="39.6078414916992" lon="2.6571524143219">
			<ele>99.5999984741211</ele>
			<time>2013-12-29T13:44:55Z</time>
		</trkpt>
		<trkpt lat="39.6078605651855" lon="2.65722417831421">
			<ele>99.6999969482422</ele>
			<time>2013-12-29T13:44:56Z</time>
		</trkpt>
		<trkpt lat="39.6078796386719" lon="2.65729355812073">
			<ele>99.8000030517578</ele>
			<time>2013-12-29T13:44:57Z</time>
		</trkpt>
		<trkpt lat="39.6078948974609" lon="2.65736246109009">
			<ele>99.5999984741211</ele>
			<time>2013-12-29T13:44:58Z</time>
		</trkpt>
		<trkpt lat="39.60791015625" lon="2.65743207931519">
			<ele>100</ele>
			<time>2013-12-29T13:44:59Z</time>
		</trkpt>
		<trkpt lat="39.6079330444336" lon="2.65749526023865">
			<ele>99.9000015258789</ele>
			<time>2013-12-29T13:45:00Z</time>
		</trkpt>
		<trkpt lat="39.6079559326172" lon="2.65755367279053">
			<ele>100.300003051758</ele>
			<time>2013-12-29T13:45:01Z</time>
		</trkpt>
		<trkpt lat="39.6079940795898" lon="2.65761876106262">
			<ele>100.300003051758</ele>
			<time>2013-12-29T13:45:02Z</time>
		</trkpt>
		<trkpt lat="39.6080169677734" lon="2.65767025947571">
			<ele>100.5</ele>
			<time>2013-12-29T13:45:03Z</time>
		</trkpt>
		<trkpt lat="39.6080436706543" lon="2.65772485733032">
			<ele>100.400001525879</ele>
			<time>2013-12-29T13:45:04Z</time>
		</trkpt>
		<trkpt lat="39.6080703735352" lon="2.65777659416199">
			<ele>100.599998474121</ele>
			<time>2013-12-29T13:45:05Z</time>
		</trkpt>
		<trkpt lat="39.6081008911133" lon="2.65782856941223">
			<ele>100.699996948242</ele>
			<time>2013-12-29T13:45:06Z</time>
		</trkpt>
		<trkpt lat="39.6081275939941" lon="2.65787887573242">
			<ele>100.699996948242</ele>
			<time>2013-12-29T13:45:07Z</time>
		</trkpt>
		<trkpt lat="39.6081771850586" lon="2.6579806804657">
			<ele>100.900001525879</ele>
			<time>2013-12-29T13:45:09Z</time>
		</trkpt>
		<trkpt lat="39.6082038879395" lon="2.65803074836731">
			<ele>101</ele>
			<time>2013-12-29T13:45:10Z</time>
		</trkpt>
		<trkpt lat="39.6082420349121" lon="2.65811991691589">
			<ele>100.800003051758</ele>
			<time>2013-12-29T13:45:12Z</time>
		</trkpt>
		<trkpt lat="39.608283996582" lon="2.65820837020874">
			<ele>101.400001525879</ele>
			<time>2013-12-29T13:45:14Z</time>
		</trkpt>
		<trkpt lat="39.6083297729492" lon="2.65829753875732">
			<ele>101.599998474121</ele>
			<time>2013-12-29T13:45:16Z</time>
		</trkpt>
		<trkpt lat="39.6083679199219" lon="2.65839171409607">
			<ele>101.5</ele>
			<time>2013-12-29T13:45:18Z</time>
		</trkpt>
		<trkpt lat="39.6084098815918" lon="2.65848159790039">
			<ele>102</ele>
			<time>2013-12-29T13:45:20Z</time>
		</trkpt>
		<trkpt lat="39.6084594726563" lon="2.65856170654297">
			<ele>101.900001525879</ele>
			<time>2013-12-29T13:45:22Z</time>
		</trkpt>
		<trkpt lat="39.6084976196289" lon="2.65864372253418">
			<ele>102</ele>
			<time>2013-12-29T13:45:24Z</time>
		</trkpt>
		<trkpt lat="39.6085319519043" lon="2.65871739387512">
			<ele>102.800003051758</ele>
			<time>2013-12-29T13:45:26Z</time>
		</trkpt>
		<trkpt lat="39.6085662841797" lon="2.65879154205322">
			<ele>103.099998474121</ele>
			<time>2013-12-29T13:45:28Z</time>
		</trkpt>
		<trkpt lat="39.6086006164551" lon="2.65886044502258">
			<ele>103</ele>
			<time>2013-12-29T13:45:30Z</time>
		</trkpt>
		<trkpt lat="39.6086311340332" lon="2.65892577171326">
			<ele>103.300003051758</ele>
			<time>2013-12-29T13:45:32Z</time>
		</trkpt>
		<trkpt lat="39.6086578369141" lon="2.65899205207825">
			<ele>103.5</ele>
			<time>2013-12-29T13:45:34Z</time>
		</trkpt>
		<trkpt lat="39.6086883544922" lon="2.65904927253723">
			<ele>104</ele>
			<time>2013-12-29T13:45:36Z</time>
		</trkpt>
		<trkpt lat="39.608715057373" lon="2.65910911560059">
			<ele>104</ele>
			<time>2013-12-29T13:45:38Z</time>
		</trkpt>
		<trkpt lat="39.6087379455566" lon="2.65916442871094">
			<ele>103.800003051758</ele>
			<time>2013-12-29T13:45:40Z</time>
		</trkpt>
		<trkpt lat="39.6087646484375" lon="2.65922403335571">
			<ele>103.800003051758</ele>
			<time>2013-12-29T13:45:42Z</time>
		</trkpt>
		<trkpt lat="39.6087951660156" lon="2.65927720069885">
			<ele>104.300003051758</ele>
			<time>2013-12-29T13:45:44Z</time>
		</trkpt>
		<trkpt lat="39.6088180541992" lon="2.65933322906494">
			<ele>104.5</ele>
			<time>2013-12-29T13:45:46Z</time>
		</trkpt>
		<trkpt lat="39.6088485717773" lon="2.6593930721283">
			<ele>104.699996948242</ele>
			<time>2013-12-29T13:45:48Z</time>
		</trkpt>
		<trkpt lat="39.6088714599609" lon="2.65945386886597">
			<ele>104.699996948242</ele>
			<time>2013-12-29T13:45:50Z</time>
		</trkpt>
		<trkpt lat="39.6089019775391" lon="2.65951299667358">
			<ele>105</ele>
			<time>2013-12-29T13:45:52Z</time>
		</trkpt>
		<trkpt lat="39.6089286804199" lon="2.65957474708557">
			<ele>105</ele>
			<time>2013-12-29T13:45:54Z</time>
		</trkpt>
		<trkpt lat="39.608959197998" lon="2.65963244438171">
			<ele>105.199996948242</ele>
			<time>2013-12-29T13:45:56Z</time>
		</trkpt>
		<trkpt lat="39.6089859008789" lon="2.65969133377075">
			<ele>105.099998474121</ele>
			<time>2013-12-29T13:45:58Z</time>
		</trkpt>
		<trkpt lat="39.6090240478516" lon="2.65976595878601">
			<ele>104.699996948242</ele>
			<time>2013-12-29T13:46:00Z</time>
		</trkpt>
		<trkpt lat="39.6090393066406" lon="2.65982484817505">
			<ele>104.900001525879</ele>
			<time>2013-12-29T13:46:13Z</time>
		</trkpt>
		<trkpt lat="39.6090812683105" lon="2.65985774993896">
			<ele>104.199996948242</ele>
			<time>2013-12-29T13:50:39Z</time>
		</trkpt>
		<trkpt lat="39.6091194152832" lon="2.65994381904602">
			<ele>103.599998474121</ele>
			<time>2013-12-29T13:50:44Z</time>
		</trkpt>
		<trkpt lat="39.6091461181641" lon="2.66000914573669">
			<ele>103.5</ele>
			<time>2013-12-29T13:50:46Z</time>
		</trkpt>
		<trkpt lat="39.6091766357422" lon="2.66008377075195">
			<ele>103</ele>
			<time>2013-12-29T13:50:48Z</time>
		</trkpt>
		<trkpt lat="39.6092185974121" lon="2.6601619720459">
			<ele>102.699996948242</ele>
			<time>2013-12-29T13:50:50Z</time>
		</trkpt>
		<trkpt lat="39.609260559082" lon="2.66024684906006">
			<ele>102</ele>
			<time>2013-12-29T13:50:52Z</time>
		</trkpt>
		<trkpt lat="39.609302520752" lon="2.66034412384033">
			<ele>101.300003051758</ele>
			<time>2013-12-29T13:50:54Z</time>
		</trkpt>
		<trkpt lat="39.6093292236328" lon="2.66039824485779">
			<ele>100.800003051758</ele>
			<time>2013-12-29T13:50:55Z</time>
		</trkpt>
		<trkpt lat="39.6093521118164" lon="2.66045618057251">
			<ele>100.400001525879</ele>
			<time>2013-12-29T13:50:56Z</time>
		</trkpt>
		<trkpt lat="39.6093826293945" lon="2.66051173210144">
			<ele>100</ele>
			<time>2013-12-29T13:50:57Z</time>
		</trkpt>
		<trkpt lat="39.6094131469727" lon="2.66056966781616">
			<ele>99.5999984741211</ele>
			<time>2013-12-29T13:50:58Z</time>
		</trkpt>
		<trkpt lat="39.609447479248" lon="2.6606330871582">
			<ele>99.1999969482422</ele>
			<time>2013-12-29T13:50:59Z</time>
		</trkpt>
		<trkpt lat="39.6094779968262" lon="2.66070246696472">
			<ele>98.5</ele>
			<time>2013-12-29T13:51:00Z</time>
		</trkpt>
		<trkpt lat="39.6095123291016" lon="2.66077303886414">
			<ele>98.0999984741211</ele>
			<time>2013-12-29T13:51:01Z</time>
		</trkpt>
		<trkpt lat="39.6095428466797" lon="2.66084265708923">
			<ele>97.9000015258789</ele>
			<time>2013-12-29T13:51:02Z</time>
		</trkpt>
		<trkpt lat="39.6095657348633" lon="2.66091299057007">
			<ele>97.9000015258789</ele>
			<time>2013-12-29T13:51:03Z</time>
		</trkpt>
		<trkpt lat="39.6096115112305" lon="2.66099214553833">
			<ele>97.5</ele>
			<time>2013-12-29T13:51:04Z</time>
		</trkpt>
		<trkpt lat="39.6096420288086" lon="2.66106033325195">
			<ele>97.1999969482422</ele>
			<time>2013-12-29T13:51:05Z</time>
		</trkpt>
		<trkpt lat="39.6096725463867" lon="2.66113328933716">
			<ele>96.6999969482422</ele>
			<time>2013-12-29T13:51:06Z</time>
		</trkpt>
		<trkpt lat="39.6096954345703" lon="2.66121339797974">
			<ele>96.0999984741211</ele>
			<time>2013-12-29T13:51:07Z</time>
		</trkpt>
		<trkpt lat="39.6097145080566" lon="2.66129589080811">
			<ele>95.5999984741211</ele>
			<time>2013-12-29T13:51:08Z</time>
		</trkpt>
		<trkpt lat="39.6097450256348" lon="2.6613781452179">
			<ele>95.5</ele>
			<time>2013-12-29T13:51:09Z</time>
		</trkpt>
		<trkpt lat="39.6097869873047" lon="2.6614453792572">
			<ele>95.3000030517578</ele>
			<time>2013-12-29T13:51:10Z</time>
		</trkpt>
		<trkpt lat="39.6098289489746" lon="2.66150307655334">
			<ele>95.1999969482422</ele>
			<time>2013-12-29T13:51:11Z</time>
		</trkpt>
		<trkpt lat="39.60986328125" lon="2.66156125068665">
			<ele>95.4000015258789</ele>
			<time>2013-12-29T13:51:12Z</time>
		</trkpt>
		<trkpt lat="39.6098937988281" lon="2.66161942481995">
			<ele>95.3000030517578</ele>
			<time>2013-12-29T13:51:13Z</time>
		</trkpt>
		<trkpt lat="39.609920501709" lon="2.66167831420898">
			<ele>95.3000030517578</ele>
			<time>2013-12-29T13:51:14Z</time>
		</trkpt>
		<trkpt lat="39.6099433898926" lon="2.66173720359802">
			<ele>95</ele>
			<time>2013-12-29T13:51:15Z</time>
		</trkpt>
		<trkpt lat="39.6099624633789" lon="2.66179823875427">
			<ele>95.1999969482422</ele>
			<time>2013-12-29T13:51:16Z</time>
		</trkpt>
		<trkpt lat="39.6099853515625" lon="2.66185665130615">
			<ele>95.1999969482422</ele>
			<time>2013-12-29T13:51:17Z</time>
		</trkpt>
		<trkpt lat="39.6100082397461" lon="2.66191697120667">
			<ele>95.3000030517578</ele>
			<time>2013-12-29T13:51:18Z</time>
		</trkpt>
		<trkpt lat="39.6100234985352" lon="2.66197538375854">
			<ele>94.5</ele>
			<time>2013-12-29T13:51:19Z</time>
		</trkpt>
		<trkpt lat="39.6100425720215" lon="2.66203308105469">
			<ele>94.9000015258789</ele>
			<time>2013-12-29T13:51:20Z</time>
		</trkpt>
		<trkpt lat="39.6100616455078" lon="2.6620888710022">
			<ele>95.5</ele>
			<time>2013-12-29T13:51:21Z</time>
		</trkpt>
		<trkpt lat="39.6100807189941" lon="2.66214799880981">
			<ele>96</ele>
			<time>2013-12-29T13:51:22Z</time>
		</trkpt>
		<trkpt lat="39.6101226806641" lon="2.6622109413147">
			<ele>96.3000030517578</ele>
			<time>2013-12-29T13:51:23Z</time>
		</trkpt>
		<trkpt lat="39.6101608276367" lon="2.66231441497803">
			<ele>95.1999969482422</ele>
			<time>2013-12-29T13:51:25Z</time>
		</trkpt>
		<trkpt lat="39.6101875305176" lon="2.66236662864685">
			<ele>95.0999984741211</ele>
			<time>2013-12-29T13:51:26Z</time>
		</trkpt>
		<trkpt lat="39.6102104187012" lon="2.66241908073425">
			<ele>95.4000015258789</ele>
			<time>2013-12-29T13:51:27Z</time>
		</trkpt>
		<trkpt lat="39.610237121582" lon="2.66247391700745">
			<ele>95.0999984741211</ele>
			<time>2013-12-29T13:51:28Z</time>
		</trkpt>
		<trkpt lat="39.6102828979492" lon="2.6625759601593">
			<ele>96.3000030517578</ele>
			<time>2013-12-29T13:51:30Z</time>
		</trkpt>
		<trkpt lat="39.6103057861328" lon="2.66262865066528">
			<ele>96.4000015258789</ele>
			<time>2013-12-29T13:51:31Z</time>
		</trkpt>
		<trkpt lat="39.6103477478027" lon="2.66273975372314">
			<ele>97.4000015258789</ele>
			<time>2013-12-29T13:51:33Z</time>
		</trkpt>
		<trkpt lat="39.6103668212891" lon="2.66279554367065">
			<ele>97.4000015258789</ele>
			<time>2013-12-29T13:51:34Z</time>
		</trkpt>
		<trkpt lat="39.6103973388672" lon="2.66284680366516">
			<ele>97.5</ele>
			<time>2013-12-29T13:51:35Z</time>
		</trkpt>
		<trkpt lat="39.6104202270508" lon="2.66289925575256">
			<ele>98</ele>
			<time>2013-12-29T13:51:36Z</time>
		</trkpt>
		<trkpt lat="39.6104583740234" lon="2.66295480728149">
			<ele>98.8000030517578</ele>
			<time>2013-12-29T13:51:37Z</time>
		</trkpt>
		<trkpt lat="39.6105003356934" lon="2.6630482673645">
			<ele>101.199996948242</ele>
			<time>2013-12-29T13:51:39Z</time>
		</trkpt>
		<trkpt lat="39.6105270385742" lon="2.6631338596344">
			<ele>100.900001525879</ele>
			<time>2013-12-29T13:51:41Z</time>
		</trkpt>
		<trkpt lat="39.6105613708496" lon="2.66322326660156">
			<ele>100</ele>
			<time>2013-12-29T13:51:43Z</time>
		</trkpt>
		<trkpt lat="39.6106071472168" lon="2.6633141040802">
			<ele>100.599998474121</ele>
			<time>2013-12-29T13:51:45Z</time>
		</trkpt>
		<trkpt lat="39.6106491088867" lon="2.66340255737305">
			<ele>100.699996948242</ele>
			<time>2013-12-29T13:51:47Z</time>
		</trkpt>
		<trkpt lat="39.6106796264648" lon="2.66348099708557">
			<ele>101</ele>
			<time>2013-12-29T13:51:49Z</time>
		</trkpt>
		<trkpt lat="39.6107025146484" lon="2.66355133056641">
			<ele>101</ele>
			<time>2013-12-29T13:51:51Z</time>
		</trkpt>
		<trkpt lat="39.6107330322266" lon="2.66362762451172">
			<ele>101.300003051758</ele>
			<time>2013-12-29T13:51:53Z</time>
		</trkpt>
		<trkpt lat="39.6107635498047" lon="2.6637065410614">
			<ele>101.599998474121</ele>
			<time>2013-12-29T13:51:55Z</time>
		</trkpt>
		<trkpt lat="39.6107902526855" lon="2.66377902030945">
			<ele>102.199996948242</ele>
			<time>2013-12-29T13:51:57Z</time>
		</trkpt>
		<trkpt lat="39.6108245849609" lon="2.6638457775116">
			<ele>102.199996948242</ele>
			<time>2013-12-29T13:51:59Z</time>
		</trkpt>
		<trkpt lat="39.6108589172363" lon="2.66392421722412">
			<ele>103</ele>
			<time>2013-12-29T13:52:01Z</time>
		</trkpt>
		<trkpt lat="39.6108932495117" lon="2.66398954391479">
			<ele>104</ele>
			<time>2013-12-29T13:52:03Z</time>
		</trkpt>
		<trkpt lat="39.6108512878418" lon="2.66394257545471">
			<ele>103.5</ele>
			<time>2013-12-29T13:52:05Z</time>
		</trkpt>
		<trkpt lat="39.6108360290527" lon="2.66388010978699">
			<ele>100.699996948242</ele>
			<time>2013-12-29T13:52:09Z</time>
		</trkpt>
		<trkpt lat="39.6108016967773" lon="2.66383743286133">
			<ele>98.0999984741211</ele>
			<time>2013-12-29T13:52:14Z</time>
		</trkpt>
		<trkpt lat="39.6108551025391" lon="2.66385746002197">
			<ele>97.3000030517578</ele>
			<time>2013-12-29T13:52:22Z</time>
		</trkpt>
		<trkpt lat="39.6108741760254" lon="2.66391658782959">
			<ele>97</ele>
			<time>2013-12-29T13:52:24Z</time>
		</trkpt>
		<trkpt lat="39.6108856201172" lon="2.66398787498474">
			<ele>98.0999984741211</ele>
			<time>2013-12-29T13:52:26Z</time>
		</trkpt>
		<trkpt lat="39.6109199523926" lon="2.66405487060547">
			<ele>98.5999984741211</ele>
			<time>2013-12-29T13:52:28Z</time>
		</trkpt>
		<trkpt lat="39.6109466552734" lon="2.6641161441803">
			<ele>98.6999969482422</ele>
			<time>2013-12-29T13:52:30Z</time>
		</trkpt>
		<trkpt lat="39.6109733581543" lon="2.6641960144043">
			<ele>98.9000015258789</ele>
			<time>2013-12-29T13:52:32Z</time>
		</trkpt>
		<trkpt lat="39.6109962463379" lon="2.66425752639771">
			<ele>98.5999984741211</ele>
			<time>2013-12-29T13:52:35Z</time>
		</trkpt>
		<trkpt lat="39.611026763916" lon="2.66432881355286">
			<ele>98.9000015258789</ele>
			<time>2013-12-29T13:52:37Z</time>
		</trkpt>
		<trkpt lat="39.6110534667969" lon="2.66441464424133">
			<ele>99</ele>
			<time>2013-12-29T13:52:39Z</time>
		</trkpt>
		<trkpt lat="39.6110877990723" lon="2.66446328163147">
			<ele>99.3000030517578</ele>
			<time>2013-12-29T13:52:40Z</time>
		</trkpt>
		<trkpt lat="39.6111145019531" lon="2.66455101966858">
			<ele>99.0999984741211</ele>
			<time>2013-12-29T13:52:42Z</time>
		</trkpt>
		<trkpt lat="39.6111526489258" lon="2.66463804244995">
			<ele>99.5</ele>
			<time>2013-12-29T13:52:44Z</time>
		</trkpt>
		<trkpt lat="39.611198425293" lon="2.6647047996521">
			<ele>99.4000015258789</ele>
			<time>2013-12-29T13:52:46Z</time>
		</trkpt>
		<trkpt lat="39.6112518310547" lon="2.66477203369141">
			<ele>98.6999969482422</ele>
			<time>2013-12-29T13:52:48Z</time>
		</trkpt>
		<trkpt lat="39.6112937927246" lon="2.66484785079956">
			<ele>98.4000015258789</ele>
			<time>2013-12-29T13:52:50Z</time>
		</trkpt>
		<trkpt lat="39.6113395690918" lon="2.66492462158203">
			<ele>98</ele>
			<time>2013-12-29T13:52:52Z</time>
		</trkpt>
		<trkpt lat="39.6113815307617" lon="2.66499495506287">
			<ele>98.4000015258789</ele>
			<time>2013-12-29T13:52:54Z</time>
		</trkpt>
		<trkpt lat="39.6114196777344" lon="2.66507148742676">
			<ele>98.6999969482422</ele>
			<time>2013-12-29T13:52:56Z</time>
		</trkpt>
		<trkpt lat="39.6114616394043" lon="2.66515135765076">
			<ele>98.5</ele>
			<time>2013-12-29T13:52:58Z</time>
		</trkpt>
		<trkpt lat="39.6115036010742" lon="2.66522717475891">
			<ele>98.4000015258789</ele>
			<time>2013-12-29T13:53:00Z</time>
		</trkpt>
		<trkpt lat="39.6115455627441" lon="2.66530418395996">
			<ele>97.6999969482422</ele>
			<time>2013-12-29T13:53:02Z</time>
		</trkpt>
		<trkpt lat="39.6115798950195" lon="2.66537857055664">
			<ele>97.5</ele>
			<time>2013-12-29T13:53:04Z</time>
		</trkpt>
		<trkpt lat="39.6116218566895" lon="2.66545248031616">
			<ele>96.5999984741211</ele>
			<time>2013-12-29T13:53:06Z</time>
		</trkpt>
		<trkpt lat="39.6116561889648" lon="2.66552352905273">
			<ele>96.1999969482422</ele>
			<time>2013-12-29T13:53:08Z</time>
		</trkpt>
		<trkpt lat="39.6116981506348" lon="2.66559672355652">
			<ele>96.6999969482422</ele>
			<time>2013-12-29T13:53:10Z</time>
		</trkpt>
		<trkpt lat="39.6117668151855" lon="2.6656768321991">
			<ele>97.0999984741211</ele>
			<time>2013-12-29T13:53:12Z</time>
		</trkpt>
		<trkpt lat="39.6118011474609" lon="2.66571879386902">
			<ele>96.9000015258789</ele>
			<time>2013-12-29T13:53:13Z</time>
		</trkpt>
		<trkpt lat="39.6118240356445" lon="2.66579604148865">
			<ele>97.3000030517578</ele>
			<time>2013-12-29T13:53:15Z</time>
		</trkpt>
		<trkpt lat="39.6118583679199" lon="2.66587448120117">
			<ele>98.3000030517578</ele>
			<time>2013-12-29T13:53:17Z</time>
		</trkpt>
		<trkpt lat="39.6118850708008" lon="2.6659517288208">
			<ele>99.6999969482422</ele>
			<time>2013-12-29T13:53:19Z</time>
		</trkpt>
		<trkpt lat="39.6119155883789" lon="2.66602468490601">
			<ele>99.9000015258789</ele>
			<time>2013-12-29T13:53:21Z</time>
		</trkpt>
		<trkpt lat="39.6119499206543" lon="2.66609215736389">
			<ele>100.699996948242</ele>
			<time>2013-12-29T13:53:23Z</time>
		</trkpt>
		<trkpt lat="39.6119804382324" lon="2.66616487503052">
			<ele>101.099998474121</ele>
			<time>2013-12-29T13:53:25Z</time>
		</trkpt>
		<trkpt lat="39.6120109558105" lon="2.66623449325562">
			<ele>100.599998474121</ele>
			<time>2013-12-29T13:53:27Z</time>
		</trkpt>
		<trkpt lat="39.6120491027832" lon="2.66631436347961">
			<ele>100.800003051758</ele>
			<time>2013-12-29T13:53:29Z</time>
		</trkpt>
		<trkpt lat="39.6120910644531" lon="2.66639351844788">
			<ele>100.800003051758</ele>
			<time>2013-12-29T13:53:31Z</time>
		</trkpt>
		<trkpt lat="39.6121292114258" lon="2.66647434234619">
			<ele>101</ele>
			<time>2013-12-29T13:53:33Z</time>
		</trkpt>
		<trkpt lat="39.612174987793" lon="2.66655325889587">
			<ele>101.599998474121</ele>
			<time>2013-12-29T13:53:35Z</time>
		</trkpt>
		<trkpt lat="39.6122169494629" lon="2.66662931442261">
			<ele>101.5</ele>
			<time>2013-12-29T13:53:37Z</time>
		</trkpt>
		<trkpt lat="39.6122512817383" lon="2.66671228408813">
			<ele>100.800003051758</ele>
			<time>2013-12-29T13:53:39Z</time>
		</trkpt>
		<trkpt lat="39.6122932434082" lon="2.66679072380066">
			<ele>101.300003051758</ele>
			<time>2013-12-29T13:53:41Z</time>
		</trkpt>
		<trkpt lat="39.6123352050781" lon="2.66686749458313">
			<ele>101.400001525879</ele>
			<time>2013-12-29T13:53:43Z</time>
		</trkpt>
		<trkpt lat="39.612377166748" lon="2.66694784164429">
			<ele>101.699996948242</ele>
			<time>2013-12-29T13:53:45Z</time>
		</trkpt>
		<trkpt lat="39.612419128418" lon="2.6670286655426">
			<ele>102.199996948242</ele>
			<time>2013-12-29T13:53:47Z</time>
		</trkpt>
		<trkpt lat="39.6124572753906" lon="2.66710638999939">
			<ele>101.599998474121</ele>
			<time>2013-12-29T13:53:49Z</time>
		</trkpt>
		<trkpt lat="39.6124992370605" lon="2.66718220710754">
			<ele>101.199996948242</ele>
			<time>2013-12-29T13:53:51Z</time>
		</trkpt>
		<trkpt lat="39.6125450134277" lon="2.66725778579712">
			<ele>101</ele>
			<time>2013-12-29T13:53:53Z</time>
		</trkpt>
		<trkpt lat="39.6125831604004" lon="2.66733169555664">
			<ele>100.800003051758</ele>
			<time>2013-12-29T13:53:55Z</time>
		</trkpt>
		<trkpt lat="39.612621307373" lon="2.66740322113037">
			<ele>101</ele>
			<time>2013-12-29T13:53:57Z</time>
		</trkpt>
		<trkpt lat="39.612663269043" lon="2.66747641563416">
			<ele>101.400001525879</ele>
			<time>2013-12-29T13:53:59Z</time>
		</trkpt>
		<trkpt lat="39.6127052307129" lon="2.66755175590515">
			<ele>101.099998474121</ele>
			<time>2013-12-29T13:54:01Z</time>
		</trkpt>
		<trkpt lat="39.6127433776855" lon="2.66762447357178">
			<ele>101.199996948242</ele>
			<time>2013-12-29T13:54:03Z</time>
		</trkpt>
		<trkpt lat="39.6127891540527" lon="2.66769909858704">
			<ele>101.300003051758</ele>
			<time>2013-12-29T13:54:05Z</time>
		</trkpt>
		<trkpt lat="39.6128311157227" lon="2.66777276992798">
			<ele>101.099998474121</ele>
			<time>2013-12-29T13:54:07Z</time>
		</trkpt>
		<trkpt lat="39.6128692626953" lon="2.66784286499023">
			<ele>101.599998474121</ele>
			<time>2013-12-29T13:54:09Z</time>
		</trkpt>
		<trkpt lat="39.612907409668" lon="2.66790723800659">
			<ele>101.300003051758</ele>
			<time>2013-12-29T13:54:11Z</time>
		</trkpt>
		<trkpt lat="39.6129570007324" lon="2.66797542572021">
			<ele>101.699996948242</ele>
			<time>2013-12-29T13:54:13Z</time>
		</trkpt>
		<trkpt lat="39.6129913330078" lon="2.66805768013">
			<ele>101.199996948242</ele>
			<time>2013-12-29T13:54:15Z</time>
		</trkpt>
		<trkpt lat="39.6130256652832" lon="2.66812658309937">
			<ele>100.5</ele>
			<time>2013-12-29T13:54:17Z</time>
		</trkpt>
		<trkpt lat="39.6130676269531" lon="2.66819548606873">
			<ele>100.199996948242</ele>
			<time>2013-12-29T13:54:19Z</time>
		</trkpt>
		<trkpt lat="39.6130599975586" lon="2.66826510429382">
			<ele>99.5</ele>
			<time>2013-12-29T13:54:20Z</time>
		</trkpt>
		<trkpt lat="39.6130218505859" lon="2.66833901405334">
			<ele>99.3000030517578</ele>
			<time>2013-12-29T13:54:23Z</time>
		</trkpt>
		<trkpt lat="39.612964630127" lon="2.66839933395386">
			<ele>99.0999984741211</ele>
			<time>2013-12-29T13:54:25Z</time>
		</trkpt>
		<trkpt lat="39.6128997802734" lon="2.66845941543579">
			<ele>99.1999969482422</ele>
			<time>2013-12-29T13:54:27Z</time>
		</trkpt>
		<trkpt lat="39.6128387451172" lon="2.66852355003357">
			<ele>99.1999969482422</ele>
			<time>2013-12-29T13:54:29Z</time>
		</trkpt>
		<trkpt lat="39.6127853393555" lon="2.6685836315155">
			<ele>96.9000015258789</ele>
			<time>2013-12-29T13:54:31Z</time>
		</trkpt>
		<trkpt lat="39.6127281188965" lon="2.66865348815918">
			<ele>96.6999969482422</ele>
			<time>2013-12-29T13:54:33Z</time>
		</trkpt>
		<trkpt lat="39.612663269043" lon="2.6687159538269">
			<ele>96.4000015258789</ele>
			<time>2013-12-29T13:54:35Z</time>
		</trkpt>
		<trkpt lat="39.6126022338867" lon="2.66878652572632">
			<ele>96.3000030517578</ele>
			<time>2013-12-29T13:54:37Z</time>
		</trkpt>
		<trkpt lat="39.6125373840332" lon="2.66885495185852">
			<ele>95.9000015258789</ele>
			<time>2013-12-29T13:54:38Z</time>
		</trkpt>
		<trkpt lat="39.6124725341797" lon="2.6689236164093">
			<ele>95.5999984741211</ele>
			<time>2013-12-29T13:54:41Z</time>
		</trkpt>
		<trkpt lat="39.6124114990234" lon="2.66899800300598">
			<ele>95.3000030517578</ele>
			<time>2013-12-29T13:54:42Z</time>
		</trkpt>
		<trkpt lat="39.6123466491699" lon="2.66906881332397">
			<ele>95.5999984741211</ele>
			<time>2013-12-29T13:54:44Z</time>
		</trkpt>
		<trkpt lat="39.6122779846191" lon="2.66913366317749">
			<ele>95.8000030517578</ele>
			<time>2013-12-29T13:54:46Z</time>
		</trkpt>
		<trkpt lat="39.6122398376465" lon="2.66917204856873">
			<ele>95.9000015258789</ele>
			<time>2013-12-29T13:54:47Z</time>
		</trkpt>
		<trkpt lat="39.6121711730957" lon="2.66924381256104">
			<ele>95.5999984741211</ele>
			<time>2013-12-29T13:54:49Z</time>
		</trkpt>
		<trkpt lat="39.6121063232422" lon="2.66931986808777">
			<ele>95.6999969482422</ele>
			<time>2013-12-29T13:54:51Z</time>
		</trkpt>
		<trkpt lat="39.6120719909668" lon="2.66936326026917">
			<ele>96.0999984741211</ele>
			<time>2013-12-29T13:54:52Z</time>
		</trkpt>
		<trkpt lat="39.6120338439941" lon="2.66940069198608">
			<ele>96.1999969482422</ele>
			<time>2013-12-29T13:54:53Z</time>
		</trkpt>
		<trkpt lat="39.6119956970215" lon="2.66944313049316">
			<ele>96.3000030517578</ele>
			<time>2013-12-29T13:54:54Z</time>
		</trkpt>
		<trkpt lat="39.6119613647461" lon="2.66948318481445">
			<ele>96.1999969482422</ele>
			<time>2013-12-29T13:54:55Z</time>
		</trkpt>
		<trkpt lat="39.6119232177734" lon="2.66952204704285">
			<ele>96.3000030517578</ele>
			<time>2013-12-29T13:54:56Z</time>
		</trkpt>
		<trkpt lat="39.6118507385254" lon="2.66959643363953">
			<ele>96.0999984741211</ele>
			<time>2013-12-29T13:54:58Z</time>
		</trkpt>
		<trkpt lat="39.6118087768555" lon="2.66963362693787">
			<ele>95.8000030517578</ele>
			<time>2013-12-29T13:54:59Z</time>
		</trkpt>
		<trkpt lat="39.6117706298828" lon="2.66967368125916">
			<ele>96</ele>
			<time>2013-12-29T13:55:00Z</time>
		</trkpt>
		<trkpt lat="39.6117362976074" lon="2.66971325874329">
			<ele>96</ele>
			<time>2013-12-29T13:55:01Z</time>
		</trkpt>
		<trkpt lat="39.6116981506348" lon="2.66975069046021">
			<ele>96.3000030517578</ele>
			<time>2013-12-29T13:55:02Z</time>
		</trkpt>
		<trkpt lat="39.611629486084" lon="2.66981554031372">
			<ele>96.0999984741211</ele>
			<time>2013-12-29T13:55:04Z</time>
		</trkpt>
		<trkpt lat="39.6115875244141" lon="2.66984915733337">
			<ele>96</ele>
			<time>2013-12-29T13:55:05Z</time>
		</trkpt>
		<trkpt lat="39.611515045166" lon="2.66990876197815">
			<ele>95.0999984741211</ele>
			<time>2013-12-29T13:55:08Z</time>
		</trkpt>
		<trkpt lat="39.6114807128906" lon="2.6699423789978">
			<ele>95.8000030517578</ele>
			<time>2013-12-29T13:55:09Z</time>
		</trkpt>
		<trkpt lat="39.6114387512207" lon="2.66997218132019">
			<ele>96</ele>
			<time>2013-12-29T13:55:09Z</time>
		</trkpt>
		<trkpt lat="39.6113700866699" lon="2.67003321647644">
			<ele>95.5999984741211</ele>
			<time>2013-12-29T13:55:12Z</time>
		</trkpt>
		<trkpt lat="39.6113014221191" lon="2.67009472846985">
			<ele>95.9000015258789</ele>
			<time>2013-12-29T13:55:14Z</time>
		</trkpt>
		<trkpt lat="39.6112289428711" lon="2.67016077041626">
			<ele>95.8000030517578</ele>
			<time>2013-12-29T13:55:16Z</time>
		</trkpt>
		<trkpt lat="39.6111602783203" lon="2.67023348808289">
			<ele>95.8000030517578</ele>
			<time>2013-12-29T13:55:18Z</time>
		</trkpt>
		<trkpt lat="39.6111221313477" lon="2.67026901245117">
			<ele>95.8000030517578</ele>
			<time>2013-12-29T13:55:19Z</time>
		</trkpt>
		<trkpt lat="39.6110496520996" lon="2.67033767700195">
			<ele>95.5999984741211</ele>
			<time>2013-12-29T13:55:21Z</time>
		</trkpt>
		<trkpt lat="39.6109771728516" lon="2.67040181159973">
			<ele>95.1999969482422</ele>
			<time>2013-12-29T13:55:23Z</time>
		</trkpt>
		<trkpt lat="39.6109046936035" lon="2.67045903205872">
			<ele>95.0999984741211</ele>
			<time>2013-12-29T13:55:25Z</time>
		</trkpt>
		<trkpt lat="39.6108665466309" lon="2.67049193382263">
			<ele>95.3000030517578</ele>
			<time>2013-12-29T13:55:26Z</time>
		</trkpt>
		<trkpt lat="39.6108322143555" lon="2.67052841186523">
			<ele>95.3000030517578</ele>
			<time>2013-12-29T13:55:27Z</time>
		</trkpt>
		<trkpt lat="39.6107940673828" lon="2.6705641746521">
			<ele>95.3000030517578</ele>
			<time>2013-12-29T13:55:28Z</time>
		</trkpt>
		<trkpt lat="39.6107521057129" lon="2.67059373855591">
			<ele>95</ele>
			<time>2013-12-29T13:55:29Z</time>
		</trkpt>
		<trkpt lat="39.6107139587402" lon="2.67062520980835">
			<ele>95</ele>
			<time>2013-12-29T13:55:30Z</time>
		</trkpt>
		<trkpt lat="39.6106758117676" lon="2.67066168785095">
			<ele>94.8000030517578</ele>
			<time>2013-12-29T13:55:31Z</time>
		</trkpt>
		<trkpt lat="39.6106338500977" lon="2.67069053649902">
			<ele>94.6999969482422</ele>
			<time>2013-12-29T13:55:32Z</time>
		</trkpt>
		<trkpt lat="39.6105575561523" lon="2.67075443267822">
			<ele>94.5999984741211</ele>
			<time>2013-12-29T13:55:34Z</time>
		</trkpt>
		<trkpt lat="39.6105194091797" lon="2.67079448699951">
			<ele>94.5</ele>
			<time>2013-12-29T13:55:35Z</time>
		</trkpt>
		<trkpt lat="39.610481262207" lon="2.67082786560059">
			<ele>94.5</ele>
			<time>2013-12-29T13:55:36Z</time>
		</trkpt>
		<trkpt lat="39.6104431152344" lon="2.67086100578308">
			<ele>94.3000030517578</ele>
			<time>2013-12-29T13:55:37Z</time>
		</trkpt>
		<trkpt lat="39.6103668212891" lon="2.67092084884644">
			<ele>93.0999984741211</ele>
			<time>2013-12-29T13:55:39Z</time>
		</trkpt>
		<trkpt lat="39.6103248596191" lon="2.67095804214478">
			<ele>94.1999969482422</ele>
			<time>2013-12-29T13:55:40Z</time>
		</trkpt>
		<trkpt lat="39.6102828979492" lon="2.6709942817688">
			<ele>94.9000015258789</ele>
			<time>2013-12-29T13:55:41Z</time>
		</trkpt>
		<trkpt lat="39.610237121582" lon="2.67103505134583">
			<ele>95.1999969482422</ele>
			<time>2013-12-29T13:55:42Z</time>
		</trkpt>
		<trkpt lat="39.6101951599121" lon="2.67107892036438">
			<ele>95.3000030517578</ele>
			<time>2013-12-29T13:55:43Z</time>
		</trkpt>
		<trkpt lat="39.6101455688477" lon="2.67112135887146">
			<ele>95.4000015258789</ele>
			<time>2013-12-29T13:55:44Z</time>
		</trkpt>
		<trkpt lat="39.6100730895996" lon="2.6711642742157">
			<ele>95.1999969482422</ele>
			<time>2013-12-29T13:55:46Z</time>
		</trkpt>
		<trkpt lat="39.6100311279297" lon="2.67119073867798">
			<ele>94.1999969482422</ele>
			<time>2013-12-29T13:55:47Z</time>
		</trkpt>
		<trkpt lat="39.6099624633789" lon="2.67125678062439">
			<ele>93.1999969482422</ele>
			<time>2013-12-29T13:55:49Z</time>
		</trkpt>
		<trkpt lat="39.609920501709" lon="2.67128992080688">
			<ele>93.4000015258789</ele>
			<time>2013-12-29T13:55:50Z</time>
		</trkpt>
		<trkpt lat="39.6098785400391" lon="2.6713240146637">
			<ele>93.4000015258789</ele>
			<time>2013-12-29T13:55:51Z</time>
		</trkpt>
		<trkpt lat="39.6098365783691" lon="2.67136216163635">
			<ele>93.0999984741211</ele>
			<time>2013-12-29T13:55:52Z</time>
		</trkpt>
		<trkpt lat="39.6097984313965" lon="2.67140436172485">
			<ele>92.9000015258789</ele>
			<time>2013-12-29T13:55:53Z</time>
		</trkpt>
		<trkpt lat="39.6097602844238" lon="2.67144823074341">
			<ele>93</ele>
			<time>2013-12-29T13:55:54Z</time>
		</trkpt>
		<trkpt lat="39.6097221374512" lon="2.67149353027344">
			<ele>93</ele>
			<time>2013-12-29T13:55:55Z</time>
		</trkpt>
		<trkpt lat="39.6096801757813" lon="2.67153739929199">
			<ele>93.3000030517578</ele>
			<time>2013-12-29T13:55:56Z</time>
		</trkpt>
		<trkpt lat="39.6096382141113" lon="2.67157816886902">
			<ele>93.5</ele>
			<time>2013-12-29T13:55:57Z</time>
		</trkpt>
		<trkpt lat="39.6095962524414" lon="2.67161631584167">
			<ele>93.3000030517578</ele>
			<time>2013-12-29T13:55:58Z</time>
		</trkpt>
		<trkpt lat="39.609546661377" lon="2.67165589332581">
			<ele>93.4000015258789</ele>
			<time>2013-12-29T13:55:59Z</time>
		</trkpt>
		<trkpt lat="39.609504699707" lon="2.67169094085693">
			<ele>93.3000030517578</ele>
			<time>2013-12-29T13:56:00Z</time>
		</trkpt>
		<trkpt lat="39.6094627380371" lon="2.67173147201538">
			<ele>93.3000030517578</ele>
			<time>2013-12-29T13:56:01Z</time>
		</trkpt>
		<trkpt lat="39.6094169616699" lon="2.67177081108093">
			<ele>93.3000030517578</ele>
			<time>2013-12-29T13:56:02Z</time>
		</trkpt>
		<trkpt lat="39.6093711853027" lon="2.67180609703064">
			<ele>93.0999984741211</ele>
			<time>2013-12-29T13:56:03Z</time>
		</trkpt>
		<trkpt lat="39.6093292236328" lon="2.67183828353882">
			<ele>92.6999969482422</ele>
			<time>2013-12-29T13:56:04Z</time>
		</trkpt>
		<trkpt lat="39.6092796325684" lon="2.67187213897705">
			<ele>92.5</ele>
			<time>2013-12-29T13:56:05Z</time>
		</trkpt>
		<trkpt lat="39.6092338562012" lon="2.6719069480896">
			<ele>92.3000030517578</ele>
			<time>2013-12-29T13:56:06Z</time>
		</trkpt>
		<trkpt lat="39.609188079834" lon="2.67194724082947">
			<ele>92.5999984741211</ele>
			<time>2013-12-29T13:56:07Z</time>
		</trkpt>
		<trkpt lat="39.6091461181641" lon="2.67199015617371">
			<ele>92.8000030517578</ele>
			<time>2013-12-29T13:56:08Z</time>
		</trkpt>
		<trkpt lat="39.6091003417969" lon="2.67203187942505">
			<ele>92.8000030517578</ele>
			<time>2013-12-29T13:56:09Z</time>
		</trkpt>
		<trkpt lat="39.609058380127" lon="2.67206978797913">
			<ele>92.3000030517578</ele>
			<time>2013-12-29T13:56:10Z</time>
		</trkpt>
		<trkpt lat="39.609016418457" lon="2.6721088886261">
			<ele>92.1999969482422</ele>
			<time>2013-12-29T13:56:11Z</time>
		</trkpt>
		<trkpt lat="39.6089706420898" lon="2.67214870452881">
			<ele>92.3000030517578</ele>
			<time>2013-12-29T13:56:12Z</time>
		</trkpt>
		<trkpt lat="39.6089286804199" lon="2.67218923568726">
			<ele>92</ele>
			<time>2013-12-29T13:56:13Z</time>
		</trkpt>
		<trkpt lat="39.60888671875" lon="2.67222809791565">
			<ele>91.9000015258789</ele>
			<time>2013-12-29T13:56:14Z</time>
		</trkpt>
		<trkpt lat="39.6088371276855" lon="2.6722674369812">
			<ele>92.1999969482422</ele>
			<time>2013-12-29T13:56:15Z</time>
		</trkpt>
		<trkpt lat="39.6087875366211" lon="2.67230415344238">
			<ele>92.0999984741211</ele>
			<time>2013-12-29T13:56:16Z</time>
		</trkpt>
		<trkpt lat="39.6087417602539" lon="2.6723427772522">
			<ele>92.4000015258789</ele>
			<time>2013-12-29T13:56:17Z</time>
		</trkpt>
		<trkpt lat="39.608699798584" lon="2.67237854003906">
			<ele>92.4000015258789</ele>
			<time>2013-12-29T13:56:18Z</time>
		</trkpt>
		<trkpt lat="39.6086578369141" lon="2.67241644859314">
			<ele>92.4000015258789</ele>
			<time>2013-12-29T13:56:19Z</time>
		</trkpt>
		<trkpt lat="39.6086158752441" lon="2.67245674133301">
			<ele>92.1999969482422</ele>
			<time>2013-12-29T13:56:20Z</time>
		</trkpt>
		<trkpt lat="39.6085739135742" lon="2.67250466346741">
			<ele>92.5999984741211</ele>
			<time>2013-12-29T13:56:21Z</time>
		</trkpt>
		<trkpt lat="39.6085243225098" lon="2.67254900932312">
			<ele>92.6999969482422</ele>
			<time>2013-12-29T13:56:22Z</time>
		</trkpt>
		<trkpt lat="39.6084785461426" lon="2.67258405685425">
			<ele>92.8000030517578</ele>
			<time>2013-12-29T13:56:23Z</time>
		</trkpt>
		<trkpt lat="39.6084327697754" lon="2.67261624336243">
			<ele>92.6999969482422</ele>
			<time>2013-12-29T13:56:24Z</time>
		</trkpt>
		<trkpt lat="39.6083908081055" lon="2.67265152931213">
			<ele>92.4000015258789</ele>
			<time>2013-12-29T13:56:25Z</time>
		</trkpt>
		<trkpt lat="39.6083488464355" lon="2.67269086837769">
			<ele>92.4000015258789</ele>
			<time>2013-12-29T13:56:26Z</time>
		</trkpt>
		<trkpt lat="39.6083068847656" lon="2.6727340221405">
			<ele>92.5</ele>
			<time>2013-12-29T13:56:27Z</time>
		</trkpt>
		<trkpt lat="39.6082649230957" lon="2.67277097702026">
			<ele>92.6999969482422</ele>
			<time>2013-12-29T13:56:28Z</time>
		</trkpt>
		<trkpt lat="39.6082229614258" lon="2.6728081703186">
			<ele>92</ele>
			<time>2013-12-29T13:56:29Z</time>
		</trkpt>
		<trkpt lat="39.6081809997559" lon="2.67284750938416">
			<ele>92.1999969482422</ele>
			<time>2013-12-29T13:56:30Z</time>
		</trkpt>
		<trkpt lat="39.6081390380859" lon="2.67288494110107">
			<ele>91.8000030517578</ele>
			<time>2013-12-29T13:56:31Z</time>
		</trkpt>
		<trkpt lat="39.608097076416" lon="2.67291784286499">
			<ele>91.8000030517578</ele>
			<time>2013-12-29T13:56:32Z</time>
		</trkpt>
		<trkpt lat="39.6080169677734" lon="2.67298531532288">
			<ele>91.8000030517578</ele>
			<time>2013-12-29T13:56:34Z</time>
		</trkpt>
		<trkpt lat="39.6079788208008" lon="2.67301917076111">
			<ele>91.6999969482422</ele>
			<time>2013-12-29T13:56:35Z</time>
		</trkpt>
		<trkpt lat="39.6079406738281" lon="2.67305278778076">
			<ele>91.5</ele>
			<time>2013-12-29T13:56:36Z</time>
		</trkpt>
		<trkpt lat="39.6079025268555" lon="2.67308688163757">
			<ele>91.3000030517578</ele>
			<time>2013-12-29T13:56:37Z</time>
		</trkpt>
		<trkpt lat="39.6078605651855" lon="2.67312574386597">
			<ele>91.3000030517578</ele>
			<time>2013-12-29T13:56:38Z</time>
		</trkpt>
		<trkpt lat="39.6078186035156" lon="2.67316102981567">
			<ele>91.5999984741211</ele>
			<time>2013-12-29T13:56:39Z</time>
		</trkpt>
		<trkpt lat="39.6077766418457" lon="2.67319917678833">
			<ele>91.4000015258789</ele>
			<time>2013-12-29T13:56:40Z</time>
		</trkpt>
		<trkpt lat="39.6077346801758" lon="2.67323851585388">
			<ele>91.1999969482422</ele>
			<time>2013-12-29T13:56:41Z</time>
		</trkpt>
		<trkpt lat="39.6076889038086" lon="2.6732759475708">
			<ele>90.9000015258789</ele>
			<time>2013-12-29T13:56:42Z</time>
		</trkpt>
		<trkpt lat="39.6076431274414" lon="2.67331123352051">
			<ele>90.5999984741211</ele>
			<time>2013-12-29T13:56:43Z</time>
		</trkpt>
		<trkpt lat="39.6076011657715" lon="2.67334747314453">
			<ele>90.4000015258789</ele>
			<time>2013-12-29T13:56:44Z</time>
		</trkpt>
		<trkpt lat="39.607551574707" lon="2.67338800430298">
			<ele>90.4000015258789</ele>
			<time>2013-12-29T13:56:45Z</time>
		</trkpt>
		<trkpt lat="39.6075057983398" lon="2.67342853546143">
			<ele>90.5999984741211</ele>
			<time>2013-12-29T13:56:46Z</time>
		</trkpt>
		<trkpt lat="39.6074600219727" lon="2.67346787452698">
			<ele>90.4000015258789</ele>
			<time>2013-12-29T13:56:47Z</time>
		</trkpt>
		<trkpt lat="39.6074180603027" lon="2.67351078987122">
			<ele>90.5999984741211</ele>
			<time>2013-12-29T13:56:48Z</time>
		</trkpt>
		<trkpt lat="39.6073760986328" lon="2.67355394363403">
			<ele>90.5</ele>
			<time>2013-12-29T13:56:49Z</time>
		</trkpt>
		<trkpt lat="39.6073341369629" lon="2.67359495162964">
			<ele>90.6999969482422</ele>
			<time>2013-12-29T13:56:50Z</time>
		</trkpt>
		<trkpt lat="39.6072845458984" lon="2.67363619804382">
			<ele>90.8000030517578</ele>
			<time>2013-12-29T13:56:51Z</time>
		</trkpt>
		<trkpt lat="39.6072387695313" lon="2.67366600036621">
			<ele>91.0999984741211</ele>
			<time>2013-12-29T13:56:52Z</time>
		</trkpt>
		<trkpt lat="39.6071968078613" lon="2.67370176315308">
			<ele>91</ele>
			<time>2013-12-29T13:56:53Z</time>
		</trkpt>
		<trkpt lat="39.6071548461914" lon="2.67373847961426">
			<ele>90.9000015258789</ele>
			<time>2013-12-29T13:56:54Z</time>
		</trkpt>
		<trkpt lat="39.6071128845215" lon="2.67378044128418">
			<ele>90.9000015258789</ele>
			<time>2013-12-29T13:56:55Z</time>
		</trkpt>
		<trkpt lat="39.6070785522461" lon="2.67381978034973">
			<ele>90.6999969482422</ele>
			<time>2013-12-29T13:56:56Z</time>
		</trkpt>
		<trkpt lat="39.6070365905762" lon="2.67385244369507">
			<ele>90.9000015258789</ele>
			<time>2013-12-29T13:56:57Z</time>
		</trkpt>
		<trkpt lat="39.6069984436035" lon="2.67388081550598">
			<ele>90.5999984741211</ele>
			<time>2013-12-29T13:56:58Z</time>
		</trkpt>
		<trkpt lat="39.6069259643555" lon="2.6739444732666">
			<ele>90.5999984741211</ele>
			<time>2013-12-29T13:57:00Z</time>
		</trkpt>
		<trkpt lat="39.6068496704102" lon="2.67400741577148">
			<ele>90.3000030517578</ele>
			<time>2013-12-29T13:57:02Z</time>
		</trkpt>
		<trkpt lat="39.6067771911621" lon="2.67406964302063">
			<ele>89.8000030517578</ele>
			<time>2013-12-29T13:57:04Z</time>
		</trkpt>
		<trkpt lat="39.6067390441895" lon="2.67410349845886">
			<ele>90.0999984741211</ele>
			<time>2013-12-29T13:57:05Z</time>
		</trkpt>
		<trkpt lat="39.6066703796387" lon="2.67416667938232">
			<ele>89.6999969482422</ele>
			<time>2013-12-29T13:57:07Z</time>
		</trkpt>
		<trkpt lat="39.6066360473633" lon="2.67420268058777">
			<ele>89.6999969482422</ele>
			<time>2013-12-29T13:57:08Z</time>
		</trkpt>
		<trkpt lat="39.6065559387207" lon="2.67426109313965">
			<ele>89.5</ele>
			<time>2013-12-29T13:57:10Z</time>
		</trkpt>
		<trkpt lat="39.606517791748" lon="2.67429327964783">
			<ele>89.3000030517578</ele>
			<time>2013-12-29T13:57:11Z</time>
		</trkpt>
		<trkpt lat="39.6064720153809" lon="2.67432713508606">
			<ele>89.3000030517578</ele>
			<time>2013-12-29T13:57:12Z</time>
		</trkpt>
		<trkpt lat="39.6064300537109" lon="2.67436051368713">
			<ele>89.1999969482422</ele>
			<time>2013-12-29T13:57:13Z</time>
		</trkpt>
		<trkpt lat="39.606388092041" lon="2.67440009117126">
			<ele>89.4000015258789</ele>
			<time>2013-12-29T13:57:14Z</time>
		</trkpt>
		<trkpt lat="39.6063461303711" lon="2.67443871498108">
			<ele>89.5999984741211</ele>
			<time>2013-12-29T13:57:15Z</time>
		</trkpt>
		<trkpt lat="39.6063041687012" lon="2.67447829246521">
			<ele>89.5999984741211</ele>
			<time>2013-12-29T13:57:16Z</time>
		</trkpt>
		<trkpt lat="39.606258392334" lon="2.67450952529907">
			<ele>89.5999984741211</ele>
			<time>2013-12-29T13:57:17Z</time>
		</trkpt>
		<trkpt lat="39.6062164306641" lon="2.67453408241272">
			<ele>89.5</ele>
			<time>2013-12-29T13:57:18Z</time>
		</trkpt>
		<trkpt lat="39.6061706542969" lon="2.67456030845642">
			<ele>89.5</ele>
			<time>2013-12-29T13:57:19Z</time>
		</trkpt>
		<trkpt lat="39.6061210632324" lon="2.67458629608154">
			<ele>89.5</ele>
			<time>2013-12-29T13:57:20Z</time>
		</trkpt>
		<trkpt lat="39.606071472168" lon="2.67461514472961">
			<ele>89.1999969482422</ele>
			<time>2013-12-29T13:57:21Z</time>
		</trkpt>
		<trkpt lat="39.606029510498" lon="2.67464137077332">
			<ele>89.0999984741211</ele>
			<time>2013-12-29T13:57:22Z</time>
		</trkpt>
		<trkpt lat="39.6059761047363" lon="2.67467069625854">
			<ele>88.9000015258789</ele>
			<time>2013-12-29T13:57:23Z</time>
		</trkpt>
		<trkpt lat="39.6059341430664" lon="2.67469668388367">
			<ele>88.9000015258789</ele>
			<time>2013-12-29T13:57:24Z</time>
		</trkpt>
		<trkpt lat="39.6058578491211" lon="2.67473292350769">
			<ele>89.0999984741211</ele>
			<time>2013-12-29T13:57:26Z</time>
		</trkpt>
		<trkpt lat="39.6058044433594" lon="2.67475605010986">
			<ele>89</ele>
			<time>2013-12-29T13:57:28Z</time>
		</trkpt>
		<trkpt lat="39.6057739257813" lon="2.67480111122131">
			<ele>88.4000015258789</ele>
			<time>2013-12-29T13:57:29Z</time>
		</trkpt>
		<trkpt lat="39.605827331543" lon="2.67483687400818">
			<ele>87.0999984741211</ele>
			<time>2013-12-29T13:57:33Z</time>
		</trkpt>
		<trkpt lat="39.6058731079102" lon="2.6747875213623">
			<ele>86.5</ele>
			<time>2013-12-29T13:57:35Z</time>
		</trkpt>
		<trkpt lat="39.6059265136719" lon="2.67477035522461">
			<ele>86.0999984741211</ele>
			<time>2013-12-29T13:57:37Z</time>
		</trkpt>
		<trkpt lat="39.6059837341309" lon="2.67475342750549">
			<ele>86.0999984741211</ele>
			<time>2013-12-29T13:57:39Z</time>
		</trkpt>
		<trkpt lat="39.6060371398926" lon="2.67472743988037">
			<ele>85.9000015258789</ele>
			<time>2013-12-29T13:57:41Z</time>
		</trkpt>
		<trkpt lat="39.6060905456543" lon="2.67469525337219">
			<ele>86.3000030517578</ele>
			<time>2013-12-29T13:57:43Z</time>
		</trkpt>
		<trkpt lat="39.606143951416" lon="2.67466735839844">
			<ele>86.5</ele>
			<time>2013-12-29T13:57:45Z</time>
		</trkpt>
		<trkpt lat="39.6061935424805" lon="2.674635887146">
			<ele>86.4000015258789</ele>
			<time>2013-12-29T13:57:46Z</time>
		</trkpt>
		<trkpt lat="39.6062393188477" lon="2.6746072769165">
			<ele>86.3000030517578</ele>
			<time>2013-12-29T13:57:48Z</time>
		</trkpt>
		<trkpt lat="39.6062812805176" lon="2.67457556724548">
			<ele>86</ele>
			<time>2013-12-29T13:57:50Z</time>
		</trkpt>
		<trkpt lat="39.6063346862793" lon="2.67453908920288">
			<ele>86.1999969482422</ele>
			<time>2013-12-29T13:57:54Z</time>
		</trkpt>
		<trkpt lat="39.6063766479492" lon="2.67449164390564">
			<ele>89.3000030517578</ele>
			<time>2013-12-29T13:58:20Z</time>
		</trkpt>
		<trkpt lat="39.6064300537109" lon="2.67449545860291">
			<ele>89.5999984741211</ele>
			<time>2013-12-29T13:58:22Z</time>
		</trkpt>
		<trkpt lat="39.6064834594727" lon="2.67458319664001">
			<ele>89</ele>
			<time>2013-12-29T13:58:25Z</time>
		</trkpt>
		<trkpt lat="39.6065254211426" lon="2.67464709281921">
			<ele>89.0999984741211</ele>
			<time>2013-12-29T13:58:27Z</time>
		</trkpt>
		<trkpt lat="39.606559753418" lon="2.67471957206726">
			<ele>89</ele>
			<time>2013-12-29T13:58:29Z</time>
		</trkpt>
		<trkpt lat="39.6066017150879" lon="2.67480492591858">
			<ele>89.5</ele>
			<time>2013-12-29T13:58:31Z</time>
		</trkpt>
		<trkpt lat="39.606632232666" lon="2.67488384246826">
			<ele>90.1999969482422</ele>
			<time>2013-12-29T13:58:33Z</time>
		</trkpt>
		<trkpt lat="39.6066589355469" lon="2.67495775222778">
			<ele>90.8000030517578</ele>
			<time>2013-12-29T13:58:35Z</time>
		</trkpt>
		<trkpt lat="39.6066780090332" lon="2.67503666877747">
			<ele>91.4000015258789</ele>
			<time>2013-12-29T13:58:37Z</time>
		</trkpt>
		<trkpt lat="39.606689453125" lon="2.67510342597961">
			<ele>90.9000015258789</ele>
			<time>2013-12-29T13:58:39Z</time>
		</trkpt>
		<trkpt lat="39.6067428588867" lon="2.67517566680908">
			<ele>91.8000030517578</ele>
			<time>2013-12-29T13:58:41Z</time>
		</trkpt>
		<trkpt lat="39.6067733764648" lon="2.67524266242981">
			<ele>92.4000015258789</ele>
			<time>2013-12-29T13:58:42Z</time>
		</trkpt>
		<trkpt lat="39.6068000793457" lon="2.67530012130737">
			<ele>93.9000015258789</ele>
			<time>2013-12-29T13:58:44Z</time>
		</trkpt>
		<trkpt lat="39.6068344116211" lon="2.67538261413574">
			<ele>93.6999969482422</ele>
			<time>2013-12-29T13:58:46Z</time>
		</trkpt>
		<trkpt lat="39.6068077087402" lon="2.67543029785156">
			<ele>93.5999984741211</ele>
			<time>2013-12-29T13:58:47Z</time>
		</trkpt>
		<trkpt lat="39.6067695617676" lon="2.67551946640015">
			<ele>93.0999984741211</ele>
			<time>2013-12-29T13:58:49Z</time>
		</trkpt>
		<trkpt lat="39.606761932373" lon="2.6756112575531">
			<ele>92.6999969482422</ele>
			<time>2013-12-29T13:58:52Z</time>
		</trkpt>
		<trkpt lat="39.6067733764648" lon="2.67570304870605">
			<ele>92.5999984741211</ele>
			<time>2013-12-29T13:58:53Z</time>
		</trkpt>
		<trkpt lat="39.6067924499512" lon="2.67578148841858">
			<ele>93.3000030517578</ele>
			<time>2013-12-29T13:58:55Z</time>
		</trkpt>
		<trkpt lat="39.6068382263184" lon="2.67583727836609">
			<ele>93.4000015258789</ele>
			<time>2013-12-29T13:58:57Z</time>
		</trkpt>
		<trkpt lat="39.6068534851074" lon="2.6759135723114">
			<ele>92.0999984741211</ele>
			<time>2013-12-29T13:58:59Z</time>
		</trkpt>
		<trkpt lat="39.6068916320801" lon="2.67598819732666">
			<ele>92.4000015258789</ele>
			<time>2013-12-29T13:59:01Z</time>
		</trkpt>
		<trkpt lat="39.6069221496582" lon="2.67605710029602">
			<ele>92.1999969482422</ele>
			<time>2013-12-29T13:59:03Z</time>
		</trkpt>
		<trkpt lat="39.6069869995117" lon="2.6761326789856">
			<ele>93.8000030517578</ele>
			<time>2013-12-29T13:59:05Z</time>
		</trkpt>
		<trkpt lat="39.607048034668" lon="2.67617392539978">
			<ele>94.1999969482422</ele>
			<time>2013-12-29T13:59:07Z</time>
		</trkpt>
		<trkpt lat="39.607105255127" lon="2.67618417739868">
			<ele>93</ele>
			<time>2013-12-29T13:59:09Z</time>
		</trkpt>
		<trkpt lat="39.6071624755859" lon="2.67621040344238">
			<ele>93.3000030517578</ele>
			<time>2013-12-29T13:59:11Z</time>
		</trkpt>
		<trkpt lat="39.607234954834" lon="2.67625212669373">
			<ele>89.3000030517578</ele>
			<time>2013-12-29T13:59:13Z</time>
		</trkpt>
		<trkpt lat="39.6072998046875" lon="2.6762809753418">
			<ele>90.4000015258789</ele>
			<time>2013-12-29T13:59:15Z</time>
		</trkpt>
		<trkpt lat="39.6073188781738" lon="2.67635941505432">
			<ele>90.5999984741211</ele>
			<time>2013-12-29T13:59:17Z</time>
		</trkpt>
		<trkpt lat="39.6073226928711" lon="2.67644739151001">
			<ele>91.1999969482422</ele>
			<time>2013-12-29T13:59:19Z</time>
		</trkpt>
		<trkpt lat="39.607307434082" lon="2.67654371261597">
			<ele>91</ele>
			<time>2013-12-29T13:59:21Z</time>
		</trkpt>
		<trkpt lat="39.6072731018066" lon="2.67663288116455">
			<ele>91.5999984741211</ele>
			<time>2013-12-29T13:59:23Z</time>
		</trkpt>
		<trkpt lat="39.607234954834" lon="2.67671227455139">
			<ele>90.6999969482422</ele>
			<time>2013-12-29T13:59:25Z</time>
		</trkpt>
		<trkpt lat="39.6072006225586" lon="2.67679953575134">
			<ele>90.4000015258789</ele>
			<time>2013-12-29T13:59:27Z</time>
		</trkpt>
		<trkpt lat="39.6071701049805" lon="2.67688369750977">
			<ele>90.1999969482422</ele>
			<time>2013-12-29T13:59:30Z</time>
		</trkpt>
		<trkpt lat="39.6071434020996" lon="2.67696833610535">
			<ele>89.9000015258789</ele>
			<time>2013-12-29T13:59:31Z</time>
		</trkpt>
		<trkpt lat="39.6071090698242" lon="2.67705845832825">
			<ele>89.8000030517578</ele>
			<time>2013-12-29T13:59:33Z</time>
		</trkpt>
		<trkpt lat="39.6070861816406" lon="2.67711067199707">
			<ele>89.5999984741211</ele>
			<time>2013-12-29T13:59:34Z</time>
		</trkpt>
		<trkpt lat="39.607048034668" lon="2.67719984054565">
			<ele>88.8000030517578</ele>
			<time>2013-12-29T13:59:36Z</time>
		</trkpt>
		<trkpt lat="39.6070137023926" lon="2.67728805541992">
			<ele>87.3000030517578</ele>
			<time>2013-12-29T13:59:38Z</time>
		</trkpt>
		<trkpt lat="39.6069717407227" lon="2.67738246917725">
			<ele>87.1999969482422</ele>
			<time>2013-12-29T13:59:40Z</time>
		</trkpt>
		<trkpt lat="39.6069450378418" lon="2.67747807502747">
			<ele>86</ele>
			<time>2013-12-29T13:59:42Z</time>
		</trkpt>
		<trkpt lat="39.6069145202637" lon="2.67757105827332">
			<ele>86.3000030517578</ele>
			<time>2013-12-29T13:59:44Z</time>
		</trkpt>
		<trkpt lat="39.6068840026855" lon="2.67765259742737">
			<ele>86.3000030517578</ele>
			<time>2013-12-29T13:59:46Z</time>
		</trkpt>
		<trkpt lat="39.606861114502" lon="2.67772698402405">
			<ele>87.4000015258789</ele>
			<time>2013-12-29T13:59:48Z</time>
		</trkpt>
		<trkpt lat="39.6068305969238" lon="2.67779159545898">
			<ele>86.0999984741211</ele>
			<time>2013-12-29T13:59:50Z</time>
		</trkpt>
		<trkpt lat="39.6068153381348" lon="2.67786002159119">
			<ele>85.5</ele>
			<time>2013-12-29T13:59:52Z</time>
		</trkpt>
		<trkpt lat="39.6067962646484" lon="2.6779351234436">
			<ele>85.5</ele>
			<time>2013-12-29T13:59:54Z</time>
		</trkpt>
		<trkpt lat="39.6067810058594" lon="2.67799639701843">
			<ele>85.6999969482422</ele>
			<time>2013-12-29T13:59:56Z</time>
		</trkpt>
		<trkpt lat="39.6067428588867" lon="2.67805480957031">
			<ele>86.9000015258789</ele>
			<time>2013-12-29T13:59:58Z</time>
		</trkpt>
		<trkpt lat="39.6067123413086" lon="2.67810368537903">
			<ele>87.4000015258789</ele>
			<time>2013-12-29T14:00:00Z</time>
		</trkpt>
		<trkpt lat="39.6066856384277" lon="2.67816352844238">
			<ele>87.5999984741211</ele>
			<time>2013-12-29T14:00:02Z</time>
		</trkpt>
		<trkpt lat="39.6066513061523" lon="2.6782431602478">
			<ele>86.5999984741211</ele>
			<time>2013-12-29T14:00:04Z</time>
		</trkpt>
		<trkpt lat="39.6066246032715" lon="2.67832779884338">
			<ele>85.8000030517578</ele>
			<time>2013-12-29T14:00:06Z</time>
		</trkpt>
		<trkpt lat="39.6065902709961" lon="2.67840695381165">
			<ele>85.5999984741211</ele>
			<time>2013-12-29T14:00:08Z</time>
		</trkpt>
		<trkpt lat="39.6065635681152" lon="2.67848420143127">
			<ele>86.6999969482422</ele>
			<time>2013-12-29T14:00:10Z</time>
		</trkpt>
		<trkpt lat="39.6065254211426" lon="2.67856192588806">
			<ele>87.3000030517578</ele>
			<time>2013-12-29T14:00:12Z</time>
		</trkpt>
		<trkpt lat="39.6065063476563" lon="2.67865204811096">
			<ele>88.1999969482422</ele>
			<time>2013-12-29T14:00:14Z</time>
		</trkpt>
		<trkpt lat="39.6064872741699" lon="2.67871117591858">
			<ele>89</ele>
			<time>2013-12-29T14:00:23Z</time>
		</trkpt>
		<trkpt lat="39.6064567565918" lon="2.67877626419067">
			<ele>90.9000015258789</ele>
			<time>2013-12-29T14:00:38Z</time>
		</trkpt>
		<trkpt lat="39.6064376831055" lon="2.67883896827698">
			<ele>91</ele>
			<time>2013-12-29T14:00:40Z</time>
		</trkpt>
		<trkpt lat="39.6064109802246" lon="2.67891192436218">
			<ele>91.9000015258789</ele>
			<time>2013-12-29T14:00:42Z</time>
		</trkpt>
		<trkpt lat="39.606372833252" lon="2.67897653579712">
			<ele>92.8000030517578</ele>
			<time>2013-12-29T14:00:44Z</time>
		</trkpt>
		<trkpt lat="39.6063003540039" lon="2.67900252342224">
			<ele>92.6999969482422</ele>
			<time>2013-12-29T14:00:46Z</time>
		</trkpt>
		<trkpt lat="39.6062202453613" lon="2.67902946472168">
			<ele>92.9000015258789</ele>
			<time>2013-12-29T14:00:48Z</time>
		</trkpt>
		<trkpt lat="39.606143951416" lon="2.6790554523468">
			<ele>92.9000015258789</ele>
			<time>2013-12-29T14:00:50Z</time>
		</trkpt>
		<trkpt lat="39.6060676574707" lon="2.67907357215881">
			<ele>92.4000015258789</ele>
			<time>2013-12-29T14:00:52Z</time>
		</trkpt>
		<trkpt lat="39.6059837341309" lon="2.67910075187683">
			<ele>92.6999969482422</ele>
			<time>2013-12-29T14:00:54Z</time>
		</trkpt>
		<trkpt lat="39.6059036254883" lon="2.67913508415222">
			<ele>92.5</ele>
			<time>2013-12-29T14:00:56Z</time>
		</trkpt>
		<trkpt lat="39.605827331543" lon="2.67915773391724">
			<ele>91.8000030517578</ele>
			<time>2013-12-29T14:00:58Z</time>
		</trkpt>
		<trkpt lat="39.6057510375977" lon="2.67918562889099">
			<ele>91.3000030517578</ele>
			<time>2013-12-29T14:01:00Z</time>
		</trkpt>
		<trkpt lat="39.6056709289551" lon="2.67921161651611">
			<ele>91</ele>
			<time>2013-12-29T14:01:02Z</time>
		</trkpt>
		<trkpt lat="39.6056251525879" lon="2.67922925949097">
			<ele>91.1999969482422</ele>
			<time>2013-12-29T14:01:03Z</time>
		</trkpt>
		<trkpt lat="39.6055793762207" lon="2.67924380302429">
			<ele>91.4000015258789</ele>
			<time>2013-12-29T14:01:04Z</time>
		</trkpt>
		<trkpt lat="39.6055374145508" lon="2.67926120758057">
			<ele>91.3000030517578</ele>
			<time>2013-12-29T14:01:05Z</time>
		</trkpt>
		<trkpt lat="39.6054916381836" lon="2.67928028106689">
			<ele>91.4000015258789</ele>
			<time>2013-12-29T14:01:06Z</time>
		</trkpt>
		<trkpt lat="39.6054458618164" lon="2.67930197715759">
			<ele>91.9000015258789</ele>
			<time>2013-12-29T14:01:07Z</time>
		</trkpt>
		<trkpt lat="39.6053619384766" lon="2.67933487892151">
			<ele>91.5</ele>
			<time>2013-12-29T14:01:09Z</time>
		</trkpt>
		<trkpt lat="39.605281829834" lon="2.67935705184937">
			<ele>90.9000015258789</ele>
			<time>2013-12-29T14:01:11Z</time>
		</trkpt>
		<trkpt lat="39.6052017211914" lon="2.67938756942749">
			<ele>90.9000015258789</ele>
			<time>2013-12-29T14:01:13Z</time>
		</trkpt>
		<trkpt lat="39.6051216125488" lon="2.67940855026245">
			<ele>89.5</ele>
			<time>2013-12-29T14:01:15Z</time>
		</trkpt>
		<trkpt lat="39.6050338745117" lon="2.67942881584167">
			<ele>89.3000030517578</ele>
			<time>2013-12-29T14:01:17Z</time>
		</trkpt>
		<trkpt lat="39.6049880981445" lon="2.67944121360779">
			<ele>89.0999984741211</ele>
			<time>2013-12-29T14:01:18Z</time>
		</trkpt>
		<trkpt lat="39.6049461364746" lon="2.67945790290833">
			<ele>89.1999969482422</ele>
			<time>2013-12-29T14:01:19Z</time>
		</trkpt>
		<trkpt lat="39.6048583984375" lon="2.67949295043945">
			<ele>88.5</ele>
			<time>2013-12-29T14:01:21Z</time>
		</trkpt>
		<trkpt lat="39.6048164367676" lon="2.67950987815857">
			<ele>88.1999969482422</ele>
			<time>2013-12-29T14:01:22Z</time>
		</trkpt>
		<trkpt lat="39.6047668457031" lon="2.67952489852905">
			<ele>88.4000015258789</ele>
			<time>2013-12-29T14:01:23Z</time>
		</trkpt>
		<trkpt lat="39.6047210693359" lon="2.67954087257385">
			<ele>88.4000015258789</ele>
			<time>2013-12-29T14:01:24Z</time>
		</trkpt>
		<trkpt lat="39.6046752929688" lon="2.6795539855957">
			<ele>88.1999969482422</ele>
			<time>2013-12-29T14:01:25Z</time>
		</trkpt>
		<trkpt lat="39.6046295166016" lon="2.67956972122192">
			<ele>88.1999969482422</ele>
			<time>2013-12-29T14:01:26Z</time>
		</trkpt>
		<trkpt lat="39.6045837402344" lon="2.67958498001099">
			<ele>88.0999984741211</ele>
			<time>2013-12-29T14:01:27Z</time>
		</trkpt>
		<trkpt lat="39.6045379638672" lon="2.67960143089294">
			<ele>87.9000015258789</ele>
			<time>2013-12-29T14:01:28Z</time>
		</trkpt>
		<trkpt lat="39.6044960021973" lon="2.67961859703064">
			<ele>87.8000030517578</ele>
			<time>2013-12-29T14:01:29Z</time>
		</trkpt>
		<trkpt lat="39.6044464111328" lon="2.67963457107544">
			<ele>87.8000030517578</ele>
			<time>2013-12-29T14:01:30Z</time>
		</trkpt>
		<trkpt lat="39.6044006347656" lon="2.67965221405029">
			<ele>87.8000030517578</ele>
			<time>2013-12-29T14:01:31Z</time>
		</trkpt>
		<trkpt lat="39.6043548583984" lon="2.67967057228088">
			<ele>87.8000030517578</ele>
			<time>2013-12-29T14:01:32Z</time>
		</trkpt>
		<trkpt lat="39.6043090820313" lon="2.67968678474426">
			<ele>87.5</ele>
			<time>2013-12-29T14:01:33Z</time>
		</trkpt>
		<trkpt lat="39.6042594909668" lon="2.67970395088196">
			<ele>87.3000030517578</ele>
			<time>2013-12-29T14:01:34Z</time>
		</trkpt>
		<trkpt lat="39.6042098999023" lon="2.67972159385681">
			<ele>87.3000030517578</ele>
			<time>2013-12-29T14:01:35Z</time>
		</trkpt>
		<trkpt lat="39.6041641235352" lon="2.6797297000885">
			<ele>86.8000030517578</ele>
			<time>2013-12-29T14:01:36Z</time>
		</trkpt>
		<trkpt lat="39.6041145324707" lon="2.67972445487976">
			<ele>86.6999969482422</ele>
			<time>2013-12-29T14:01:37Z</time>
		</trkpt>
		<trkpt lat="39.6040649414063" lon="2.6797149181366">
			<ele>86.8000030517578</ele>
			<time>2013-12-29T14:01:38Z</time>
		</trkpt>
		<trkpt lat="39.6040153503418" lon="2.67970824241638">
			<ele>86.9000015258789</ele>
			<time>2013-12-29T14:01:39Z</time>
		</trkpt>
		<trkpt lat="39.6039619445801" lon="2.67971444129944">
			<ele>87.8000030517578</ele>
			<time>2013-12-29T14:01:40Z</time>
		</trkpt>
		<trkpt lat="39.6039085388184" lon="2.67971348762512">
			<ele>88.0999984741211</ele>
			<time>2013-12-29T14:01:41Z</time>
		</trkpt>
		<trkpt lat="39.6038627624512" lon="2.67972016334534">
			<ele>88</ele>
			<time>2013-12-29T14:01:42Z</time>
		</trkpt>
		<trkpt lat="39.6038131713867" lon="2.67973160743713">
			<ele>88</ele>
			<time>2013-12-29T14:01:43Z</time>
		</trkpt>
		<trkpt lat="39.6037673950195" lon="2.67974495887756">
			<ele>88.1999969482422</ele>
			<time>2013-12-29T14:01:44Z</time>
		</trkpt>
		<trkpt lat="39.6037254333496" lon="2.67975640296936">
			<ele>88.3000030517578</ele>
			<time>2013-12-29T14:01:45Z</time>
		</trkpt>
		<trkpt lat="39.6036796569824" lon="2.67977070808411">
			<ele>88.5</ele>
			<time>2013-12-29T14:01:46Z</time>
		</trkpt>
		<trkpt lat="39.6035957336426" lon="2.67980122566223">
			<ele>88.9000015258789</ele>
			<time>2013-12-29T14:01:48Z</time>
		</trkpt>
		<trkpt lat="39.6035194396973" lon="2.6798255443573">
			<ele>89.1999969482422</ele>
			<time>2013-12-29T14:01:50Z</time>
		</trkpt>
		<trkpt lat="39.6034469604492" lon="2.67984056472778">
			<ele>89.5999984741211</ele>
			<time>2013-12-29T14:01:52Z</time>
		</trkpt>
		<trkpt lat="39.6033782958984" lon="2.67986249923706">
			<ele>89.6999969482422</ele>
			<time>2013-12-29T14:01:54Z</time>
		</trkpt>
		<trkpt lat="39.6033172607422" lon="2.67987465858459">
			<ele>90.3000030517578</ele>
			<time>2013-12-29T14:01:56Z</time>
		</trkpt>
		<trkpt lat="39.6032600402832" lon="2.67989325523376">
			<ele>90.0999984741211</ele>
			<time>2013-12-29T14:01:58Z</time>
		</trkpt>
		<trkpt lat="39.6032028198242" lon="2.67991304397583">
			<ele>90.4000015258789</ele>
			<time>2013-12-29T14:02:00Z</time>
		</trkpt>
		<trkpt lat="39.6031455993652" lon="2.67992663383484">
			<ele>90.4000015258789</ele>
			<time>2013-12-29T14:02:02Z</time>
		</trkpt>
		<trkpt lat="39.603084564209" lon="2.67994093894958">
			<ele>90.3000030517578</ele>
			<time>2013-12-29T14:02:04Z</time>
		</trkpt>
		<trkpt lat="39.60302734375" lon="2.67995762825012">
			<ele>90.1999969482422</ele>
			<time>2013-12-29T14:02:06Z</time>
		</trkpt>
		<trkpt lat="39.6029663085938" lon="2.67997241020203">
			<ele>90.8000030517578</ele>
			<time>2013-12-29T14:02:08Z</time>
		</trkpt>
		<trkpt lat="39.6029090881348" lon="2.67998600006104">
			<ele>91.1999969482422</ele>
			<time>2013-12-29T14:02:10Z</time>
		</trkpt>
		<trkpt lat="39.6028480529785" lon="2.68000197410583">
			<ele>91.4000015258789</ele>
			<time>2013-12-29T14:02:12Z</time>
		</trkpt>
		<trkpt lat="39.602783203125" lon="2.68001890182495">
			<ele>91.3000030517578</ele>
			<time>2013-12-29T14:02:14Z</time>
		</trkpt>
		<trkpt lat="39.6027183532715" lon="2.68003392219543">
			<ele>91.5</ele>
			<time>2013-12-29T14:02:16Z</time>
		</trkpt>
		<trkpt lat="39.6026458740234" lon="2.68005299568176">
			<ele>91.3000030517578</ele>
			<time>2013-12-29T14:02:18Z</time>
		</trkpt>
		<trkpt lat="39.6025695800781" lon="2.6800754070282">
			<ele>91.5</ele>
			<time>2013-12-29T14:02:21Z</time>
		</trkpt>
		<trkpt lat="39.6024932861328" lon="2.680100440979">
			<ele>91.0999984741211</ele>
			<time>2013-12-29T14:02:22Z</time>
		</trkpt>
		<trkpt lat="39.6024131774902" lon="2.68013143539429">
			<ele>90.6999969482422</ele>
			<time>2013-12-29T14:02:24Z</time>
		</trkpt>
		<trkpt lat="39.602367401123" lon="2.68014526367188">
			<ele>90.8000030517578</ele>
			<time>2013-12-29T14:02:25Z</time>
		</trkpt>
		<trkpt lat="39.6023216247559" lon="2.68016004562378">
			<ele>90.8000030517578</ele>
			<time>2013-12-29T14:02:26Z</time>
		</trkpt>
		<trkpt lat="39.6022720336914" lon="2.68017244338989">
			<ele>90.8000030517578</ele>
			<time>2013-12-29T14:02:27Z</time>
		</trkpt>
		<trkpt lat="39.602222442627" lon="2.68018889427185">
			<ele>90.5</ele>
			<time>2013-12-29T14:02:29Z</time>
		</trkpt>
		<trkpt lat="39.6021690368652" lon="2.68020534515381">
			<ele>90</ele>
			<time>2013-12-29T14:02:30Z</time>
		</trkpt>
		<trkpt lat="39.6021118164063" lon="2.6802191734314">
			<ele>89.4000015258789</ele>
			<time>2013-12-29T14:02:31Z</time>
		</trkpt>
		<trkpt lat="39.6020545959473" lon="2.68023991584778">
			<ele>88.8000030517578</ele>
			<time>2013-12-29T14:02:32Z</time>
		</trkpt>
		<trkpt lat="39.601993560791" lon="2.68026566505432">
			<ele>88.4000015258789</ele>
			<time>2013-12-29T14:02:33Z</time>
		</trkpt>
		<trkpt lat="39.6019325256348" lon="2.68028998374939">
			<ele>88.0999984741211</ele>
			<time>2013-12-29T14:02:34Z</time>
		</trkpt>
		<trkpt lat="39.6018676757813" lon="2.68031287193298">
			<ele>87.5999984741211</ele>
			<time>2013-12-29T14:02:35Z</time>
		</trkpt>
		<trkpt lat="39.6017990112305" lon="2.680335521698">
			<ele>87.1999969482422</ele>
			<time>2013-12-29T14:02:36Z</time>
		</trkpt>
		<trkpt lat="39.6017265319824" lon="2.68035483360291">
			<ele>86.8000030517578</ele>
			<time>2013-12-29T14:02:37Z</time>
		</trkpt>
		<trkpt lat="39.6016578674316" lon="2.6803777217865">
			<ele>86.5999984741211</ele>
			<time>2013-12-29T14:02:38Z</time>
		</trkpt>
		<trkpt lat="39.6015853881836" lon="2.68039536476135">
			<ele>86.3000030517578</ele>
			<time>2013-12-29T14:02:39Z</time>
		</trkpt>
		<trkpt lat="39.6015167236328" lon="2.68040752410889">
			<ele>86</ele>
			<time>2013-12-29T14:02:40Z</time>
		</trkpt>
		<trkpt lat="39.6014442443848" lon="2.68042254447937">
			<ele>85.5999984741211</ele>
			<time>2013-12-29T14:02:41Z</time>
		</trkpt>
		<trkpt lat="39.6013717651367" lon="2.68044543266296">
			<ele>85.5</ele>
			<time>2013-12-29T14:02:42Z</time>
		</trkpt>
		<trkpt lat="39.6012992858887" lon="2.68046760559082">
			<ele>85.1999969482422</ele>
			<time>2013-12-29T14:02:43Z</time>
		</trkpt>
		<trkpt lat="39.6012306213379" lon="2.68048763275146">
			<ele>85</ele>
			<time>2013-12-29T14:02:44Z</time>
		</trkpt>
		<trkpt lat="39.6011619567871" lon="2.68050408363342">
			<ele>84.9000015258789</ele>
			<time>2013-12-29T14:02:45Z</time>
		</trkpt>
		<trkpt lat="39.6010932922363" lon="2.68052172660828">
			<ele>85</ele>
			<time>2013-12-29T14:02:46Z</time>
		</trkpt>
		<trkpt lat="39.6010246276855" lon="2.68053889274597">
			<ele>84.9000015258789</ele>
			<time>2013-12-29T14:02:47Z</time>
		</trkpt>
		<trkpt lat="39.6009559631348" lon="2.6805534362793">
			<ele>85</ele>
			<time>2013-12-29T14:02:48Z</time>
		</trkpt>
		<trkpt lat="39.6008911132813" lon="2.68057012557983">
			<ele>85.3000030517578</ele>
			<time>2013-12-29T14:02:49Z</time>
		</trkpt>
		<trkpt lat="39.6008262634277" lon="2.68058681488037">
			<ele>85.5</ele>
			<time>2013-12-29T14:02:50Z</time>
		</trkpt>
		<trkpt lat="39.6007652282715" lon="2.68059992790222">
			<ele>85.1999969482422</ele>
			<time>2013-12-29T14:02:51Z</time>
		</trkpt>
		<trkpt lat="39.6007041931152" lon="2.68061447143555">
			<ele>85.3000030517578</ele>
			<time>2013-12-29T14:02:52Z</time>
		</trkpt>
		<trkpt lat="39.600643157959" lon="2.68063473701477">
			<ele>85.5</ele>
			<time>2013-12-29T14:02:53Z</time>
		</trkpt>
		<trkpt lat="39.6005859375" lon="2.68065309524536">
			<ele>85.4000015258789</ele>
			<time>2013-12-29T14:02:54Z</time>
		</trkpt>
		<trkpt lat="39.600528717041" lon="2.68066644668579">
			<ele>85.3000030517578</ele>
			<time>2013-12-29T14:02:55Z</time>
		</trkpt>
		<trkpt lat="39.600471496582" lon="2.68067502975464">
			<ele>85.3000030517578</ele>
			<time>2013-12-29T14:02:56Z</time>
		</trkpt>
		<trkpt lat="39.600414276123" lon="2.6806857585907">
			<ele>85.1999969482422</ele>
			<time>2013-12-29T14:02:57Z</time>
		</trkpt>
		<trkpt lat="39.6003570556641" lon="2.68069863319397">
			<ele>85</ele>
			<time>2013-12-29T14:02:58Z</time>
		</trkpt>
		<trkpt lat="39.6002998352051" lon="2.68071293830872">
			<ele>85</ele>
			<time>2013-12-29T14:02:59Z</time>
		</trkpt>
		<trkpt lat="39.6002464294434" lon="2.68072724342346">
			<ele>85</ele>
			<time>2013-12-29T14:03:00Z</time>
		</trkpt>
		<trkpt lat="39.6001930236816" lon="2.6807427406311">
			<ele>85.1999969482422</ele>
			<time>2013-12-29T14:03:01Z</time>
		</trkpt>
		<trkpt lat="39.6001434326172" lon="2.680748462677">
			<ele>84.6999969482422</ele>
			<time>2013-12-29T14:03:02Z</time>
		</trkpt>
		<trkpt lat="39.6000862121582" lon="2.68075942993164">
			<ele>84.8000030517578</ele>
			<time>2013-12-29T14:03:03Z</time>
		</trkpt>
		<trkpt lat="39.6000366210938" lon="2.68076157569885">
			<ele>84.9000015258789</ele>
			<time>2013-12-29T14:03:04Z</time>
		</trkpt>
		<trkpt lat="39.599983215332" lon="2.68076801300049">
			<ele>85.1999969482422</ele>
			<time>2013-12-29T14:03:05Z</time>
		</trkpt>
		<trkpt lat="39.5999298095703" lon="2.68078231811523">
			<ele>85.3000030517578</ele>
			<time>2013-12-29T14:03:06Z</time>
		</trkpt>
		<trkpt lat="39.5998840332031" lon="2.68078970909119">
			<ele>85.1999969482422</ele>
			<time>2013-12-29T14:03:07Z</time>
		</trkpt>
		<trkpt lat="39.5998344421387" lon="2.68079972267151">
			<ele>85</ele>
			<time>2013-12-29T14:03:08Z</time>
		</trkpt>
		<trkpt lat="39.599781036377" lon="2.68080878257751">
			<ele>84.8000030517578</ele>
			<time>2013-12-29T14:03:10Z</time>
		</trkpt>
		<trkpt lat="39.5996780395508" lon="2.68083548545837">
			<ele>85.5999984741211</ele>
			<time>2013-12-29T14:03:12Z</time>
		</trkpt>
		<trkpt lat="39.5995750427246" lon="2.68086218833923">
			<ele>86.8000030517578</ele>
			<time>2013-12-29T14:03:13Z</time>
		</trkpt>
		<trkpt lat="39.5995216369629" lon="2.68086576461792">
			<ele>86.5999984741211</ele>
			<time>2013-12-29T14:03:14Z</time>
		</trkpt>
		<trkpt lat="39.5994682312012" lon="2.68087959289551">
			<ele>86.1999969482422</ele>
			<time>2013-12-29T14:03:15Z</time>
		</trkpt>
		<trkpt lat="39.5994148254395" lon="2.68088459968567">
			<ele>87.0999984741211</ele>
			<time>2013-12-29T14:03:16Z</time>
		</trkpt>
		<trkpt lat="39.599365234375" lon="2.68089771270752">
			<ele>87.3000030517578</ele>
			<time>2013-12-29T14:03:17Z</time>
		</trkpt>
		<trkpt lat="39.5993194580078" lon="2.68090295791626">
			<ele>87.4000015258789</ele>
			<time>2013-12-29T14:03:18Z</time>
		</trkpt>
		<trkpt lat="39.5992317199707" lon="2.68092179298401">
			<ele>87.0999984741211</ele>
			<time>2013-12-29T14:03:20Z</time>
		</trkpt>
		<trkpt lat="39.5991744995117" lon="2.68093228340149">
			<ele>87</ele>
			<time>2013-12-29T14:03:21Z</time>
		</trkpt>
		<trkpt lat="39.5991249084473" lon="2.68094396591187">
			<ele>87.3000030517578</ele>
			<time>2013-12-29T14:03:22Z</time>
		</trkpt>
		<trkpt lat="39.5990715026855" lon="2.68095898628235">
			<ele>87</ele>
			<time>2013-12-29T14:03:23Z</time>
		</trkpt>
		<trkpt lat="39.5990180969238" lon="2.68097543716431">
			<ele>87.0999984741211</ele>
			<time>2013-12-29T14:03:24Z</time>
		</trkpt>
		<trkpt lat="39.5989685058594" lon="2.68096971511841">
			<ele>86.9000015258789</ele>
			<time>2013-12-29T14:03:25Z</time>
		</trkpt>
		<trkpt lat="39.5989151000977" lon="2.6809766292572">
			<ele>86.5</ele>
			<time>2013-12-29T14:03:26Z</time>
		</trkpt>
		<trkpt lat="39.5988655090332" lon="2.68098735809326">
			<ele>85.8000030517578</ele>
			<time>2013-12-29T14:03:27Z</time>
		</trkpt>
		<trkpt lat="39.5988159179688" lon="2.68100380897522">
			<ele>85.3000030517578</ele>
			<time>2013-12-29T14:03:28Z</time>
		</trkpt>
		<trkpt lat="39.598762512207" lon="2.68101739883423">
			<ele>85.6999969482422</ele>
			<time>2013-12-29T14:03:29Z</time>
		</trkpt>
		<trkpt lat="39.5987129211426" lon="2.68102407455444">
			<ele>85.1999969482422</ele>
			<time>2013-12-29T14:03:30Z</time>
		</trkpt>
		<trkpt lat="39.5986671447754" lon="2.6810257434845">
			<ele>84.8000030517578</ele>
			<time>2013-12-29T14:03:31Z</time>
		</trkpt>
		<trkpt lat="39.5986137390137" lon="2.68103551864624">
			<ele>84.5999984741211</ele>
			<time>2013-12-29T14:03:32Z</time>
		</trkpt>
		<trkpt lat="39.5985679626465" lon="2.68104338645935">
			<ele>84.1999969482422</ele>
			<time>2013-12-29T14:03:33Z</time>
		</trkpt>
		<trkpt lat="39.598518371582" lon="2.68105435371399">
			<ele>84.3000030517578</ele>
			<time>2013-12-29T14:03:34Z</time>
		</trkpt>
		<trkpt lat="39.598461151123" lon="2.68106031417847">
			<ele>84.5</ele>
			<time>2013-12-29T14:03:35Z</time>
		</trkpt>
		<trkpt lat="39.5984153747559" lon="2.6810610294342">
			<ele>83.5</ele>
			<time>2013-12-29T14:03:36Z</time>
		</trkpt>
		<trkpt lat="39.5983619689941" lon="2.68107295036316">
			<ele>83.6999969482422</ele>
			<time>2013-12-29T14:03:37Z</time>
		</trkpt>
		<trkpt lat="39.5983123779297" lon="2.68108820915222">
			<ele>83.5</ele>
			<time>2013-12-29T14:03:38Z</time>
		</trkpt>
		<trkpt lat="39.598258972168" lon="2.68110537528992">
			<ele>83.3000030517578</ele>
			<time>2013-12-29T14:03:39Z</time>
		</trkpt>
		<trkpt lat="39.5982093811035" lon="2.68112587928772">
			<ele>83</ele>
			<time>2013-12-29T14:03:40Z</time>
		</trkpt>
		<trkpt lat="39.5981636047363" lon="2.68114852905273">
			<ele>83</ele>
			<time>2013-12-29T14:03:41Z</time>
		</trkpt>
		<trkpt lat="39.5981140136719" lon="2.68116974830627">
			<ele>83</ele>
			<time>2013-12-29T14:03:42Z</time>
		</trkpt>
		<trkpt lat="39.5980682373047" lon="2.68119168281555">
			<ele>83.0999984741211</ele>
			<time>2013-12-29T14:03:43Z</time>
		</trkpt>
		<trkpt lat="39.5980186462402" lon="2.68121385574341">
			<ele>82.8000030517578</ele>
			<time>2013-12-29T14:03:44Z</time>
		</trkpt>
		<trkpt lat="39.5979309082031" lon="2.68125987052917">
			<ele>82.0999984741211</ele>
			<time>2013-12-29T14:03:46Z</time>
		</trkpt>
		<trkpt lat="39.5978851318359" lon="2.68128657341003">
			<ele>82</ele>
			<time>2013-12-29T14:03:47Z</time>
		</trkpt>
		<trkpt lat="39.5978393554688" lon="2.68132448196411">
			<ele>83.4000015258789</ele>
			<time>2013-12-29T14:03:48Z</time>
		</trkpt>
		<trkpt lat="39.5977935791016" lon="2.68134927749634">
			<ele>83.3000030517578</ele>
			<time>2013-12-29T14:03:49Z</time>
		</trkpt>
		<trkpt lat="39.5977554321289" lon="2.68138146400452">
			<ele>83.4000015258789</ele>
			<time>2013-12-29T14:03:50Z</time>
		</trkpt>
		<trkpt lat="39.5977058410645" lon="2.68147683143616">
			<ele>83</ele>
			<time>2013-12-29T14:03:52Z</time>
		</trkpt>
		<trkpt lat="39.5976943969727" lon="2.68153595924377">
			<ele>83.1999969482422</ele>
			<time>2013-12-29T14:03:53Z</time>
		</trkpt>
		<trkpt lat="39.5976638793945" lon="2.68164920806885">
			<ele>83.4000015258789</ele>
			<time>2013-12-29T14:03:55Z</time>
		</trkpt>
		<trkpt lat="39.5976486206055" lon="2.68170714378357">
			<ele>83.1999969482422</ele>
			<time>2013-12-29T14:03:56Z</time>
		</trkpt>
		<trkpt lat="39.5976181030273" lon="2.68180894851685">
			<ele>82.6999969482422</ele>
			<time>2013-12-29T14:03:58Z</time>
		</trkpt>
		<trkpt lat="39.5976066589355" lon="2.68186593055725">
			<ele>82.8000030517578</ele>
			<time>2013-12-29T14:03:59Z</time>
		</trkpt>
		<trkpt lat="39.5975723266602" lon="2.68196892738342">
			<ele>82.4000015258789</ele>
			<time>2013-12-29T14:04:01Z</time>
		</trkpt>
		<trkpt lat="39.5975227355957" lon="2.68205714225769">
			<ele>82.5999984741211</ele>
			<time>2013-12-29T14:04:03Z</time>
		</trkpt>
		<trkpt lat="39.5974884033203" lon="2.68214988708496">
			<ele>83</ele>
			<time>2013-12-29T14:04:05Z</time>
		</trkpt>
		<trkpt lat="39.5974655151367" lon="2.68225383758545">
			<ele>82.8000030517578</ele>
			<time>2013-12-29T14:04:07Z</time>
		</trkpt>
		<trkpt lat="39.5974388122559" lon="2.68236112594604">
			<ele>82.8000030517578</ele>
			<time>2013-12-29T14:04:09Z</time>
		</trkpt>
		<trkpt lat="39.5974235534668" lon="2.68241667747498">
			<ele>82.5999984741211</ele>
			<time>2013-12-29T14:04:10Z</time>
		</trkpt>
		<trkpt lat="39.597412109375" lon="2.68247675895691">
			<ele>82.5</ele>
			<time>2013-12-29T14:04:11Z</time>
		</trkpt>
		<trkpt lat="39.5973968505859" lon="2.68253350257874">
			<ele>82.5999984741211</ele>
			<time>2013-12-29T14:04:12Z</time>
		</trkpt>
		<trkpt lat="39.5973777770996" lon="2.68258881568909">
			<ele>82.4000015258789</ele>
			<time>2013-12-29T14:04:13Z</time>
		</trkpt>
		<trkpt lat="39.5973587036133" lon="2.68264651298523">
			<ele>82.3000030517578</ele>
			<time>2013-12-29T14:04:14Z</time>
		</trkpt>
		<trkpt lat="39.5973434448242" lon="2.68270301818848">
			<ele>82.1999969482422</ele>
			<time>2013-12-29T14:04:15Z</time>
		</trkpt>
		<trkpt lat="39.5973281860352" lon="2.68275833129883">
			<ele>81.5999984741211</ele>
			<time>2013-12-29T14:04:16Z</time>
		</trkpt>
		<trkpt lat="39.597297668457" lon="2.68286871910095">
			<ele>81.5</ele>
			<time>2013-12-29T14:04:18Z</time>
		</trkpt>
		<trkpt lat="39.5972747802734" lon="2.68292379379272">
			<ele>81.5</ele>
			<time>2013-12-29T14:04:19Z</time>
		</trkpt>
		<trkpt lat="39.5972595214844" lon="2.68298101425171">
			<ele>81.6999969482422</ele>
			<time>2013-12-29T14:04:20Z</time>
		</trkpt>
		<trkpt lat="39.597240447998" lon="2.68303728103638">
			<ele>81.8000030517578</ele>
			<time>2013-12-29T14:04:21Z</time>
		</trkpt>
		<trkpt lat="39.5972213745117" lon="2.68309736251831">
			<ele>81.8000030517578</ele>
			<time>2013-12-29T14:04:22Z</time>
		</trkpt>
		<trkpt lat="39.5971870422363" lon="2.6832070350647">
			<ele>81.9000015258789</ele>
			<time>2013-12-29T14:04:24Z</time>
		</trkpt>
		<trkpt lat="39.59716796875" lon="2.68326616287231">
			<ele>82.0999984741211</ele>
			<time>2013-12-29T14:04:25Z</time>
		</trkpt>
		<trkpt lat="39.5971527099609" lon="2.68332505226135">
			<ele>82</ele>
			<time>2013-12-29T14:04:26Z</time>
		</trkpt>
		<trkpt lat="39.5971374511719" lon="2.68338179588318">
			<ele>82.3000030517578</ele>
			<time>2013-12-29T14:04:27Z</time>
		</trkpt>
		<trkpt lat="39.5971183776855" lon="2.68343830108643">
			<ele>82.1999969482422</ele>
			<time>2013-12-29T14:04:28Z</time>
		</trkpt>
		<trkpt lat="39.5970993041992" lon="2.68349289894104">
			<ele>82.1999969482422</ele>
			<time>2013-12-29T14:04:29Z</time>
		</trkpt>
		<trkpt lat="39.5970840454102" lon="2.68354797363281">
			<ele>82.1999969482422</ele>
			<time>2013-12-29T14:04:30Z</time>
		</trkpt>
		<trkpt lat="39.5970649719238" lon="2.68360424041748">
			<ele>82.0999984741211</ele>
			<time>2013-12-29T14:04:31Z</time>
		</trkpt>
		<trkpt lat="39.5970497131348" lon="2.68365955352783">
			<ele>81.9000015258789</ele>
			<time>2013-12-29T14:04:32Z</time>
		</trkpt>
		<trkpt lat="39.5970344543457" lon="2.68371796607971">
			<ele>81.5999984741211</ele>
			<time>2013-12-29T14:04:33Z</time>
		</trkpt>
		<trkpt lat="39.5970153808594" lon="2.68377232551575">
			<ele>81.5999984741211</ele>
			<time>2013-12-29T14:04:34Z</time>
		</trkpt>
		<trkpt lat="39.5970001220703" lon="2.68382692337036">
			<ele>81.4000015258789</ele>
			<time>2013-12-29T14:04:35Z</time>
		</trkpt>
		<trkpt lat="39.596981048584" lon="2.6838858127594">
			<ele>81.5</ele>
			<time>2013-12-29T14:04:36Z</time>
		</trkpt>
		<trkpt lat="39.5969619750977" lon="2.68395042419434">
			<ele>82.3000030517578</ele>
			<time>2013-12-29T14:04:37Z</time>
		</trkpt>
		<trkpt lat="39.5969390869141" lon="2.68401193618774">
			<ele>82.8000030517578</ele>
			<time>2013-12-29T14:04:38Z</time>
		</trkpt>
		<trkpt lat="39.5969390869141" lon="2.68407130241394">
			<ele>83.1999969482422</ele>
			<time>2013-12-29T14:04:39Z</time>
		</trkpt>
		<trkpt lat="39.5969314575195" lon="2.68418216705322">
			<ele>82.6999969482422</ele>
			<time>2013-12-29T14:04:41Z</time>
		</trkpt>
		<trkpt lat="39.5969352722168" lon="2.68424224853516">
			<ele>82.5999984741211</ele>
			<time>2013-12-29T14:04:42Z</time>
		</trkpt>
		<trkpt lat="39.5969581604004" lon="2.68430209159851">
			<ele>82.4000015258789</ele>
			<time>2013-12-29T14:04:43Z</time>
		</trkpt>
		<trkpt lat="39.5969657897949" lon="2.68436145782471">
			<ele>83</ele>
			<time>2013-12-29T14:04:44Z</time>
		</trkpt>
		<trkpt lat="39.5970115661621" lon="2.68446969985962">
			<ele>83.1999969482422</ele>
			<time>2013-12-29T14:04:46Z</time>
		</trkpt>
		<trkpt lat="39.5970497131348" lon="2.68456649780273">
			<ele>83.5</ele>
			<time>2013-12-29T14:04:48Z</time>
		</trkpt>
		<trkpt lat="39.597095489502" lon="2.68466401100159">
			<ele>83.1999969482422</ele>
			<time>2013-12-29T14:04:50Z</time>
		</trkpt>
		<trkpt lat="39.5971336364746" lon="2.68476581573486">
			<ele>83.5999984741211</ele>
			<time>2013-12-29T14:04:52Z</time>
		</trkpt>
		<trkpt lat="39.5971565246582" lon="2.68481731414795">
			<ele>83.8000030517578</ele>
			<time>2013-12-29T14:04:53Z</time>
		</trkpt>
		<trkpt lat="39.5971755981445" lon="2.68487000465393">
			<ele>83.8000030517578</ele>
			<time>2013-12-29T14:04:54Z</time>
		</trkpt>
		<trkpt lat="39.597225189209" lon="2.68497061729431">
			<ele>83.8000030517578</ele>
			<time>2013-12-29T14:04:56Z</time>
		</trkpt>
		<trkpt lat="39.5972480773926" lon="2.68502306938171">
			<ele>83.9000015258789</ele>
			<time>2013-12-29T14:04:57Z</time>
		</trkpt>
		<trkpt lat="39.5972709655762" lon="2.68507409095764">
			<ele>83.6999969482422</ele>
			<time>2013-12-29T14:04:58Z</time>
		</trkpt>
		<trkpt lat="39.597297668457" lon="2.68512511253357">
			<ele>83.5</ele>
			<time>2013-12-29T14:04:59Z</time>
		</trkpt>
		<trkpt lat="39.5973167419434" lon="2.68518018722534">
			<ele>82.6999969482422</ele>
			<time>2013-12-29T14:05:00Z</time>
		</trkpt>
		<trkpt lat="39.597354888916" lon="2.68528485298157">
			<ele>83</ele>
			<time>2013-12-29T14:05:02Z</time>
		</trkpt>
		<trkpt lat="39.5973701477051" lon="2.68539094924927">
			<ele>81.6999969482422</ele>
			<time>2013-12-29T14:05:04Z</time>
		</trkpt>
		<trkpt lat="39.5973014831543" lon="2.68546724319458">
			<ele>82.0999984741211</ele>
			<time>2013-12-29T14:05:06Z</time>
		</trkpt>
		<trkpt lat="39.5972480773926" lon="2.68549108505249">
			<ele>82.3000030517578</ele>
			<time>2013-12-29T14:05:07Z</time>
		</trkpt>
		<trkpt lat="39.5971717834473" lon="2.68553638458252">
			<ele>82.3000030517578</ele>
			<time>2013-12-29T14:05:09Z</time>
		</trkpt>
		<trkpt lat="39.59716796875" lon="2.68559718132019">
			<ele>85.3000030517578</ele>
			<time>2013-12-29T14:05:39Z</time>
		</trkpt>
		<trkpt lat="39.5971870422363" lon="2.68566083908081">
			<ele>83.5</ele>
			<time>2013-12-29T14:05:41Z</time>
		</trkpt>
		<trkpt lat="39.5972175598145" lon="2.68573117256165">
			<ele>82.9000015258789</ele>
			<time>2013-12-29T14:05:44Z</time>
		</trkpt>
		<trkpt lat="39.5972366333008" lon="2.68581652641296">
			<ele>81.6999969482422</ele>
			<time>2013-12-29T14:05:46Z</time>
		</trkpt>
		<trkpt lat="39.5972480773926" lon="2.68590140342712">
			<ele>82.3000030517578</ele>
			<time>2013-12-29T14:05:48Z</time>
		</trkpt>
		<trkpt lat="39.597240447998" lon="2.68598651885986">
			<ele>82.9000015258789</ele>
			<time>2013-12-29T14:05:50Z</time>
		</trkpt>
		<trkpt lat="39.5972480773926" lon="2.68607997894287">
			<ele>83.0999984741211</ele>
			<time>2013-12-29T14:05:52Z</time>
		</trkpt>
		<trkpt lat="39.5972480773926" lon="2.68616580963135">
			<ele>83.0999984741211</ele>
			<time>2013-12-29T14:05:54Z</time>
		</trkpt>
		<trkpt lat="39.5972442626953" lon="2.68624758720398">
			<ele>82.9000015258789</ele>
			<time>2013-12-29T14:05:56Z</time>
		</trkpt>
		<trkpt lat="39.5972023010254" lon="2.68630433082581">
			<ele>82.6999969482422</ele>
			<time>2013-12-29T14:05:57Z</time>
		</trkpt>
		<trkpt lat="39.5971488952637" lon="2.68633246421814">
			<ele>82.0999984741211</ele>
			<time>2013-12-29T14:05:59Z</time>
		</trkpt>
		<trkpt lat="39.5971069335938" lon="2.68640995025635">
			<ele>82.1999969482422</ele>
			<time>2013-12-29T14:06:01Z</time>
		</trkpt>
		<trkpt lat="39.5970726013184" lon="2.68651413917542">
			<ele>81.9000015258789</ele>
			<time>2013-12-29T14:06:03Z</time>
		</trkpt>
		<trkpt lat="39.5970573425293" lon="2.6866147518158">
			<ele>83</ele>
			<time>2013-12-29T14:06:05Z</time>
		</trkpt>
		<trkpt lat="39.5971374511719" lon="2.68667030334473">
			<ele>84.0999984741211</ele>
			<time>2013-12-29T14:06:06Z</time>
		</trkpt>
		<trkpt lat="39.5971488952637" lon="2.68676829338074">
			<ele>82.4000015258789</ele>
			<time>2013-12-29T14:06:08Z</time>
		</trkpt>
		<trkpt lat="39.5971603393555" lon="2.68686294555664">
			<ele>81.6999969482422</ele>
			<time>2013-12-29T14:06:10Z</time>
		</trkpt>
		<trkpt lat="39.5971832275391" lon="2.68695068359375">
			<ele>84.0999984741211</ele>
			<time>2013-12-29T14:06:12Z</time>
		</trkpt>
		<trkpt lat="39.5972023010254" lon="2.68703556060791">
			<ele>83.6999969482422</ele>
			<time>2013-12-29T14:06:14Z</time>
		</trkpt>
		<trkpt lat="39.5972213745117" lon="2.68712949752808">
			<ele>83.4000015258789</ele>
			<time>2013-12-29T14:06:16Z</time>
		</trkpt>
		<trkpt lat="39.5972442626953" lon="2.6872193813324">
			<ele>83.3000030517578</ele>
			<time>2013-12-29T14:06:18Z</time>
		</trkpt>
		<trkpt lat="39.5972633361816" lon="2.68730974197388">
			<ele>82.5999984741211</ele>
			<time>2013-12-29T14:06:20Z</time>
		</trkpt>
		<trkpt lat="39.5972900390625" lon="2.68740272521973">
			<ele>82.8000030517578</ele>
			<time>2013-12-29T14:06:22Z</time>
		</trkpt>
		<trkpt lat="39.5973167419434" lon="2.68749833106995">
			<ele>81.8000030517578</ele>
			<time>2013-12-29T14:06:24Z</time>
		</trkpt>
		<trkpt lat="39.5973320007324" lon="2.68759608268738">
			<ele>82.5</ele>
			<time>2013-12-29T14:06:26Z</time>
		</trkpt>
		<trkpt lat="39.5973587036133" lon="2.68768548965454">
			<ele>82.4000015258789</ele>
			<time>2013-12-29T14:06:28Z</time>
		</trkpt>
		<trkpt lat="39.5973854064941" lon="2.6877715587616">
			<ele>82.8000030517578</ele>
			<time>2013-12-29T14:06:30Z</time>
		</trkpt>
		<trkpt lat="39.5973777770996" lon="2.68785524368286">
			<ele>82.3000030517578</ele>
			<time>2013-12-29T14:06:32Z</time>
		</trkpt>
		<trkpt lat="39.5973091125488" lon="2.68787431716919">
			<ele>81.6999969482422</ele>
			<time>2013-12-29T14:06:34Z</time>
		</trkpt>
		<trkpt lat="39.5972480773926" lon="2.68787503242493">
			<ele>82.5</ele>
			<time>2013-12-29T14:06:35Z</time>
		</trkpt>
		<trkpt lat="39.5971717834473" lon="2.68790149688721">
			<ele>83.6999969482422</ele>
			<time>2013-12-29T14:06:37Z</time>
		</trkpt>
		<trkpt lat="39.5971183776855" lon="2.68793201446533">
			<ele>84.0999984741211</ele>
			<time>2013-12-29T14:06:39Z</time>
		</trkpt>
		<trkpt lat="39.5970687866211" lon="2.68796014785767">
			<ele>83.8000030517578</ele>
			<time>2013-12-29T14:06:41Z</time>
		</trkpt>
		<trkpt lat="39.5970001220703" lon="2.68799996376038">
			<ele>83.1999969482422</ele>
			<time>2013-12-29T14:06:43Z</time>
		</trkpt>
		<trkpt lat="39.5969429016113" lon="2.68803715705872">
			<ele>82.6999969482422</ele>
			<time>2013-12-29T14:06:45Z</time>
		</trkpt>
		<trkpt lat="39.5968704223633" lon="2.6880738735199">
			<ele>82.8000030517578</ele>
			<time>2013-12-29T14:06:47Z</time>
		</trkpt>
		<trkpt lat="39.5967864990234" lon="2.68811631202698">
			<ele>82.3000030517578</ele>
			<time>2013-12-29T14:06:49Z</time>
		</trkpt>
		<trkpt lat="39.5967063903809" lon="2.68815755844116">
			<ele>81.4000015258789</ele>
			<time>2013-12-29T14:06:51Z</time>
		</trkpt>
		<trkpt lat="39.596607208252" lon="2.68821597099304">
			<ele>83.5999984741211</ele>
			<time>2013-12-29T14:06:53Z</time>
		</trkpt>
		<trkpt lat="39.5965576171875" lon="2.6882529258728">
			<ele>84.5999984741211</ele>
			<time>2013-12-29T14:06:54Z</time>
		</trkpt>
		<trkpt lat="39.5965118408203" lon="2.6882848739624">
			<ele>85.1999969482422</ele>
			<time>2013-12-29T14:06:55Z</time>
		</trkpt>
		<trkpt lat="39.5964660644531" lon="2.68832397460938">
			<ele>85.3000030517578</ele>
			<time>2013-12-29T14:06:56Z</time>
		</trkpt>
		<trkpt lat="39.5963897705078" lon="2.68834829330444">
			<ele>84.5</ele>
			<time>2013-12-29T14:06:58Z</time>
		</trkpt>
		<trkpt lat="39.5963478088379" lon="2.6883659362793">
			<ele>84.6999969482422</ele>
			<time>2013-12-29T14:06:59Z</time>
		</trkpt>
		<trkpt lat="39.5962715148926" lon="2.68839597702026">
			<ele>83.9000015258789</ele>
			<time>2013-12-29T14:07:01Z</time>
		</trkpt>
		<trkpt lat="39.5962257385254" lon="2.68842124938965">
			<ele>85</ele>
			<time>2013-12-29T14:07:02Z</time>
		</trkpt>
		<trkpt lat="39.5961456298828" lon="2.68846678733826">
			<ele>86.5999984741211</ele>
			<time>2013-12-29T14:07:04Z</time>
		</trkpt>
		<trkpt lat="39.5960998535156" lon="2.68849205970764">
			<ele>87.0999984741211</ele>
			<time>2013-12-29T14:07:05Z</time>
		</trkpt>
		<trkpt lat="39.5960311889648" lon="2.68852233886719">
			<ele>87.5999984741211</ele>
			<time>2013-12-29T14:07:07Z</time>
		</trkpt>
		<trkpt lat="39.5959587097168" lon="2.68855595588684">
			<ele>87.5</ele>
			<time>2013-12-29T14:07:09Z</time>
		</trkpt>
		<trkpt lat="39.5959014892578" lon="2.68858647346497">
			<ele>87.9000015258789</ele>
			<time>2013-12-29T14:07:10Z</time>
		</trkpt>
		<trkpt lat="39.5958595275879" lon="2.68861627578735">
			<ele>88.9000015258789</ele>
			<time>2013-12-29T14:07:12Z</time>
		</trkpt>
		<trkpt lat="39.5958061218262" lon="2.68861079216003">
			<ele>86.5</ele>
			<time>2013-12-29T14:07:52Z</time>
		</trkpt>
		<trkpt lat="39.5957717895508" lon="2.68864941596985">
			<ele>86.3000030517578</ele>
			<time>2013-12-29T14:07:53Z</time>
		</trkpt>
		<trkpt lat="39.5957298278809" lon="2.68873643875122">
			<ele>85.5</ele>
			<time>2013-12-29T14:07:56Z</time>
		</trkpt>
		<trkpt lat="39.5957260131836" lon="2.68879747390747">
			<ele>85</ele>
			<time>2013-12-29T14:07:57Z</time>
		</trkpt>
		<trkpt lat="39.5957183837891" lon="2.68885684013367">
			<ele>84.6999969482422</ele>
			<time>2013-12-29T14:07:58Z</time>
		</trkpt>
		<trkpt lat="39.5957374572754" lon="2.6889169216156">
			<ele>84.4000015258789</ele>
			<time>2013-12-29T14:07:59Z</time>
		</trkpt>
		<trkpt lat="39.5957527160645" lon="2.68897438049316">
			<ele>84.1999969482422</ele>
			<time>2013-12-29T14:08:00Z</time>
		</trkpt>
		<trkpt lat="39.5957794189453" lon="2.68908286094666">
			<ele>84.1999969482422</ele>
			<time>2013-12-29T14:08:02Z</time>
		</trkpt>
		<trkpt lat="39.5958061218262" lon="2.68918776512146">
			<ele>84</ele>
			<time>2013-12-29T14:08:04Z</time>
		</trkpt>
		<trkpt lat="39.595832824707" lon="2.68928837776184">
			<ele>83</ele>
			<time>2013-12-29T14:08:06Z</time>
		</trkpt>
		<trkpt lat="39.5958518981934" lon="2.68939113616943">
			<ele>82.5999984741211</ele>
			<time>2013-12-29T14:08:08Z</time>
		</trkpt>
		<trkpt lat="39.5958709716797" lon="2.68948817253113">
			<ele>82.3000030517578</ele>
			<time>2013-12-29T14:08:10Z</time>
		</trkpt>
		<trkpt lat="39.5958938598633" lon="2.6895854473114">
			<ele>82.5</ele>
			<time>2013-12-29T14:08:12Z</time>
		</trkpt>
		<trkpt lat="39.5959167480469" lon="2.68967747688293">
			<ele>82.4000015258789</ele>
			<time>2013-12-29T14:08:14Z</time>
		</trkpt>
		<trkpt lat="39.5959396362305" lon="2.68976092338562">
			<ele>82.6999969482422</ele>
			<time>2013-12-29T14:08:16Z</time>
		</trkpt>
		<trkpt lat="39.5959663391113" lon="2.68983840942383">
			<ele>82.9000015258789</ele>
			<time>2013-12-29T14:08:18Z</time>
		</trkpt>
		<trkpt lat="39.5959968566895" lon="2.6899151802063">
			<ele>82.5</ele>
			<time>2013-12-29T14:08:20Z</time>
		</trkpt>
		<trkpt lat="39.5960350036621" lon="2.69000601768494">
			<ele>82.5999984741211</ele>
			<time>2013-12-29T14:08:22Z</time>
		</trkpt>
		<trkpt lat="39.596076965332" lon="2.69009947776794">
			<ele>82.5</ele>
			<time>2013-12-29T14:08:24Z</time>
		</trkpt>
		<trkpt lat="39.5961227416992" lon="2.690190076828">
			<ele>82</ele>
			<time>2013-12-29T14:08:26Z</time>
		</trkpt>
		<trkpt lat="39.5961723327637" lon="2.69027304649353">
			<ele>81.8000030517578</ele>
			<time>2013-12-29T14:08:28Z</time>
		</trkpt>
		<trkpt lat="39.59619140625" lon="2.69037270545959">
			<ele>81.0999984741211</ele>
			<time>2013-12-29T14:08:30Z</time>
		</trkpt>
		<trkpt lat="39.5961418151855" lon="2.69039845466614">
			<ele>80.4000015258789</ele>
			<time>2013-12-29T14:08:31Z</time>
		</trkpt>
		<trkpt lat="39.5960998535156" lon="2.69042825698853">
			<ele>80.3000030517578</ele>
			<time>2013-12-29T14:08:32Z</time>
		</trkpt>
		<trkpt lat="39.5960578918457" lon="2.69045472145081">
			<ele>80.4000015258789</ele>
			<time>2013-12-29T14:08:33Z</time>
		</trkpt>
		<trkpt lat="39.5960159301758" lon="2.69048190116882">
			<ele>79.9000015258789</ele>
			<time>2013-12-29T14:08:34Z</time>
		</trkpt>
		<trkpt lat="39.5959739685059" lon="2.69050478935242">
			<ele>79.5999984741211</ele>
			<time>2013-12-29T14:08:35Z</time>
		</trkpt>
		<trkpt lat="39.595890045166" lon="2.69055318832397">
			<ele>79.0999984741211</ele>
			<time>2013-12-29T14:08:37Z</time>
		</trkpt>
		<trkpt lat="39.5958480834961" lon="2.6905825138092">
			<ele>79</ele>
			<time>2013-12-29T14:08:38Z</time>
		</trkpt>
		<trkpt lat="39.5957984924316" lon="2.69060683250427">
			<ele>79.1999969482422</ele>
			<time>2013-12-29T14:08:39Z</time>
		</trkpt>
		<trkpt lat="39.5957221984863" lon="2.69063758850098">
			<ele>79.1999969482422</ele>
			<time>2013-12-29T14:08:41Z</time>
		</trkpt>
		<trkpt lat="39.595645904541" lon="2.69068193435669">
			<ele>78.5</ele>
			<time>2013-12-29T14:08:43Z</time>
		</trkpt>
		<trkpt lat="39.5955657958984" lon="2.69070219993591">
			<ele>78.5999984741211</ele>
			<time>2013-12-29T14:08:45Z</time>
		</trkpt>
		<trkpt lat="39.5954895019531" lon="2.69073700904846">
			<ele>78</ele>
			<time>2013-12-29T14:08:47Z</time>
		</trkpt>
		<trkpt lat="39.5954093933105" lon="2.69078660011292">
			<ele>78.0999984741211</ele>
			<time>2013-12-29T14:08:49Z</time>
		</trkpt>
		<trkpt lat="39.595329284668" lon="2.69082760810852">
			<ele>78</ele>
			<time>2013-12-29T14:08:51Z</time>
		</trkpt>
		<trkpt lat="39.5952415466309" lon="2.69086766242981">
			<ele>77.6999969482422</ele>
			<time>2013-12-29T14:08:53Z</time>
		</trkpt>
		<trkpt lat="39.5951995849609" lon="2.69088816642761">
			<ele>77.5</ele>
			<time>2013-12-29T14:08:54Z</time>
		</trkpt>
		<trkpt lat="39.595157623291" lon="2.69090747833252">
			<ele>77.5</ele>
			<time>2013-12-29T14:08:55Z</time>
		</trkpt>
		<trkpt lat="39.5951118469238" lon="2.69092988967896">
			<ele>77.3000030517578</ele>
			<time>2013-12-29T14:08:56Z</time>
		</trkpt>
		<trkpt lat="39.5950660705566" lon="2.69095325469971">
			<ele>77.0999984741211</ele>
			<time>2013-12-29T14:08:57Z</time>
		</trkpt>
		<trkpt lat="39.5950202941895" lon="2.69097495079041">
			<ele>77.3000030517578</ele>
			<time>2013-12-29T14:08:58Z</time>
		</trkpt>
		<trkpt lat="39.5949783325195" lon="2.69099497795105">
			<ele>76.9000015258789</ele>
			<time>2013-12-29T14:08:59Z</time>
		</trkpt>
		<trkpt lat="39.5948867797852" lon="2.69102644920349">
			<ele>75.4000015258789</ele>
			<time>2013-12-29T14:09:01Z</time>
		</trkpt>
		<trkpt lat="39.594841003418" lon="2.69104671478271">
			<ele>75.4000015258789</ele>
			<time>2013-12-29T14:09:02Z</time>
		</trkpt>
		<trkpt lat="39.5947952270508" lon="2.69107151031494">
			<ele>75.5999984741211</ele>
			<time>2013-12-29T14:09:03Z</time>
		</trkpt>
		<trkpt lat="39.5947456359863" lon="2.69109177589417">
			<ele>75.6999969482422</ele>
			<time>2013-12-29T14:09:04Z</time>
		</trkpt>
		<trkpt lat="39.5946998596191" lon="2.69111442565918">
			<ele>76</ele>
			<time>2013-12-29T14:09:05Z</time>
		</trkpt>
		<trkpt lat="39.5946502685547" lon="2.69113850593567">
			<ele>76.1999969482422</ele>
			<time>2013-12-29T14:09:06Z</time>
		</trkpt>
		<trkpt lat="39.5946006774902" lon="2.691162109375">
			<ele>76.1999969482422</ele>
			<time>2013-12-29T14:09:07Z</time>
		</trkpt>
		<trkpt lat="39.5945510864258" lon="2.6911826133728">
			<ele>76.0999984741211</ele>
			<time>2013-12-29T14:09:08Z</time>
		</trkpt>
		<trkpt lat="39.5945053100586" lon="2.69120335578918">
			<ele>76.0999984741211</ele>
			<time>2013-12-29T14:09:09Z</time>
		</trkpt>
		<trkpt lat="39.5944557189941" lon="2.6912248134613">
			<ele>76.4000015258789</ele>
			<time>2013-12-29T14:09:10Z</time>
		</trkpt>
		<trkpt lat="39.5944061279297" lon="2.69124674797058">
			<ele>76.5</ele>
			<time>2013-12-29T14:09:11Z</time>
		</trkpt>
		<trkpt lat="39.594352722168" lon="2.6912784576416">
			<ele>77.8000030517578</ele>
			<time>2013-12-29T14:09:12Z</time>
		</trkpt>
		<trkpt lat="39.5943031311035" lon="2.69130229949951">
			<ele>77.6999969482422</ele>
			<time>2013-12-29T14:09:13Z</time>
		</trkpt>
		<trkpt lat="39.5942535400391" lon="2.69133019447327">
			<ele>78.1999969482422</ele>
			<time>2013-12-29T14:09:14Z</time>
		</trkpt>
		<trkpt lat="39.5942039489746" lon="2.69135403633118">
			<ele>78.1999969482422</ele>
			<time>2013-12-29T14:09:15Z</time>
		</trkpt>
		<trkpt lat="39.5941581726074" lon="2.6913788318634">
			<ele>78.1999969482422</ele>
			<time>2013-12-29T14:09:16Z</time>
		</trkpt>
		<trkpt lat="39.5941123962402" lon="2.6914005279541">
			<ele>78.3000030517578</ele>
			<time>2013-12-29T14:09:17Z</time>
		</trkpt>
		<trkpt lat="39.594066619873" lon="2.69141435623169">
			<ele>78.1999969482422</ele>
			<time>2013-12-29T14:09:18Z</time>
		</trkpt>
		<trkpt lat="39.5940246582031" lon="2.69143319129944">
			<ele>78.3000030517578</ele>
			<time>2013-12-29T14:09:19Z</time>
		</trkpt>
		<trkpt lat="39.5939750671387" lon="2.69145250320435">
			<ele>77.9000015258789</ele>
			<time>2013-12-29T14:09:20Z</time>
		</trkpt>
		<trkpt lat="39.5939292907715" lon="2.69146966934204">
			<ele>77.5999984741211</ele>
			<time>2013-12-29T14:09:21Z</time>
		</trkpt>
		<trkpt lat="39.593879699707" lon="2.69149279594421">
			<ele>78.1999969482422</ele>
			<time>2013-12-29T14:09:22Z</time>
		</trkpt>
		<trkpt lat="39.5938339233398" lon="2.69151782989502">
			<ele>78</ele>
			<time>2013-12-29T14:09:23Z</time>
		</trkpt>
		<trkpt lat="39.5937919616699" lon="2.69154572486877">
			<ele>78.1999969482422</ele>
			<time>2013-12-29T14:09:24Z</time>
		</trkpt>
		<trkpt lat="39.5937118530273" lon="2.69159746170044">
			<ele>78.8000030517578</ele>
			<time>2013-12-29T14:09:26Z</time>
		</trkpt>
		<trkpt lat="39.5936660766602" lon="2.69161820411682">
			<ele>78.9000015258789</ele>
			<time>2013-12-29T14:09:27Z</time>
		</trkpt>
		<trkpt lat="39.5935821533203" lon="2.69165205955505">
			<ele>78.5</ele>
			<time>2013-12-29T14:09:29Z</time>
		</trkpt>
		<trkpt lat="39.5934982299805" lon="2.69168901443481">
			<ele>78.5999984741211</ele>
			<time>2013-12-29T14:09:31Z</time>
		</trkpt>
		<trkpt lat="39.5934524536133" lon="2.69170570373535">
			<ele>78.5</ele>
			<time>2013-12-29T14:09:32Z</time>
		</trkpt>
		<trkpt lat="39.5934066772461" lon="2.69172549247742">
			<ele>78.5999984741211</ele>
			<time>2013-12-29T14:09:33Z</time>
		</trkpt>
		<trkpt lat="39.593318939209" lon="2.69177031517029">
			<ele>78.6999969482422</ele>
			<time>2013-12-29T14:09:35Z</time>
		</trkpt>
		<trkpt lat="39.5932769775391" lon="2.69179272651672">
			<ele>78.8000030517578</ele>
			<time>2013-12-29T14:09:36Z</time>
		</trkpt>
		<trkpt lat="39.5932350158691" lon="2.691810131073">
			<ele>78.8000030517578</ele>
			<time>2013-12-29T14:09:37Z</time>
		</trkpt>
		<trkpt lat="39.593189239502" lon="2.69183158874512">
			<ele>79.0999984741211</ele>
			<time>2013-12-29T14:09:38Z</time>
		</trkpt>
		<trkpt lat="39.5931015014648" lon="2.69186210632324">
			<ele>79.1999969482422</ele>
			<time>2013-12-29T14:09:40Z</time>
		</trkpt>
		<trkpt lat="39.5930595397949" lon="2.69187760353088">
			<ele>79.3000030517578</ele>
			<time>2013-12-29T14:09:41Z</time>
		</trkpt>
		<trkpt lat="39.5929794311523" lon="2.69191765785217">
			<ele>79.3000030517578</ele>
			<time>2013-12-29T14:09:43Z</time>
		</trkpt>
		<trkpt lat="39.592903137207" lon="2.69196057319641">
			<ele>79.5</ele>
			<time>2013-12-29T14:09:45Z</time>
		</trkpt>
		<trkpt lat="39.5928268432617" lon="2.69199800491333">
			<ele>79.4000015258789</ele>
			<time>2013-12-29T14:09:47Z</time>
		</trkpt>
		<trkpt lat="39.5927429199219" lon="2.69202971458435">
			<ele>79</ele>
			<time>2013-12-29T14:09:49Z</time>
		</trkpt>
		<trkpt lat="39.592658996582" lon="2.6920690536499">
			<ele>78.5</ele>
			<time>2013-12-29T14:09:51Z</time>
		</trkpt>
		<trkpt lat="39.5926170349121" lon="2.69209122657776">
			<ele>78.5999984741211</ele>
			<time>2013-12-29T14:09:52Z</time>
		</trkpt>
		<trkpt lat="39.5925712585449" lon="2.69211006164551">
			<ele>78.4000015258789</ele>
			<time>2013-12-29T14:09:53Z</time>
		</trkpt>
		<trkpt lat="39.592529296875" lon="2.69212508201599">
			<ele>78.3000030517578</ele>
			<time>2013-12-29T14:09:54Z</time>
		</trkpt>
		<trkpt lat="39.5924835205078" lon="2.69214415550232">
			<ele>78.0999984741211</ele>
			<time>2013-12-29T14:09:55Z</time>
		</trkpt>
		<trkpt lat="39.5924377441406" lon="2.69216108322144">
			<ele>77.8000030517578</ele>
			<time>2013-12-29T14:09:56Z</time>
		</trkpt>
		<trkpt lat="39.5923957824707" lon="2.6921820640564">
			<ele>77.5999984741211</ele>
			<time>2013-12-29T14:09:57Z</time>
		</trkpt>
		<trkpt lat="39.5923461914063" lon="2.69220566749573">
			<ele>77.5</ele>
			<time>2013-12-29T14:09:58Z</time>
		</trkpt>
		<trkpt lat="39.5923042297363" lon="2.69222593307495">
			<ele>77.6999969482422</ele>
			<time>2013-12-29T14:09:59Z</time>
		</trkpt>
		<trkpt lat="39.5922546386719" lon="2.69224786758423">
			<ele>77.5</ele>
			<time>2013-12-29T14:10:00Z</time>
		</trkpt>
		<trkpt lat="39.5922088623047" lon="2.69227027893066">
			<ele>77.5</ele>
			<time>2013-12-29T14:10:01Z</time>
		</trkpt>
		<trkpt lat="39.5921630859375" lon="2.69229245185852">
			<ele>77.6999969482422</ele>
			<time>2013-12-29T14:10:02Z</time>
		</trkpt>
		<trkpt lat="39.5921173095703" lon="2.69231772422791">
			<ele>77.5999984741211</ele>
			<time>2013-12-29T14:10:03Z</time>
		</trkpt>
		<trkpt lat="39.5920715332031" lon="2.6923406124115">
			<ele>77.4000015258789</ele>
			<time>2013-12-29T14:10:04Z</time>
		</trkpt>
		<trkpt lat="39.5920257568359" lon="2.69236302375793">
			<ele>77.3000030517578</ele>
			<time>2013-12-29T14:10:05Z</time>
		</trkpt>
		<trkpt lat="39.5919761657715" lon="2.69238305091858">
			<ele>77.4000015258789</ele>
			<time>2013-12-29T14:10:06Z</time>
		</trkpt>
		<trkpt lat="39.5919303894043" lon="2.69241046905518">
			<ele>77.4000015258789</ele>
			<time>2013-12-29T14:10:07Z</time>
		</trkpt>
		<trkpt lat="39.5918846130371" lon="2.69243025779724">
			<ele>77.1999969482422</ele>
			<time>2013-12-29T14:10:08Z</time>
		</trkpt>
		<trkpt lat="39.5918350219727" lon="2.69245171546936">
			<ele>77.1999969482422</ele>
			<time>2013-12-29T14:10:09Z</time>
		</trkpt>
		<trkpt lat="39.5917892456055" lon="2.6924729347229">
			<ele>77.0999984741211</ele>
			<time>2013-12-29T14:10:10Z</time>
		</trkpt>
		<trkpt lat="39.591739654541" lon="2.69249510765076">
			<ele>76.9000015258789</ele>
			<time>2013-12-29T14:10:11Z</time>
		</trkpt>
		<trkpt lat="39.5916900634766" lon="2.6925196647644">
			<ele>76.9000015258789</ele>
			<time>2013-12-29T14:10:12Z</time>
		</trkpt>
		<trkpt lat="39.5916442871094" lon="2.69253849983215">
			<ele>76.5999984741211</ele>
			<time>2013-12-29T14:10:13Z</time>
		</trkpt>
		<trkpt lat="39.5915946960449" lon="2.69256377220154">
			<ele>76.5999984741211</ele>
			<time>2013-12-29T14:10:14Z</time>
		</trkpt>
		<trkpt lat="39.5915412902832" lon="2.69258785247803">
			<ele>76.3000030517578</ele>
			<time>2013-12-29T14:10:15Z</time>
		</trkpt>
		<trkpt lat="39.5914916992188" lon="2.69260883331299">
			<ele>76.4000015258789</ele>
			<time>2013-12-29T14:10:16Z</time>
		</trkpt>
		<trkpt lat="39.591438293457" lon="2.69263505935669">
			<ele>76.4000015258789</ele>
			<time>2013-12-29T14:10:17Z</time>
		</trkpt>
		<trkpt lat="39.5913887023926" lon="2.69265937805176">
			<ele>76.3000030517578</ele>
			<time>2013-12-29T14:10:18Z</time>
		</trkpt>
		<trkpt lat="39.5913352966309" lon="2.69268250465393">
			<ele>76.4000015258789</ele>
			<time>2013-12-29T14:10:19Z</time>
		</trkpt>
		<trkpt lat="39.5912857055664" lon="2.692706823349">
			<ele>76.4000015258789</ele>
			<time>2013-12-29T14:10:20Z</time>
		</trkpt>
		<trkpt lat="39.591236114502" lon="2.6927273273468">
			<ele>76.5</ele>
			<time>2013-12-29T14:10:21Z</time>
		</trkpt>
		<trkpt lat="39.5911827087402" lon="2.69275212287903">
			<ele>76.5</ele>
			<time>2013-12-29T14:10:22Z</time>
		</trkpt>
		<trkpt lat="39.5911293029785" lon="2.69277715682983">
			<ele>76.3000030517578</ele>
			<time>2013-12-29T14:10:23Z</time>
		</trkpt>
		<trkpt lat="39.5910797119141" lon="2.69280409812927">
			<ele>76.1999969482422</ele>
			<time>2013-12-29T14:10:24Z</time>
		</trkpt>
		<trkpt lat="39.5910301208496" lon="2.69282937049866">
			<ele>76.0999984741211</ele>
			<time>2013-12-29T14:10:25Z</time>
		</trkpt>
		<trkpt lat="39.5909767150879" lon="2.69285535812378">
			<ele>76.3000030517578</ele>
			<time>2013-12-29T14:10:26Z</time>
		</trkpt>
		<trkpt lat="39.5909233093262" lon="2.69288086891174">
			<ele>76.3000030517578</ele>
			<time>2013-12-29T14:10:27Z</time>
		</trkpt>
		<trkpt lat="39.5908737182617" lon="2.69290566444397">
			<ele>76.3000030517578</ele>
			<time>2013-12-29T14:10:28Z</time>
		</trkpt>
		<trkpt lat="39.5908203125" lon="2.69292664527893">
			<ele>76</ele>
			<time>2013-12-29T14:10:29Z</time>
		</trkpt>
		<trkpt lat="39.590763092041" lon="2.69293880462646">
			<ele>76</ele>
			<time>2013-12-29T14:10:30Z</time>
		</trkpt>
		<trkpt lat="39.5907096862793" lon="2.69295215606689">
			<ele>76.1999969482422</ele>
			<time>2013-12-29T14:10:31Z</time>
		</trkpt>
		<trkpt lat="39.5906524658203" lon="2.69295477867126">
			<ele>76.3000030517578</ele>
			<time>2013-12-29T14:10:32Z</time>
		</trkpt>
		<trkpt lat="39.5905952453613" lon="2.69296073913574">
			<ele>76.1999969482422</ele>
			<time>2013-12-29T14:10:33Z</time>
		</trkpt>
		<trkpt lat="39.5905418395996" lon="2.69296646118164">
			<ele>76.0999984741211</ele>
			<time>2013-12-29T14:10:34Z</time>
		</trkpt>
		<trkpt lat="39.5904846191406" lon="2.6929771900177">
			<ele>75.8000030517578</ele>
			<time>2013-12-29T14:10:35Z</time>
		</trkpt>
		<trkpt lat="39.5904312133789" lon="2.69298958778381">
			<ele>75.8000030517578</ele>
			<time>2013-12-29T14:10:36Z</time>
		</trkpt>
		<trkpt lat="39.5903778076172" lon="2.69300270080566">
			<ele>75.5999984741211</ele>
			<time>2013-12-29T14:10:37Z</time>
		</trkpt>
		<trkpt lat="39.5903205871582" lon="2.69301223754883">
			<ele>75.5999984741211</ele>
			<time>2013-12-29T14:10:38Z</time>
		</trkpt>
		<trkpt lat="39.5902709960938" lon="2.69302368164063">
			<ele>75.5</ele>
			<time>2013-12-29T14:10:39Z</time>
		</trkpt>
		<trkpt lat="39.5902214050293" lon="2.69303250312805">
			<ele>75.4000015258789</ele>
			<time>2013-12-29T14:10:40Z</time>
		</trkpt>
		<trkpt lat="39.5901679992676" lon="2.69304299354553">
			<ele>75.3000030517578</ele>
			<time>2013-12-29T14:10:41Z</time>
		</trkpt>
		<trkpt lat="39.5901107788086" lon="2.69305181503296">
			<ele>75.1999969482422</ele>
			<time>2013-12-29T14:10:42Z</time>
		</trkpt>
		<trkpt lat="39.5900573730469" lon="2.69306397438049">
			<ele>74.9000015258789</ele>
			<time>2013-12-29T14:10:43Z</time>
		</trkpt>
		<trkpt lat="39.5900039672852" lon="2.69307637214661">
			<ele>75.0999984741211</ele>
			<time>2013-12-29T14:10:44Z</time>
		</trkpt>
		<trkpt lat="39.5899505615234" lon="2.69308710098267">
			<ele>75.0999984741211</ele>
			<time>2013-12-29T14:10:45Z</time>
		</trkpt>
		<trkpt lat="39.5898933410645" lon="2.69309639930725">
			<ele>74.9000015258789</ele>
			<time>2013-12-29T14:10:46Z</time>
		</trkpt>
		<trkpt lat="39.5898399353027" lon="2.69310975074768">
			<ele>75</ele>
			<time>2013-12-29T14:10:47Z</time>
		</trkpt>
		<trkpt lat="39.5897903442383" lon="2.69312357902527">
			<ele>74.8000030517578</ele>
			<time>2013-12-29T14:10:48Z</time>
		</trkpt>
		<trkpt lat="39.5897369384766" lon="2.69313454627991">
			<ele>74.6999969482422</ele>
			<time>2013-12-29T14:10:49Z</time>
		</trkpt>
		<trkpt lat="39.5896835327148" lon="2.6931414604187">
			<ele>74.5999984741211</ele>
			<time>2013-12-29T14:10:50Z</time>
		</trkpt>
		<trkpt lat="39.5896301269531" lon="2.69315123558044">
			<ele>74.4000015258789</ele>
			<time>2013-12-29T14:10:51Z</time>
		</trkpt>
		<trkpt lat="39.5895729064941" lon="2.69315648078918">
			<ele>74</ele>
			<time>2013-12-29T14:10:52Z</time>
		</trkpt>
		<trkpt lat="39.5895156860352" lon="2.69316339492798">
			<ele>73.9000015258789</ele>
			<time>2013-12-29T14:10:53Z</time>
		</trkpt>
		<trkpt lat="39.5894622802734" lon="2.69317364692688">
			<ele>73.9000015258789</ele>
			<time>2013-12-29T14:10:54Z</time>
		</trkpt>
		<trkpt lat="39.5894088745117" lon="2.69318103790283">
			<ele>73.6999969482422</ele>
			<time>2013-12-29T14:10:55Z</time>
		</trkpt>
		<trkpt lat="39.58935546875" lon="2.69319248199463">
			<ele>73.5</ele>
			<time>2013-12-29T14:10:56Z</time>
		</trkpt>
		<trkpt lat="39.589298248291" lon="2.69320297241211">
			<ele>73.4000015258789</ele>
			<time>2013-12-29T14:10:57Z</time>
		</trkpt>
		<trkpt lat="39.5892486572266" lon="2.69321370124817">
			<ele>73.3000030517578</ele>
			<time>2013-12-29T14:10:58Z</time>
		</trkpt>
		<trkpt lat="39.5891952514648" lon="2.69322490692139">
			<ele>73.0999984741211</ele>
			<time>2013-12-29T14:10:59Z</time>
		</trkpt>
		<trkpt lat="39.5891456604004" lon="2.69323563575745">
			<ele>73</ele>
			<time>2013-12-29T14:11:00Z</time>
		</trkpt>
		<trkpt lat="39.5890922546387" lon="2.69324684143066">
			<ele>72.9000015258789</ele>
			<time>2013-12-29T14:11:01Z</time>
		</trkpt>
		<trkpt lat="39.589038848877" lon="2.69325733184814">
			<ele>72.9000015258789</ele>
			<time>2013-12-29T14:11:02Z</time>
		</trkpt>
		<trkpt lat="39.5889892578125" lon="2.69326734542847">
			<ele>72.8000030517578</ele>
			<time>2013-12-29T14:11:03Z</time>
		</trkpt>
		<trkpt lat="39.5889358520508" lon="2.69327473640442">
			<ele>73</ele>
			<time>2013-12-29T14:11:04Z</time>
		</trkpt>
		<trkpt lat="39.5888824462891" lon="2.69328260421753">
			<ele>72.8000030517578</ele>
			<time>2013-12-29T14:11:05Z</time>
		</trkpt>
		<trkpt lat="39.5888252258301" lon="2.69329214096069">
			<ele>72.8000030517578</ele>
			<time>2013-12-29T14:11:06Z</time>
		</trkpt>
		<trkpt lat="39.5887756347656" lon="2.69330358505249">
			<ele>73</ele>
			<time>2013-12-29T14:11:07Z</time>
		</trkpt>
		<trkpt lat="39.5887184143066" lon="2.6933159828186">
			<ele>72.6999969482422</ele>
			<time>2013-12-29T14:11:08Z</time>
		</trkpt>
		<trkpt lat="39.5886688232422" lon="2.69332885742188">
			<ele>72.9000015258789</ele>
			<time>2013-12-29T14:11:09Z</time>
		</trkpt>
		<trkpt lat="39.5886192321777" lon="2.69333934783936">
			<ele>73.0999984741211</ele>
			<time>2013-12-29T14:11:10Z</time>
		</trkpt>
		<trkpt lat="39.5885696411133" lon="2.6933479309082">
			<ele>72.9000015258789</ele>
			<time>2013-12-29T14:11:11Z</time>
		</trkpt>
		<trkpt lat="39.5885162353516" lon="2.69335961341858">
			<ele>73</ele>
			<time>2013-12-29T14:11:12Z</time>
		</trkpt>
		<trkpt lat="39.5884666442871" lon="2.69336462020874">
			<ele>73</ele>
			<time>2013-12-29T14:11:13Z</time>
		</trkpt>
		<trkpt lat="39.5884132385254" lon="2.69337487220764">
			<ele>72.5999984741211</ele>
			<time>2013-12-29T14:11:14Z</time>
		</trkpt>
		<trkpt lat="39.5883598327637" lon="2.69338393211365">
			<ele>72.5</ele>
			<time>2013-12-29T14:11:15Z</time>
		</trkpt>
		<trkpt lat="39.588306427002" lon="2.69339561462402">
			<ele>72.4000015258789</ele>
			<time>2013-12-29T14:11:16Z</time>
		</trkpt>
		<trkpt lat="39.5882530212402" lon="2.69340062141418">
			<ele>72.4000015258789</ele>
			<time>2013-12-29T14:11:17Z</time>
		</trkpt>
		<trkpt lat="39.5881996154785" lon="2.6934072971344">
			<ele>72.4000015258789</ele>
			<time>2013-12-29T14:11:18Z</time>
		</trkpt>
		<trkpt lat="39.5881500244141" lon="2.69341635704041">
			<ele>72.4000015258789</ele>
			<time>2013-12-29T14:11:19Z</time>
		</trkpt>
		<trkpt lat="39.5880966186523" lon="2.69342756271362">
			<ele>72.1999969482422</ele>
			<time>2013-12-29T14:11:20Z</time>
		</trkpt>
		<trkpt lat="39.5880432128906" lon="2.69344043731689">
			<ele>72</ele>
			<time>2013-12-29T14:11:21Z</time>
		</trkpt>
		<trkpt lat="39.5879936218262" lon="2.69344854354858">
			<ele>72.0999984741211</ele>
			<time>2013-12-29T14:11:22Z</time>
		</trkpt>
		<trkpt lat="39.5879402160645" lon="2.69345426559448">
			<ele>71.9000015258789</ele>
			<time>2013-12-29T14:11:23Z</time>
		</trkpt>
		<trkpt lat="39.5878868103027" lon="2.69346141815186">
			<ele>71.8000030517578</ele>
			<time>2013-12-29T14:11:24Z</time>
		</trkpt>
		<trkpt lat="39.5878372192383" lon="2.69346952438354">
			<ele>71.5999984741211</ele>
			<time>2013-12-29T14:11:25Z</time>
		</trkpt>
		<trkpt lat="39.5877838134766" lon="2.69347810745239">
			<ele>71.5</ele>
			<time>2013-12-29T14:11:26Z</time>
		</trkpt>
		<trkpt lat="39.5877304077148" lon="2.69348883628845">
			<ele>71.4000015258789</ele>
			<time>2013-12-29T14:11:27Z</time>
		</trkpt>
		<trkpt lat="39.5876770019531" lon="2.69349884986877">
			<ele>71.5</ele>
			<time>2013-12-29T14:11:28Z</time>
		</trkpt>
		<trkpt lat="39.5876235961914" lon="2.69351005554199">
			<ele>71.8000030517578</ele>
			<time>2013-12-29T14:11:29Z</time>
		</trkpt>
		<trkpt lat="39.5875701904297" lon="2.69352054595947">
			<ele>71.6999969482422</ele>
			<time>2013-12-29T14:11:30Z</time>
		</trkpt>
		<trkpt lat="39.587516784668" lon="2.69352579116821">
			<ele>71.8000030517578</ele>
			<time>2013-12-29T14:11:31Z</time>
		</trkpt>
		<trkpt lat="39.5874671936035" lon="2.69352984428406">
			<ele>71.6999969482422</ele>
			<time>2013-12-29T14:11:32Z</time>
		</trkpt>
		<trkpt lat="39.5874137878418" lon="2.69353151321411">
			<ele>72.0999984741211</ele>
			<time>2013-12-29T14:11:33Z</time>
		</trkpt>
		<trkpt lat="39.5873565673828" lon="2.69354152679443">
			<ele>71.6999969482422</ele>
			<time>2013-12-29T14:11:34Z</time>
		</trkpt>
		<trkpt lat="39.5873031616211" lon="2.69354963302612">
			<ele>71.5</ele>
			<time>2013-12-29T14:11:35Z</time>
		</trkpt>
		<trkpt lat="39.5872459411621" lon="2.69355392456055">
			<ele>71.5</ele>
			<time>2013-12-29T14:11:36Z</time>
		</trkpt>
		<trkpt lat="39.5871887207031" lon="2.69356083869934">
			<ele>71.5</ele>
			<time>2013-12-29T14:11:37Z</time>
		</trkpt>
		<trkpt lat="39.5871353149414" lon="2.69356513023376">
			<ele>71.5999984741211</ele>
			<time>2013-12-29T14:11:38Z</time>
		</trkpt>
		<trkpt lat="39.5870819091797" lon="2.69357538223267">
			<ele>71.5</ele>
			<time>2013-12-29T14:11:39Z</time>
		</trkpt>
		<trkpt lat="39.5870246887207" lon="2.69358611106873">
			<ele>71.5</ele>
			<time>2013-12-29T14:11:40Z</time>
		</trkpt>
		<trkpt lat="39.5869674682617" lon="2.69359731674194">
			<ele>71.3000030517578</ele>
			<time>2013-12-29T14:11:41Z</time>
		</trkpt>
		<trkpt lat="39.5869140625" lon="2.69360327720642">
			<ele>71.3000030517578</ele>
			<time>2013-12-29T14:11:42Z</time>
		</trkpt>
		<trkpt lat="39.586856842041" lon="2.69361066818237">
			<ele>71.4000015258789</ele>
			<time>2013-12-29T14:11:43Z</time>
		</trkpt>
		<trkpt lat="39.5868034362793" lon="2.69361662864685">
			<ele>71.6999969482422</ele>
			<time>2013-12-29T14:11:44Z</time>
		</trkpt>
		<trkpt lat="39.5867500305176" lon="2.69362187385559">
			<ele>71.4000015258789</ele>
			<time>2013-12-29T14:11:45Z</time>
		</trkpt>
		<trkpt lat="39.5866966247559" lon="2.69362664222717">
			<ele>71.4000015258789</ele>
			<time>2013-12-29T14:11:46Z</time>
		</trkpt>
		<trkpt lat="39.5866432189941" lon="2.69363260269165">
			<ele>71.5</ele>
			<time>2013-12-29T14:11:47Z</time>
		</trkpt>
		<trkpt lat="39.5865898132324" lon="2.69364070892334">
			<ele>71.1999969482422</ele>
			<time>2013-12-29T14:11:48Z</time>
		</trkpt>
		<trkpt lat="39.5865364074707" lon="2.69364809989929">
			<ele>71.0999984741211</ele>
			<time>2013-12-29T14:11:49Z</time>
		</trkpt>
		<trkpt lat="39.5864868164063" lon="2.69365382194519">
			<ele>70.9000015258789</ele>
			<time>2013-12-29T14:11:50Z</time>
		</trkpt>
		<trkpt lat="39.5864334106445" lon="2.69365787506104">
			<ele>70.5</ele>
			<time>2013-12-29T14:11:51Z</time>
		</trkpt>
		<trkpt lat="39.5863800048828" lon="2.69366335868835">
			<ele>71.3000030517578</ele>
			<time>2013-12-29T14:11:52Z</time>
		</trkpt>
		<trkpt lat="39.5863304138184" lon="2.69366765022278">
			<ele>71.1999969482422</ele>
			<time>2013-12-29T14:11:53Z</time>
		</trkpt>
		<trkpt lat="39.5862770080566" lon="2.69367337226868">
			<ele>71</ele>
			<time>2013-12-29T14:11:54Z</time>
		</trkpt>
		<trkpt lat="39.5862274169922" lon="2.69367933273315">
			<ele>71.0999984741211</ele>
			<time>2013-12-29T14:11:55Z</time>
		</trkpt>
		<trkpt lat="39.5861740112305" lon="2.69368743896484">
			<ele>70.9000015258789</ele>
			<time>2013-12-29T14:11:56Z</time>
		</trkpt>
		<trkpt lat="39.586124420166" lon="2.69369077682495">
			<ele>70.5999984741211</ele>
			<time>2013-12-29T14:11:57Z</time>
		</trkpt>
		<trkpt lat="39.5860786437988" lon="2.69369435310364">
			<ele>70.5</ele>
			<time>2013-12-29T14:11:58Z</time>
		</trkpt>
		<trkpt lat="39.5860290527344" lon="2.69370198249817">
			<ele>70.6999969482422</ele>
			<time>2013-12-29T14:11:59Z</time>
		</trkpt>
		<trkpt lat="39.5859832763672" lon="2.69370889663696">
			<ele>70.5999984741211</ele>
			<time>2013-12-29T14:12:00Z</time>
		</trkpt>
		<trkpt lat="39.5859375" lon="2.6937153339386">
			<ele>70.4000015258789</ele>
			<time>2013-12-29T14:12:01Z</time>
		</trkpt>
		<trkpt lat="39.5858612060547" lon="2.69372248649597">
			<ele>70.6999969482422</ele>
			<time>2013-12-29T14:12:03Z</time>
		</trkpt>
		<trkpt lat="39.5857887268066" lon="2.69372868537903">
			<ele>70.5999984741211</ele>
			<time>2013-12-29T14:12:05Z</time>
		</trkpt>
		<trkpt lat="39.5857315063477" lon="2.69373893737793">
			<ele>70.6999969482422</ele>
			<time>2013-12-29T14:12:07Z</time>
		</trkpt>
		<trkpt lat="39.5856781005859" lon="2.69377517700195">
			<ele>70.6999969482422</ele>
			<time>2013-12-29T14:12:09Z</time>
		</trkpt>
		<trkpt lat="39.5856628417969" lon="2.69385957717896">
			<ele>71.1999969482422</ele>
			<time>2013-12-29T14:12:11Z</time>
		</trkpt>
		<trkpt lat="39.5856895446777" lon="2.69395399093628">
			<ele>71.5999984741211</ele>
			<time>2013-12-29T14:12:13Z</time>
		</trkpt>
		<trkpt lat="39.5857086181641" lon="2.69404339790344">
			<ele>71.6999969482422</ele>
			<time>2013-12-29T14:12:15Z</time>
		</trkpt>
		<trkpt lat="39.5857429504395" lon="2.69414472579956">
			<ele>71.1999969482422</ele>
			<time>2013-12-29T14:12:17Z</time>
		</trkpt>
		<trkpt lat="39.5857620239258" lon="2.69424867630005">
			<ele>71</ele>
			<time>2013-12-29T14:12:19Z</time>
		</trkpt>
		<trkpt lat="39.5857925415039" lon="2.69434690475464">
			<ele>70.8000030517578</ele>
			<time>2013-12-29T14:12:21Z</time>
		</trkpt>
		<trkpt lat="39.5858154296875" lon="2.69445252418518">
			<ele>71.3000030517578</ele>
			<time>2013-12-29T14:12:23Z</time>
		</trkpt>
		<trkpt lat="39.5858306884766" lon="2.69455313682556">
			<ele>71.0999984741211</ele>
			<time>2013-12-29T14:12:25Z</time>
		</trkpt>
		<trkpt lat="39.5858573913574" lon="2.69465255737305">
			<ele>71.4000015258789</ele>
			<time>2013-12-29T14:12:27Z</time>
		</trkpt>
		<trkpt lat="39.585880279541" lon="2.69475293159485">
			<ele>71.4000015258789</ele>
			<time>2013-12-29T14:12:29Z</time>
		</trkpt>
		<trkpt lat="39.5858955383301" lon="2.69485282897949">
			<ele>71.3000030517578</ele>
			<time>2013-12-29T14:12:31Z</time>
		</trkpt>
		<trkpt lat="39.5859222412109" lon="2.6949520111084">
			<ele>71.1999969482422</ele>
			<time>2013-12-29T14:12:33Z</time>
		</trkpt>
		<trkpt lat="39.5859451293945" lon="2.6950478553772">
			<ele>71.0999984741211</ele>
			<time>2013-12-29T14:12:35Z</time>
		</trkpt>
		<trkpt lat="39.5859718322754" lon="2.69514298439026">
			<ele>71.6999969482422</ele>
			<time>2013-12-29T14:12:37Z</time>
		</trkpt>
		<trkpt lat="39.585994720459" lon="2.69524025917053">
			<ele>72.4000015258789</ele>
			<time>2013-12-29T14:12:39Z</time>
		</trkpt>
		<trkpt lat="39.5860176086426" lon="2.69534015655518">
			<ele>72.1999969482422</ele>
			<time>2013-12-29T14:12:41Z</time>
		</trkpt>
		<trkpt lat="39.5860404968262" lon="2.69543766975403">
			<ele>72.4000015258789</ele>
			<time>2013-12-29T14:12:43Z</time>
		</trkpt>
		<trkpt lat="39.5860633850098" lon="2.69552993774414">
			<ele>72.8000030517578</ele>
			<time>2013-12-29T14:12:45Z</time>
		</trkpt>
		<trkpt lat="39.5860786437988" lon="2.6956250667572">
			<ele>72.6999969482422</ele>
			<time>2013-12-29T14:12:47Z</time>
		</trkpt>
		<trkpt lat="39.5861053466797" lon="2.69571995735168">
			<ele>72.5999984741211</ele>
			<time>2013-12-29T14:12:49Z</time>
		</trkpt>
		<trkpt lat="39.5861167907715" lon="2.69581985473633">
			<ele>73</ele>
			<time>2013-12-29T14:12:51Z</time>
		</trkpt>
		<trkpt lat="39.5861206054688" lon="2.69591355323792">
			<ele>72.5999984741211</ele>
			<time>2013-12-29T14:12:53Z</time>
		</trkpt>
		<trkpt lat="39.5860900878906" lon="2.69595646858215">
			<ele>72.9000015258789</ele>
			<time>2013-12-29T14:12:54Z</time>
		</trkpt>
		<trkpt lat="39.5860595703125" lon="2.69604969024658">
			<ele>73</ele>
			<time>2013-12-29T14:12:56Z</time>
		</trkpt>
		<trkpt lat="39.5860252380371" lon="2.6961407661438">
			<ele>73.0999984741211</ele>
			<time>2013-12-29T14:12:58Z</time>
		</trkpt>
		<trkpt lat="39.5859870910645" lon="2.69623041152954">
			<ele>73.1999969482422</ele>
			<time>2013-12-29T14:13:00Z</time>
		</trkpt>
		<trkpt lat="39.5859527587891" lon="2.69632482528687">
			<ele>73.3000030517578</ele>
			<time>2013-12-29T14:13:02Z</time>
		</trkpt>
		<trkpt lat="39.5859146118164" lon="2.69642281532288">
			<ele>73.5999984741211</ele>
			<time>2013-12-29T14:13:04Z</time>
		</trkpt>
		<trkpt lat="39.5858764648438" lon="2.69651365280151">
			<ele>73.8000030517578</ele>
			<time>2013-12-29T14:13:06Z</time>
		</trkpt>
		<trkpt lat="39.5858421325684" lon="2.69660353660583">
			<ele>73.9000015258789</ele>
			<time>2013-12-29T14:13:08Z</time>
		</trkpt>
		<trkpt lat="39.5858001708984" lon="2.69668889045715">
			<ele>74</ele>
			<time>2013-12-29T14:13:10Z</time>
		</trkpt>
		<trkpt lat="39.5857467651367" lon="2.69677829742432">
			<ele>74.5999984741211</ele>
			<time>2013-12-29T14:13:12Z</time>
		</trkpt>
		<trkpt lat="39.5856971740723" lon="2.69686388969421">
			<ele>74.9000015258789</ele>
			<time>2013-12-29T14:13:14Z</time>
		</trkpt>
		<trkpt lat="39.5856552124023" lon="2.69694924354553">
			<ele>74.3000030517578</ele>
			<time>2013-12-29T14:13:16Z</time>
		</trkpt>
		<trkpt lat="39.5856018066406" lon="2.69703698158264">
			<ele>74.3000030517578</ele>
			<time>2013-12-29T14:13:18Z</time>
		</trkpt>
		<trkpt lat="39.5855522155762" lon="2.6971263885498">
			<ele>74.1999969482422</ele>
			<time>2013-12-29T14:13:20Z</time>
		</trkpt>
		<trkpt lat="39.585506439209" lon="2.6972131729126">
			<ele>73.9000015258789</ele>
			<time>2013-12-29T14:13:22Z</time>
		</trkpt>
		<trkpt lat="39.5854606628418" lon="2.69730305671692">
			<ele>74</ele>
			<time>2013-12-29T14:13:24Z</time>
		</trkpt>
		<trkpt lat="39.5854072570801" lon="2.69739198684692">
			<ele>74.3000030517578</ele>
			<time>2013-12-29T14:13:26Z</time>
		</trkpt>
		<trkpt lat="39.5853614807129" lon="2.69747304916382">
			<ele>74.1999969482422</ele>
			<time>2013-12-29T14:13:28Z</time>
		</trkpt>
		<trkpt lat="39.585319519043" lon="2.6975531578064">
			<ele>74.4000015258789</ele>
			<time>2013-12-29T14:13:30Z</time>
		</trkpt>
		<trkpt lat="39.585277557373" lon="2.6976330280304">
			<ele>74.3000030517578</ele>
			<time>2013-12-29T14:13:32Z</time>
		</trkpt>
		<trkpt lat="39.5852394104004" lon="2.69770359992981">
			<ele>74</ele>
			<time>2013-12-29T14:13:34Z</time>
		</trkpt>
		<trkpt lat="39.5852012634277" lon="2.69777417182922">
			<ele>74.1999969482422</ele>
			<time>2013-12-29T14:13:36Z</time>
		</trkpt>
		<trkpt lat="39.5851669311523" lon="2.69783926010132">
			<ele>74.5</ele>
			<time>2013-12-29T14:13:38Z</time>
		</trkpt>
		<trkpt lat="39.5851364135742" lon="2.69789457321167">
			<ele>74.1999969482422</ele>
			<time>2013-12-29T14:13:40Z</time>
		</trkpt>
		<trkpt lat="39.5850982666016" lon="2.69795751571655">
			<ele>74.6999969482422</ele>
			<time>2013-12-29T14:13:42Z</time>
		</trkpt>
		<trkpt lat="39.5850601196289" lon="2.69802784919739">
			<ele>74.3000030517578</ele>
			<time>2013-12-29T14:13:44Z</time>
		</trkpt>
		<trkpt lat="39.585018157959" lon="2.69810700416565">
			<ele>74.0999984741211</ele>
			<time>2013-12-29T14:13:46Z</time>
		</trkpt>
		<trkpt lat="39.5849723815918" lon="2.69819164276123">
			<ele>73.9000015258789</ele>
			<time>2013-12-29T14:13:48Z</time>
		</trkpt>
		<trkpt lat="39.5849304199219" lon="2.69827842712402">
			<ele>73.5999984741211</ele>
			<time>2013-12-29T14:13:50Z</time>
		</trkpt>
		<trkpt lat="39.5848808288574" lon="2.69836473464966">
			<ele>73.5999984741211</ele>
			<time>2013-12-29T14:13:52Z</time>
		</trkpt>
		<trkpt lat="39.5848388671875" lon="2.69845294952393">
			<ele>73.5999984741211</ele>
			<time>2013-12-29T14:13:54Z</time>
		</trkpt>
		<trkpt lat="39.5847702026367" lon="2.6985878944397">
			<ele>73.9000015258789</ele>
			<time>2013-12-29T14:13:57Z</time>
		</trkpt>
		<trkpt lat="39.5847206115723" lon="2.69867587089539">
			<ele>73.6999969482422</ele>
			<time>2013-12-29T14:13:59Z</time>
		</trkpt>
		<trkpt lat="39.5846710205078" lon="2.69876384735107">
			<ele>73.8000030517578</ele>
			<time>2013-12-29T14:14:01Z</time>
		</trkpt>
		<trkpt lat="39.5846214294434" lon="2.69885158538818">
			<ele>73.8000030517578</ele>
			<time>2013-12-29T14:14:03Z</time>
		</trkpt>
		<trkpt lat="39.5845718383789" lon="2.69894528388977">
			<ele>73.9000015258789</ele>
			<time>2013-12-29T14:14:05Z</time>
		</trkpt>
		<trkpt lat="39.5845260620117" lon="2.69904112815857">
			<ele>73.5</ele>
			<time>2013-12-29T14:14:07Z</time>
		</trkpt>
		<trkpt lat="39.58447265625" lon="2.69913530349731">
			<ele>73.5999984741211</ele>
			<time>2013-12-29T14:14:09Z</time>
		</trkpt>
		<trkpt lat="39.5844230651855" lon="2.6992301940918">
			<ele>73.8000030517578</ele>
			<time>2013-12-29T14:14:11Z</time>
		</trkpt>
		<trkpt lat="39.5843963623047" lon="2.69927883148193">
			<ele>73.8000030517578</ele>
			<time>2013-12-29T14:14:12Z</time>
		</trkpt>
		<trkpt lat="39.5843505859375" lon="2.69937467575073">
			<ele>73.9000015258789</ele>
			<time>2013-12-29T14:14:14Z</time>
		</trkpt>
		<trkpt lat="39.5843238830566" lon="2.69942307472229">
			<ele>73.9000015258789</ele>
			<time>2013-12-29T14:14:15Z</time>
		</trkpt>
		<trkpt lat="39.5842742919922" lon="2.69951963424683">
			<ele>73.6999969482422</ele>
			<time>2013-12-29T14:14:17Z</time>
		</trkpt>
		<trkpt lat="39.5842475891113" lon="2.69956827163696">
			<ele>73.8000030517578</ele>
			<time>2013-12-29T14:14:18Z</time>
		</trkpt>
		<trkpt lat="39.5841979980469" lon="2.69966006278992">
			<ele>73.5</ele>
			<time>2013-12-29T14:14:20Z</time>
		</trkpt>
		<trkpt lat="39.5841445922852" lon="2.69975328445435">
			<ele>73.1999969482422</ele>
			<time>2013-12-29T14:14:22Z</time>
		</trkpt>
		<trkpt lat="39.5840950012207" lon="2.69984865188599">
			<ele>73.0999984741211</ele>
			<time>2013-12-29T14:14:24Z</time>
		</trkpt>
		<trkpt lat="39.5840682983398" lon="2.6998975276947">
			<ele>73.3000030517578</ele>
			<time>2013-12-29T14:14:25Z</time>
		</trkpt>
		<trkpt lat="39.5840187072754" lon="2.69999384880066">
			<ele>72.8000030517578</ele>
			<time>2013-12-29T14:14:27Z</time>
		</trkpt>
		<trkpt lat="39.5839767456055" lon="2.70008659362793">
			<ele>72.6999969482422</ele>
			<time>2013-12-29T14:14:29Z</time>
		</trkpt>
		<trkpt lat="39.5839347839355" lon="2.70017910003662">
			<ele>72.5</ele>
			<time>2013-12-29T14:14:31Z</time>
		</trkpt>
		<trkpt lat="39.5838890075684" lon="2.7002637386322">
			<ele>72.5</ele>
			<time>2013-12-29T14:14:33Z</time>
		</trkpt>
		<trkpt lat="39.5838356018066" lon="2.70035099983215">
			<ele>72.5999984741211</ele>
			<time>2013-12-29T14:14:35Z</time>
		</trkpt>
		<trkpt lat="39.5837821960449" lon="2.70044040679932">
			<ele>72.3000030517578</ele>
			<time>2013-12-29T14:14:37Z</time>
		</trkpt>
		<trkpt lat="39.5837287902832" lon="2.70053458213806">
			<ele>72.3000030517578</ele>
			<time>2013-12-29T14:14:39Z</time>
		</trkpt>
		<trkpt lat="39.5837020874023" lon="2.70058417320251">
			<ele>72.3000030517578</ele>
			<time>2013-12-29T14:14:40Z</time>
		</trkpt>
		<trkpt lat="39.5836524963379" lon="2.70068073272705">
			<ele>72.0999984741211</ele>
			<time>2013-12-29T14:14:42Z</time>
		</trkpt>
		<trkpt lat="39.5836219787598" lon="2.70072746276855">
			<ele>72</ele>
			<time>2013-12-29T14:14:43Z</time>
		</trkpt>
		<trkpt lat="39.5835952758789" lon="2.70077466964722">
			<ele>72</ele>
			<time>2013-12-29T14:14:44Z</time>
		</trkpt>
		<trkpt lat="39.583568572998" lon="2.70082378387451">
			<ele>72</ele>
			<time>2013-12-29T14:14:45Z</time>
		</trkpt>
		<trkpt lat="39.5835189819336" lon="2.70092439651489">
			<ele>72.0999984741211</ele>
			<time>2013-12-29T14:14:47Z</time>
		</trkpt>
		<trkpt lat="39.58349609375" lon="2.70097684860229">
			<ele>72.0999984741211</ele>
			<time>2013-12-29T14:14:48Z</time>
		</trkpt>
		<trkpt lat="39.5834693908691" lon="2.70102643966675">
			<ele>72.1999969482422</ele>
			<time>2013-12-29T14:14:49Z</time>
		</trkpt>
		<trkpt lat="39.5834197998047" lon="2.70112156867981">
			<ele>72.4000015258789</ele>
			<time>2013-12-29T14:14:51Z</time>
		</trkpt>
		<trkpt lat="39.5833702087402" lon="2.70122075080872">
			<ele>72.0999984741211</ele>
			<time>2013-12-29T14:14:53Z</time>
		</trkpt>
		<trkpt lat="39.5833435058594" lon="2.70127058029175">
			<ele>72.3000030517578</ele>
			<time>2013-12-29T14:14:54Z</time>
		</trkpt>
		<trkpt lat="39.5833168029785" lon="2.70131945610046">
			<ele>72.5</ele>
			<time>2013-12-29T14:14:55Z</time>
		</trkpt>
		<trkpt lat="39.5832901000977" lon="2.70137119293213">
			<ele>72.5999984741211</ele>
			<time>2013-12-29T14:14:56Z</time>
		</trkpt>
		<trkpt lat="39.5832633972168" lon="2.70142197608948">
			<ele>72.5</ele>
			<time>2013-12-29T14:14:57Z</time>
		</trkpt>
		<trkpt lat="39.5832328796387" lon="2.70147156715393">
			<ele>72.5</ele>
			<time>2013-12-29T14:14:58Z</time>
		</trkpt>
		<trkpt lat="39.5831832885742" lon="2.70156049728394">
			<ele>72.5</ele>
			<time>2013-12-29T14:15:00Z</time>
		</trkpt>
		<trkpt lat="39.583137512207" lon="2.70165371894836">
			<ele>72.4000015258789</ele>
			<time>2013-12-29T14:15:02Z</time>
		</trkpt>
		<trkpt lat="39.5831108093262" lon="2.70170140266418">
			<ele>72</ele>
			<time>2013-12-29T14:15:03Z</time>
		</trkpt>
		<trkpt lat="39.5830841064453" lon="2.70175051689148">
			<ele>71.9000015258789</ele>
			<time>2013-12-29T14:15:04Z</time>
		</trkpt>
		<trkpt lat="39.5830612182617" lon="2.7017993927002">
			<ele>71.6999969482422</ele>
			<time>2013-12-29T14:15:05Z</time>
		</trkpt>
		<trkpt lat="39.5830345153809" lon="2.70184946060181">
			<ele>71.5</ele>
			<time>2013-12-29T14:15:06Z</time>
		</trkpt>
		<trkpt lat="39.5830078125" lon="2.70189905166626">
			<ele>71.5</ele>
			<time>2013-12-29T14:15:07Z</time>
		</trkpt>
		<trkpt lat="39.5829811096191" lon="2.70194911956787">
			<ele>71.3000030517578</ele>
			<time>2013-12-29T14:15:08Z</time>
		</trkpt>
		<trkpt lat="39.5829544067383" lon="2.70199584960938">
			<ele>71.3000030517578</ele>
			<time>2013-12-29T14:15:09Z</time>
		</trkpt>
		<trkpt lat="39.5829315185547" lon="2.70204567909241">
			<ele>71.1999969482422</ele>
			<time>2013-12-29T14:15:10Z</time>
		</trkpt>
		<trkpt lat="39.582878112793" lon="2.70214772224426">
			<ele>71.5999984741211</ele>
			<time>2013-12-29T14:15:12Z</time>
		</trkpt>
		<trkpt lat="39.5828514099121" lon="2.70219731330872">
			<ele>71.5999984741211</ele>
			<time>2013-12-29T14:15:13Z</time>
		</trkpt>
		<trkpt lat="39.582820892334" lon="2.70224571228027">
			<ele>71.5</ele>
			<time>2013-12-29T14:15:14Z</time>
		</trkpt>
		<trkpt lat="39.5827941894531" lon="2.70229458808899">
			<ele>71.4000015258789</ele>
			<time>2013-12-29T14:15:15Z</time>
		</trkpt>
		<trkpt lat="39.5827674865723" lon="2.70234394073486">
			<ele>71.3000030517578</ele>
			<time>2013-12-29T14:15:16Z</time>
		</trkpt>
		<trkpt lat="39.5827407836914" lon="2.70238971710205">
			<ele>70.9000015258789</ele>
			<time>2013-12-29T14:15:17Z</time>
		</trkpt>
		<trkpt lat="39.5826950073242" lon="2.70249485969543">
			<ele>70.5</ele>
			<time>2013-12-29T14:15:19Z</time>
		</trkpt>
		<trkpt lat="39.5826454162598" lon="2.70258498191833">
			<ele>70.5</ele>
			<time>2013-12-29T14:15:21Z</time>
		</trkpt>
		<trkpt lat="39.5826148986816" lon="2.70263290405273">
			<ele>70.5</ele>
			<time>2013-12-29T14:15:22Z</time>
		</trkpt>
		<trkpt lat="39.5825958251953" lon="2.70268583297729">
			<ele>70.4000015258789</ele>
			<time>2013-12-29T14:15:23Z</time>
		</trkpt>
		<trkpt lat="39.5825462341309" lon="2.70278286933899">
			<ele>70.6999969482422</ele>
			<time>2013-12-29T14:15:25Z</time>
		</trkpt>
		<trkpt lat="39.5825157165527" lon="2.70283555984497">
			<ele>70.5999984741211</ele>
			<time>2013-12-29T14:15:26Z</time>
		</trkpt>
		<trkpt lat="39.5824890136719" lon="2.70288968086243">
			<ele>70.5</ele>
			<time>2013-12-29T14:15:27Z</time>
		</trkpt>
		<trkpt lat="39.5824546813965" lon="2.70292949676514">
			<ele>70.8000030517578</ele>
			<time>2013-12-29T14:15:28Z</time>
		</trkpt>
		<trkpt lat="39.5824012756348" lon="2.70301508903503">
			<ele>70.6999969482422</ele>
			<time>2013-12-29T14:15:30Z</time>
		</trkpt>
		<trkpt lat="39.5823745727539" lon="2.70306444168091">
			<ele>70.5</ele>
			<time>2013-12-29T14:15:31Z</time>
		</trkpt>
		<trkpt lat="39.5823440551758" lon="2.70311808586121">
			<ele>70.5</ele>
			<time>2013-12-29T14:15:32Z</time>
		</trkpt>
		<trkpt lat="39.5823097229004" lon="2.70316386222839">
			<ele>70.4000015258789</ele>
			<time>2013-12-29T14:15:33Z</time>
		</trkpt>
		<trkpt lat="39.5822906494141" lon="2.70321607589722">
			<ele>70.6999969482422</ele>
			<time>2013-12-29T14:15:34Z</time>
		</trkpt>
		<trkpt lat="39.5822677612305" lon="2.70326638221741">
			<ele>70.6999969482422</ele>
			<time>2013-12-29T14:15:35Z</time>
		</trkpt>
		<trkpt lat="39.5822334289551" lon="2.70331192016602">
			<ele>70</ele>
			<time>2013-12-29T14:15:36Z</time>
		</trkpt>
		<trkpt lat="39.5821952819824" lon="2.70336437225342">
			<ele>69.5999984741211</ele>
			<time>2013-12-29T14:15:37Z</time>
		</trkpt>
		<trkpt lat="39.5821647644043" lon="2.70341801643372">
			<ele>69.4000015258789</ele>
			<time>2013-12-29T14:15:38Z</time>
		</trkpt>
		<trkpt lat="39.5821342468262" lon="2.70346736907959">
			<ele>69.1999969482422</ele>
			<time>2013-12-29T14:15:39Z</time>
		</trkpt>
		<trkpt lat="39.5820846557617" lon="2.70355868339539">
			<ele>69.1999969482422</ele>
			<time>2013-12-29T14:15:41Z</time>
		</trkpt>
		<trkpt lat="39.5820198059082" lon="2.70363450050354">
			<ele>69.5999984741211</ele>
			<time>2013-12-29T14:15:43Z</time>
		</trkpt>
		<trkpt lat="39.5819778442383" lon="2.70367693901062">
			<ele>69.8000030517578</ele>
			<time>2013-12-29T14:15:44Z</time>
		</trkpt>
		<trkpt lat="39.5819473266602" lon="2.7037193775177">
			<ele>70</ele>
			<time>2013-12-29T14:15:45Z</time>
		</trkpt>
		<trkpt lat="39.581916809082" lon="2.70376539230347">
			<ele>70.4000015258789</ele>
			<time>2013-12-29T14:15:46Z</time>
		</trkpt>
		<trkpt lat="39.5818824768066" lon="2.70381307601929">
			<ele>70.9000015258789</ele>
			<time>2013-12-29T14:15:47Z</time>
		</trkpt>
		<trkpt lat="39.5818519592285" lon="2.70386648178101">
			<ele>71.1999969482422</ele>
			<time>2013-12-29T14:15:48Z</time>
		</trkpt>
		<trkpt lat="39.5818176269531" lon="2.70392346382141">
			<ele>71.5999984741211</ele>
			<time>2013-12-29T14:15:49Z</time>
		</trkpt>
		<trkpt lat="39.5817947387695" lon="2.70397472381592">
			<ele>70.9000015258789</ele>
			<time>2013-12-29T14:15:50Z</time>
		</trkpt>
		<trkpt lat="39.5817642211914" lon="2.70402979850769">
			<ele>70.9000015258789</ele>
			<time>2013-12-29T14:15:51Z</time>
		</trkpt>
		<trkpt lat="39.581729888916" lon="2.70407748222351">
			<ele>71.1999969482422</ele>
			<time>2013-12-29T14:15:52Z</time>
		</trkpt>
		<trkpt lat="39.5816955566406" lon="2.70412659645081">
			<ele>71.5</ele>
			<time>2013-12-29T14:15:53Z</time>
		</trkpt>
		<trkpt lat="39.5816650390625" lon="2.7041699886322">
			<ele>70.6999969482422</ele>
			<time>2013-12-29T14:15:54Z</time>
		</trkpt>
		<trkpt lat="39.5816345214844" lon="2.70422148704529">
			<ele>70.5999984741211</ele>
			<time>2013-12-29T14:15:55Z</time>
		</trkpt>
		<trkpt lat="39.5816040039063" lon="2.70427274703979">
			<ele>70.5</ele>
			<time>2013-12-29T14:15:56Z</time>
		</trkpt>
		<trkpt lat="39.5815696716309" lon="2.70431709289551">
			<ele>70.5999984741211</ele>
			<time>2013-12-29T14:15:57Z</time>
		</trkpt>
		<trkpt lat="39.5815353393555" lon="2.70437097549438">
			<ele>70.5</ele>
			<time>2013-12-29T14:15:58Z</time>
		</trkpt>
		<trkpt lat="39.5815086364746" lon="2.70442676544189">
			<ele>70.5999984741211</ele>
			<time>2013-12-29T14:15:59Z</time>
		</trkpt>
		<trkpt lat="39.5814781188965" lon="2.70447468757629">
			<ele>70.5999984741211</ele>
			<time>2013-12-29T14:16:00Z</time>
		</trkpt>
		<trkpt lat="39.5814437866211" lon="2.70452237129211">
			<ele>71</ele>
			<time>2013-12-29T14:16:01Z</time>
		</trkpt>
		<trkpt lat="39.581413269043" lon="2.70456910133362">
			<ele>71.1999969482422</ele>
			<time>2013-12-29T14:16:02Z</time>
		</trkpt>
		<trkpt lat="39.5813827514648" lon="2.70461940765381">
			<ele>71</ele>
			<time>2013-12-29T14:16:03Z</time>
		</trkpt>
		<trkpt lat="39.5813484191895" lon="2.70466423034668">
			<ele>71</ele>
			<time>2013-12-29T14:16:04Z</time>
		</trkpt>
		<trkpt lat="39.5813140869141" lon="2.70470857620239">
			<ele>70.9000015258789</ele>
			<time>2013-12-29T14:16:05Z</time>
		</trkpt>
		<trkpt lat="39.5812835693359" lon="2.70475482940674">
			<ele>71.0999984741211</ele>
			<time>2013-12-29T14:16:06Z</time>
		</trkpt>
		<trkpt lat="39.5812530517578" lon="2.70479917526245">
			<ele>71.3000030517578</ele>
			<time>2013-12-29T14:16:07Z</time>
		</trkpt>
		<trkpt lat="39.5811996459961" lon="2.70488452911377">
			<ele>71.3000030517578</ele>
			<time>2013-12-29T14:16:09Z</time>
		</trkpt>
		<trkpt lat="39.5811424255371" lon="2.70497250556946">
			<ele>71.5</ele>
			<time>2013-12-29T14:16:11Z</time>
		</trkpt>
		<trkpt lat="39.5810852050781" lon="2.70505905151367">
			<ele>71.1999969482422</ele>
			<time>2013-12-29T14:16:13Z</time>
		</trkpt>
		<trkpt lat="39.5810585021973" lon="2.70510935783386">
			<ele>71.0999984741211</ele>
			<time>2013-12-29T14:16:14Z</time>
		</trkpt>
		<trkpt lat="39.5810241699219" lon="2.70515727996826">
			<ele>70.9000015258789</ele>
			<time>2013-12-29T14:16:15Z</time>
		</trkpt>
		<trkpt lat="39.5809631347656" lon="2.70523929595947">
			<ele>71.6999969482422</ele>
			<time>2013-12-29T14:16:17Z</time>
		</trkpt>
		<trkpt lat="39.5809211730957" lon="2.70532822608948">
			<ele>71.5999984741211</ele>
			<time>2013-12-29T14:16:19Z</time>
		</trkpt>
		<trkpt lat="39.580867767334" lon="2.70541787147522">
			<ele>71.6999969482422</ele>
			<time>2013-12-29T14:16:21Z</time>
		</trkpt>
		<trkpt lat="39.5808410644531" lon="2.70546650886536">
			<ele>71.8000030517578</ele>
			<time>2013-12-29T14:16:22Z</time>
		</trkpt>
		<trkpt lat="39.5808143615723" lon="2.70551323890686">
			<ele>71.9000015258789</ele>
			<time>2013-12-29T14:16:23Z</time>
		</trkpt>
		<trkpt lat="39.5807838439941" lon="2.70556259155273">
			<ele>71.5999984741211</ele>
			<time>2013-12-29T14:16:24Z</time>
		</trkpt>
		<trkpt lat="39.5807571411133" lon="2.70561003684998">
			<ele>71.6999969482422</ele>
			<time>2013-12-29T14:16:25Z</time>
		</trkpt>
		<trkpt lat="39.5807266235352" lon="2.70565795898438">
			<ele>71.5999984741211</ele>
			<time>2013-12-29T14:16:26Z</time>
		</trkpt>
		<trkpt lat="39.580696105957" lon="2.70570254325867">
			<ele>71.5</ele>
			<time>2013-12-29T14:16:27Z</time>
		</trkpt>
		<trkpt lat="39.5806350708008" lon="2.70578694343567">
			<ele>72</ele>
			<time>2013-12-29T14:16:29Z</time>
		</trkpt>
		<trkpt lat="39.5806045532227" lon="2.70583486557007">
			<ele>71.6999969482422</ele>
			<time>2013-12-29T14:16:30Z</time>
		</trkpt>
		<trkpt lat="39.5805511474609" lon="2.70592451095581">
			<ele>71.4000015258789</ele>
			<time>2013-12-29T14:16:32Z</time>
		</trkpt>
		<trkpt lat="39.5805206298828" lon="2.7059690952301">
			<ele>72.1999969482422</ele>
			<time>2013-12-29T14:16:33Z</time>
		</trkpt>
		<trkpt lat="39.580493927002" lon="2.70601797103882">
			<ele>72.5999984741211</ele>
			<time>2013-12-29T14:16:34Z</time>
		</trkpt>
		<trkpt lat="39.5804405212402" lon="2.70609951019287">
			<ele>72.4000015258789</ele>
			<time>2013-12-29T14:16:36Z</time>
		</trkpt>
		<trkpt lat="39.5803909301758" lon="2.70618081092834">
			<ele>72.1999969482422</ele>
			<time>2013-12-29T14:16:38Z</time>
		</trkpt>
		<trkpt lat="39.5803298950195" lon="2.70627641677856">
			<ele>71.9000015258789</ele>
			<time>2013-12-29T14:16:40Z</time>
		</trkpt>
		<trkpt lat="39.5802993774414" lon="2.70632529258728">
			<ele>71.5</ele>
			<time>2013-12-29T14:16:41Z</time>
		</trkpt>
		<trkpt lat="39.5802421569824" lon="2.70641875267029">
			<ele>71.5</ele>
			<time>2013-12-29T14:16:43Z</time>
		</trkpt>
		<trkpt lat="39.5802192687988" lon="2.70647120475769">
			<ele>71.5</ele>
			<time>2013-12-29T14:16:44Z</time>
		</trkpt>
		<trkpt lat="39.5801849365234" lon="2.70652151107788">
			<ele>71.5</ele>
			<time>2013-12-29T14:16:45Z</time>
		</trkpt>
		<trkpt lat="39.580150604248" lon="2.70656967163086">
			<ele>71.3000030517578</ele>
			<time>2013-12-29T14:16:46Z</time>
		</trkpt>
		<trkpt lat="39.5800971984863" lon="2.70664477348328">
			<ele>71.5</ele>
			<time>2013-12-29T14:16:48Z</time>
		</trkpt>
		<trkpt lat="39.5800743103027" lon="2.70669651031494">
			<ele>71.6999969482422</ele>
			<time>2013-12-29T14:16:49Z</time>
		</trkpt>
		<trkpt lat="39.5800399780273" lon="2.70674705505371">
			<ele>72.1999969482422</ele>
			<time>2013-12-29T14:16:50Z</time>
		</trkpt>
		<trkpt lat="39.580005645752" lon="2.70679807662964">
			<ele>72.3000030517578</ele>
			<time>2013-12-29T14:16:51Z</time>
		</trkpt>
		<trkpt lat="39.5799789428711" lon="2.70684552192688">
			<ele>72.3000030517578</ele>
			<time>2013-12-29T14:16:52Z</time>
		</trkpt>
		<trkpt lat="39.5799560546875" lon="2.70689535140991">
			<ele>72.0999984741211</ele>
			<time>2013-12-29T14:16:53Z</time>
		</trkpt>
		<trkpt lat="39.5798950195313" lon="2.70698142051697">
			<ele>72.4000015258789</ele>
			<time>2013-12-29T14:16:55Z</time>
		</trkpt>
		<trkpt lat="39.5798606872559" lon="2.7070324420929">
			<ele>73.8000030517578</ele>
			<time>2013-12-29T14:16:56Z</time>
		</trkpt>
		<trkpt lat="39.5798110961914" lon="2.70712304115295">
			<ele>74.8000030517578</ele>
			<time>2013-12-29T14:16:58Z</time>
		</trkpt>
		<trkpt lat="39.579761505127" lon="2.70721101760864">
			<ele>74.5999984741211</ele>
			<time>2013-12-29T14:17:00Z</time>
		</trkpt>
		<trkpt lat="39.579704284668" lon="2.7072856426239">
			<ele>74.1999969482422</ele>
			<time>2013-12-29T14:17:02Z</time>
		</trkpt>
		<trkpt lat="39.5796432495117" lon="2.70737266540527">
			<ele>73.9000015258789</ele>
			<time>2013-12-29T14:17:04Z</time>
		</trkpt>
		<trkpt lat="39.5795936584473" lon="2.70745372772217">
			<ele>73.1999969482422</ele>
			<time>2013-12-29T14:17:06Z</time>
		</trkpt>
		<trkpt lat="39.5795631408691" lon="2.70750164985657">
			<ele>74.3000030517578</ele>
			<time>2013-12-29T14:17:07Z</time>
		</trkpt>
		<trkpt lat="39.5795135498047" lon="2.70757412910461">
			<ele>73.3000030517578</ele>
			<time>2013-12-29T14:17:09Z</time>
		</trkpt>
		<trkpt lat="39.5794639587402" lon="2.70766377449036">
			<ele>72.5</ele>
			<time>2013-12-29T14:17:11Z</time>
		</trkpt>
		<trkpt lat="39.5794067382813" lon="2.7077431678772">
			<ele>72.9000015258789</ele>
			<time>2013-12-29T14:17:13Z</time>
		</trkpt>
		<trkpt lat="39.5793609619141" lon="2.70782375335693">
			<ele>72.5999984741211</ele>
			<time>2013-12-29T14:17:15Z</time>
		</trkpt>
		<trkpt lat="39.5793113708496" lon="2.70789551734924">
			<ele>71.9000015258789</ele>
			<time>2013-12-29T14:17:17Z</time>
		</trkpt>
		<trkpt lat="39.5792541503906" lon="2.70798778533936">
			<ele>71.6999969482422</ele>
			<time>2013-12-29T14:17:19Z</time>
		</trkpt>
		<trkpt lat="39.5792236328125" lon="2.70803642272949">
			<ele>71.8000030517578</ele>
			<time>2013-12-29T14:17:20Z</time>
		</trkpt>
		<trkpt lat="39.5791969299316" lon="2.70808672904968">
			<ele>72.4000015258789</ele>
			<time>2013-12-29T14:17:21Z</time>
		</trkpt>
		<trkpt lat="39.5791664123535" lon="2.70813894271851">
			<ele>72.6999969482422</ele>
			<time>2013-12-29T14:17:22Z</time>
		</trkpt>
		<trkpt lat="39.5791358947754" lon="2.70818972587585">
			<ele>72.3000030517578</ele>
			<time>2013-12-29T14:17:23Z</time>
		</trkpt>
		<trkpt lat="39.5791053771973" lon="2.70823907852173">
			<ele>72.3000030517578</ele>
			<time>2013-12-29T14:17:24Z</time>
		</trkpt>
		<trkpt lat="39.5790672302246" lon="2.70828795433044">
			<ele>72.1999969482422</ele>
			<time>2013-12-29T14:17:25Z</time>
		</trkpt>
		<trkpt lat="39.5790176391602" lon="2.70837903022766">
			<ele>71.8000030517578</ele>
			<time>2013-12-29T14:17:27Z</time>
		</trkpt>
		<trkpt lat="39.5789680480957" lon="2.70846056938171">
			<ele>71.1999969482422</ele>
			<time>2013-12-29T14:17:29Z</time>
		</trkpt>
		<trkpt lat="39.5789375305176" lon="2.70850419998169">
			<ele>71.8000030517578</ele>
			<time>2013-12-29T14:17:30Z</time>
		</trkpt>
		<trkpt lat="39.5788803100586" lon="2.70858550071716">
			<ele>71.5999984741211</ele>
			<time>2013-12-29T14:17:32Z</time>
		</trkpt>
		<trkpt lat="39.5788307189941" lon="2.7086706161499">
			<ele>72.5</ele>
			<time>2013-12-29T14:17:34Z</time>
		</trkpt>
		<trkpt lat="39.5787887573242" lon="2.70874691009521">
			<ele>72.4000015258789</ele>
			<time>2013-12-29T14:17:36Z</time>
		</trkpt>
		<trkpt lat="39.5787353515625" lon="2.70881104469299">
			<ele>72.5999984741211</ele>
			<time>2013-12-29T14:17:38Z</time>
		</trkpt>
		<trkpt lat="39.5786933898926" lon="2.7088565826416">
			<ele>72</ele>
			<time>2013-12-29T14:17:40Z</time>
		</trkpt>
		<trkpt lat="39.5786361694336" lon="2.70885968208313">
			<ele>71.5</ele>
			<time>2013-12-29T14:17:44Z</time>
		</trkpt>
		<trkpt lat="39.5785903930664" lon="2.70890498161316">
			<ele>71.0999984741211</ele>
			<time>2013-12-29T14:17:46Z</time>
		</trkpt>
		<trkpt lat="39.5785942077637" lon="2.70900177955627">
			<ele>69.6999969482422</ele>
			<time>2013-12-29T14:17:48Z</time>
		</trkpt>
		<trkpt lat="39.5786018371582" lon="2.70909476280212">
			<ele>69.3000030517578</ele>
			<time>2013-12-29T14:17:50Z</time>
		</trkpt>
		<trkpt lat="39.5786056518555" lon="2.70919179916382">
			<ele>69</ele>
			<time>2013-12-29T14:17:52Z</time>
		</trkpt>
		<trkpt lat="39.5786018371582" lon="2.7092866897583">
			<ele>69.3000030517578</ele>
			<time>2013-12-29T14:17:54Z</time>
		</trkpt>
		<trkpt lat="39.5786056518555" lon="2.70939016342163">
			<ele>68.9000015258789</ele>
			<time>2013-12-29T14:17:56Z</time>
		</trkpt>
		<trkpt lat="39.5786056518555" lon="2.70950102806091">
			<ele>68.6999969482422</ele>
			<time>2013-12-29T14:17:58Z</time>
		</trkpt>
		<trkpt lat="39.5786018371582" lon="2.70960426330566">
			<ele>68.4000015258789</ele>
			<time>2013-12-29T14:18:00Z</time>
		</trkpt>
		<trkpt lat="39.5785980224609" lon="2.7097065448761">
			<ele>68.3000030517578</ele>
			<time>2013-12-29T14:18:02Z</time>
		</trkpt>
		<trkpt lat="39.5785980224609" lon="2.70976543426514">
			<ele>68.1999969482422</ele>
			<time>2013-12-29T14:18:03Z</time>
		</trkpt>
		<trkpt lat="39.5785980224609" lon="2.70987963676453">
			<ele>68.0999984741211</ele>
			<time>2013-12-29T14:18:05Z</time>
		</trkpt>
		<trkpt lat="39.5785980224609" lon="2.70993781089783">
			<ele>68</ele>
			<time>2013-12-29T14:18:06Z</time>
		</trkpt>
		<trkpt lat="39.5785942077637" lon="2.71005415916443">
			<ele>68.3000030517578</ele>
			<time>2013-12-29T14:18:08Z</time>
		</trkpt>
		<trkpt lat="39.5785903930664" lon="2.7101686000824">
			<ele>68.4000015258789</ele>
			<time>2013-12-29T14:18:10Z</time>
		</trkpt>
		<trkpt lat="39.5785903930664" lon="2.71022701263428">
			<ele>68.4000015258789</ele>
			<time>2013-12-29T14:18:11Z</time>
		</trkpt>
		<trkpt lat="39.5785865783691" lon="2.71028685569763">
			<ele>68.4000015258789</ele>
			<time>2013-12-29T14:18:12Z</time>
		</trkpt>
		<trkpt lat="39.5785827636719" lon="2.71034479141235">
			<ele>68.5999984741211</ele>
			<time>2013-12-29T14:18:13Z</time>
		</trkpt>
		<trkpt lat="39.5785675048828" lon="2.71040034294128">
			<ele>68.6999969482422</ele>
			<time>2013-12-29T14:18:14Z</time>
		</trkpt>
		<trkpt lat="39.5785446166992" lon="2.71045088768005">
			<ele>68.8000030517578</ele>
			<time>2013-12-29T14:18:15Z</time>
		</trkpt>
		<trkpt lat="39.5785179138184" lon="2.71049690246582">
			<ele>68.9000015258789</ele>
			<time>2013-12-29T14:18:16Z</time>
		</trkpt>
		<trkpt lat="39.578483581543" lon="2.71053886413574">
			<ele>69.0999984741211</ele>
			<time>2013-12-29T14:18:17Z</time>
		</trkpt>
		<trkpt lat="39.5784606933594" lon="2.71058797836304">
			<ele>69.0999984741211</ele>
			<time>2013-12-29T14:18:18Z</time>
		</trkpt>
		<trkpt lat="39.578426361084" lon="2.71069598197937">
			<ele>69.0999984741211</ele>
			<time>2013-12-29T14:18:20Z</time>
		</trkpt>
		<trkpt lat="39.5784225463867" lon="2.71081161499023">
			<ele>69.3000030517578</ele>
			<time>2013-12-29T14:18:22Z</time>
		</trkpt>
		<trkpt lat="39.5784339904785" lon="2.71086835861206">
			<ele>69.1999969482422</ele>
			<time>2013-12-29T14:18:23Z</time>
		</trkpt>
		<trkpt lat="39.5784721374512" lon="2.71097183227539">
			<ele>69.3000030517578</ele>
			<time>2013-12-29T14:18:25Z</time>
		</trkpt>
		<trkpt lat="39.5785140991211" lon="2.71107745170593">
			<ele>69.0999984741211</ele>
			<time>2013-12-29T14:18:27Z</time>
		</trkpt>
		<trkpt lat="39.5785331726074" lon="2.71113061904907">
			<ele>69</ele>
			<time>2013-12-29T14:18:28Z</time>
		</trkpt>
		<trkpt lat="39.578556060791" lon="2.71123957633972">
			<ele>69.4000015258789</ele>
			<time>2013-12-29T14:18:30Z</time>
		</trkpt>
		<trkpt lat="39.5785675048828" lon="2.71134781837463">
			<ele>69.6999969482422</ele>
			<time>2013-12-29T14:18:32Z</time>
		</trkpt>
		<trkpt lat="39.5785865783691" lon="2.71145176887512">
			<ele>69.6999969482422</ele>
			<time>2013-12-29T14:18:34Z</time>
		</trkpt>
		<trkpt lat="39.5786056518555" lon="2.71155214309692">
			<ele>69.6999969482422</ele>
			<time>2013-12-29T14:18:36Z</time>
		</trkpt>
		<trkpt lat="39.5786209106445" lon="2.71165156364441">
			<ele>69.4000015258789</ele>
			<time>2013-12-29T14:18:38Z</time>
		</trkpt>
		<trkpt lat="39.5786323547363" lon="2.71175503730774">
			<ele>69.6999969482422</ele>
			<time>2013-12-29T14:18:40Z</time>
		</trkpt>
		<trkpt lat="39.5786476135254" lon="2.71185445785522">
			<ele>69.9000015258789</ele>
			<time>2013-12-29T14:18:42Z</time>
		</trkpt>
		<trkpt lat="39.5786628723145" lon="2.71195387840271">
			<ele>69.8000030517578</ele>
			<time>2013-12-29T14:18:44Z</time>
		</trkpt>
		<trkpt lat="39.5786819458008" lon="2.7120509147644">
			<ele>69.8000030517578</ele>
			<time>2013-12-29T14:18:46Z</time>
		</trkpt>
		<trkpt lat="39.5786972045898" lon="2.71214413642883">
			<ele>69.5</ele>
			<time>2013-12-29T14:18:48Z</time>
		</trkpt>
		<trkpt lat="39.5787124633789" lon="2.71223878860474">
			<ele>69.5</ele>
			<time>2013-12-29T14:18:50Z</time>
		</trkpt>
		<trkpt lat="39.578727722168" lon="2.71233105659485">
			<ele>69.5999984741211</ele>
			<time>2013-12-29T14:18:52Z</time>
		</trkpt>
		<trkpt lat="39.578742980957" lon="2.71242618560791">
			<ele>69.6999969482422</ele>
			<time>2013-12-29T14:18:54Z</time>
		</trkpt>
		<trkpt lat="39.5787582397461" lon="2.71252417564392">
			<ele>69.8000030517578</ele>
			<time>2013-12-29T14:18:56Z</time>
		</trkpt>
		<trkpt lat="39.5787734985352" lon="2.71262288093567">
			<ele>69.8000030517578</ele>
			<time>2013-12-29T14:18:58Z</time>
		</trkpt>
		<trkpt lat="39.578784942627" lon="2.71272754669189">
			<ele>69.8000030517578</ele>
			<time>2013-12-29T14:19:00Z</time>
		</trkpt>
		<trkpt lat="39.5787963867188" lon="2.71283173561096">
			<ele>69.6999969482422</ele>
			<time>2013-12-29T14:19:02Z</time>
		</trkpt>
		<trkpt lat="39.5788078308105" lon="2.71293616294861">
			<ele>69.1999969482422</ele>
			<time>2013-12-29T14:19:04Z</time>
		</trkpt>
		<trkpt lat="39.5788192749023" lon="2.71304631233215">
			<ele>69.0999984741211</ele>
			<time>2013-12-29T14:19:06Z</time>
		</trkpt>
		<trkpt lat="39.5788269042969" lon="2.71315407752991">
			<ele>68.9000015258789</ele>
			<time>2013-12-29T14:19:08Z</time>
		</trkpt>
		<trkpt lat="39.5788345336914" lon="2.71326446533203">
			<ele>68.8000030517578</ele>
			<time>2013-12-29T14:19:10Z</time>
		</trkpt>
		<trkpt lat="39.5788383483887" lon="2.71337270736694">
			<ele>68.6999969482422</ele>
			<time>2013-12-29T14:19:12Z</time>
		</trkpt>
		<trkpt lat="39.5788421630859" lon="2.71348428726196">
			<ele>68.5999984741211</ele>
			<time>2013-12-29T14:19:14Z</time>
		</trkpt>
		<trkpt lat="39.5788459777832" lon="2.71359515190125">
			<ele>68.6999969482422</ele>
			<time>2013-12-29T14:19:16Z</time>
		</trkpt>
		<trkpt lat="39.5788536071777" lon="2.71370506286621">
			<ele>68.8000030517578</ele>
			<time>2013-12-29T14:19:18Z</time>
		</trkpt>
		<trkpt lat="39.578857421875" lon="2.71380972862244">
			<ele>68.6999969482422</ele>
			<time>2013-12-29T14:19:20Z</time>
		</trkpt>
		<trkpt lat="39.5788650512695" lon="2.71391701698303">
			<ele>68.4000015258789</ele>
			<time>2013-12-29T14:19:22Z</time>
		</trkpt>
		<trkpt lat="39.5788650512695" lon="2.71402668952942">
			<ele>68.4000015258789</ele>
			<time>2013-12-29T14:19:24Z</time>
		</trkpt>
		<trkpt lat="39.5788726806641" lon="2.71413612365723">
			<ele>68.3000030517578</ele>
			<time>2013-12-29T14:19:26Z</time>
		</trkpt>
		<trkpt lat="39.5788764953613" lon="2.71419453620911">
			<ele>68.3000030517578</ele>
			<time>2013-12-29T14:19:27Z</time>
		</trkpt>
		<trkpt lat="39.5788841247559" lon="2.71430611610413">
			<ele>68.1999969482422</ele>
			<time>2013-12-29T14:19:29Z</time>
		</trkpt>
		<trkpt lat="39.5788879394531" lon="2.71442008018494">
			<ele>67.8000030517578</ele>
			<time>2013-12-29T14:19:31Z</time>
		</trkpt>
		<trkpt lat="39.5788917541504" lon="2.71453523635864">
			<ele>67.6999969482422</ele>
			<time>2013-12-29T14:19:33Z</time>
		</trkpt>
		<trkpt lat="39.5788993835449" lon="2.71465039253235">
			<ele>68.1999969482422</ele>
			<time>2013-12-29T14:19:35Z</time>
		</trkpt>
		<trkpt lat="39.5789070129395" lon="2.71470975875854">
			<ele>68.1999969482422</ele>
			<time>2013-12-29T14:19:36Z</time>
		</trkpt>
		<trkpt lat="39.5789070129395" lon="2.71476864814758">
			<ele>68.0999984741211</ele>
			<time>2013-12-29T14:19:37Z</time>
		</trkpt>
		<trkpt lat="39.5789108276367" lon="2.71482706069946">
			<ele>68.1999969482422</ele>
			<time>2013-12-29T14:19:38Z</time>
		</trkpt>
		<trkpt lat="39.5789108276367" lon="2.71488738059998">
			<ele>68</ele>
			<time>2013-12-29T14:19:39Z</time>
		</trkpt>
		<trkpt lat="39.5789070129395" lon="2.71494746208191">
			<ele>68.0999984741211</ele>
			<time>2013-12-29T14:19:40Z</time>
		</trkpt>
		<trkpt lat="39.5789108276367" lon="2.71506142616272">
			<ele>67.8000030517578</ele>
			<time>2013-12-29T14:19:42Z</time>
		</trkpt>
		<trkpt lat="39.578914642334" lon="2.7151734828949">
			<ele>67.4000015258789</ele>
			<time>2013-12-29T14:19:44Z</time>
		</trkpt>
		<trkpt lat="39.5789184570313" lon="2.71528291702271">
			<ele>67.3000030517578</ele>
			<time>2013-12-29T14:19:46Z</time>
		</trkpt>
		<trkpt lat="39.5789222717285" lon="2.71538519859314">
			<ele>67.3000030517578</ele>
			<time>2013-12-29T14:19:48Z</time>
		</trkpt>
		<trkpt lat="39.5789222717285" lon="2.71548581123352">
			<ele>67.3000030517578</ele>
			<time>2013-12-29T14:19:50Z</time>
		</trkpt>
		<trkpt lat="39.5789184570313" lon="2.71557998657227">
			<ele>67.1999969482422</ele>
			<time>2013-12-29T14:19:52Z</time>
		</trkpt>
		<trkpt lat="39.578914642334" lon="2.7156548500061">
			<ele>67.1999969482422</ele>
			<time>2013-12-29T14:19:54Z</time>
		</trkpt>
		<trkpt lat="39.5789108276367" lon="2.71572709083557">
			<ele>68.9000015258789</ele>
			<time>2013-12-29T14:20:15Z</time>
		</trkpt>
		<trkpt lat="39.5788993835449" lon="2.71581649780273">
			<ele>68.8000030517578</ele>
			<time>2013-12-29T14:20:18Z</time>
		</trkpt>
		<trkpt lat="39.5788955688477" lon="2.71590709686279">
			<ele>69.5</ele>
			<time>2013-12-29T14:20:20Z</time>
		</trkpt>
		<trkpt lat="39.5788841247559" lon="2.71596574783325">
			<ele>69.1999969482422</ele>
			<time>2013-12-29T14:20:21Z</time>
		</trkpt>
		<trkpt lat="39.5788764953613" lon="2.71607446670532">
			<ele>69</ele>
			<time>2013-12-29T14:20:23Z</time>
		</trkpt>
		<trkpt lat="39.5788650512695" lon="2.71618270874023">
			<ele>69.5</ele>
			<time>2013-12-29T14:20:25Z</time>
		</trkpt>
		<trkpt lat="39.5788536071777" lon="2.71628379821777">
			<ele>69.4000015258789</ele>
			<time>2013-12-29T14:20:27Z</time>
		</trkpt>
		<trkpt lat="39.5788345336914" lon="2.71638131141663">
			<ele>69.4000015258789</ele>
			<time>2013-12-29T14:20:29Z</time>
		</trkpt>
		<trkpt lat="39.5788383483887" lon="2.716477394104">
			<ele>69.8000030517578</ele>
			<time>2013-12-29T14:20:31Z</time>
		</trkpt>
		<trkpt lat="39.5788383483887" lon="2.71657347679138">
			<ele>69.5999984741211</ele>
			<time>2013-12-29T14:20:33Z</time>
		</trkpt>
		<trkpt lat="39.5788383483887" lon="2.71667313575745">
			<ele>69</ele>
			<time>2013-12-29T14:20:35Z</time>
		</trkpt>
		<trkpt lat="39.5788345336914" lon="2.71678018569946">
			<ele>68.6999969482422</ele>
			<time>2013-12-29T14:20:37Z</time>
		</trkpt>
		<trkpt lat="39.5788269042969" lon="2.71688604354858">
			<ele>67.8000030517578</ele>
			<time>2013-12-29T14:20:39Z</time>
		</trkpt>
		<trkpt lat="39.5787887573242" lon="2.7169873714447">
			<ele>67.3000030517578</ele>
			<time>2013-12-29T14:20:41Z</time>
		</trkpt>
		<trkpt lat="39.578742980957" lon="2.7170078754425">
			<ele>67.6999969482422</ele>
			<time>2013-12-29T14:20:42Z</time>
		</trkpt>
		<trkpt lat="39.5786552429199" lon="2.71702289581299">
			<ele>68.0999984741211</ele>
			<time>2013-12-29T14:20:44Z</time>
		</trkpt>
		<trkpt lat="39.5785675048828" lon="2.71705603599548">
			<ele>67.9000015258789</ele>
			<time>2013-12-29T14:20:46Z</time>
		</trkpt>
		<trkpt lat="39.5784797668457" lon="2.71708679199219">
			<ele>68.5</ele>
			<time>2013-12-29T14:20:48Z</time>
		</trkpt>
		<trkpt lat="39.5784339904785" lon="2.71710109710693">
			<ele>68.4000015258789</ele>
			<time>2013-12-29T14:20:49Z</time>
		</trkpt>
		<trkpt lat="39.5783882141113" lon="2.71711468696594">
			<ele>68.5999984741211</ele>
			<time>2013-12-29T14:20:50Z</time>
		</trkpt>
		<trkpt lat="39.5783004760742" lon="2.71713471412659">
			<ele>68.6999969482422</ele>
			<time>2013-12-29T14:20:52Z</time>
		</trkpt>
		<trkpt lat="39.5782279968262" lon="2.71712636947632">
			<ele>65.5999984741211</ele>
			<time>2013-12-29T14:20:54Z</time>
		</trkpt>
		<trkpt lat="39.5781440734863" lon="2.71715569496155">
			<ele>65.5</ele>
			<time>2013-12-29T14:20:56Z</time>
		</trkpt>
		<trkpt lat="39.5780639648438" lon="2.7171778678894">
			<ele>65.3000030517578</ele>
			<time>2013-12-29T14:20:58Z</time>
		</trkpt>
		<trkpt lat="39.5779762268066" lon="2.71721220016479">
			<ele>64.8000030517578</ele>
			<time>2013-12-29T14:21:00Z</time>
		</trkpt>
		<trkpt lat="39.5779113769531" lon="2.71724724769592">
			<ele>64.4000015258789</ele>
			<time>2013-12-29T14:21:02Z</time>
		</trkpt>
		<trkpt lat="39.5778388977051" lon="2.71726655960083">
			<ele>63.9000015258789</ele>
			<time>2013-12-29T14:21:04Z</time>
		</trkpt>
		<trkpt lat="39.5777740478516" lon="2.71728706359863">
			<ele>64</ele>
			<time>2013-12-29T14:21:06Z</time>
		</trkpt>
		<trkpt lat="39.5777168273926" lon="2.71731209754944">
			<ele>63.9000015258789</ele>
			<time>2013-12-29T14:21:08Z</time>
		</trkpt>
		<trkpt lat="39.5776557922363" lon="2.71732401847839">
			<ele>64.5</ele>
			<time>2013-12-29T14:21:10Z</time>
		</trkpt>
		<trkpt lat="39.5775947570801" lon="2.71734428405762">
			<ele>65.4000015258789</ele>
			<time>2013-12-29T14:21:12Z</time>
		</trkpt>
		<trkpt lat="39.5775413513184" lon="2.71736764907837">
			<ele>66.3000030517578</ele>
			<time>2013-12-29T14:21:14Z</time>
		</trkpt>
		<trkpt lat="39.5774803161621" lon="2.71739792823792">
			<ele>66.9000015258789</ele>
			<time>2013-12-29T14:21:16Z</time>
		</trkpt>
		<trkpt lat="39.5774116516113" lon="2.71742963790894">
			<ele>67.1999969482422</ele>
			<time>2013-12-29T14:21:18Z</time>
		</trkpt>
		<trkpt lat="39.5773315429688" lon="2.71745181083679">
			<ele>66.8000030517578</ele>
			<time>2013-12-29T14:21:20Z</time>
		</trkpt>
		<trkpt lat="39.5772857666016" lon="2.71746039390564">
			<ele>66.6999969482422</ele>
			<time>2013-12-29T14:21:21Z</time>
		</trkpt>
		<trkpt lat="39.5772399902344" lon="2.71747136116028">
			<ele>66.6999969482422</ele>
			<time>2013-12-29T14:21:22Z</time>
		</trkpt>
		<trkpt lat="39.5771942138672" lon="2.71748828887939">
			<ele>66.9000015258789</ele>
			<time>2013-12-29T14:21:23Z</time>
		</trkpt>
		<trkpt lat="39.5771484375" lon="2.71750640869141">
			<ele>66.8000030517578</ele>
			<time>2013-12-29T14:21:24Z</time>
		</trkpt>
		<trkpt lat="39.5771026611328" lon="2.71752643585205">
			<ele>66.8000030517578</ele>
			<time>2013-12-29T14:21:25Z</time>
		</trkpt>
		<trkpt lat="39.5770530700684" lon="2.71754360198975">
			<ele>66.8000030517578</ele>
			<time>2013-12-29T14:21:26Z</time>
		</trkpt>
		<trkpt lat="39.5770034790039" lon="2.71755719184875">
			<ele>67</ele>
			<time>2013-12-29T14:21:27Z</time>
		</trkpt>
		<trkpt lat="39.5769538879395" lon="2.71757578849792">
			<ele>66.6999969482422</ele>
			<time>2013-12-29T14:21:28Z</time>
		</trkpt>
		<trkpt lat="39.5769081115723" lon="2.71759462356567">
			<ele>66.5999984741211</ele>
			<time>2013-12-29T14:21:29Z</time>
		</trkpt>
		<trkpt lat="39.5768623352051" lon="2.71760940551758">
			<ele>66.6999969482422</ele>
			<time>2013-12-29T14:21:30Z</time>
		</trkpt>
		<trkpt lat="39.5768165588379" lon="2.71762204170227">
			<ele>66.8000030517578</ele>
			<time>2013-12-29T14:21:31Z</time>
		</trkpt>
		<trkpt lat="39.5767669677734" lon="2.71763443946838">
			<ele>67.1999969482422</ele>
			<time>2013-12-29T14:21:32Z</time>
		</trkpt>
		<trkpt lat="39.5767211914063" lon="2.71765804290771">
			<ele>67.4000015258789</ele>
			<time>2013-12-29T14:21:33Z</time>
		</trkpt>
		<trkpt lat="39.5766716003418" lon="2.71767640113831">
			<ele>67.0999984741211</ele>
			<time>2013-12-29T14:21:34Z</time>
		</trkpt>
		<trkpt lat="39.5766258239746" lon="2.71769642829895">
			<ele>66.8000030517578</ele>
			<time>2013-12-29T14:21:35Z</time>
		</trkpt>
		<trkpt lat="39.5765724182129" lon="2.71770453453064">
			<ele>66.8000030517578</ele>
			<time>2013-12-29T14:21:36Z</time>
		</trkpt>
		<trkpt lat="39.5765228271484" lon="2.71771788597107">
			<ele>67.1999969482422</ele>
			<time>2013-12-29T14:21:37Z</time>
		</trkpt>
		<trkpt lat="39.576473236084" lon="2.71772384643555">
			<ele>67.0999984741211</ele>
			<time>2013-12-29T14:21:38Z</time>
		</trkpt>
		<trkpt lat="39.5764274597168" lon="2.71773838996887">
			<ele>67.1999969482422</ele>
			<time>2013-12-29T14:21:39Z</time>
		</trkpt>
		<trkpt lat="39.5763816833496" lon="2.7177529335022">
			<ele>67.0999984741211</ele>
			<time>2013-12-29T14:21:40Z</time>
		</trkpt>
		<trkpt lat="39.5763359069824" lon="2.71776247024536">
			<ele>67.5</ele>
			<time>2013-12-29T14:21:41Z</time>
		</trkpt>
		<trkpt lat="39.576286315918" lon="2.71778035163879">
			<ele>67.5999984741211</ele>
			<time>2013-12-29T14:21:42Z</time>
		</trkpt>
		<trkpt lat="39.5762405395508" lon="2.71779990196228">
			<ele>67.5999984741211</ele>
			<time>2013-12-29T14:21:43Z</time>
		</trkpt>
		<trkpt lat="39.5761947631836" lon="2.71782088279724">
			<ele>68.0999984741211</ele>
			<time>2013-12-29T14:21:44Z</time>
		</trkpt>
		<trkpt lat="39.5761489868164" lon="2.71782875061035">
			<ele>68</ele>
			<time>2013-12-29T14:21:45Z</time>
		</trkpt>
		<trkpt lat="39.576057434082" lon="2.71785593032837">
			<ele>67.9000015258789</ele>
			<time>2013-12-29T14:21:47Z</time>
		</trkpt>
		<trkpt lat="39.5760116577148" lon="2.71787166595459">
			<ele>67.9000015258789</ele>
			<time>2013-12-29T14:21:48Z</time>
		</trkpt>
		<trkpt lat="39.5759582519531" lon="2.71789622306824">
			<ele>68.6999969482422</ele>
			<time>2013-12-29T14:21:49Z</time>
		</trkpt>
		<trkpt lat="39.5759124755859" lon="2.71792244911194">
			<ele>69.4000015258789</ele>
			<time>2013-12-29T14:21:50Z</time>
		</trkpt>
		<trkpt lat="39.5758628845215" lon="2.71793723106384">
			<ele>69.3000030517578</ele>
			<time>2013-12-29T14:21:51Z</time>
		</trkpt>
		<trkpt lat="39.5758171081543" lon="2.71794843673706">
			<ele>68.9000015258789</ele>
			<time>2013-12-29T14:21:52Z</time>
		</trkpt>
		<trkpt lat="39.5757637023926" lon="2.71796035766602">
			<ele>68.3000030517578</ele>
			<time>2013-12-29T14:21:53Z</time>
		</trkpt>
		<trkpt lat="39.5757179260254" lon="2.71797370910645">
			<ele>68.0999984741211</ele>
			<time>2013-12-29T14:21:54Z</time>
		</trkpt>
		<trkpt lat="39.5756721496582" lon="2.71799397468567">
			<ele>67.9000015258789</ele>
			<time>2013-12-29T14:21:55Z</time>
		</trkpt>
		<trkpt lat="39.5756225585938" lon="2.71800446510315">
			<ele>67.6999969482422</ele>
			<time>2013-12-29T14:21:56Z</time>
		</trkpt>
		<trkpt lat="39.575569152832" lon="2.7180163860321">
			<ele>67.5999984741211</ele>
			<time>2013-12-29T14:21:57Z</time>
		</trkpt>
		<trkpt lat="39.5754699707031" lon="2.71804118156433">
			<ele>68.3000030517578</ele>
			<time>2013-12-29T14:21:59Z</time>
		</trkpt>
		<trkpt lat="39.575382232666" lon="2.71808743476868">
			<ele>66.9000015258789</ele>
			<time>2013-12-29T14:22:01Z</time>
		</trkpt>
		<trkpt lat="39.5752983093262" lon="2.71811318397522">
			<ele>66.4000015258789</ele>
			<time>2013-12-29T14:22:03Z</time>
		</trkpt>
		<trkpt lat="39.5752487182617" lon="2.71812081336975">
			<ele>65.9000015258789</ele>
			<time>2013-12-29T14:22:04Z</time>
		</trkpt>
		<trkpt lat="39.5752029418945" lon="2.71813154220581">
			<ele>65.4000015258789</ele>
			<time>2013-12-29T14:22:05Z</time>
		</trkpt>
		<trkpt lat="39.5751533508301" lon="2.71814751625061">
			<ele>65.5999984741211</ele>
			<time>2013-12-29T14:22:06Z</time>
		</trkpt>
		<trkpt lat="39.5751075744629" lon="2.71816110610962">
			<ele>65.5</ele>
			<time>2013-12-29T14:22:07Z</time>
		</trkpt>
		<trkpt lat="39.5750617980957" lon="2.71817946434021">
			<ele>65.9000015258789</ele>
			<time>2013-12-29T14:22:08Z</time>
		</trkpt>
		<trkpt lat="39.5750160217285" lon="2.71819758415222">
			<ele>66.5</ele>
			<time>2013-12-29T14:22:09Z</time>
		</trkpt>
		<trkpt lat="39.5749740600586" lon="2.71822309494019">
			<ele>66.8000030517578</ele>
			<time>2013-12-29T14:22:10Z</time>
		</trkpt>
		<trkpt lat="39.5749206542969" lon="2.71824145317078">
			<ele>66.8000030517578</ele>
			<time>2013-12-29T14:22:11Z</time>
		</trkpt>
		<trkpt lat="39.5748443603516" lon="2.71828055381775">
			<ele>67</ele>
			<time>2013-12-29T14:22:13Z</time>
		</trkpt>
		<trkpt lat="39.5747985839844" lon="2.71829652786255">
			<ele>67.1999969482422</ele>
			<time>2013-12-29T14:22:14Z</time>
		</trkpt>
		<trkpt lat="39.5747528076172" lon="2.71831130981445">
			<ele>67.0999984741211</ele>
			<time>2013-12-29T14:22:15Z</time>
		</trkpt>
		<trkpt lat="39.57470703125" lon="2.71833157539368">
			<ele>67.5</ele>
			<time>2013-12-29T14:22:16Z</time>
		</trkpt>
		<trkpt lat="39.5746612548828" lon="2.7183473110199">
			<ele>67.8000030517578</ele>
			<time>2013-12-29T14:22:17Z</time>
		</trkpt>
		<trkpt lat="39.5746154785156" lon="2.71835803985596">
			<ele>68.0999984741211</ele>
			<time>2013-12-29T14:22:18Z</time>
		</trkpt>
		<trkpt lat="39.5745697021484" lon="2.71837115287781">
			<ele>68.6999969482422</ele>
			<time>2013-12-29T14:22:19Z</time>
		</trkpt>
		<trkpt lat="39.574520111084" lon="2.7183883190155">
			<ele>68.8000030517578</ele>
			<time>2013-12-29T14:22:20Z</time>
		</trkpt>
		<trkpt lat="39.5744743347168" lon="2.71840620040894">
			<ele>68.8000030517578</ele>
			<time>2013-12-29T14:22:21Z</time>
		</trkpt>
		<trkpt lat="39.5744285583496" lon="2.71842479705811">
			<ele>68.8000030517578</ele>
			<time>2013-12-29T14:22:22Z</time>
		</trkpt>
		<trkpt lat="39.5743370056152" lon="2.71846628189087">
			<ele>67.6999969482422</ele>
			<time>2013-12-29T14:22:24Z</time>
		</trkpt>
		<trkpt lat="39.5742950439453" lon="2.71848034858704">
			<ele>68</ele>
			<time>2013-12-29T14:22:25Z</time>
		</trkpt>
		<trkpt lat="39.5742492675781" lon="2.71849608421326">
			<ele>68.5999984741211</ele>
			<time>2013-12-29T14:22:26Z</time>
		</trkpt>
		<trkpt lat="39.5742034912109" lon="2.71850943565369">
			<ele>69.4000015258789</ele>
			<time>2013-12-29T14:22:27Z</time>
		</trkpt>
		<trkpt lat="39.5741233825684" lon="2.71851849555969">
			<ele>68.5</ele>
			<time>2013-12-29T14:22:29Z</time>
		</trkpt>
		<trkpt lat="39.5740776062012" lon="2.71852660179138">
			<ele>67.8000030517578</ele>
			<time>2013-12-29T14:22:30Z</time>
		</trkpt>
		<trkpt lat="39.5739898681641" lon="2.71855306625366">
			<ele>66.8000030517578</ele>
			<time>2013-12-29T14:22:32Z</time>
		</trkpt>
		<trkpt lat="39.573902130127" lon="2.71857762336731">
			<ele>66.3000030517578</ele>
			<time>2013-12-29T14:22:34Z</time>
		</trkpt>
		<trkpt lat="39.5738525390625" lon="2.71859264373779">
			<ele>66</ele>
			<time>2013-12-29T14:22:35Z</time>
		</trkpt>
		<trkpt lat="39.5738067626953" lon="2.71860647201538">
			<ele>65.6999969482422</ele>
			<time>2013-12-29T14:22:36Z</time>
		</trkpt>
		<trkpt lat="39.5737648010254" lon="2.71862196922302">
			<ele>65.1999969482422</ele>
			<time>2013-12-29T14:22:37Z</time>
		</trkpt>
		<trkpt lat="39.5737190246582" lon="2.71864223480225">
			<ele>65.0999984741211</ele>
			<time>2013-12-29T14:22:38Z</time>
		</trkpt>
		<trkpt lat="39.5736770629883" lon="2.71866083145142">
			<ele>64.9000015258789</ele>
			<time>2013-12-29T14:22:39Z</time>
		</trkpt>
		<trkpt lat="39.5735931396484" lon="2.71869254112244">
			<ele>64.5</ele>
			<time>2013-12-29T14:22:41Z</time>
		</trkpt>
		<trkpt lat="39.573543548584" lon="2.71869802474976">
			<ele>64.5999984741211</ele>
			<time>2013-12-29T14:22:42Z</time>
		</trkpt>
		<trkpt lat="39.5734634399414" lon="2.7187340259552">
			<ele>64.9000015258789</ele>
			<time>2013-12-29T14:22:44Z</time>
		</trkpt>
		<trkpt lat="39.5733795166016" lon="2.7187671661377">
			<ele>65.8000030517578</ele>
			<time>2013-12-29T14:22:46Z</time>
		</trkpt>
		<trkpt lat="39.5733184814453" lon="2.71879482269287">
			<ele>66.5999984741211</ele>
			<time>2013-12-29T14:22:48Z</time>
		</trkpt>
		<trkpt lat="39.573299407959" lon="2.71886229515076">
			<ele>66.6999969482422</ele>
			<time>2013-12-29T14:22:50Z</time>
		</trkpt>
		<trkpt lat="39.5732498168945" lon="2.71888375282288">
			<ele>65.5</ele>
			<time>2013-12-29T14:22:54Z</time>
		</trkpt>
		<trkpt lat="39.573184967041" lon="2.71888184547424">
			<ele>65</ele>
			<time>2013-12-29T14:22:56Z</time>
		</trkpt>
		<trkpt lat="39.5731391906738" lon="2.71889448165894">
			<ele>64.5</ele>
			<time>2013-12-29T14:22:58Z</time>
		</trkpt>
		<trkpt lat="39.5730857849121" lon="2.71891021728516">
			<ele>64.1999969482422</ele>
			<time>2013-12-29T14:23:01Z</time>
		</trkpt>
		<trkpt lat="39.5730133056641" lon="2.71893215179443">
			<ele>63.7000007629395</ele>
			<time>2013-12-29T14:23:04Z</time>
		</trkpt>
		<trkpt lat="39.5729560852051" lon="2.71894931793213">
			<ele>63.9000015258789</ele>
			<time>2013-12-29T14:23:06Z</time>
		</trkpt>
		<trkpt lat="39.5728988647461" lon="2.71896696090698">
			<ele>64.4000015258789</ele>
			<time>2013-12-29T14:23:08Z</time>
		</trkpt>
		<trkpt lat="39.5728378295898" lon="2.71895551681519">
			<ele>65.5999984741211</ele>
			<time>2013-12-29T14:23:10Z</time>
		</trkpt>
		<trkpt lat="39.5727844238281" lon="2.71895289421082">
			<ele>65.4000015258789</ele>
			<time>2013-12-29T14:23:11Z</time>
		</trkpt>
		<trkpt lat="39.5727233886719" lon="2.7189667224884">
			<ele>65.5</ele>
			<time>2013-12-29T14:23:14Z</time>
		</trkpt>
		<trkpt lat="39.5726509094238" lon="2.71898913383484">
			<ele>65</ele>
			<time>2013-12-29T14:23:16Z</time>
		</trkpt>
		<trkpt lat="39.5725746154785" lon="2.71900677680969">
			<ele>65.3000030517578</ele>
			<time>2013-12-29T14:23:18Z</time>
		</trkpt>
		<trkpt lat="39.5724906921387" lon="2.71903276443481">
			<ele>65.6999969482422</ele>
			<time>2013-12-29T14:23:20Z</time>
		</trkpt>
		<trkpt lat="39.5724105834961" lon="2.71906065940857">
			<ele>65.4000015258789</ele>
			<time>2013-12-29T14:23:22Z</time>
		</trkpt>
		<trkpt lat="39.5723266601563" lon="2.71909070014954">
			<ele>65.3000030517578</ele>
			<time>2013-12-29T14:23:24Z</time>
		</trkpt>
		<trkpt lat="39.5722465515137" lon="2.71911954879761">
			<ele>64.4000015258789</ele>
			<time>2013-12-29T14:23:26Z</time>
		</trkpt>
		<trkpt lat="39.5721626281738" lon="2.7191526889801">
			<ele>64.3000030517578</ele>
			<time>2013-12-29T14:23:28Z</time>
		</trkpt>
		<trkpt lat="39.572078704834" lon="2.71919083595276">
			<ele>64.4000015258789</ele>
			<time>2013-12-29T14:23:30Z</time>
		</trkpt>
		<trkpt lat="39.5720367431641" lon="2.71920204162598">
			<ele>64.6999969482422</ele>
			<time>2013-12-29T14:23:31Z</time>
		</trkpt>
		<trkpt lat="39.5719528198242" lon="2.71922826766968">
			<ele>63.9000015258789</ele>
			<time>2013-12-29T14:23:33Z</time>
		</trkpt>
		<trkpt lat="39.5718688964844" lon="2.71925783157349">
			<ele>63.7999992370605</ele>
			<time>2013-12-29T14:23:35Z</time>
		</trkpt>
		<trkpt lat="39.5717849731445" lon="2.71929311752319">
			<ele>64</ele>
			<time>2013-12-29T14:23:37Z</time>
		</trkpt>
		<trkpt lat="39.5717086791992" lon="2.71932125091553">
			<ele>63.4000015258789</ele>
			<time>2013-12-29T14:23:39Z</time>
		</trkpt>
		<trkpt lat="39.5716323852539" lon="2.71935129165649">
			<ele>63.5999984741211</ele>
			<time>2013-12-29T14:23:41Z</time>
		</trkpt>
		<trkpt lat="39.5715560913086" lon="2.71937441825867">
			<ele>63.7000007629395</ele>
			<time>2013-12-29T14:23:43Z</time>
		</trkpt>
		<trkpt lat="39.5714874267578" lon="2.71938371658325">
			<ele>63.4000015258789</ele>
			<time>2013-12-29T14:23:45Z</time>
		</trkpt>
		<trkpt lat="39.5714416503906" lon="2.71938276290894">
			<ele>63.2000007629395</ele>
			<time>2013-12-29T14:23:47Z</time>
		</trkpt>
		<trkpt lat="39.5713844299316" lon="2.71941089630127">
			<ele>63.2000007629395</ele>
			<time>2013-12-29T14:23:49Z</time>
		</trkpt>
		<trkpt lat="39.5713768005371" lon="2.71946978569031">
			<ele>63</ele>
			<time>2013-12-29T14:24:01Z</time>
		</trkpt>
		<trkpt lat="39.5713348388672" lon="2.71949815750122">
			<ele>61.5999984741211</ele>
			<time>2013-12-29T14:24:13Z</time>
		</trkpt>
		<trkpt lat="39.5712852478027" lon="2.71952176094055">
			<ele>60.4000015258789</ele>
			<time>2013-12-29T14:24:17Z</time>
		</trkpt>
		<trkpt lat="39.5712699890137" lon="2.71958255767822">
			<ele>61.7000007629395</ele>
			<time>2013-12-29T14:24:21Z</time>
		</trkpt>
		<trkpt lat="39.5712699890137" lon="2.71965193748474">
			<ele>61.2000007629395</ele>
			<time>2013-12-29T14:24:26Z</time>
		</trkpt>
		<trkpt lat="39.5712661743164" lon="2.71971940994263">
			<ele>62.2000007629395</ele>
			<time>2013-12-29T14:24:30Z</time>
		</trkpt>
		<trkpt lat="39.5712585449219" lon="2.71978521347046">
			<ele>62.5999984741211</ele>
			<time>2013-12-29T14:24:35Z</time>
		</trkpt>
		<trkpt lat="39.5712623596191" lon="2.71984624862671">
			<ele>62.0999984741211</ele>
			<time>2013-12-29T14:24:41Z</time>
		</trkpt>
		<trkpt lat="39.5712738037109" lon="2.71992015838623">
			<ele>64.3000030517578</ele>
			<time>2013-12-29T14:24:45Z</time>
		</trkpt>
		<trkpt lat="39.5712928771973" lon="2.71998953819275">
			<ele>64</ele>
			<time>2013-12-29T14:24:51Z</time>
		</trkpt>
		<trkpt lat="39.5712356567383" lon="2.7200140953064">
			<ele>63.7000007629395</ele>
			<time>2013-12-29T14:24:57Z</time>
		</trkpt>
		<trkpt lat="39.5711860656738" lon="2.72002387046814">
			<ele>63.7000007629395</ele>
			<time>2013-12-29T14:25:02Z</time>
		</trkpt>
		<trkpt lat="39.5711326599121" lon="2.72002410888672">
			<ele>64.8000030517578</ele>
			<time>2013-12-29T14:25:07Z</time>
		</trkpt>
		<trkpt lat="39.5710792541504" lon="2.72002792358398">
			<ele>64.9000015258789</ele>
			<time>2013-12-29T14:25:09Z</time>
		</trkpt>
		<trkpt lat="39.5710258483887" lon="2.72003507614136">
			<ele>64.5999984741211</ele>
			<time>2013-12-29T14:25:11Z</time>
		</trkpt>
		<trkpt lat="39.5709686279297" lon="2.72003412246704">
			<ele>64.1999969482422</ele>
			<time>2013-12-29T14:25:13Z</time>
		</trkpt>
		<trkpt lat="39.5709075927734" lon="2.72003960609436">
			<ele>64.3000030517578</ele>
			<time>2013-12-29T14:25:15Z</time>
		</trkpt>
		<trkpt lat="39.5708541870117" lon="2.72005844116211">
			<ele>64.3000030517578</ele>
			<time>2013-12-29T14:25:17Z</time>
		</trkpt>
		<trkpt lat="39.57080078125" lon="2.72008085250854">
			<ele>64.5</ele>
			<time>2013-12-29T14:25:20Z</time>
		</trkpt>
		<trkpt lat="39.5707511901855" lon="2.72011971473694">
			<ele>63.4000015258789</ele>
			<time>2013-12-29T14:25:24Z</time>
		</trkpt>
		<trkpt lat="39.5706977844238" lon="2.72013902664185">
			<ele>63.0999984741211</ele>
			<time>2013-12-29T14:25:28Z</time>
		</trkpt>
		<trkpt lat="39.5706558227539" lon="2.72016644477844">
			<ele>61.2000007629395</ele>
			<time>2013-12-29T14:59:51Z</time>
		</trkpt>
		<trkpt lat="39.5706253051758" lon="2.72023129463196">
			<ele>61.4000015258789</ele>
			<time>2013-12-29T14:59:54Z</time>
		</trkpt>
		<trkpt lat="39.5706100463867" lon="2.7202935218811">
			<ele>61.5</ele>
			<time>2013-12-29T14:59:56Z</time>
		</trkpt>
		<trkpt lat="39.5706062316895" lon="2.72036170959473">
			<ele>61.4000015258789</ele>
			<time>2013-12-29T14:59:59Z</time>
		</trkpt>
		<trkpt lat="39.5706024169922" lon="2.72042727470398">
			<ele>61.2000007629395</ele>
			<time>2013-12-29T15:00:01Z</time>
		</trkpt>
		<trkpt lat="39.5705947875977" lon="2.72048687934875">
			<ele>61.4000015258789</ele>
			<time>2013-12-29T15:00:03Z</time>
		</trkpt>
		<trkpt lat="39.5705871582031" lon="2.72054696083069">
			<ele>61.4000015258789</ele>
			<time>2013-12-29T15:00:05Z</time>
		</trkpt>
		<trkpt lat="39.5705909729004" lon="2.72060656547546">
			<ele>60.9000015258789</ele>
			<time>2013-12-29T15:00:07Z</time>
		</trkpt>
		<trkpt lat="39.5706367492676" lon="2.72066140174866">
			<ele>61.2000007629395</ele>
			<time>2013-12-29T15:00:09Z</time>
		</trkpt>
		<trkpt lat="39.5706977844238" lon="2.72068047523499">
			<ele>61</ele>
			<time>2013-12-29T15:00:12Z</time>
		</trkpt>
		<trkpt lat="39.5707817077637" lon="2.72068190574646">
			<ele>60.2999992370605</ele>
			<time>2013-12-29T15:00:14Z</time>
		</trkpt>
		<trkpt lat="39.5708541870117" lon="2.72068762779236">
			<ele>59.7999992370605</ele>
			<time>2013-12-29T15:00:16Z</time>
		</trkpt>
		<trkpt lat="39.5709419250488" lon="2.72069048881531">
			<ele>60.9000015258789</ele>
			<time>2013-12-29T15:00:18Z</time>
		</trkpt>
		<trkpt lat="39.5710105895996" lon="2.72069549560547">
			<ele>60.7999992370605</ele>
			<time>2013-12-29T15:00:20Z</time>
		</trkpt>
		<trkpt lat="39.5710754394531" lon="2.72070455551147">
			<ele>61.0999984741211</ele>
			<time>2013-12-29T15:00:22Z</time>
		</trkpt>
		<trkpt lat="39.5711326599121" lon="2.7207248210907">
			<ele>61.2000007629395</ele>
			<time>2013-12-29T15:00:24Z</time>
		</trkpt>
		<trkpt lat="39.5711784362793" lon="2.72078037261963">
			<ele>61.2999992370605</ele>
			<time>2013-12-29T15:00:26Z</time>
		</trkpt>
		<trkpt lat="39.5711936950684" lon="2.72085523605347">
			<ele>60.7000007629395</ele>
			<time>2013-12-29T15:00:28Z</time>
		</trkpt>
		<trkpt lat="39.5712013244629" lon="2.72092747688293">
			<ele>61.2999992370605</ele>
			<time>2013-12-29T15:00:30Z</time>
		</trkpt>
		<trkpt lat="39.5712127685547" lon="2.7210111618042">
			<ele>61.9000015258789</ele>
			<time>2013-12-29T15:00:32Z</time>
		</trkpt>
		<trkpt lat="39.5711975097656" lon="2.72107458114624">
			<ele>61.5</ele>
			<time>2013-12-29T15:00:34Z</time>
		</trkpt>
		<trkpt lat="39.571216583252" lon="2.72117400169373">
			<ele>62.0999984741211</ele>
			<time>2013-12-29T15:00:37Z</time>
		</trkpt>
		<trkpt lat="39.5711975097656" lon="2.72125387191772">
			<ele>62.2999992370605</ele>
			<time>2013-12-29T15:00:39Z</time>
		</trkpt>
		<trkpt lat="39.5711936950684" lon="2.72131967544556">
			<ele>63.9000015258789</ele>
			<time>2013-12-29T15:00:41Z</time>
		</trkpt>
		<trkpt lat="39.5712585449219" lon="2.72135257720947">
			<ele>62.2000007629395</ele>
			<time>2013-12-29T15:01:30Z</time>
		</trkpt>
		<trkpt lat="39.5712814331055" lon="2.7214252948761">
			<ele>62.5</ele>
			<time>2013-12-29T15:01:33Z</time>
		</trkpt>
		<trkpt lat="39.5712890625" lon="2.72149705886841">
			<ele>62.0999984741211</ele>
			<time>2013-12-29T15:01:34Z</time>
		</trkpt>
		<trkpt lat="39.5712814331055" lon="2.72158885002136">
			<ele>62.2000007629395</ele>
			<time>2013-12-29T15:01:37Z</time>
		</trkpt>
		<trkpt lat="39.5712814331055" lon="2.72167754173279">
			<ele>62</ele>
			<time>2013-12-29T15:01:39Z</time>
		</trkpt>
		<trkpt lat="39.5712776184082" lon="2.72176575660706">
			<ele>61.9000015258789</ele>
			<time>2013-12-29T15:01:41Z</time>
		</trkpt>
		<trkpt lat="39.5712776184082" lon="2.72186541557312">
			<ele>61.9000015258789</ele>
			<time>2013-12-29T15:01:43Z</time>
		</trkpt>
		<trkpt lat="39.5712776184082" lon="2.72197031974792">
			<ele>61.5</ele>
			<time>2013-12-29T15:01:45Z</time>
		</trkpt>
		<trkpt lat="39.5712738037109" lon="2.72207999229431">
			<ele>61.4000015258789</ele>
			<time>2013-12-29T15:01:47Z</time>
		</trkpt>
		<trkpt lat="39.5712738037109" lon="2.72218942642212">
			<ele>61.2000007629395</ele>
			<time>2013-12-29T15:01:49Z</time>
		</trkpt>
		<trkpt lat="39.5712738037109" lon="2.72224950790405">
			<ele>61.4000015258789</ele>
			<time>2013-12-29T15:01:50Z</time>
		</trkpt>
		<trkpt lat="39.5712776184082" lon="2.72230815887451">
			<ele>61.4000015258789</ele>
			<time>2013-12-29T15:01:51Z</time>
		</trkpt>
		<trkpt lat="39.5712776184082" lon="2.72236680984497">
			<ele>61.5999984741211</ele>
			<time>2013-12-29T15:01:52Z</time>
		</trkpt>
		<trkpt lat="39.5712776184082" lon="2.72242617607117">
			<ele>61.7000007629395</ele>
			<time>2013-12-29T15:01:53Z</time>
		</trkpt>
		<trkpt lat="39.5712814331055" lon="2.72248673439026">
			<ele>61.7999992370605</ele>
			<time>2013-12-29T15:01:54Z</time>
		</trkpt>
		<trkpt lat="39.5712814331055" lon="2.7225489616394">
			<ele>62</ele>
			<time>2013-12-29T15:01:55Z</time>
		</trkpt>
		<trkpt lat="39.5712814331055" lon="2.72261214256287">
			<ele>61.9000015258789</ele>
			<time>2013-12-29T15:01:56Z</time>
		</trkpt>
		<trkpt lat="39.5712776184082" lon="2.72267270088196">
			<ele>61.7999992370605</ele>
			<time>2013-12-29T15:01:57Z</time>
		</trkpt>
		<trkpt lat="39.5712776184082" lon="2.72273683547974">
			<ele>61.9000015258789</ele>
			<time>2013-12-29T15:01:58Z</time>
		</trkpt>
		<trkpt lat="39.5712814331055" lon="2.72279739379883">
			<ele>61.9000015258789</ele>
			<time>2013-12-29T15:01:59Z</time>
		</trkpt>
		<trkpt lat="39.5712776184082" lon="2.72286200523376">
			<ele>61.7999992370605</ele>
			<time>2013-12-29T15:02:00Z</time>
		</trkpt>
		<trkpt lat="39.5712814331055" lon="2.72292113304138">
			<ele>62</ele>
			<time>2013-12-29T15:02:01Z</time>
		</trkpt>
		<trkpt lat="39.5712776184082" lon="2.72298002243042">
			<ele>61.9000015258789</ele>
			<time>2013-12-29T15:02:02Z</time>
		</trkpt>
		<trkpt lat="39.5712814331055" lon="2.72303891181946">
			<ele>61.9000015258789</ele>
			<time>2013-12-29T15:02:03Z</time>
		</trkpt>
		<trkpt lat="39.5712814331055" lon="2.72309827804565">
			<ele>62</ele>
			<time>2013-12-29T15:02:04Z</time>
		</trkpt>
		<trkpt lat="39.5712776184082" lon="2.72321963310242">
			<ele>62.5999984741211</ele>
			<time>2013-12-29T15:02:06Z</time>
		</trkpt>
		<trkpt lat="39.5712776184082" lon="2.7232813835144">
			<ele>62.0999984741211</ele>
			<time>2013-12-29T15:02:07Z</time>
		</trkpt>
		<trkpt lat="39.5712776184082" lon="2.72334098815918">
			<ele>62.4000015258789</ele>
			<time>2013-12-29T15:02:08Z</time>
		</trkpt>
		<trkpt lat="39.5712814331055" lon="2.72339916229248">
			<ele>62.2000007629395</ele>
			<time>2013-12-29T15:02:09Z</time>
		</trkpt>
		<trkpt lat="39.5712776184082" lon="2.72351717948914">
			<ele>62.2000007629395</ele>
			<time>2013-12-29T15:02:11Z</time>
		</trkpt>
		<trkpt lat="39.5712776184082" lon="2.72363138198853">
			<ele>62.2000007629395</ele>
			<time>2013-12-29T15:02:13Z</time>
		</trkpt>
		<trkpt lat="39.5712738037109" lon="2.72374510765076">
			<ele>62</ele>
			<time>2013-12-29T15:02:15Z</time>
		</trkpt>
		<trkpt lat="39.5712738037109" lon="2.72380518913269">
			<ele>62</ele>
			<time>2013-12-29T15:02:16Z</time>
		</trkpt>
		<trkpt lat="39.5712738037109" lon="2.7238667011261">
			<ele>61.7999992370605</ele>
			<time>2013-12-29T15:02:17Z</time>
		</trkpt>
		<trkpt lat="39.5712738037109" lon="2.72392988204956">
			<ele>61.5999984741211</ele>
			<time>2013-12-29T15:02:18Z</time>
		</trkpt>
		<trkpt lat="39.5712699890137" lon="2.72398829460144">
			<ele>61.2999992370605</ele>
			<time>2013-12-29T15:02:19Z</time>
		</trkpt>
		<trkpt lat="39.5712738037109" lon="2.72404742240906">
			<ele>61.2999992370605</ele>
			<time>2013-12-29T15:02:20Z</time>
		</trkpt>
		<trkpt lat="39.5712738037109" lon="2.72415733337402">
			<ele>61.2000007629395</ele>
			<time>2013-12-29T15:02:22Z</time>
		</trkpt>
		<trkpt lat="39.5712738037109" lon="2.72427296638489">
			<ele>61.2999992370605</ele>
			<time>2013-12-29T15:02:24Z</time>
		</trkpt>
		<trkpt lat="39.5712738037109" lon="2.7243857383728">
			<ele>61.2999992370605</ele>
			<time>2013-12-29T15:02:26Z</time>
		</trkpt>
		<trkpt lat="39.5712699890137" lon="2.72449636459351">
			<ele>61.2000007629395</ele>
			<time>2013-12-29T15:02:28Z</time>
		</trkpt>
		<trkpt lat="39.5712661743164" lon="2.72460842132568">
			<ele>61.2999992370605</ele>
			<time>2013-12-29T15:02:30Z</time>
		</trkpt>
		<trkpt lat="39.5712623596191" lon="2.72472286224365">
			<ele>61.7000007629395</ele>
			<time>2013-12-29T15:02:32Z</time>
		</trkpt>
		<trkpt lat="39.5712623596191" lon="2.72478127479553">
			<ele>61.7000007629395</ele>
			<time>2013-12-29T15:02:33Z</time>
		</trkpt>
		<trkpt lat="39.5712623596191" lon="2.72489595413208">
			<ele>61.5999984741211</ele>
			<time>2013-12-29T15:02:35Z</time>
		</trkpt>
		<trkpt lat="39.5712623596191" lon="2.72495460510254">
			<ele>61.7000007629395</ele>
			<time>2013-12-29T15:02:36Z</time>
		</trkpt>
		<trkpt lat="39.5712585449219" lon="2.72506976127625">
			<ele>61.7000007629395</ele>
			<time>2013-12-29T15:02:38Z</time>
		</trkpt>
		<trkpt lat="39.5712585449219" lon="2.72512888908386">
			<ele>61.7000007629395</ele>
			<time>2013-12-29T15:02:39Z</time>
		</trkpt>
		<trkpt lat="39.5712585449219" lon="2.7251889705658">
			<ele>61.7999992370605</ele>
			<time>2013-12-29T15:02:40Z</time>
		</trkpt>
		<trkpt lat="39.5712547302246" lon="2.72524785995483">
			<ele>61.7000007629395</ele>
			<time>2013-12-29T15:02:41Z</time>
		</trkpt>
		<trkpt lat="39.5712547302246" lon="2.7253086566925">
			<ele>61.7000007629395</ele>
			<time>2013-12-29T15:02:42Z</time>
		</trkpt>
		<trkpt lat="39.5712547302246" lon="2.72536778450012">
			<ele>61.7000007629395</ele>
			<time>2013-12-29T15:02:43Z</time>
		</trkpt>
		<trkpt lat="39.5712547302246" lon="2.72542881965637">
			<ele>61.5999984741211</ele>
			<time>2013-12-29T15:02:44Z</time>
		</trkpt>
		<trkpt lat="39.5712547302246" lon="2.72548961639404">
			<ele>61.5</ele>
			<time>2013-12-29T15:02:45Z</time>
		</trkpt>
		<trkpt lat="39.5712547302246" lon="2.72555017471313">
			<ele>61.5</ele>
			<time>2013-12-29T15:02:46Z</time>
		</trkpt>
		<trkpt lat="39.5712547302246" lon="2.72566843032837">
			<ele>61.5999984741211</ele>
			<time>2013-12-29T15:02:48Z</time>
		</trkpt>
		<trkpt lat="39.5712547302246" lon="2.72572684288025">
			<ele>61.4000015258789</ele>
			<time>2013-12-29T15:02:49Z</time>
		</trkpt>
		<trkpt lat="39.5712509155273" lon="2.72584509849548">
			<ele>61.4000015258789</ele>
			<time>2013-12-29T15:02:51Z</time>
		</trkpt>
		<trkpt lat="39.5712509155273" lon="2.72596311569214">
			<ele>61.5</ele>
			<time>2013-12-29T15:02:53Z</time>
		</trkpt>
		<trkpt lat="39.5712509155273" lon="2.72602534294128">
			<ele>61.5</ele>
			<time>2013-12-29T15:02:54Z</time>
		</trkpt>
		<trkpt lat="39.5712509155273" lon="2.72608470916748">
			<ele>61.2999992370605</ele>
			<time>2013-12-29T15:02:55Z</time>
		</trkpt>
		<trkpt lat="39.5712547302246" lon="2.72614312171936">
			<ele>61.0999984741211</ele>
			<time>2013-12-29T15:02:56Z</time>
		</trkpt>
		<trkpt lat="39.5712547302246" lon="2.7262601852417">
			<ele>60.7999992370605</ele>
			<time>2013-12-29T15:02:58Z</time>
		</trkpt>
		<trkpt lat="39.5712547302246" lon="2.72632431983948">
			<ele>60.7999992370605</ele>
			<time>2013-12-29T15:02:59Z</time>
		</trkpt>
		<trkpt lat="39.5712547302246" lon="2.72638869285583">
			<ele>60.7999992370605</ele>
			<time>2013-12-29T15:03:00Z</time>
		</trkpt>
		<trkpt lat="39.5712509155273" lon="2.72644972801208">
			<ele>60.7000007629395</ele>
			<time>2013-12-29T15:03:01Z</time>
		</trkpt>
		<trkpt lat="39.5712509155273" lon="2.72651386260986">
			<ele>60.9000015258789</ele>
			<time>2013-12-29T15:03:02Z</time>
		</trkpt>
		<trkpt lat="39.5712471008301" lon="2.72657227516174">
			<ele>61</ele>
			<time>2013-12-29T15:03:03Z</time>
		</trkpt>
		<trkpt lat="39.5712471008301" lon="2.72663474082947">
			<ele>60.9000015258789</ele>
			<time>2013-12-29T15:03:04Z</time>
		</trkpt>
		<trkpt lat="39.5712432861328" lon="2.72669720649719">
			<ele>61</ele>
			<time>2013-12-29T15:03:05Z</time>
		</trkpt>
		<trkpt lat="39.5712432861328" lon="2.72675848007202">
			<ele>60.7999992370605</ele>
			<time>2013-12-29T15:03:06Z</time>
		</trkpt>
		<trkpt lat="39.5712432861328" lon="2.72682070732117">
			<ele>60.7999992370605</ele>
			<time>2013-12-29T15:03:07Z</time>
		</trkpt>
		<trkpt lat="39.5712432861328" lon="2.72687959671021">
			<ele>60.9000015258789</ele>
			<time>2013-12-29T15:03:08Z</time>
		</trkpt>
		<trkpt lat="39.5712432861328" lon="2.72693991661072">
			<ele>60.9000015258789</ele>
			<time>2013-12-29T15:03:09Z</time>
		</trkpt>
		<trkpt lat="39.5712432861328" lon="2.72700381278992">
			<ele>60.7000007629395</ele>
			<time>2013-12-29T15:03:10Z</time>
		</trkpt>
		<trkpt lat="39.5712394714355" lon="2.72706890106201">
			<ele>60.5999984741211</ele>
			<time>2013-12-29T15:03:11Z</time>
		</trkpt>
		<trkpt lat="39.5712356567383" lon="2.72713255882263">
			<ele>60.2999992370605</ele>
			<time>2013-12-29T15:03:12Z</time>
		</trkpt>
		<trkpt lat="39.5712356567383" lon="2.72719788551331">
			<ele>60.2999992370605</ele>
			<time>2013-12-29T15:03:13Z</time>
		</trkpt>
		<trkpt lat="39.571231842041" lon="2.72726058959961">
			<ele>60.2000007629395</ele>
			<time>2013-12-29T15:03:14Z</time>
		</trkpt>
		<trkpt lat="39.5712356567383" lon="2.72732472419739">
			<ele>60</ele>
			<time>2013-12-29T15:03:15Z</time>
		</trkpt>
		<trkpt lat="39.5712356567383" lon="2.72739005088806">
			<ele>60.0999984741211</ele>
			<time>2013-12-29T15:03:16Z</time>
		</trkpt>
		<trkpt lat="39.5712356567383" lon="2.727454662323">
			<ele>59.9000015258789</ele>
			<time>2013-12-29T15:03:17Z</time>
		</trkpt>
		<trkpt lat="39.5712356567383" lon="2.72751784324646">
			<ele>59.9000015258789</ele>
			<time>2013-12-29T15:03:18Z</time>
		</trkpt>
		<trkpt lat="39.5712356567383" lon="2.72758269309998">
			<ele>60</ele>
			<time>2013-12-29T15:03:19Z</time>
		</trkpt>
		<trkpt lat="39.571231842041" lon="2.72764992713928">
			<ele>60</ele>
			<time>2013-12-29T15:03:20Z</time>
		</trkpt>
		<trkpt lat="39.5712356567383" lon="2.72771549224854">
			<ele>59.7999992370605</ele>
			<time>2013-12-29T15:03:21Z</time>
		</trkpt>
		<trkpt lat="39.5712356567383" lon="2.72778105735779">
			<ele>59.4000015258789</ele>
			<time>2013-12-29T15:03:22Z</time>
		</trkpt>
		<trkpt lat="39.5712356567383" lon="2.72784829139709">
			<ele>59.4000015258789</ele>
			<time>2013-12-29T15:03:23Z</time>
		</trkpt>
		<trkpt lat="39.571231842041" lon="2.72791433334351">
			<ele>59.4000015258789</ele>
			<time>2013-12-29T15:03:24Z</time>
		</trkpt>
		<trkpt lat="39.571231842041" lon="2.72798132896423">
			<ele>59.2000007629395</ele>
			<time>2013-12-29T15:03:25Z</time>
		</trkpt>
		<trkpt lat="39.571231842041" lon="2.72804999351501">
			<ele>59.2000007629395</ele>
			<time>2013-12-29T15:03:26Z</time>
		</trkpt>
		<trkpt lat="39.571231842041" lon="2.72811722755432">
			<ele>59.4000015258789</ele>
			<time>2013-12-29T15:03:27Z</time>
		</trkpt>
		<trkpt lat="39.571231842041" lon="2.72818446159363">
			<ele>59.0999984741211</ele>
			<time>2013-12-29T15:03:28Z</time>
		</trkpt>
		<trkpt lat="39.571231842041" lon="2.72825288772583">
			<ele>58.9000015258789</ele>
			<time>2013-12-29T15:03:29Z</time>
		</trkpt>
		<trkpt lat="39.571231842041" lon="2.72832465171814">
			<ele>58.4000015258789</ele>
			<time>2013-12-29T15:03:30Z</time>
		</trkpt>
		<trkpt lat="39.571231842041" lon="2.72839879989624">
			<ele>58.4000015258789</ele>
			<time>2013-12-29T15:03:31Z</time>
		</trkpt>
		<trkpt lat="39.571231842041" lon="2.72847175598145">
			<ele>58.2999992370605</ele>
			<time>2013-12-29T15:03:32Z</time>
		</trkpt>
		<trkpt lat="39.571231842041" lon="2.72854804992676">
			<ele>58.2000007629395</ele>
			<time>2013-12-29T15:03:33Z</time>
		</trkpt>
		<trkpt lat="39.5712280273438" lon="2.72862458229065">
			<ele>58.0999984741211</ele>
			<time>2013-12-29T15:03:34Z</time>
		</trkpt>
		<trkpt lat="39.571231842041" lon="2.72869873046875">
			<ele>57.9000015258789</ele>
			<time>2013-12-29T15:03:35Z</time>
		</trkpt>
		<trkpt lat="39.571231842041" lon="2.72877669334412">
			<ele>58.0999984741211</ele>
			<time>2013-12-29T15:03:36Z</time>
		</trkpt>
		<trkpt lat="39.571231842041" lon="2.72885465621948">
			<ele>58</ele>
			<time>2013-12-29T15:03:37Z</time>
		</trkpt>
		<trkpt lat="39.5712280273438" lon="2.72893404960632">
			<ele>58.2000007629395</ele>
			<time>2013-12-29T15:03:38Z</time>
		</trkpt>
		<trkpt lat="39.5712280273438" lon="2.72901368141174">
			<ele>58.4000015258789</ele>
			<time>2013-12-29T15:03:39Z</time>
		</trkpt>
		<trkpt lat="39.5712242126465" lon="2.72909140586853">
			<ele>58.4000015258789</ele>
			<time>2013-12-29T15:03:40Z</time>
		</trkpt>
		<trkpt lat="39.5712203979492" lon="2.72916722297668">
			<ele>58.4000015258789</ele>
			<time>2013-12-29T15:03:41Z</time>
		</trkpt>
		<trkpt lat="39.5712203979492" lon="2.72924494743347">
			<ele>58.2000007629395</ele>
			<time>2013-12-29T15:03:42Z</time>
		</trkpt>
		<trkpt lat="39.5712203979492" lon="2.72931838035583">
			<ele>58.0999984741211</ele>
			<time>2013-12-29T15:03:43Z</time>
		</trkpt>
		<trkpt lat="39.571216583252" lon="2.72939515113831">
			<ele>58</ele>
			<time>2013-12-29T15:03:44Z</time>
		</trkpt>
		<trkpt lat="39.571216583252" lon="2.72947025299072">
			<ele>58.0999984741211</ele>
			<time>2013-12-29T15:03:45Z</time>
		</trkpt>
		<trkpt lat="39.5712127685547" lon="2.72954249382019">
			<ele>58</ele>
			<time>2013-12-29T15:03:46Z</time>
		</trkpt>
		<trkpt lat="39.5712127685547" lon="2.72961449623108">
			<ele>58</ele>
			<time>2013-12-29T15:03:47Z</time>
		</trkpt>
		<trkpt lat="39.5712127685547" lon="2.7296884059906">
			<ele>57.9000015258789</ele>
			<time>2013-12-29T15:03:48Z</time>
		</trkpt>
		<trkpt lat="39.571216583252" lon="2.72976040840149">
			<ele>57.7999992370605</ele>
			<time>2013-12-29T15:03:49Z</time>
		</trkpt>
		<trkpt lat="39.5712127685547" lon="2.7298309803009">
			<ele>57.5999984741211</ele>
			<time>2013-12-29T15:03:50Z</time>
		</trkpt>
		<trkpt lat="39.5712127685547" lon="2.72990369796753">
			<ele>57.5</ele>
			<time>2013-12-29T15:03:51Z</time>
		</trkpt>
		<trkpt lat="39.5712089538574" lon="2.72997426986694">
			<ele>57.4000015258789</ele>
			<time>2013-12-29T15:03:52Z</time>
		</trkpt>
		<trkpt lat="39.5712089538574" lon="2.73004746437073">
			<ele>57.2999992370605</ele>
			<time>2013-12-29T15:03:53Z</time>
		</trkpt>
		<trkpt lat="39.5712089538574" lon="2.7301197052002">
			<ele>57.2000007629395</ele>
			<time>2013-12-29T15:03:54Z</time>
		</trkpt>
		<trkpt lat="39.5712089538574" lon="2.73019337654114">
			<ele>57.2000007629395</ele>
			<time>2013-12-29T15:03:55Z</time>
		</trkpt>
		<trkpt lat="39.5712089538574" lon="2.73026609420776">
			<ele>57.0999984741211</ele>
			<time>2013-12-29T15:03:56Z</time>
		</trkpt>
		<trkpt lat="39.5712051391602" lon="2.73033881187439">
			<ele>57.0999984741211</ele>
			<time>2013-12-29T15:03:57Z</time>
		</trkpt>
		<trkpt lat="39.5712051391602" lon="2.73041081428528">
			<ele>56.9000015258789</ele>
			<time>2013-12-29T15:03:58Z</time>
		</trkpt>
		<trkpt lat="39.5712051391602" lon="2.73048233985901">
			<ele>57</ele>
			<time>2013-12-29T15:03:59Z</time>
		</trkpt>
		<trkpt lat="39.5712051391602" lon="2.73055171966553">
			<ele>57</ele>
			<time>2013-12-29T15:04:00Z</time>
		</trkpt>
		<trkpt lat="39.5712051391602" lon="2.73062324523926">
			<ele>57</ele>
			<time>2013-12-29T15:04:01Z</time>
		</trkpt>
		<trkpt lat="39.5712051391602" lon="2.73069524765015">
			<ele>56.9000015258789</ele>
			<time>2013-12-29T15:04:02Z</time>
		</trkpt>
		<trkpt lat="39.5712013244629" lon="2.73077034950256">
			<ele>57</ele>
			<time>2013-12-29T15:04:03Z</time>
		</trkpt>
		<trkpt lat="39.5712013244629" lon="2.73084211349487">
			<ele>57.0999984741211</ele>
			<time>2013-12-29T15:04:04Z</time>
		</trkpt>
		<trkpt lat="39.5712051391602" lon="2.73091387748718">
			<ele>57.2000007629395</ele>
			<time>2013-12-29T15:04:05Z</time>
		</trkpt>
		<trkpt lat="39.5712013244629" lon="2.73098564147949">
			<ele>57.2999992370605</ele>
			<time>2013-12-29T15:04:06Z</time>
		</trkpt>
		<trkpt lat="39.5712013244629" lon="2.73105573654175">
			<ele>57.4000015258789</ele>
			<time>2013-12-29T15:04:07Z</time>
		</trkpt>
		<trkpt lat="39.5711975097656" lon="2.7311270236969">
			<ele>57.2999992370605</ele>
			<time>2013-12-29T15:04:08Z</time>
		</trkpt>
		<trkpt lat="39.5711975097656" lon="2.73119807243347">
			<ele>57.0999984741211</ele>
			<time>2013-12-29T15:04:09Z</time>
		</trkpt>
		<trkpt lat="39.5711936950684" lon="2.73126792907715">
			<ele>57.0999984741211</ele>
			<time>2013-12-29T15:04:10Z</time>
		</trkpt>
		<trkpt lat="39.5711936950684" lon="2.73133778572083">
			<ele>57.0999984741211</ele>
			<time>2013-12-29T15:04:11Z</time>
		</trkpt>
		<trkpt lat="39.5711936950684" lon="2.73140573501587">
			<ele>57.0999984741211</ele>
			<time>2013-12-29T15:04:12Z</time>
		</trkpt>
		<trkpt lat="39.5711936950684" lon="2.73147296905518">
			<ele>57.2000007629395</ele>
			<time>2013-12-29T15:04:13Z</time>
		</trkpt>
		<trkpt lat="39.5711936950684" lon="2.73154401779175">
			<ele>57.2000007629395</ele>
			<time>2013-12-29T15:04:14Z</time>
		</trkpt>
		<trkpt lat="39.5711975097656" lon="2.73161387443542">
			<ele>57</ele>
			<time>2013-12-29T15:04:15Z</time>
		</trkpt>
		<trkpt lat="39.5711936950684" lon="2.73168230056763">
			<ele>57</ele>
			<time>2013-12-29T15:04:16Z</time>
		</trkpt>
		<trkpt lat="39.5711936950684" lon="2.73175239562988">
			<ele>56.9000015258789</ele>
			<time>2013-12-29T15:04:17Z</time>
		</trkpt>
		<trkpt lat="39.5711975097656" lon="2.73181986808777">
			<ele>56.7000007629395</ele>
			<time>2013-12-29T15:04:18Z</time>
		</trkpt>
		<trkpt lat="39.5711975097656" lon="2.73188662528992">
			<ele>56.7000007629395</ele>
			<time>2013-12-29T15:04:19Z</time>
		</trkpt>
		<trkpt lat="39.5711975097656" lon="2.73195886611938">
			<ele>56.5999984741211</ele>
			<time>2013-12-29T15:04:20Z</time>
		</trkpt>
		<trkpt lat="39.5711936950684" lon="2.73202705383301">
			<ele>56.7000007629395</ele>
			<time>2013-12-29T15:04:21Z</time>
		</trkpt>
		<trkpt lat="39.5711936950684" lon="2.73209428787231">
			<ele>56.7000007629395</ele>
			<time>2013-12-29T15:04:22Z</time>
		</trkpt>
		<trkpt lat="39.5711936950684" lon="2.7321629524231">
			<ele>56.5999984741211</ele>
			<time>2013-12-29T15:04:23Z</time>
		</trkpt>
		<trkpt lat="39.5711936950684" lon="2.73223066329956">
			<ele>56.4000015258789</ele>
			<time>2013-12-29T15:04:24Z</time>
		</trkpt>
		<trkpt lat="39.5711936950684" lon="2.73229885101318">
			<ele>56.2999992370605</ele>
			<time>2013-12-29T15:04:25Z</time>
		</trkpt>
		<trkpt lat="39.5711975097656" lon="2.73236489295959">
			<ele>56.0999984741211</ele>
			<time>2013-12-29T15:04:26Z</time>
		</trkpt>
		<trkpt lat="39.5711975097656" lon="2.7324333190918">
			<ele>56.0999984741211</ele>
			<time>2013-12-29T15:04:27Z</time>
		</trkpt>
		<trkpt lat="39.5711936950684" lon="2.732497215271">
			<ele>56.2000007629395</ele>
			<time>2013-12-29T15:04:28Z</time>
		</trkpt>
		<trkpt lat="39.5711936950684" lon="2.73256373405457">
			<ele>56</ele>
			<time>2013-12-29T15:04:29Z</time>
		</trkpt>
		<trkpt lat="39.5711936950684" lon="2.7326295375824">
			<ele>56</ele>
			<time>2013-12-29T15:04:30Z</time>
		</trkpt>
		<trkpt lat="39.5711936950684" lon="2.73269557952881">
			<ele>56</ele>
			<time>2013-12-29T15:04:31Z</time>
		</trkpt>
		<trkpt lat="39.5711936950684" lon="2.73275566101074">
			<ele>56.0999984741211</ele>
			<time>2013-12-29T15:04:32Z</time>
		</trkpt>
		<trkpt lat="39.5711898803711" lon="2.73281836509705">
			<ele>56.0999984741211</ele>
			<time>2013-12-29T15:04:33Z</time>
		</trkpt>
		<trkpt lat="39.5711860656738" lon="2.73288011550903">
			<ele>56</ele>
			<time>2013-12-29T15:04:34Z</time>
		</trkpt>
		<trkpt lat="39.5711860656738" lon="2.73294019699097">
			<ele>55.7999992370605</ele>
			<time>2013-12-29T15:04:35Z</time>
		</trkpt>
		<trkpt lat="39.5711898803711" lon="2.73300051689148">
			<ele>55.9000015258789</ele>
			<time>2013-12-29T15:04:36Z</time>
		</trkpt>
		<trkpt lat="39.5711860656738" lon="2.73306012153625">
			<ele>56</ele>
			<time>2013-12-29T15:04:37Z</time>
		</trkpt>
		<trkpt lat="39.5711898803711" lon="2.73312044143677">
			<ele>55.7999992370605</ele>
			<time>2013-12-29T15:04:38Z</time>
		</trkpt>
		<trkpt lat="39.5711898803711" lon="2.73318123817444">
			<ele>55.7999992370605</ele>
			<time>2013-12-29T15:04:39Z</time>
		</trkpt>
		<trkpt lat="39.5711898803711" lon="2.73324108123779">
			<ele>56.2000007629395</ele>
			<time>2013-12-29T15:04:40Z</time>
		</trkpt>
		<trkpt lat="39.5711898803711" lon="2.73330283164978">
			<ele>56</ele>
			<time>2013-12-29T15:04:41Z</time>
		</trkpt>
		<trkpt lat="39.5711936950684" lon="2.73336362838745">
			<ele>55.5999984741211</ele>
			<time>2013-12-29T15:04:42Z</time>
		</trkpt>
		<trkpt lat="39.5711898803711" lon="2.7334246635437">
			<ele>55.4000015258789</ele>
			<time>2013-12-29T15:04:43Z</time>
		</trkpt>
		<trkpt lat="39.5711860656738" lon="2.73348641395569">
			<ele>55.5</ele>
			<time>2013-12-29T15:04:44Z</time>
		</trkpt>
		<trkpt lat="39.5711860656738" lon="2.73354840278625">
			<ele>55.5</ele>
			<time>2013-12-29T15:04:45Z</time>
		</trkpt>
		<trkpt lat="39.5711860656738" lon="2.73362016677856">
			<ele>55.5999984741211</ele>
			<time>2013-12-29T15:04:46Z</time>
		</trkpt>
		<trkpt lat="39.5711822509766" lon="2.73368573188782">
			<ele>55.5</ele>
			<time>2013-12-29T15:04:47Z</time>
		</trkpt>
		<trkpt lat="39.5711822509766" lon="2.7337532043457">
			<ele>55.2999992370605</ele>
			<time>2013-12-29T15:04:48Z</time>
		</trkpt>
		<trkpt lat="39.5711822509766" lon="2.73382163047791">
			<ele>55.2000007629395</ele>
			<time>2013-12-29T15:04:49Z</time>
		</trkpt>
		<trkpt lat="39.5711784362793" lon="2.73388910293579">
			<ele>55.2000007629395</ele>
			<time>2013-12-29T15:04:50Z</time>
		</trkpt>
		<trkpt lat="39.5711784362793" lon="2.73395442962646">
			<ele>55</ele>
			<time>2013-12-29T15:04:51Z</time>
		</trkpt>
		<trkpt lat="39.5711784362793" lon="2.73402214050293">
			<ele>55.0999984741211</ele>
			<time>2013-12-29T15:04:52Z</time>
		</trkpt>
		<trkpt lat="39.5711784362793" lon="2.73408985137939">
			<ele>54.9000015258789</ele>
			<time>2013-12-29T15:04:53Z</time>
		</trkpt>
		<trkpt lat="39.5711784362793" lon="2.73415613174438">
			<ele>54.7999992370605</ele>
			<time>2013-12-29T15:04:54Z</time>
		</trkpt>
		<trkpt lat="39.571174621582" lon="2.73422312736511">
			<ele>55</ele>
			<time>2013-12-29T15:04:55Z</time>
		</trkpt>
		<trkpt lat="39.5711708068848" lon="2.73428726196289">
			<ele>54.9000015258789</ele>
			<time>2013-12-29T15:04:56Z</time>
		</trkpt>
		<trkpt lat="39.5711708068848" lon="2.73434996604919">
			<ele>54.9000015258789</ele>
			<time>2013-12-29T15:04:57Z</time>
		</trkpt>
		<trkpt lat="39.5711708068848" lon="2.73441219329834">
			<ele>54.7999992370605</ele>
			<time>2013-12-29T15:04:58Z</time>
		</trkpt>
		<trkpt lat="39.5711669921875" lon="2.73447489738464">
			<ele>54.7999992370605</ele>
			<time>2013-12-29T15:04:59Z</time>
		</trkpt>
		<trkpt lat="39.5711669921875" lon="2.73453950881958">
			<ele>55</ele>
			<time>2013-12-29T15:05:00Z</time>
		</trkpt>
		<trkpt lat="39.5711631774902" lon="2.73460173606873">
			<ele>55</ele>
			<time>2013-12-29T15:05:01Z</time>
		</trkpt>
		<trkpt lat="39.5711631774902" lon="2.73466491699219">
			<ele>54.7999992370605</ele>
			<time>2013-12-29T15:05:02Z</time>
		</trkpt>
		<trkpt lat="39.5711631774902" lon="2.73472881317139">
			<ele>54.7999992370605</ele>
			<time>2013-12-29T15:05:03Z</time>
		</trkpt>
		<trkpt lat="39.571159362793" lon="2.73479199409485">
			<ele>54.5999984741211</ele>
			<time>2013-12-29T15:05:04Z</time>
		</trkpt>
		<trkpt lat="39.5711555480957" lon="2.73485231399536">
			<ele>54.7000007629395</ele>
			<time>2013-12-29T15:05:05Z</time>
		</trkpt>
		<trkpt lat="39.5711555480957" lon="2.73491215705872">
			<ele>54.7000007629395</ele>
			<time>2013-12-29T15:05:06Z</time>
		</trkpt>
		<trkpt lat="39.5711517333984" lon="2.73497104644775">
			<ele>54.5999984741211</ele>
			<time>2013-12-29T15:05:07Z</time>
		</trkpt>
		<trkpt lat="39.5711441040039" lon="2.7350857257843">
			<ele>54.2000007629395</ele>
			<time>2013-12-29T15:05:09Z</time>
		</trkpt>
		<trkpt lat="39.5711288452148" lon="2.73519897460938">
			<ele>54</ele>
			<time>2013-12-29T15:05:11Z</time>
		</trkpt>
		<trkpt lat="39.5710945129395" lon="2.7353048324585">
			<ele>54</ele>
			<time>2013-12-29T15:05:13Z</time>
		</trkpt>
		<trkpt lat="39.5710678100586" lon="2.73535203933716">
			<ele>54.2000007629395</ele>
			<time>2013-12-29T15:05:14Z</time>
		</trkpt>
		<trkpt lat="39.5710220336914" lon="2.73544669151306">
			<ele>54.4000015258789</ele>
			<time>2013-12-29T15:05:16Z</time>
		</trkpt>
		<trkpt lat="39.570972442627" lon="2.73553371429443">
			<ele>54.2999992370605</ele>
			<time>2013-12-29T15:05:18Z</time>
		</trkpt>
		<trkpt lat="39.5709228515625" lon="2.73560857772827">
			<ele>54.2999992370605</ele>
			<time>2013-12-29T15:05:20Z</time>
		</trkpt>
		<trkpt lat="39.5708770751953" lon="2.73567509651184">
			<ele>54.2999992370605</ele>
			<time>2013-12-29T15:05:22Z</time>
		</trkpt>
		<trkpt lat="39.5708389282227" lon="2.7357292175293">
			<ele>54.4000015258789</ele>
			<time>2013-12-29T15:05:24Z</time>
		</trkpt>
		<trkpt lat="39.57080078125" lon="2.73577332496643">
			<ele>53.9000015258789</ele>
			<time>2013-12-29T15:05:25Z</time>
		</trkpt>
		<trkpt lat="39.5707626342773" lon="2.73580288887024">
			<ele>53.4000015258789</ele>
			<time>2013-12-29T15:05:27Z</time>
		</trkpt>
		<trkpt lat="39.5707321166992" lon="2.7358500957489">
			<ele>53.0999984741211</ele>
			<time>2013-12-29T15:05:29Z</time>
		</trkpt>
		<trkpt lat="39.5707702636719" lon="2.73577499389648">
			<ele>54.5999984741211</ele>
			<time>2013-12-29T15:05:36Z</time>
		</trkpt>
		<trkpt lat="39.5707969665527" lon="2.73572111129761">
			<ele>56.7000007629395</ele>
			<time>2013-12-29T15:05:38Z</time>
		</trkpt>
		<trkpt lat="39.5708351135254" lon="2.73567509651184">
			<ele>56</ele>
			<time>2013-12-29T15:05:41Z</time>
		</trkpt>
		<trkpt lat="39.5708808898926" lon="2.73562717437744">
			<ele>55.9000015258789</ele>
			<time>2013-12-29T15:05:43Z</time>
		</trkpt>
		<trkpt lat="39.5709228515625" lon="2.7355740070343">
			<ele>55.4000015258789</ele>
			<time>2013-12-29T15:05:45Z</time>
		</trkpt>
		<trkpt lat="39.5709648132324" lon="2.73551106452942">
			<ele>55.5999984741211</ele>
			<time>2013-12-29T15:05:47Z</time>
		</trkpt>
		<trkpt lat="39.5710029602051" lon="2.73544049263">
			<ele>56</ele>
			<time>2013-12-29T15:05:49Z</time>
		</trkpt>
		<trkpt lat="39.5710411071777" lon="2.73536372184753">
			<ele>55.7999992370605</ele>
			<time>2013-12-29T15:05:51Z</time>
		</trkpt>
		<trkpt lat="39.5710754394531" lon="2.73528790473938">
			<ele>55.7000007629395</ele>
			<time>2013-12-29T15:05:53Z</time>
		</trkpt>
		<trkpt lat="39.571102142334" lon="2.73520803451538">
			<ele>55.7000007629395</ele>
			<time>2013-12-29T15:05:55Z</time>
		</trkpt>
		<trkpt lat="39.5711212158203" lon="2.73512434959412">
			<ele>55.9000015258789</ele>
			<time>2013-12-29T15:05:57Z</time>
		</trkpt>
		<trkpt lat="39.5711288452148" lon="2.73504495620728">
			<ele>55.5</ele>
			<time>2013-12-29T15:05:59Z</time>
		</trkpt>
		<trkpt lat="39.5711212158203" lon="2.7349579334259">
			<ele>55.2000007629395</ele>
			<time>2013-12-29T15:06:01Z</time>
		</trkpt>
		<trkpt lat="39.5711212158203" lon="2.7348780632019">
			<ele>55.0999984741211</ele>
			<time>2013-12-29T15:06:03Z</time>
		</trkpt>
		<trkpt lat="39.5710525512695" lon="2.73484659194946">
			<ele>55.4000015258789</ele>
			<time>2013-12-29T15:06:05Z</time>
		</trkpt>
		<trkpt lat="39.5709762573242" lon="2.73484110832214">
			<ele>55.4000015258789</ele>
			<time>2013-12-29T15:06:07Z</time>
		</trkpt>
		<trkpt lat="39.5709037780762" lon="2.73483157157898">
			<ele>55.2000007629395</ele>
			<time>2013-12-29T15:06:09Z</time>
		</trkpt>
		<trkpt lat="39.5708198547363" lon="2.73482441902161">
			<ele>54.9000015258789</ele>
			<time>2013-12-29T15:06:11Z</time>
		</trkpt>
		<trkpt lat="39.5707397460938" lon="2.73482060432434">
			<ele>54.7999992370605</ele>
			<time>2013-12-29T15:06:13Z</time>
		</trkpt>
		<trkpt lat="39.5706596374512" lon="2.73480987548828">
			<ele>54.2999992370605</ele>
			<time>2013-12-29T15:06:15Z</time>
		</trkpt>
		<trkpt lat="39.5705757141113" lon="2.73480606079102">
			<ele>54.2000007629395</ele>
			<time>2013-12-29T15:06:17Z</time>
		</trkpt>
		<trkpt lat="39.5705261230469" lon="2.73480439186096">
			<ele>53.9000015258789</ele>
			<time>2013-12-29T15:06:18Z</time>
		</trkpt>
		<trkpt lat="39.5704765319824" lon="2.73480272293091">
			<ele>53.7999992370605</ele>
			<time>2013-12-29T15:06:19Z</time>
		</trkpt>
		<trkpt lat="39.570426940918" lon="2.73479866981506">
			<ele>53.7999992370605</ele>
			<time>2013-12-29T15:06:20Z</time>
		</trkpt>
		<trkpt lat="39.570369720459" lon="2.73480224609375">
			<ele>53.2000007629395</ele>
			<time>2013-12-29T15:06:21Z</time>
		</trkpt>
		<trkpt lat="39.5703125" lon="2.73480463027954">
			<ele>52.7999992370605</ele>
			<time>2013-12-29T15:06:22Z</time>
		</trkpt>
		<trkpt lat="39.5702514648438" lon="2.73480343818665">
			<ele>52.4000015258789</ele>
			<time>2013-12-29T15:06:23Z</time>
		</trkpt>
		<trkpt lat="39.5701904296875" lon="2.73480200767517">
			<ele>52.2999992370605</ele>
			<time>2013-12-29T15:06:24Z</time>
		</trkpt>
		<trkpt lat="39.5701217651367" lon="2.73479318618774">
			<ele>52.2999992370605</ele>
			<time>2013-12-29T15:06:25Z</time>
		</trkpt>
		<trkpt lat="39.5700607299805" lon="2.73479342460632">
			<ele>52.4000015258789</ele>
			<time>2013-12-29T15:06:26Z</time>
		</trkpt>
		<trkpt lat="39.5699996948242" lon="2.73478531837463">
			<ele>52.5</ele>
			<time>2013-12-29T15:06:27Z</time>
		</trkpt>
		<trkpt lat="39.5699310302734" lon="2.73478174209595">
			<ele>52.5</ele>
			<time>2013-12-29T15:06:28Z</time>
		</trkpt>
		<trkpt lat="39.5698738098145" lon="2.73477602005005">
			<ele>52.5999984741211</ele>
			<time>2013-12-29T15:06:29Z</time>
		</trkpt>
		<trkpt lat="39.5697975158691" lon="2.73477411270142">
			<ele>52.5</ele>
			<time>2013-12-29T15:06:30Z</time>
		</trkpt>
		<trkpt lat="39.5697288513184" lon="2.73476529121399">
			<ele>52.4000015258789</ele>
			<time>2013-12-29T15:06:31Z</time>
		</trkpt>
		<trkpt lat="39.5696563720703" lon="2.73477935791016">
			<ele>52.4000015258789</ele>
			<time>2013-12-29T15:06:32Z</time>
		</trkpt>
		<trkpt lat="39.5695915222168" lon="2.7347719669342">
			<ele>52.0999984741211</ele>
			<time>2013-12-29T15:06:33Z</time>
		</trkpt>
		<trkpt lat="39.5694999694824" lon="2.73477220535278">
			<ele>52.4000015258789</ele>
			<time>2013-12-29T15:06:35Z</time>
		</trkpt>
		<trkpt lat="39.5694160461426" lon="2.73476576805115">
			<ele>52.9000015258789</ele>
			<time>2013-12-29T15:06:37Z</time>
		</trkpt>
		<trkpt lat="39.5693397521973" lon="2.7347731590271">
			<ele>53.0999984741211</ele>
			<time>2013-12-29T15:06:39Z</time>
		</trkpt>
		<trkpt lat="39.5692749023438" lon="2.73477816581726">
			<ele>52.5</ele>
			<time>2013-12-29T15:06:41Z</time>
		</trkpt>
		<trkpt lat="39.5692253112793" lon="2.7347719669342">
			<ele>53.4000015258789</ele>
			<time>2013-12-29T15:06:43Z</time>
		</trkpt>
		<trkpt lat="39.5691719055176" lon="2.734783411026">
			<ele>54.5</ele>
			<time>2013-12-29T15:06:46Z</time>
		</trkpt>
		<trkpt lat="39.569221496582" lon="2.734787940979">
			<ele>54.9000015258789</ele>
			<time>2013-12-29T15:06:50Z</time>
		</trkpt>
		<trkpt lat="39.5692825317383" lon="2.73478150367737">
			<ele>53.5</ele>
			<time>2013-12-29T15:06:52Z</time>
		</trkpt>
		<trkpt lat="39.5693321228027" lon="2.73478078842163">
			<ele>53.0999984741211</ele>
			<time>2013-12-29T15:06:54Z</time>
		</trkpt>
		<trkpt lat="39.5693855285645" lon="2.734783411026">
			<ele>52.7999992370605</ele>
			<time>2013-12-29T15:06:56Z</time>
		</trkpt>
		<trkpt lat="39.5694580078125" lon="2.73478627204895">
			<ele>52.0999984741211</ele>
			<time>2013-12-29T15:06:59Z</time>
		</trkpt>
		<trkpt lat="39.5695419311523" lon="2.73481202125549">
			<ele>51.0999984741211</ele>
			<time>2013-12-29T15:07:01Z</time>
		</trkpt>
		<trkpt lat="39.5695838928223" lon="2.73484826087952">
			<ele>51.0999984741211</ele>
			<time>2013-12-29T15:07:02Z</time>
		</trkpt>
		<trkpt lat="39.5696220397949" lon="2.73488545417786">
			<ele>51.5</ele>
			<time>2013-12-29T15:07:03Z</time>
		</trkpt>
		<trkpt lat="39.5696487426758" lon="2.73494052886963">
			<ele>51.5</ele>
			<time>2013-12-29T15:07:04Z</time>
		</trkpt>
		<trkpt lat="39.5696754455566" lon="2.73499584197998">
			<ele>51.5</ele>
			<time>2013-12-29T15:07:05Z</time>
		</trkpt>
		<trkpt lat="39.5696983337402" lon="2.73505067825317">
			<ele>51.4000015258789</ele>
			<time>2013-12-29T15:07:06Z</time>
		</trkpt>
		<trkpt lat="39.5697212219238" lon="2.73510575294495">
			<ele>51.4000015258789</ele>
			<time>2013-12-29T15:07:07Z</time>
		</trkpt>
		<trkpt lat="39.569751739502" lon="2.73520612716675">
			<ele>51.5</ele>
			<time>2013-12-29T15:07:09Z</time>
		</trkpt>
		<trkpt lat="39.5697822570801" lon="2.73529982566833">
			<ele>51.5999984741211</ele>
			<time>2013-12-29T15:07:11Z</time>
		</trkpt>
		<trkpt lat="39.5698051452637" lon="2.73538661003113">
			<ele>51.9000015258789</ele>
			<time>2013-12-29T15:07:13Z</time>
		</trkpt>
		<trkpt lat="39.5698318481445" lon="2.73547005653381">
			<ele>52.2000007629395</ele>
			<time>2013-12-29T15:07:15Z</time>
		</trkpt>
		<trkpt lat="39.5698509216309" lon="2.73555326461792">
			<ele>52.2999992370605</ele>
			<time>2013-12-29T15:07:17Z</time>
		</trkpt>
		<trkpt lat="39.5698738098145" lon="2.73562932014465">
			<ele>52.2000007629395</ele>
			<time>2013-12-29T15:07:19Z</time>
		</trkpt>
		<trkpt lat="39.5699005126953" lon="2.73570942878723">
			<ele>52.2999992370605</ele>
			<time>2013-12-29T15:07:21Z</time>
		</trkpt>
		<trkpt lat="39.5699157714844" lon="2.73579621315002">
			<ele>52.2000007629395</ele>
			<time>2013-12-29T15:07:23Z</time>
		</trkpt>
		<trkpt lat="39.569938659668" lon="2.73588681221008">
			<ele>51.9000015258789</ele>
			<time>2013-12-29T15:07:25Z</time>
		</trkpt>
		<trkpt lat="39.5699615478516" lon="2.73598027229309">
			<ele>51.7999992370605</ele>
			<time>2013-12-29T15:07:27Z</time>
		</trkpt>
		<trkpt lat="39.5699844360352" lon="2.73607993125916">
			<ele>51.5999984741211</ele>
			<time>2013-12-29T15:07:29Z</time>
		</trkpt>
		<trkpt lat="39.570011138916" lon="2.73617577552795">
			<ele>51.5</ele>
			<time>2013-12-29T15:07:31Z</time>
		</trkpt>
		<trkpt lat="39.5700340270996" lon="2.7362744808197">
			<ele>51.4000015258789</ele>
			<time>2013-12-29T15:07:33Z</time>
		</trkpt>
		<trkpt lat="39.5700569152832" lon="2.7363760471344">
			<ele>51</ele>
			<time>2013-12-29T15:07:35Z</time>
		</trkpt>
		<trkpt lat="39.5700798034668" lon="2.73647618293762">
			<ele>51.2000007629395</ele>
			<time>2013-12-29T15:07:37Z</time>
		</trkpt>
		<trkpt lat="39.5700988769531" lon="2.73657941818237">
			<ele>51.2000007629395</ele>
			<time>2013-12-29T15:07:39Z</time>
		</trkpt>
		<trkpt lat="39.5701217651367" lon="2.73668122291565">
			<ele>51.0999984741211</ele>
			<time>2013-12-29T15:07:41Z</time>
		</trkpt>
		<trkpt lat="39.570140838623" lon="2.73678588867188">
			<ele>51.0999984741211</ele>
			<time>2013-12-29T15:07:43Z</time>
		</trkpt>
		<trkpt lat="39.5701599121094" lon="2.73688983917236">
			<ele>51.4000015258789</ele>
			<time>2013-12-29T15:07:45Z</time>
		</trkpt>
		<trkpt lat="39.570182800293" lon="2.73699593544006">
			<ele>51.5</ele>
			<time>2013-12-29T15:07:47Z</time>
		</trkpt>
		<trkpt lat="39.570198059082" lon="2.73710346221924">
			<ele>51.4000015258789</ele>
			<time>2013-12-29T15:07:49Z</time>
		</trkpt>
		<trkpt lat="39.5702171325684" lon="2.73721122741699">
			<ele>51.2999992370605</ele>
			<time>2013-12-29T15:07:51Z</time>
		</trkpt>
		<trkpt lat="39.5702362060547" lon="2.73731780052185">
			<ele>51.4000015258789</ele>
			<time>2013-12-29T15:07:53Z</time>
		</trkpt>
		<trkpt lat="39.570255279541" lon="2.73742485046387">
			<ele>51.2999992370605</ele>
			<time>2013-12-29T15:07:55Z</time>
		</trkpt>
		<trkpt lat="39.5702743530273" lon="2.73753261566162">
			<ele>51.5999984741211</ele>
			<time>2013-12-29T15:07:57Z</time>
		</trkpt>
		<trkpt lat="39.5702934265137" lon="2.7376389503479">
			<ele>51.7000007629395</ele>
			<time>2013-12-29T15:07:59Z</time>
		</trkpt>
		<trkpt lat="39.5703125" lon="2.73774385452271">
			<ele>51.5</ele>
			<time>2013-12-29T15:08:01Z</time>
		</trkpt>
		<trkpt lat="39.5703353881836" lon="2.73784899711609">
			<ele>51.7000007629395</ele>
			<time>2013-12-29T15:08:03Z</time>
		</trkpt>
		<trkpt lat="39.5703544616699" lon="2.73795604705811">
			<ele>51.9000015258789</ele>
			<time>2013-12-29T15:08:05Z</time>
		</trkpt>
		<trkpt lat="39.5703735351563" lon="2.73806095123291">
			<ele>51.9000015258789</ele>
			<time>2013-12-29T15:08:07Z</time>
		</trkpt>
		<trkpt lat="39.5703926086426" lon="2.73816657066345">
			<ele>52</ele>
			<time>2013-12-29T15:08:09Z</time>
		</trkpt>
		<trkpt lat="39.5704078674316" lon="2.73827123641968">
			<ele>52</ele>
			<time>2013-12-29T15:08:11Z</time>
		</trkpt>
		<trkpt lat="39.570426940918" lon="2.73837542533875">
			<ele>52.0999984741211</ele>
			<time>2013-12-29T15:08:13Z</time>
		</trkpt>
		<trkpt lat="39.570442199707" lon="2.73848176002502">
			<ele>52.0999984741211</ele>
			<time>2013-12-29T15:08:15Z</time>
		</trkpt>
		<trkpt lat="39.5704574584961" lon="2.73858833312988">
			<ele>52.0999984741211</ele>
			<time>2013-12-29T15:08:17Z</time>
		</trkpt>
		<trkpt lat="39.5704689025879" lon="2.73869299888611">
			<ele>52</ele>
			<time>2013-12-29T15:08:19Z</time>
		</trkpt>
		<trkpt lat="39.5704689025879" lon="2.73879861831665">
			<ele>51.9000015258789</ele>
			<time>2013-12-29T15:08:21Z</time>
		</trkpt>
		<trkpt lat="39.5704689025879" lon="2.73890733718872">
			<ele>51.7999992370605</ele>
			<time>2013-12-29T15:08:23Z</time>
		</trkpt>
		<trkpt lat="39.5704689025879" lon="2.73901724815369">
			<ele>51.7000007629395</ele>
			<time>2013-12-29T15:08:25Z</time>
		</trkpt>
		<trkpt lat="39.5704689025879" lon="2.73912978172302">
			<ele>51.7000007629395</ele>
			<time>2013-12-29T15:08:27Z</time>
		</trkpt>
		<trkpt lat="39.5704689025879" lon="2.73924326896667">
			<ele>51.5</ele>
			<time>2013-12-29T15:08:29Z</time>
		</trkpt>
		<trkpt lat="39.5704689025879" lon="2.73930215835571">
			<ele>51.4000015258789</ele>
			<time>2013-12-29T15:08:30Z</time>
		</trkpt>
		<trkpt lat="39.5704689025879" lon="2.73936152458191">
			<ele>51.4000015258789</ele>
			<time>2013-12-29T15:08:31Z</time>
		</trkpt>
		<trkpt lat="39.5704689025879" lon="2.73942065238953">
			<ele>51.4000015258789</ele>
			<time>2013-12-29T15:08:32Z</time>
		</trkpt>
		<trkpt lat="39.5704727172852" lon="2.73947906494141">
			<ele>51.2000007629395</ele>
			<time>2013-12-29T15:08:33Z</time>
		</trkpt>
		<trkpt lat="39.5704765319824" lon="2.7395932674408">
			<ele>51.0999984741211</ele>
			<time>2013-12-29T15:08:35Z</time>
		</trkpt>
		<trkpt lat="39.5704765319824" lon="2.73965215682983">
			<ele>51</ele>
			<time>2013-12-29T15:08:36Z</time>
		</trkpt>
		<trkpt lat="39.5704803466797" lon="2.73971080780029">
			<ele>51</ele>
			<time>2013-12-29T15:08:37Z</time>
		</trkpt>
		<trkpt lat="39.5704803466797" lon="2.73976993560791">
			<ele>50.9000015258789</ele>
			<time>2013-12-29T15:08:38Z</time>
		</trkpt>
		<trkpt lat="39.570484161377" lon="2.73983025550842">
			<ele>50.7000007629395</ele>
			<time>2013-12-29T15:08:39Z</time>
		</trkpt>
		<trkpt lat="39.5704917907715" lon="2.73989009857178">
			<ele>50.7000007629395</ele>
			<time>2013-12-29T15:08:40Z</time>
		</trkpt>
		<trkpt lat="39.5705032348633" lon="2.73995232582092">
			<ele>50.7000007629395</ele>
			<time>2013-12-29T15:08:41Z</time>
		</trkpt>
		<trkpt lat="39.5705108642578" lon="2.74000978469849">
			<ele>50.7000007629395</ele>
			<time>2013-12-29T15:08:42Z</time>
		</trkpt>
		<trkpt lat="39.5705184936523" lon="2.74006843566895">
			<ele>50.7000007629395</ele>
			<time>2013-12-29T15:08:43Z</time>
		</trkpt>
		<trkpt lat="39.5705299377441" lon="2.74012517929077">
			<ele>50.7000007629395</ele>
			<time>2013-12-29T15:08:44Z</time>
		</trkpt>
		<trkpt lat="39.5705604553223" lon="2.74023413658142">
			<ele>50.5</ele>
			<time>2013-12-29T15:08:46Z</time>
		</trkpt>
		<trkpt lat="39.5705947875977" lon="2.74034357070923">
			<ele>50.4000015258789</ele>
			<time>2013-12-29T15:08:48Z</time>
		</trkpt>
		<trkpt lat="39.5706100463867" lon="2.7403998374939">
			<ele>50.4000015258789</ele>
			<time>2013-12-29T15:08:49Z</time>
		</trkpt>
		<trkpt lat="39.5706253051758" lon="2.74045825004578">
			<ele>50.5</ele>
			<time>2013-12-29T15:08:50Z</time>
		</trkpt>
		<trkpt lat="39.5706367492676" lon="2.74051904678345">
			<ele>50.2999992370605</ele>
			<time>2013-12-29T15:08:51Z</time>
		</trkpt>
		<trkpt lat="39.5706481933594" lon="2.7405800819397">
			<ele>50.2000007629395</ele>
			<time>2013-12-29T15:08:52Z</time>
		</trkpt>
		<trkpt lat="39.5706520080566" lon="2.74064087867737">
			<ele>50.2000007629395</ele>
			<time>2013-12-29T15:08:53Z</time>
		</trkpt>
		<trkpt lat="39.5706596374512" lon="2.74069976806641">
			<ele>50.2000007629395</ele>
			<time>2013-12-29T15:08:54Z</time>
		</trkpt>
		<trkpt lat="39.5706596374512" lon="2.74076104164124">
			<ele>50.2000007629395</ele>
			<time>2013-12-29T15:08:55Z</time>
		</trkpt>
		<trkpt lat="39.5706596374512" lon="2.74082326889038">
			<ele>50.2000007629395</ele>
			<time>2013-12-29T15:08:56Z</time>
		</trkpt>
		<trkpt lat="39.5706634521484" lon="2.74088335037231">
			<ele>50.0999984741211</ele>
			<time>2013-12-29T15:08:57Z</time>
		</trkpt>
		<trkpt lat="39.5706672668457" lon="2.74094533920288">
			<ele>50.0999984741211</ele>
			<time>2013-12-29T15:08:58Z</time>
		</trkpt>
		<trkpt lat="39.570671081543" lon="2.74100756645203">
			<ele>50.0999984741211</ele>
			<time>2013-12-29T15:08:59Z</time>
		</trkpt>
		<trkpt lat="39.570671081543" lon="2.74107098579407">
			<ele>50.0999984741211</ele>
			<time>2013-12-29T15:09:00Z</time>
		</trkpt>
		<trkpt lat="39.570671081543" lon="2.74113345146179">
			<ele>50</ele>
			<time>2013-12-29T15:09:01Z</time>
		</trkpt>
		<trkpt lat="39.570671081543" lon="2.74119591712952">
			<ele>50.0999984741211</ele>
			<time>2013-12-29T15:09:02Z</time>
		</trkpt>
		<trkpt lat="39.5706748962402" lon="2.74125719070435">
			<ele>50.0999984741211</ele>
			<time>2013-12-29T15:09:03Z</time>
		</trkpt>
		<trkpt lat="39.5706748962402" lon="2.74132013320923">
			<ele>50.2000007629395</ele>
			<time>2013-12-29T15:09:04Z</time>
		</trkpt>
		<trkpt lat="39.5706748962402" lon="2.74138331413269">
			<ele>50.2999992370605</ele>
			<time>2013-12-29T15:09:05Z</time>
		</trkpt>
		<trkpt lat="39.5706787109375" lon="2.74144816398621">
			<ele>50.2000007629395</ele>
			<time>2013-12-29T15:09:06Z</time>
		</trkpt>
		<trkpt lat="39.5706825256348" lon="2.74151277542114">
			<ele>50.2999992370605</ele>
			<time>2013-12-29T15:09:07Z</time>
		</trkpt>
		<trkpt lat="39.570686340332" lon="2.74157190322876">
			<ele>50.2999992370605</ele>
			<time>2013-12-29T15:09:08Z</time>
		</trkpt>
		<trkpt lat="39.5706939697266" lon="2.74163389205933">
			<ele>50.2000007629395</ele>
			<time>2013-12-29T15:09:09Z</time>
		</trkpt>
		<trkpt lat="39.5706939697266" lon="2.74169874191284">
			<ele>50.0999984741211</ele>
			<time>2013-12-29T15:09:10Z</time>
		</trkpt>
		<trkpt lat="39.5706901550293" lon="2.74176049232483">
			<ele>50</ele>
			<time>2013-12-29T15:09:11Z</time>
		</trkpt>
		<trkpt lat="39.5706901550293" lon="2.74182438850403">
			<ele>50</ele>
			<time>2013-12-29T15:09:12Z</time>
		</trkpt>
		<trkpt lat="39.5706939697266" lon="2.74188733100891">
			<ele>49.7999992370605</ele>
			<time>2013-12-29T15:09:13Z</time>
		</trkpt>
		<trkpt lat="39.5706939697266" lon="2.74194979667664">
			<ele>49.7000007629395</ele>
			<time>2013-12-29T15:09:14Z</time>
		</trkpt>
		<trkpt lat="39.5706901550293" lon="2.74206876754761">
			<ele>49.7999992370605</ele>
			<time>2013-12-29T15:09:16Z</time>
		</trkpt>
		<trkpt lat="39.5706901550293" lon="2.74213075637817">
			<ele>49.5999984741211</ele>
			<time>2013-12-29T15:09:17Z</time>
		</trkpt>
		<trkpt lat="39.570686340332" lon="2.74219298362732">
			<ele>49.5999984741211</ele>
			<time>2013-12-29T15:09:18Z</time>
		</trkpt>
		<trkpt lat="39.5706825256348" lon="2.74225831031799">
			<ele>49.5999984741211</ele>
			<time>2013-12-29T15:09:19Z</time>
		</trkpt>
		<trkpt lat="39.5706825256348" lon="2.7423210144043">
			<ele>49.7999992370605</ele>
			<time>2013-12-29T15:09:20Z</time>
		</trkpt>
		<trkpt lat="39.5706748962402" lon="2.74238348007202">
			<ele>49.7999992370605</ele>
			<time>2013-12-29T15:09:21Z</time>
		</trkpt>
		<trkpt lat="39.570671081543" lon="2.74244427680969">
			<ele>49.7000007629395</ele>
			<time>2013-12-29T15:09:22Z</time>
		</trkpt>
		<trkpt lat="39.570671081543" lon="2.7425057888031">
			<ele>49.7000007629395</ele>
			<time>2013-12-29T15:09:23Z</time>
		</trkpt>
		<trkpt lat="39.5706672668457" lon="2.74256777763367">
			<ele>49.5</ele>
			<time>2013-12-29T15:09:24Z</time>
		</trkpt>
		<trkpt lat="39.5706634521484" lon="2.74262666702271">
			<ele>49.7000007629395</ele>
			<time>2013-12-29T15:09:25Z</time>
		</trkpt>
		<trkpt lat="39.5706558227539" lon="2.74268937110901">
			<ele>49.7000007629395</ele>
			<time>2013-12-29T15:09:26Z</time>
		</trkpt>
		<trkpt lat="39.5706520080566" lon="2.74275875091553">
			<ele>49.4000015258789</ele>
			<time>2013-12-29T15:09:27Z</time>
		</trkpt>
		<trkpt lat="39.5706481933594" lon="2.7428240776062">
			<ele>49.2999992370605</ele>
			<time>2013-12-29T15:09:28Z</time>
		</trkpt>
		<trkpt lat="39.5706405639648" lon="2.74288940429688">
			<ele>49.2000007629395</ele>
			<time>2013-12-29T15:09:29Z</time>
		</trkpt>
		<trkpt lat="39.5706367492676" lon="2.74295353889465">
			<ele>49.2000007629395</ele>
			<time>2013-12-29T15:09:30Z</time>
		</trkpt>
		<trkpt lat="39.570629119873" lon="2.74301362037659">
			<ele>49.2000007629395</ele>
			<time>2013-12-29T15:09:31Z</time>
		</trkpt>
		<trkpt lat="39.5706214904785" lon="2.74307465553284">
			<ele>49</ele>
			<time>2013-12-29T15:09:32Z</time>
		</trkpt>
		<trkpt lat="39.5706176757813" lon="2.74313378334045">
			<ele>49.0999984741211</ele>
			<time>2013-12-29T15:09:33Z</time>
		</trkpt>
		<trkpt lat="39.5706062316895" lon="2.74324631690979">
			<ele>49.2000007629395</ele>
			<time>2013-12-29T15:09:35Z</time>
		</trkpt>
		<trkpt lat="39.5705986022949" lon="2.74335432052612">
			<ele>49.2000007629395</ele>
			<time>2013-12-29T15:09:37Z</time>
		</trkpt>
		<trkpt lat="39.5705909729004" lon="2.74345135688782">
			<ele>48.7999992370605</ele>
			<time>2013-12-29T15:09:39Z</time>
		</trkpt>
		<trkpt lat="39.5705833435059" lon="2.74354219436646">
			<ele>48.7999992370605</ele>
			<time>2013-12-29T15:09:41Z</time>
		</trkpt>
		<trkpt lat="39.5705680847168" lon="2.74363231658936">
			<ele>48.7999992370605</ele>
			<time>2013-12-29T15:09:43Z</time>
		</trkpt>
		<trkpt lat="39.570556640625" lon="2.74373292922974">
			<ele>48.7000007629395</ele>
			<time>2013-12-29T15:09:45Z</time>
		</trkpt>
		<trkpt lat="39.5705375671387" lon="2.74384784698486">
			<ele>49</ele>
			<time>2013-12-29T15:09:47Z</time>
		</trkpt>
		<trkpt lat="39.5705299377441" lon="2.74390745162964">
			<ele>49.2999992370605</ele>
			<time>2013-12-29T15:09:48Z</time>
		</trkpt>
		<trkpt lat="39.5705223083496" lon="2.74396634101868">
			<ele>49.4000015258789</ele>
			<time>2013-12-29T15:09:49Z</time>
		</trkpt>
		<trkpt lat="39.5705146789551" lon="2.74402618408203">
			<ele>49.5</ele>
			<time>2013-12-29T15:09:50Z</time>
		</trkpt>
		<trkpt lat="39.5705032348633" lon="2.74408602714539">
			<ele>49.7000007629395</ele>
			<time>2013-12-29T15:09:51Z</time>
		</trkpt>
		<trkpt lat="39.5704917907715" lon="2.74414896965027">
			<ele>50</ele>
			<time>2013-12-29T15:09:52Z</time>
		</trkpt>
		<trkpt lat="39.5704803466797" lon="2.74421453475952">
			<ele>50.0999984741211</ele>
			<time>2013-12-29T15:09:53Z</time>
		</trkpt>
		<trkpt lat="39.5704727172852" lon="2.74427580833435">
			<ele>50</ele>
			<time>2013-12-29T15:09:54Z</time>
		</trkpt>
		<trkpt lat="39.5704574584961" lon="2.74433350563049">
			<ele>50</ele>
			<time>2013-12-29T15:09:55Z</time>
		</trkpt>
		<trkpt lat="39.5704460144043" lon="2.74439191818237">
			<ele>50.2999992370605</ele>
			<time>2013-12-29T15:09:56Z</time>
		</trkpt>
		<trkpt lat="39.5704383850098" lon="2.74445199966431">
			<ele>50.4000015258789</ele>
			<time>2013-12-29T15:09:57Z</time>
		</trkpt>
		<trkpt lat="39.5704154968262" lon="2.74456691741943">
			<ele>50.0999984741211</ele>
			<time>2013-12-29T15:09:59Z</time>
		</trkpt>
		<trkpt lat="39.5704040527344" lon="2.74462652206421">
			<ele>50.2000007629395</ele>
			<time>2013-12-29T15:10:00Z</time>
		</trkpt>
		<trkpt lat="39.5703964233398" lon="2.74468755722046">
			<ele>50.2000007629395</ele>
			<time>2013-12-29T15:10:01Z</time>
		</trkpt>
		<trkpt lat="39.5703811645508" lon="2.74474501609802">
			<ele>50.2999992370605</ele>
			<time>2013-12-29T15:10:02Z</time>
		</trkpt>
		<trkpt lat="39.5703659057617" lon="2.74480509757996">
			<ele>50.2999992370605</ele>
			<time>2013-12-29T15:10:03Z</time>
		</trkpt>
		<trkpt lat="39.5703544616699" lon="2.74486303329468">
			<ele>50.2000007629395</ele>
			<time>2013-12-29T15:10:04Z</time>
		</trkpt>
		<trkpt lat="39.5703392028809" lon="2.74492526054382">
			<ele>50.4000015258789</ele>
			<time>2013-12-29T15:10:05Z</time>
		</trkpt>
		<trkpt lat="39.5703277587891" lon="2.74498796463013">
			<ele>50.5</ele>
			<time>2013-12-29T15:10:06Z</time>
		</trkpt>
		<trkpt lat="39.5703163146973" lon="2.74505019187927">
			<ele>50.7000007629395</ele>
			<time>2013-12-29T15:10:07Z</time>
		</trkpt>
		<trkpt lat="39.5703010559082" lon="2.74510979652405">
			<ele>50.7000007629395</ele>
			<time>2013-12-29T15:10:08Z</time>
		</trkpt>
		<trkpt lat="39.5702934265137" lon="2.74517107009888">
			<ele>50.9000015258789</ele>
			<time>2013-12-29T15:10:09Z</time>
		</trkpt>
		<trkpt lat="39.5702781677246" lon="2.74523162841797">
			<ele>51</ele>
			<time>2013-12-29T15:10:10Z</time>
		</trkpt>
		<trkpt lat="39.5702667236328" lon="2.74528932571411">
			<ele>51.0999984741211</ele>
			<time>2013-12-29T15:10:11Z</time>
		</trkpt>
		<trkpt lat="39.570255279541" lon="2.74535179138184">
			<ele>51.4000015258789</ele>
			<time>2013-12-29T15:10:12Z</time>
		</trkpt>
		<trkpt lat="39.5702438354492" lon="2.74541282653809">
			<ele>51.7000007629395</ele>
			<time>2013-12-29T15:10:13Z</time>
		</trkpt>
		<trkpt lat="39.5702285766602" lon="2.74547362327576">
			<ele>51.7999992370605</ele>
			<time>2013-12-29T15:10:14Z</time>
		</trkpt>
		<trkpt lat="39.5702171325684" lon="2.74553084373474">
			<ele>51.7000007629395</ele>
			<time>2013-12-29T15:10:15Z</time>
		</trkpt>
		<trkpt lat="39.5702018737793" lon="2.74559283256531">
			<ele>51.9000015258789</ele>
			<time>2013-12-29T15:10:16Z</time>
		</trkpt>
		<trkpt lat="39.5701866149902" lon="2.74565529823303">
			<ele>51.9000015258789</ele>
			<time>2013-12-29T15:10:17Z</time>
		</trkpt>
		<trkpt lat="39.5701713562012" lon="2.74571514129639">
			<ele>51.7000007629395</ele>
			<time>2013-12-29T15:10:18Z</time>
		</trkpt>
		<trkpt lat="39.5701560974121" lon="2.74578046798706">
			<ele>51.7000007629395</ele>
			<time>2013-12-29T15:10:19Z</time>
		</trkpt>
		<trkpt lat="39.570140838623" lon="2.74584412574768">
			<ele>51.7000007629395</ele>
			<time>2013-12-29T15:10:20Z</time>
		</trkpt>
		<trkpt lat="39.5701293945313" lon="2.74590802192688">
			<ele>51.5999984741211</ele>
			<time>2013-12-29T15:10:21Z</time>
		</trkpt>
		<trkpt lat="39.5701103210449" lon="2.74596858024597">
			<ele>51.5</ele>
			<time>2013-12-29T15:10:22Z</time>
		</trkpt>
		<trkpt lat="39.5700912475586" lon="2.74602866172791">
			<ele>51.5999984741211</ele>
			<time>2013-12-29T15:10:23Z</time>
		</trkpt>
		<trkpt lat="39.5700759887695" lon="2.74609065055847">
			<ele>51.5</ele>
			<time>2013-12-29T15:10:24Z</time>
		</trkpt>
		<trkpt lat="39.5700569152832" lon="2.74615359306335">
			<ele>51.5</ele>
			<time>2013-12-29T15:10:25Z</time>
		</trkpt>
		<trkpt lat="39.5700416564941" lon="2.74621343612671">
			<ele>51.5</ele>
			<time>2013-12-29T15:10:26Z</time>
		</trkpt>
		<trkpt lat="39.5700225830078" lon="2.74627494812012">
			<ele>51.7999992370605</ele>
			<time>2013-12-29T15:10:27Z</time>
		</trkpt>
		<trkpt lat="39.5700073242188" lon="2.74633693695068">
			<ele>51.7999992370605</ele>
			<time>2013-12-29T15:10:28Z</time>
		</trkpt>
		<trkpt lat="39.5699882507324" lon="2.74639940261841">
			<ele>51.7999992370605</ele>
			<time>2013-12-29T15:10:29Z</time>
		</trkpt>
		<trkpt lat="39.5699729919434" lon="2.74646186828613">
			<ele>52</ele>
			<time>2013-12-29T15:10:30Z</time>
		</trkpt>
		<trkpt lat="39.569953918457" lon="2.74652171134949">
			<ele>51.7999992370605</ele>
			<time>2013-12-29T15:10:31Z</time>
		</trkpt>
		<trkpt lat="39.569938659668" lon="2.74658274650574">
			<ele>51.9000015258789</ele>
			<time>2013-12-29T15:10:32Z</time>
		</trkpt>
		<trkpt lat="39.5699234008789" lon="2.74664402008057">
			<ele>51.7000007629395</ele>
			<time>2013-12-29T15:10:33Z</time>
		</trkpt>
		<trkpt lat="39.5699043273926" lon="2.74670743942261">
			<ele>51.5999984741211</ele>
			<time>2013-12-29T15:10:34Z</time>
		</trkpt>
		<trkpt lat="39.5698890686035" lon="2.74677085876465">
			<ele>51.5999984741211</ele>
			<time>2013-12-29T15:10:35Z</time>
		</trkpt>
		<trkpt lat="39.5698738098145" lon="2.74683141708374">
			<ele>51.7000007629395</ele>
			<time>2013-12-29T15:10:36Z</time>
		</trkpt>
		<trkpt lat="39.5698547363281" lon="2.74689555168152">
			<ele>51.7999992370605</ele>
			<time>2013-12-29T15:10:37Z</time>
		</trkpt>
		<trkpt lat="39.5698394775391" lon="2.74696063995361">
			<ele>51.7000007629395</ele>
			<time>2013-12-29T15:10:38Z</time>
		</trkpt>
		<trkpt lat="39.56982421875" lon="2.74702405929565">
			<ele>51.7999992370605</ele>
			<time>2013-12-29T15:10:39Z</time>
		</trkpt>
		<trkpt lat="39.5698013305664" lon="2.74708652496338">
			<ele>51.9000015258789</ele>
			<time>2013-12-29T15:10:40Z</time>
		</trkpt>
		<trkpt lat="39.5697860717773" lon="2.74714922904968">
			<ele>51.7999992370605</ele>
			<time>2013-12-29T15:10:41Z</time>
		</trkpt>
		<trkpt lat="39.569766998291" lon="2.74721217155457">
			<ele>51.7000007629395</ele>
			<time>2013-12-29T15:10:42Z</time>
		</trkpt>
		<trkpt lat="39.5697479248047" lon="2.74727368354797">
			<ele>52.0999984741211</ele>
			<time>2013-12-29T15:10:43Z</time>
		</trkpt>
		<trkpt lat="39.5697326660156" lon="2.74733400344849">
			<ele>52.2999992370605</ele>
			<time>2013-12-29T15:10:44Z</time>
		</trkpt>
		<trkpt lat="39.5697174072266" lon="2.74739646911621">
			<ele>52.7000007629395</ele>
			<time>2013-12-29T15:10:45Z</time>
		</trkpt>
		<trkpt lat="39.5696983337402" lon="2.74745798110962">
			<ele>52.9000015258789</ele>
			<time>2013-12-29T15:10:46Z</time>
		</trkpt>
		<trkpt lat="39.5696792602539" lon="2.74752116203308">
			<ele>52.5</ele>
			<time>2013-12-29T15:10:47Z</time>
		</trkpt>
		<trkpt lat="39.5696640014648" lon="2.74758100509644">
			<ele>52.5</ele>
			<time>2013-12-29T15:10:48Z</time>
		</trkpt>
		<trkpt lat="39.5696411132813" lon="2.74764156341553">
			<ele>52.5999984741211</ele>
			<time>2013-12-29T15:10:49Z</time>
		</trkpt>
		<trkpt lat="39.5696258544922" lon="2.74770450592041">
			<ele>52.4000015258789</ele>
			<time>2013-12-29T15:10:50Z</time>
		</trkpt>
		<trkpt lat="39.5696067810059" lon="2.7477695941925">
			<ele>52.4000015258789</ele>
			<time>2013-12-29T15:10:51Z</time>
		</trkpt>
		<trkpt lat="39.5695915222168" lon="2.74783301353455">
			<ele>52.0999984741211</ele>
			<time>2013-12-29T15:10:52Z</time>
		</trkpt>
		<trkpt lat="39.5695724487305" lon="2.74789714813232">
			<ele>52.2000007629395</ele>
			<time>2013-12-29T15:10:53Z</time>
		</trkpt>
		<trkpt lat="39.5695533752441" lon="2.74796032905579">
			<ele>52.0999984741211</ele>
			<time>2013-12-29T15:10:54Z</time>
		</trkpt>
		<trkpt lat="39.5695343017578" lon="2.74802422523499">
			<ele>52.4000015258789</ele>
			<time>2013-12-29T15:10:55Z</time>
		</trkpt>
		<trkpt lat="39.5695152282715" lon="2.74808692932129">
			<ele>52.2999992370605</ele>
			<time>2013-12-29T15:10:56Z</time>
		</trkpt>
		<trkpt lat="39.5694961547852" lon="2.74815225601196">
			<ele>52.2999992370605</ele>
			<time>2013-12-29T15:10:57Z</time>
		</trkpt>
		<trkpt lat="39.5694770812988" lon="2.74821472167969">
			<ele>52.4000015258789</ele>
			<time>2013-12-29T15:10:58Z</time>
		</trkpt>
		<trkpt lat="39.5694580078125" lon="2.74827766418457">
			<ele>52.7000007629395</ele>
			<time>2013-12-29T15:10:59Z</time>
		</trkpt>
		<trkpt lat="39.5694389343262" lon="2.74834179878235">
			<ele>52.7000007629395</ele>
			<time>2013-12-29T15:11:00Z</time>
		</trkpt>
		<trkpt lat="39.5694198608398" lon="2.74840497970581">
			<ele>52.7000007629395</ele>
			<time>2013-12-29T15:11:01Z</time>
		</trkpt>
		<trkpt lat="39.5694007873535" lon="2.74847078323364">
			<ele>52.7999992370605</ele>
			<time>2013-12-29T15:11:02Z</time>
		</trkpt>
		<trkpt lat="39.5693817138672" lon="2.74853515625">
			<ele>52.5999984741211</ele>
			<time>2013-12-29T15:11:03Z</time>
		</trkpt>
		<trkpt lat="39.5693626403809" lon="2.7485990524292">
			<ele>52.5999984741211</ele>
			<time>2013-12-29T15:11:04Z</time>
		</trkpt>
		<trkpt lat="39.5693397521973" lon="2.74866271018982">
			<ele>52.7000007629395</ele>
			<time>2013-12-29T15:11:05Z</time>
		</trkpt>
		<trkpt lat="39.5693244934082" lon="2.74872374534607">
			<ele>52.9000015258789</ele>
			<time>2013-12-29T15:11:06Z</time>
		</trkpt>
		<trkpt lat="39.5693054199219" lon="2.74878478050232">
			<ele>53</ele>
			<time>2013-12-29T15:11:07Z</time>
		</trkpt>
		<trkpt lat="39.5692863464355" lon="2.74884724617004">
			<ele>52.9000015258789</ele>
			<time>2013-12-29T15:11:08Z</time>
		</trkpt>
		<trkpt lat="39.5692672729492" lon="2.74890923500061">
			<ele>52.7999992370605</ele>
			<time>2013-12-29T15:11:09Z</time>
		</trkpt>
		<trkpt lat="39.5692481994629" lon="2.74897336959839">
			<ele>52.7999992370605</ele>
			<time>2013-12-29T15:11:10Z</time>
		</trkpt>
		<trkpt lat="39.5692291259766" lon="2.74903440475464">
			<ele>52.7000007629395</ele>
			<time>2013-12-29T15:11:11Z</time>
		</trkpt>
		<trkpt lat="39.5692138671875" lon="2.74910044670105">
			<ele>52.7999992370605</ele>
			<time>2013-12-29T15:11:12Z</time>
		</trkpt>
		<trkpt lat="39.5691947937012" lon="2.74916172027588">
			<ele>52.9000015258789</ele>
			<time>2013-12-29T15:11:13Z</time>
		</trkpt>
		<trkpt lat="39.5691719055176" lon="2.74922323226929">
			<ele>53</ele>
			<time>2013-12-29T15:11:14Z</time>
		</trkpt>
		<trkpt lat="39.5691566467285" lon="2.74928855895996">
			<ele>53.0999984741211</ele>
			<time>2013-12-29T15:11:15Z</time>
		</trkpt>
		<trkpt lat="39.5691413879395" lon="2.74934983253479">
			<ele>53.0999984741211</ele>
			<time>2013-12-29T15:11:16Z</time>
		</trkpt>
		<trkpt lat="39.5691184997559" lon="2.74941349029541">
			<ele>53.2999992370605</ele>
			<time>2013-12-29T15:11:17Z</time>
		</trkpt>
		<trkpt lat="39.5691032409668" lon="2.7494740486145">
			<ele>53.5999984741211</ele>
			<time>2013-12-29T15:11:18Z</time>
		</trkpt>
		<trkpt lat="39.5690727233887" lon="2.74958729743958">
			<ele>54.2999992370605</ele>
			<time>2013-12-29T15:11:20Z</time>
		</trkpt>
		<trkpt lat="39.5690383911133" lon="2.74967980384827">
			<ele>55</ele>
			<time>2013-12-29T15:11:22Z</time>
		</trkpt>
		<trkpt lat="39.5690002441406" lon="2.74975395202637">
			<ele>55.7000007629395</ele>
			<time>2013-12-29T15:11:24Z</time>
		</trkpt>
		<trkpt lat="39.5689735412598" lon="2.74981951713562">
			<ele>56.0999984741211</ele>
			<time>2013-12-29T15:11:25Z</time>
		</trkpt>
		<trkpt lat="39.5689353942871" lon="2.74988579750061">
			<ele>56.5999984741211</ele>
			<time>2013-12-29T15:11:28Z</time>
		</trkpt>
		<trkpt lat="39.5688972473145" lon="2.74994206428528">
			<ele>56.5999984741211</ele>
			<time>2013-12-29T15:11:30Z</time>
		</trkpt>
		<trkpt lat="39.5688591003418" lon="2.74999594688416">
			<ele>56.9000015258789</ele>
			<time>2013-12-29T15:11:32Z</time>
		</trkpt>
		<trkpt lat="39.5688209533691" lon="2.75005483627319">
			<ele>57.2000007629395</ele>
			<time>2013-12-29T15:11:34Z</time>
		</trkpt>
		<trkpt lat="39.5687866210938" lon="2.75010871887207">
			<ele>57.7000007629395</ele>
			<time>2013-12-29T15:11:36Z</time>
		</trkpt>
		<trkpt lat="39.5687522888184" lon="2.7501585483551">
			<ele>58</ele>
			<time>2013-12-29T15:11:38Z</time>
		</trkpt>
		<trkpt lat="39.5687141418457" lon="2.75021457672119">
			<ele>58.2000007629395</ele>
			<time>2013-12-29T15:11:40Z</time>
		</trkpt>
		<trkpt lat="39.5686721801758" lon="2.75026631355286">
			<ele>58.7000007629395</ele>
			<time>2013-12-29T15:11:42Z</time>
		</trkpt>
		<trkpt lat="39.5686302185059" lon="2.75031852722168">
			<ele>59.2000007629395</ele>
			<time>2013-12-29T15:11:44Z</time>
		</trkpt>
		<trkpt lat="39.5685958862305" lon="2.75037264823914">
			<ele>59.5</ele>
			<time>2013-12-29T15:11:46Z</time>
		</trkpt>
		<trkpt lat="39.5685615539551" lon="2.75042629241943">
			<ele>59.9000015258789</ele>
			<time>2013-12-29T15:11:48Z</time>
		</trkpt>
		<trkpt lat="39.568531036377" lon="2.75047922134399">
			<ele>60</ele>
			<time>2013-12-29T15:11:50Z</time>
		</trkpt>
		<trkpt lat="39.5685005187988" lon="2.75053143501282">
			<ele>60.2999992370605</ele>
			<time>2013-12-29T15:11:52Z</time>
		</trkpt>
		<trkpt lat="39.568473815918" lon="2.75058460235596">
			<ele>60.2999992370605</ele>
			<time>2013-12-29T15:11:54Z</time>
		</trkpt>
		<trkpt lat="39.5684509277344" lon="2.75064253807068">
			<ele>60.2000007629395</ele>
			<time>2013-12-29T15:11:56Z</time>
		</trkpt>
		<trkpt lat="39.5684242248535" lon="2.75070238113403">
			<ele>59.9000015258789</ele>
			<time>2013-12-29T15:11:58Z</time>
		</trkpt>
		<trkpt lat="39.5683898925781" lon="2.75076103210449">
			<ele>60</ele>
			<time>2013-12-29T15:12:00Z</time>
		</trkpt>
		<trkpt lat="39.5683517456055" lon="2.75081706047058">
			<ele>59.7000007629395</ele>
			<time>2013-12-29T15:12:02Z</time>
		</trkpt>
		<trkpt lat="39.5683059692383" lon="2.75087904930115">
			<ele>59.5</ele>
			<time>2013-12-29T15:12:04Z</time>
		</trkpt>
		<trkpt lat="39.5682640075684" lon="2.7509458065033">
			<ele>59.5999984741211</ele>
			<time>2013-12-29T15:12:06Z</time>
		</trkpt>
		<trkpt lat="39.5682373046875" lon="2.75103187561035">
			<ele>59.7999992370605</ele>
			<time>2013-12-29T15:12:08Z</time>
		</trkpt>
		<trkpt lat="39.568229675293" lon="2.75111985206604">
			<ele>60.0999984741211</ele>
			<time>2013-12-29T15:12:10Z</time>
		</trkpt>
		<trkpt lat="39.5682411193848" lon="2.75121784210205">
			<ele>60.0999984741211</ele>
			<time>2013-12-29T15:12:12Z</time>
		</trkpt>
		<trkpt lat="39.5682563781738" lon="2.75131011009216">
			<ele>59.7000007629395</ele>
			<time>2013-12-29T15:12:14Z</time>
		</trkpt>
		<trkpt lat="39.5682792663574" lon="2.7514009475708">
			<ele>59.7999992370605</ele>
			<time>2013-12-29T15:12:16Z</time>
		</trkpt>
		<trkpt lat="39.5683250427246" lon="2.75148820877075">
			<ele>59.4000015258789</ele>
			<time>2013-12-29T15:12:18Z</time>
		</trkpt>
		<trkpt lat="39.5683708190918" lon="2.75158953666687">
			<ele>58.7999992370605</ele>
			<time>2013-12-29T15:12:20Z</time>
		</trkpt>
		<trkpt lat="39.5683937072754" lon="2.75164842605591">
			<ele>58.4000015258789</ele>
			<time>2013-12-29T15:12:21Z</time>
		</trkpt>
		<trkpt lat="39.5684127807617" lon="2.75171399116516">
			<ele>57.7999992370605</ele>
			<time>2013-12-29T15:12:22Z</time>
		</trkpt>
		<trkpt lat="39.5684280395508" lon="2.75178503990173">
			<ele>57.2999992370605</ele>
			<time>2013-12-29T15:12:23Z</time>
		</trkpt>
		<trkpt lat="39.568431854248" lon="2.75187659263611">
			<ele>56.9000015258789</ele>
			<time>2013-12-29T15:12:24Z</time>
		</trkpt>
		<trkpt lat="39.5684356689453" lon="2.75196743011475">
			<ele>56.2999992370605</ele>
			<time>2013-12-29T15:12:25Z</time>
		</trkpt>
		<trkpt lat="39.5684394836426" lon="2.75206470489502">
			<ele>55.5</ele>
			<time>2013-12-29T15:12:26Z</time>
		</trkpt>
		<trkpt lat="39.5684432983398" lon="2.75216841697693">
			<ele>54.7000007629395</ele>
			<time>2013-12-29T15:12:27Z</time>
		</trkpt>
		<trkpt lat="39.5684471130371" lon="2.75227689743042">
			<ele>54</ele>
			<time>2013-12-29T15:12:28Z</time>
		</trkpt>
		<trkpt lat="39.5684547424316" lon="2.75238943099976">
			<ele>53.2000007629395</ele>
			<time>2013-12-29T15:12:29Z</time>
		</trkpt>
		<trkpt lat="39.5684585571289" lon="2.7525053024292">
			<ele>52.2999992370605</ele>
			<time>2013-12-29T15:12:30Z</time>
		</trkpt>
		<trkpt lat="39.5684509277344" lon="2.75262594223022">
			<ele>51.5999984741211</ele>
			<time>2013-12-29T15:12:31Z</time>
		</trkpt>
		<trkpt lat="39.5684394836426" lon="2.7527494430542">
			<ele>51.2000007629395</ele>
			<time>2013-12-29T15:12:32Z</time>
		</trkpt>
		<trkpt lat="39.568416595459" lon="2.75287365913391">
			<ele>50.7999992370605</ele>
			<time>2013-12-29T15:12:33Z</time>
		</trkpt>
		<trkpt lat="39.5683975219727" lon="2.75299572944641">
			<ele>50.5</ele>
			<time>2013-12-29T15:12:34Z</time>
		</trkpt>
		<trkpt lat="39.5683746337891" lon="2.75311470031738">
			<ele>50.5999984741211</ele>
			<time>2013-12-29T15:12:35Z</time>
		</trkpt>
		<trkpt lat="39.5683555603027" lon="2.75323128700256">
			<ele>50.5999984741211</ele>
			<time>2013-12-29T15:12:36Z</time>
		</trkpt>
		<trkpt lat="39.5683326721191" lon="2.7533438205719">
			<ele>50.5999984741211</ele>
			<time>2013-12-29T15:12:37Z</time>
		</trkpt>
		<trkpt lat="39.5683097839355" lon="2.75345897674561">
			<ele>50.5999984741211</ele>
			<time>2013-12-29T15:12:38Z</time>
		</trkpt>
		<trkpt lat="39.5682907104492" lon="2.75356674194336">
			<ele>50.4000015258789</ele>
			<time>2013-12-29T15:12:39Z</time>
		</trkpt>
		<trkpt lat="39.5682716369629" lon="2.75367522239685">
			<ele>50.2999992370605</ele>
			<time>2013-12-29T15:12:40Z</time>
		</trkpt>
		<trkpt lat="39.5682525634766" lon="2.75378203392029">
			<ele>50.2999992370605</ele>
			<time>2013-12-29T15:12:41Z</time>
		</trkpt>
		<trkpt lat="39.568229675293" lon="2.75388121604919">
			<ele>50.5</ele>
			<time>2013-12-29T15:12:42Z</time>
		</trkpt>
		<trkpt lat="39.5682106018066" lon="2.75397920608521">
			<ele>50.7999992370605</ele>
			<time>2013-12-29T15:12:43Z</time>
		</trkpt>
		<trkpt lat="39.5681915283203" lon="2.75407433509827">
			<ele>50.7999992370605</ele>
			<time>2013-12-29T15:12:44Z</time>
		</trkpt>
		<trkpt lat="39.5681686401367" lon="2.75416541099548">
			<ele>50.9000015258789</ele>
			<time>2013-12-29T15:12:45Z</time>
		</trkpt>
		<trkpt lat="39.5681457519531" lon="2.75425481796265">
			<ele>51.0999984741211</ele>
			<time>2013-12-29T15:12:46Z</time>
		</trkpt>
		<trkpt lat="39.5681266784668" lon="2.75434017181396">
			<ele>51.0999984741211</ele>
			<time>2013-12-29T15:12:47Z</time>
		</trkpt>
		<trkpt lat="39.5681076049805" lon="2.75442314147949">
			<ele>51</ele>
			<time>2013-12-29T15:12:48Z</time>
		</trkpt>
		<trkpt lat="39.5680847167969" lon="2.75450134277344">
			<ele>51.2000007629395</ele>
			<time>2013-12-29T15:12:49Z</time>
		</trkpt>
		<trkpt lat="39.568058013916" lon="2.75457668304443">
			<ele>51.2000007629395</ele>
			<time>2013-12-29T15:12:50Z</time>
		</trkpt>
		<trkpt lat="39.5680351257324" lon="2.75465154647827">
			<ele>51</ele>
			<time>2013-12-29T15:12:51Z</time>
		</trkpt>
		<trkpt lat="39.5680122375488" lon="2.75472354888916">
			<ele>51</ele>
			<time>2013-12-29T15:12:52Z</time>
		</trkpt>
		<trkpt lat="39.5679893493652" lon="2.75479865074158">
			<ele>51.0999984741211</ele>
			<time>2013-12-29T15:12:53Z</time>
		</trkpt>
		<trkpt lat="39.5679626464844" lon="2.75487208366394">
			<ele>51</ele>
			<time>2013-12-29T15:12:54Z</time>
		</trkpt>
		<trkpt lat="39.5679397583008" lon="2.75494122505188">
			<ele>51.2000007629395</ele>
			<time>2013-12-29T15:12:55Z</time>
		</trkpt>
		<trkpt lat="39.5679168701172" lon="2.75500726699829">
			<ele>51.2999992370605</ele>
			<time>2013-12-29T15:12:56Z</time>
		</trkpt>
		<trkpt lat="39.5678939819336" lon="2.75507712364197">
			<ele>51.2000007629395</ele>
			<time>2013-12-29T15:12:57Z</time>
		</trkpt>
		<trkpt lat="39.56787109375" lon="2.75514531135559">
			<ele>51.2999992370605</ele>
			<time>2013-12-29T15:12:58Z</time>
		</trkpt>
		<trkpt lat="39.5678558349609" lon="2.75521039962769">
			<ele>51.4000015258789</ele>
			<time>2013-12-29T15:12:59Z</time>
		</trkpt>
		<trkpt lat="39.5678405761719" lon="2.75527477264404">
			<ele>51.2999992370605</ele>
			<time>2013-12-29T15:13:00Z</time>
		</trkpt>
		<trkpt lat="39.5678253173828" lon="2.75533676147461">
			<ele>51.2000007629395</ele>
			<time>2013-12-29T15:13:01Z</time>
		</trkpt>
		<trkpt lat="39.5678024291992" lon="2.75539541244507">
			<ele>51.2999992370605</ele>
			<time>2013-12-29T15:13:02Z</time>
		</trkpt>
		<trkpt lat="39.5677833557129" lon="2.75545191764832">
			<ele>51.2999992370605</ele>
			<time>2013-12-29T15:13:03Z</time>
		</trkpt>
		<trkpt lat="39.567756652832" lon="2.75555729866028">
			<ele>50.7000007629395</ele>
			<time>2013-12-29T15:13:05Z</time>
		</trkpt>
		<trkpt lat="39.5677299499512" lon="2.75566554069519">
			<ele>50.7000007629395</ele>
			<time>2013-12-29T15:13:07Z</time>
		</trkpt>
		<trkpt lat="39.5677223205566" lon="2.75572371482849">
			<ele>50.5999984741211</ele>
			<time>2013-12-29T15:13:08Z</time>
		</trkpt>
		<trkpt lat="39.5677146911621" lon="2.75578570365906">
			<ele>50.7999992370605</ele>
			<time>2013-12-29T15:13:09Z</time>
		</trkpt>
		<trkpt lat="39.5677070617676" lon="2.75584483146667">
			<ele>51.0999984741211</ele>
			<time>2013-12-29T15:13:10Z</time>
		</trkpt>
		<trkpt lat="39.5677032470703" lon="2.75590658187866">
			<ele>51</ele>
			<time>2013-12-29T15:13:11Z</time>
		</trkpt>
		<trkpt lat="39.5676879882813" lon="2.75596594810486">
			<ele>51.4000015258789</ele>
			<time>2013-12-29T15:13:12Z</time>
		</trkpt>
		<trkpt lat="39.5676803588867" lon="2.75602650642395">
			<ele>51.4000015258789</ele>
			<time>2013-12-29T15:13:13Z</time>
		</trkpt>
		<trkpt lat="39.5676651000977" lon="2.75608658790588">
			<ele>51.5</ele>
			<time>2013-12-29T15:13:14Z</time>
		</trkpt>
		<trkpt lat="39.5676536560059" lon="2.75620436668396">
			<ele>51.2999992370605</ele>
			<time>2013-12-29T15:13:16Z</time>
		</trkpt>
		<trkpt lat="39.5676460266113" lon="2.75626730918884">
			<ele>51.4000015258789</ele>
			<time>2013-12-29T15:13:17Z</time>
		</trkpt>
		<trkpt lat="39.5676345825195" lon="2.75632452964783">
			<ele>51.5999984741211</ele>
			<time>2013-12-29T15:13:18Z</time>
		</trkpt>
		<trkpt lat="39.5676307678223" lon="2.75638604164124">
			<ele>51.5</ele>
			<time>2013-12-29T15:13:19Z</time>
		</trkpt>
		<trkpt lat="39.5676155090332" lon="2.75649905204773">
			<ele>51.5999984741211</ele>
			<time>2013-12-29T15:13:21Z</time>
		</trkpt>
		<trkpt lat="39.5676002502441" lon="2.75660681724548">
			<ele>51.4000015258789</ele>
			<time>2013-12-29T15:13:23Z</time>
		</trkpt>
		<trkpt lat="39.5675773620605" lon="2.75671339035034">
			<ele>51.4000015258789</ele>
			<time>2013-12-29T15:13:25Z</time>
		</trkpt>
		<trkpt lat="39.567569732666" lon="2.75682497024536">
			<ele>51.5</ele>
			<time>2013-12-29T15:13:27Z</time>
		</trkpt>
		<trkpt lat="39.5675621032715" lon="2.75688290596008">
			<ele>51.5</ele>
			<time>2013-12-29T15:13:28Z</time>
		</trkpt>
		<trkpt lat="39.567554473877" lon="2.75694298744202">
			<ele>51.5</ele>
			<time>2013-12-29T15:13:29Z</time>
		</trkpt>
		<trkpt lat="39.5675506591797" lon="2.75700068473816">
			<ele>51.5</ele>
			<time>2013-12-29T15:13:30Z</time>
		</trkpt>
		<trkpt lat="39.5675392150879" lon="2.75705933570862">
			<ele>51.5999984741211</ele>
			<time>2013-12-29T15:13:31Z</time>
		</trkpt>
		<trkpt lat="39.5675315856934" lon="2.75711727142334">
			<ele>51.5999984741211</ele>
			<time>2013-12-29T15:13:32Z</time>
		</trkpt>
		<trkpt lat="39.5675086975098" lon="2.75722813606262">
			<ele>52</ele>
			<time>2013-12-29T15:13:34Z</time>
		</trkpt>
		<trkpt lat="39.5674896240234" lon="2.75734043121338">
			<ele>52.2999992370605</ele>
			<time>2013-12-29T15:13:36Z</time>
		</trkpt>
		<trkpt lat="39.5674781799316" lon="2.75745153427124">
			<ele>52.5</ele>
			<time>2013-12-29T15:13:38Z</time>
		</trkpt>
		<trkpt lat="39.5674591064453" lon="2.75755286216736">
			<ele>52.5</ele>
			<time>2013-12-29T15:13:40Z</time>
		</trkpt>
		<trkpt lat="39.567440032959" lon="2.75765943527222">
			<ele>52.5</ele>
			<time>2013-12-29T15:13:42Z</time>
		</trkpt>
		<trkpt lat="39.5674324035645" lon="2.75776624679565">
			<ele>52.4000015258789</ele>
			<time>2013-12-29T15:13:44Z</time>
		</trkpt>
		<trkpt lat="39.5674171447754" lon="2.75787615776062">
			<ele>52.0999984741211</ele>
			<time>2013-12-29T15:13:46Z</time>
		</trkpt>
		<trkpt lat="39.5674057006836" lon="2.75797653198242">
			<ele>52.2000007629395</ele>
			<time>2013-12-29T15:13:48Z</time>
		</trkpt>
		<trkpt lat="39.5673866271973" lon="2.7580783367157">
			<ele>52.2000007629395</ele>
			<time>2013-12-29T15:13:50Z</time>
		</trkpt>
		<trkpt lat="39.5673828125" lon="2.75818371772766">
			<ele>52.0999984741211</ele>
			<time>2013-12-29T15:13:52Z</time>
		</trkpt>
		<trkpt lat="39.5673751831055" lon="2.75829172134399">
			<ele>52.2999992370605</ele>
			<time>2013-12-29T15:13:54Z</time>
		</trkpt>
		<trkpt lat="39.5673599243164" lon="2.75838708877563">
			<ele>52.7999992370605</ele>
			<time>2013-12-29T15:13:56Z</time>
		</trkpt>
		<trkpt lat="39.567325592041" lon="2.75847816467285">
			<ele>53</ele>
			<time>2013-12-29T15:13:58Z</time>
		</trkpt>
		<trkpt lat="39.5672798156738" lon="2.75850129127502">
			<ele>52.5</ele>
			<time>2013-12-29T15:13:59Z</time>
		</trkpt>
		<trkpt lat="39.5672378540039" lon="2.75852489471436">
			<ele>53.2000007629395</ele>
			<time>2013-12-29T15:14:00Z</time>
		</trkpt>
		<trkpt lat="39.5671463012695" lon="2.75852823257446">
			<ele>53.2000007629395</ele>
			<time>2013-12-29T15:14:02Z</time>
		</trkpt>
		<trkpt lat="39.567066192627" lon="2.75852036476135">
			<ele>51.7999992370605</ele>
			<time>2013-12-29T15:14:04Z</time>
		</trkpt>
		<trkpt lat="39.5669784545898" lon="2.75851273536682">
			<ele>51.2999992370605</ele>
			<time>2013-12-29T15:14:06Z</time>
		</trkpt>
		<trkpt lat="39.56689453125" lon="2.75850820541382">
			<ele>50.4000015258789</ele>
			<time>2013-12-29T15:14:08Z</time>
		</trkpt>
		<trkpt lat="39.5668106079102" lon="2.75850963592529">
			<ele>50.5</ele>
			<time>2013-12-29T15:14:10Z</time>
		</trkpt>
		<trkpt lat="39.566722869873" lon="2.7585015296936">
			<ele>50.5</ele>
			<time>2013-12-29T15:14:12Z</time>
		</trkpt>
		<trkpt lat="39.5666389465332" lon="2.75850963592529">
			<ele>50.2000007629395</ele>
			<time>2013-12-29T15:14:14Z</time>
		</trkpt>
		<trkpt lat="39.566593170166" lon="2.75851082801819">
			<ele>50.2999992370605</ele>
			<time>2013-12-29T15:14:15Z</time>
		</trkpt>
		<trkpt lat="39.5665016174316" lon="2.75851058959961">
			<ele>50.4000015258789</ele>
			<time>2013-12-29T15:14:17Z</time>
		</trkpt>
		<trkpt lat="39.5664558410645" lon="2.7585084438324">
			<ele>50.4000015258789</ele>
			<time>2013-12-29T15:14:18Z</time>
		</trkpt>
		<trkpt lat="39.5664100646973" lon="2.75850963592529">
			<ele>50.2999992370605</ele>
			<time>2013-12-29T15:14:19Z</time>
		</trkpt>
		<trkpt lat="39.5663261413574" lon="2.75857281684875">
			<ele>50.4000015258789</ele>
			<time>2013-12-29T15:14:21Z</time>
		</trkpt>
		<trkpt lat="39.5662841796875" lon="2.75860404968262">
			<ele>50.5999984741211</ele>
			<time>2013-12-29T15:14:22Z</time>
		</trkpt>
		<trkpt lat="39.5662422180176" lon="2.75863575935364">
			<ele>50.5999984741211</ele>
			<time>2013-12-29T15:14:23Z</time>
		</trkpt>
		<trkpt lat="39.5662040710449" lon="2.7586727142334">
			<ele>50.7000007629395</ele>
			<time>2013-12-29T15:14:24Z</time>
		</trkpt>
		<trkpt lat="39.566162109375" lon="2.75871157646179">
			<ele>50.9000015258789</ele>
			<time>2013-12-29T15:14:25Z</time>
		</trkpt>
		<trkpt lat="39.5661239624023" lon="2.75874352455139">
			<ele>50.9000015258789</ele>
			<time>2013-12-29T15:14:26Z</time>
		</trkpt>
		<trkpt lat="39.5660781860352" lon="2.75877928733826">
			<ele>50.5999984741211</ele>
			<time>2013-12-29T15:14:27Z</time>
		</trkpt>
		<trkpt lat="39.5660362243652" lon="2.7588152885437">
			<ele>50.5</ele>
			<time>2013-12-29T15:14:28Z</time>
		</trkpt>
		<trkpt lat="39.5660018920898" lon="2.75885534286499">
			<ele>50.5999984741211</ele>
			<time>2013-12-29T15:14:29Z</time>
		</trkpt>
		<trkpt lat="39.5659637451172" lon="2.7588951587677">
			<ele>50.5999984741211</ele>
			<time>2013-12-29T15:14:30Z</time>
		</trkpt>
		<trkpt lat="39.5659255981445" lon="2.75893902778625">
			<ele>50.5</ele>
			<time>2013-12-29T15:14:31Z</time>
		</trkpt>
		<trkpt lat="39.5658950805664" lon="2.75898289680481">
			<ele>50.5999984741211</ele>
			<time>2013-12-29T15:14:32Z</time>
		</trkpt>
		<trkpt lat="39.5658569335938" lon="2.75902271270752">
			<ele>50.7000007629395</ele>
			<time>2013-12-29T15:14:33Z</time>
		</trkpt>
		<trkpt lat="39.5658187866211" lon="2.75907015800476">
			<ele>50.9000015258789</ele>
			<time>2013-12-29T15:14:34Z</time>
		</trkpt>
		<trkpt lat="39.5657806396484" lon="2.75911426544189">
			<ele>51</ele>
			<time>2013-12-29T15:14:35Z</time>
		</trkpt>
		<trkpt lat="39.565746307373" lon="2.75916147232056">
			<ele>50.7999992370605</ele>
			<time>2013-12-29T15:14:36Z</time>
		</trkpt>
		<trkpt lat="39.5657119750977" lon="2.75921034812927">
			<ele>50.9000015258789</ele>
			<time>2013-12-29T15:14:37Z</time>
		</trkpt>
		<trkpt lat="39.5656814575195" lon="2.75925850868225">
			<ele>51</ele>
			<time>2013-12-29T15:14:38Z</time>
		</trkpt>
		<trkpt lat="39.5656471252441" lon="2.75930500030518">
			<ele>50.7999992370605</ele>
			<time>2013-12-29T15:14:39Z</time>
		</trkpt>
		<trkpt lat="39.5656127929688" lon="2.75935459136963">
			<ele>50.5</ele>
			<time>2013-12-29T15:14:40Z</time>
		</trkpt>
		<trkpt lat="39.5655784606934" lon="2.75940179824829">
			<ele>50.5</ele>
			<time>2013-12-29T15:14:41Z</time>
		</trkpt>
		<trkpt lat="39.5655403137207" lon="2.75945043563843">
			<ele>50.5</ele>
			<time>2013-12-29T15:14:42Z</time>
		</trkpt>
		<trkpt lat="39.5655097961426" lon="2.75949764251709">
			<ele>50.4000015258789</ele>
			<time>2013-12-29T15:14:43Z</time>
		</trkpt>
		<trkpt lat="39.5654716491699" lon="2.75954484939575">
			<ele>50.4000015258789</ele>
			<time>2013-12-29T15:14:44Z</time>
		</trkpt>
		<trkpt lat="39.5654411315918" lon="2.75959205627441">
			<ele>50.4000015258789</ele>
			<time>2013-12-29T15:14:45Z</time>
		</trkpt>
		<trkpt lat="39.5654067993164" lon="2.7596423625946">
			<ele>50.4000015258789</ele>
			<time>2013-12-29T15:14:46Z</time>
		</trkpt>
		<trkpt lat="39.565372467041" lon="2.75968980789185">
			<ele>50.5999984741211</ele>
			<time>2013-12-29T15:14:47Z</time>
		</trkpt>
		<trkpt lat="39.5653381347656" lon="2.75973796844482">
			<ele>50.5</ele>
			<time>2013-12-29T15:14:48Z</time>
		</trkpt>
		<trkpt lat="39.5653038024902" lon="2.7597861289978">
			<ele>50.2999992370605</ele>
			<time>2013-12-29T15:14:49Z</time>
		</trkpt>
		<trkpt lat="39.5652694702148" lon="2.75983357429504">
			<ele>50.4000015258789</ele>
			<time>2013-12-29T15:14:50Z</time>
		</trkpt>
		<trkpt lat="39.5652389526367" lon="2.75988268852234">
			<ele>50.2999992370605</ele>
			<time>2013-12-29T15:14:51Z</time>
		</trkpt>
		<trkpt lat="39.5652046203613" lon="2.75992941856384">
			<ele>50.2999992370605</ele>
			<time>2013-12-29T15:14:52Z</time>
		</trkpt>
		<trkpt lat="39.5651741027832" lon="2.7599778175354">
			<ele>50.0999984741211</ele>
			<time>2013-12-29T15:14:53Z</time>
		</trkpt>
		<trkpt lat="39.5651397705078" lon="2.76002955436707">
			<ele>50.2000007629395</ele>
			<time>2013-12-29T15:14:54Z</time>
		</trkpt>
		<trkpt lat="39.5651092529297" lon="2.76007986068726">
			<ele>50.0999984741211</ele>
			<time>2013-12-29T15:14:55Z</time>
		</trkpt>
		<trkpt lat="39.5650672912598" lon="2.76012349128723">
			<ele>50</ele>
			<time>2013-12-29T15:14:56Z</time>
		</trkpt>
		<trkpt lat="39.5650329589844" lon="2.76016926765442">
			<ele>49.9000015258789</ele>
			<time>2013-12-29T15:14:57Z</time>
		</trkpt>
		<trkpt lat="39.564998626709" lon="2.76021718978882">
			<ele>49.7000007629395</ele>
			<time>2013-12-29T15:14:58Z</time>
		</trkpt>
		<trkpt lat="39.5649604797363" lon="2.76026701927185">
			<ele>49.7999992370605</ele>
			<time>2013-12-29T15:14:59Z</time>
		</trkpt>
		<trkpt lat="39.5649299621582" lon="2.7603132724762">
			<ele>49.7000007629395</ele>
			<time>2013-12-29T15:15:00Z</time>
		</trkpt>
		<trkpt lat="39.5648918151855" lon="2.76035928726196">
			<ele>49.7000007629395</ele>
			<time>2013-12-29T15:15:01Z</time>
		</trkpt>
		<trkpt lat="39.5648574829102" lon="2.76040530204773">
			<ele>49.7000007629395</ele>
			<time>2013-12-29T15:15:02Z</time>
		</trkpt>
		<trkpt lat="39.5648231506348" lon="2.76045370101929">
			<ele>49.7000007629395</ele>
			<time>2013-12-29T15:15:03Z</time>
		</trkpt>
		<trkpt lat="39.5647888183594" lon="2.76050305366516">
			<ele>49.7000007629395</ele>
			<time>2013-12-29T15:15:04Z</time>
		</trkpt>
		<trkpt lat="39.5647506713867" lon="2.76055121421814">
			<ele>49.5999984741211</ele>
			<time>2013-12-29T15:15:05Z</time>
		</trkpt>
		<trkpt lat="39.5647201538086" lon="2.76059937477112">
			<ele>49.5</ele>
			<time>2013-12-29T15:15:06Z</time>
		</trkpt>
		<trkpt lat="39.5646858215332" lon="2.76064896583557">
			<ele>49.7000007629395</ele>
			<time>2013-12-29T15:15:07Z</time>
		</trkpt>
		<trkpt lat="39.5646476745605" lon="2.76069688796997">
			<ele>49.7000007629395</ele>
			<time>2013-12-29T15:15:08Z</time>
		</trkpt>
		<trkpt lat="39.5646095275879" lon="2.760746717453">
			<ele>49.5</ele>
			<time>2013-12-29T15:15:09Z</time>
		</trkpt>
		<trkpt lat="39.5645790100098" lon="2.76080131530762">
			<ele>49.7000007629395</ele>
			<time>2013-12-29T15:15:10Z</time>
		</trkpt>
		<trkpt lat="39.5645484924316" lon="2.76085448265076">
			<ele>49.7000007629395</ele>
			<time>2013-12-29T15:15:11Z</time>
		</trkpt>
		<trkpt lat="39.5645179748535" lon="2.76090621948242">
			<ele>49.7000007629395</ele>
			<time>2013-12-29T15:15:12Z</time>
		</trkpt>
		<trkpt lat="39.5644798278809" lon="2.76095509529114">
			<ele>49.9000015258789</ele>
			<time>2013-12-29T15:15:13Z</time>
		</trkpt>
		<trkpt lat="39.5644454956055" lon="2.76100993156433">
			<ele>50</ele>
			<time>2013-12-29T15:15:14Z</time>
		</trkpt>
		<trkpt lat="39.5644111633301" lon="2.7610559463501">
			<ele>50</ele>
			<time>2013-12-29T15:15:15Z</time>
		</trkpt>
		<trkpt lat="39.5643730163574" lon="2.76110506057739">
			<ele>50.0999984741211</ele>
			<time>2013-12-29T15:15:16Z</time>
		</trkpt>
		<trkpt lat="39.5643348693848" lon="2.76115322113037">
			<ele>50.4000015258789</ele>
			<time>2013-12-29T15:15:17Z</time>
		</trkpt>
		<trkpt lat="39.5642967224121" lon="2.76120519638062">
			<ele>50.4000015258789</ele>
			<time>2013-12-29T15:15:18Z</time>
		</trkpt>
		<trkpt lat="39.564266204834" lon="2.76125431060791">
			<ele>50.5999984741211</ele>
			<time>2013-12-29T15:15:19Z</time>
		</trkpt>
		<trkpt lat="39.5642318725586" lon="2.761310338974">
			<ele>50.5</ele>
			<time>2013-12-29T15:15:20Z</time>
		</trkpt>
		<trkpt lat="39.5641975402832" lon="2.76136326789856">
			<ele>50.7999992370605</ele>
			<time>2013-12-29T15:15:21Z</time>
		</trkpt>
		<trkpt lat="39.5641632080078" lon="2.76141786575317">
			<ele>51</ele>
			<time>2013-12-29T15:15:22Z</time>
		</trkpt>
		<trkpt lat="39.5641250610352" lon="2.76146459579468">
			<ele>51</ele>
			<time>2013-12-29T15:15:23Z</time>
		</trkpt>
		<trkpt lat="39.5640907287598" lon="2.76151537895203">
			<ele>51.2000007629395</ele>
			<time>2013-12-29T15:15:24Z</time>
		</trkpt>
		<trkpt lat="39.5640487670898" lon="2.76156139373779">
			<ele>51</ele>
			<time>2013-12-29T15:15:25Z</time>
		</trkpt>
		<trkpt lat="39.5640144348145" lon="2.76160907745361">
			<ele>50.9000015258789</ele>
			<time>2013-12-29T15:15:26Z</time>
		</trkpt>
		<trkpt lat="39.5639762878418" lon="2.76166033744812">
			<ele>50.7999992370605</ele>
			<time>2013-12-29T15:15:27Z</time>
		</trkpt>
		<trkpt lat="39.5639419555664" lon="2.76170992851257">
			<ele>50.9000015258789</ele>
			<time>2013-12-29T15:15:28Z</time>
		</trkpt>
		<trkpt lat="39.563907623291" lon="2.76176333427429">
			<ele>50.7999992370605</ele>
			<time>2013-12-29T15:15:29Z</time>
		</trkpt>
		<trkpt lat="39.5638694763184" lon="2.76181197166443">
			<ele>51.0999984741211</ele>
			<time>2013-12-29T15:15:30Z</time>
		</trkpt>
		<trkpt lat="39.563835144043" lon="2.76186347007751">
			<ele>51.0999984741211</ele>
			<time>2013-12-29T15:15:31Z</time>
		</trkpt>
		<trkpt lat="39.5638008117676" lon="2.76191759109497">
			<ele>51.2999992370605</ele>
			<time>2013-12-29T15:15:32Z</time>
		</trkpt>
		<trkpt lat="39.5637626647949" lon="2.761967420578">
			<ele>51.2000007629395</ele>
			<time>2013-12-29T15:15:33Z</time>
		</trkpt>
		<trkpt lat="39.5637245178223" lon="2.76201581954956">
			<ele>51.2999992370605</ele>
			<time>2013-12-29T15:15:34Z</time>
		</trkpt>
		<trkpt lat="39.5636863708496" lon="2.76206350326538">
			<ele>51.4000015258789</ele>
			<time>2013-12-29T15:15:35Z</time>
		</trkpt>
		<trkpt lat="39.5636520385742" lon="2.76211190223694">
			<ele>51.2999992370605</ele>
			<time>2013-12-29T15:15:36Z</time>
		</trkpt>
		<trkpt lat="39.5636177062988" lon="2.76215791702271">
			<ele>51.4000015258789</ele>
			<time>2013-12-29T15:15:37Z</time>
		</trkpt>
		<trkpt lat="39.5635833740234" lon="2.76220345497131">
			<ele>51.5</ele>
			<time>2013-12-29T15:15:38Z</time>
		</trkpt>
		<trkpt lat="39.563549041748" lon="2.76225185394287">
			<ele>51.7000007629395</ele>
			<time>2013-12-29T15:15:39Z</time>
		</trkpt>
		<trkpt lat="39.5635147094727" lon="2.76230192184448">
			<ele>51.7000007629395</ele>
			<time>2013-12-29T15:15:40Z</time>
		</trkpt>
		<trkpt lat="39.5634765625" lon="2.76235127449036">
			<ele>51.7000007629395</ele>
			<time>2013-12-29T15:15:41Z</time>
		</trkpt>
		<trkpt lat="39.5634422302246" lon="2.76240253448486">
			<ele>51.7000007629395</ele>
			<time>2013-12-29T15:15:42Z</time>
		</trkpt>
		<trkpt lat="39.5634078979492" lon="2.76245450973511">
			<ele>51.7000007629395</ele>
			<time>2013-12-29T15:15:43Z</time>
		</trkpt>
		<trkpt lat="39.5633697509766" lon="2.76250696182251">
			<ele>51.7999992370605</ele>
			<time>2013-12-29T15:15:44Z</time>
		</trkpt>
		<trkpt lat="39.5633354187012" lon="2.76255822181702">
			<ele>51.7999992370605</ele>
			<time>2013-12-29T15:15:45Z</time>
		</trkpt>
		<trkpt lat="39.5633010864258" lon="2.76260709762573">
			<ele>51.5999984741211</ele>
			<time>2013-12-29T15:15:46Z</time>
		</trkpt>
		<trkpt lat="39.5632705688477" lon="2.76265835762024">
			<ele>51.5</ele>
			<time>2013-12-29T15:15:47Z</time>
		</trkpt>
		<trkpt lat="39.563232421875" lon="2.76270866394043">
			<ele>51.5</ele>
			<time>2013-12-29T15:15:48Z</time>
		</trkpt>
		<trkpt lat="39.5631942749023" lon="2.76275634765625">
			<ele>51.5</ele>
			<time>2013-12-29T15:15:49Z</time>
		</trkpt>
		<trkpt lat="39.5631561279297" lon="2.76280689239502">
			<ele>51.7000007629395</ele>
			<time>2013-12-29T15:15:50Z</time>
		</trkpt>
		<trkpt lat="39.5631217956543" lon="2.76285648345947">
			<ele>51.7999992370605</ele>
			<time>2013-12-29T15:15:51Z</time>
		</trkpt>
		<trkpt lat="39.5630836486816" lon="2.76290678977966">
			<ele>52</ele>
			<time>2013-12-29T15:15:52Z</time>
		</trkpt>
		<trkpt lat="39.563045501709" lon="2.76295495033264">
			<ele>52.0999984741211</ele>
			<time>2013-12-29T15:15:53Z</time>
		</trkpt>
		<trkpt lat="39.5630111694336" lon="2.76300930976868">
			<ele>52.0999984741211</ele>
			<time>2013-12-29T15:15:54Z</time>
		</trkpt>
		<trkpt lat="39.5629806518555" lon="2.76306128501892">
			<ele>52.2000007629395</ele>
			<time>2013-12-29T15:15:55Z</time>
		</trkpt>
		<trkpt lat="39.5629463195801" lon="2.76311135292053">
			<ele>52.2999992370605</ele>
			<time>2013-12-29T15:15:56Z</time>
		</trkpt>
		<trkpt lat="39.5629119873047" lon="2.76316452026367">
			<ele>52.5</ele>
			<time>2013-12-29T15:15:57Z</time>
		</trkpt>
		<trkpt lat="39.5628776550293" lon="2.76321792602539">
			<ele>52.5999984741211</ele>
			<time>2013-12-29T15:15:58Z</time>
		</trkpt>
		<trkpt lat="39.5628433227539" lon="2.76327180862427">
			<ele>52.4000015258789</ele>
			<time>2013-12-29T15:15:59Z</time>
		</trkpt>
		<trkpt lat="39.5628128051758" lon="2.76332831382751">
			<ele>52.2000007629395</ele>
			<time>2013-12-29T15:16:00Z</time>
		</trkpt>
		<trkpt lat="39.5627822875977" lon="2.76338267326355">
			<ele>52.2999992370605</ele>
			<time>2013-12-29T15:16:01Z</time>
		</trkpt>
		<trkpt lat="39.5627479553223" lon="2.7634379863739">
			<ele>52.4000015258789</ele>
			<time>2013-12-29T15:16:02Z</time>
		</trkpt>
		<trkpt lat="39.5627174377441" lon="2.76349306106567">
			<ele>52.2999992370605</ele>
			<time>2013-12-29T15:16:03Z</time>
		</trkpt>
		<trkpt lat="39.5626831054688" lon="2.76354598999023">
			<ele>52</ele>
			<time>2013-12-29T15:16:04Z</time>
		</trkpt>
		<trkpt lat="39.5626525878906" lon="2.76359939575195">
			<ele>52</ele>
			<time>2013-12-29T15:16:05Z</time>
		</trkpt>
		<trkpt lat="39.5626220703125" lon="2.76365065574646">
			<ele>52</ele>
			<time>2013-12-29T15:16:06Z</time>
		</trkpt>
		<trkpt lat="39.5625953674316" lon="2.76370000839233">
			<ele>52.2000007629395</ele>
			<time>2013-12-29T15:16:07Z</time>
		</trkpt>
		<trkpt lat="39.5625457763672" lon="2.76379799842834">
			<ele>52.7000007629395</ele>
			<time>2013-12-29T15:16:09Z</time>
		</trkpt>
		<trkpt lat="39.5625152587891" lon="2.76384615898132">
			<ele>52.5</ele>
			<time>2013-12-29T15:16:10Z</time>
		</trkpt>
		<trkpt lat="39.5624809265137" lon="2.7639012336731">
			<ele>52.4000015258789</ele>
			<time>2013-12-29T15:16:11Z</time>
		</trkpt>
		<trkpt lat="39.5624504089355" lon="2.76395392417908">
			<ele>52.2000007629395</ele>
			<time>2013-12-29T15:16:12Z</time>
		</trkpt>
		<trkpt lat="39.5624237060547" lon="2.76401090621948">
			<ele>52</ele>
			<time>2013-12-29T15:16:13Z</time>
		</trkpt>
		<trkpt lat="39.5623931884766" lon="2.76406645774841">
			<ele>52.0999984741211</ele>
			<time>2013-12-29T15:16:14Z</time>
		</trkpt>
		<trkpt lat="39.5623664855957" lon="2.76412606239319">
			<ele>52.5</ele>
			<time>2013-12-29T15:16:15Z</time>
		</trkpt>
		<trkpt lat="39.5623321533203" lon="2.76418089866638">
			<ele>52.5</ele>
			<time>2013-12-29T15:16:16Z</time>
		</trkpt>
		<trkpt lat="39.5623016357422" lon="2.76423120498657">
			<ele>52.7000007629395</ele>
			<time>2013-12-29T15:16:17Z</time>
		</trkpt>
		<trkpt lat="39.5622711181641" lon="2.76428246498108">
			<ele>52.7000007629395</ele>
			<time>2013-12-29T15:16:18Z</time>
		</trkpt>
		<trkpt lat="39.5622444152832" lon="2.76433420181274">
			<ele>52.5</ele>
			<time>2013-12-29T15:16:19Z</time>
		</trkpt>
		<trkpt lat="39.5622138977051" lon="2.76438570022583">
			<ele>52.7000007629395</ele>
			<time>2013-12-29T15:16:20Z</time>
		</trkpt>
		<trkpt lat="39.562183380127" lon="2.76443696022034">
			<ele>52.5999984741211</ele>
			<time>2013-12-29T15:16:21Z</time>
		</trkpt>
		<trkpt lat="39.5621528625488" lon="2.76449131965637">
			<ele>52.5999984741211</ele>
			<time>2013-12-29T15:16:22Z</time>
		</trkpt>
		<trkpt lat="39.5621223449707" lon="2.76454591751099">
			<ele>52.5999984741211</ele>
			<time>2013-12-29T15:16:23Z</time>
		</trkpt>
		<trkpt lat="39.5620918273926" lon="2.76459741592407">
			<ele>52.5999984741211</ele>
			<time>2013-12-29T15:16:24Z</time>
		</trkpt>
		<trkpt lat="39.5620613098145" lon="2.7646484375">
			<ele>52.2999992370605</ele>
			<time>2013-12-29T15:16:25Z</time>
		</trkpt>
		<trkpt lat="39.5620307922363" lon="2.76469922065735">
			<ele>52.2999992370605</ele>
			<time>2013-12-29T15:16:26Z</time>
		</trkpt>
		<trkpt lat="39.5620002746582" lon="2.76475071907043">
			<ele>52</ele>
			<time>2013-12-29T15:16:27Z</time>
		</trkpt>
		<trkpt lat="39.5619697570801" lon="2.76480078697205">
			<ele>52.0999984741211</ele>
			<time>2013-12-29T15:16:28Z</time>
		</trkpt>
		<trkpt lat="39.5619430541992" lon="2.76485586166382">
			<ele>52</ele>
			<time>2013-12-29T15:16:29Z</time>
		</trkpt>
		<trkpt lat="39.5619125366211" lon="2.76490783691406">
			<ele>52.0999984741211</ele>
			<time>2013-12-29T15:16:30Z</time>
		</trkpt>
		<trkpt lat="39.561882019043" lon="2.76496148109436">
			<ele>52</ele>
			<time>2013-12-29T15:16:31Z</time>
		</trkpt>
		<trkpt lat="39.5618515014648" lon="2.76501536369324">
			<ele>51.9000015258789</ele>
			<time>2013-12-29T15:16:32Z</time>
		</trkpt>
		<trkpt lat="39.561824798584" lon="2.76506733894348">
			<ele>51.7000007629395</ele>
			<time>2013-12-29T15:16:33Z</time>
		</trkpt>
		<trkpt lat="39.5617942810059" lon="2.76511883735657">
			<ele>51.5999984741211</ele>
			<time>2013-12-29T15:16:34Z</time>
		</trkpt>
		<trkpt lat="39.5617599487305" lon="2.76517176628113">
			<ele>51.7000007629395</ele>
			<time>2013-12-29T15:16:35Z</time>
		</trkpt>
		<trkpt lat="39.5617294311523" lon="2.76522421836853">
			<ele>51.5999984741211</ele>
			<time>2013-12-29T15:16:36Z</time>
		</trkpt>
		<trkpt lat="39.5617027282715" lon="2.76527714729309">
			<ele>51.7000007629395</ele>
			<time>2013-12-29T15:16:37Z</time>
		</trkpt>
		<trkpt lat="39.5616760253906" lon="2.76533317565918">
			<ele>51.5</ele>
			<time>2013-12-29T15:16:38Z</time>
		</trkpt>
		<trkpt lat="39.5616455078125" lon="2.76538395881653">
			<ele>51.4000015258789</ele>
			<time>2013-12-29T15:16:39Z</time>
		</trkpt>
		<trkpt lat="39.5616149902344" lon="2.76543593406677">
			<ele>51.7000007629395</ele>
			<time>2013-12-29T15:16:40Z</time>
		</trkpt>
		<trkpt lat="39.5615844726563" lon="2.76548910140991">
			<ele>51.5</ele>
			<time>2013-12-29T15:16:41Z</time>
		</trkpt>
		<trkpt lat="39.5615539550781" lon="2.76554179191589">
			<ele>51.2999992370605</ele>
			<time>2013-12-29T15:16:42Z</time>
		</trkpt>
		<trkpt lat="39.5615272521973" lon="2.76559615135193">
			<ele>51.4000015258789</ele>
			<time>2013-12-29T15:16:43Z</time>
		</trkpt>
		<trkpt lat="39.5614929199219" lon="2.76565265655518">
			<ele>51.7000007629395</ele>
			<time>2013-12-29T15:16:44Z</time>
		</trkpt>
		<trkpt lat="39.5614624023438" lon="2.76570582389832">
			<ele>51.7000007629395</ele>
			<time>2013-12-29T15:16:45Z</time>
		</trkpt>
		<trkpt lat="39.5614318847656" lon="2.76575756072998">
			<ele>51.5</ele>
			<time>2013-12-29T15:16:46Z</time>
		</trkpt>
		<trkpt lat="39.5614051818848" lon="2.76581239700317">
			<ele>51.7000007629395</ele>
			<time>2013-12-29T15:16:47Z</time>
		</trkpt>
		<trkpt lat="39.5613784790039" lon="2.76586222648621">
			<ele>51.7999992370605</ele>
			<time>2013-12-29T15:16:48Z</time>
		</trkpt>
		<trkpt lat="39.5613479614258" lon="2.76591634750366">
			<ele>51.9000015258789</ele>
			<time>2013-12-29T15:16:49Z</time>
		</trkpt>
		<trkpt lat="39.5613174438477" lon="2.7659707069397">
			<ele>52</ele>
			<time>2013-12-29T15:16:50Z</time>
		</trkpt>
		<trkpt lat="39.5612907409668" lon="2.76602244377136">
			<ele>52.0999984741211</ele>
			<time>2013-12-29T15:16:51Z</time>
		</trkpt>
		<trkpt lat="39.5612602233887" lon="2.76607751846313">
			<ele>52.4000015258789</ele>
			<time>2013-12-29T15:16:52Z</time>
		</trkpt>
		<trkpt lat="39.5612297058105" lon="2.76613211631775">
			<ele>52.4000015258789</ele>
			<time>2013-12-29T15:16:53Z</time>
		</trkpt>
		<trkpt lat="39.5612030029297" lon="2.76618409156799">
			<ele>52.4000015258789</ele>
			<time>2013-12-29T15:16:54Z</time>
		</trkpt>
		<trkpt lat="39.5611686706543" lon="2.76623320579529">
			<ele>52.4000015258789</ele>
			<time>2013-12-29T15:16:55Z</time>
		</trkpt>
		<trkpt lat="39.5611381530762" lon="2.76628541946411">
			<ele>52.2999992370605</ele>
			<time>2013-12-29T15:16:56Z</time>
		</trkpt>
		<trkpt lat="39.561107635498" lon="2.76633858680725">
			<ele>52.2999992370605</ele>
			<time>2013-12-29T15:16:57Z</time>
		</trkpt>
		<trkpt lat="39.5610771179199" lon="2.7663938999176">
			<ele>52.4000015258789</ele>
			<time>2013-12-29T15:16:58Z</time>
		</trkpt>
		<trkpt lat="39.5610504150391" lon="2.76644420623779">
			<ele>52.4000015258789</ele>
			<time>2013-12-29T15:16:59Z</time>
		</trkpt>
		<trkpt lat="39.5610160827637" lon="2.76649689674377">
			<ele>52.2999992370605</ele>
			<time>2013-12-29T15:17:00Z</time>
		</trkpt>
		<trkpt lat="39.5609855651855" lon="2.76655030250549">
			<ele>52.2000007629395</ele>
			<time>2013-12-29T15:17:01Z</time>
		</trkpt>
		<trkpt lat="39.5609550476074" lon="2.76660227775574">
			<ele>52.5</ele>
			<time>2013-12-29T15:17:02Z</time>
		</trkpt>
		<trkpt lat="39.5609283447266" lon="2.76666307449341">
			<ele>52.7000007629395</ele>
			<time>2013-12-29T15:17:03Z</time>
		</trkpt>
		<trkpt lat="39.5608978271484" lon="2.76671671867371">
			<ele>52.7000007629395</ele>
			<time>2013-12-29T15:17:04Z</time>
		</trkpt>
		<trkpt lat="39.560863494873" lon="2.76676416397095">
			<ele>53</ele>
			<time>2013-12-29T15:17:05Z</time>
		</trkpt>
		<trkpt lat="39.5608329772949" lon="2.76681327819824">
			<ele>53.0999984741211</ele>
			<time>2013-12-29T15:17:06Z</time>
		</trkpt>
		<trkpt lat="39.5608024597168" lon="2.76686978340149">
			<ele>52.9000015258789</ele>
			<time>2013-12-29T15:17:07Z</time>
		</trkpt>
		<trkpt lat="39.5607719421387" lon="2.76692605018616">
			<ele>52.7999992370605</ele>
			<time>2013-12-29T15:17:08Z</time>
		</trkpt>
		<trkpt lat="39.5607452392578" lon="2.76697635650635">
			<ele>52.7000007629395</ele>
			<time>2013-12-29T15:17:09Z</time>
		</trkpt>
		<trkpt lat="39.5607109069824" lon="2.76703119277954">
			<ele>52.7000007629395</ele>
			<time>2013-12-29T15:17:10Z</time>
		</trkpt>
		<trkpt lat="39.5606842041016" lon="2.76708436012268">
			<ele>52.5</ele>
			<time>2013-12-29T15:17:11Z</time>
		</trkpt>
		<trkpt lat="39.5606575012207" lon="2.7671332359314">
			<ele>52.4000015258789</ele>
			<time>2013-12-29T15:17:12Z</time>
		</trkpt>
		<trkpt lat="39.5606269836426" lon="2.76718473434448">
			<ele>52.2999992370605</ele>
			<time>2013-12-29T15:17:13Z</time>
		</trkpt>
		<trkpt lat="39.5605964660645" lon="2.76723694801331">
			<ele>52.2999992370605</ele>
			<time>2013-12-29T15:17:14Z</time>
		</trkpt>
		<trkpt lat="39.5605659484863" lon="2.76728582382202">
			<ele>52.2999992370605</ele>
			<time>2013-12-29T15:17:15Z</time>
		</trkpt>
		<trkpt lat="39.5605354309082" lon="2.76733756065369">
			<ele>52.4000015258789</ele>
			<time>2013-12-29T15:17:16Z</time>
		</trkpt>
		<trkpt lat="39.5605049133301" lon="2.76739072799683">
			<ele>52.2000007629395</ele>
			<time>2013-12-29T15:17:17Z</time>
		</trkpt>
		<trkpt lat="39.560474395752" lon="2.76744484901428">
			<ele>52.2000007629395</ele>
			<time>2013-12-29T15:17:18Z</time>
		</trkpt>
		<trkpt lat="39.5604476928711" lon="2.76749682426453">
			<ele>52.0999984741211</ele>
			<time>2013-12-29T15:17:19Z</time>
		</trkpt>
		<trkpt lat="39.560417175293" lon="2.76754879951477">
			<ele>52.0999984741211</ele>
			<time>2013-12-29T15:17:20Z</time>
		</trkpt>
		<trkpt lat="39.5603866577148" lon="2.76760029792786">
			<ele>52</ele>
			<time>2013-12-29T15:17:21Z</time>
		</trkpt>
		<trkpt lat="39.5603523254395" lon="2.76765108108521">
			<ele>52.0999984741211</ele>
			<time>2013-12-29T15:17:22Z</time>
		</trkpt>
		<trkpt lat="39.5603179931641" lon="2.76770448684692">
			<ele>52.2999992370605</ele>
			<time>2013-12-29T15:17:23Z</time>
		</trkpt>
		<trkpt lat="39.5602912902832" lon="2.76776361465454">
			<ele>52.5999984741211</ele>
			<time>2013-12-29T15:17:24Z</time>
		</trkpt>
		<trkpt lat="39.5602607727051" lon="2.76781916618347">
			<ele>52.7999992370605</ele>
			<time>2013-12-29T15:17:25Z</time>
		</trkpt>
		<trkpt lat="39.560230255127" lon="2.76787304878235">
			<ele>52.9000015258789</ele>
			<time>2013-12-29T15:17:26Z</time>
		</trkpt>
		<trkpt lat="39.5601997375488" lon="2.76792693138123">
			<ele>52.9000015258789</ele>
			<time>2013-12-29T15:17:27Z</time>
		</trkpt>
		<trkpt lat="39.5601692199707" lon="2.76798105239868">
			<ele>52.9000015258789</ele>
			<time>2013-12-29T15:17:28Z</time>
		</trkpt>
		<trkpt lat="39.5601387023926" lon="2.76803803443909">
			<ele>53</ele>
			<time>2013-12-29T15:17:29Z</time>
		</trkpt>
		<trkpt lat="39.5601119995117" lon="2.76809453964233">
			<ele>52.9000015258789</ele>
			<time>2013-12-29T15:17:30Z</time>
		</trkpt>
		<trkpt lat="39.5600814819336" lon="2.76814937591553">
			<ele>52.9000015258789</ele>
			<time>2013-12-29T15:17:31Z</time>
		</trkpt>
		<trkpt lat="39.5600509643555" lon="2.76820373535156">
			<ele>53.0999984741211</ele>
			<time>2013-12-29T15:17:32Z</time>
		</trkpt>
		<trkpt lat="39.5600166320801" lon="2.76825714111328">
			<ele>53.2999992370605</ele>
			<time>2013-12-29T15:17:33Z</time>
		</trkpt>
		<trkpt lat="39.559986114502" lon="2.7683117389679">
			<ele>53.2000007629395</ele>
			<time>2013-12-29T15:17:34Z</time>
		</trkpt>
		<trkpt lat="39.5599517822266" lon="2.76836609840393">
			<ele>53.5</ele>
			<time>2013-12-29T15:17:35Z</time>
		</trkpt>
		<trkpt lat="39.5599212646484" lon="2.76841926574707">
			<ele>53.5999984741211</ele>
			<time>2013-12-29T15:17:36Z</time>
		</trkpt>
		<trkpt lat="39.5598907470703" lon="2.76847290992737">
			<ele>53.9000015258789</ele>
			<time>2013-12-29T15:17:37Z</time>
		</trkpt>
		<trkpt lat="39.5598564147949" lon="2.7685239315033">
			<ele>53.9000015258789</ele>
			<time>2013-12-29T15:17:38Z</time>
		</trkpt>
		<trkpt lat="39.5598258972168" lon="2.76857805252075">
			<ele>53.9000015258789</ele>
			<time>2013-12-29T15:17:39Z</time>
		</trkpt>
		<trkpt lat="39.5597953796387" lon="2.76863145828247">
			<ele>54</ele>
			<time>2013-12-29T15:17:40Z</time>
		</trkpt>
		<trkpt lat="39.5597648620605" lon="2.76868653297424">
			<ele>54</ele>
			<time>2013-12-29T15:17:41Z</time>
		</trkpt>
		<trkpt lat="39.5597343444824" lon="2.76873993873596">
			<ele>54.2000007629395</ele>
			<time>2013-12-29T15:17:42Z</time>
		</trkpt>
		<trkpt lat="39.5597038269043" lon="2.76879501342773">
			<ele>54.2000007629395</ele>
			<time>2013-12-29T15:17:43Z</time>
		</trkpt>
		<trkpt lat="39.5596694946289" lon="2.76884913444519">
			<ele>54.2999992370605</ele>
			<time>2013-12-29T15:17:44Z</time>
		</trkpt>
		<trkpt lat="39.559642791748" lon="2.76890420913696">
			<ele>54.4000015258789</ele>
			<time>2013-12-29T15:17:45Z</time>
		</trkpt>
		<trkpt lat="39.5596122741699" lon="2.76895666122437">
			<ele>54.4000015258789</ele>
			<time>2013-12-29T15:17:46Z</time>
		</trkpt>
		<trkpt lat="39.5595855712891" lon="2.76900792121887">
			<ele>54.4000015258789</ele>
			<time>2013-12-29T15:17:47Z</time>
		</trkpt>
		<trkpt lat="39.5595550537109" lon="2.76906085014343">
			<ele>54.5</ele>
			<time>2013-12-29T15:17:48Z</time>
		</trkpt>
		<trkpt lat="39.5595245361328" lon="2.76911306381226">
			<ele>54.7999992370605</ele>
			<time>2013-12-29T15:17:49Z</time>
		</trkpt>
		<trkpt lat="39.5594940185547" lon="2.7691638469696">
			<ele>54.5</ele>
			<time>2013-12-29T15:17:50Z</time>
		</trkpt>
		<trkpt lat="39.5594635009766" lon="2.76921319961548">
			<ele>54.7000007629395</ele>
			<time>2013-12-29T15:17:51Z</time>
		</trkpt>
		<trkpt lat="39.5594367980957" lon="2.76926183700562">
			<ele>54.5999984741211</ele>
			<time>2013-12-29T15:17:52Z</time>
		</trkpt>
		<trkpt lat="39.5594062805176" lon="2.76931166648865">
			<ele>54.7999992370605</ele>
			<time>2013-12-29T15:17:53Z</time>
		</trkpt>
		<trkpt lat="39.5593795776367" lon="2.76936006546021">
			<ele>54.7999992370605</ele>
			<time>2013-12-29T15:17:54Z</time>
		</trkpt>
		<trkpt lat="39.5593185424805" lon="2.76944327354431">
			<ele>54.7999992370605</ele>
			<time>2013-12-29T15:17:56Z</time>
		</trkpt>
		<trkpt lat="39.5592422485352" lon="2.76948499679565">
			<ele>54.7000007629395</ele>
			<time>2013-12-29T15:17:58Z</time>
		</trkpt>
		<trkpt lat="39.5591659545898" lon="2.76951432228088">
			<ele>54.7999992370605</ele>
			<time>2013-12-29T15:18:00Z</time>
		</trkpt>
		<trkpt lat="39.5591011047363" lon="2.76956033706665">
			<ele>55.0999984741211</ele>
			<time>2013-12-29T15:18:02Z</time>
		</trkpt>
		<trkpt lat="39.5590476989746" lon="2.76963639259338">
			<ele>55.0999984741211</ele>
			<time>2013-12-29T15:18:04Z</time>
		</trkpt>
		<trkpt lat="39.5590286254883" lon="2.7697319984436">
			<ele>55</ele>
			<time>2013-12-29T15:18:06Z</time>
		</trkpt>
		<trkpt lat="39.559024810791" lon="2.76983284950256">
			<ele>53.5999984741211</ele>
			<time>2013-12-29T15:18:08Z</time>
		</trkpt>
		<trkpt lat="39.5590133666992" lon="2.76993608474731">
			<ele>52.7000007629395</ele>
			<time>2013-12-29T15:18:10Z</time>
		</trkpt>
		<trkpt lat="39.5589981079102" lon="2.76999235153198">
			<ele>52.5999984741211</ele>
			<time>2013-12-29T15:18:11Z</time>
		</trkpt>
		<trkpt lat="39.5589752197266" lon="2.77004671096802">
			<ele>52.2999992370605</ele>
			<time>2013-12-29T15:18:12Z</time>
		</trkpt>
		<trkpt lat="39.5589485168457" lon="2.770099401474">
			<ele>52.2999992370605</ele>
			<time>2013-12-29T15:18:13Z</time>
		</trkpt>
		<trkpt lat="39.5589179992676" lon="2.77014708518982">
			<ele>52.2000007629395</ele>
			<time>2013-12-29T15:18:14Z</time>
		</trkpt>
		<trkpt lat="39.5588836669922" lon="2.77019667625427">
			<ele>52.2999992370605</ele>
			<time>2013-12-29T15:18:15Z</time>
		</trkpt>
		<trkpt lat="39.5588531494141" lon="2.77024722099304">
			<ele>52.2999992370605</ele>
			<time>2013-12-29T15:18:16Z</time>
		</trkpt>
		<trkpt lat="39.5588226318359" lon="2.77030038833618">
			<ele>52.2000007629395</ele>
			<time>2013-12-29T15:18:17Z</time>
		</trkpt>
		<trkpt lat="39.5587921142578" lon="2.77035403251648">
			<ele>52</ele>
			<time>2013-12-29T15:18:18Z</time>
		</trkpt>
		<trkpt lat="39.5587577819824" lon="2.77040719985962">
			<ele>52.2000007629395</ele>
			<time>2013-12-29T15:18:19Z</time>
		</trkpt>
		<trkpt lat="39.5587272644043" lon="2.77045917510986">
			<ele>52.0999984741211</ele>
			<time>2013-12-29T15:18:20Z</time>
		</trkpt>
		<trkpt lat="39.5586967468262" lon="2.770512342453">
			<ele>52.2999992370605</ele>
			<time>2013-12-29T15:18:21Z</time>
		</trkpt>
		<trkpt lat="39.558666229248" lon="2.77056503295898">
			<ele>52.2999992370605</ele>
			<time>2013-12-29T15:18:22Z</time>
		</trkpt>
		<trkpt lat="39.5586357116699" lon="2.7706139087677">
			<ele>52.4000015258789</ele>
			<time>2013-12-29T15:18:23Z</time>
		</trkpt>
		<trkpt lat="39.5585975646973" lon="2.77066278457642">
			<ele>52.5999984741211</ele>
			<time>2013-12-29T15:18:24Z</time>
		</trkpt>
		<trkpt lat="39.5585670471191" lon="2.77071094512939">
			<ele>52.5999984741211</ele>
			<time>2013-12-29T15:18:25Z</time>
		</trkpt>
		<trkpt lat="39.5585327148438" lon="2.77075576782227">
			<ele>52.7000007629395</ele>
			<time>2013-12-29T15:18:26Z</time>
		</trkpt>
		<trkpt lat="39.5585021972656" lon="2.77080368995667">
			<ele>52.7999992370605</ele>
			<time>2013-12-29T15:18:27Z</time>
		</trkpt>
		<trkpt lat="39.5584754943848" lon="2.77085280418396">
			<ele>52.9000015258789</ele>
			<time>2013-12-29T15:18:28Z</time>
		</trkpt>
		<trkpt lat="39.5584487915039" lon="2.77090120315552">
			<ele>53</ele>
			<time>2013-12-29T15:18:29Z</time>
		</trkpt>
		<trkpt lat="39.5584182739258" lon="2.77094912528992">
			<ele>52.7999992370605</ele>
			<time>2013-12-29T15:18:30Z</time>
		</trkpt>
		<trkpt lat="39.5583648681641" lon="2.77103567123413">
			<ele>53</ele>
			<time>2013-12-29T15:18:32Z</time>
		</trkpt>
		<trkpt lat="39.5583114624023" lon="2.77112364768982">
			<ele>53.2000007629395</ele>
			<time>2013-12-29T15:18:34Z</time>
		</trkpt>
		<trkpt lat="39.5582618713379" lon="2.77120113372803">
			<ele>53.2999992370605</ele>
			<time>2013-12-29T15:18:36Z</time>
		</trkpt>
		<trkpt lat="39.5582122802734" lon="2.77127766609192">
			<ele>53.4000015258789</ele>
			<time>2013-12-29T15:18:38Z</time>
		</trkpt>
		<trkpt lat="39.5581741333008" lon="2.77135038375854">
			<ele>53.2999992370605</ele>
			<time>2013-12-29T15:18:40Z</time>
		</trkpt>
		<trkpt lat="39.5581321716309" lon="2.77141833305359">
			<ele>53.4000015258789</ele>
			<time>2013-12-29T15:18:42Z</time>
		</trkpt>
		<trkpt lat="39.5580863952637" lon="2.77149343490601">
			<ele>53.5</ele>
			<time>2013-12-29T15:18:44Z</time>
		</trkpt>
		<trkpt lat="39.5580406188965" lon="2.77158212661743">
			<ele>53.5999984741211</ele>
			<time>2013-12-29T15:18:46Z</time>
		</trkpt>
		<trkpt lat="39.5579986572266" lon="2.77167844772339">
			<ele>53.4000015258789</ele>
			<time>2013-12-29T15:18:48Z</time>
		</trkpt>
		<trkpt lat="39.5579490661621" lon="2.77177262306213">
			<ele>53.0999984741211</ele>
			<time>2013-12-29T15:18:50Z</time>
		</trkpt>
		<trkpt lat="39.5579223632813" lon="2.77182078361511">
			<ele>53.2000007629395</ele>
			<time>2013-12-29T15:18:51Z</time>
		</trkpt>
		<trkpt lat="39.5578956604004" lon="2.77186965942383">
			<ele>53.0999984741211</ele>
			<time>2013-12-29T15:18:52Z</time>
		</trkpt>
		<trkpt lat="39.5578689575195" lon="2.77192401885986">
			<ele>53.4000015258789</ele>
			<time>2013-12-29T15:18:53Z</time>
		</trkpt>
		<trkpt lat="39.5578460693359" lon="2.77197790145874">
			<ele>53.2999992370605</ele>
			<time>2013-12-29T15:18:54Z</time>
		</trkpt>
		<trkpt lat="39.5578231811523" lon="2.77203178405762">
			<ele>53.0999984741211</ele>
			<time>2013-12-29T15:18:55Z</time>
		</trkpt>
		<trkpt lat="39.5577964782715" lon="2.77208638191223">
			<ele>53.0999984741211</ele>
			<time>2013-12-29T15:18:56Z</time>
		</trkpt>
		<trkpt lat="39.5577697753906" lon="2.77214121818542">
			<ele>52.9000015258789</ele>
			<time>2013-12-29T15:18:57Z</time>
		</trkpt>
		<trkpt lat="39.5577430725098" lon="2.77219223976135">
			<ele>52.9000015258789</ele>
			<time>2013-12-29T15:18:58Z</time>
		</trkpt>
		<trkpt lat="39.5577125549316" lon="2.77224588394165">
			<ele>52.9000015258789</ele>
			<time>2013-12-29T15:18:59Z</time>
		</trkpt>
		<trkpt lat="39.5576820373535" lon="2.77230000495911">
			<ele>52.9000015258789</ele>
			<time>2013-12-29T15:19:00Z</time>
		</trkpt>
		<trkpt lat="39.5576553344727" lon="2.77235293388367">
			<ele>52.7999992370605</ele>
			<time>2013-12-29T15:19:01Z</time>
		</trkpt>
		<trkpt lat="39.5576248168945" lon="2.77240347862244">
			<ele>52.7000007629395</ele>
			<time>2013-12-29T15:19:02Z</time>
		</trkpt>
		<trkpt lat="39.5575981140137" lon="2.77245616912842">
			<ele>52.5999984741211</ele>
			<time>2013-12-29T15:19:03Z</time>
		</trkpt>
		<trkpt lat="39.5575675964355" lon="2.77250504493713">
			<ele>52.7000007629395</ele>
			<time>2013-12-29T15:19:04Z</time>
		</trkpt>
		<trkpt lat="39.557544708252" lon="2.77255463600159">
			<ele>52.5999984741211</ele>
			<time>2013-12-29T15:19:05Z</time>
		</trkpt>
		<trkpt lat="39.5575180053711" lon="2.77260828018188">
			<ele>52.2999992370605</ele>
			<time>2013-12-29T15:19:06Z</time>
		</trkpt>
		<trkpt lat="39.5574722290039" lon="2.77270865440369">
			<ele>52.0999984741211</ele>
			<time>2013-12-29T15:19:08Z</time>
		</trkpt>
		<trkpt lat="39.557445526123" lon="2.77276229858398">
			<ele>51.9000015258789</ele>
			<time>2013-12-29T15:19:09Z</time>
		</trkpt>
		<trkpt lat="39.5574226379395" lon="2.77281546592712">
			<ele>51.7999992370605</ele>
			<time>2013-12-29T15:19:10Z</time>
		</trkpt>
		<trkpt lat="39.5573997497559" lon="2.77286672592163">
			<ele>51.5</ele>
			<time>2013-12-29T15:19:11Z</time>
		</trkpt>
		<trkpt lat="39.5573768615723" lon="2.77291989326477">
			<ele>51.2999992370605</ele>
			<time>2013-12-29T15:19:12Z</time>
		</trkpt>
		<trkpt lat="39.5573539733887" lon="2.77297234535217">
			<ele>51.2999992370605</ele>
			<time>2013-12-29T15:19:13Z</time>
		</trkpt>
		<trkpt lat="39.5573310852051" lon="2.77303099632263">
			<ele>51.0999984741211</ele>
			<time>2013-12-29T15:19:14Z</time>
		</trkpt>
		<trkpt lat="39.5573081970215" lon="2.77308750152588">
			<ele>50.7999992370605</ele>
			<time>2013-12-29T15:19:15Z</time>
		</trkpt>
		<trkpt lat="39.5572929382324" lon="2.77314424514771">
			<ele>50.2999992370605</ele>
			<time>2013-12-29T15:19:16Z</time>
		</trkpt>
		<trkpt lat="39.5572738647461" lon="2.77320265769958">
			<ele>50.0999984741211</ele>
			<time>2013-12-29T15:19:17Z</time>
		</trkpt>
		<trkpt lat="39.557258605957" lon="2.77326464653015">
			<ele>50</ele>
			<time>2013-12-29T15:19:18Z</time>
		</trkpt>
		<trkpt lat="39.5572395324707" lon="2.77332878112793">
			<ele>49.4000015258789</ele>
			<time>2013-12-29T15:19:19Z</time>
		</trkpt>
		<trkpt lat="39.5572204589844" lon="2.77339172363281">
			<ele>49.5999984741211</ele>
			<time>2013-12-29T15:19:20Z</time>
		</trkpt>
		<trkpt lat="39.5572052001953" lon="2.77345252037048">
			<ele>49.4000015258789</ele>
			<time>2013-12-29T15:19:21Z</time>
		</trkpt>
		<trkpt lat="39.557186126709" lon="2.77351474761963">
			<ele>49.4000015258789</ele>
			<time>2013-12-29T15:19:22Z</time>
		</trkpt>
		<trkpt lat="39.5571670532227" lon="2.77357888221741">
			<ele>49.4000015258789</ele>
			<time>2013-12-29T15:19:23Z</time>
		</trkpt>
		<trkpt lat="39.5571517944336" lon="2.77364277839661">
			<ele>49.5999984741211</ele>
			<time>2013-12-29T15:19:24Z</time>
		</trkpt>
		<trkpt lat="39.5571327209473" lon="2.77370476722717">
			<ele>49.5999984741211</ele>
			<time>2013-12-29T15:19:25Z</time>
		</trkpt>
		<trkpt lat="39.5571174621582" lon="2.77376818656921">
			<ele>49.5999984741211</ele>
			<time>2013-12-29T15:19:26Z</time>
		</trkpt>
		<trkpt lat="39.5570983886719" lon="2.77382826805115">
			<ele>49.7999992370605</ele>
			<time>2013-12-29T15:19:28Z</time>
		</trkpt>
		<trkpt lat="39.5570755004883" lon="2.77389168739319">
			<ele>49.9000015258789</ele>
			<time>2013-12-29T15:19:28Z</time>
		</trkpt>
		<trkpt lat="39.5570602416992" lon="2.77395486831665">
			<ele>50</ele>
			<time>2013-12-29T15:19:29Z</time>
		</trkpt>
		<trkpt lat="39.5570411682129" lon="2.77401971817017">
			<ele>50.2000007629395</ele>
			<time>2013-12-29T15:19:30Z</time>
		</trkpt>
		<trkpt lat="39.5570259094238" lon="2.77407932281494">
			<ele>50.2999992370605</ele>
			<time>2013-12-29T15:19:31Z</time>
		</trkpt>
		<trkpt lat="39.5570106506348" lon="2.77414035797119">
			<ele>50.7000007629395</ele>
			<time>2013-12-29T15:19:32Z</time>
		</trkpt>
		<trkpt lat="39.5569915771484" lon="2.7742006778717">
			<ele>50.5999984741211</ele>
			<time>2013-12-29T15:19:33Z</time>
		</trkpt>
		<trkpt lat="39.5569725036621" lon="2.774258852005">
			<ele>50.7000007629395</ele>
			<time>2013-12-29T15:19:34Z</time>
		</trkpt>
		<trkpt lat="39.5569534301758" lon="2.77431750297546">
			<ele>50.7000007629395</ele>
			<time>2013-12-29T15:19:35Z</time>
		</trkpt>
		<trkpt lat="39.5569305419922" lon="2.77437567710876">
			<ele>50.9000015258789</ele>
			<time>2013-12-29T15:19:36Z</time>
		</trkpt>
		<trkpt lat="39.5569076538086" lon="2.77443289756775">
			<ele>51.0999984741211</ele>
			<time>2013-12-29T15:19:37Z</time>
		</trkpt>
		<trkpt lat="39.556884765625" lon="2.77448916435242">
			<ele>51.2000007629395</ele>
			<time>2013-12-29T15:19:38Z</time>
		</trkpt>
		<trkpt lat="39.5568542480469" lon="2.77453947067261">
			<ele>51.0999984741211</ele>
			<time>2013-12-29T15:19:39Z</time>
		</trkpt>
		<trkpt lat="39.5568237304688" lon="2.77458691596985">
			<ele>51</ele>
			<time>2013-12-29T15:19:40Z</time>
		</trkpt>
		<trkpt lat="39.5567932128906" lon="2.77463316917419">
			<ele>51.2000007629395</ele>
			<time>2013-12-29T15:19:41Z</time>
		</trkpt>
		<trkpt lat="39.5567588806152" lon="2.77467942237854">
			<ele>51.2999992370605</ele>
			<time>2013-12-29T15:19:42Z</time>
		</trkpt>
		<trkpt lat="39.5567245483398" lon="2.77472305297852">
			<ele>51.4000015258789</ele>
			<time>2013-12-29T15:19:43Z</time>
		</trkpt>
		<trkpt lat="39.5566940307617" lon="2.77476930618286">
			<ele>51.4000015258789</ele>
			<time>2013-12-29T15:19:44Z</time>
		</trkpt>
		<trkpt lat="39.5566558837891" lon="2.77480816841125">
			<ele>51.5999984741211</ele>
			<time>2013-12-29T15:19:45Z</time>
		</trkpt>
		<trkpt lat="39.5566215515137" lon="2.77485108375549">
			<ele>51.7999992370605</ele>
			<time>2013-12-29T15:19:46Z</time>
		</trkpt>
		<trkpt lat="39.5565872192383" lon="2.77489590644836">
			<ele>51.7000007629395</ele>
			<time>2013-12-29T15:19:47Z</time>
		</trkpt>
		<trkpt lat="39.5565567016602" lon="2.77494525909424">
			<ele>51.9000015258789</ele>
			<time>2013-12-29T15:19:48Z</time>
		</trkpt>
		<trkpt lat="39.556526184082" lon="2.77499461174011">
			<ele>51.7000007629395</ele>
			<time>2013-12-29T15:19:49Z</time>
		</trkpt>
		<trkpt lat="39.5564918518066" lon="2.77504181861877">
			<ele>51.7999992370605</ele>
			<time>2013-12-29T15:19:50Z</time>
		</trkpt>
		<trkpt lat="39.5564575195313" lon="2.77509355545044">
			<ele>52.0999984741211</ele>
			<time>2013-12-29T15:19:51Z</time>
		</trkpt>
		<trkpt lat="39.5564231872559" lon="2.77513766288757">
			<ele>52.5999984741211</ele>
			<time>2013-12-29T15:19:52Z</time>
		</trkpt>
		<trkpt lat="39.5563926696777" lon="2.77518510818481">
			<ele>52.9000015258789</ele>
			<time>2013-12-29T15:19:53Z</time>
		</trkpt>
		<trkpt lat="39.5563583374023" lon="2.77522468566895">
			<ele>53.0999984741211</ele>
			<time>2013-12-29T15:19:54Z</time>
		</trkpt>
		<trkpt lat="39.5563201904297" lon="2.77526521682739">
			<ele>53.2999992370605</ele>
			<time>2013-12-29T15:19:55Z</time>
		</trkpt>
		<trkpt lat="39.5562705993652" lon="2.77535247802734">
			<ele>53.5999984741211</ele>
			<time>2013-12-29T15:19:57Z</time>
		</trkpt>
		<trkpt lat="39.5562210083008" lon="2.77542948722839">
			<ele>53.4000015258789</ele>
			<time>2013-12-29T15:19:59Z</time>
		</trkpt>
		<trkpt lat="39.5561676025391" lon="2.7754967212677">
			<ele>53.2999992370605</ele>
			<time>2013-12-29T15:20:01Z</time>
		</trkpt>
		<trkpt lat="39.5561180114746" lon="2.77556467056274">
			<ele>54.5999984741211</ele>
			<time>2013-12-29T15:20:03Z</time>
		</trkpt>
		<trkpt lat="39.5560607910156" lon="2.77562546730042">
			<ele>56.2999992370605</ele>
			<time>2013-12-29T15:20:05Z</time>
		</trkpt>
		<trkpt lat="39.5560150146484" lon="2.77567410469055">
			<ele>57.2999992370605</ele>
			<time>2013-12-29T15:20:07Z</time>
		</trkpt>
		<trkpt lat="39.5559692382813" lon="2.77572321891785">
			<ele>57.5999984741211</ele>
			<time>2013-12-29T15:20:09Z</time>
		</trkpt>
		<trkpt lat="39.5559272766113" lon="2.77577948570251">
			<ele>58.0999984741211</ele>
			<time>2013-12-29T15:20:11Z</time>
		</trkpt>
		<trkpt lat="39.5558853149414" lon="2.77582812309265">
			<ele>59</ele>
			<time>2013-12-29T15:20:13Z</time>
		</trkpt>
		<trkpt lat="39.555850982666" lon="2.77587199211121">
			<ele>59.4000015258789</ele>
			<time>2013-12-29T15:20:15Z</time>
		</trkpt>
		<trkpt lat="39.5558052062988" lon="2.77591133117676">
			<ele>60.2000007629395</ele>
			<time>2013-12-29T15:20:17Z</time>
		</trkpt>
		<trkpt lat="39.555736541748" lon="2.77589797973633">
			<ele>58.4000015258789</ele>
			<time>2013-12-29T15:20:20Z</time>
		</trkpt>
		<trkpt lat="39.5556793212891" lon="2.77588415145874">
			<ele>57.0999984741211</ele>
			<time>2013-12-29T15:20:22Z</time>
		</trkpt>
		<trkpt lat="39.5555992126465" lon="2.775883436203">
			<ele>57</ele>
			<time>2013-12-29T15:20:24Z</time>
		</trkpt>
		<trkpt lat="39.5555152893066" lon="2.77587509155273">
			<ele>56.4000015258789</ele>
			<time>2013-12-29T15:20:26Z</time>
		</trkpt>
		<trkpt lat="39.5554695129395" lon="2.77587223052979">
			<ele>56</ele>
			<time>2013-12-29T15:20:27Z</time>
		</trkpt>
		<trkpt lat="39.5554237365723" lon="2.77587199211121">
			<ele>55.9000015258789</ele>
			<time>2013-12-29T15:20:28Z</time>
		</trkpt>
		<trkpt lat="39.5553359985352" lon="2.77587103843689">
			<ele>55.4000015258789</ele>
			<time>2013-12-29T15:20:30Z</time>
		</trkpt>
		<trkpt lat="39.555290222168" lon="2.77587509155273">
			<ele>55.4000015258789</ele>
			<time>2013-12-29T15:20:31Z</time>
		</trkpt>
		<trkpt lat="39.5552444458008" lon="2.77586936950684">
			<ele>55.0999984741211</ele>
			<time>2013-12-29T15:20:32Z</time>
		</trkpt>
		<trkpt lat="39.5551986694336" lon="2.77586722373962">
			<ele>54.7000007629395</ele>
			<time>2013-12-29T15:20:33Z</time>
		</trkpt>
		<trkpt lat="39.5551490783691" lon="2.77586150169373">
			<ele>54.5</ele>
			<time>2013-12-29T15:20:34Z</time>
		</trkpt>
		<trkpt lat="39.5550994873047" lon="2.77585482597351">
			<ele>54.4000015258789</ele>
			<time>2013-12-29T15:20:35Z</time>
		</trkpt>
		<trkpt lat="39.5550498962402" lon="2.77585172653198">
			<ele>53.9000015258789</ele>
			<time>2013-12-29T15:20:36Z</time>
		</trkpt>
		<trkpt lat="39.5550003051758" lon="2.77584528923035">
			<ele>53.7999992370605</ele>
			<time>2013-12-29T15:20:37Z</time>
		</trkpt>
		<trkpt lat="39.5549468994141" lon="2.77583837509155">
			<ele>54</ele>
			<time>2013-12-29T15:20:38Z</time>
		</trkpt>
		<trkpt lat="39.5548973083496" lon="2.7758367061615">
			<ele>53.7999992370605</ele>
			<time>2013-12-29T15:20:39Z</time>
		</trkpt>
		<trkpt lat="39.5548515319824" lon="2.7758355140686">
			<ele>53.7999992370605</ele>
			<time>2013-12-29T15:20:40Z</time>
		</trkpt>
		<trkpt lat="39.5548057556152" lon="2.7758321762085">
			<ele>53.5999984741211</ele>
			<time>2013-12-29T15:20:41Z</time>
		</trkpt>
		<trkpt lat="39.5547523498535" lon="2.77583122253418">
			<ele>53.2999992370605</ele>
			<time>2013-12-29T15:20:42Z</time>
		</trkpt>
		<trkpt lat="39.5547065734863" lon="2.77582812309265">
			<ele>52.9000015258789</ele>
			<time>2013-12-29T15:20:43Z</time>
		</trkpt>
		<trkpt lat="39.5546607971191" lon="2.7758264541626">
			<ele>52.7000007629395</ele>
			<time>2013-12-29T15:20:44Z</time>
		</trkpt>
		<trkpt lat="39.554615020752" lon="2.77583575248718">
			<ele>52.7000007629395</ele>
			<time>2013-12-29T15:20:45Z</time>
		</trkpt>
		<trkpt lat="39.5545654296875" lon="2.77583789825439">
			<ele>52.7999992370605</ele>
			<time>2013-12-29T15:20:46Z</time>
		</trkpt>
		<trkpt lat="39.5545234680176" lon="2.77585291862488">
			<ele>52.5999984741211</ele>
			<time>2013-12-29T15:20:47Z</time>
		</trkpt>
		<trkpt lat="39.5544738769531" lon="2.77586269378662">
			<ele>52.7000007629395</ele>
			<time>2013-12-29T15:20:48Z</time>
		</trkpt>
		<trkpt lat="39.5544281005859" lon="2.77588033676147">
			<ele>52.7000007629395</ele>
			<time>2013-12-29T15:20:49Z</time>
		</trkpt>
		<trkpt lat="39.5543785095215" lon="2.77588963508606">
			<ele>52.5999984741211</ele>
			<time>2013-12-29T15:20:50Z</time>
		</trkpt>
		<trkpt lat="39.554328918457" lon="2.77589583396912">
			<ele>52.7999992370605</ele>
			<time>2013-12-29T15:20:51Z</time>
		</trkpt>
		<trkpt lat="39.5542869567871" lon="2.77591061592102">
			<ele>52.7999992370605</ele>
			<time>2013-12-29T15:20:52Z</time>
		</trkpt>
		<trkpt lat="39.5542068481445" lon="2.7759382724762">
			<ele>53.4000015258789</ele>
			<time>2013-12-29T15:20:54Z</time>
		</trkpt>
		<trkpt lat="39.5541229248047" lon="2.77595710754395">
			<ele>53.7999992370605</ele>
			<time>2013-12-29T15:20:56Z</time>
		</trkpt>
		<trkpt lat="39.5540390014648" lon="2.77597975730896">
			<ele>54.4000015258789</ele>
			<time>2013-12-29T15:20:58Z</time>
		</trkpt>
		<trkpt lat="39.553955078125" lon="2.77600431442261">
			<ele>54.7000007629395</ele>
			<time>2013-12-29T15:21:00Z</time>
		</trkpt>
		<trkpt lat="39.5538749694824" lon="2.77603149414063">
			<ele>55.0999984741211</ele>
			<time>2013-12-29T15:21:02Z</time>
		</trkpt>
		<trkpt lat="39.5537986755371" lon="2.77605128288269">
			<ele>55</ele>
			<time>2013-12-29T15:21:04Z</time>
		</trkpt>
		<trkpt lat="39.5537300109863" lon="2.77606892585754">
			<ele>54.5999984741211</ele>
			<time>2013-12-29T15:21:06Z</time>
		</trkpt>
		<trkpt lat="39.5536575317383" lon="2.77609276771545">
			<ele>55</ele>
			<time>2013-12-29T15:21:08Z</time>
		</trkpt>
		<trkpt lat="39.5536003112793" lon="2.7761242389679">
			<ele>55</ele>
			<time>2013-12-29T15:21:10Z</time>
		</trkpt>
		<trkpt lat="39.5535354614258" lon="2.77614760398865">
			<ele>55.4000015258789</ele>
			<time>2013-12-29T15:21:12Z</time>
		</trkpt>
		<trkpt lat="39.5534706115723" lon="2.77617430686951">
			<ele>56</ele>
			<time>2013-12-29T15:21:14Z</time>
		</trkpt>
		<trkpt lat="39.5534133911133" lon="2.7761766910553">
			<ele>56.5999984741211</ele>
			<time>2013-12-29T15:21:16Z</time>
		</trkpt>
		<trkpt lat="39.5533676147461" lon="2.77611351013184">
			<ele>56.0999984741211</ele>
			<time>2013-12-29T15:21:18Z</time>
		</trkpt>
		<trkpt lat="39.5533866882324" lon="2.77605032920837">
			<ele>55.2000007629395</ele>
			<time>2013-12-29T15:21:19Z</time>
		</trkpt>
		<trkpt lat="39.553394317627" lon="2.77599263191223">
			<ele>54.7999992370605</ele>
			<time>2013-12-29T15:21:20Z</time>
		</trkpt>
		<trkpt lat="39.5534019470215" lon="2.77593517303467">
			<ele>54.5999984741211</ele>
			<time>2013-12-29T15:21:21Z</time>
		</trkpt>
		<trkpt lat="39.553409576416" lon="2.77587223052979">
			<ele>54.4000015258789</ele>
			<time>2013-12-29T15:21:22Z</time>
		</trkpt>
		<trkpt lat="39.5534172058105" lon="2.7758092880249">
			<ele>53.9000015258789</ele>
			<time>2013-12-29T15:21:23Z</time>
		</trkpt>
		<trkpt lat="39.5534324645996" lon="2.77574324607849">
			<ele>53.5999984741211</ele>
			<time>2013-12-29T15:21:24Z</time>
		</trkpt>
		<trkpt lat="39.5534439086914" lon="2.77567481994629">
			<ele>53.4000015258789</ele>
			<time>2013-12-29T15:21:25Z</time>
		</trkpt>
		<trkpt lat="39.5534515380859" lon="2.77560496330261">
			<ele>53.2000007629395</ele>
			<time>2013-12-29T15:21:26Z</time>
		</trkpt>
		<trkpt lat="39.5534591674805" lon="2.77553963661194">
			<ele>53</ele>
			<time>2013-12-29T15:21:27Z</time>
		</trkpt>
		<trkpt lat="39.5534706115723" lon="2.77547407150269">
			<ele>52.4000015258789</ele>
			<time>2013-12-29T15:21:28Z</time>
		</trkpt>
		<trkpt lat="39.5534820556641" lon="2.77540493011475">
			<ele>52.4000015258789</ele>
			<time>2013-12-29T15:21:29Z</time>
		</trkpt>
		<trkpt lat="39.5534896850586" lon="2.77533912658691">
			<ele>52.4000015258789</ele>
			<time>2013-12-29T15:21:30Z</time>
		</trkpt>
		<trkpt lat="39.5535011291504" lon="2.77527236938477">
			<ele>52.4000015258789</ele>
			<time>2013-12-29T15:21:31Z</time>
		</trkpt>
		<trkpt lat="39.5535125732422" lon="2.7752091884613">
			<ele>52.2000007629395</ele>
			<time>2013-12-29T15:21:32Z</time>
		</trkpt>
		<trkpt lat="39.5535278320313" lon="2.77509522438049">
			<ele>52.2000007629395</ele>
			<time>2013-12-29T15:21:34Z</time>
		</trkpt>
		<trkpt lat="39.5535316467285" lon="2.7750346660614">
			<ele>52</ele>
			<time>2013-12-29T15:21:35Z</time>
		</trkpt>
		<trkpt lat="39.5535278320313" lon="2.77491402626038">
			<ele>51.7999992370605</ele>
			<time>2013-12-29T15:21:37Z</time>
		</trkpt>
		<trkpt lat="39.5535202026367" lon="2.77485537528992">
			<ele>52.0999984741211</ele>
			<time>2013-12-29T15:21:38Z</time>
		</trkpt>
		<trkpt lat="39.5535087585449" lon="2.77479386329651">
			<ele>52</ele>
			<time>2013-12-29T15:21:39Z</time>
		</trkpt>
		<trkpt lat="39.5534782409668" lon="2.77468585968018">
			<ele>53</ele>
			<time>2013-12-29T15:21:41Z</time>
		</trkpt>
		<trkpt lat="39.5534362792969" lon="2.7746524810791">
			<ele>52.5999984741211</ele>
			<time>2013-12-29T15:21:42Z</time>
		</trkpt>
		<trkpt lat="39.5533599853516" lon="2.77459025382996">
			<ele>52.0999984741211</ele>
			<time>2013-12-29T15:21:44Z</time>
		</trkpt>
		<trkpt lat="39.5533218383789" lon="2.77455592155457">
			<ele>51.9000015258789</ele>
			<time>2013-12-29T15:21:45Z</time>
		</trkpt>
		<trkpt lat="39.553279876709" lon="2.77452421188354">
			<ele>51.7999992370605</ele>
			<time>2013-12-29T15:21:46Z</time>
		</trkpt>
		<trkpt lat="39.5532035827637" lon="2.77445602416992">
			<ele>52.0999984741211</ele>
			<time>2013-12-29T15:21:48Z</time>
		</trkpt>
		<trkpt lat="39.5531692504883" lon="2.77442312240601">
			<ele>52.2000007629395</ele>
			<time>2013-12-29T15:21:49Z</time>
		</trkpt>
		<trkpt lat="39.5531272888184" lon="2.77438735961914">
			<ele>52.2000007629395</ele>
			<time>2013-12-29T15:21:50Z</time>
		</trkpt>
		<trkpt lat="39.553050994873" lon="2.77433109283447">
			<ele>52.4000015258789</ele>
			<time>2013-12-29T15:21:52Z</time>
		</trkpt>
		<trkpt lat="39.5530128479004" lon="2.77430558204651">
			<ele>52.2999992370605</ele>
			<time>2013-12-29T15:21:53Z</time>
		</trkpt>
		<trkpt lat="39.5529403686523" lon="2.77424955368042">
			<ele>52.0999984741211</ele>
			<time>2013-12-29T15:21:55Z</time>
		</trkpt>
		<trkpt lat="39.5528678894043" lon="2.77419185638428">
			<ele>52.5</ele>
			<time>2013-12-29T15:21:57Z</time>
		</trkpt>
		<trkpt lat="39.5527954101563" lon="2.77413177490234">
			<ele>52.4000015258789</ele>
			<time>2013-12-29T15:21:59Z</time>
		</trkpt>
		<trkpt lat="39.5527267456055" lon="2.7740752696991">
			<ele>52.7000007629395</ele>
			<time>2013-12-29T15:22:01Z</time>
		</trkpt>
		<trkpt lat="39.5526580810547" lon="2.77401900291443">
			<ele>52.7999992370605</ele>
			<time>2013-12-29T15:22:03Z</time>
		</trkpt>
		<trkpt lat="39.5525970458984" lon="2.77395963668823">
			<ele>53.2000007629395</ele>
			<time>2013-12-29T15:22:05Z</time>
		</trkpt>
		<trkpt lat="39.5525703430176" lon="2.77385854721069">
			<ele>52.5</ele>
			<time>2013-12-29T15:22:07Z</time>
		</trkpt>
		<trkpt lat="39.5525741577148" lon="2.77374696731567">
			<ele>51.5999984741211</ele>
			<time>2013-12-29T15:22:09Z</time>
		</trkpt>
		<trkpt lat="39.5525894165039" lon="2.77369022369385">
			<ele>51.5999984741211</ele>
			<time>2013-12-29T15:22:10Z</time>
		</trkpt>
		<trkpt lat="39.5526008605957" lon="2.77363204956055">
			<ele>51.5</ele>
			<time>2013-12-29T15:22:11Z</time>
		</trkpt>
		<trkpt lat="39.5526161193848" lon="2.773521900177">
			<ele>51.0999984741211</ele>
			<time>2013-12-29T15:22:13Z</time>
		</trkpt>
		<trkpt lat="39.552619934082" lon="2.77346205711365">
			<ele>51</ele>
			<time>2013-12-29T15:22:14Z</time>
		</trkpt>
		<trkpt lat="39.5526161193848" lon="2.77340030670166">
			<ele>50.7999992370605</ele>
			<time>2013-12-29T15:22:15Z</time>
		</trkpt>
		<trkpt lat="39.5526161193848" lon="2.77334213256836">
			<ele>50.5</ele>
			<time>2013-12-29T15:22:16Z</time>
		</trkpt>
		<trkpt lat="39.5526123046875" lon="2.77328276634216">
			<ele>50.5</ele>
			<time>2013-12-29T15:22:17Z</time>
		</trkpt>
		<trkpt lat="39.5525970458984" lon="2.77316856384277">
			<ele>50.2999992370605</ele>
			<time>2013-12-29T15:22:19Z</time>
		</trkpt>
		<trkpt lat="39.5525817871094" lon="2.77305841445923">
			<ele>50.2000007629395</ele>
			<time>2013-12-29T15:22:21Z</time>
		</trkpt>
		<trkpt lat="39.552562713623" lon="2.77295088768005">
			<ele>50.2000007629395</ele>
			<time>2013-12-29T15:22:23Z</time>
		</trkpt>
		<trkpt lat="39.5525360107422" lon="2.77284741401672">
			<ele>50.4000015258789</ele>
			<time>2013-12-29T15:22:25Z</time>
		</trkpt>
		<trkpt lat="39.5525016784668" lon="2.77275133132935">
			<ele>50.2999992370605</ele>
			<time>2013-12-29T15:22:27Z</time>
		</trkpt>
		<trkpt lat="39.5524520874023" lon="2.77266621589661">
			<ele>50.5</ele>
			<time>2013-12-29T15:22:29Z</time>
		</trkpt>
		<trkpt lat="39.5524101257324" lon="2.77257800102234">
			<ele>50.2999992370605</ele>
			<time>2013-12-29T15:22:31Z</time>
		</trkpt>
		<trkpt lat="39.5523643493652" lon="2.77249479293823">
			<ele>50.4000015258789</ele>
			<time>2013-12-29T15:22:33Z</time>
		</trkpt>
		<trkpt lat="39.5523109436035" lon="2.77241396903992">
			<ele>50.5999984741211</ele>
			<time>2013-12-29T15:22:35Z</time>
		</trkpt>
		<trkpt lat="39.5522575378418" lon="2.77234506607056">
			<ele>50.5999984741211</ele>
			<time>2013-12-29T15:22:37Z</time>
		</trkpt>
		<trkpt lat="39.5522003173828" lon="2.77228283882141">
			<ele>50.7000007629395</ele>
			<time>2013-12-29T15:22:39Z</time>
		</trkpt>
		<trkpt lat="39.5521430969238" lon="2.77223420143127">
			<ele>50.9000015258789</ele>
			<time>2013-12-29T15:22:41Z</time>
		</trkpt>
		<trkpt lat="39.5520782470703" lon="2.77218794822693">
			<ele>50.9000015258789</ele>
			<time>2013-12-29T15:22:43Z</time>
		</trkpt>
		<trkpt lat="39.5520133972168" lon="2.77215337753296">
			<ele>51</ele>
			<time>2013-12-29T15:22:45Z</time>
		</trkpt>
		<trkpt lat="39.5519523620605" lon="2.77212023735046">
			<ele>51.0999984741211</ele>
			<time>2013-12-29T15:22:47Z</time>
		</trkpt>
		<trkpt lat="39.5518836975098" lon="2.77208805084229">
			<ele>51.4000015258789</ele>
			<time>2013-12-29T15:22:49Z</time>
		</trkpt>
		<trkpt lat="39.5518188476563" lon="2.77205848693848">
			<ele>51.4000015258789</ele>
			<time>2013-12-29T15:22:51Z</time>
		</trkpt>
		<trkpt lat="39.5517539978027" lon="2.77202486991882">
			<ele>51.5</ele>
			<time>2013-12-29T15:22:53Z</time>
		</trkpt>
		<trkpt lat="39.5516929626465" lon="2.77199077606201">
			<ele>51.5999984741211</ele>
			<time>2013-12-29T15:22:55Z</time>
		</trkpt>
		<trkpt lat="39.551628112793" lon="2.77195572853088">
			<ele>51.7000007629395</ele>
			<time>2013-12-29T15:22:57Z</time>
		</trkpt>
		<trkpt lat="39.5515632629395" lon="2.77192258834839">
			<ele>51.7000007629395</ele>
			<time>2013-12-29T15:22:59Z</time>
		</trkpt>
		<trkpt lat="39.5515022277832" lon="2.77188992500305">
			<ele>52</ele>
			<time>2013-12-29T15:23:01Z</time>
		</trkpt>
		<trkpt lat="39.551441192627" lon="2.77185368537903">
			<ele>52.2000007629395</ele>
			<time>2013-12-29T15:23:03Z</time>
		</trkpt>
		<trkpt lat="39.5513763427734" lon="2.77181696891785">
			<ele>52.5</ele>
			<time>2013-12-29T15:23:05Z</time>
		</trkpt>
		<trkpt lat="39.5513191223145" lon="2.77177667617798">
			<ele>52.7000007629395</ele>
			<time>2013-12-29T15:23:07Z</time>
		</trkpt>
		<trkpt lat="39.5512619018555" lon="2.77173805236816">
			<ele>53.4000015258789</ele>
			<time>2013-12-29T15:23:09Z</time>
		</trkpt>
		<trkpt lat="39.551212310791" lon="2.77171230316162">
			<ele>53.9000015258789</ele>
			<time>2013-12-29T15:23:11Z</time>
		</trkpt>
		<trkpt lat="39.5511589050293" lon="2.77168393135071">
			<ele>54.2000007629395</ele>
			<time>2013-12-29T15:23:13Z</time>
		</trkpt>
		<trkpt lat="39.5511054992676" lon="2.77165532112122">
			<ele>54.4000015258789</ele>
			<time>2013-12-29T15:23:15Z</time>
		</trkpt>
		<trkpt lat="39.5510597229004" lon="2.77162933349609">
			<ele>54.2000007629395</ele>
			<time>2013-12-29T15:23:16Z</time>
		</trkpt>
		<trkpt lat="39.5510101318359" lon="2.7716007232666">
			<ele>55</ele>
			<time>2013-12-29T15:23:18Z</time>
		</trkpt>
		<trkpt lat="39.5509643554688" lon="2.77157115936279">
			<ele>55.2000007629395</ele>
			<time>2013-12-29T15:23:20Z</time>
		</trkpt>
		<trkpt lat="39.5509185791016" lon="2.77154850959778">
			<ele>55.4000015258789</ele>
			<time>2013-12-29T15:23:22Z</time>
		</trkpt>
		<trkpt lat="39.5508728027344" lon="2.77151870727539">
			<ele>55.7000007629395</ele>
			<time>2013-12-29T15:23:24Z</time>
		</trkpt>
		<trkpt lat="39.5508308410645" lon="2.771488904953">
			<ele>55.7000007629395</ele>
			<time>2013-12-29T15:23:27Z</time>
		</trkpt>
		<trkpt lat="39.5507850646973" lon="2.77146434783936">
			<ele>56</ele>
			<time>2013-12-29T15:23:28Z</time>
		</trkpt>
		<trkpt lat="39.5507354736328" lon="2.77143788337708">
			<ele>56.5999984741211</ele>
			<time>2013-12-29T15:23:31Z</time>
		</trkpt>
		<trkpt lat="39.5506858825684" lon="2.77140378952026">
			<ele>56</ele>
			<time>2013-12-29T15:23:32Z</time>
		</trkpt>
		<trkpt lat="39.5506362915039" lon="2.77134156227112">
			<ele>56.0999984741211</ele>
			<time>2013-12-29T15:23:35Z</time>
		</trkpt>
		<trkpt lat="39.550594329834" lon="2.77125930786133">
			<ele>55.9000015258789</ele>
			<time>2013-12-29T15:23:37Z</time>
		</trkpt>
		<trkpt lat="39.5505409240723" lon="2.77116250991821">
			<ele>55.7000007629395</ele>
			<time>2013-12-29T15:23:39Z</time>
		</trkpt>
		<trkpt lat="39.5505180358887" lon="2.77110695838928">
			<ele>55.2999992370605</ele>
			<time>2013-12-29T15:23:40Z</time>
		</trkpt>
		<trkpt lat="39.5504913330078" lon="2.77105093002319">
			<ele>55</ele>
			<time>2013-12-29T15:23:41Z</time>
		</trkpt>
		<trkpt lat="39.550464630127" lon="2.77099132537842">
			<ele>55</ele>
			<time>2013-12-29T15:23:42Z</time>
		</trkpt>
		<trkpt lat="39.5504379272461" lon="2.77093148231506">
			<ele>54.5999984741211</ele>
			<time>2013-12-29T15:23:43Z</time>
		</trkpt>
		<trkpt lat="39.550407409668" lon="2.77087211608887">
			<ele>54.5999984741211</ele>
			<time>2013-12-29T15:23:44Z</time>
		</trkpt>
		<trkpt lat="39.5503730773926" lon="2.77080869674683">
			<ele>54.2999992370605</ele>
			<time>2013-12-29T15:23:45Z</time>
		</trkpt>
		<trkpt lat="39.5503387451172" lon="2.77074313163757">
			<ele>53.9000015258789</ele>
			<time>2013-12-29T15:23:46Z</time>
		</trkpt>
		<trkpt lat="39.5503082275391" lon="2.77067136764526">
			<ele>53.5999984741211</ele>
			<time>2013-12-29T15:23:47Z</time>
		</trkpt>
		<trkpt lat="39.5502738952637" lon="2.77059674263">
			<ele>53.2999992370605</ele>
			<time>2013-12-29T15:23:48Z</time>
		</trkpt>
		<trkpt lat="39.550235748291" lon="2.77051901817322">
			<ele>53.2000007629395</ele>
			<time>2013-12-29T15:23:49Z</time>
		</trkpt>
		<trkpt lat="39.5502014160156" lon="2.77044200897217">
			<ele>53.2999992370605</ele>
			<time>2013-12-29T15:23:50Z</time>
		</trkpt>
		<trkpt lat="39.5501670837402" lon="2.77036452293396">
			<ele>53.2000007629395</ele>
			<time>2013-12-29T15:23:51Z</time>
		</trkpt>
		<trkpt lat="39.5501327514648" lon="2.77028870582581">
			<ele>52.7999992370605</ele>
			<time>2013-12-29T15:23:52Z</time>
		</trkpt>
		<trkpt lat="39.5500946044922" lon="2.77022171020508">
			<ele>52.7000007629395</ele>
			<time>2013-12-29T15:23:53Z</time>
		</trkpt>
		<trkpt lat="39.550048828125" lon="2.77016019821167">
			<ele>52.5</ele>
			<time>2013-12-29T15:23:54Z</time>
		</trkpt>
		<trkpt lat="39.5499992370605" lon="2.7701051235199">
			<ele>52.5999984741211</ele>
			<time>2013-12-29T15:23:55Z</time>
		</trkpt>
		<trkpt lat="39.5499458312988" lon="2.77006030082703">
			<ele>52.5999984741211</ele>
			<time>2013-12-29T15:23:56Z</time>
		</trkpt>
		<trkpt lat="39.5498886108398" lon="2.77001881599426">
			<ele>52.7000007629395</ele>
			<time>2013-12-29T15:23:57Z</time>
		</trkpt>
		<trkpt lat="39.5498352050781" lon="2.76998472213745">
			<ele>52.5</ele>
			<time>2013-12-29T15:23:58Z</time>
		</trkpt>
		<trkpt lat="39.5497856140137" lon="2.7699499130249">
			<ele>52.5</ele>
			<time>2013-12-29T15:23:59Z</time>
		</trkpt>
		<trkpt lat="39.549732208252" lon="2.76992106437683">
			<ele>52.4000015258789</ele>
			<time>2013-12-29T15:24:00Z</time>
		</trkpt>
		<trkpt lat="39.5496788024902" lon="2.76990342140198">
			<ele>52.2999992370605</ele>
			<time>2013-12-29T15:24:01Z</time>
		</trkpt>
		<trkpt lat="39.5496253967285" lon="2.76988816261292">
			<ele>52.4000015258789</ele>
			<time>2013-12-29T15:24:02Z</time>
		</trkpt>
		<trkpt lat="39.5495719909668" lon="2.76987528800964">
			<ele>52.4000015258789</ele>
			<time>2013-12-29T15:24:03Z</time>
		</trkpt>
		<trkpt lat="39.5495185852051" lon="2.7698655128479">
			<ele>52.4000015258789</ele>
			<time>2013-12-29T15:24:04Z</time>
		</trkpt>
		<trkpt lat="39.5494651794434" lon="2.7698540687561">
			<ele>52.2999992370605</ele>
			<time>2013-12-29T15:24:05Z</time>
		</trkpt>
		<trkpt lat="39.5494117736816" lon="2.76984858512878">
			<ele>52.5</ele>
			<time>2013-12-29T15:24:06Z</time>
		</trkpt>
		<trkpt lat="39.5493583679199" lon="2.76984882354736">
			<ele>52.5</ele>
			<time>2013-12-29T15:24:07Z</time>
		</trkpt>
		<trkpt lat="39.5493087768555" lon="2.76984000205994">
			<ele>52.4000015258789</ele>
			<time>2013-12-29T15:24:08Z</time>
		</trkpt>
		<trkpt lat="39.549259185791" lon="2.76983761787415">
			<ele>52.2000007629395</ele>
			<time>2013-12-29T15:24:09Z</time>
		</trkpt>
		<trkpt lat="39.5492057800293" lon="2.76984119415283">
			<ele>52.2000007629395</ele>
			<time>2013-12-29T15:24:10Z</time>
		</trkpt>
		<trkpt lat="39.5491600036621" lon="2.76984930038452">
			<ele>52.5999984741211</ele>
			<time>2013-12-29T15:24:11Z</time>
		</trkpt>
		<trkpt lat="39.5491104125977" lon="2.76986193656921">
			<ele>52.5999984741211</ele>
			<time>2013-12-29T15:24:12Z</time>
		</trkpt>
		<trkpt lat="39.5490646362305" lon="2.76987290382385">
			<ele>52.7000007629395</ele>
			<time>2013-12-29T15:24:13Z</time>
		</trkpt>
		<trkpt lat="39.549015045166" lon="2.76987385749817">
			<ele>52.7999992370605</ele>
			<time>2013-12-29T15:24:14Z</time>
		</trkpt>
		<trkpt lat="39.5489654541016" lon="2.76985549926758">
			<ele>52.7999992370605</ele>
			<time>2013-12-29T15:24:15Z</time>
		</trkpt>
		<trkpt lat="39.5489158630371" lon="2.76984000205994">
			<ele>52.7000007629395</ele>
			<time>2013-12-29T15:24:16Z</time>
		</trkpt>
		<trkpt lat="39.5488586425781" lon="2.76982593536377">
			<ele>52.5999984741211</ele>
			<time>2013-12-29T15:24:17Z</time>
		</trkpt>
		<trkpt lat="39.5488090515137" lon="2.76982140541077">
			<ele>51.7999992370605</ele>
			<time>2013-12-29T15:24:18Z</time>
		</trkpt>
		<trkpt lat="39.5487518310547" lon="2.76981258392334">
			<ele>51.7999992370605</ele>
			<time>2013-12-29T15:24:19Z</time>
		</trkpt>
		<trkpt lat="39.548698425293" lon="2.76979780197144">
			<ele>52</ele>
			<time>2013-12-29T15:24:20Z</time>
		</trkpt>
		<trkpt lat="39.548641204834" lon="2.76978516578674">
			<ele>52.2000007629395</ele>
			<time>2013-12-29T15:24:21Z</time>
		</trkpt>
		<trkpt lat="39.5485916137695" lon="2.76976919174194">
			<ele>52.2000007629395</ele>
			<time>2013-12-29T15:24:22Z</time>
		</trkpt>
		<trkpt lat="39.5485420227051" lon="2.76975536346436">
			<ele>52.2000007629395</ele>
			<time>2013-12-29T15:24:23Z</time>
		</trkpt>
		<trkpt lat="39.5484924316406" lon="2.7697422504425">
			<ele>52.2999992370605</ele>
			<time>2013-12-29T15:24:24Z</time>
		</trkpt>
		<trkpt lat="39.5484466552734" lon="2.76972818374634">
			<ele>52.4000015258789</ele>
			<time>2013-12-29T15:24:25Z</time>
		</trkpt>
		<trkpt lat="39.548397064209" lon="2.76971745491028">
			<ele>52.2000007629395</ele>
			<time>2013-12-29T15:24:26Z</time>
		</trkpt>
		<trkpt lat="39.5483512878418" lon="2.7697057723999">
			<ele>52</ele>
			<time>2013-12-29T15:24:27Z</time>
		</trkpt>
		<trkpt lat="39.5483016967773" lon="2.769695520401">
			<ele>52.0999984741211</ele>
			<time>2013-12-29T15:24:28Z</time>
		</trkpt>
		<trkpt lat="39.5482521057129" lon="2.76968431472778">
			<ele>52.2000007629395</ele>
			<time>2013-12-29T15:24:29Z</time>
		</trkpt>
		<trkpt lat="39.5482025146484" lon="2.76967430114746">
			<ele>52.2000007629395</ele>
			<time>2013-12-29T15:24:30Z</time>
		</trkpt>
		<trkpt lat="39.5481567382813" lon="2.76966524124146">
			<ele>52.2000007629395</ele>
			<time>2013-12-29T15:24:31Z</time>
		</trkpt>
		<trkpt lat="39.5481109619141" lon="2.76965165138245">
			<ele>52.0999984741211</ele>
			<time>2013-12-29T15:24:32Z</time>
		</trkpt>
		<trkpt lat="39.5480613708496" lon="2.76964044570923">
			<ele>52</ele>
			<time>2013-12-29T15:24:33Z</time>
		</trkpt>
		<trkpt lat="39.5480079650879" lon="2.76962971687317">
			<ele>52</ele>
			<time>2013-12-29T15:24:34Z</time>
		</trkpt>
		<trkpt lat="39.5479545593262" lon="2.76961827278137">
			<ele>51.9000015258789</ele>
			<time>2013-12-29T15:24:35Z</time>
		</trkpt>
		<trkpt lat="39.5478973388672" lon="2.76961398124695">
			<ele>52</ele>
			<time>2013-12-29T15:24:36Z</time>
		</trkpt>
		<trkpt lat="39.5478439331055" lon="2.76962852478027">
			<ele>52.2000007629395</ele>
			<time>2013-12-29T15:24:37Z</time>
		</trkpt>
		<trkpt lat="39.5477981567383" lon="2.76966118812561">
			<ele>52.5</ele>
			<time>2013-12-29T15:24:38Z</time>
		</trkpt>
		<trkpt lat="39.5477600097656" lon="2.76969265937805">
			<ele>53.0999984741211</ele>
			<time>2013-12-29T15:24:39Z</time>
		</trkpt>
		<trkpt lat="39.5477333068848" lon="2.7697479724884">
			<ele>53.5</ele>
			<time>2013-12-29T15:24:40Z</time>
		</trkpt>
		<trkpt lat="39.5476760864258" lon="2.7698290348053">
			<ele>53.7999992370605</ele>
			<time>2013-12-29T15:24:42Z</time>
		</trkpt>
		<trkpt lat="39.5476150512695" lon="2.76989817619324">
			<ele>54</ele>
			<time>2013-12-29T15:24:44Z</time>
		</trkpt>
		<trkpt lat="39.5475578308105" lon="2.76996278762817">
			<ele>54.9000015258789</ele>
			<time>2013-12-29T15:24:46Z</time>
		</trkpt>
		<trkpt lat="39.5475044250488" lon="2.77001857757568">
			<ele>55.7000007629395</ele>
			<time>2013-12-29T15:24:48Z</time>
		</trkpt>
		<trkpt lat="39.5474472045898" lon="2.77008581161499">
			<ele>56</ele>
			<time>2013-12-29T15:24:50Z</time>
		</trkpt>
		<trkpt lat="39.5473899841309" lon="2.77014470100403">
			<ele>56.2999992370605</ele>
			<time>2013-12-29T15:24:52Z</time>
		</trkpt>
		<trkpt lat="39.5473327636719" lon="2.77021312713623">
			<ele>56.9000015258789</ele>
			<time>2013-12-29T15:24:54Z</time>
		</trkpt>
		<trkpt lat="39.5472755432129" lon="2.77027869224548">
			<ele>57</ele>
			<time>2013-12-29T15:24:56Z</time>
		</trkpt>
		<trkpt lat="39.5472145080566" lon="2.77034401893616">
			<ele>57.5999984741211</ele>
			<time>2013-12-29T15:24:58Z</time>
		</trkpt>
		<trkpt lat="39.5471572875977" lon="2.77040839195251">
			<ele>57.7000007629395</ele>
			<time>2013-12-29T15:25:00Z</time>
		</trkpt>
		<trkpt lat="39.5471115112305" lon="2.77046990394592">
			<ele>58.0999984741211</ele>
			<time>2013-12-29T15:25:02Z</time>
		</trkpt>
		<trkpt lat="39.547061920166" lon="2.77052140235901">
			<ele>58.2999992370605</ele>
			<time>2013-12-29T15:25:04Z</time>
		</trkpt>
		<trkpt lat="39.5470123291016" lon="2.77057218551636">
			<ele>58.5999984741211</ele>
			<time>2013-12-29T15:25:06Z</time>
		</trkpt>
		<trkpt lat="39.5469665527344" lon="2.77061891555786">
			<ele>58.7999992370605</ele>
			<time>2013-12-29T15:25:08Z</time>
		</trkpt>
		<trkpt lat="39.5469169616699" lon="2.77066898345947">
			<ele>58.7999992370605</ele>
			<time>2013-12-29T15:25:10Z</time>
		</trkpt>
		<trkpt lat="39.546875" lon="2.77071952819824">
			<ele>58.9000015258789</ele>
			<time>2013-12-29T15:25:12Z</time>
		</trkpt>
		<trkpt lat="39.546817779541" lon="2.77074861526489">
			<ele>59.2000007629395</ele>
			<time>2013-12-29T15:25:14Z</time>
		</trkpt>
		<trkpt lat="39.5467414855957" lon="2.77075266838074">
			<ele>60</ele>
			<time>2013-12-29T15:25:16Z</time>
		</trkpt>
		<trkpt lat="39.5466766357422" lon="2.77069163322449">
			<ele>60.2999992370605</ele>
			<time>2013-12-29T15:25:18Z</time>
		</trkpt>
		<trkpt lat="39.5466117858887" lon="2.77064990997314">
			<ele>60.2000007629395</ele>
			<time>2013-12-29T15:25:20Z</time>
		</trkpt>
		<trkpt lat="39.5465469360352" lon="2.77060508728027">
			<ele>59.7999992370605</ele>
			<time>2013-12-29T15:25:22Z</time>
		</trkpt>
		<trkpt lat="39.5464820861816" lon="2.77056169509888">
			<ele>59.2000007629395</ele>
			<time>2013-12-29T15:25:24Z</time>
		</trkpt>
		<trkpt lat="39.5464172363281" lon="2.77051997184753">
			<ele>59.0999984741211</ele>
			<time>2013-12-29T15:25:26Z</time>
		</trkpt>
		<trkpt lat="39.5463523864746" lon="2.77047395706177">
			<ele>59.4000015258789</ele>
			<time>2013-12-29T15:25:27Z</time>
		</trkpt>
		<trkpt lat="39.5462875366211" lon="2.77042412757874">
			<ele>58.7000007629395</ele>
			<time>2013-12-29T15:25:29Z</time>
		</trkpt>
		<trkpt lat="39.5462188720703" lon="2.77037620544434">
			<ele>58.7999992370605</ele>
			<time>2013-12-29T15:25:31Z</time>
		</trkpt>
		<trkpt lat="39.5461463928223" lon="2.77032899856567">
			<ele>58.0999984741211</ele>
			<time>2013-12-29T15:25:33Z</time>
		</trkpt>
		<trkpt lat="39.5460624694824" lon="2.7702796459198">
			<ele>57.9000015258789</ele>
			<time>2013-12-29T15:25:35Z</time>
		</trkpt>
		<trkpt lat="39.5460205078125" lon="2.77025246620178">
			<ele>57.7000007629395</ele>
			<time>2013-12-29T15:25:36Z</time>
		</trkpt>
		<trkpt lat="39.5459785461426" lon="2.77022123336792">
			<ele>57.2000007629395</ele>
			<time>2013-12-29T15:25:37Z</time>
		</trkpt>
		<trkpt lat="39.5459289550781" lon="2.77019119262695">
			<ele>57.2999992370605</ele>
			<time>2013-12-29T15:25:38Z</time>
		</trkpt>
		<trkpt lat="39.5458755493164" lon="2.77015829086304">
			<ele>56.7999992370605</ele>
			<time>2013-12-29T15:25:39Z</time>
		</trkpt>
		<trkpt lat="39.5458221435547" lon="2.77012157440186">
			<ele>55.9000015258789</ele>
			<time>2013-12-29T15:25:40Z</time>
		</trkpt>
		<trkpt lat="39.5457649230957" lon="2.77008557319641">
			<ele>55.7000007629395</ele>
			<time>2013-12-29T15:25:41Z</time>
		</trkpt>
		<trkpt lat="39.5457000732422" lon="2.77003717422485">
			<ele>54.0999984741211</ele>
			<time>2013-12-29T15:25:42Z</time>
		</trkpt>
		<trkpt lat="39.5456314086914" lon="2.76999163627625">
			<ele>53.0999984741211</ele>
			<time>2013-12-29T15:25:43Z</time>
		</trkpt>
		<trkpt lat="39.5455551147461" lon="2.76995396614075">
			<ele>52.0999984741211</ele>
			<time>2013-12-29T15:25:44Z</time>
		</trkpt>
		<trkpt lat="39.5454788208008" lon="2.76991105079651">
			<ele>51.2999992370605</ele>
			<time>2013-12-29T15:25:45Z</time>
		</trkpt>
		<trkpt lat="39.5453987121582" lon="2.76986646652222">
			<ele>50.7000007629395</ele>
			<time>2013-12-29T15:25:46Z</time>
		</trkpt>
		<trkpt lat="39.5453224182129" lon="2.76982140541077">
			<ele>50.2000007629395</ele>
			<time>2013-12-29T15:25:47Z</time>
		</trkpt>
		<trkpt lat="39.5452461242676" lon="2.76977133750916">
			<ele>49.7999992370605</ele>
			<time>2013-12-29T15:25:48Z</time>
		</trkpt>
		<trkpt lat="39.5451736450195" lon="2.76972937583923">
			<ele>49.4000015258789</ele>
			<time>2013-12-29T15:25:49Z</time>
		</trkpt>
		<trkpt lat="39.5451049804688" lon="2.76968336105347">
			<ele>49.2999992370605</ele>
			<time>2013-12-29T15:25:50Z</time>
		</trkpt>
		<trkpt lat="39.545036315918" lon="2.76964402198792">
			<ele>49.2000007629395</ele>
			<time>2013-12-29T15:25:51Z</time>
		</trkpt>
		<trkpt lat="39.5449752807617" lon="2.76960611343384">
			<ele>49.2000007629395</ele>
			<time>2013-12-29T15:25:52Z</time>
		</trkpt>
		<trkpt lat="39.5449104309082" lon="2.76956701278687">
			<ele>49.0999984741211</ele>
			<time>2013-12-29T15:25:53Z</time>
		</trkpt>
		<trkpt lat="39.5448532104492" lon="2.76952886581421">
			<ele>48.7999992370605</ele>
			<time>2013-12-29T15:25:54Z</time>
		</trkpt>
		<trkpt lat="39.5447959899902" lon="2.76949453353882">
			<ele>48.5999984741211</ele>
			<time>2013-12-29T15:25:55Z</time>
		</trkpt>
		<trkpt lat="39.5447425842285" lon="2.76946306228638">
			<ele>48.5</ele>
			<time>2013-12-29T15:25:56Z</time>
		</trkpt>
		<trkpt lat="39.5446929931641" lon="2.76943302154541">
			<ele>48.5</ele>
			<time>2013-12-29T15:25:57Z</time>
		</trkpt>
		<trkpt lat="39.5446434020996" lon="2.76940393447876">
			<ele>48.2999992370605</ele>
			<time>2013-12-29T15:25:58Z</time>
		</trkpt>
		<trkpt lat="39.5445976257324" lon="2.76937437057495">
			<ele>48.0999984741211</ele>
			<time>2013-12-29T15:25:59Z</time>
		</trkpt>
		<trkpt lat="39.544548034668" lon="2.76934266090393">
			<ele>48.0999984741211</ele>
			<time>2013-12-29T15:26:00Z</time>
		</trkpt>
		<trkpt lat="39.5445022583008" lon="2.76931738853455">
			<ele>48.0999984741211</ele>
			<time>2013-12-29T15:26:01Z</time>
		</trkpt>
		<trkpt lat="39.5444526672363" lon="2.76928973197937">
			<ele>48.2999992370605</ele>
			<time>2013-12-29T15:26:02Z</time>
		</trkpt>
		<trkpt lat="39.5444068908691" lon="2.76926207542419">
			<ele>48.2999992370605</ele>
			<time>2013-12-29T15:26:03Z</time>
		</trkpt>
		<trkpt lat="39.5443572998047" lon="2.76923298835754">
			<ele>48.0999984741211</ele>
			<time>2013-12-29T15:26:04Z</time>
		</trkpt>
		<trkpt lat="39.5443115234375" lon="2.76920318603516">
			<ele>48.2999992370605</ele>
			<time>2013-12-29T15:26:05Z</time>
		</trkpt>
		<trkpt lat="39.5442657470703" lon="2.76917672157288">
			<ele>48.5</ele>
			<time>2013-12-29T15:26:06Z</time>
		</trkpt>
		<trkpt lat="39.5442199707031" lon="2.76915097236633">
			<ele>48.5999984741211</ele>
			<time>2013-12-29T15:26:07Z</time>
		</trkpt>
		<trkpt lat="39.5441780090332" lon="2.76912498474121">
			<ele>48.7000007629395</ele>
			<time>2013-12-29T15:26:08Z</time>
		</trkpt>
		<trkpt lat="39.5441284179688" lon="2.76909708976746">
			<ele>48.7000007629395</ele>
			<time>2013-12-29T15:26:09Z</time>
		</trkpt>
		<trkpt lat="39.5440826416016" lon="2.76907396316528">
			<ele>48.5999984741211</ele>
			<time>2013-12-29T15:26:10Z</time>
		</trkpt>
		<trkpt lat="39.5440406799316" lon="2.76904773712158">
			<ele>48.7999992370605</ele>
			<time>2013-12-29T15:26:11Z</time>
		</trkpt>
		<trkpt lat="39.5439987182617" lon="2.76902341842651">
			<ele>48.7999992370605</ele>
			<time>2013-12-29T15:26:12Z</time>
		</trkpt>
		<trkpt lat="39.5439567565918" lon="2.76899933815002">
			<ele>49</ele>
			<time>2013-12-29T15:26:13Z</time>
		</trkpt>
		<trkpt lat="39.5439109802246" lon="2.76896929740906">
			<ele>49.0999984741211</ele>
			<time>2013-12-29T15:26:14Z</time>
		</trkpt>
		<trkpt lat="39.5438690185547" lon="2.76894593238831">
			<ele>49</ele>
			<time>2013-12-29T15:26:15Z</time>
		</trkpt>
		<trkpt lat="39.543830871582" lon="2.76891422271729">
			<ele>48.7999992370605</ele>
			<time>2013-12-29T15:26:16Z</time>
		</trkpt>
		<trkpt lat="39.5437889099121" lon="2.76888585090637">
			<ele>48.5</ele>
			<time>2013-12-29T15:26:17Z</time>
		</trkpt>
		<trkpt lat="39.5437469482422" lon="2.76886105537415">
			<ele>48.5</ele>
			<time>2013-12-29T15:26:18Z</time>
		</trkpt>
		<trkpt lat="39.5437049865723" lon="2.76883840560913">
			<ele>48.2000007629395</ele>
			<time>2013-12-29T15:26:20Z</time>
		</trkpt>
		<trkpt lat="39.5436630249023" lon="2.76881504058838">
			<ele>48.0999984741211</ele>
			<time>2013-12-29T15:26:20Z</time>
		</trkpt>
		<trkpt lat="39.5436172485352" lon="2.76878571510315">
			<ele>48.2999992370605</ele>
			<time>2013-12-29T15:26:22Z</time>
		</trkpt>
		<trkpt lat="39.5435333251953" lon="2.76874256134033">
			<ele>48.2999992370605</ele>
			<time>2013-12-29T15:26:24Z</time>
		</trkpt>
		<trkpt lat="39.5434913635254" lon="2.76871657371521">
			<ele>48.2000007629395</ele>
			<time>2013-12-29T15:26:25Z</time>
		</trkpt>
		<trkpt lat="39.5434188842773" lon="2.76866888999939">
			<ele>47.9000015258789</ele>
			<time>2013-12-29T15:26:27Z</time>
		</trkpt>
		<trkpt lat="39.543342590332" lon="2.76862168312073">
			<ele>48</ele>
			<time>2013-12-29T15:26:29Z</time>
		</trkpt>
		<trkpt lat="39.5433006286621" lon="2.76859760284424">
			<ele>48.5</ele>
			<time>2013-12-29T15:26:30Z</time>
		</trkpt>
		<trkpt lat="39.5432357788086" lon="2.76855206489563">
			<ele>48.2000007629395</ele>
			<time>2013-12-29T15:26:33Z</time>
		</trkpt>
		<trkpt lat="39.5431785583496" lon="2.76851344108582">
			<ele>48.5999984741211</ele>
			<time>2013-12-29T15:26:34Z</time>
		</trkpt>
		<trkpt lat="39.5431327819824" lon="2.76849246025085">
			<ele>49.0999984741211</ele>
			<time>2013-12-29T15:26:37Z</time>
		</trkpt>
		<trkpt lat="39.5430755615234" lon="2.76852416992188">
			<ele>49.7000007629395</ele>
			<time>2013-12-29T15:26:40Z</time>
		</trkpt>
		<trkpt lat="39.5430450439453" lon="2.76859474182129">
			<ele>50.2000007629395</ele>
			<time>2013-12-29T15:26:41Z</time>
		</trkpt>
		<trkpt lat="39.5430145263672" lon="2.76867699623108">
			<ele>50.7999992370605</ele>
			<time>2013-12-29T15:26:43Z</time>
		</trkpt>
		<trkpt lat="39.5429801940918" lon="2.76875948905945">
			<ele>51.5</ele>
			<time>2013-12-29T15:26:45Z</time>
		</trkpt>
		<trkpt lat="39.5429496765137" lon="2.76884531974792">
			<ele>51.7999992370605</ele>
			<time>2013-12-29T15:26:47Z</time>
		</trkpt>
		<trkpt lat="39.5429191589355" lon="2.76893043518066">
			<ele>52.0999984741211</ele>
			<time>2013-12-29T15:26:49Z</time>
		</trkpt>
		<trkpt lat="39.5428886413574" lon="2.76901292800903">
			<ele>52.2000007629395</ele>
			<time>2013-12-29T15:26:51Z</time>
		</trkpt>
		<trkpt lat="39.5428581237793" lon="2.76909995079041">
			<ele>52.7000007629395</ele>
			<time>2013-12-29T15:26:53Z</time>
		</trkpt>
		<trkpt lat="39.5428314208984" lon="2.76918983459473">
			<ele>52.5999984741211</ele>
			<time>2013-12-29T15:26:55Z</time>
		</trkpt>
		<trkpt lat="39.5428009033203" lon="2.76928210258484">
			<ele>53.2000007629395</ele>
			<time>2013-12-29T15:26:57Z</time>
		</trkpt>
		<trkpt lat="39.5427665710449" lon="2.76936554908752">
			<ele>53.2999992370605</ele>
			<time>2013-12-29T15:26:59Z</time>
		</trkpt>
		<trkpt lat="39.5427017211914" lon="2.76953148841858">
			<ele>53.5999984741211</ele>
			<time>2013-12-29T15:27:04Z</time>
		</trkpt>
		<trkpt lat="39.5426712036133" lon="2.76961302757263">
			<ele>53.9000015258789</ele>
			<time>2013-12-29T15:27:06Z</time>
		</trkpt>
		<trkpt lat="39.5426483154297" lon="2.76970076560974">
			<ele>54.7000007629395</ele>
			<time>2013-12-29T15:27:08Z</time>
		</trkpt>
		<trkpt lat="39.5426177978516" lon="2.76978516578674">
			<ele>55.7999992370605</ele>
			<time>2013-12-29T15:27:10Z</time>
		</trkpt>
		<trkpt lat="39.5425834655762" lon="2.76986575126648">
			<ele>55.9000015258789</ele>
			<time>2013-12-29T15:27:12Z</time>
		</trkpt>
		<trkpt lat="39.542552947998" lon="2.76995229721069">
			<ele>56.0999984741211</ele>
			<time>2013-12-29T15:27:14Z</time>
		</trkpt>
		<trkpt lat="39.5425186157227" lon="2.77003216743469">
			<ele>56.2999992370605</ele>
			<time>2013-12-29T15:27:16Z</time>
		</trkpt>
		<trkpt lat="39.5424842834473" lon="2.77011275291443">
			<ele>56.7000007629395</ele>
			<time>2013-12-29T15:27:18Z</time>
		</trkpt>
		<trkpt lat="39.5424728393555" lon="2.77020287513733">
			<ele>57.2000007629395</ele>
			<time>2013-12-29T15:27:20Z</time>
		</trkpt>
		<trkpt lat="39.5424537658691" lon="2.77028965950012">
			<ele>57.7000007629395</ele>
			<time>2013-12-29T15:27:22Z</time>
		</trkpt>
		<trkpt lat="39.542423248291" lon="2.77037239074707">
			<ele>58.0999984741211</ele>
			<time>2013-12-29T15:27:24Z</time>
		</trkpt>
		<trkpt lat="39.5423965454102" lon="2.77045750617981">
			<ele>58.4000015258789</ele>
			<time>2013-12-29T15:27:26Z</time>
		</trkpt>
		<trkpt lat="39.5423622131348" lon="2.77053809165955">
			<ele>58.5999984741211</ele>
			<time>2013-12-29T15:27:28Z</time>
		</trkpt>
		<trkpt lat="39.5423355102539" lon="2.7706139087677">
			<ele>58.7999992370605</ele>
			<time>2013-12-29T15:27:30Z</time>
		</trkpt>
		<trkpt lat="39.5423049926758" lon="2.77068662643433">
			<ele>59</ele>
			<time>2013-12-29T15:27:32Z</time>
		</trkpt>
		<trkpt lat="39.5422668457031" lon="2.77075338363647">
			<ele>59.2000007629395</ele>
			<time>2013-12-29T15:27:34Z</time>
		</trkpt>
		<trkpt lat="39.542236328125" lon="2.77081823348999">
			<ele>59.2999992370605</ele>
			<time>2013-12-29T15:27:36Z</time>
		</trkpt>
		<trkpt lat="39.5422134399414" lon="2.77087497711182">
			<ele>59.4000015258789</ele>
			<time>2013-12-29T15:27:38Z</time>
		</trkpt>
		<trkpt lat="39.5421829223633" lon="2.77094340324402">
			<ele>58.9000015258789</ele>
			<time>2013-12-29T15:27:41Z</time>
		</trkpt>
		<trkpt lat="39.5421600341797" lon="2.771000623703">
			<ele>58</ele>
			<time>2013-12-29T15:27:43Z</time>
		</trkpt>
		<trkpt lat="39.5421333312988" lon="2.77108788490295">
			<ele>57.5999984741211</ele>
			<time>2013-12-29T15:28:10Z</time>
		</trkpt>
		<trkpt lat="39.5420913696289" lon="2.77113389968872">
			<ele>58</ele>
			<time>2013-12-29T15:28:12Z</time>
		</trkpt>
		<trkpt lat="39.5420608520508" lon="2.77108955383301">
			<ele>58</ele>
			<time>2013-12-29T15:28:13Z</time>
		</trkpt>
		<trkpt lat="39.5419998168945" lon="2.77105689048767">
			<ele>58.0999984741211</ele>
			<time>2013-12-29T15:28:15Z</time>
		</trkpt>
		<trkpt lat="39.541934967041" lon="2.7710165977478">
			<ele>58.4000015258789</ele>
			<time>2013-12-29T15:28:17Z</time>
		</trkpt>
		<trkpt lat="39.5418663024902" lon="2.77097845077515">
			<ele>58.4000015258789</ele>
			<time>2013-12-29T15:28:19Z</time>
		</trkpt>
		<trkpt lat="39.5417976379395" lon="2.77093911170959">
			<ele>58.2999992370605</ele>
			<time>2013-12-29T15:28:21Z</time>
		</trkpt>
		<trkpt lat="39.5417289733887" lon="2.7708957195282">
			<ele>58.4000015258789</ele>
			<time>2013-12-29T15:28:23Z</time>
		</trkpt>
		<trkpt lat="39.5416603088379" lon="2.77085041999817">
			<ele>58.5</ele>
			<time>2013-12-29T15:28:25Z</time>
		</trkpt>
		<trkpt lat="39.5415878295898" lon="2.77081203460693">
			<ele>58.7000007629395</ele>
			<time>2013-12-29T15:28:27Z</time>
		</trkpt>
		<trkpt lat="39.5415191650391" lon="2.77077078819275">
			<ele>58.7000007629395</ele>
			<time>2013-12-29T15:28:29Z</time>
		</trkpt>
		<trkpt lat="39.5414505004883" lon="2.7707314491272">
			<ele>58.4000015258789</ele>
			<time>2013-12-29T15:28:31Z</time>
		</trkpt>
		<trkpt lat="39.5413818359375" lon="2.77068448066711">
			<ele>57.7999992370605</ele>
			<time>2013-12-29T15:28:33Z</time>
		</trkpt>
		<trkpt lat="39.5413131713867" lon="2.77064299583435">
			<ele>57.7999992370605</ele>
			<time>2013-12-29T15:28:35Z</time>
		</trkpt>
		<trkpt lat="39.5412445068359" lon="2.77060580253601">
			<ele>57.5999984741211</ele>
			<time>2013-12-29T15:28:37Z</time>
		</trkpt>
		<trkpt lat="39.5411720275879" lon="2.77056169509888">
			<ele>57.0999984741211</ele>
			<time>2013-12-29T15:28:39Z</time>
		</trkpt>
		<trkpt lat="39.5411033630371" lon="2.77052736282349">
			<ele>57.7999992370605</ele>
			<time>2013-12-29T15:28:41Z</time>
		</trkpt>
		<trkpt lat="39.5410346984863" lon="2.77048778533936">
			<ele>57.7999992370605</ele>
			<time>2013-12-29T15:28:43Z</time>
		</trkpt>
		<trkpt lat="39.5409660339355" lon="2.77044439315796">
			<ele>58.2000007629395</ele>
			<time>2013-12-29T15:28:45Z</time>
		</trkpt>
		<trkpt lat="39.5408973693848" lon="2.77040553092957">
			<ele>58.0999984741211</ele>
			<time>2013-12-29T15:28:47Z</time>
		</trkpt>
		<trkpt lat="39.5408401489258" lon="2.77034544944763">
			<ele>57.4000015258789</ele>
			<time>2013-12-29T15:28:49Z</time>
		</trkpt>
		<trkpt lat="39.540771484375" lon="2.77030491828918">
			<ele>57.5</ele>
			<time>2013-12-29T15:28:51Z</time>
		</trkpt>
		<trkpt lat="39.540699005127" lon="2.77026104927063">
			<ele>57</ele>
			<time>2013-12-29T15:28:53Z</time>
		</trkpt>
		<trkpt lat="39.5406265258789" lon="2.77022528648376">
			<ele>57.0999984741211</ele>
			<time>2013-12-29T15:28:55Z</time>
		</trkpt>
		<trkpt lat="39.5405578613281" lon="2.77018284797668">
			<ele>57.0999984741211</ele>
			<time>2013-12-29T15:28:57Z</time>
		</trkpt>
		<trkpt lat="39.5404930114746" lon="2.77013754844666">
			<ele>57</ele>
			<time>2013-12-29T15:28:59Z</time>
		</trkpt>
		<trkpt lat="39.5404243469238" lon="2.77009844779968">
			<ele>56.7999992370605</ele>
			<time>2013-12-29T15:29:01Z</time>
		</trkpt>
		<trkpt lat="39.540355682373" lon="2.77006125450134">
			<ele>56.9000015258789</ele>
			<time>2013-12-29T15:29:03Z</time>
		</trkpt>
		<trkpt lat="39.5402908325195" lon="2.77002024650574">
			<ele>56.7999992370605</ele>
			<time>2013-12-29T15:29:05Z</time>
		</trkpt>
		<trkpt lat="39.5402221679688" lon="2.76997804641724">
			<ele>56.7999992370605</ele>
			<time>2013-12-29T15:29:07Z</time>
		</trkpt>
		<trkpt lat="39.5401573181152" lon="2.76993560791016">
			<ele>56.7999992370605</ele>
			<time>2013-12-29T15:29:09Z</time>
		</trkpt>
		<trkpt lat="39.5400924682617" lon="2.76989436149597">
			<ele>56.5999984741211</ele>
			<time>2013-12-29T15:29:11Z</time>
		</trkpt>
		<trkpt lat="39.5400276184082" lon="2.76985478401184">
			<ele>56.7000007629395</ele>
			<time>2013-12-29T15:29:13Z</time>
		</trkpt>
		<trkpt lat="39.5399589538574" lon="2.76981115341187">
			<ele>56.7000007629395</ele>
			<time>2013-12-29T15:29:15Z</time>
		</trkpt>
		<trkpt lat="39.5398941040039" lon="2.76977181434631">
			<ele>56.7999992370605</ele>
			<time>2013-12-29T15:29:17Z</time>
		</trkpt>
		<trkpt lat="39.5398254394531" lon="2.76973605155945">
			<ele>56.7000007629395</ele>
			<time>2013-12-29T15:29:19Z</time>
		</trkpt>
		<trkpt lat="39.5397567749023" lon="2.76971030235291">
			<ele>56.9000015258789</ele>
			<time>2013-12-29T15:29:21Z</time>
		</trkpt>
		<trkpt lat="39.5396842956543" lon="2.76971340179443">
			<ele>57.2999992370605</ele>
			<time>2013-12-29T15:29:23Z</time>
		</trkpt>
		<trkpt lat="39.5396118164063" lon="2.76971673965454">
			<ele>57.7999992370605</ele>
			<time>2013-12-29T15:29:25Z</time>
		</trkpt>
		<trkpt lat="39.5395431518555" lon="2.76973628997803">
			<ele>58</ele>
			<time>2013-12-29T15:29:27Z</time>
		</trkpt>
		<trkpt lat="39.5394744873047" lon="2.7697594165802">
			<ele>57.7000007629395</ele>
			<time>2013-12-29T15:29:29Z</time>
		</trkpt>
		<trkpt lat="39.5393981933594" lon="2.76978302001953">
			<ele>58</ele>
			<time>2013-12-29T15:29:31Z</time>
		</trkpt>
		<trkpt lat="39.5393257141113" lon="2.76980590820313">
			<ele>58.2999992370605</ele>
			<time>2013-12-29T15:29:33Z</time>
		</trkpt>
		<trkpt lat="39.5392570495605" lon="2.76981568336487">
			<ele>58.0999984741211</ele>
			<time>2013-12-29T15:29:35Z</time>
		</trkpt>
		<trkpt lat="39.5391845703125" lon="2.76980805397034">
			<ele>58</ele>
			<time>2013-12-29T15:29:37Z</time>
		</trkpt>
		<trkpt lat="39.5391159057617" lon="2.7697856426239">
			<ele>57.9000015258789</ele>
			<time>2013-12-29T15:29:39Z</time>
		</trkpt>
		<trkpt lat="39.5390510559082" lon="2.76975750923157">
			<ele>58</ele>
			<time>2013-12-29T15:29:41Z</time>
		</trkpt>
		<trkpt lat="39.5389862060547" lon="2.76972365379333">
			<ele>58.2000007629395</ele>
			<time>2013-12-29T15:29:43Z</time>
		</trkpt>
		<trkpt lat="39.5389213562012" lon="2.76968336105347">
			<ele>58.4000015258789</ele>
			<time>2013-12-29T15:29:45Z</time>
		</trkpt>
		<trkpt lat="39.5388565063477" lon="2.76964402198792">
			<ele>58.5999984741211</ele>
			<time>2013-12-29T15:29:47Z</time>
		</trkpt>
		<trkpt lat="39.5387954711914" lon="2.76960468292236">
			<ele>58.7000007629395</ele>
			<time>2013-12-29T15:29:49Z</time>
		</trkpt>
		<trkpt lat="39.5387306213379" lon="2.76956701278687">
			<ele>59</ele>
			<time>2013-12-29T15:29:51Z</time>
		</trkpt>
		<trkpt lat="39.5386657714844" lon="2.76952767372131">
			<ele>58.9000015258789</ele>
			<time>2013-12-29T15:29:53Z</time>
		</trkpt>
		<trkpt lat="39.5386009216309" lon="2.76948833465576">
			<ele>58.7999992370605</ele>
			<time>2013-12-29T15:29:55Z</time>
		</trkpt>
		<trkpt lat="39.5385360717773" lon="2.76944541931152">
			<ele>58.7999992370605</ele>
			<time>2013-12-29T15:29:57Z</time>
		</trkpt>
		<trkpt lat="39.5384674072266" lon="2.76940488815308">
			<ele>58.7999992370605</ele>
			<time>2013-12-29T15:29:59Z</time>
		</trkpt>
		<trkpt lat="39.5384063720703" lon="2.76936459541321">
			<ele>58.9000015258789</ele>
			<time>2013-12-29T15:30:01Z</time>
		</trkpt>
		<trkpt lat="39.5383415222168" lon="2.76932573318481">
			<ele>59.0999984741211</ele>
			<time>2013-12-29T15:30:03Z</time>
		</trkpt>
		<trkpt lat="39.5382804870605" lon="2.76928210258484">
			<ele>59.0999984741211</ele>
			<time>2013-12-29T15:30:05Z</time>
		</trkpt>
		<trkpt lat="39.5382118225098" lon="2.76924705505371">
			<ele>59.0999984741211</ele>
			<time>2013-12-29T15:30:07Z</time>
		</trkpt>
		<trkpt lat="39.5381507873535" lon="2.76920056343079">
			<ele>59.2000007629395</ele>
			<time>2013-12-29T15:30:09Z</time>
		</trkpt>
		<trkpt lat="39.5380859375" lon="2.7691593170166">
			<ele>59.2999992370605</ele>
			<time>2013-12-29T15:30:11Z</time>
		</trkpt>
		<trkpt lat="39.5380172729492" lon="2.76912569999695">
			<ele>59.2999992370605</ele>
			<time>2013-12-29T15:30:13Z</time>
		</trkpt>
		<trkpt lat="39.5379486083984" lon="2.76909065246582">
			<ele>59.5</ele>
			<time>2013-12-29T15:30:15Z</time>
		</trkpt>
		<trkpt lat="39.5378875732422" lon="2.7690486907959">
			<ele>59.5</ele>
			<time>2013-12-29T15:30:17Z</time>
		</trkpt>
		<trkpt lat="39.5378189086914" lon="2.76900959014893">
			<ele>59.7999992370605</ele>
			<time>2013-12-29T15:30:19Z</time>
		</trkpt>
		<trkpt lat="39.5377502441406" lon="2.76896953582764">
			<ele>60.0999984741211</ele>
			<time>2013-12-29T15:30:21Z</time>
		</trkpt>
		<trkpt lat="39.5376815795898" lon="2.76893329620361">
			<ele>60.2999992370605</ele>
			<time>2013-12-29T15:30:23Z</time>
		</trkpt>
		<trkpt lat="39.5376167297363" lon="2.76889228820801">
			<ele>60.5</ele>
			<time>2013-12-29T15:30:25Z</time>
		</trkpt>
		<trkpt lat="39.5375480651855" lon="2.76885747909546">
			<ele>60.7999992370605</ele>
			<time>2013-12-29T15:30:27Z</time>
		</trkpt>
		<trkpt lat="39.5374794006348" lon="2.76881504058838">
			<ele>60.9000015258789</ele>
			<time>2013-12-29T15:30:29Z</time>
		</trkpt>
		<trkpt lat="39.5374069213867" lon="2.76877498626709">
			<ele>61.0999984741211</ele>
			<time>2013-12-29T15:30:31Z</time>
		</trkpt>
		<trkpt lat="39.5373382568359" lon="2.76873350143433">
			<ele>61.0999984741211</ele>
			<time>2013-12-29T15:30:33Z</time>
		</trkpt>
		<trkpt lat="39.5372657775879" lon="2.76869416236877">
			<ele>61.0999984741211</ele>
			<time>2013-12-29T15:30:35Z</time>
		</trkpt>
		<trkpt lat="39.5371932983398" lon="2.7686505317688">
			<ele>61.2000007629395</ele>
			<time>2013-12-29T15:30:37Z</time>
		</trkpt>
		<trkpt lat="39.5371246337891" lon="2.76860237121582">
			<ele>60.9000015258789</ele>
			<time>2013-12-29T15:30:39Z</time>
		</trkpt>
		<trkpt lat="39.537052154541" lon="2.76856064796448">
			<ele>60.5999984741211</ele>
			<time>2013-12-29T15:30:41Z</time>
		</trkpt>
		<trkpt lat="39.536979675293" lon="2.76851677894592">
			<ele>60.5</ele>
			<time>2013-12-29T15:30:43Z</time>
		</trkpt>
		<trkpt lat="39.5369148254395" lon="2.76847147941589">
			<ele>60.2000007629395</ele>
			<time>2013-12-29T15:30:45Z</time>
		</trkpt>
		<trkpt lat="39.5368499755859" lon="2.76842904090881">
			<ele>60.0999984741211</ele>
			<time>2013-12-29T15:30:47Z</time>
		</trkpt>
		<trkpt lat="39.5367889404297" lon="2.768390417099">
			<ele>59.9000015258789</ele>
			<time>2013-12-29T15:30:49Z</time>
		</trkpt>
		<trkpt lat="39.5367546081543" lon="2.76834297180176">
			<ele>59.5</ele>
			<time>2013-12-29T15:30:51Z</time>
		</trkpt>
		<trkpt lat="39.5367088317871" lon="2.76833295822144">
			<ele>60.9000015258789</ele>
			<time>2013-12-29T15:43:15Z</time>
		</trkpt>
		<trkpt lat="39.5366630554199" lon="2.76830101013184">
			<ele>61.5</ele>
			<time>2013-12-29T15:43:23Z</time>
		</trkpt>
		<trkpt lat="39.5366134643555" lon="2.76827359199524">
			<ele>61.4000015258789</ele>
			<time>2013-12-29T15:43:27Z</time>
		</trkpt>
		<trkpt lat="39.536563873291" lon="2.7682466506958">
			<ele>61.2999992370605</ele>
			<time>2013-12-29T15:43:29Z</time>
		</trkpt>
		<trkpt lat="39.536506652832" lon="2.76821541786194">
			<ele>61</ele>
			<time>2013-12-29T15:43:31Z</time>
		</trkpt>
		<trkpt lat="39.5364379882813" lon="2.76817607879639">
			<ele>61</ele>
			<time>2013-12-29T15:43:33Z</time>
		</trkpt>
		<trkpt lat="39.5363731384277" lon="2.76813673973083">
			<ele>61</ele>
			<time>2013-12-29T15:43:35Z</time>
		</trkpt>
		<trkpt lat="39.5363121032715" lon="2.76809930801392">
			<ele>61.0999984741211</ele>
			<time>2013-12-29T15:43:37Z</time>
		</trkpt>
		<trkpt lat="39.5362510681152" lon="2.76805758476257">
			<ele>61.0999984741211</ele>
			<time>2013-12-29T15:43:39Z</time>
		</trkpt>
		<trkpt lat="39.5361862182617" lon="2.7680184841156">
			<ele>61</ele>
			<time>2013-12-29T15:43:41Z</time>
		</trkpt>
		<trkpt lat="39.5361137390137" lon="2.76798009872437">
			<ele>60.7999992370605</ele>
			<time>2013-12-29T15:43:43Z</time>
		</trkpt>
		<trkpt lat="39.5360450744629" lon="2.76794004440308">
			<ele>60.5</ele>
			<time>2013-12-29T15:43:45Z</time>
		</trkpt>
		<trkpt lat="39.5359687805176" lon="2.767902135849">
			<ele>60.4000015258789</ele>
			<time>2013-12-29T15:43:47Z</time>
		</trkpt>
		<trkpt lat="39.5359001159668" lon="2.76785755157471">
			<ele>60.2999992370605</ele>
			<time>2013-12-29T15:43:49Z</time>
		</trkpt>
		<trkpt lat="39.5358276367188" lon="2.76781129837036">
			<ele>60.2999992370605</ele>
			<time>2013-12-29T15:43:51Z</time>
		</trkpt>
		<trkpt lat="39.5357551574707" lon="2.76776480674744">
			<ele>60.0999984741211</ele>
			<time>2013-12-29T15:43:53Z</time>
		</trkpt>
		<trkpt lat="39.5356826782227" lon="2.76771926879883">
			<ele>60.2000007629395</ele>
			<time>2013-12-29T15:43:55Z</time>
		</trkpt>
		<trkpt lat="39.5356063842773" lon="2.76767206192017">
			<ele>60.2999992370605</ele>
			<time>2013-12-29T15:43:57Z</time>
		</trkpt>
		<trkpt lat="39.535530090332" lon="2.76762676239014">
			<ele>60.0999984741211</ele>
			<time>2013-12-29T15:43:59Z</time>
		</trkpt>
		<trkpt lat="39.5354537963867" lon="2.76758146286011">
			<ele>60.2000007629395</ele>
			<time>2013-12-29T15:44:01Z</time>
		</trkpt>
		<trkpt lat="39.5353736877441" lon="2.76753544807434">
			<ele>60.0999984741211</ele>
			<time>2013-12-29T15:44:03Z</time>
		</trkpt>
		<trkpt lat="39.5352973937988" lon="2.76748895645142">
			<ele>59.9000015258789</ele>
			<time>2013-12-29T15:44:05Z</time>
		</trkpt>
		<trkpt lat="39.5352210998535" lon="2.76743841171265">
			<ele>59.7999992370605</ele>
			<time>2013-12-29T15:44:07Z</time>
		</trkpt>
		<trkpt lat="39.5351409912109" lon="2.76739025115967">
			<ele>60</ele>
			<time>2013-12-29T15:44:09Z</time>
		</trkpt>
		<trkpt lat="39.5350646972656" lon="2.76734781265259">
			<ele>60</ele>
			<time>2013-12-29T15:44:11Z</time>
		</trkpt>
		<trkpt lat="39.5349807739258" lon="2.76732587814331">
			<ele>60.0999984741211</ele>
			<time>2013-12-29T15:44:13Z</time>
		</trkpt>
		<trkpt lat="39.5348930358887" lon="2.76732277870178">
			<ele>59.9000015258789</ele>
			<time>2013-12-29T15:44:15Z</time>
		</trkpt>
		<trkpt lat="39.5348091125488" lon="2.76733589172363">
			<ele>60</ele>
			<time>2013-12-29T15:44:17Z</time>
		</trkpt>
		<trkpt lat="39.534725189209" lon="2.76737117767334">
			<ele>59.9000015258789</ele>
			<time>2013-12-29T15:44:19Z</time>
		</trkpt>
		<trkpt lat="39.5346488952637" lon="2.76742315292358">
			<ele>60</ele>
			<time>2013-12-29T15:44:21Z</time>
		</trkpt>
		<trkpt lat="39.5345726013184" lon="2.76747727394104">
			<ele>60.0999984741211</ele>
			<time>2013-12-29T15:44:23Z</time>
		</trkpt>
		<trkpt lat="39.534496307373" lon="2.76753354072571">
			<ele>60</ele>
			<time>2013-12-29T15:44:25Z</time>
		</trkpt>
		<trkpt lat="39.5344200134277" lon="2.76758909225464">
			<ele>59.9000015258789</ele>
			<time>2013-12-29T15:44:27Z</time>
		</trkpt>
		<trkpt lat="39.5343399047852" lon="2.76764321327209">
			<ele>60</ele>
			<time>2013-12-29T15:44:29Z</time>
		</trkpt>
		<trkpt lat="39.5342636108398" lon="2.76769781112671">
			<ele>60</ele>
			<time>2013-12-29T15:44:31Z</time>
		</trkpt>
		<trkpt lat="39.5341835021973" lon="2.76774382591248">
			<ele>60.2000007629395</ele>
			<time>2013-12-29T15:44:33Z</time>
		</trkpt>
		<trkpt lat="39.5340995788574" lon="2.76778125762939">
			<ele>60.2000007629395</ele>
			<time>2013-12-29T15:44:35Z</time>
		</trkpt>
		<trkpt lat="39.5340156555176" lon="2.76780343055725">
			<ele>60.2999992370605</ele>
			<time>2013-12-29T15:44:37Z</time>
		</trkpt>
		<trkpt lat="39.5339279174805" lon="2.76781558990479">
			<ele>60.5999984741211</ele>
			<time>2013-12-29T15:44:39Z</time>
		</trkpt>
		<trkpt lat="39.5338401794434" lon="2.76781535148621">
			<ele>60.7000007629395</ele>
			<time>2013-12-29T15:44:41Z</time>
		</trkpt>
		<trkpt lat="39.5337600708008" lon="2.76779580116272">
			<ele>60.7000007629395</ele>
			<time>2013-12-29T15:44:43Z</time>
		</trkpt>
		<trkpt lat="39.5336837768555" lon="2.76776719093323">
			<ele>60.5999984741211</ele>
			<time>2013-12-29T15:44:45Z</time>
		</trkpt>
		<trkpt lat="39.5336074829102" lon="2.76772689819336">
			<ele>60.7000007629395</ele>
			<time>2013-12-29T15:44:47Z</time>
		</trkpt>
		<trkpt lat="39.5335311889648" lon="2.76768326759338">
			<ele>60.7999992370605</ele>
			<time>2013-12-29T15:44:49Z</time>
		</trkpt>
		<trkpt lat="39.5334548950195" lon="2.7676408290863">
			<ele>61</ele>
			<time>2013-12-29T15:44:51Z</time>
		</trkpt>
		<trkpt lat="39.5333824157715" lon="2.76759624481201">
			<ele>61.2999992370605</ele>
			<time>2013-12-29T15:44:53Z</time>
		</trkpt>
		<trkpt lat="39.5333099365234" lon="2.76755690574646">
			<ele>61.4000015258789</ele>
			<time>2013-12-29T15:44:55Z</time>
		</trkpt>
		<trkpt lat="39.5332336425781" lon="2.76751327514648">
			<ele>61.2999992370605</ele>
			<time>2013-12-29T15:44:57Z</time>
		</trkpt>
		<trkpt lat="39.5331573486328" lon="2.76746678352356">
			<ele>61.0999984741211</ele>
			<time>2013-12-29T15:44:59Z</time>
		</trkpt>
		<trkpt lat="39.5330848693848" lon="2.76742267608643">
			<ele>61.0999984741211</ele>
			<time>2013-12-29T15:45:01Z</time>
		</trkpt>
		<trkpt lat="39.5330123901367" lon="2.7673761844635">
			<ele>60.9000015258789</ele>
			<time>2013-12-29T15:45:03Z</time>
		</trkpt>
		<trkpt lat="39.5329360961914" lon="2.76733207702637">
			<ele>60.7999992370605</ele>
			<time>2013-12-29T15:45:05Z</time>
		</trkpt>
		<trkpt lat="39.5328598022461" lon="2.76728892326355">
			<ele>60.5</ele>
			<time>2013-12-29T15:45:07Z</time>
		</trkpt>
		<trkpt lat="39.5327835083008" lon="2.76724290847778">
			<ele>60.7000007629395</ele>
			<time>2013-12-29T15:45:09Z</time>
		</trkpt>
		<trkpt lat="39.5327072143555" lon="2.76719641685486">
			<ele>60.5999984741211</ele>
			<time>2013-12-29T15:45:11Z</time>
		</trkpt>
		<trkpt lat="39.5326347351074" lon="2.76714944839478">
			<ele>60.7000007629395</ele>
			<time>2013-12-29T15:45:13Z</time>
		</trkpt>
		<trkpt lat="39.5325622558594" lon="2.76710057258606">
			<ele>60.7999992370605</ele>
			<time>2013-12-29T15:45:15Z</time>
		</trkpt>
		<trkpt lat="39.5324859619141" lon="2.7670567035675">
			<ele>60.7000007629395</ele>
			<time>2013-12-29T15:45:17Z</time>
		</trkpt>
		<trkpt lat="39.5324096679688" lon="2.767014503479">
			<ele>60.9000015258789</ele>
			<time>2013-12-29T15:45:19Z</time>
		</trkpt>
		<trkpt lat="39.5323371887207" lon="2.76697301864624">
			<ele>60.7999992370605</ele>
			<time>2013-12-29T15:45:21Z</time>
		</trkpt>
		<trkpt lat="39.5322647094727" lon="2.76692748069763">
			<ele>60.7999992370605</ele>
			<time>2013-12-29T15:45:23Z</time>
		</trkpt>
		<trkpt lat="39.5321960449219" lon="2.76688385009766">
			<ele>60.9000015258789</ele>
			<time>2013-12-29T15:45:25Z</time>
		</trkpt>
		<trkpt lat="39.5321197509766" lon="2.76684021949768">
			<ele>60.9000015258789</ele>
			<time>2013-12-29T15:45:27Z</time>
		</trkpt>
		<trkpt lat="39.5320472717285" lon="2.76679801940918">
			<ele>61</ele>
			<time>2013-12-29T15:45:29Z</time>
		</trkpt>
		<trkpt lat="39.5319709777832" lon="2.76675772666931">
			<ele>60.9000015258789</ele>
			<time>2013-12-29T15:45:31Z</time>
		</trkpt>
		<trkpt lat="39.5318984985352" lon="2.76671385765076">
			<ele>61</ele>
			<time>2013-12-29T15:45:33Z</time>
		</trkpt>
		<trkpt lat="39.5318260192871" lon="2.76667261123657">
			<ele>61</ele>
			<time>2013-12-29T15:45:35Z</time>
		</trkpt>
		<trkpt lat="39.5317535400391" lon="2.76663374900818">
			<ele>61</ele>
			<time>2013-12-29T15:45:37Z</time>
		</trkpt>
		<trkpt lat="39.531681060791" lon="2.76658987998962">
			<ele>60.9000015258789</ele>
			<time>2013-12-29T15:45:39Z</time>
		</trkpt>
		<trkpt lat="39.5316123962402" lon="2.76654362678528">
			<ele>60.9000015258789</ele>
			<time>2013-12-29T15:45:41Z</time>
		</trkpt>
		<trkpt lat="39.5315399169922" lon="2.76650428771973">
			<ele>61</ele>
			<time>2013-12-29T15:45:43Z</time>
		</trkpt>
		<trkpt lat="39.5314674377441" lon="2.76646828651428">
			<ele>61.2000007629395</ele>
			<time>2013-12-29T15:45:45Z</time>
		</trkpt>
		<trkpt lat="39.5313949584961" lon="2.7664258480072">
			<ele>61.2000007629395</ele>
			<time>2013-12-29T15:45:47Z</time>
		</trkpt>
		<trkpt lat="39.531322479248" lon="2.76638603210449">
			<ele>61.2000007629395</ele>
			<time>2013-12-29T15:45:49Z</time>
		</trkpt>
		<trkpt lat="39.53125" lon="2.76634550094604">
			<ele>61.2999992370605</ele>
			<time>2013-12-29T15:45:51Z</time>
		</trkpt>
		<trkpt lat="39.5311813354492" lon="2.76630020141602">
			<ele>61.0999984741211</ele>
			<time>2013-12-29T15:45:53Z</time>
		</trkpt>
		<trkpt lat="39.5311126708984" lon="2.76625657081604">
			<ele>61.2999992370605</ele>
			<time>2013-12-29T15:45:55Z</time>
		</trkpt>
		<trkpt lat="39.5310363769531" lon="2.76621794700623">
			<ele>61.2999992370605</ele>
			<time>2013-12-29T15:45:57Z</time>
		</trkpt>
		<trkpt lat="39.5309295654297" lon="2.76614952087402">
			<ele>61.2000007629395</ele>
			<time>2013-12-29T15:46:00Z</time>
		</trkpt>
		<trkpt lat="39.5308532714844" lon="2.76610255241394">
			<ele>61.0999984741211</ele>
			<time>2013-12-29T15:46:02Z</time>
		</trkpt>
		<trkpt lat="39.5307807922363" lon="2.7660539150238">
			<ele>61.4000015258789</ele>
			<time>2013-12-29T15:46:04Z</time>
		</trkpt>
		<trkpt lat="39.530704498291" lon="2.7660117149353">
			<ele>61.5999984741211</ele>
			<time>2013-12-29T15:46:06Z</time>
		</trkpt>
		<trkpt lat="39.530632019043" lon="2.76596713066101">
			<ele>61.5</ele>
			<time>2013-12-29T15:46:08Z</time>
		</trkpt>
		<trkpt lat="39.5305557250977" lon="2.76592683792114">
			<ele>61.7000007629395</ele>
			<time>2013-12-29T15:46:10Z</time>
		</trkpt>
		<trkpt lat="39.5304832458496" lon="2.76588535308838">
			<ele>61.7999992370605</ele>
			<time>2013-12-29T15:46:12Z</time>
		</trkpt>
		<trkpt lat="39.5304069519043" lon="2.7658371925354">
			<ele>61.5999984741211</ele>
			<time>2013-12-29T15:46:14Z</time>
		</trkpt>
		<trkpt lat="39.5303344726563" lon="2.76578998565674">
			<ele>61.5</ele>
			<time>2013-12-29T15:46:16Z</time>
		</trkpt>
		<trkpt lat="39.5302581787109" lon="2.76574850082397">
			<ele>61.2999992370605</ele>
			<time>2013-12-29T15:46:18Z</time>
		</trkpt>
		<trkpt lat="39.5301818847656" lon="2.765704870224">
			<ele>61.4000015258789</ele>
			<time>2013-12-29T15:46:20Z</time>
		</trkpt>
		<trkpt lat="39.5301055908203" lon="2.76566243171692">
			<ele>61.2000007629395</ele>
			<time>2013-12-29T15:46:22Z</time>
		</trkpt>
		<trkpt lat="39.530029296875" lon="2.76562023162842">
			<ele>61.0999984741211</ele>
			<time>2013-12-29T15:46:24Z</time>
		</trkpt>
		<trkpt lat="39.5299491882324" lon="2.76557445526123">
			<ele>61</ele>
			<time>2013-12-29T15:46:26Z</time>
		</trkpt>
		<trkpt lat="39.5298767089844" lon="2.76553177833557">
			<ele>60.7999992370605</ele>
			<time>2013-12-29T15:46:28Z</time>
		</trkpt>
		<trkpt lat="39.5297966003418" lon="2.76548886299133">
			<ele>60.7000007629395</ele>
			<time>2013-12-29T15:46:30Z</time>
		</trkpt>
		<trkpt lat="39.5297241210938" lon="2.76544523239136">
			<ele>60.7000007629395</ele>
			<time>2013-12-29T15:46:32Z</time>
		</trkpt>
		<trkpt lat="39.5296478271484" lon="2.76540040969849">
			<ele>60.7000007629395</ele>
			<time>2013-12-29T15:46:34Z</time>
		</trkpt>
		<trkpt lat="39.5295715332031" lon="2.76535439491272">
			<ele>60.5999984741211</ele>
			<time>2013-12-29T15:46:36Z</time>
		</trkpt>
		<trkpt lat="39.5294952392578" lon="2.76530480384827">
			<ele>60.7000007629395</ele>
			<time>2013-12-29T15:46:38Z</time>
		</trkpt>
		<trkpt lat="39.5294189453125" lon="2.76525902748108">
			<ele>60.5999984741211</ele>
			<time>2013-12-29T15:46:40Z</time>
		</trkpt>
		<trkpt lat="39.5293388366699" lon="2.76521468162537">
			<ele>60.5</ele>
			<time>2013-12-29T15:46:42Z</time>
		</trkpt>
		<trkpt lat="39.5292625427246" lon="2.76516652107239">
			<ele>60.5</ele>
			<time>2013-12-29T15:46:44Z</time>
		</trkpt>
		<trkpt lat="39.5291862487793" lon="2.76512169837952">
			<ele>60.4000015258789</ele>
			<time>2013-12-29T15:46:46Z</time>
		</trkpt>
		<trkpt lat="39.529109954834" lon="2.76508021354675">
			<ele>60.5999984741211</ele>
			<time>2013-12-29T15:46:48Z</time>
		</trkpt>
		<trkpt lat="39.5290336608887" lon="2.76503109931946">
			<ele>60.4000015258789</ele>
			<time>2013-12-29T15:46:50Z</time>
		</trkpt>
		<trkpt lat="39.5289611816406" lon="2.7649872303009">
			<ele>60.4000015258789</ele>
			<time>2013-12-29T15:46:52Z</time>
		</trkpt>
		<trkpt lat="39.5288848876953" lon="2.76493906974792">
			<ele>60.0999984741211</ele>
			<time>2013-12-29T15:46:54Z</time>
		</trkpt>
		<trkpt lat="39.52880859375" lon="2.76489448547363">
			<ele>60.0999984741211</ele>
			<time>2013-12-29T15:46:56Z</time>
		</trkpt>
		<trkpt lat="39.5287322998047" lon="2.76485371589661">
			<ele>60.2000007629395</ele>
			<time>2013-12-29T15:46:58Z</time>
		</trkpt>
		<trkpt lat="39.5286560058594" lon="2.76480627059937">
			<ele>60.2000007629395</ele>
			<time>2013-12-29T15:47:00Z</time>
		</trkpt>
		<trkpt lat="39.5285797119141" lon="2.76476263999939">
			<ele>60.0999984741211</ele>
			<time>2013-12-29T15:47:02Z</time>
		</trkpt>
		<trkpt lat="39.5285034179688" lon="2.76471829414368">
			<ele>60</ele>
			<time>2013-12-29T15:47:04Z</time>
		</trkpt>
		<trkpt lat="39.5284309387207" lon="2.7646758556366">
			<ele>59.9000015258789</ele>
			<time>2013-12-29T15:47:06Z</time>
		</trkpt>
		<trkpt lat="39.5283584594727" lon="2.76463079452515">
			<ele>59.9000015258789</ele>
			<time>2013-12-29T15:47:08Z</time>
		</trkpt>
		<trkpt lat="39.5282821655273" lon="2.76458549499512">
			<ele>60</ele>
			<time>2013-12-29T15:47:10Z</time>
		</trkpt>
		<trkpt lat="39.528205871582" lon="2.7645411491394">
			<ele>59.9000015258789</ele>
			<time>2013-12-29T15:47:12Z</time>
		</trkpt>
		<trkpt lat="39.5281295776367" lon="2.76449966430664">
			<ele>59.7999992370605</ele>
			<time>2013-12-29T15:47:14Z</time>
		</trkpt>
		<trkpt lat="39.5280570983887" lon="2.76445746421814">
			<ele>59.9000015258789</ele>
			<time>2013-12-29T15:47:16Z</time>
		</trkpt>
		<trkpt lat="39.5279846191406" lon="2.76441073417664">
			<ele>60.0999984741211</ele>
			<time>2013-12-29T15:47:18Z</time>
		</trkpt>
		<trkpt lat="39.5279121398926" lon="2.76436519622803">
			<ele>60.0999984741211</ele>
			<time>2013-12-29T15:47:20Z</time>
		</trkpt>
		<trkpt lat="39.5278396606445" lon="2.76432394981384">
			<ele>60.2000007629395</ele>
			<time>2013-12-29T15:47:22Z</time>
		</trkpt>
		<trkpt lat="39.5277671813965" lon="2.76427745819092">
			<ele>60.2000007629395</ele>
			<time>2013-12-29T15:47:24Z</time>
		</trkpt>
		<trkpt lat="39.5276908874512" lon="2.76423168182373">
			<ele>60</ele>
			<time>2013-12-29T15:47:26Z</time>
		</trkpt>
		<trkpt lat="39.5276222229004" lon="2.76418924331665">
			<ele>60.0999984741211</ele>
			<time>2013-12-29T15:47:28Z</time>
		</trkpt>
		<trkpt lat="39.5275497436523" lon="2.76414752006531">
			<ele>60.0999984741211</ele>
			<time>2013-12-29T15:47:30Z</time>
		</trkpt>
		<trkpt lat="39.527473449707" lon="2.76410818099976">
			<ele>60.2999992370605</ele>
			<time>2013-12-29T15:47:32Z</time>
		</trkpt>
		<trkpt lat="39.527400970459" lon="2.76406645774841">
			<ele>60.2999992370605</ele>
			<time>2013-12-29T15:47:34Z</time>
		</trkpt>
		<trkpt lat="39.5273246765137" lon="2.76402902603149">
			<ele>60.4000015258789</ele>
			<time>2013-12-29T15:47:36Z</time>
		</trkpt>
		<trkpt lat="39.5272483825684" lon="2.76399230957031">
			<ele>60.5</ele>
			<time>2013-12-29T15:47:38Z</time>
		</trkpt>
		<trkpt lat="39.5271759033203" lon="2.76396107673645">
			<ele>60.7000007629395</ele>
			<time>2013-12-29T15:47:40Z</time>
		</trkpt>
		<trkpt lat="39.527099609375" lon="2.76393532752991">
			<ele>60.7000007629395</ele>
			<time>2013-12-29T15:47:42Z</time>
		</trkpt>
		<trkpt lat="39.5270233154297" lon="2.76390910148621">
			<ele>60.7999992370605</ele>
			<time>2013-12-29T15:47:44Z</time>
		</trkpt>
		<trkpt lat="39.5269470214844" lon="2.76388025283813">
			<ele>60.5999984741211</ele>
			<time>2013-12-29T15:47:46Z</time>
		</trkpt>
		<trkpt lat="39.5268745422363" lon="2.76386165618896">
			<ele>60.4000015258789</ele>
			<time>2013-12-29T15:47:48Z</time>
		</trkpt>
		<trkpt lat="39.5268020629883" lon="2.76383757591248">
			<ele>60.4000015258789</ele>
			<time>2013-12-29T15:47:50Z</time>
		</trkpt>
		<trkpt lat="39.5267333984375" lon="2.76381754875183">
			<ele>60.5999984741211</ele>
			<time>2013-12-29T15:47:52Z</time>
		</trkpt>
		<trkpt lat="39.5266647338867" lon="2.76379203796387">
			<ele>60.5</ele>
			<time>2013-12-29T15:47:54Z</time>
		</trkpt>
		<trkpt lat="39.5265922546387" lon="2.76377248764038">
			<ele>60.5</ele>
			<time>2013-12-29T15:47:56Z</time>
		</trkpt>
		<trkpt lat="39.5265197753906" lon="2.76374959945679">
			<ele>60.7000007629395</ele>
			<time>2013-12-29T15:47:58Z</time>
		</trkpt>
		<trkpt lat="39.5264472961426" lon="2.76372289657593">
			<ele>60.9000015258789</ele>
			<time>2013-12-29T15:48:00Z</time>
		</trkpt>
		<trkpt lat="39.5263710021973" lon="2.76370000839233">
			<ele>60.7999992370605</ele>
			<time>2013-12-29T15:48:02Z</time>
		</trkpt>
		<trkpt lat="39.5262908935547" lon="2.763676404953">
			<ele>60.5</ele>
			<time>2013-12-29T15:48:04Z</time>
		</trkpt>
		<trkpt lat="39.5262107849121" lon="2.76364922523499">
			<ele>60.4000015258789</ele>
			<time>2013-12-29T15:48:06Z</time>
		</trkpt>
		<trkpt lat="39.5261306762695" lon="2.76362252235413">
			<ele>60.5</ele>
			<time>2013-12-29T15:48:08Z</time>
		</trkpt>
		<trkpt lat="39.5260543823242" lon="2.76359629631042">
			<ele>60.5</ele>
			<time>2013-12-29T15:48:10Z</time>
		</trkpt>
		<trkpt lat="39.5259742736816" lon="2.76357054710388">
			<ele>60.2999992370605</ele>
			<time>2013-12-29T15:48:12Z</time>
		</trkpt>
		<trkpt lat="39.5258941650391" lon="2.76354598999023">
			<ele>60.5</ele>
			<time>2013-12-29T15:48:14Z</time>
		</trkpt>
		<trkpt lat="39.5258178710938" lon="2.76351881027222">
			<ele>60.5999984741211</ele>
			<time>2013-12-29T15:48:16Z</time>
		</trkpt>
		<trkpt lat="39.5257339477539" lon="2.76348876953125">
			<ele>60.4000015258789</ele>
			<time>2013-12-29T15:48:18Z</time>
		</trkpt>
		<trkpt lat="39.5256576538086" lon="2.76346373558044">
			<ele>60.4000015258789</ele>
			<time>2013-12-29T15:48:20Z</time>
		</trkpt>
		<trkpt lat="39.525577545166" lon="2.76343750953674">
			<ele>60.2000007629395</ele>
			<time>2013-12-29T15:48:22Z</time>
		</trkpt>
		<trkpt lat="39.5254974365234" lon="2.76341080665588">
			<ele>60.2000007629395</ele>
			<time>2013-12-29T15:48:24Z</time>
		</trkpt>
		<trkpt lat="39.5254173278809" lon="2.76338243484497">
			<ele>60.2999992370605</ele>
			<time>2013-12-29T15:48:26Z</time>
		</trkpt>
		<trkpt lat="39.5253372192383" lon="2.76335549354553">
			<ele>60.4000015258789</ele>
			<time>2013-12-29T15:48:28Z</time>
		</trkpt>
		<trkpt lat="39.525260925293" lon="2.76332998275757">
			<ele>60.5999984741211</ele>
			<time>2013-12-29T15:48:30Z</time>
		</trkpt>
		<trkpt lat="39.5251808166504" lon="2.76330256462097">
			<ele>60.7000007629395</ele>
			<time>2013-12-29T15:48:32Z</time>
		</trkpt>
		<trkpt lat="39.5251083374023" lon="2.76328158378601">
			<ele>60.7000007629395</ele>
			<time>2013-12-29T15:48:34Z</time>
		</trkpt>
		<trkpt lat="39.5250282287598" lon="2.76325726509094">
			<ele>60.7999992370605</ele>
			<time>2013-12-29T15:48:36Z</time>
		</trkpt>
		<trkpt lat="39.5249519348145" lon="2.76323652267456">
			<ele>61</ele>
			<time>2013-12-29T15:48:38Z</time>
		</trkpt>
		<trkpt lat="39.5248756408691" lon="2.76321339607239">
			<ele>61.0999984741211</ele>
			<time>2013-12-29T15:48:40Z</time>
		</trkpt>
		<trkpt lat="39.5247993469238" lon="2.76318573951721">
			<ele>61.2999992370605</ele>
			<time>2013-12-29T15:48:42Z</time>
		</trkpt>
		<trkpt lat="39.5247268676758" lon="2.76315760612488">
			<ele>61.5</ele>
			<time>2013-12-29T15:48:44Z</time>
		</trkpt>
		<trkpt lat="39.5246505737305" lon="2.76313972473145">
			<ele>61.7000007629395</ele>
			<time>2013-12-29T15:48:46Z</time>
		</trkpt>
		<trkpt lat="39.5245780944824" lon="2.76311135292053">
			<ele>61.5999984741211</ele>
			<time>2013-12-29T15:48:48Z</time>
		</trkpt>
		<trkpt lat="39.5244979858398" lon="2.76308417320251">
			<ele>61.7999992370605</ele>
			<time>2013-12-29T15:48:50Z</time>
		</trkpt>
		<trkpt lat="39.5244216918945" lon="2.76305603981018">
			<ele>61.7999992370605</ele>
			<time>2013-12-29T15:48:52Z</time>
		</trkpt>
		<trkpt lat="39.5243453979492" lon="2.76302695274353">
			<ele>61.7999992370605</ele>
			<time>2013-12-29T15:48:54Z</time>
		</trkpt>
		<trkpt lat="39.5242691040039" lon="2.7630021572113">
			<ele>61.7999992370605</ele>
			<time>2013-12-29T15:48:56Z</time>
		</trkpt>
		<trkpt lat="39.5241966247559" lon="2.76297497749329">
			<ele>61.9000015258789</ele>
			<time>2013-12-29T15:48:58Z</time>
		</trkpt>
		<trkpt lat="39.5241241455078" lon="2.76295232772827">
			<ele>61.7000007629395</ele>
			<time>2013-12-29T15:49:00Z</time>
		</trkpt>
		<trkpt lat="39.5240440368652" lon="2.76292681694031">
			<ele>61.7000007629395</ele>
			<time>2013-12-29T15:49:02Z</time>
		</trkpt>
		<trkpt lat="39.5239639282227" lon="2.76290249824524">
			<ele>61.5</ele>
			<time>2013-12-29T15:49:04Z</time>
		</trkpt>
		<trkpt lat="39.5238800048828" lon="2.7628755569458">
			<ele>61.2000007629395</ele>
			<time>2013-12-29T15:49:06Z</time>
		</trkpt>
		<trkpt lat="39.523796081543" lon="2.76284599304199">
			<ele>60.7999992370605</ele>
			<time>2013-12-29T15:49:08Z</time>
		</trkpt>
		<trkpt lat="39.5237083435059" lon="2.76281642913818">
			<ele>60.7000007629395</ele>
			<time>2013-12-29T15:49:10Z</time>
		</trkpt>
		<trkpt lat="39.5236625671387" lon="2.76280283927917">
			<ele>60.5</ele>
			<time>2013-12-29T15:49:11Z</time>
		</trkpt>
		<trkpt lat="39.5236206054688" lon="2.76278924942017">
			<ele>60.2000007629395</ele>
			<time>2013-12-29T15:49:12Z</time>
		</trkpt>
		<trkpt lat="39.5235748291016" lon="2.76277303695679">
			<ele>60.2000007629395</ele>
			<time>2013-12-29T15:49:13Z</time>
		</trkpt>
		<trkpt lat="39.5235290527344" lon="2.76275706291199">
			<ele>60.0999984741211</ele>
			<time>2013-12-29T15:49:14Z</time>
		</trkpt>
		<trkpt lat="39.5234832763672" lon="2.76274180412292">
			<ele>59.9000015258789</ele>
			<time>2013-12-29T15:49:15Z</time>
		</trkpt>
		<trkpt lat="39.5234413146973" lon="2.7627272605896">
			<ele>59.9000015258789</ele>
			<time>2013-12-29T15:49:16Z</time>
		</trkpt>
		<trkpt lat="39.5233917236328" lon="2.76271414756775">
			<ele>59.7000007629395</ele>
			<time>2013-12-29T15:49:17Z</time>
		</trkpt>
		<trkpt lat="39.5233497619629" lon="2.76269745826721">
			<ele>59.9000015258789</ele>
			<time>2013-12-29T15:49:18Z</time>
		</trkpt>
		<trkpt lat="39.5233039855957" lon="2.76268124580383">
			<ele>59.9000015258789</ele>
			<time>2013-12-29T15:49:19Z</time>
		</trkpt>
		<trkpt lat="39.5232543945313" lon="2.76266717910767">
			<ele>59.7999992370605</ele>
			<time>2013-12-29T15:49:20Z</time>
		</trkpt>
		<trkpt lat="39.5232086181641" lon="2.76264977455139">
			<ele>60</ele>
			<time>2013-12-29T15:49:21Z</time>
		</trkpt>
		<trkpt lat="39.5231628417969" lon="2.76263332366943">
			<ele>60</ele>
			<time>2013-12-29T15:49:22Z</time>
		</trkpt>
		<trkpt lat="39.5231170654297" lon="2.76262068748474">
			<ele>60.0999984741211</ele>
			<time>2013-12-29T15:49:23Z</time>
		</trkpt>
		<trkpt lat="39.5230331420898" lon="2.76259136199951">
			<ele>60</ele>
			<time>2013-12-29T15:49:25Z</time>
		</trkpt>
		<trkpt lat="39.5229873657227" lon="2.7625777721405">
			<ele>60.0999984741211</ele>
			<time>2013-12-29T15:49:26Z</time>
		</trkpt>
		<trkpt lat="39.5228996276855" lon="2.76255059242249">
			<ele>60.0999984741211</ele>
			<time>2013-12-29T15:49:28Z</time>
		</trkpt>
		<trkpt lat="39.5228576660156" lon="2.76253890991211">
			<ele>59.7000007629395</ele>
			<time>2013-12-29T15:49:29Z</time>
		</trkpt>
		<trkpt lat="39.5228118896484" lon="2.7625253200531">
			<ele>59.5999984741211</ele>
			<time>2013-12-29T15:49:30Z</time>
		</trkpt>
		<trkpt lat="39.5227699279785" lon="2.76251125335693">
			<ele>59.5999984741211</ele>
			<time>2013-12-29T15:49:31Z</time>
		</trkpt>
		<trkpt lat="39.5227241516113" lon="2.7624945640564">
			<ele>59.7999992370605</ele>
			<time>2013-12-29T15:49:32Z</time>
		</trkpt>
		<trkpt lat="39.5226402282715" lon="2.76246666908264">
			<ele>60</ele>
			<time>2013-12-29T15:49:34Z</time>
		</trkpt>
		<trkpt lat="39.5225563049316" lon="2.76243615150452">
			<ele>59.7999992370605</ele>
			<time>2013-12-29T15:49:36Z</time>
		</trkpt>
		<trkpt lat="39.5224723815918" lon="2.76240730285645">
			<ele>59.9000015258789</ele>
			<time>2013-12-29T15:49:38Z</time>
		</trkpt>
		<trkpt lat="39.5223846435547" lon="2.76237940788269">
			<ele>59.7999992370605</ele>
			<time>2013-12-29T15:49:40Z</time>
		</trkpt>
		<trkpt lat="39.5223007202148" lon="2.76235032081604">
			<ele>60</ele>
			<time>2013-12-29T15:49:42Z</time>
		</trkpt>
		<trkpt lat="39.5222549438477" lon="2.76233625411987">
			<ele>60</ele>
			<time>2013-12-29T15:49:43Z</time>
		</trkpt>
		<trkpt lat="39.5221710205078" lon="2.76230549812317">
			<ele>59.9000015258789</ele>
			<time>2013-12-29T15:49:45Z</time>
		</trkpt>
		<trkpt lat="39.5220832824707" lon="2.76227784156799">
			<ele>59.9000015258789</ele>
			<time>2013-12-29T15:49:47Z</time>
		</trkpt>
		<trkpt lat="39.5219993591309" lon="2.76225137710571">
			<ele>60</ele>
			<time>2013-12-29T15:49:49Z</time>
		</trkpt>
		<trkpt lat="39.521915435791" lon="2.76222372055054">
			<ele>59.9000015258789</ele>
			<time>2013-12-29T15:49:51Z</time>
		</trkpt>
		<trkpt lat="39.5218353271484" lon="2.76219630241394">
			<ele>60.0999984741211</ele>
			<time>2013-12-29T15:49:53Z</time>
		</trkpt>
		<trkpt lat="39.5217514038086" lon="2.7621705532074">
			<ele>60</ele>
			<time>2013-12-29T15:49:55Z</time>
		</trkpt>
		<trkpt lat="39.5216674804688" lon="2.76214599609375">
			<ele>60</ele>
			<time>2013-12-29T15:49:57Z</time>
		</trkpt>
		<trkpt lat="39.5216217041016" lon="2.76213264465332">
			<ele>60.0999984741211</ele>
			<time>2013-12-29T15:49:58Z</time>
		</trkpt>
		<trkpt lat="39.521541595459" lon="2.76210308074951">
			<ele>60.0999984741211</ele>
			<time>2013-12-29T15:50:00Z</time>
		</trkpt>
		<trkpt lat="39.5214538574219" lon="2.76207447052002">
			<ele>60.2000007629395</ele>
			<time>2013-12-29T15:50:02Z</time>
		</trkpt>
		<trkpt lat="39.521369934082" lon="2.76204967498779">
			<ele>60.2000007629395</ele>
			<time>2013-12-29T15:50:04Z</time>
		</trkpt>
		<trkpt lat="39.5212860107422" lon="2.76202249526978">
			<ele>60.0999984741211</ele>
			<time>2013-12-29T15:50:06Z</time>
		</trkpt>
		<trkpt lat="39.5212020874023" lon="2.76199507713318">
			<ele>60.2000007629395</ele>
			<time>2013-12-29T15:50:08Z</time>
		</trkpt>
		<trkpt lat="39.5211181640625" lon="2.76197075843811">
			<ele>60.5</ele>
			<time>2013-12-29T15:50:10Z</time>
		</trkpt>
		<trkpt lat="39.5210342407227" lon="2.76194834709167">
			<ele>60.5</ele>
			<time>2013-12-29T15:50:12Z</time>
		</trkpt>
		<trkpt lat="39.5209541320801" lon="2.76191926002502">
			<ele>60.5999984741211</ele>
			<time>2013-12-29T15:50:14Z</time>
		</trkpt>
		<trkpt lat="39.5208740234375" lon="2.76189208030701">
			<ele>60.7000007629395</ele>
			<time>2013-12-29T15:50:16Z</time>
		</trkpt>
		<trkpt lat="39.5208015441895" lon="2.7618670463562">
			<ele>60.9000015258789</ele>
			<time>2013-12-29T15:50:18Z</time>
		</trkpt>
		<trkpt lat="39.5207290649414" lon="2.76184320449829">
			<ele>61.2999992370605</ele>
			<time>2013-12-29T15:50:20Z</time>
		</trkpt>
		<trkpt lat="39.5206604003906" lon="2.76182436943054">
			<ele>61.5999984741211</ele>
			<time>2013-12-29T15:50:22Z</time>
		</trkpt>
		<trkpt lat="39.5205955505371" lon="2.76180386543274">
			<ele>61.5999984741211</ele>
			<time>2013-12-29T15:50:24Z</time>
		</trkpt>
		<trkpt lat="39.5205307006836" lon="2.76177859306335">
			<ele>61.5999984741211</ele>
			<time>2013-12-29T15:50:26Z</time>
		</trkpt>
		<trkpt lat="39.5204658508301" lon="2.76176047325134">
			<ele>61.9000015258789</ele>
			<time>2013-12-29T15:50:28Z</time>
		</trkpt>
		<trkpt lat="39.5204048156738" lon="2.7617392539978">
			<ele>62</ele>
			<time>2013-12-29T15:50:30Z</time>
		</trkpt>
		<trkpt lat="39.5203437805176" lon="2.76172065734863">
			<ele>62.0999984741211</ele>
			<time>2013-12-29T15:50:32Z</time>
		</trkpt>
		<trkpt lat="39.5202827453613" lon="2.76169896125793">
			<ele>62.5</ele>
			<time>2013-12-29T15:50:34Z</time>
		</trkpt>
		<trkpt lat="39.5202255249023" lon="2.7616765499115">
			<ele>62.5</ele>
			<time>2013-12-29T15:50:36Z</time>
		</trkpt>
		<trkpt lat="39.5201683044434" lon="2.76166033744812">
			<ele>62.5999984741211</ele>
			<time>2013-12-29T15:50:38Z</time>
		</trkpt>
		<trkpt lat="39.5201072692871" lon="2.76163625717163">
			<ele>63</ele>
			<time>2013-12-29T15:50:40Z</time>
		</trkpt>
		<trkpt lat="39.5200500488281" lon="2.76161670684814">
			<ele>63</ele>
			<time>2013-12-29T15:50:42Z</time>
		</trkpt>
		<trkpt lat="39.5199928283691" lon="2.76159238815308">
			<ele>63.5</ele>
			<time>2013-12-29T15:50:44Z</time>
		</trkpt>
		<trkpt lat="39.5199356079102" lon="2.76157164573669">
			<ele>63.7000007629395</ele>
			<time>2013-12-29T15:50:46Z</time>
		</trkpt>
		<trkpt lat="39.5198860168457" lon="2.76155638694763">
			<ele>64</ele>
			<time>2013-12-29T15:50:47Z</time>
		</trkpt>
		<trkpt lat="39.519832611084" lon="2.76152992248535">
			<ele>64.3000030517578</ele>
			<time>2013-12-29T15:50:50Z</time>
		</trkpt>
		<trkpt lat="39.5197792053223" lon="2.76150941848755">
			<ele>64.5999984741211</ele>
			<time>2013-12-29T15:50:51Z</time>
		</trkpt>
		<trkpt lat="39.5197257995605" lon="2.76148271560669">
			<ele>64.9000015258789</ele>
			<time>2013-12-29T15:50:54Z</time>
		</trkpt>
		<trkpt lat="39.5196685791016" lon="2.76144957542419">
			<ele>65</ele>
			<time>2013-12-29T15:50:56Z</time>
		</trkpt>
		<trkpt lat="39.5196151733398" lon="2.76139879226685">
			<ele>65.1999969482422</ele>
			<time>2013-12-29T15:50:58Z</time>
		</trkpt>
		<trkpt lat="39.5195732116699" lon="2.76133179664612">
			<ele>65.5</ele>
			<time>2013-12-29T15:51:00Z</time>
		</trkpt>
		<trkpt lat="39.5195350646973" lon="2.7612612247467">
			<ele>65.6999969482422</ele>
			<time>2013-12-29T15:51:02Z</time>
		</trkpt>
		<trkpt lat="39.5194931030273" lon="2.76119494438171">
			<ele>65.8000030517578</ele>
			<time>2013-12-29T15:51:04Z</time>
		</trkpt>
		<trkpt lat="39.5194282531738" lon="2.76117324829102">
			<ele>65.5999984741211</ele>
			<time>2013-12-29T15:51:06Z</time>
		</trkpt>
		<trkpt lat="39.5193710327148" lon="2.76115894317627">
			<ele>65.5999984741211</ele>
			<time>2013-12-29T15:51:08Z</time>
		</trkpt>
		<trkpt lat="39.5193099975586" lon="2.7611620426178">
			<ele>65.9000015258789</ele>
			<time>2013-12-29T15:51:10Z</time>
		</trkpt>
		<trkpt lat="39.5192489624023" lon="2.76117849349976">
			<ele>66</ele>
			<time>2013-12-29T15:51:12Z</time>
		</trkpt>
		<trkpt lat="39.5191841125488" lon="2.76118588447571">
			<ele>66.5</ele>
			<time>2013-12-29T15:51:14Z</time>
		</trkpt>
		<trkpt lat="39.5191230773926" lon="2.76117539405823">
			<ele>66.8000030517578</ele>
			<time>2013-12-29T15:51:16Z</time>
		</trkpt>
		<trkpt lat="39.5190620422363" lon="2.76114535331726">
			<ele>66.8000030517578</ele>
			<time>2013-12-29T15:51:18Z</time>
		</trkpt>
		<trkpt lat="39.5190086364746" lon="2.76111483573914">
			<ele>66.8000030517578</ele>
			<time>2013-12-29T15:51:20Z</time>
		</trkpt>
		<trkpt lat="39.5189514160156" lon="2.76108837127686">
			<ele>66.9000015258789</ele>
			<time>2013-12-29T15:51:22Z</time>
		</trkpt>
		<trkpt lat="39.5188980102539" lon="2.76105928421021">
			<ele>66.8000030517578</ele>
			<time>2013-12-29T15:51:24Z</time>
		</trkpt>
		<trkpt lat="39.5188369750977" lon="2.76103091239929">
			<ele>66.9000015258789</ele>
			<time>2013-12-29T15:51:26Z</time>
		</trkpt>
		<trkpt lat="39.5187759399414" lon="2.76100254058838">
			<ele>66.8000030517578</ele>
			<time>2013-12-29T15:51:28Z</time>
		</trkpt>
		<trkpt lat="39.5187149047852" lon="2.7609760761261">
			<ele>66.9000015258789</ele>
			<time>2013-12-29T15:51:30Z</time>
		</trkpt>
		<trkpt lat="39.5186576843262" lon="2.76094818115234">
			<ele>66.6999969482422</ele>
			<time>2013-12-29T15:51:32Z</time>
		</trkpt>
		<trkpt lat="39.5185928344727" lon="2.76091694831848">
			<ele>66.5999984741211</ele>
			<time>2013-12-29T15:51:34Z</time>
		</trkpt>
		<trkpt lat="39.5185317993164" lon="2.7608847618103">
			<ele>66.5</ele>
			<time>2013-12-29T15:51:36Z</time>
		</trkpt>
		<trkpt lat="39.5184631347656" lon="2.76085233688354">
			<ele>66.5</ele>
			<time>2013-12-29T15:51:38Z</time>
		</trkpt>
		<trkpt lat="39.5183982849121" lon="2.76081800460815">
			<ele>66.8000030517578</ele>
			<time>2013-12-29T15:51:40Z</time>
		</trkpt>
		<trkpt lat="39.5183258056641" lon="2.76078963279724">
			<ele>66.5</ele>
			<time>2013-12-29T15:51:42Z</time>
		</trkpt>
		<trkpt lat="39.5182495117188" lon="2.76075124740601">
			<ele>66.3000030517578</ele>
			<time>2013-12-29T15:51:44Z</time>
		</trkpt>
		<trkpt lat="39.5181655883789" lon="2.76070809364319">
			<ele>66.0999984741211</ele>
			<time>2013-12-29T15:51:46Z</time>
		</trkpt>
		<trkpt lat="39.518123626709" lon="2.76068353652954">
			<ele>65.9000015258789</ele>
			<time>2013-12-29T15:51:47Z</time>
		</trkpt>
		<trkpt lat="39.5180778503418" lon="2.76065516471863">
			<ele>65.8000030517578</ele>
			<time>2013-12-29T15:51:48Z</time>
		</trkpt>
		<trkpt lat="39.5180358886719" lon="2.76062178611755">
			<ele>65.5</ele>
			<time>2013-12-29T15:51:49Z</time>
		</trkpt>
		<trkpt lat="39.517993927002" lon="2.76058053970337">
			<ele>65.1999969482422</ele>
			<time>2013-12-29T15:51:50Z</time>
		</trkpt>
		<trkpt lat="39.5179595947266" lon="2.76052808761597">
			<ele>64.9000015258789</ele>
			<time>2013-12-29T15:51:51Z</time>
		</trkpt>
		<trkpt lat="39.5179290771484" lon="2.76047134399414">
			<ele>64.5999984741211</ele>
			<time>2013-12-29T15:51:52Z</time>
		</trkpt>
		<trkpt lat="39.5178985595703" lon="2.76041340827942">
			<ele>64.4000015258789</ele>
			<time>2013-12-29T15:51:53Z</time>
		</trkpt>
		<trkpt lat="39.5178642272949" lon="2.76036310195923">
			<ele>64</ele>
			<time>2013-12-29T15:51:54Z</time>
		</trkpt>
		<trkpt lat="39.517822265625" lon="2.76031994819641">
			<ele>63.9000015258789</ele>
			<time>2013-12-29T15:51:55Z</time>
		</trkpt>
		<trkpt lat="39.517765045166" lon="2.76029777526855">
			<ele>64.0999984741211</ele>
			<time>2013-12-29T15:51:56Z</time>
		</trkpt>
		<trkpt lat="39.517707824707" lon="2.76029562950134">
			<ele>64</ele>
			<time>2013-12-29T15:51:57Z</time>
		</trkpt>
		<trkpt lat="39.517650604248" lon="2.76030588150024">
			<ele>63.5999984741211</ele>
			<time>2013-12-29T15:51:58Z</time>
		</trkpt>
		<trkpt lat="39.5175895690918" lon="2.7603120803833">
			<ele>63.9000015258789</ele>
			<time>2013-12-29T15:51:59Z</time>
		</trkpt>
		<trkpt lat="39.5175323486328" lon="2.76031446456909">
			<ele>63.5999984741211</ele>
			<time>2013-12-29T15:52:00Z</time>
		</trkpt>
		<trkpt lat="39.5174713134766" lon="2.7603166103363">
			<ele>63.4000015258789</ele>
			<time>2013-12-29T15:52:01Z</time>
		</trkpt>
		<trkpt lat="39.5174140930176" lon="2.76030778884888">
			<ele>63.0999984741211</ele>
			<time>2013-12-29T15:52:02Z</time>
		</trkpt>
		<trkpt lat="39.5173568725586" lon="2.76029014587402">
			<ele>63</ele>
			<time>2013-12-29T15:52:03Z</time>
		</trkpt>
		<trkpt lat="39.5172920227051" lon="2.76027059555054">
			<ele>62.7999992370605</ele>
			<time>2013-12-29T15:52:04Z</time>
		</trkpt>
		<trkpt lat="39.5172386169434" lon="2.76024222373962">
			<ele>62.7000007629395</ele>
			<time>2013-12-29T15:52:05Z</time>
		</trkpt>
		<trkpt lat="39.5171813964844" lon="2.7602162361145">
			<ele>62.7999992370605</ele>
			<time>2013-12-29T15:52:06Z</time>
		</trkpt>
		<trkpt lat="39.5171279907227" lon="2.76019167900085">
			<ele>62.7999992370605</ele>
			<time>2013-12-29T15:52:07Z</time>
		</trkpt>
		<trkpt lat="39.5170707702637" lon="2.76016402244568">
			<ele>62.7999992370605</ele>
			<time>2013-12-29T15:52:08Z</time>
		</trkpt>
		<trkpt lat="39.5170211791992" lon="2.76013803482056">
			<ele>62.5999984741211</ele>
			<time>2013-12-29T15:52:09Z</time>
		</trkpt>
		<trkpt lat="39.5169677734375" lon="2.76010894775391">
			<ele>62.5</ele>
			<time>2013-12-29T15:52:10Z</time>
		</trkpt>
		<trkpt lat="39.5169143676758" lon="2.76008105278015">
			<ele>62.4000015258789</ele>
			<time>2013-12-29T15:52:11Z</time>
		</trkpt>
		<trkpt lat="39.5168609619141" lon="2.76005578041077">
			<ele>62.0999984741211</ele>
			<time>2013-12-29T15:52:12Z</time>
		</trkpt>
		<trkpt lat="39.5168113708496" lon="2.76002764701843">
			<ele>62.2000007629395</ele>
			<time>2013-12-29T15:52:13Z</time>
		</trkpt>
		<trkpt lat="39.5167579650879" lon="2.76000094413757">
			<ele>62</ele>
			<time>2013-12-29T15:52:14Z</time>
		</trkpt>
		<trkpt lat="39.5167083740234" lon="2.75997519493103">
			<ele>61.7999992370605</ele>
			<time>2013-12-29T15:52:15Z</time>
		</trkpt>
		<trkpt lat="39.516658782959" lon="2.75994968414307">
			<ele>61.7999992370605</ele>
			<time>2013-12-29T15:52:16Z</time>
		</trkpt>
		<trkpt lat="39.5166053771973" lon="2.75992250442505">
			<ele>61.7999992370605</ele>
			<time>2013-12-29T15:52:17Z</time>
		</trkpt>
		<trkpt lat="39.5165557861328" lon="2.75989484786987">
			<ele>61.9000015258789</ele>
			<time>2013-12-29T15:52:18Z</time>
		</trkpt>
		<trkpt lat="39.5165061950684" lon="2.75986862182617">
			<ele>62</ele>
			<time>2013-12-29T15:52:19Z</time>
		</trkpt>
		<trkpt lat="39.5164566040039" lon="2.75984621047974">
			<ele>62.0999984741211</ele>
			<time>2013-12-29T15:52:20Z</time>
		</trkpt>
		<trkpt lat="39.5164070129395" lon="2.75982451438904">
			<ele>62.2999992370605</ele>
			<time>2013-12-29T15:52:21Z</time>
		</trkpt>
		<trkpt lat="39.5163536071777" lon="2.75980281829834">
			<ele>62.4000015258789</ele>
			<time>2013-12-29T15:52:22Z</time>
		</trkpt>
		<trkpt lat="39.5163040161133" lon="2.75977921485901">
			<ele>62.5</ele>
			<time>2013-12-29T15:52:23Z</time>
		</trkpt>
		<trkpt lat="39.5162582397461" lon="2.7597553730011">
			<ele>62.4000015258789</ele>
			<time>2013-12-29T15:52:24Z</time>
		</trkpt>
		<trkpt lat="39.5162124633789" lon="2.75973391532898">
			<ele>62.5</ele>
			<time>2013-12-29T15:52:25Z</time>
		</trkpt>
		<trkpt lat="39.5161628723145" lon="2.75971055030823">
			<ele>62.2999992370605</ele>
			<time>2013-12-29T15:52:26Z</time>
		</trkpt>
		<trkpt lat="39.5161170959473" lon="2.75968790054321">
			<ele>62.4000015258789</ele>
			<time>2013-12-29T15:52:27Z</time>
		</trkpt>
		<trkpt lat="39.5160713195801" lon="2.75966763496399">
			<ele>62.4000015258789</ele>
			<time>2013-12-29T15:52:28Z</time>
		</trkpt>
		<trkpt lat="39.5160255432129" lon="2.75964784622192">
			<ele>62.5</ele>
			<time>2013-12-29T15:52:29Z</time>
		</trkpt>
		<trkpt lat="39.5159797668457" lon="2.75962853431702">
			<ele>62.5</ele>
			<time>2013-12-29T15:52:30Z</time>
		</trkpt>
		<trkpt lat="39.5159339904785" lon="2.75960755348206">
			<ele>62.5</ele>
			<time>2013-12-29T15:52:31Z</time>
		</trkpt>
		<trkpt lat="39.5158920288086" lon="2.75958800315857">
			<ele>62.4000015258789</ele>
			<time>2013-12-29T15:52:32Z</time>
		</trkpt>
		<trkpt lat="39.5158462524414" lon="2.75956916809082">
			<ele>62.2999992370605</ele>
			<time>2013-12-29T15:52:33Z</time>
		</trkpt>
		<trkpt lat="39.5157623291016" lon="2.7595329284668">
			<ele>62.2999992370605</ele>
			<time>2013-12-29T15:52:35Z</time>
		</trkpt>
		<trkpt lat="39.5157203674316" lon="2.75950646400452">
			<ele>62.4000015258789</ele>
			<time>2013-12-29T15:52:36Z</time>
		</trkpt>
		<trkpt lat="39.5156440734863" lon="2.75946187973022">
			<ele>62.7999992370605</ele>
			<time>2013-12-29T15:52:38Z</time>
		</trkpt>
		<trkpt lat="39.5155715942383" lon="2.75941371917725">
			<ele>63.2999992370605</ele>
			<time>2013-12-29T15:52:40Z</time>
		</trkpt>
		<trkpt lat="39.5154991149902" lon="2.75937175750732">
			<ele>63.9000015258789</ele>
			<time>2013-12-29T15:52:42Z</time>
		</trkpt>
		<trkpt lat="39.5154304504395" lon="2.75932931900024">
			<ele>64.0999984741211</ele>
			<time>2013-12-29T15:52:44Z</time>
		</trkpt>
		<trkpt lat="39.5153579711914" lon="2.75929307937622">
			<ele>63.7999992370605</ele>
			<time>2013-12-29T15:52:46Z</time>
		</trkpt>
		<trkpt lat="39.5152931213379" lon="2.7592453956604">
			<ele>64.1999969482422</ele>
			<time>2013-12-29T15:52:48Z</time>
		</trkpt>
		<trkpt lat="39.5152244567871" lon="2.75920343399048">
			<ele>64.5</ele>
			<time>2013-12-29T15:52:50Z</time>
		</trkpt>
		<trkpt lat="39.5151672363281" lon="2.7591700553894">
			<ele>64.5</ele>
			<time>2013-12-29T15:52:52Z</time>
		</trkpt>
		<trkpt lat="39.5151062011719" lon="2.75913381576538">
			<ele>64.6999969482422</ele>
			<time>2013-12-29T15:52:54Z</time>
		</trkpt>
		<trkpt lat="39.5150527954102" lon="2.75909447669983">
			<ele>64.8000030517578</ele>
			<time>2013-12-29T15:52:56Z</time>
		</trkpt>
		<trkpt lat="39.5149993896484" lon="2.75905275344849">
			<ele>64.8000030517578</ele>
			<time>2013-12-29T15:52:58Z</time>
		</trkpt>
		<trkpt lat="39.514949798584" lon="2.75902438163757">
			<ele>65</ele>
			<time>2013-12-29T15:53:00Z</time>
		</trkpt>
		<trkpt lat="39.5149078369141" lon="2.75899696350098">
			<ele>65.1999969482422</ele>
			<time>2013-12-29T15:53:02Z</time>
		</trkpt>
		<trkpt lat="39.5148506164551" lon="2.75896453857422">
			<ele>65.4000015258789</ele>
			<time>2013-12-29T15:53:04Z</time>
		</trkpt>
		<trkpt lat="39.5148048400879" lon="2.75894284248352">
			<ele>65.9000015258789</ele>
			<time>2013-12-29T15:53:08Z</time>
		</trkpt>
		<trkpt lat="39.514762878418" lon="2.75892496109009">
			<ele>65.5999984741211</ele>
			<time>2013-12-29T15:53:10Z</time>
		</trkpt>
		<trkpt lat="39.5147132873535" lon="2.75889277458191">
			<ele>65.5999984741211</ele>
			<time>2013-12-29T15:53:11Z</time>
		</trkpt>
		<trkpt lat="39.5146598815918" lon="2.75885462760925">
			<ele>65.5</ele>
			<time>2013-12-29T15:53:14Z</time>
		</trkpt>
		<trkpt lat="39.514591217041" lon="2.75880980491638">
			<ele>65.3000030517578</ele>
			<time>2013-12-29T15:53:16Z</time>
		</trkpt>
		<trkpt lat="39.5145225524902" lon="2.75876665115356">
			<ele>65.1999969482422</ele>
			<time>2013-12-29T15:53:18Z</time>
		</trkpt>
		<trkpt lat="39.5144462585449" lon="2.75871753692627">
			<ele>65.0999984741211</ele>
			<time>2013-12-29T15:53:20Z</time>
		</trkpt>
		<trkpt lat="39.5143699645996" lon="2.7586658000946">
			<ele>65.0999984741211</ele>
			<time>2013-12-29T15:53:22Z</time>
		</trkpt>
		<trkpt lat="39.5143280029297" lon="2.75863981246948">
			<ele>65</ele>
			<time>2013-12-29T15:53:23Z</time>
		</trkpt>
		<trkpt lat="39.5142860412598" lon="2.75861477851868">
			<ele>64.9000015258789</ele>
			<time>2013-12-29T15:53:24Z</time>
		</trkpt>
		<trkpt lat="39.5142402648926" lon="2.75858926773071">
			<ele>64.8000030517578</ele>
			<time>2013-12-29T15:53:25Z</time>
		</trkpt>
		<trkpt lat="39.5141944885254" lon="2.7585666179657">
			<ele>65</ele>
			<time>2013-12-29T15:53:26Z</time>
		</trkpt>
		<trkpt lat="39.5141525268555" lon="2.75853586196899">
			<ele>64.9000015258789</ele>
			<time>2013-12-29T15:53:27Z</time>
		</trkpt>
		<trkpt lat="39.5141105651855" lon="2.75850701332092">
			<ele>64.6999969482422</ele>
			<time>2013-12-29T15:53:28Z</time>
		</trkpt>
		<trkpt lat="39.5140609741211" lon="2.75848174095154">
			<ele>64.5</ele>
			<time>2013-12-29T15:53:29Z</time>
		</trkpt>
		<trkpt lat="39.5140151977539" lon="2.75845217704773">
			<ele>64.6999969482422</ele>
			<time>2013-12-29T15:53:30Z</time>
		</trkpt>
		<trkpt lat="39.5139656066895" lon="2.75841951370239">
			<ele>64.5999984741211</ele>
			<time>2013-12-29T15:53:31Z</time>
		</trkpt>
		<trkpt lat="39.5139198303223" lon="2.7583909034729">
			<ele>64.5</ele>
			<time>2013-12-29T15:53:32Z</time>
		</trkpt>
		<trkpt lat="39.5138702392578" lon="2.75836324691772">
			<ele>64.3000030517578</ele>
			<time>2013-12-29T15:53:33Z</time>
		</trkpt>
		<trkpt lat="39.5138206481934" lon="2.75833535194397">
			<ele>64.1999969482422</ele>
			<time>2013-12-29T15:53:34Z</time>
		</trkpt>
		<trkpt lat="39.5137710571289" lon="2.75830698013306">
			<ele>64.0999984741211</ele>
			<time>2013-12-29T15:53:35Z</time>
		</trkpt>
		<trkpt lat="39.5137252807617" lon="2.75827765464783">
			<ele>64.0999984741211</ele>
			<time>2013-12-29T15:53:36Z</time>
		</trkpt>
		<trkpt lat="39.5136756896973" lon="2.75824642181396">
			<ele>63.9000015258789</ele>
			<time>2013-12-29T15:53:37Z</time>
		</trkpt>
		<trkpt lat="39.5136337280273" lon="2.75821614265442">
			<ele>64</ele>
			<time>2013-12-29T15:53:38Z</time>
		</trkpt>
		<trkpt lat="39.5135879516602" lon="2.7581901550293">
			<ele>64.3000030517578</ele>
			<time>2013-12-29T15:53:39Z</time>
		</trkpt>
		<trkpt lat="39.5135459899902" lon="2.75816512107849">
			<ele>64.5</ele>
			<time>2013-12-29T15:53:40Z</time>
		</trkpt>
		<trkpt lat="39.5134658813477" lon="2.75810885429382">
			<ele>64.0999984741211</ele>
			<time>2013-12-29T15:53:41Z</time>
		</trkpt>
		<trkpt lat="39.5133857727051" lon="2.75806260108948">
			<ele>64.4000015258789</ele>
			<time>2013-12-29T15:53:43Z</time>
		</trkpt>
		<trkpt lat="39.513313293457" lon="2.75801181793213">
			<ele>64.3000030517578</ele>
			<time>2013-12-29T15:53:45Z</time>
		</trkpt>
		<trkpt lat="39.5132446289063" lon="2.75796294212341">
			<ele>64.4000015258789</ele>
			<time>2013-12-29T15:53:47Z</time>
		</trkpt>
		<trkpt lat="39.5131874084473" lon="2.75792908668518">
			<ele>64.5999984741211</ele>
			<time>2013-12-29T15:53:49Z</time>
		</trkpt>
		<trkpt lat="39.5131340026855" lon="2.75789451599121">
			<ele>64.6999969482422</ele>
			<time>2013-12-29T15:53:51Z</time>
		</trkpt>
		<trkpt lat="39.5127334594727" lon="2.75762581825256">
			<ele>63.7000007629395</ele>
			<time>2013-12-29T15:54:30Z</time>
		</trkpt>
		<trkpt lat="39.5125923156738" lon="2.75753545761108">
			<ele>62.7999992370605</ele>
			<time>2013-12-29T15:54:31Z</time>
		</trkpt>
		<trkpt lat="39.5123443603516" lon="2.75738573074341">
			<ele>61.5</ele>
			<time>2013-12-29T15:54:35Z</time>
		</trkpt>
		<trkpt lat="39.5129852294922" lon="2.75779008865356">
			<ele>64.4000015258789</ele>
			<time>2013-12-29T15:54:36Z</time>
		</trkpt>
		<trkpt lat="39.5121078491211" lon="2.75725150108337">
			<ele>60.5999984741211</ele>
			<time>2013-12-29T15:54:37Z</time>
		</trkpt>
		<trkpt lat="39.5120048522949" lon="2.75719046592712">
			<ele>60.5</ele>
			<time>2013-12-29T15:54:37Z</time>
		</trkpt>
		<trkpt lat="39.5119590759277" lon="2.75715160369873">
			<ele>60.0999984741211</ele>
			<time>2013-12-29T15:54:38Z</time>
		</trkpt>
		<trkpt lat="39.511905670166" lon="2.75711965560913">
			<ele>60</ele>
			<time>2013-12-29T15:54:39Z</time>
		</trkpt>
		<trkpt lat="39.5118522644043" lon="2.7570858001709">
			<ele>59.5</ele>
			<time>2013-12-29T15:54:40Z</time>
		</trkpt>
		<trkpt lat="39.5118026733398" lon="2.75704956054688">
			<ele>59.4000015258789</ele>
			<time>2013-12-29T15:54:41Z</time>
		</trkpt>
		<trkpt lat="39.5117530822754" lon="2.75701451301575">
			<ele>59.2000007629395</ele>
			<time>2013-12-29T15:54:42Z</time>
		</trkpt>
		<trkpt lat="39.5117073059082" lon="2.75698232650757">
			<ele>59.0999984741211</ele>
			<time>2013-12-29T15:54:44Z</time>
		</trkpt>
		<trkpt lat="39.511604309082" lon="2.75691390037537">
			<ele>58.5</ele>
			<time>2013-12-29T15:54:45Z</time>
		</trkpt>
		<trkpt lat="39.5115585327148" lon="2.75687718391418">
			<ele>58.5</ele>
			<time>2013-12-29T15:54:46Z</time>
		</trkpt>
		<trkpt lat="39.5115165710449" lon="2.756840467453">
			<ele>58.5999984741211</ele>
			<time>2013-12-29T15:54:47Z</time>
		</trkpt>
		<trkpt lat="39.5114669799805" lon="2.7568085193634">
			<ele>58.5</ele>
			<time>2013-12-29T15:54:48Z</time>
		</trkpt>
		<trkpt lat="39.511417388916" lon="2.75677990913391">
			<ele>58.5999984741211</ele>
			<time>2013-12-29T15:54:49Z</time>
		</trkpt>
		<trkpt lat="39.5113716125488" lon="2.75674915313721">
			<ele>58.2999992370605</ele>
			<time>2013-12-29T15:54:50Z</time>
		</trkpt>
		<trkpt lat="39.5113258361816" lon="2.75672197341919">
			<ele>58.2000007629395</ele>
			<time>2013-12-29T15:54:51Z</time>
		</trkpt>
		<trkpt lat="39.5112838745117" lon="2.75669169425964">
			<ele>57.9000015258789</ele>
			<time>2013-12-29T15:54:53Z</time>
		</trkpt>
		<trkpt lat="39.5112037658691" lon="2.75664329528809">
			<ele>57.7999992370605</ele>
			<time>2013-12-29T15:54:54Z</time>
		</trkpt>
		<trkpt lat="39.5111618041992" lon="2.75661730766296">
			<ele>57.7000007629395</ele>
			<time>2013-12-29T15:54:55Z</time>
		</trkpt>
		<trkpt lat="39.5111198425293" lon="2.75658774375916">
			<ele>57.5</ele>
			<time>2013-12-29T15:54:56Z</time>
		</trkpt>
		<trkpt lat="39.511043548584" lon="2.75653648376465">
			<ele>57.2999992370605</ele>
			<time>2013-12-29T15:54:58Z</time>
		</trkpt>
		<trkpt lat="39.5109634399414" lon="2.75648975372314">
			<ele>57.2999992370605</ele>
			<time>2013-12-29T15:55:00Z</time>
		</trkpt>
		<trkpt lat="39.5108909606934" lon="2.75644326210022">
			<ele>57.4000015258789</ele>
			<time>2013-12-29T15:55:02Z</time>
		</trkpt>
		<trkpt lat="39.5107879638672" lon="2.75638103485107">
			<ele>57.2000007629395</ele>
			<time>2013-12-29T15:55:05Z</time>
		</trkpt>
		<trkpt lat="39.5107154846191" lon="2.75633978843689">
			<ele>57.0999984741211</ele>
			<time>2013-12-29T15:55:07Z</time>
		</trkpt>
		<trkpt lat="39.5106430053711" lon="2.75629472732544">
			<ele>57.2000007629395</ele>
			<time>2013-12-29T15:55:09Z</time>
		</trkpt>
		<trkpt lat="39.5105667114258" lon="2.7562530040741">
			<ele>57.0999984741211</ele>
			<time>2013-12-29T15:55:11Z</time>
		</trkpt>
		<trkpt lat="39.5104942321777" lon="2.7562096118927">
			<ele>57.0999984741211</ele>
			<time>2013-12-29T15:55:13Z</time>
		</trkpt>
		<trkpt lat="39.5104217529297" lon="2.75617098808289">
			<ele>57</ele>
			<time>2013-12-29T15:55:15Z</time>
		</trkpt>
		<trkpt lat="39.5103530883789" lon="2.75612998008728">
			<ele>56.9000015258789</ele>
			<time>2013-12-29T15:55:17Z</time>
		</trkpt>
		<trkpt lat="39.5102958679199" lon="2.75608325004578">
			<ele>56.9000015258789</ele>
			<time>2013-12-29T15:55:19Z</time>
		</trkpt>
		<trkpt lat="39.5102386474609" lon="2.75603938102722">
			<ele>56.7999992370605</ele>
			<time>2013-12-29T15:55:21Z</time>
		</trkpt>
		<trkpt lat="39.5101852416992" lon="2.75600218772888">
			<ele>56.5</ele>
			<time>2013-12-29T15:55:24Z</time>
		</trkpt>
		<trkpt lat="39.510139465332" lon="2.75599408149719">
			<ele>56.5</ele>
			<time>2013-12-29T15:55:27Z</time>
		</trkpt>
		<trkpt lat="39.5100784301758" lon="2.75597167015076">
			<ele>58.2999992370605</ele>
			<time>2013-12-29T15:55:54Z</time>
		</trkpt>
		<trkpt lat="39.5100212097168" lon="2.75593972206116">
			<ele>57.7000007629395</ele>
			<time>2013-12-29T15:55:56Z</time>
		</trkpt>
		<trkpt lat="39.5099639892578" lon="2.75591111183167">
			<ele>57.5</ele>
			<time>2013-12-29T15:55:58Z</time>
		</trkpt>
		<trkpt lat="39.5098838806152" lon="2.75593733787537">
			<ele>57.7000007629395</ele>
			<time>2013-12-29T15:56:00Z</time>
		</trkpt>
		<trkpt lat="39.5098648071289" lon="2.75603222846985">
			<ele>58.5</ele>
			<time>2013-12-29T15:56:01Z</time>
		</trkpt>
		<trkpt lat="39.5098419189453" lon="2.7560830116272">
			<ele>59.0999984741211</ele>
			<time>2013-12-29T15:56:02Z</time>
		</trkpt>
		<trkpt lat="39.5097999572754" lon="2.75617933273315">
			<ele>59.5</ele>
			<time>2013-12-29T15:56:04Z</time>
		</trkpt>
		<trkpt lat="39.5097694396973" lon="2.75626564025879">
			<ele>59.9000015258789</ele>
			<time>2013-12-29T15:56:06Z</time>
		</trkpt>
		<trkpt lat="39.5097389221191" lon="2.75635075569153">
			<ele>60.7000007629395</ele>
			<time>2013-12-29T15:56:08Z</time>
		</trkpt>
		<trkpt lat="39.509708404541" lon="2.75642085075378">
			<ele>61</ele>
			<time>2013-12-29T15:56:10Z</time>
		</trkpt>
		<trkpt lat="39.5096817016602" lon="2.75648784637451">
			<ele>61.5</ele>
			<time>2013-12-29T15:56:12Z</time>
		</trkpt>
		<trkpt lat="39.5096626281738" lon="2.75654625892639">
			<ele>62</ele>
			<time>2013-12-29T15:56:14Z</time>
		</trkpt>
		<trkpt lat="39.5096435546875" lon="2.75661158561707">
			<ele>62.5999984741211</ele>
			<time>2013-12-29T15:56:16Z</time>
		</trkpt>
		<trkpt lat="39.5096168518066" lon="2.75667548179626">
			<ele>63</ele>
			<time>2013-12-29T15:56:18Z</time>
		</trkpt>
		<trkpt lat="39.5095977783203" lon="2.75673770904541">
			<ele>63.0999984741211</ele>
			<time>2013-12-29T15:56:20Z</time>
		</trkpt>
		<trkpt lat="39.5095748901367" lon="2.75679588317871">
			<ele>63.0999984741211</ele>
			<time>2013-12-29T15:56:22Z</time>
		</trkpt>
		<trkpt lat="39.5095520019531" lon="2.75684857368469">
			<ele>62.7000007629395</ele>
			<time>2013-12-29T15:56:24Z</time>
		</trkpt>
		<trkpt lat="39.5095291137695" lon="2.7569317817688">
			<ele>62.5999984741211</ele>
			<time>2013-12-29T15:56:27Z</time>
		</trkpt>
		<trkpt lat="39.5095100402832" lon="2.75698757171631">
			<ele>62.5</ele>
			<time>2013-12-29T15:56:29Z</time>
		</trkpt>
		<trkpt lat="39.5094985961914" lon="2.75705623626709">
			<ele>62.4000015258789</ele>
			<time>2013-12-29T15:56:31Z</time>
		</trkpt>
		<trkpt lat="39.5094871520996" lon="2.7571234703064">
			<ele>62.0999984741211</ele>
			<time>2013-12-29T15:56:33Z</time>
		</trkpt>
		<trkpt lat="39.5094680786133" lon="2.75719046592712">
			<ele>62.5</ele>
			<time>2013-12-29T15:56:35Z</time>
		</trkpt>
		<trkpt lat="39.5094451904297" lon="2.75725913047791">
			<ele>62.7000007629395</ele>
			<time>2013-12-29T15:56:37Z</time>
		</trkpt>
		<trkpt lat="39.5094223022461" lon="2.75732207298279">
			<ele>62.9000015258789</ele>
			<time>2013-12-29T15:56:39Z</time>
		</trkpt>
		<trkpt lat="39.5093994140625" lon="2.75739145278931">
			<ele>63</ele>
			<time>2013-12-29T15:56:41Z</time>
		</trkpt>
		<trkpt lat="39.5093803405762" lon="2.75746178627014">
			<ele>63.5999984741211</ele>
			<time>2013-12-29T15:56:43Z</time>
		</trkpt>
		<trkpt lat="39.5093536376953" lon="2.7575318813324">
			<ele>63.7999992370605</ele>
			<time>2013-12-29T15:56:45Z</time>
		</trkpt>
		<trkpt lat="39.5093307495117" lon="2.7575991153717">
			<ele>64.5</ele>
			<time>2013-12-29T15:56:47Z</time>
		</trkpt>
		<trkpt lat="39.5093078613281" lon="2.75766134262085">
			<ele>63.9000015258789</ele>
			<time>2013-12-29T15:56:49Z</time>
		</trkpt>
		<trkpt lat="39.5092811584473" lon="2.75773978233337">
			<ele>65</ele>
			<time>2013-12-29T15:56:52Z</time>
		</trkpt>
		<trkpt lat="39.5092620849609" lon="2.75779628753662">
			<ele>64.9000015258789</ele>
			<time>2013-12-29T15:56:54Z</time>
		</trkpt>
		<trkpt lat="39.5092353820801" lon="2.7578558921814">
			<ele>65.1999969482422</ele>
			<time>2013-12-29T15:56:56Z</time>
		</trkpt>
		<trkpt lat="39.5092086791992" lon="2.7579128742218">
			<ele>65.5</ele>
			<time>2013-12-29T15:56:58Z</time>
		</trkpt>
		<trkpt lat="39.509162902832" lon="2.75797820091248">
			<ele>66.0999984741211</ele>
			<time>2013-12-29T15:57:00Z</time>
		</trkpt>
		<trkpt lat="39.5091209411621" lon="2.75802826881409">
			<ele>66.8000030517578</ele>
			<time>2013-12-29T15:57:02Z</time>
		</trkpt>
		<trkpt lat="39.5090560913086" lon="2.75800085067749">
			<ele>66.4000015258789</ele>
			<time>2013-12-29T15:57:05Z</time>
		</trkpt>
		<trkpt lat="39.5089912414551" lon="2.75797820091248">
			<ele>65.4000015258789</ele>
			<time>2013-12-29T15:57:08Z</time>
		</trkpt>
		<trkpt lat="39.5089492797852" lon="2.75794959068298">
			<ele>64.6999969482422</ele>
			<time>2013-12-29T15:57:10Z</time>
		</trkpt>
		<trkpt lat="39.5088958740234" lon="2.75791692733765">
			<ele>64.0999984741211</ele>
			<time>2013-12-29T15:57:12Z</time>
		</trkpt>
		<trkpt lat="39.5088424682617" lon="2.75788927078247">
			<ele>62.5999984741211</ele>
			<time>2013-12-29T15:57:14Z</time>
		</trkpt>
		<trkpt lat="39.5087890625" lon="2.75784969329834">
			<ele>62.4000015258789</ele>
			<time>2013-12-29T15:57:16Z</time>
		</trkpt>
		<trkpt lat="39.508731842041" lon="2.7578113079071">
			<ele>62.0999984741211</ele>
			<time>2013-12-29T15:57:18Z</time>
		</trkpt>
		<trkpt lat="39.5086822509766" lon="2.75777316093445">
			<ele>62.4000015258789</ele>
			<time>2013-12-29T15:57:20Z</time>
		</trkpt>
		<trkpt lat="39.5086326599121" lon="2.75773620605469">
			<ele>62.5</ele>
			<time>2013-12-29T15:57:22Z</time>
		</trkpt>
		<trkpt lat="39.5085792541504" lon="2.75770401954651">
			<ele>62.2000007629395</ele>
			<time>2013-12-29T15:57:24Z</time>
		</trkpt>
		<trkpt lat="39.5085182189941" lon="2.75768089294434">
			<ele>61.2000007629395</ele>
			<time>2013-12-29T15:57:26Z</time>
		</trkpt>
		<trkpt lat="39.5084609985352" lon="2.75765705108643">
			<ele>60.7999992370605</ele>
			<time>2013-12-29T15:57:28Z</time>
		</trkpt>
		<trkpt lat="39.5084075927734" lon="2.75762796401978">
			<ele>60.2999992370605</ele>
			<time>2013-12-29T15:57:30Z</time>
		</trkpt>
		<trkpt lat="39.5083351135254" lon="2.75760340690613">
			<ele>60</ele>
			<time>2013-12-29T15:57:32Z</time>
		</trkpt>
		<trkpt lat="39.5082664489746" lon="2.75757026672363">
			<ele>60.0999984741211</ele>
			<time>2013-12-29T15:57:34Z</time>
		</trkpt>
		<trkpt lat="39.5081977844238" lon="2.75753378868103">
			<ele>59.9000015258789</ele>
			<time>2013-12-29T15:57:36Z</time>
		</trkpt>
		<trkpt lat="39.5081367492676" lon="2.7574942111969">
			<ele>59.9000015258789</ele>
			<time>2013-12-29T15:57:38Z</time>
		</trkpt>
		<trkpt lat="39.5080795288086" lon="2.75745463371277">
			<ele>60.2999992370605</ele>
			<time>2013-12-29T15:57:40Z</time>
		</trkpt>
		<trkpt lat="39.5080261230469" lon="2.75741744041443">
			<ele>60.5999984741211</ele>
			<time>2013-12-29T15:57:42Z</time>
		</trkpt>
		<trkpt lat="39.5079689025879" lon="2.75738549232483">
			<ele>60.7999992370605</ele>
			<time>2013-12-29T15:57:44Z</time>
		</trkpt>
		<trkpt lat="39.5079193115234" lon="2.75736093521118">
			<ele>61.0999984741211</ele>
			<time>2013-12-29T15:57:46Z</time>
		</trkpt>
		<trkpt lat="39.5078735351563" lon="2.7573459148407">
			<ele>61.5999984741211</ele>
			<time>2013-12-29T15:57:48Z</time>
		</trkpt>
		<trkpt lat="39.5078163146973" lon="2.75731158256531">
			<ele>62.2999992370605</ele>
			<time>2013-12-29T15:57:50Z</time>
		</trkpt>
		<trkpt lat="39.5077514648438" lon="2.75729489326477">
			<ele>62.5999984741211</ele>
			<time>2013-12-29T15:57:52Z</time>
		</trkpt>
		<trkpt lat="39.5076904296875" lon="2.75726819038391">
			<ele>62.9000015258789</ele>
			<time>2013-12-29T15:57:55Z</time>
		</trkpt>
		<trkpt lat="39.5076293945313" lon="2.75725364685059">
			<ele>63.2999992370605</ele>
			<time>2013-12-29T15:57:56Z</time>
		</trkpt>
		<trkpt lat="39.507568359375" lon="2.75723481178284">
			<ele>63.7999992370605</ele>
			<time>2013-12-29T15:57:58Z</time>
		</trkpt>
		<trkpt lat="39.5074882507324" lon="2.75715589523315">
			<ele>64.3000030517578</ele>
			<time>2013-12-29T15:58:01Z</time>
		</trkpt>
		<trkpt lat="39.507438659668" lon="2.75711750984192">
			<ele>64.8000030517578</ele>
			<time>2013-12-29T15:58:03Z</time>
		</trkpt>
		<trkpt lat="39.507381439209" lon="2.75708651542664">
			<ele>64.8000030517578</ele>
			<time>2013-12-29T15:58:05Z</time>
		</trkpt>
		<trkpt lat="39.5072937011719" lon="2.75705027580261">
			<ele>64.9000015258789</ele>
			<time>2013-12-29T15:58:08Z</time>
		</trkpt>
		<trkpt lat="39.5072364807129" lon="2.75703859329224">
			<ele>64.1999969482422</ele>
			<time>2013-12-29T15:58:10Z</time>
		</trkpt>
		<trkpt lat="39.5071754455566" lon="2.75703048706055">
			<ele>66.1999969482422</ele>
			<time>2013-12-29T15:58:12Z</time>
		</trkpt>
		<trkpt lat="39.5071144104004" lon="2.75702738761902">
			<ele>66.6999969482422</ele>
			<time>2013-12-29T15:58:14Z</time>
		</trkpt>
		<trkpt lat="39.5070610046387" lon="2.75703763961792">
			<ele>67.3000030517578</ele>
			<time>2013-12-29T15:58:16Z</time>
		</trkpt>
		<trkpt lat="39.5070037841797" lon="2.75704598426819">
			<ele>67.4000015258789</ele>
			<time>2013-12-29T15:58:18Z</time>
		</trkpt>
		<trkpt lat="39.5069427490234" lon="2.75705361366272">
			<ele>67.3000030517578</ele>
			<time>2013-12-29T15:58:20Z</time>
		</trkpt>
		<trkpt lat="39.5068817138672" lon="2.75705313682556">
			<ele>68.6999969482422</ele>
			<time>2013-12-29T15:58:22Z</time>
		</trkpt>
		<trkpt lat="39.5068244934082" lon="2.75704407691956">
			<ele>69.4000015258789</ele>
			<time>2013-12-29T15:58:24Z</time>
		</trkpt>
		<trkpt lat="39.506763458252" lon="2.75702691078186">
			<ele>69.5999984741211</ele>
			<time>2013-12-29T15:58:26Z</time>
		</trkpt>
		<trkpt lat="39.506706237793" lon="2.75700426101685">
			<ele>69.6999969482422</ele>
			<time>2013-12-29T15:58:28Z</time>
		</trkpt>
		<trkpt lat="39.506649017334" lon="2.75697350502014">
			<ele>69.8000030517578</ele>
			<time>2013-12-29T15:58:30Z</time>
		</trkpt>
		<trkpt lat="39.506591796875" lon="2.7569534778595">
			<ele>69.8000030517578</ele>
			<time>2013-12-29T15:58:32Z</time>
		</trkpt>
		<trkpt lat="39.506534576416" lon="2.75692987442017">
			<ele>70.0999984741211</ele>
			<time>2013-12-29T15:58:34Z</time>
		</trkpt>
		<trkpt lat="39.5064849853516" lon="2.75690150260925">
			<ele>70.4000015258789</ele>
			<time>2013-12-29T15:58:36Z</time>
		</trkpt>
		<trkpt lat="39.5064392089844" lon="2.75687432289124">
			<ele>70.5</ele>
			<time>2013-12-29T15:58:38Z</time>
		</trkpt>
		<trkpt lat="39.5063934326172" lon="2.75685000419617">
			<ele>70.6999969482422</ele>
			<time>2013-12-29T15:58:40Z</time>
		</trkpt>
		<trkpt lat="39.50634765625" lon="2.75684499740601">
			<ele>71.0999984741211</ele>
			<time>2013-12-29T15:58:42Z</time>
		</trkpt>
		<trkpt lat="39.5062789916992" lon="2.75683999061584">
			<ele>71.1999969482422</ele>
			<time>2013-12-29T15:58:45Z</time>
		</trkpt>
		<trkpt lat="39.5062294006348" lon="2.75683498382568">
			<ele>72.0999984741211</ele>
			<time>2013-12-29T15:58:47Z</time>
		</trkpt>
		<trkpt lat="39.5061645507813" lon="2.75683784484863">
			<ele>72.5</ele>
			<time>2013-12-29T15:58:50Z</time>
		</trkpt>
		<trkpt lat="39.5061187744141" lon="2.75683546066284">
			<ele>72.5</ele>
			<time>2013-12-29T15:58:52Z</time>
		</trkpt>
		<trkpt lat="39.5060653686523" lon="2.75682687759399">
			<ele>72.9000015258789</ele>
			<time>2013-12-29T15:58:54Z</time>
		</trkpt>
		<trkpt lat="39.5060157775879" lon="2.75682210922241">
			<ele>73.1999969482422</ele>
			<time>2013-12-29T15:58:56Z</time>
		</trkpt>
		<trkpt lat="39.5059623718262" lon="2.75680804252625">
			<ele>73.9000015258789</ele>
			<time>2013-12-29T15:58:58Z</time>
		</trkpt>
		<trkpt lat="39.5059089660645" lon="2.75679492950439">
			<ele>74.5</ele>
			<time>2013-12-29T15:59:00Z</time>
		</trkpt>
		<trkpt lat="39.505859375" lon="2.75678825378418">
			<ele>74.4000015258789</ele>
			<time>2013-12-29T15:59:02Z</time>
		</trkpt>
		<trkpt lat="39.5058135986328" lon="2.75677299499512">
			<ele>74.6999969482422</ele>
			<time>2013-12-29T15:59:04Z</time>
		</trkpt>
		<trkpt lat="39.5057678222656" lon="2.75675868988037">
			<ele>74.6999969482422</ele>
			<time>2013-12-29T15:59:06Z</time>
		</trkpt>
		<trkpt lat="39.5057144165039" lon="2.75674796104431">
			<ele>75.1999969482422</ele>
			<time>2013-12-29T15:59:08Z</time>
		</trkpt>
		<trkpt lat="39.5056686401367" lon="2.75674366950989">
			<ele>76.0999984741211</ele>
			<time>2013-12-29T15:59:10Z</time>
		</trkpt>
		<trkpt lat="39.5056076049805" lon="2.75673890113831">
			<ele>77</ele>
			<time>2013-12-29T15:59:13Z</time>
		</trkpt>
		<trkpt lat="39.5055465698242" lon="2.75673055648804">
			<ele>77.6999969482422</ele>
			<time>2013-12-29T15:59:16Z</time>
		</trkpt>
		<trkpt lat="39.5054817199707" lon="2.75670838356018">
			<ele>77.4000015258789</ele>
			<time>2013-12-29T15:59:19Z</time>
		</trkpt>
		<trkpt lat="39.5054397583008" lon="2.75668263435364">
			<ele>71.0999984741211</ele>
			<time>2013-12-29T15:59:22Z</time>
		</trkpt>
		<trkpt lat="39.5054244995117" lon="2.75660443305969">
			<ele>70.3000030517578</ele>
			<time>2013-12-29T15:59:24Z</time>
		</trkpt>
		<trkpt lat="39.5054321289063" lon="2.75650143623352">
			<ele>68.1999969482422</ele>
			<time>2013-12-29T15:59:26Z</time>
		</trkpt>
		<trkpt lat="39.5054359436035" lon="2.75638747215271">
			<ele>67.6999969482422</ele>
			<time>2013-12-29T15:59:28Z</time>
		</trkpt>
		<trkpt lat="39.5054321289063" lon="2.75632381439209">
			<ele>66.5999984741211</ele>
			<time>2013-12-29T15:59:29Z</time>
		</trkpt>
		<trkpt lat="39.505428314209" lon="2.75626063346863">
			<ele>65.9000015258789</ele>
			<time>2013-12-29T15:59:30Z</time>
		</trkpt>
		<trkpt lat="39.5054244995117" lon="2.75619029998779">
			<ele>65.5999984741211</ele>
			<time>2013-12-29T15:59:31Z</time>
		</trkpt>
		<trkpt lat="39.5054244995117" lon="2.75611996650696">
			<ele>65.5</ele>
			<time>2013-12-29T15:59:32Z</time>
		</trkpt>
		<trkpt lat="39.5054206848145" lon="2.75605154037476">
			<ele>65.1999969482422</ele>
			<time>2013-12-29T15:59:33Z</time>
		</trkpt>
		<trkpt lat="39.5054244995117" lon="2.75598120689392">
			<ele>64.5999984741211</ele>
			<time>2013-12-29T15:59:34Z</time>
		</trkpt>
		<trkpt lat="39.5054206848145" lon="2.75590777397156">
			<ele>63.7000007629395</ele>
			<time>2013-12-29T15:59:35Z</time>
		</trkpt>
		<trkpt lat="39.5054130554199" lon="2.75583243370056">
			<ele>62.5999984741211</ele>
			<time>2013-12-29T15:59:36Z</time>
		</trkpt>
		<trkpt lat="39.5054054260254" lon="2.75575184822083">
			<ele>62.2000007629395</ele>
			<time>2013-12-29T15:59:37Z</time>
		</trkpt>
		<trkpt lat="39.5053939819336" lon="2.75568652153015">
			<ele>61.5999984741211</ele>
			<time>2013-12-29T15:59:38Z</time>
		</trkpt>
		<trkpt lat="39.5053901672363" lon="2.75562596321106">
			<ele>61.5999984741211</ele>
			<time>2013-12-29T15:59:39Z</time>
		</trkpt>
		<trkpt lat="39.5053749084473" lon="2.75551843643188">
			<ele>61.5999984741211</ele>
			<time>2013-12-29T15:59:41Z</time>
		</trkpt>
		<trkpt lat="39.5054016113281" lon="2.75540614128113">
			<ele>62.7000007629395</ele>
			<time>2013-12-29T15:59:43Z</time>
		</trkpt>
		<trkpt lat="39.505443572998" lon="2.75536465644836">
			<ele>62.9000015258789</ele>
			<time>2013-12-29T15:59:45Z</time>
		</trkpt>
		<trkpt lat="39.505500793457" lon="2.75532484054565">
			<ele>63.2000007629395</ele>
			<time>2013-12-29T15:59:47Z</time>
		</trkpt>
		<trkpt lat="39.5055541992188" lon="2.75531768798828">
			<ele>63.2999992370605</ele>
			<time>2013-12-29T15:59:48Z</time>
		</trkpt>
		<trkpt lat="39.5055999755859" lon="2.75530695915222">
			<ele>63.5999984741211</ele>
			<time>2013-12-29T15:59:49Z</time>
		</trkpt>
		<trkpt lat="39.5056838989258" lon="2.7553026676178">
			<ele>64.3000030517578</ele>
			<time>2013-12-29T15:59:51Z</time>
		</trkpt>
		<trkpt lat="39.5057487487793" lon="2.75531196594238">
			<ele>64.5</ele>
			<time>2013-12-29T15:59:53Z</time>
		</trkpt>
		<trkpt lat="39.5057983398438" lon="2.755295753479">
			<ele>64.4000015258789</ele>
			<time>2013-12-29T15:59:54Z</time>
		</trkpt>
		<trkpt lat="39.5058555603027" lon="2.75536918640137">
			<ele>66.6999969482422</ele>
			<time>2013-12-29T15:59:56Z</time>
		</trkpt>
		<trkpt lat="39.5059051513672" lon="2.7553539276123">
			<ele>67.0999984741211</ele>
			<time>2013-12-29T15:59:57Z</time>
		</trkpt>
		<trkpt lat="39.505989074707" lon="2.75533151626587">
			<ele>69.3000030517578</ele>
			<time>2013-12-29T15:59:59Z</time>
		</trkpt>
		<trkpt lat="39.5060386657715" lon="2.75532245635986">
			<ele>70.5999984741211</ele>
			<time>2013-12-29T16:00:00Z</time>
		</trkpt>
		<trkpt lat="39.5061225891113" lon="2.75532817840576">
			<ele>67.5999984741211</ele>
			<time>2013-12-29T16:00:03Z</time>
		</trkpt>
		<trkpt lat="39.5061988830566" lon="2.75531339645386">
			<ele>68.8000030517578</ele>
			<time>2013-12-29T16:00:05Z</time>
		</trkpt>
		<trkpt lat="39.5062866210938" lon="2.75528645515442">
			<ele>69.4000015258789</ele>
			<time>2013-12-29T16:00:07Z</time>
		</trkpt>
		<trkpt lat="39.5063591003418" lon="2.75528407096863">
			<ele>71</ele>
			<time>2013-12-29T16:00:09Z</time>
		</trkpt>
		<trkpt lat="39.5064163208008" lon="2.75529217720032">
			<ele>71.5</ele>
			<time>2013-12-29T16:00:11Z</time>
		</trkpt>
		<trkpt lat="39.5064735412598" lon="2.75531530380249">
			<ele>72.5999984741211</ele>
			<time>2013-12-29T16:00:13Z</time>
		</trkpt>
		<trkpt lat="39.5065498352051" lon="2.75531268119812">
			<ele>75.3000030517578</ele>
			<time>2013-12-29T16:00:16Z</time>
		</trkpt>
		<trkpt lat="39.5066261291504" lon="2.75532460212708">
			<ele>75.5</ele>
			<time>2013-12-29T16:00:18Z</time>
		</trkpt>
		<trkpt lat="39.5066719055176" lon="2.75530910491943">
			<ele>75.1999969482422</ele>
			<time>2013-12-29T16:00:19Z</time>
		</trkpt>
		<trkpt lat="39.5067176818848" lon="2.75530529022217">
			<ele>75.1999969482422</ele>
			<time>2013-12-29T16:00:20Z</time>
		</trkpt>
		<trkpt lat="39.5067672729492" lon="2.7553117275238">
			<ele>75.0999984741211</ele>
			<time>2013-12-29T16:00:21Z</time>
		</trkpt>
		<trkpt lat="39.5068130493164" lon="2.75531601905823">
			<ele>75</ele>
			<time>2013-12-29T16:00:22Z</time>
		</trkpt>
	</trkseg>
</trk>

</gpx>